﻿<?xml version="1.0" encoding="utf-8"?><gpx creator="Garmin Desktop App" version="1.1" xsi:schemaLocation="http://www.topografix.com/GPX/1/1 http://www.topografix.com/GPX/1/1/gpx.xsd http://www.garmin.com/xmlschemas/WaypointExtension/v1 http://www8.garmin.com/xmlschemas/WaypointExtensionv1.xsd http://www.garmin.com/xmlschemas/TrackPointExtension/v1 http://www.garmin.com/xmlschemas/TrackPointExtensionv1.xsd http://www.garmin.com/xmlschemas/GpxExtensions/v3 http://www8.garmin.com/xmlschemas/GpxExtensionsv3.xsd http://www.garmin.com/xmlschemas/ActivityExtension/v1 http://www8.garmin.com/xmlschemas/ActivityExtensionv1.xsd http://www.garmin.com/xmlschemas/AdventuresExtensions/v1 http://www8.garmin.com/xmlschemas/AdventuresExtensionv1.xsd http://www.garmin.com/xmlschemas/PressureExtension/v1 http://www.garmin.com/xmlschemas/PressureExtensionv1.xsd http://www.garmin.com/xmlschemas/TripExtensions/v1 http://www.garmin.com/xmlschemas/TripExtensionsv1.xsd http://www.garmin.com/xmlschemas/TripMetaDataExtensions/v1 http://www.garmin.com/xmlschemas/TripMetaDataExtensionsv1.xsd http://www.garmin.com/xmlschemas/ViaPointTransportationModeExtensions/v1 http://www.garmin.com/xmlschemas/ViaPointTransportationModeExtensionsv1.xsd http://www.garmin.com/xmlschemas/CreationTimeExtension/v1 http://www.garmin.com/xmlschemas/CreationTimeExtensionsv1.xsd http://www.garmin.com/xmlschemas/AccelerationExtension/v1 http://www.garmin.com/xmlschemas/AccelerationExtensionv1.xsd http://www.garmin.com/xmlschemas/PowerExtension/v1 http://www.garmin.com/xmlschemas/PowerExtensionv1.xsd http://www.garmin.com/xmlschemas/VideoExtension/v1 http://www.garmin.com/xmlschemas/VideoExtensionv1.xsd" xmlns="http://www.topografix.com/GPX/1/1" xmlns:xsi="http://www.w3.org/2001/XMLSchema-instance" xmlns:wptx1="http://www.garmin.com/xmlschemas/WaypointExtension/v1" xmlns:gpxtrx="http://www.garmin.com/xmlschemas/GpxExtensions/v3" xmlns:gpxtpx="http://www.garmin.com/xmlschemas/TrackPointExtension/v1" xmlns:gpxx="http://www.garmin.com/xmlschemas/GpxExtensions/v3" xmlns:trp="http://www.garmin.com/xmlschemas/TripExtensions/v1" xmlns:adv="http://www.garmin.com/xmlschemas/AdventuresExtensions/v1" xmlns:prs="http://www.garmin.com/xmlschemas/PressureExtension/v1" xmlns:tmd="http://www.garmin.com/xmlschemas/TripMetaDataExtensions/v1" xmlns:vptm="http://www.garmin.com/xmlschemas/ViaPointTransportationModeExtensions/v1" xmlns:ctx="http://www.garmin.com/xmlschemas/CreationTimeExtension/v1" xmlns:gpxacc="http://www.garmin.com/xmlschemas/AccelerationExtension/v1" xmlns:gpxpx="http://www.garmin.com/xmlschemas/PowerExtension/v1" xmlns:vidx1="http://www.garmin.com/xmlschemas/VideoExtension/v1">

  <metadata>
    <link href="http://www.garmin.com">
      <text>Garmin International</text>
    </link>
    <time>2024-09-18T20:24:07Z</time>
    <bounds maxlat="51.607097033411264" maxlon="15.034939991310239" minlat="50.828813016414642" minlon="13.689350998029113" />
  </metadata>

  <trk>
    <name>Track 240918</name>
    <extensions>
      <gpxx:TrackExtension>
        <gpxx:DisplayColor>DarkGray</gpxx:DisplayColor>
      </gpxx:TrackExtension>
    </extensions>
    <trkseg>
      <trkpt lat="51.606074022129178" lon="14.407446999102831">
        <ele>120.78</ele>
        <time>2024-09-18T06:38:41Z</time>
      </trkpt>
      <trkpt lat="51.606074022129178" lon="14.407446999102831">
        <ele>120.78</ele>
        <time>2024-09-18T06:39:03Z</time>
      </trkpt>
      <trkpt lat="51.60642103292048" lon="14.406140008941293">
        <ele>122.70999999999999</ele>
        <time>2024-09-18T06:39:15Z</time>
      </trkpt>
      <trkpt lat="51.606481969356537" lon="14.404514003545046">
        <ele>123.67</ele>
        <time>2024-09-18T06:39:29Z</time>
      </trkpt>
      <trkpt lat="51.606601998209953" lon="14.402778027579188">
        <ele>118.86</ele>
        <time>2024-09-18T06:39:43Z</time>
      </trkpt>
      <trkpt lat="51.606870973482728" lon="14.401046996936202">
        <ele>119.81999999999999</ele>
        <time>2024-09-18T06:39:57Z</time>
      </trkpt>
      <trkpt lat="51.607070965692401" lon="14.399762973189354">
        <ele>121.26000000000001</ele>
        <time>2024-09-18T06:40:09Z</time>
      </trkpt>
      <trkpt lat="51.607097033411264" lon="14.399600028991699">
        <ele>121.26000000000001</ele>
        <time>2024-09-18T06:40:14Z</time>
      </trkpt>
      <trkpt lat="51.607097033411264" lon="14.399600028991699">
        <ele>121.73999999999999</ele>
        <time>2024-09-18T06:40:15Z</time>
      </trkpt>
      <trkpt lat="51.607018997892737" lon="14.399613020941615">
        <ele>122.22</ele>
        <time>2024-09-18T06:40:16Z</time>
      </trkpt>
      <trkpt lat="51.606956971809268" lon="14.399626012891531">
        <ele>122.70999999999999</ele>
        <time>2024-09-18T06:40:17Z</time>
      </trkpt>
      <trkpt lat="51.606881031766534" lon="14.399659037590027">
        <ele>122.70999999999999</ele>
        <time>2024-09-18T06:40:18Z</time>
      </trkpt>
      <trkpt lat="51.606798972934484" lon="14.399697007611394">
        <ele>122.70999999999999</ele>
        <time>2024-09-18T06:40:19Z</time>
      </trkpt>
      <trkpt lat="51.60670300014317" lon="14.399756016209722">
        <ele>123.19</ele>
        <time>2024-09-18T06:40:20Z</time>
      </trkpt>
      <trkpt lat="51.606053989380598" lon="14.40024702809751">
        <ele>123.67</ele>
        <time>2024-09-18T06:40:26Z</time>
      </trkpt>
      <trkpt lat="51.605812003836036" lon="14.400384994223714">
        <ele>124.15000000000001</ele>
        <time>2024-09-18T06:40:28Z</time>
      </trkpt>
      <trkpt lat="51.604581959545612" lon="14.400833006948233">
        <ele>127.51000000000001</ele>
        <time>2024-09-18T06:40:39Z</time>
      </trkpt>
      <trkpt lat="51.603735974058509" lon="14.401141041889787">
        <ele>128.47</ele>
        <time>2024-09-18T06:40:47Z</time>
      </trkpt>
      <trkpt lat="51.603627009317279" lon="14.401152022182941">
        <ele>128.94999999999999</ele>
        <time>2024-09-18T06:40:48Z</time>
      </trkpt>
      <trkpt lat="51.603491976857185" lon="14.401167025789618">
        <ele>128.94999999999999</ele>
        <time>2024-09-18T06:40:49Z</time>
      </trkpt>
      <trkpt lat="51.602455973625183" lon="14.40091397613287">
        <ele>130.88</ele>
        <time>2024-09-18T06:40:59Z</time>
      </trkpt>
      <trkpt lat="51.601282004266977" lon="14.400614993646741">
        <ele>133.28</ele>
        <time>2024-09-18T06:41:10Z</time>
      </trkpt>
      <trkpt lat="51.600607009604573" lon="14.400431010872126">
        <ele>134.72</ele>
        <time>2024-09-18T06:41:16Z</time>
      </trkpt>
      <trkpt lat="51.599477967247367" lon="14.400138985365629">
        <ele>136.16</ele>
        <time>2024-09-18T06:41:26Z</time>
      </trkpt>
      <trkpt lat="51.59845101647079" lon="14.399887025356293">
        <ele>135.68000000000001</ele>
        <time>2024-09-18T06:41:35Z</time>
      </trkpt>
      <trkpt lat="51.598105011507869" lon="14.399802032858133">
        <ele>135.19999999999999</ele>
        <time>2024-09-18T06:41:38Z</time>
      </trkpt>
      <trkpt lat="51.597531018778682" lon="14.399670017883182">
        <ele>134.24000000000001</ele>
        <time>2024-09-18T06:41:43Z</time>
      </trkpt>
      <trkpt lat="51.597417024895549" lon="14.399650990962982">
        <ele>133.75999999999999</ele>
        <time>2024-09-18T06:41:44Z</time>
      </trkpt>
      <trkpt lat="51.59598003141582" lon="14.399419985711575">
        <ele>130.40000000000001</ele>
        <time>2024-09-18T06:41:57Z</time>
      </trkpt>
      <trkpt lat="51.594960037618876" lon="14.39923700876534">
        <ele>131.36000000000001</ele>
        <time>2024-09-18T06:42:06Z</time>
      </trkpt>
      <trkpt lat="51.594855012372136" lon="14.399213036522269">
        <ele>131.36000000000001</ele>
        <time>2024-09-18T06:42:07Z</time>
      </trkpt>
      <trkpt lat="51.594655020162463" lon="14.399155033752322">
        <ele>130.88</ele>
        <time>2024-09-18T06:42:09Z</time>
      </trkpt>
      <trkpt lat="51.594566004350781" lon="14.399072974920273">
        <ele>130.88</ele>
        <time>2024-09-18T06:42:10Z</time>
      </trkpt>
      <trkpt lat="51.594475982710719" lon="14.398990999907255">
        <ele>131.36000000000001</ele>
        <time>2024-09-18T06:42:11Z</time>
      </trkpt>
      <trkpt lat="51.593336965888739" lon="14.397929012775421">
        <ele>129.91999999999999</ele>
        <time>2024-09-18T06:42:23Z</time>
      </trkpt>
      <trkpt lat="51.592431971803308" lon="14.39706701785326">
        <ele>128.47</ele>
        <time>2024-09-18T06:42:32Z</time>
      </trkpt>
      <trkpt lat="51.591422036290169" lon="14.396108966320753">
        <ele>127.03</ele>
        <time>2024-09-18T06:42:42Z</time>
      </trkpt>
      <trkpt lat="51.590411011129618" lon="14.395144963636994">
        <ele>123.67</ele>
        <time>2024-09-18T06:42:51Z</time>
      </trkpt>
      <trkpt lat="51.590057965368032" lon="14.394802981987596">
        <ele>122.70999999999999</ele>
        <time>2024-09-18T06:42:54Z</time>
      </trkpt>
      <trkpt lat="51.589817991480231" lon="14.394569965079427">
        <ele>121.73999999999999</ele>
        <time>2024-09-18T06:42:56Z</time>
      </trkpt>
      <trkpt lat="51.589689999818802" lon="14.39444599673152">
        <ele>121.26000000000001</ele>
        <time>2024-09-18T06:42:57Z</time>
      </trkpt>
      <trkpt lat="51.589563013985753" lon="14.394323034211993">
        <ele>120.78</ele>
        <time>2024-09-18T06:42:58Z</time>
      </trkpt>
      <trkpt lat="51.589435022324324" lon="14.394198982045054">
        <ele>119.81999999999999</ele>
        <time>2024-09-18T06:42:59Z</time>
      </trkpt>
      <trkpt lat="51.589307030662894" lon="14.394074007868767">
        <ele>119.34</ele>
        <time>2024-09-18T06:43:00Z</time>
      </trkpt>
      <trkpt lat="51.589182978495955" lon="14.393954984843731">
        <ele>118.38</ele>
        <time>2024-09-18T06:43:01Z</time>
      </trkpt>
      <trkpt lat="51.589052975177765" lon="14.393829004839063">
        <ele>117.42</ele>
        <time>2024-09-18T06:43:02Z</time>
      </trkpt>
      <trkpt lat="51.588635975494981" lon="14.393423991277814">
        <ele>113.56999999999999</ele>
        <time>2024-09-18T06:43:05Z</time>
      </trkpt>
      <trkpt lat="51.588490968570113" lon="14.393283007666469">
        <ele>112.61</ele>
        <time>2024-09-18T06:43:06Z</time>
      </trkpt>
      <trkpt lat="51.587094962596893" lon="14.391938969492912">
        <ele>103.95999999999999</ele>
        <time>2024-09-18T06:43:15Z</time>
      </trkpt>
      <trkpt lat="51.585537018254399" lon="14.390471968799829">
        <ele>99.629999999999995</ele>
        <time>2024-09-18T06:43:23Z</time>
      </trkpt>
      <trkpt lat="51.583809005096555" lon="14.3886430375278">
        <ele>92.900000000000006</ele>
        <time>2024-09-18T06:43:33Z</time>
      </trkpt>
      <trkpt lat="51.582812983542681" lon="14.387190034613013">
        <ele>88.579999999999998</ele>
        <time>2024-09-18T06:43:40Z</time>
      </trkpt>
      <trkpt lat="51.581781003624201" lon="14.385720016434789">
        <ele>87.140000000000001</ele>
        <time>2024-09-18T06:43:48Z</time>
      </trkpt>
      <trkpt lat="51.580507960170507" lon="14.383912039920688">
        <ele>90.5</ele>
        <time>2024-09-18T06:43:59Z</time>
      </trkpt>
      <trkpt lat="51.579298032447696" lon="14.382830020040274">
        <ele>99.629999999999995</ele>
        <time>2024-09-18T06:44:09Z</time>
      </trkpt>
      <trkpt lat="51.578072011470795" lon="14.381928965449333">
        <ele>106.84</ele>
        <time>2024-09-18T06:44:21Z</time>
      </trkpt>
      <trkpt lat="51.576959984377027" lon="14.3814040068537">
        <ele>111.65000000000001</ele>
        <time>2024-09-18T06:44:31Z</time>
      </trkpt>
      <trkpt lat="51.576226986944675" lon="14.381371987983584">
        <ele>114.53</ele>
        <time>2024-09-18T06:44:37Z</time>
      </trkpt>
      <trkpt lat="51.575660035014153" lon="14.381401995196939">
        <ele>116.45999999999999</ele>
        <time>2024-09-18T06:44:43Z</time>
      </trkpt>
      <trkpt lat="51.575601026415825" lon="14.381410041823983">
        <ele>116.45999999999999</ele>
        <time>2024-09-18T06:44:44Z</time>
      </trkpt>
      <trkpt lat="51.575556015595794" lon="14.381415992975235">
        <ele>116.94</ele>
        <time>2024-09-18T06:44:45Z</time>
      </trkpt>
      <trkpt lat="51.575475968420506" lon="14.381317002698779">
        <ele>116.94</ele>
        <time>2024-09-18T06:44:46Z</time>
      </trkpt>
      <trkpt lat="51.575468005612493" lon="14.381246007978916">
        <ele>116.94</ele>
        <time>2024-09-18T06:44:47Z</time>
      </trkpt>
      <trkpt lat="51.575456019490957" lon="14.381149029359221">
        <ele>116.94</ele>
        <time>2024-09-18T06:44:48Z</time>
      </trkpt>
      <trkpt lat="51.57544101588428" lon="14.381024977192283">
        <ele>116.94</ele>
        <time>2024-09-18T06:44:49Z</time>
      </trkpt>
      <trkpt lat="51.575418971478939" lon="14.380843006074429">
        <ele>116.94</ele>
        <time>2024-09-18T06:44:50Z</time>
      </trkpt>
      <trkpt lat="51.575390975922346" lon="14.380616024136543">
        <ele>116.45999999999999</ele>
        <time>2024-09-18T06:44:51Z</time>
      </trkpt>
      <trkpt lat="51.575273964554071" lon="14.379647998139262">
        <ele>115.01000000000001</ele>
        <time>2024-09-18T06:44:55Z</time>
      </trkpt>
      <trkpt lat="51.575211016461253" lon="14.379129996523261">
        <ele>114.05</ele>
        <time>2024-09-18T06:44:56Z</time>
      </trkpt>
      <trkpt lat="51.575211016461253" lon="14.379129996523261">
        <ele>113.09</ele>
        <time>2024-09-18T06:44:57Z</time>
      </trkpt>
      <trkpt lat="51.574908010661602" lon="14.378369003534317">
        <ele>107.31999999999999</ele>
        <time>2024-09-18T06:45:02Z</time>
      </trkpt>
      <trkpt lat="51.574812959879637" lon="14.378272024914622">
        <ele>106.36</ele>
        <time>2024-09-18T06:45:03Z</time>
      </trkpt>
      <trkpt lat="51.574728973209858" lon="14.378207987174392">
        <ele>105.40000000000001</ele>
        <time>2024-09-18T06:45:04Z</time>
      </trkpt>
      <trkpt lat="51.574648004025221" lon="14.378145961090922">
        <ele>103.95999999999999</ele>
        <time>2024-09-18T06:45:05Z</time>
      </trkpt>
      <trkpt lat="51.574557982385159" lon="14.378087958320975">
        <ele>103</ele>
        <time>2024-09-18T06:45:06Z</time>
      </trkpt>
      <trkpt lat="51.574266962707043" lon="14.377971030771732">
        <ele>100.11</ele>
        <time>2024-09-18T06:45:09Z</time>
      </trkpt>
      <trkpt lat="51.573719037696719" lon="14.378116959705949">
        <ele>97.709999999999994</ele>
        <time>2024-09-18T06:45:15Z</time>
      </trkpt>
      <trkpt lat="51.57299199141562" lon="14.378613000735641">
        <ele>95.310000000000002</ele>
        <time>2024-09-18T06:45:23Z</time>
      </trkpt>
      <trkpt lat="51.572637017816305" lon="14.378913994878531">
        <ele>95.790000000000006</ele>
        <time>2024-09-18T06:45:28Z</time>
      </trkpt>
      <trkpt lat="51.572577003389597" lon="14.378966968506575">
        <ele>95.310000000000002</ele>
        <time>2024-09-18T06:45:29Z</time>
      </trkpt>
      <trkpt lat="51.572393020614982" lon="14.37912899069488">
        <ele>95.310000000000002</ele>
        <time>2024-09-18T06:45:32Z</time>
      </trkpt>
      <trkpt lat="51.571862027049065" lon="14.379521012306213">
        <ele>100.59999999999999</ele>
        <time>2024-09-18T06:45:42Z</time>
      </trkpt>
      <trkpt lat="51.571618029847741" lon="14.379692003130913">
        <ele>104.92</ele>
        <time>2024-09-18T06:45:51Z</time>
      </trkpt>
      <trkpt lat="51.571551980450749" lon="14.379768026992679">
        <ele>105.88</ele>
        <time>2024-09-18T06:45:54Z</time>
      </trkpt>
      <trkpt lat="51.571532031521201" lon="14.379789987578988">
        <ele>106.36</ele>
        <time>2024-09-18T06:45:55Z</time>
      </trkpt>
      <trkpt lat="51.571532031521201" lon="14.379789987578988">
        <ele>106.36</ele>
        <time>2024-09-18T06:45:56Z</time>
      </trkpt>
      <trkpt lat="51.571426000446081" lon="14.379890989512205">
        <ele>109.25</ele>
        <time>2024-09-18T06:46:09Z</time>
      </trkpt>
      <trkpt lat="51.571436980739236" lon="14.379898030310869">
        <ele>109.25</ele>
        <time>2024-09-18T06:46:12Z</time>
      </trkpt>
      <trkpt lat="51.571418959647417" lon="14.37988000921905">
        <ele>109.73</ele>
        <time>2024-09-18T06:46:17Z</time>
      </trkpt>
      <trkpt lat="51.571428012102842" lon="14.379894006997347">
        <ele>109.73</ele>
        <time>2024-09-18T06:46:18Z</time>
      </trkpt>
      <trkpt lat="51.571428012102842" lon="14.379894006997347">
        <ele>109.25</ele>
        <time>2024-09-18T06:46:20Z</time>
      </trkpt>
      <trkpt lat="51.571428012102842" lon="14.379894006997347">
        <ele>107.81</ele>
        <time>2024-09-18T06:46:35Z</time>
      </trkpt>
      <trkpt lat="51.571433963254094" lon="14.37998897396028">
        <ele>113.09</ele>
        <time>2024-09-18T07:16:24Z</time>
      </trkpt>
      <trkpt lat="51.571498000994325" lon="14.379984028637409">
        <ele>111.17</ele>
        <time>2024-09-18T07:17:15Z</time>
      </trkpt>
      <trkpt lat="51.571508981287479" lon="14.379941029474139">
        <ele>109.73</ele>
        <time>2024-09-18T07:18:01Z</time>
      </trkpt>
      <trkpt lat="51.571500012651086" lon="14.379827035591006">
        <ele>109.73</ele>
        <time>2024-09-18T07:18:26Z</time>
      </trkpt>
      <trkpt lat="51.571535971015692" lon="14.379785964265466">
        <ele>109.25</ele>
        <time>2024-09-18T07:18:27Z</time>
      </trkpt>
      <trkpt lat="51.57157301902771" lon="14.379742965102196">
        <ele>108.77</ele>
        <time>2024-09-18T07:18:28Z</time>
      </trkpt>
      <trkpt lat="51.571652982383966" lon="14.379652021452785">
        <ele>105.88</ele>
        <time>2024-09-18T07:18:38Z</time>
      </trkpt>
      <trkpt lat="51.571777034550905" lon="14.379545990377665">
        <ele>102.52</ele>
        <time>2024-09-18T07:18:58Z</time>
      </trkpt>
      <trkpt lat="51.572026982903481" lon="14.37947298400104">
        <ele>97.709999999999994</ele>
        <time>2024-09-18T07:19:06Z</time>
      </trkpt>
      <trkpt lat="51.572106024250388" lon="14.379473989829421">
        <ele>96.269999999999996</ele>
        <time>2024-09-18T07:19:09Z</time>
      </trkpt>
      <trkpt lat="51.572129996493459" lon="14.379561999812722">
        <ele>95.310000000000002</ele>
        <time>2024-09-18T07:19:10Z</time>
      </trkpt>
      <trkpt lat="51.572266034781933" lon="14.380127023905516">
        <ele>92.420000000000002</ele>
        <time>2024-09-18T07:19:15Z</time>
      </trkpt>
      <trkpt lat="51.572278020903468" lon="14.380232971161604">
        <ele>91.939999999999998</ele>
        <time>2024-09-18T07:19:16Z</time>
      </trkpt>
      <trkpt lat="51.572275003418326" lon="14.380379989743233">
        <ele>90.980000000000004</ele>
        <time>2024-09-18T07:19:17Z</time>
      </trkpt>
      <trkpt lat="51.572228986769915" lon="14.380451990291476">
        <ele>90.5</ele>
        <time>2024-09-18T07:19:18Z</time>
      </trkpt>
      <trkpt lat="51.572180958464742" lon="14.380528014153242">
        <ele>90.019999999999996</ele>
        <time>2024-09-18T07:19:19Z</time>
      </trkpt>
      <trkpt lat="51.572125973179936" lon="14.380603032186627">
        <ele>89.540000000000006</ele>
        <time>2024-09-18T07:19:20Z</time>
      </trkpt>
      <trkpt lat="51.572063025087118" lon="14.380656005814672">
        <ele>89.060000000000002</ele>
        <time>2024-09-18T07:19:21Z</time>
      </trkpt>
      <trkpt lat="51.571949031203985" lon="14.380765976384282">
        <ele>87.620000000000005</ele>
        <time>2024-09-18T07:19:23Z</time>
      </trkpt>
      <trkpt lat="51.571907959878445" lon="14.380811993032694">
        <ele>87.140000000000001</ele>
        <time>2024-09-18T07:19:24Z</time>
      </trkpt>
      <trkpt lat="51.571879964321852" lon="14.380843006074429">
        <ele>86.180000000000007</ele>
        <time>2024-09-18T07:19:31Z</time>
      </trkpt>
      <trkpt lat="51.571866972371936" lon="14.380858009681106">
        <ele>86.180000000000007</ele>
        <time>2024-09-18T07:19:44Z</time>
      </trkpt>
      <trkpt lat="51.571792960166931" lon="14.380843006074429">
        <ele>86.659999999999997</ele>
        <time>2024-09-18T07:19:45Z</time>
      </trkpt>
      <trkpt lat="51.571820033714175" lon="14.38091098330915">
        <ele>86.659999999999997</ele>
        <time>2024-09-18T07:19:46Z</time>
      </trkpt>
      <trkpt lat="51.571832019835711" lon="14.380949037149549">
        <ele>87.140000000000001</ele>
        <time>2024-09-18T07:19:47Z</time>
      </trkpt>
      <trkpt lat="51.571860015392303" lon="14.38104098662734">
        <ele>87.140000000000001</ele>
        <time>2024-09-18T07:19:48Z</time>
      </trkpt>
      <trkpt lat="51.571893040090799" lon="14.38114601187408">
        <ele>87.140000000000001</ele>
        <time>2024-09-18T07:19:49Z</time>
      </trkpt>
      <trkpt lat="51.571930004283786" lon="14.381256988272071">
        <ele>87.140000000000001</ele>
        <time>2024-09-18T07:19:50Z</time>
      </trkpt>
      <trkpt lat="51.572302998974919" lon="14.382360968738794">
        <ele>87.140000000000001</ele>
        <time>2024-09-18T07:19:59Z</time>
      </trkpt>
      <trkpt lat="51.572553031146526" lon="14.383268980309367">
        <ele>88.579999999999998</ele>
        <time>2024-09-18T07:20:05Z</time>
      </trkpt>
      <trkpt lat="51.572765009477735" lon="14.384575970470905">
        <ele>92.900000000000006</ele>
        <time>2024-09-18T07:20:13Z</time>
      </trkpt>
      <trkpt lat="51.57275402918458" lon="14.385888995602727">
        <ele>95.790000000000006</ele>
        <time>2024-09-18T07:20:22Z</time>
      </trkpt>
      <trkpt lat="51.572616985067725" lon="14.387067994102836">
        <ele>98.670000000000002</ele>
        <time>2024-09-18T07:20:32Z</time>
      </trkpt>
      <trkpt lat="51.572607010602951" lon="14.38720503821969">
        <ele>98.670000000000002</ele>
        <time>2024-09-18T07:20:33Z</time>
      </trkpt>
      <trkpt lat="51.572559988126159" lon="14.388546980917454">
        <ele>103</ele>
        <time>2024-09-18T07:20:42Z</time>
      </trkpt>
      <trkpt lat="51.5725630056113" lon="14.388715038076043">
        <ele>103.48</ele>
        <time>2024-09-18T07:20:43Z</time>
      </trkpt>
      <trkpt lat="51.572722010314465" lon="14.390309024602175">
        <ele>104.92</ele>
        <time>2024-09-18T07:20:51Z</time>
      </trkpt>
      <trkpt lat="51.572814965620637" lon="14.390712026506662">
        <ele>104.44</ele>
        <time>2024-09-18T07:20:53Z</time>
      </trkpt>
      <trkpt lat="51.573058040812612" lon="14.391536973416805">
        <ele>104.44</ele>
        <time>2024-09-18T07:20:57Z</time>
      </trkpt>
      <trkpt lat="51.573319975286722" lon="14.392198976129293">
        <ele>104.92</ele>
        <time>2024-09-18T07:21:01Z</time>
      </trkpt>
      <trkpt lat="51.57337898388505" lon="14.392321016639471">
        <ele>104.92</ele>
        <time>2024-09-18T07:21:02Z</time>
      </trkpt>
      <trkpt lat="51.573433969169855" lon="14.392435010522604">
        <ele>105.40000000000001</ele>
        <time>2024-09-18T07:21:03Z</time>
      </trkpt>
      <trkpt lat="51.573605965822935" lon="14.392824014648795">
        <ele>107.31999999999999</ele>
        <time>2024-09-18T07:21:07Z</time>
      </trkpt>
      <trkpt lat="51.573635973036289" lon="14.392900038510561">
        <ele>107.81</ele>
        <time>2024-09-18T07:21:08Z</time>
      </trkpt>
      <trkpt lat="51.573661034926772" lon="14.39296499826014">
        <ele>108.29000000000001</ele>
        <time>2024-09-18T07:21:09Z</time>
      </trkpt>
      <trkpt lat="51.573647959157825" lon="14.393237996846437">
        <ele>108.77</ele>
        <time>2024-09-18T07:21:10Z</time>
      </trkpt>
      <trkpt lat="51.573588028550148" lon="14.3933089915663">
        <ele>109.73</ele>
        <time>2024-09-18T07:21:11Z</time>
      </trkpt>
      <trkpt lat="51.573512004688382" lon="14.393399013206363">
        <ele>110.20999999999999</ele>
        <time>2024-09-18T07:21:12Z</time>
      </trkpt>
      <trkpt lat="51.573432041332126" lon="14.393492974340916">
        <ele>110.69</ele>
        <time>2024-09-18T07:21:13Z</time>
      </trkpt>
      <trkpt lat="51.573355011641979" lon="14.393584001809359">
        <ele>111.17</ele>
        <time>2024-09-18T07:21:14Z</time>
      </trkpt>
      <trkpt lat="51.572549007833004" lon="14.394584968686104">
        <ele>117.42</ele>
        <time>2024-09-18T07:21:26Z</time>
      </trkpt>
      <trkpt lat="51.571976020932198" lon="14.395312014967203">
        <ele>119.34</ele>
        <time>2024-09-18T07:21:35Z</time>
      </trkpt>
      <trkpt lat="51.571916006505489" lon="14.39536901190877">
        <ele>119.34</ele>
        <time>2024-09-18T07:21:36Z</time>
      </trkpt>
      <trkpt lat="51.571863032877445" lon="14.395351996645331">
        <ele>119.81999999999999</ele>
        <time>2024-09-18T07:21:37Z</time>
      </trkpt>
      <trkpt lat="51.571815004572272" lon="14.39526298083365">
        <ele>119.81999999999999</ele>
        <time>2024-09-18T07:21:38Z</time>
      </trkpt>
      <trkpt lat="51.571765970438719" lon="14.395172037184238">
        <ele>120.3</ele>
        <time>2024-09-18T07:21:39Z</time>
      </trkpt>
      <trkpt lat="51.571709979325533" lon="14.39506902359426">
        <ele>120.3</ele>
        <time>2024-09-18T07:21:40Z</time>
      </trkpt>
      <trkpt lat="51.571084018796682" lon="14.393918020650744">
        <ele>122.70999999999999</ele>
        <time>2024-09-18T07:21:51Z</time>
      </trkpt>
      <trkpt lat="51.57080196775496" lon="14.393401024863124">
        <ele>122.70999999999999</ele>
        <time>2024-09-18T07:21:57Z</time>
      </trkpt>
      <trkpt lat="51.570771038532257" lon="14.393342016264796">
        <ele>122.70999999999999</ele>
        <time>2024-09-18T07:21:58Z</time>
      </trkpt>
      <trkpt lat="51.570741031318903" lon="14.393288036808372">
        <ele>123.19</ele>
        <time>2024-09-18T07:21:59Z</time>
      </trkpt>
      <trkpt lat="51.570661989971995" lon="14.393141018226743">
        <ele>123.19</ele>
        <time>2024-09-18T07:22:02Z</time>
      </trkpt>
      <trkpt lat="51.570626031607389" lon="14.393155016005039">
        <ele>123.19</ele>
        <time>2024-09-18T07:22:03Z</time>
      </trkpt>
      <trkpt lat="51.570580014958978" lon="14.393172031268477">
        <ele>123.67</ele>
        <time>2024-09-18T07:22:04Z</time>
      </trkpt>
      <trkpt lat="51.570527963340282" lon="14.393190974369645">
        <ele>123.67</ele>
        <time>2024-09-18T07:22:05Z</time>
      </trkpt>
      <trkpt lat="51.570473983883858" lon="14.393212012946606">
        <ele>123.67</ele>
        <time>2024-09-18T07:22:06Z</time>
      </trkpt>
      <trkpt lat="51.570417992770672" lon="14.393232967704535">
        <ele>123.67</ele>
        <time>2024-09-18T07:22:07Z</time>
      </trkpt>
      <trkpt lat="51.570360995829105" lon="14.393254006281495">
        <ele>123.67</ele>
        <time>2024-09-18T07:22:08Z</time>
      </trkpt>
      <trkpt lat="51.569748027250171" lon="14.393484005704522">
        <ele>124.15000000000001</ele>
        <time>2024-09-18T07:22:17Z</time>
      </trkpt>
      <trkpt lat="51.569676026701927" lon="14.393510995432734">
        <ele>124.15000000000001</ele>
        <time>2024-09-18T07:22:18Z</time>
      </trkpt>
      <trkpt lat="51.569304037839174" lon="14.393649967387319">
        <ele>124.15000000000001</ele>
        <time>2024-09-18T07:22:25Z</time>
      </trkpt>
      <trkpt lat="51.569275036454201" lon="14.393702019006014">
        <ele>124.15000000000001</ele>
        <time>2024-09-18T07:22:26Z</time>
      </trkpt>
      <trkpt lat="51.56925399787724" lon="14.393775025382638">
        <ele>124.15000000000001</ele>
        <time>2024-09-18T07:22:27Z</time>
      </trkpt>
      <trkpt lat="51.56923103146255" lon="14.393854988738894">
        <ele>124.63</ele>
        <time>2024-09-18T07:22:28Z</time>
      </trkpt>
      <trkpt lat="51.569205969572067" lon="14.393942998722196">
        <ele>124.63</ele>
        <time>2024-09-18T07:22:29Z</time>
      </trkpt>
      <trkpt lat="51.569043025374413" lon="14.394506011158228">
        <ele>124.63</ele>
        <time>2024-09-18T07:22:36Z</time>
      </trkpt>
      <trkpt lat="51.568786036223173" lon="14.395398013293743">
        <ele>125.59</ele>
        <time>2024-09-18T07:22:46Z</time>
      </trkpt>
      <trkpt lat="51.568715963512659" lon="14.395638993009925">
        <ele>126.06999999999999</ele>
        <time>2024-09-18T07:22:49Z</time>
      </trkpt>
      <trkpt lat="51.568687967956066" lon="14.395737983286381">
        <ele>126.06999999999999</ele>
        <time>2024-09-18T07:22:50Z</time>
      </trkpt>
      <trkpt lat="51.568677993491292" lon="14.395770002156496">
        <ele>126.06999999999999</ele>
        <time>2024-09-18T07:22:51Z</time>
      </trkpt>
      <trkpt lat="51.568614961579442" lon="14.395745024085045">
        <ele>126.06999999999999</ele>
        <time>2024-09-18T07:22:52Z</time>
      </trkpt>
      <trkpt lat="51.568581014871597" lon="14.395748041570187">
        <ele>125.59</ele>
        <time>2024-09-18T07:22:53Z</time>
      </trkpt>
      <trkpt lat="51.568543966859579" lon="14.395750975236297">
        <ele>125.59</ele>
        <time>2024-09-18T07:22:54Z</time>
      </trkpt>
      <trkpt lat="51.568497028201818" lon="14.3957560043782">
        <ele>125.59</ele>
        <time>2024-09-18T07:22:55Z</time>
      </trkpt>
      <trkpt lat="51.568398959934711" lon="14.395764973014593">
        <ele>125.59</ele>
        <time>2024-09-18T07:22:57Z</time>
      </trkpt>
      <trkpt lat="51.568336011841893" lon="14.395771007984877">
        <ele>125.59</ele>
        <time>2024-09-18T07:23:05Z</time>
      </trkpt>
      <trkpt lat="51.568237021565437" lon="14.395787017419934">
        <ele>126.06999999999999</ele>
        <time>2024-09-18T07:23:13Z</time>
      </trkpt>
      <trkpt lat="51.568231992423534" lon="14.395846026018262">
        <ele>126.06999999999999</ele>
        <time>2024-09-18T07:23:14Z</time>
      </trkpt>
      <trkpt lat="51.568225035443902" lon="14.395932024344802">
        <ele>126.06999999999999</ele>
        <time>2024-09-18T07:23:15Z</time>
      </trkpt>
      <trkpt lat="51.568217994645238" lon="14.396026991307735">
        <ele>126.06999999999999</ele>
        <time>2024-09-18T07:23:16Z</time>
      </trkpt>
      <trkpt lat="51.568210031837225" lon="14.396134028211236">
        <ele>126.06999999999999</ele>
        <time>2024-09-18T07:23:17Z</time>
      </trkpt>
      <trkpt lat="51.568199973553419" lon="14.396264031529427">
        <ele>126.06999999999999</ele>
        <time>2024-09-18T07:23:18Z</time>
      </trkpt>
      <trkpt lat="51.568187987431884" lon="14.396419012919068">
        <ele>126.06999999999999</ele>
        <time>2024-09-18T07:23:19Z</time>
      </trkpt>
      <trkpt lat="51.568040968850255" lon="14.398195976391435">
        <ele>123.67</ele>
        <time>2024-09-18T07:23:28Z</time>
      </trkpt>
      <trkpt lat="51.567774005234241" lon="14.400924034416676">
        <ele>124.15000000000001</ele>
        <time>2024-09-18T07:23:42Z</time>
      </trkpt>
      <trkpt lat="51.567754978314042" lon="14.401118997484446">
        <ele>124.15000000000001</ele>
        <time>2024-09-18T07:23:43Z</time>
      </trkpt>
      <trkpt lat="51.567736035212874" lon="14.401315972208977">
        <ele>124.63</ele>
        <time>2024-09-18T07:23:44Z</time>
      </trkpt>
      <trkpt lat="51.567649031057954" lon="14.402312999591231">
        <ele>125.59</ele>
        <time>2024-09-18T07:23:49Z</time>
      </trkpt>
      <trkpt lat="51.567673003301024" lon="14.403824005275965">
        <ele>126.06999999999999</ele>
        <time>2024-09-18T07:23:58Z</time>
      </trkpt>
      <trkpt lat="51.567757995799184" lon="14.405083972960711">
        <ele>126.55</ele>
        <time>2024-09-18T07:24:09Z</time>
      </trkpt>
      <trkpt lat="51.567860003560781" lon="14.406467992812395">
        <ele>125.11</ele>
        <time>2024-09-18T07:24:18Z</time>
      </trkpt>
      <trkpt lat="51.568010961636901" lon="14.408590961247683">
        <ele>123.67</ele>
        <time>2024-09-18T07:24:28Z</time>
      </trkpt>
      <trkpt lat="51.568151023238897" lon="14.410392986610532">
        <ele>124.63</ele>
        <time>2024-09-18T07:24:36Z</time>
      </trkpt>
      <trkpt lat="51.568341962993145" lon="14.413019958883524">
        <ele>119.81999999999999</ele>
        <time>2024-09-18T07:24:47Z</time>
      </trkpt>
      <trkpt lat="51.568424021825194" lon="14.414238017052412">
        <ele>118.38</ele>
        <time>2024-09-18T07:24:52Z</time>
      </trkpt>
      <trkpt lat="51.568605992943048" lon="14.416713025420904">
        <ele>112.61</ele>
        <time>2024-09-18T07:25:02Z</time>
      </trkpt>
      <trkpt lat="51.56880296766758" lon="14.419405963271856">
        <ele>108.29000000000001</ele>
        <time>2024-09-18T07:25:12Z</time>
      </trkpt>
      <trkpt lat="51.569043025374413" lon="14.422749001532793">
        <ele>107.81</ele>
        <time>2024-09-18T07:25:23Z</time>
      </trkpt>
      <trkpt lat="51.569220973178744" lon="14.425230966880918">
        <ele>104.92</ele>
        <time>2024-09-18T07:25:32Z</time>
      </trkpt>
      <trkpt lat="51.569397998973727" lon="14.427693989127874">
        <ele>99.629999999999995</ele>
        <time>2024-09-18T07:25:41Z</time>
      </trkpt>
      <trkpt lat="51.569558009505272" lon="14.429930029436946">
        <ele>94.349999999999994</ele>
        <time>2024-09-18T07:25:49Z</time>
      </trkpt>
      <trkpt lat="51.569668985903263" lon="14.432800998911262">
        <ele>90.980000000000004</ele>
        <time>2024-09-18T07:25:59Z</time>
      </trkpt>
      <trkpt lat="51.56970402225852" lon="14.435558980330825">
        <ele>90.5</ele>
        <time>2024-09-18T07:26:08Z</time>
      </trkpt>
      <trkpt lat="51.569723971188068" lon="14.438831023871899">
        <ele>95.790000000000006</ele>
        <time>2024-09-18T07:26:18Z</time>
      </trkpt>
      <trkpt lat="51.569745009765029" lon="14.442376988008618">
        <ele>101.08</ele>
        <time>2024-09-18T07:26:29Z</time>
      </trkpt>
      <trkpt lat="51.569764958694577" lon="14.445784986019135">
        <ele>103.95999999999999</ele>
        <time>2024-09-18T07:26:40Z</time>
      </trkpt>
      <trkpt lat="51.569782979786396" lon="14.448972959071398">
        <ele>106.84</ele>
        <time>2024-09-18T07:26:50Z</time>
      </trkpt>
      <trkpt lat="51.569797983393073" lon="14.451345037668943">
        <ele>107.31999999999999</ele>
        <time>2024-09-18T07:26:58Z</time>
      </trkpt>
      <trkpt lat="51.569803012534976" lon="14.452803991734982">
        <ele>106.84</ele>
        <time>2024-09-18T07:27:03Z</time>
      </trkpt>
      <trkpt lat="51.569803012534976" lon="14.453096017241478">
        <ele>106.84</ele>
        <time>2024-09-18T07:27:04Z</time>
      </trkpt>
      <trkpt lat="51.569803012534976" lon="14.453392988070846">
        <ele>106.84</ele>
        <time>2024-09-18T07:27:05Z</time>
      </trkpt>
      <trkpt lat="51.569807035848498" lon="14.456086009740829">
        <ele>108.77</ele>
        <time>2024-09-18T07:27:14Z</time>
      </trkpt>
      <trkpt lat="51.569820027798414" lon="14.458448030054569">
        <ele>111.17</ele>
        <time>2024-09-18T07:27:22Z</time>
      </trkpt>
      <trkpt lat="51.569837965071201" lon="14.460774008184671">
        <ele>115.5</ele>
        <time>2024-09-18T07:27:30Z</time>
      </trkpt>
      <trkpt lat="51.569846011698246" lon="14.462443012744188">
        <ele>118.38</ele>
        <time>2024-09-18T07:27:38Z</time>
      </trkpt>
      <trkpt lat="51.569871995598078" lon="14.46423003450036">
        <ele>118.86</ele>
        <time>2024-09-18T07:27:47Z</time>
      </trkpt>
      <trkpt lat="51.570081962272525" lon="14.466606974601746">
        <ele>121.73999999999999</ele>
        <time>2024-09-18T07:27:59Z</time>
      </trkpt>
      <trkpt lat="51.570522012189031" lon="14.469714984297752">
        <ele>123.67</ele>
        <time>2024-09-18T07:28:15Z</time>
      </trkpt>
      <trkpt lat="51.570817977190018" lon="14.471828984096646">
        <ele>125.11</ele>
        <time>2024-09-18T07:28:26Z</time>
      </trkpt>
      <trkpt lat="51.570927025750279" lon="14.47258997708559">
        <ele>125.59</ele>
        <time>2024-09-18T07:28:30Z</time>
      </trkpt>
      <trkpt lat="51.570954015478492" lon="14.472777983173728">
        <ele>125.59</ele>
        <time>2024-09-18T07:28:31Z</time>
      </trkpt>
      <trkpt lat="51.571226008236408" lon="14.474712023511529">
        <ele>126.06999999999999</ele>
        <time>2024-09-18T07:28:42Z</time>
      </trkpt>
      <trkpt lat="51.571278981864452" lon="14.475167999044061">
        <ele>126.06999999999999</ele>
        <time>2024-09-18T07:28:46Z</time>
      </trkpt>
      <trkpt lat="51.571280993521214" lon="14.475351981818676">
        <ele>126.06999999999999</ele>
        <time>2024-09-18T07:28:47Z</time>
      </trkpt>
      <trkpt lat="51.571216033771634" lon="14.4754249881953">
        <ele>126.06999999999999</ele>
        <time>2024-09-18T07:28:48Z</time>
      </trkpt>
      <trkpt lat="51.570565011352301" lon="14.476337023079395">
        <ele>127.51000000000001</ele>
        <time>2024-09-18T07:28:55Z</time>
      </trkpt>
      <trkpt lat="51.569323986768723" lon="14.478220017626882">
        <ele>129.91999999999999</ele>
        <time>2024-09-18T07:29:05Z</time>
      </trkpt>
      <trkpt lat="51.567832008004189" lon="14.480498973280191">
        <ele>130.40000000000001</ele>
        <time>2024-09-18T07:29:16Z</time>
      </trkpt>
      <trkpt lat="51.566541027277708" lon="14.482262022793293">
        <ele>129.43000000000001</ele>
        <time>2024-09-18T07:29:25Z</time>
      </trkpt>
      <trkpt lat="51.566019002348185" lon="14.482967024669051">
        <ele>128.94999999999999</ele>
        <time>2024-09-18T07:29:29Z</time>
      </trkpt>
      <trkpt lat="51.564877973869443" lon="14.484784975647926">
        <ele>127.03</ele>
        <time>2024-09-18T07:29:38Z</time>
      </trkpt>
      <trkpt lat="51.564259976148605" lon="14.485940001904964">
        <ele>126.06999999999999</ele>
        <time>2024-09-18T07:29:43Z</time>
      </trkpt>
      <trkpt lat="51.564141036942601" lon="14.486176958307624">
        <ele>126.06999999999999</ele>
        <time>2024-09-18T07:29:44Z</time>
      </trkpt>
      <trkpt lat="51.563704004511237" lon="14.487245986238122">
        <ele>126.06999999999999</ele>
        <time>2024-09-18T07:29:49Z</time>
      </trkpt>
      <trkpt lat="51.563629992306232" lon="14.487442038953304">
        <ele>126.06999999999999</ele>
        <time>2024-09-18T07:29:50Z</time>
      </trkpt>
      <trkpt lat="51.563556985929608" lon="14.487633984535933">
        <ele>126.06999999999999</ele>
        <time>2024-09-18T07:29:51Z</time>
      </trkpt>
      <trkpt lat="51.563484985381365" lon="14.487825008109212">
        <ele>126.06999999999999</ele>
        <time>2024-09-18T07:29:52Z</time>
      </trkpt>
      <trkpt lat="51.563411979004741" lon="14.488017959520221">
        <ele>126.06999999999999</ele>
        <time>2024-09-18T07:29:53Z</time>
      </trkpt>
      <trkpt lat="51.563338972628117" lon="14.488210994750261">
        <ele>126.06999999999999</ele>
        <time>2024-09-18T07:29:54Z</time>
      </trkpt>
      <trkpt lat="51.563263032585382" lon="14.488409981131554">
        <ele>126.55</ele>
        <time>2024-09-18T07:29:55Z</time>
      </trkpt>
      <trkpt lat="51.563183991238475" lon="14.48861600831151">
        <ele>126.55</ele>
        <time>2024-09-18T07:29:56Z</time>
      </trkpt>
      <trkpt lat="51.56255098991096" lon="14.490259028971195">
        <ele>126.55</ele>
        <time>2024-09-18T07:30:04Z</time>
      </trkpt>
      <trkpt lat="51.562347980216146" lon="14.490655995905399">
        <ele>126.55</ele>
        <time>2024-09-18T07:30:06Z</time>
      </trkpt>
      <trkpt lat="51.562242032960057" lon="14.490864034742117">
        <ele>126.55</ele>
        <time>2024-09-18T07:30:07Z</time>
      </trkpt>
      <trkpt lat="51.562025025486946" lon="14.491268964484334">
        <ele>126.06999999999999</ele>
        <time>2024-09-18T07:30:09Z</time>
      </trkpt>
      <trkpt lat="51.560758017003536" lon="14.49284995906055">
        <ele>125.11</ele>
        <time>2024-09-18T07:30:18Z</time>
      </trkpt>
      <trkpt lat="51.55958597548306" lon="14.494205983355641">
        <ele>124.15000000000001</ele>
        <time>2024-09-18T07:30:26Z</time>
      </trkpt>
      <trkpt lat="51.559443986043334" lon="14.494374040514231">
        <ele>123.67</ele>
        <time>2024-09-18T07:30:27Z</time>
      </trkpt>
      <trkpt lat="51.559166964143515" lon="14.494700012728572">
        <ele>122.70999999999999</ele>
        <time>2024-09-18T07:30:29Z</time>
      </trkpt>
      <trkpt lat="51.559032015502453" lon="14.494859017431736">
        <ele>122.22</ele>
        <time>2024-09-18T07:30:30Z</time>
      </trkpt>
      <trkpt lat="51.558516025543213" lon="14.495549015700817">
        <ele>121.73999999999999</ele>
        <time>2024-09-18T07:30:34Z</time>
      </trkpt>
      <trkpt lat="51.558385016396642" lon="14.495737021788955">
        <ele>121.26000000000001</ele>
        <time>2024-09-18T07:30:35Z</time>
      </trkpt>
      <trkpt lat="51.557862991467118" lon="14.496559035032988">
        <ele>120.3</ele>
        <time>2024-09-18T07:30:39Z</time>
      </trkpt>
      <trkpt lat="51.556696984916925" lon="14.498486034572124">
        <ele>119.81999999999999</ele>
        <time>2024-09-18T07:30:48Z</time>
      </trkpt>
      <trkpt lat="51.555492002516985" lon="14.500478999689221">
        <ele>117.90000000000001</ele>
        <time>2024-09-18T07:30:57Z</time>
      </trkpt>
      <trkpt lat="51.554669989272952" lon="14.501838041469455">
        <ele>117.90000000000001</ele>
        <time>2024-09-18T07:31:04Z</time>
      </trkpt>
      <trkpt lat="51.554519031196833" lon="14.502088995650411">
        <ele>117.90000000000001</ele>
        <time>2024-09-18T07:31:06Z</time>
      </trkpt>
      <trkpt lat="51.554463040083647" lon="14.502181028947234">
        <ele>117.90000000000001</ele>
        <time>2024-09-18T07:31:07Z</time>
      </trkpt>
      <trkpt lat="51.554415011778474" lon="14.50225998647511">
        <ele>117.42</ele>
        <time>2024-09-18T07:31:08Z</time>
      </trkpt>
      <trkpt lat="51.554377041757107" lon="14.502324024215341">
        <ele>116.94</ele>
        <time>2024-09-18T07:31:09Z</time>
      </trkpt>
      <trkpt lat="51.554348040372133" lon="14.502370962873101">
        <ele>116.45999999999999</ele>
        <time>2024-09-18T07:31:10Z</time>
      </trkpt>
      <trkpt lat="51.554305963218212" lon="14.502440029755235">
        <ele>116.45999999999999</ele>
        <time>2024-09-18T07:31:12Z</time>
      </trkpt>
      <trkpt lat="51.554291965439916" lon="14.502464001998305">
        <ele>115.98</ele>
        <time>2024-09-18T07:31:13Z</time>
      </trkpt>
      <trkpt lat="51.554291965439916" lon="14.502464001998305">
        <ele>115.5</ele>
        <time>2024-09-18T07:31:22Z</time>
      </trkpt>
      <trkpt lat="51.554259024560452" lon="14.50251798145473">
        <ele>115.5</ele>
        <time>2024-09-18T07:31:32Z</time>
      </trkpt>
      <trkpt lat="51.554289031773806" lon="14.502468025311828">
        <ele>114.05</ele>
        <time>2024-09-18T07:31:42Z</time>
      </trkpt>
      <trkpt lat="51.554289031773806" lon="14.502468025311828">
        <ele>114.05</ele>
        <time>2024-09-18T07:32:05Z</time>
      </trkpt>
      <trkpt lat="51.554402019828558" lon="14.50294797308743">
        <ele>144.81999999999999</ele>
        <time>2024-09-18T07:36:36Z</time>
      </trkpt>
      <trkpt lat="51.554399002343416" lon="14.502858035266399">
        <ele>140.00999999999999</ele>
        <time>2024-09-18T07:36:56Z</time>
      </trkpt>
      <trkpt lat="51.554445018991828" lon="14.502773964777589">
        <ele>139.53</ele>
        <time>2024-09-18T07:37:42Z</time>
      </trkpt>
      <trkpt lat="51.554442001506686" lon="14.50281897559762">
        <ele>139.53</ele>
        <time>2024-09-18T07:38:12Z</time>
      </trkpt>
      <trkpt lat="51.554447030648589" lon="14.502824004739523">
        <ele>143.37</ele>
        <time>2024-09-18T07:38:56Z</time>
      </trkpt>
      <trkpt lat="51.554455999284983" lon="14.502806989476085">
        <ele>143.37</ele>
        <time>2024-09-18T07:39:44Z</time>
      </trkpt>
      <trkpt lat="51.554454993456602" lon="14.502801038324833">
        <ele>143.84999999999999</ele>
        <time>2024-09-18T07:40:22Z</time>
      </trkpt>
      <trkpt lat="51.554453987628222" lon="14.502797015011311">
        <ele>143.37</ele>
        <time>2024-09-18T07:41:09Z</time>
      </trkpt>
      <trkpt lat="51.554454993456602" lon="14.502801038324833">
        <ele>142.88999999999999</ele>
        <time>2024-09-18T07:41:55Z</time>
      </trkpt>
      <trkpt lat="51.554454993456602" lon="14.502801960334182">
        <ele>142.88999999999999</ele>
        <time>2024-09-18T07:42:45Z</time>
      </trkpt>
      <trkpt lat="51.554454993456602" lon="14.502789974212646">
        <ele>141.93000000000001</ele>
        <time>2024-09-18T07:43:25Z</time>
      </trkpt>
      <trkpt lat="51.55445097014308" lon="14.502788968384266">
        <ele>141.93000000000001</ele>
        <time>2024-09-18T07:44:17Z</time>
      </trkpt>
      <trkpt lat="51.55444803647697" lon="14.502784023061395">
        <ele>142.41</ele>
        <time>2024-09-18T07:45:06Z</time>
      </trkpt>
      <trkpt lat="51.554443007335067" lon="14.502785028889775">
        <ele>142.41</ele>
        <time>2024-09-18T07:45:50Z</time>
      </trkpt>
      <trkpt lat="51.554446024820209" lon="14.502773964777589">
        <ele>142.88999999999999</ele>
        <time>2024-09-18T07:46:41Z</time>
      </trkpt>
      <trkpt lat="51.554446024820209" lon="14.502761978656054">
        <ele>143.37</ele>
        <time>2024-09-18T07:47:32Z</time>
      </trkpt>
      <trkpt lat="51.554448958486319" lon="14.502772958949208">
        <ele>143.37</ele>
        <time>2024-09-18T07:48:11Z</time>
      </trkpt>
      <trkpt lat="51.554455999284983" lon="14.502762984484434">
        <ele>143.84999999999999</ele>
        <time>2024-09-18T07:48:51Z</time>
      </trkpt>
      <trkpt lat="51.554461028426886" lon="14.502764996141195">
        <ele>143.84999999999999</ele>
        <time>2024-09-18T07:49:35Z</time>
      </trkpt>
      <trkpt lat="51.554496986791492" lon="14.502801038324833">
        <ele>143.84999999999999</ele>
        <time>2024-09-18T07:49:55Z</time>
      </trkpt>
      <trkpt lat="51.554506961256266" lon="14.502804977819324">
        <ele>143.84999999999999</ele>
        <time>2024-09-18T07:50:09Z</time>
      </trkpt>
      <trkpt lat="51.554306969046593" lon="14.502439023926854">
        <ele>140.97</ele>
        <time>2024-09-18T07:50:11Z</time>
      </trkpt>
      <trkpt lat="51.554304035380483" lon="14.502443969249725">
        <ele>140.00999999999999</ele>
        <time>2024-09-18T07:50:12Z</time>
      </trkpt>
      <trkpt lat="51.554289031773806" lon="14.502468025311828">
        <ele>139.05000000000001</ele>
        <time>2024-09-18T07:50:13Z</time>
      </trkpt>
      <trkpt lat="51.554289031773806" lon="14.502468025311828">
        <ele>138.56999999999999</ele>
        <time>2024-09-18T07:50:14Z</time>
      </trkpt>
      <trkpt lat="51.554289031773806" lon="14.502468025311828">
        <ele>138.09</ele>
        <time>2024-09-18T07:50:15Z</time>
      </trkpt>
      <trkpt lat="51.554289031773806" lon="14.502468025311828">
        <ele>137.61000000000001</ele>
        <time>2024-09-18T07:50:16Z</time>
      </trkpt>
      <trkpt lat="51.554289031773806" lon="14.502468025311828">
        <ele>136.63999999999999</ele>
        <time>2024-09-18T07:50:17Z</time>
      </trkpt>
      <trkpt lat="51.554273022338748" lon="14.502453021705151">
        <ele>136.16</ele>
        <time>2024-09-18T07:50:18Z</time>
      </trkpt>
      <trkpt lat="51.55425600707531" lon="14.502436006441712">
        <ele>136.16</ele>
        <time>2024-09-18T07:50:19Z</time>
      </trkpt>
      <trkpt lat="51.554277967661619" lon="14.502486968412995">
        <ele>135.68000000000001</ele>
        <time>2024-09-18T07:50:20Z</time>
      </trkpt>
      <trkpt lat="51.554248966276646" lon="14.502533990889788">
        <ele>135.68000000000001</ele>
        <time>2024-09-18T07:50:21Z</time>
      </trkpt>
      <trkpt lat="51.554201021790504" lon="14.502611020579934">
        <ele>135.19999999999999</ele>
        <time>2024-09-18T07:50:22Z</time>
      </trkpt>
      <trkpt lat="51.554138995707035" lon="14.502711016684771">
        <ele>135.19999999999999</ele>
        <time>2024-09-18T07:50:23Z</time>
      </trkpt>
      <trkpt lat="51.554072024300694" lon="14.50281897559762">
        <ele>134.72</ele>
        <time>2024-09-18T07:50:24Z</time>
      </trkpt>
      <trkpt lat="51.554000023752451" lon="14.502935986965895">
        <ele>134.72</ele>
        <time>2024-09-18T07:50:25Z</time>
      </trkpt>
      <trkpt lat="51.553925005719066" lon="14.503058027476072">
        <ele>134.24000000000001</ele>
        <time>2024-09-18T07:50:26Z</time>
      </trkpt>
      <trkpt lat="51.55318496748805" lon="14.504284970462322">
        <ele>132.31999999999999</ele>
        <time>2024-09-18T07:50:34Z</time>
      </trkpt>
      <trkpt lat="51.552202021703124" lon="14.506220016628504">
        <ele>128.94999999999999</ele>
        <time>2024-09-18T07:50:44Z</time>
      </trkpt>
      <trkpt lat="51.551606990396976" lon="14.50838296674192">
        <ele>126.55</ele>
        <time>2024-09-18T07:50:53Z</time>
      </trkpt>
      <trkpt lat="51.55148696154356" lon="14.50891999527812">
        <ele>126.06999999999999</ele>
        <time>2024-09-18T07:50:55Z</time>
      </trkpt>
      <trkpt lat="51.550946999341249" lon="14.51147697865963">
        <ele>127.98999999999999</ele>
        <time>2024-09-18T07:51:04Z</time>
      </trkpt>
      <trkpt lat="51.550326989963651" lon="14.514431012794375">
        <ele>130.88</ele>
        <time>2024-09-18T07:51:14Z</time>
      </trkpt>
      <trkpt lat="51.549785016104579" lon="14.516894035041332">
        <ele>131.36000000000001</ele>
        <time>2024-09-18T07:51:22Z</time>
      </trkpt>
      <trkpt lat="51.549214962869883" lon="14.519570041447878">
        <ele>131.36000000000001</ele>
        <time>2024-09-18T07:51:30Z</time>
      </trkpt>
      <trkpt lat="51.548536028712988" lon="14.522831020876765">
        <ele>130.88</ele>
        <time>2024-09-18T07:51:40Z</time>
      </trkpt>
      <trkpt lat="51.547829015180469" lon="14.5261500030756">
        <ele>127.98999999999999</ele>
        <time>2024-09-18T07:51:51Z</time>
      </trkpt>
      <trkpt lat="51.54727203771472" lon="14.528665998950601">
        <ele>127.51000000000001</ele>
        <time>2024-09-18T07:52:02Z</time>
      </trkpt>
      <trkpt lat="51.546897031366825" lon="14.530286975204945">
        <ele>127.03</ele>
        <time>2024-09-18T07:52:11Z</time>
      </trkpt>
      <trkpt lat="51.546785971149802" lon="14.530741022899747">
        <ele>126.55</ele>
        <time>2024-09-18T07:52:14Z</time>
      </trkpt>
      <trkpt lat="51.546749006956816" lon="14.530894998461008">
        <ele>126.55</ele>
        <time>2024-09-18T07:52:15Z</time>
      </trkpt>
      <trkpt lat="51.546713970601559" lon="14.531044028699398">
        <ele>126.55</ele>
        <time>2024-09-18T07:52:16Z</time>
      </trkpt>
      <trkpt lat="51.546682035550475" lon="14.53117897734046">
        <ele>126.06999999999999</ele>
        <time>2024-09-18T07:52:17Z</time>
      </trkpt>
      <trkpt lat="51.546671977266669" lon="14.53122197650373">
        <ele>126.06999999999999</ele>
        <time>2024-09-18T07:52:18Z</time>
      </trkpt>
      <trkpt lat="51.546512972563505" lon="14.531345022842288">
        <ele>126.06999999999999</ele>
        <time>2024-09-18T07:52:19Z</time>
      </trkpt>
      <trkpt lat="51.546502998098731" lon="14.531464967876673">
        <ele>126.06999999999999</ele>
        <time>2024-09-18T07:52:20Z</time>
      </trkpt>
      <trkpt lat="51.546499980613589" lon="14.53150101006031">
        <ele>125.59</ele>
        <time>2024-09-18T07:52:21Z</time>
      </trkpt>
      <trkpt lat="51.546549014747143" lon="14.531763028353453">
        <ele>125.59</ele>
        <time>2024-09-18T07:52:22Z</time>
      </trkpt>
      <trkpt lat="51.546511966735125" lon="14.531913986429572">
        <ele>125.59</ele>
        <time>2024-09-18T07:52:23Z</time>
      </trkpt>
      <trkpt lat="51.546470979228616" lon="14.532084977254272">
        <ele>125.59</ele>
        <time>2024-09-18T07:52:24Z</time>
      </trkpt>
      <trkpt lat="51.5458760317415" lon="14.534626035019755">
        <ele>126.55</ele>
        <time>2024-09-18T07:52:37Z</time>
      </trkpt>
      <trkpt lat="51.545613007619977" lon="14.535960014909506">
        <ele>126.55</ele>
        <time>2024-09-18T07:52:44Z</time>
      </trkpt>
      <trkpt lat="51.545604038983583" lon="14.536129999905825">
        <ele>126.55</ele>
        <time>2024-09-18T07:52:45Z</time>
      </trkpt>
      <trkpt lat="51.545603033155203" lon="14.536303002387285">
        <ele>126.55</ele>
        <time>2024-09-18T07:52:46Z</time>
      </trkpt>
      <trkpt lat="51.545630022883415" lon="14.536663005128503">
        <ele>126.06999999999999</ele>
        <time>2024-09-18T07:52:48Z</time>
      </trkpt>
      <trkpt lat="51.545642009004951" lon="14.536836007609963">
        <ele>126.06999999999999</ele>
        <time>2024-09-18T07:52:49Z</time>
      </trkpt>
      <trkpt lat="51.545655000954866" lon="14.537011021748185">
        <ele>125.59</ele>
        <time>2024-09-18T07:52:50Z</time>
      </trkpt>
      <trkpt lat="51.545881982892752" lon="14.53897699713707">
        <ele>125.11</ele>
        <time>2024-09-18T07:53:01Z</time>
      </trkpt>
      <trkpt lat="51.546183982864022" lon="14.541354021057487">
        <ele>122.70999999999999</ele>
        <time>2024-09-18T07:53:14Z</time>
      </trkpt>
      <trkpt lat="51.546437032520771" lon="14.543443964794278">
        <ele>123.19</ele>
        <time>2024-09-18T07:53:23Z</time>
      </trkpt>
      <trkpt lat="51.546572986990213" lon="14.545258982107043">
        <ele>123.67</ele>
        <time>2024-09-18T07:53:31Z</time>
      </trkpt>
      <trkpt lat="51.546585978940129" lon="14.545813025906682">
        <ele>124.15000000000001</ele>
        <time>2024-09-18T07:53:35Z</time>
      </trkpt>
      <trkpt lat="51.546597965061665" lon="14.545972030609846">
        <ele>123.67</ele>
        <time>2024-09-18T07:53:36Z</time>
      </trkpt>
      <trkpt lat="51.546574998646975" lon="14.546136986464262">
        <ele>123.67</ele>
        <time>2024-09-18T07:53:37Z</time>
      </trkpt>
      <trkpt lat="51.546499980613589" lon="14.546242011711001">
        <ele>123.67</ele>
        <time>2024-09-18T07:53:38Z</time>
      </trkpt>
      <trkpt lat="51.546508027240634" lon="14.546320969238877">
        <ele>123.67</ele>
        <time>2024-09-18T07:53:39Z</time>
      </trkpt>
      <trkpt lat="51.546520013362169" lon="14.546440998092294">
        <ele>123.67</ele>
        <time>2024-09-18T07:53:40Z</time>
      </trkpt>
      <trkpt lat="51.546606011688709" lon="14.546479973942041">
        <ele>124.15000000000001</ele>
        <time>2024-09-18T07:53:41Z</time>
      </trkpt>
      <trkpt lat="51.546671977266669" lon="14.546499000862241">
        <ele>124.15000000000001</ele>
        <time>2024-09-18T07:53:42Z</time>
      </trkpt>
      <trkpt lat="51.546671977266669" lon="14.546703016385436">
        <ele>124.15000000000001</ele>
        <time>2024-09-18T07:53:43Z</time>
      </trkpt>
      <trkpt lat="51.546677006408572" lon="14.546874007210135">
        <ele>124.63</ele>
        <time>2024-09-18T07:53:44Z</time>
      </trkpt>
      <trkpt lat="51.546691004186869" lon="14.547060001641512">
        <ele>124.63</ele>
        <time>2024-09-18T07:53:45Z</time>
      </trkpt>
      <trkpt lat="51.546728974208236" lon="14.547282038256526">
        <ele>124.63</ele>
        <time>2024-09-18T07:53:46Z</time>
      </trkpt>
      <trkpt lat="51.546764010563493" lon="14.547466021031141">
        <ele>124.63</ele>
        <time>2024-09-18T07:53:47Z</time>
      </trkpt>
      <trkpt lat="51.54680298641324" lon="14.547665007412434">
        <ele>124.63</ele>
        <time>2024-09-18T07:53:48Z</time>
      </trkpt>
      <trkpt lat="51.546849003061652" lon="14.547880003228784">
        <ele>124.63</ele>
        <time>2024-09-18T07:53:49Z</time>
      </trkpt>
      <trkpt lat="51.546899965032935" lon="14.548103967681527">
        <ele>124.15000000000001</ele>
        <time>2024-09-18T07:53:50Z</time>
      </trkpt>
      <trkpt lat="51.547410003840923" lon="14.550018981099129">
        <ele>124.15000000000001</ele>
        <time>2024-09-18T07:53:57Z</time>
      </trkpt>
      <trkpt lat="51.548088015988469" lon="14.552701022475958">
        <ele>124.15000000000001</ele>
        <time>2024-09-18T07:54:05Z</time>
      </trkpt>
      <trkpt lat="51.548250038176775" lon="14.555024988949299">
        <ele>124.15000000000001</ele>
        <time>2024-09-18T07:54:11Z</time>
      </trkpt>
      <trkpt lat="51.548093967139721" lon="14.55895802937448">
        <ele>124.63</ele>
        <time>2024-09-18T07:54:20Z</time>
      </trkpt>
      <trkpt lat="51.547793978825212" lon="14.563288036733866">
        <ele>126.55</ele>
        <time>2024-09-18T07:54:31Z</time>
      </trkpt>
      <trkpt lat="51.54735803604126" lon="14.567056959494948">
        <ele>130.88</ele>
        <time>2024-09-18T07:54:41Z</time>
      </trkpt>
      <trkpt lat="51.547055030241609" lon="14.569547977298498">
        <ele>133.28</ele>
        <time>2024-09-18T07:54:49Z</time>
      </trkpt>
      <trkpt lat="51.546756969764829" lon="14.572063973173499">
        <ele>132.31999999999999</ele>
        <time>2024-09-18T07:54:59Z</time>
      </trkpt>
      <trkpt lat="51.546580027788877" lon="14.573466014117002">
        <ele>130.40000000000001</ele>
        <time>2024-09-18T07:55:07Z</time>
      </trkpt>
      <trkpt lat="51.546127991750836" lon="14.57517902366817">
        <ele>128.47</ele>
        <time>2024-09-18T07:55:17Z</time>
      </trkpt>
      <trkpt lat="51.545055024325848" lon="14.577870033681393">
        <ele>127.98999999999999</ele>
        <time>2024-09-18T07:55:34Z</time>
      </trkpt>
      <trkpt lat="51.544481031596661" lon="14.579130001366138">
        <ele>128.94999999999999</ele>
        <time>2024-09-18T07:55:43Z</time>
      </trkpt>
      <trkpt lat="51.544448006898165" lon="14.579188004136086">
        <ele>129.43000000000001</ele>
        <time>2024-09-18T07:55:44Z</time>
      </trkpt>
      <trkpt lat="51.544464016333222" lon="14.579272996634245">
        <ele>129.43000000000001</ele>
        <time>2024-09-18T07:55:45Z</time>
      </trkpt>
      <trkpt lat="51.544485976919532" lon="14.579480029642582">
        <ele>129.91999999999999</ele>
        <time>2024-09-18T07:55:47Z</time>
      </trkpt>
      <trkpt lat="51.544466027989984" lon="14.579571979120374">
        <ele>129.91999999999999</ele>
        <time>2024-09-18T07:55:48Z</time>
      </trkpt>
      <trkpt lat="51.544444989413023" lon="14.579666024073958">
        <ele>130.40000000000001</ele>
        <time>2024-09-18T07:55:49Z</time>
      </trkpt>
      <trkpt lat="51.544420011341572" lon="14.579781023785472">
        <ele>130.40000000000001</ele>
        <time>2024-09-18T07:55:50Z</time>
      </trkpt>
      <trkpt lat="51.544391009956598" lon="14.579915972426534">
        <ele>130.40000000000001</ele>
        <time>2024-09-18T07:55:51Z</time>
      </trkpt>
      <trkpt lat="51.544080963358283" lon="14.581334022805095">
        <ele>131.36000000000001</ele>
        <time>2024-09-18T07:55:59Z</time>
      </trkpt>
      <trkpt lat="51.543672010302544" lon="14.583067987114191">
        <ele>131.36000000000001</ele>
        <time>2024-09-18T07:56:09Z</time>
      </trkpt>
      <trkpt lat="51.542984023690224" lon="14.585847007110715">
        <ele>130.88</ele>
        <time>2024-09-18T07:56:25Z</time>
      </trkpt>
      <trkpt lat="51.542358985170722" lon="14.588040970265865">
        <ele>128.47</ele>
        <time>2024-09-18T07:56:38Z</time>
      </trkpt>
      <trkpt lat="51.541404034942389" lon="14.590359991416335">
        <ele>129.91999999999999</ele>
        <time>2024-09-18T07:56:53Z</time>
      </trkpt>
      <trkpt lat="51.541261039674282" lon="14.590653022751212">
        <ele>130.40000000000001</ele>
        <time>2024-09-18T07:56:55Z</time>
      </trkpt>
      <trkpt lat="51.540209027007222" lon="14.592793006449938">
        <ele>134.24000000000001</ele>
        <time>2024-09-18T07:57:08Z</time>
      </trkpt>
      <trkpt lat="51.539402017369866" lon="14.594222959131002">
        <ele>134.72</ele>
        <time>2024-09-18T07:57:16Z</time>
      </trkpt>
      <trkpt lat="51.539206970483065" lon="14.594551026821136">
        <ele>134.24000000000001</ele>
        <time>2024-09-18T07:57:18Z</time>
      </trkpt>
      <trkpt lat="51.539155002683401" lon="14.594753030687571">
        <ele>133.75999999999999</ele>
        <time>2024-09-18T07:57:19Z</time>
      </trkpt>
      <trkpt lat="51.539141004905105" lon="14.594976995140314">
        <ele>133.75999999999999</ele>
        <time>2024-09-18T07:57:20Z</time>
      </trkpt>
      <trkpt lat="51.539126001298428" lon="14.595209006220102">
        <ele>133.75999999999999</ele>
        <time>2024-09-18T07:57:21Z</time>
      </trkpt>
      <trkpt lat="51.539114015176892" lon="14.595448980107903">
        <ele>133.75999999999999</ele>
        <time>2024-09-18T07:57:22Z</time>
      </trkpt>
      <trkpt lat="51.539081996306777" lon="14.596195975318551">
        <ele>134.24000000000001</ele>
        <time>2024-09-18T07:57:25Z</time>
      </trkpt>
      <trkpt lat="51.539047965779901" lon="14.596701990813017">
        <ele>135.19999999999999</ele>
        <time>2024-09-18T07:57:27Z</time>
      </trkpt>
      <trkpt lat="51.539029022678733" lon="14.596955962479115">
        <ele>135.68000000000001</ele>
        <time>2024-09-18T07:57:28Z</time>
      </trkpt>
      <trkpt lat="51.538954004645348" lon="14.597479999065399">
        <ele>136.63999999999999</ele>
        <time>2024-09-18T07:57:30Z</time>
      </trkpt>
      <trkpt lat="51.538535999134183" lon="14.599601961672306">
        <ele>139.53</ele>
        <time>2024-09-18T07:57:38Z</time>
      </trkpt>
      <trkpt lat="51.538063008338213" lon="14.601911008358002">
        <ele>143.37</ele>
        <time>2024-09-18T07:57:46Z</time>
      </trkpt>
      <trkpt lat="51.537530003115535" lon="14.604738978669047">
        <ele>150.09999999999999</ele>
        <time>2024-09-18T07:57:54Z</time>
      </trkpt>
      <trkpt lat="51.537234038114548" lon="14.607438035309315">
        <ele>154.91</ele>
        <time>2024-09-18T07:58:01Z</time>
      </trkpt>
      <trkpt lat="51.536905970424414" lon="14.61067303083837">
        <ele>162.59999999999999</ele>
        <time>2024-09-18T07:58:10Z</time>
      </trkpt>
      <trkpt lat="51.536632971838117" lon="14.613688001409173">
        <ele>172.21000000000001</ele>
        <time>2024-09-18T07:58:19Z</time>
      </trkpt>
      <trkpt lat="51.536587039008737" lon="14.614342041313648">
        <ele>173.66</ele>
        <time>2024-09-18T07:58:22Z</time>
      </trkpt>
      <trkpt lat="51.536800023168325" lon="14.617755990475416">
        <ele>174.62</ele>
        <time>2024-09-18T07:58:31Z</time>
      </trkpt>
      <trkpt lat="51.537057012319565" lon="14.621507981792092">
        <ele>169.81</ele>
        <time>2024-09-18T07:58:41Z</time>
      </trkpt>
      <trkpt lat="51.537238983437419" lon="14.624793017283082">
        <ele>161.63999999999999</ele>
        <time>2024-09-18T07:58:50Z</time>
      </trkpt>
      <trkpt lat="51.537257004529238" lon="14.625102980062366">
        <ele>161.16</ele>
        <time>2024-09-18T07:58:51Z</time>
      </trkpt>
      <trkpt lat="51.537274019792676" lon="14.625393999740481">
        <ele>160.19999999999999</ele>
        <time>2024-09-18T07:58:52Z</time>
      </trkpt>
      <trkpt lat="51.537348031997681" lon="14.626798974350095">
        <ele>155.38999999999999</ele>
        <time>2024-09-18T07:58:58Z</time>
      </trkpt>
      <trkpt lat="51.537370998412371" lon="14.627501964569092">
        <ele>153.47</ele>
        <time>2024-09-18T07:59:02Z</time>
      </trkpt>
      <trkpt lat="51.537377033382654" lon="14.627667004242539">
        <ele>152.99000000000001</ele>
        <time>2024-09-18T07:59:03Z</time>
      </trkpt>
      <trkpt lat="51.537445010617375" lon="14.629154037684202">
        <ele>151.53999999999999</ele>
        <time>2024-09-18T07:59:11Z</time>
      </trkpt>
      <trkpt lat="51.537445010617375" lon="14.629526026546955">
        <ele>152.03</ele>
        <time>2024-09-18T07:59:13Z</time>
      </trkpt>
      <trkpt lat="51.537445010617375" lon="14.629713026806712">
        <ele>152.03</ele>
        <time>2024-09-18T07:59:14Z</time>
      </trkpt>
      <trkpt lat="51.537247030064464" lon="14.631556961685419">
        <ele>150.58000000000001</ele>
        <time>2024-09-18T07:59:24Z</time>
      </trkpt>
      <trkpt lat="51.537206964567304" lon="14.631915036588907">
        <ele>150.09999999999999</ele>
        <time>2024-09-18T07:59:26Z</time>
      </trkpt>
      <trkpt lat="51.537205036729574" lon="14.632102958858013">
        <ele>149.62</ele>
        <time>2024-09-18T07:59:27Z</time>
      </trkpt>
      <trkpt lat="51.537203025072813" lon="14.632283002138138">
        <ele>149.62</ele>
        <time>2024-09-18T07:59:28Z</time>
      </trkpt>
      <trkpt lat="51.537188021466136" lon="14.633955024182796">
        <ele>150.09999999999999</ele>
        <time>2024-09-18T07:59:37Z</time>
      </trkpt>
      <trkpt lat="51.537188021466136" lon="14.634879967197776">
        <ele>150.58000000000001</ele>
        <time>2024-09-18T07:59:42Z</time>
      </trkpt>
      <trkpt lat="51.537188021466136" lon="14.636566992849112">
        <ele>149.62</ele>
        <time>2024-09-18T07:59:50Z</time>
      </trkpt>
      <trkpt lat="51.537188021466136" lon="14.63682297617197">
        <ele>149.62</ele>
        <time>2024-09-18T07:59:51Z</time>
      </trkpt>
      <trkpt lat="51.537182992324233" lon="14.639454977586865">
        <ele>147.22</ele>
        <time>2024-09-18T08:00:01Z</time>
      </trkpt>
      <trkpt lat="51.537180980667472" lon="14.639718001708388">
        <ele>146.74000000000001</ele>
        <time>2024-09-18T08:00:02Z</time>
      </trkpt>
      <trkpt lat="51.537167988717556" lon="14.642040962353349">
        <ele>146.25999999999999</ele>
        <time>2024-09-18T08:00:10Z</time>
      </trkpt>
      <trkpt lat="51.537090037018061" lon="14.643205963075161">
        <ele>146.25999999999999</ele>
        <time>2024-09-18T08:00:14Z</time>
      </trkpt>
      <trkpt lat="51.536728022620082" lon="14.646567022427917">
        <ele>147.22</ele>
        <time>2024-09-18T08:00:25Z</time>
      </trkpt>
      <trkpt lat="51.536368019878864" lon="14.650103012099862">
        <ele>142.88999999999999</ele>
        <time>2024-09-18T08:00:36Z</time>
      </trkpt>
      <trkpt lat="51.536069959402084" lon="14.653484020382166">
        <ele>137.13</ele>
        <time>2024-09-18T08:00:47Z</time>
      </trkpt>
      <trkpt lat="51.535820011049509" lon="14.656366975978017">
        <ele>134.72</ele>
        <time>2024-09-18T08:00:57Z</time>
      </trkpt>
      <trkpt lat="51.535685984417796" lon="14.657948976382613">
        <ele>133.75999999999999</ele>
        <time>2024-09-18T08:01:05Z</time>
      </trkpt>
      <trkpt lat="51.535545000806451" lon="14.65953198261559">
        <ele>133.28</ele>
        <time>2024-09-18T08:01:14Z</time>
      </trkpt>
      <trkpt lat="51.535497978329659" lon="14.660453991964459">
        <ele>132.80000000000001</ele>
        <time>2024-09-18T08:01:19Z</time>
      </trkpt>
      <trkpt lat="51.535595040768385" lon="14.662355007603765">
        <ele>132.80000000000001</ele>
        <time>2024-09-18T08:01:29Z</time>
      </trkpt>
      <trkpt lat="51.535599986091256" lon="14.662543013691902">
        <ele>132.31999999999999</ele>
        <time>2024-09-18T08:01:30Z</time>
      </trkpt>
      <trkpt lat="51.535580959171057" lon="14.662714004516602">
        <ele>132.31999999999999</ele>
        <time>2024-09-18T08:01:31Z</time>
      </trkpt>
      <trkpt lat="51.535560004413128" lon="14.662893963977695">
        <ele>132.31999999999999</ele>
        <time>2024-09-18T08:01:32Z</time>
      </trkpt>
      <trkpt lat="51.535539971664548" lon="14.6630750130862">
        <ele>131.84</ele>
        <time>2024-09-18T08:01:33Z</time>
      </trkpt>
      <trkpt lat="51.535519016906619" lon="14.663256984204054">
        <ele>131.84</ele>
        <time>2024-09-18T08:01:34Z</time>
      </trkpt>
      <trkpt lat="51.535364035516977" lon="14.664673022925854">
        <ele>130.88</ele>
        <time>2024-09-18T08:01:43Z</time>
      </trkpt>
      <trkpt lat="51.535358000546694" lon="14.664735971018672">
        <ele>130.88</ele>
        <time>2024-09-18T08:01:44Z</time>
      </trkpt>
      <trkpt lat="51.535256998613477" lon="14.664821969345212">
        <ele>130.88</ele>
        <time>2024-09-18T08:01:45Z</time>
      </trkpt>
      <trkpt lat="51.535215005278587" lon="14.664791962131858">
        <ele>130.40000000000001</ele>
        <time>2024-09-18T08:01:46Z</time>
      </trkpt>
      <trkpt lat="51.535158008337021" lon="14.66475298628211">
        <ele>130.40000000000001</ele>
        <time>2024-09-18T08:01:47Z</time>
      </trkpt>
      <trkpt lat="51.53509397059679" lon="14.664702024310827">
        <ele>130.40000000000001</ele>
        <time>2024-09-18T08:01:48Z</time>
      </trkpt>
      <trkpt lat="51.535022975876927" lon="14.664639998227358">
        <ele>130.40000000000001</ele>
        <time>2024-09-18T08:01:49Z</time>
      </trkpt>
      <trkpt lat="51.534155029803514" lon="14.663730980828404">
        <ele>128.94999999999999</ele>
        <time>2024-09-18T08:01:59Z</time>
      </trkpt>
      <trkpt lat="51.533664017915726" lon="14.66329101473093">
        <ele>128.47</ele>
        <time>2024-09-18T08:02:04Z</time>
      </trkpt>
      <trkpt lat="51.533557986840606" lon="14.663238041102886">
        <ele>127.98999999999999</ele>
        <time>2024-09-18T08:02:05Z</time>
      </trkpt>
      <trkpt lat="51.533448016270995" lon="14.663182971999049">
        <ele>127.98999999999999</ele>
        <time>2024-09-18T08:02:06Z</time>
      </trkpt>
      <trkpt lat="51.533334022387862" lon="14.663125975057483">
        <ele>127.51000000000001</ele>
        <time>2024-09-18T08:02:07Z</time>
      </trkpt>
      <trkpt lat="51.533213993534446" lon="14.663055986166">
        <ele>127.51000000000001</ele>
        <time>2024-09-18T08:02:08Z</time>
      </trkpt>
      <trkpt lat="51.533105028793216" lon="14.662985997274518">
        <ele>127.51000000000001</ele>
        <time>2024-09-18T08:02:09Z</time>
      </trkpt>
      <trkpt lat="51.533000003546476" lon="14.662919025868177">
        <ele>127.51000000000001</ele>
        <time>2024-09-18T08:02:10Z</time>
      </trkpt>
      <trkpt lat="51.532910987734795" lon="14.6627779584378">
        <ele>127.98999999999999</ele>
        <time>2024-09-18T08:02:11Z</time>
      </trkpt>
      <trkpt lat="51.532833036035299" lon="14.662635968998075">
        <ele>127.98999999999999</ele>
        <time>2024-09-18T08:02:12Z</time>
      </trkpt>
      <trkpt lat="51.532753994688392" lon="14.662491967901587">
        <ele>128.47</ele>
        <time>2024-09-18T08:02:13Z</time>
      </trkpt>
      <trkpt lat="51.531849000602961" lon="14.661031002178788">
        <ele>129.91999999999999</ele>
        <time>2024-09-18T08:02:24Z</time>
      </trkpt>
      <trkpt lat="51.530706966295838" lon="14.659710014238954">
        <ele>137.61000000000001</ele>
        <time>2024-09-18T08:02:36Z</time>
      </trkpt>
      <trkpt lat="51.530381999909878" lon="14.659470040351152">
        <ele>140.00999999999999</ele>
        <time>2024-09-18T08:02:39Z</time>
      </trkpt>
      <trkpt lat="51.530277980491519" lon="14.659400973469019">
        <ele>140.49000000000001</ele>
        <time>2024-09-18T08:02:40Z</time>
      </trkpt>
      <trkpt lat="51.528807040303946" lon="14.658808959648013">
        <ele>145.30000000000001</ele>
        <time>2024-09-18T08:02:53Z</time>
      </trkpt>
      <trkpt lat="51.527474988251925" lon="14.658294981345534">
        <ele>147.22</ele>
        <time>2024-09-18T08:03:03Z</time>
      </trkpt>
      <trkpt lat="51.526606036350131" lon="14.658187022432685">
        <ele>145.30000000000001</ele>
        <time>2024-09-18T08:03:08Z</time>
      </trkpt>
      <trkpt lat="51.526440996676683" lon="14.658239996060729">
        <ele>144.81999999999999</ele>
        <time>2024-09-18T08:03:09Z</time>
      </trkpt>
      <trkpt lat="51.526108989492059" lon="14.658359019085765">
        <ele>144.34</ele>
        <time>2024-09-18T08:03:11Z</time>
      </trkpt>
      <trkpt lat="51.524526989087462" lon="14.659310029819608">
        <ele>144.34</ele>
        <time>2024-09-18T08:03:20Z</time>
      </trkpt>
      <trkpt lat="51.522722030058503" lon="14.660279983654618">
        <ele>142.41</ele>
        <time>2024-09-18T08:03:29Z</time>
      </trkpt>
      <trkpt lat="51.521133994683623" lon="14.660918014124036">
        <ele>141.93000000000001</ele>
        <time>2024-09-18T08:03:37Z</time>
      </trkpt>
      <trkpt lat="51.520177032798529" lon="14.661606000736356">
        <ele>141.44999999999999</ele>
        <time>2024-09-18T08:03:44Z</time>
      </trkpt>
      <trkpt lat="51.520051974803209" lon="14.661696022376418">
        <ele>141.44999999999999</ele>
        <time>2024-09-18T08:03:45Z</time>
      </trkpt>
      <trkpt lat="51.519396007061005" lon="14.662192985415459">
        <ele>140.49000000000001</ele>
        <time>2024-09-18T08:03:51Z</time>
      </trkpt>
      <trkpt lat="51.519330963492393" lon="14.662274038419127">
        <ele>140.00999999999999</ele>
        <time>2024-09-18T08:03:52Z</time>
      </trkpt>
      <trkpt lat="51.519271032884717" lon="14.662348972633481">
        <ele>140.00999999999999</ele>
        <time>2024-09-18T08:03:53Z</time>
      </trkpt>
      <trkpt lat="51.519244965165854" lon="14.66238996013999">
        <ele>140.00999999999999</ele>
        <time>2024-09-18T08:03:54Z</time>
      </trkpt>
      <trkpt lat="51.519217975437641" lon="14.66243295930326">
        <ele>140.00999999999999</ele>
        <time>2024-09-18T08:03:55Z</time>
      </trkpt>
      <trkpt lat="51.519198026508093" lon="14.662463972344995">
        <ele>140.00999999999999</ele>
        <time>2024-09-18T08:03:56Z</time>
      </trkpt>
      <trkpt lat="51.519082020968199" lon="14.662510994821787">
        <ele>140.49000000000001</ele>
        <time>2024-09-18T08:03:59Z</time>
      </trkpt>
      <trkpt lat="51.519013037905097" lon="14.662378979846835">
        <ele>140.49000000000001</ele>
        <time>2024-09-18T08:04:01Z</time>
      </trkpt>
      <trkpt lat="51.518962997943163" lon="14.662283007055521">
        <ele>140.97</ele>
        <time>2024-09-18T08:04:02Z</time>
      </trkpt>
      <trkpt lat="51.518536023795605" lon="14.661446996033192">
        <ele>140.97</ele>
        <time>2024-09-18T08:04:08Z</time>
      </trkpt>
      <trkpt lat="51.518265958875418" lon="14.660916002467275">
        <ele>140.49000000000001</ele>
        <time>2024-09-18T08:04:11Z</time>
      </trkpt>
      <trkpt lat="51.518154982477427" lon="14.660696983337402">
        <ele>140.00999999999999</ele>
        <time>2024-09-18T08:04:12Z</time>
      </trkpt>
      <trkpt lat="51.517457021400332" lon="14.659300977364182">
        <ele>138.56999999999999</ele>
        <time>2024-09-18T08:04:18Z</time>
      </trkpt>
      <trkpt lat="51.516522020101547" lon="14.657388981431723">
        <ele>135.19999999999999</ele>
        <time>2024-09-18T08:04:26Z</time>
      </trkpt>
      <trkpt lat="51.515173958614469" lon="14.654952026903629">
        <ele>131.84</ele>
        <time>2024-09-18T08:04:38Z</time>
      </trkpt>
      <trkpt lat="51.513986997306347" lon="14.653373965993524">
        <ele>128.94999999999999</ele>
        <time>2024-09-18T08:04:48Z</time>
      </trkpt>
      <trkpt lat="51.512540029361844" lon="14.651456018909812">
        <ele>126.55</ele>
        <time>2024-09-18T08:05:02Z</time>
      </trkpt>
      <trkpt lat="51.512437015771866" lon="14.651316963136196">
        <ele>125.11</ele>
        <time>2024-09-18T08:05:03Z</time>
      </trkpt>
      <trkpt lat="51.512330984696746" lon="14.65117497369647">
        <ele>124.15000000000001</ele>
        <time>2024-09-18T08:05:04Z</time>
      </trkpt>
      <trkpt lat="51.511451974511147" lon="14.65003402903676">
        <ele>122.22</ele>
        <time>2024-09-18T08:05:13Z</time>
      </trkpt>
      <trkpt lat="51.51072702370584" lon="14.649078994989395">
        <ele>124.63</ele>
        <time>2024-09-18T08:05:21Z</time>
      </trkpt>
      <trkpt lat="51.509785987436771" lon="14.64769396930933">
        <ele>126.06999999999999</ele>
        <time>2024-09-18T08:05:32Z</time>
      </trkpt>
      <trkpt lat="51.509731002151966" lon="14.647599002346396">
        <ele>126.06999999999999</ele>
        <time>2024-09-18T08:05:33Z</time>
      </trkpt>
      <trkpt lat="51.509656989946961" lon="14.647473022341728">
        <ele>126.06999999999999</ele>
        <time>2024-09-18T08:05:34Z</time>
      </trkpt>
      <trkpt lat="51.509108981117606" lon="14.646541038528085">
        <ele>126.06999999999999</ele>
        <time>2024-09-18T08:05:41Z</time>
      </trkpt>
      <trkpt lat="51.509028011932969" lon="14.64640298858285">
        <ele>126.06999999999999</ele>
        <time>2024-09-18T08:05:42Z</time>
      </trkpt>
      <trkpt lat="51.508355028927326" lon="14.645343013107777">
        <ele>127.03</ele>
        <time>2024-09-18T08:05:51Z</time>
      </trkpt>
      <trkpt lat="51.50827799923718" lon="14.645227007567883">
        <ele>127.51000000000001</ele>
        <time>2024-09-18T08:05:53Z</time>
      </trkpt>
      <trkpt lat="51.508244974538684" lon="14.645177973434329">
        <ele>127.98999999999999</ele>
        <time>2024-09-18T08:05:54Z</time>
      </trkpt>
      <trkpt lat="51.508179008960724" lon="14.645078983157873">
        <ele>128.94999999999999</ele>
        <time>2024-09-18T08:06:02Z</time>
      </trkpt>
      <trkpt lat="51.508008018136024" lon="14.644822999835014">
        <ele>129.91999999999999</ele>
        <time>2024-09-18T08:06:13Z</time>
      </trkpt>
      <trkpt lat="51.507964013144374" lon="14.644773965701461">
        <ele>130.40000000000001</ele>
        <time>2024-09-18T08:06:14Z</time>
      </trkpt>
      <trkpt lat="51.507295975461602" lon="14.644067035987973">
        <ele>132.31999999999999</ele>
        <time>2024-09-18T08:06:23Z</time>
      </trkpt>
      <trkpt lat="51.506218984723091" lon="14.642989039421082">
        <ele>131.84</ele>
        <time>2024-09-18T08:06:35Z</time>
      </trkpt>
      <trkpt lat="51.505178036168218" lon="14.641938032582402">
        <ele>131.84</ele>
        <time>2024-09-18T08:06:47Z</time>
      </trkpt>
      <trkpt lat="51.504792971536517" lon="14.641594039276242">
        <ele>132.31999999999999</ele>
        <time>2024-09-18T08:06:52Z</time>
      </trkpt>
      <trkpt lat="51.504747038707137" lon="14.641559002920985">
        <ele>132.80000000000001</ele>
        <time>2024-09-18T08:06:53Z</time>
      </trkpt>
      <trkpt lat="51.504688030108809" lon="14.641512986272573">
        <ele>132.80000000000001</ele>
        <time>2024-09-18T08:06:54Z</time>
      </trkpt>
      <trkpt lat="51.504463981837034" lon="14.641320034861565">
        <ele>133.28</ele>
        <time>2024-09-18T08:06:59Z</time>
      </trkpt>
      <trkpt lat="51.504186037927866" lon="14.641042007133365">
        <ele>133.28</ele>
        <time>2024-09-18T08:07:05Z</time>
      </trkpt>
      <trkpt lat="51.504148989915848" lon="14.641001019626856">
        <ele>133.28</ele>
        <time>2024-09-18T08:07:06Z</time>
      </trkpt>
      <trkpt lat="51.5041100140661" lon="14.640958020463586">
        <ele>133.28</ele>
        <time>2024-09-18T08:07:07Z</time>
      </trkpt>
      <trkpt lat="51.504075983539224" lon="14.640919966623187">
        <ele>133.28</ele>
        <time>2024-09-18T08:07:08Z</time>
      </trkpt>
      <trkpt lat="51.50404597632587" lon="14.640887025743723">
        <ele>133.28</ele>
        <time>2024-09-18T08:07:09Z</time>
      </trkpt>
      <trkpt lat="51.504010017961264" lon="14.640846960246563">
        <ele>133.75999999999999</ele>
        <time>2024-09-18T08:07:17Z</time>
      </trkpt>
      <trkpt lat="51.503928964957595" lon="14.640757022425532">
        <ele>134.24000000000001</ele>
        <time>2024-09-18T08:07:21Z</time>
      </trkpt>
      <trkpt lat="51.503800973296165" lon="14.640615032985806">
        <ele>135.68000000000001</ele>
        <time>2024-09-18T08:07:29Z</time>
      </trkpt>
      <trkpt lat="51.503795022144914" lon="14.640626013278961">
        <ele>136.63999999999999</ele>
        <time>2024-09-18T08:07:34Z</time>
      </trkpt>
      <trkpt lat="51.50376602075994" lon="14.640705976635218">
        <ele>137.13</ele>
        <time>2024-09-18T08:07:35Z</time>
      </trkpt>
      <trkpt lat="51.503731990233064" lon="14.640802033245564">
        <ele>137.61000000000001</ele>
        <time>2024-09-18T08:07:36Z</time>
      </trkpt>
      <trkpt lat="51.503696031868458" lon="14.640903035178781">
        <ele>137.61000000000001</ele>
        <time>2024-09-18T08:07:37Z</time>
      </trkpt>
      <trkpt lat="51.503656972199678" lon="14.64101099409163">
        <ele>137.61000000000001</ele>
        <time>2024-09-18T08:07:38Z</time>
      </trkpt>
      <trkpt lat="51.503298981115222" lon="14.64212897233665">
        <ele>137.61000000000001</ele>
        <time>2024-09-18T08:07:47Z</time>
      </trkpt>
      <trkpt lat="51.503192028030753" lon="14.642383027821779">
        <ele>137.61000000000001</ele>
        <time>2024-09-18T08:07:49Z</time>
      </trkpt>
      <trkpt lat="51.503066970035434" lon="14.642629036679864">
        <ele>138.09</ele>
        <time>2024-09-18T08:07:51Z</time>
      </trkpt>
      <trkpt lat="51.502684000879526" lon="14.643380977213383">
        <ele>139.05000000000001</ele>
        <time>2024-09-18T08:07:57Z</time>
      </trkpt>
      <trkpt lat="51.50265097618103" lon="14.643507041037083">
        <ele>139.53</ele>
        <time>2024-09-18T08:07:58Z</time>
      </trkpt>
      <trkpt lat="51.502551985904574" lon="14.64389001019299">
        <ele>139.53</ele>
        <time>2024-09-18T08:08:01Z</time>
      </trkpt>
      <trkpt lat="51.502527007833123" lon="14.643987994641066">
        <ele>140.00999999999999</ele>
        <time>2024-09-18T08:08:02Z</time>
      </trkpt>
      <trkpt lat="51.502421982586384" lon="14.644010961055756">
        <ele>140.00999999999999</ele>
        <time>2024-09-18T08:08:03Z</time>
      </trkpt>
      <trkpt lat="51.502363979816437" lon="14.643989000469446">
        <ele>140.00999999999999</ele>
        <time>2024-09-18T08:08:04Z</time>
      </trkpt>
      <trkpt lat="51.502290973439813" lon="14.643959999084473">
        <ele>140.00999999999999</ele>
        <time>2024-09-18T08:08:05Z</time>
      </trkpt>
      <trkpt lat="51.502203969284892" lon="14.643925968557596">
        <ele>140.00999999999999</ele>
        <time>2024-09-18T08:08:06Z</time>
      </trkpt>
      <trkpt lat="51.502109002321959" lon="14.64388900436461">
        <ele>140.00999999999999</ele>
        <time>2024-09-18T08:08:07Z</time>
      </trkpt>
      <trkpt lat="51.501908004283905" lon="14.643810968846083">
        <ele>140.00999999999999</ele>
        <time>2024-09-18T08:08:09Z</time>
      </trkpt>
      <trkpt lat="51.501803984865546" lon="14.643769981339574">
        <ele>140.00999999999999</ele>
        <time>2024-09-18T08:08:10Z</time>
      </trkpt>
      <trkpt lat="51.501411963254213" lon="14.643590021878481">
        <ele>141.44999999999999</ele>
        <time>2024-09-18T08:08:14Z</time>
      </trkpt>
      <trkpt lat="51.501330994069576" lon="14.643550962209702">
        <ele>141.93000000000001</ele>
        <time>2024-09-18T08:08:15Z</time>
      </trkpt>
      <trkpt lat="51.500675026327372" lon="14.643279975280166">
        <ele>144.34</ele>
        <time>2024-09-18T08:08:23Z</time>
      </trkpt>
      <trkpt lat="51.500583998858929" lon="14.643253991380334">
        <ele>145.30000000000001</ele>
        <time>2024-09-18T08:08:24Z</time>
      </trkpt>
      <trkpt lat="51.500494983047247" lon="14.643230019137263">
        <ele>145.30000000000001</ele>
        <time>2024-09-18T08:08:25Z</time>
      </trkpt>
      <trkpt lat="51.500312006101012" lon="14.643177967518568">
        <ele>145.78</ele>
        <time>2024-09-18T08:08:27Z</time>
      </trkpt>
      <trkpt lat="51.50022198446095" lon="14.643152989447117">
        <ele>145.30000000000001</ele>
        <time>2024-09-18T08:08:28Z</time>
      </trkpt>
      <trkpt lat="51.499184975400567" lon="14.642845038324594">
        <ele>142.88999999999999</ele>
        <time>2024-09-18T08:08:41Z</time>
      </trkpt>
      <trkpt lat="51.498611988499761" lon="14.642658960074186">
        <ele>140.97</ele>
        <time>2024-09-18T08:08:51Z</time>
      </trkpt>
      <trkpt lat="51.497681010514498" lon="14.642337011173368">
        <ele>142.41</ele>
        <time>2024-09-18T08:09:03Z</time>
      </trkpt>
      <trkpt lat="51.497432989999652" lon="14.642250007018447">
        <ele>143.84999999999999</ele>
        <time>2024-09-18T08:09:11Z</time>
      </trkpt>
      <trkpt lat="51.497367024421692" lon="14.642226034775376">
        <ele>145.78</ele>
        <time>2024-09-18T08:09:40Z</time>
      </trkpt>
      <trkpt lat="51.49723400361836" lon="14.642179012298584">
        <ele>147.69999999999999</ele>
        <time>2024-09-18T08:09:46Z</time>
      </trkpt>
      <trkpt lat="51.497215982526541" lon="14.642246989533305">
        <ele>147.69999999999999</ele>
        <time>2024-09-18T08:09:47Z</time>
      </trkpt>
      <trkpt lat="51.497196033596992" lon="14.642327958717942">
        <ele>147.69999999999999</ele>
        <time>2024-09-18T08:09:48Z</time>
      </trkpt>
      <trkpt lat="51.49717097170651" lon="14.64242996647954">
        <ele>147.22</ele>
        <time>2024-09-18T08:09:49Z</time>
      </trkpt>
      <trkpt lat="51.497144987806678" lon="14.642534991726279">
        <ele>147.22</ele>
        <time>2024-09-18T08:09:50Z</time>
      </trkpt>
      <trkpt lat="51.496995035558939" lon="14.643093980848789">
        <ele>146.25999999999999</ele>
        <time>2024-09-18T08:09:54Z</time>
      </trkpt>
      <trkpt lat="51.496270000934601" lon="14.644826017320156">
        <ele>144.34</ele>
        <time>2024-09-18T08:10:06Z</time>
      </trkpt>
      <trkpt lat="51.495455028489232" lon="14.646730972453952">
        <ele>143.37</ele>
        <time>2024-09-18T08:10:18Z</time>
      </trkpt>
      <trkpt lat="51.494637038558722" lon="14.648715974763036">
        <ele>144.81999999999999</ele>
        <time>2024-09-18T08:10:28Z</time>
      </trkpt>
      <trkpt lat="51.493629030883312" lon="14.651491977274418">
        <ele>143.37</ele>
        <time>2024-09-18T08:10:40Z</time>
      </trkpt>
      <trkpt lat="51.49248699657619" lon="14.654733007773757">
        <ele>143.37</ele>
        <time>2024-09-18T08:10:54Z</time>
      </trkpt>
      <trkpt lat="51.491547971963882" lon="14.657629961147904">
        <ele>143.37</ele>
        <time>2024-09-18T08:11:06Z</time>
      </trkpt>
      <trkpt lat="51.491335993632674" lon="14.658644003793597">
        <ele>141.93000000000001</ele>
        <time>2024-09-18T08:11:10Z</time>
      </trkpt>
      <trkpt lat="51.491309003904462" lon="14.658892024308443">
        <ele>140.97</ele>
        <time>2024-09-18T08:11:11Z</time>
      </trkpt>
      <trkpt lat="51.491246977820992" lon="14.661117000505328">
        <ele>134.72</ele>
        <time>2024-09-18T08:11:19Z</time>
      </trkpt>
      <trkpt lat="51.491386033594608" lon="14.664202965795994">
        <ele>130.88</ele>
        <time>2024-09-18T08:11:30Z</time>
      </trkpt>
      <trkpt lat="51.491637993603945" lon="14.667637031525373">
        <ele>128.94999999999999</ele>
        <time>2024-09-18T08:11:41Z</time>
      </trkpt>
      <trkpt lat="51.492291027680039" lon="14.669856978580356">
        <ele>127.51000000000001</ele>
        <time>2024-09-18T08:11:49Z</time>
      </trkpt>
      <trkpt lat="51.493374975398183" lon="14.672488979995251">
        <ele>124.15000000000001</ele>
        <time>2024-09-18T08:12:00Z</time>
      </trkpt>
      <trkpt lat="51.494244011119008" lon="14.675372019410133">
        <ele>119.81999999999999</ele>
        <time>2024-09-18T08:12:10Z</time>
      </trkpt>
      <trkpt lat="51.495124027132988" lon="14.678293028846383">
        <ele>115.5</ele>
        <time>2024-09-18T08:12:20Z</time>
      </trkpt>
      <trkpt lat="51.495572961866856" lon="14.680033028125763">
        <ele>113.09</ele>
        <time>2024-09-18T08:12:26Z</time>
      </trkpt>
      <trkpt lat="51.495614033192396" lon="14.680337039753795">
        <ele>113.09</ele>
        <time>2024-09-18T08:12:27Z</time>
      </trkpt>
      <trkpt lat="51.495654014870524" lon="14.680642979219556">
        <ele>112.61</ele>
        <time>2024-09-18T08:12:28Z</time>
      </trkpt>
      <trkpt lat="51.495662983506918" lon="14.680955037474632">
        <ele>112.61</ele>
        <time>2024-09-18T08:12:29Z</time>
      </trkpt>
      <trkpt lat="51.495657032355666" lon="14.681275980547071">
        <ele>112.13</ele>
        <time>2024-09-18T08:12:30Z</time>
      </trkpt>
      <trkpt lat="51.49568896740675" lon="14.68518203124404">
        <ele>113.56999999999999</ele>
        <time>2024-09-18T08:12:42Z</time>
      </trkpt>
      <trkpt lat="51.495863981544971" lon="14.686745004728436">
        <ele>114.53</ele>
        <time>2024-09-18T08:12:47Z</time>
      </trkpt>
      <trkpt lat="51.495930030941963" lon="14.687029989436269">
        <ele>114.53</ele>
        <time>2024-09-18T08:12:48Z</time>
      </trkpt>
      <trkpt lat="51.495997002348304" lon="14.687306005507708">
        <ele>114.53</ele>
        <time>2024-09-18T08:12:49Z</time>
      </trkpt>
      <trkpt lat="51.496978020295501" lon="14.690033979713917">
        <ele>115.01000000000001</ele>
        <time>2024-09-18T08:12:59Z</time>
      </trkpt>
      <trkpt lat="51.498265983536839" lon="14.693104019388556">
        <ele>115.01000000000001</ele>
        <time>2024-09-18T08:13:10Z</time>
      </trkpt>
      <trkpt lat="51.499589988961816" lon="14.695523036643863">
        <ele>115.01000000000001</ele>
        <time>2024-09-18T08:13:19Z</time>
      </trkpt>
      <trkpt lat="51.500219972804189" lon="14.697475014254451">
        <ele>115.5</ele>
        <time>2024-09-18T08:13:25Z</time>
      </trkpt>
      <trkpt lat="51.500681983307004" lon="14.700392000377178">
        <ele>116.45999999999999</ele>
        <time>2024-09-18T08:13:33Z</time>
      </trkpt>
      <trkpt lat="51.501669036224484" lon="14.704900961369276">
        <ele>118.38</ele>
        <time>2024-09-18T08:13:46Z</time>
      </trkpt>
      <trkpt lat="51.50241301394999" lon="14.708361010998487">
        <ele>118.38</ele>
        <time>2024-09-18T08:13:56Z</time>
      </trkpt>
      <trkpt lat="51.502461964264512" lon="14.708703998476267">
        <ele>117.90000000000001</ele>
        <time>2024-09-18T08:13:57Z</time>
      </trkpt>
      <trkpt lat="51.502489959821105" lon="14.70905302092433">
        <ele>117.90000000000001</ele>
        <time>2024-09-18T08:13:58Z</time>
      </trkpt>
      <trkpt lat="51.502512004226446" lon="14.70937698148191">
        <ele>117.90000000000001</ele>
        <time>2024-09-18T08:13:59Z</time>
      </trkpt>
      <trkpt lat="51.502510998398066" lon="14.709692979231477">
        <ele>117.90000000000001</ele>
        <time>2024-09-18T08:14:00Z</time>
      </trkpt>
      <trkpt lat="51.502479985356331" lon="14.709988022223115">
        <ele>118.38</ele>
        <time>2024-09-18T08:14:01Z</time>
      </trkpt>
      <trkpt lat="51.502451989799738" lon="14.710249034687877">
        <ele>118.38</ele>
        <time>2024-09-18T08:14:02Z</time>
      </trkpt>
      <trkpt lat="51.502427011728287" lon="14.710486996918917">
        <ele>118.86</ele>
        <time>2024-09-18T08:14:03Z</time>
      </trkpt>
      <trkpt lat="51.502403961494565" lon="14.71070702187717">
        <ele>119.34</ele>
        <time>2024-09-18T08:14:04Z</time>
      </trkpt>
      <trkpt lat="51.502339001744986" lon="14.711433984339237">
        <ele>121.26000000000001</ele>
        <time>2024-09-18T08:14:08Z</time>
      </trkpt>
      <trkpt lat="51.502316035330296" lon="14.711578991264105">
        <ele>122.70999999999999</ele>
        <time>2024-09-18T08:14:09Z</time>
      </trkpt>
      <trkpt lat="51.502294996753335" lon="14.711708994582295">
        <ele>123.67</ele>
        <time>2024-09-18T08:14:10Z</time>
      </trkpt>
      <trkpt lat="51.502169016748667" lon="14.711851989850402">
        <ele>124.63</ele>
        <time>2024-09-18T08:14:11Z</time>
      </trkpt>
      <trkpt lat="51.50215401314199" lon="14.711894989013672">
        <ele>125.59</ele>
        <time>2024-09-18T08:14:12Z</time>
      </trkpt>
      <trkpt lat="51.502126017585397" lon="14.711980987340212">
        <ele>126.06999999999999</ele>
        <time>2024-09-18T08:14:13Z</time>
      </trkpt>
      <trkpt lat="51.502142027020454" lon="14.712095987051725">
        <ele>126.55</ele>
        <time>2024-09-18T08:14:14Z</time>
      </trkpt>
      <trkpt lat="51.502146972343326" lon="14.712131023406982">
        <ele>126.55</ele>
        <time>2024-09-18T08:14:15Z</time>
      </trkpt>
      <trkpt lat="51.502186032012105" lon="14.712396981194615">
        <ele>127.03</ele>
        <time>2024-09-18T08:14:16Z</time>
      </trkpt>
      <trkpt lat="51.502161975950003" lon="14.712549028918147">
        <ele>127.03</ele>
        <time>2024-09-18T08:14:17Z</time>
      </trkpt>
      <trkpt lat="51.502132974565029" lon="14.712726976722479">
        <ele>127.51000000000001</ele>
        <time>2024-09-18T08:14:18Z</time>
      </trkpt>
      <trkpt lat="51.501825023442507" lon="14.714394975453615">
        <ele>127.03</ele>
        <time>2024-09-18T08:14:25Z</time>
      </trkpt>
      <trkpt lat="51.501127984374762" lon="14.716572007164359">
        <ele>124.15000000000001</ele>
        <time>2024-09-18T08:14:33Z</time>
      </trkpt>
      <trkpt lat="51.500013023614883" lon="14.718519039452076">
        <ele>122.22</ele>
        <time>2024-09-18T08:14:41Z</time>
      </trkpt>
      <trkpt lat="51.498769987374544" lon="14.720589034259319">
        <ele>120.78</ele>
        <time>2024-09-18T08:14:49Z</time>
      </trkpt>
      <trkpt lat="51.498243017122149" lon="14.722833959385753">
        <ele>120.3</ele>
        <time>2024-09-18T08:14:56Z</time>
      </trkpt>
      <trkpt lat="51.498230025172234" lon="14.723173007369041">
        <ele>120.3</ele>
        <time>2024-09-18T08:14:57Z</time>
      </trkpt>
      <trkpt lat="51.498228013515472" lon="14.723508032038808">
        <ele>120.3</ele>
        <time>2024-09-18T08:14:58Z</time>
      </trkpt>
      <trkpt lat="51.498253997415304" lon="14.723848002031446">
        <ele>120.3</ele>
        <time>2024-09-18T08:14:59Z</time>
      </trkpt>
      <trkpt lat="51.498282998800278" lon="14.724185960367322">
        <ele>120.3</ele>
        <time>2024-09-18T08:15:00Z</time>
      </trkpt>
      <trkpt lat="51.498346030712128" lon="14.724506987258792">
        <ele>120.3</ele>
        <time>2024-09-18T08:15:01Z</time>
      </trkpt>
      <trkpt lat="51.498413002118468" lon="14.724833965301514">
        <ele>120.78</ele>
        <time>2024-09-18T08:15:02Z</time>
      </trkpt>
      <trkpt lat="51.498505035415292" lon="14.725136971101165">
        <ele>120.78</ele>
        <time>2024-09-18T08:15:03Z</time>
      </trkpt>
      <trkpt lat="51.498611988499761" lon="14.725434025749564">
        <ele>120.78</ele>
        <time>2024-09-18T08:15:04Z</time>
      </trkpt>
      <trkpt lat="51.498716007918119" lon="14.725724039599299">
        <ele>120.78</ele>
        <time>2024-09-18T08:15:05Z</time>
      </trkpt>
      <trkpt lat="51.498838970437646" lon="14.725962001830339">
        <ele>120.78</ele>
        <time>2024-09-18T08:15:06Z</time>
      </trkpt>
      <trkpt lat="51.498970985412598" lon="14.726193007081747">
        <ele>120.78</ele>
        <time>2024-09-18T08:15:07Z</time>
      </trkpt>
      <trkpt lat="51.499099982902408" lon="14.726422000676394">
        <ele>120.3</ele>
        <time>2024-09-18T08:15:08Z</time>
      </trkpt>
      <trkpt lat="51.499256975948811" lon="14.726600032299757">
        <ele>120.3</ele>
        <time>2024-09-18T08:15:09Z</time>
      </trkpt>
      <trkpt lat="51.499415980651975" lon="14.726780997589231">
        <ele>120.3</ele>
        <time>2024-09-18T08:15:10Z</time>
      </trkpt>
      <trkpt lat="51.499571967869997" lon="14.726959029212594">
        <ele>120.3</ele>
        <time>2024-09-18T08:15:11Z</time>
      </trkpt>
      <trkpt lat="51.499728038907051" lon="14.727133037522435">
        <ele>120.3</ele>
        <time>2024-09-18T08:15:12Z</time>
      </trkpt>
      <trkpt lat="51.499914033338428" lon="14.727222975343466">
        <ele>119.81999999999999</ele>
        <time>2024-09-18T08:15:13Z</time>
      </trkpt>
      <trkpt lat="51.501063024625182" lon="14.727505026385188">
        <ele>119.81999999999999</ele>
        <time>2024-09-18T08:15:19Z</time>
      </trkpt>
      <trkpt lat="51.502275969833136" lon="14.727559005841613">
        <ele>119.34</ele>
        <time>2024-09-18T08:15:25Z</time>
      </trkpt>
      <trkpt lat="51.502492977306247" lon="14.727707030251622">
        <ele>119.34</ele>
        <time>2024-09-18T08:15:26Z</time>
      </trkpt>
      <trkpt lat="51.503025982528925" lon="14.728212961927056">
        <ele>118.86</ele>
        <time>2024-09-18T08:15:29Z</time>
      </trkpt>
      <trkpt lat="51.503721009939909" lon="14.729077974334359">
        <ele>118.86</ele>
        <time>2024-09-18T08:15:33Z</time>
      </trkpt>
      <trkpt lat="51.503890994936228" lon="14.729291964322329">
        <ele>118.86</ele>
        <time>2024-09-18T08:15:34Z</time>
      </trkpt>
      <trkpt lat="51.504700016230345" lon="14.730288991704583">
        <ele>118.38</ele>
        <time>2024-09-18T08:15:39Z</time>
      </trkpt>
      <trkpt lat="51.504848040640354" lon="14.730472974479198">
        <ele>118.38</ele>
        <time>2024-09-18T08:15:40Z</time>
      </trkpt>
      <trkpt lat="51.504975026473403" lon="14.730651006102562">
        <ele>118.38</ele>
        <time>2024-09-18T08:15:41Z</time>
      </trkpt>
      <trkpt lat="51.505088014528155" lon="14.730844963341951">
        <ele>118.38</ele>
        <time>2024-09-18T08:15:42Z</time>
      </trkpt>
      <trkpt lat="51.505182981491089" lon="14.731026012450457">
        <ele>118.38</ele>
        <time>2024-09-18T08:15:43Z</time>
      </trkpt>
      <trkpt lat="51.505250036716461" lon="14.731235979124904">
        <ele>118.86</ele>
        <time>2024-09-18T08:15:44Z</time>
      </trkpt>
      <trkpt lat="51.505302004516125" lon="14.731400012969971">
        <ele>118.86</ele>
        <time>2024-09-18T08:15:45Z</time>
      </trkpt>
      <trkpt lat="51.505355983972549" lon="14.731607967987657">
        <ele>118.86</ele>
        <time>2024-09-18T08:15:46Z</time>
      </trkpt>
      <trkpt lat="51.50572101585567" lon="14.733227016404271">
        <ele>120.78</ele>
        <time>2024-09-18T08:15:55Z</time>
      </trkpt>
      <trkpt lat="51.505926959216595" lon="14.733907040208578">
        <ele>121.26000000000001</ele>
        <time>2024-09-18T08:15:59Z</time>
      </trkpt>
      <trkpt lat="51.506003988906741" lon="14.734076019376516">
        <ele>121.26000000000001</ele>
        <time>2024-09-18T08:16:00Z</time>
      </trkpt>
      <trkpt lat="51.506089987233281" lon="14.734264025464654">
        <ele>120.78</ele>
        <time>2024-09-18T08:16:01Z</time>
      </trkpt>
      <trkpt lat="51.506203981116414" lon="14.734421018511057">
        <ele>120.78</ele>
        <time>2024-09-18T08:16:02Z</time>
      </trkpt>
      <trkpt lat="51.506332978606224" lon="14.734592009335756">
        <ele>120.78</ele>
        <time>2024-09-18T08:16:03Z</time>
      </trkpt>
      <trkpt lat="51.50754701346159" lon="14.736265037208796">
        <ele>121.73999999999999</ele>
        <time>2024-09-18T08:16:11Z</time>
      </trkpt>
      <trkpt lat="51.50894301943481" lon="14.738318016752601">
        <ele>123.19</ele>
        <time>2024-09-18T08:16:19Z</time>
      </trkpt>
      <trkpt lat="51.509108981117606" lon="14.738612975925207">
        <ele>123.19</ele>
        <time>2024-09-18T08:16:20Z</time>
      </trkpt>
      <trkpt lat="51.509269997477531" lon="14.738899972289801">
        <ele>123.67</ele>
        <time>2024-09-18T08:16:21Z</time>
      </trkpt>
      <trkpt lat="51.509392037987709" lon="14.73924295976758">
        <ele>123.67</ele>
        <time>2024-09-18T08:16:22Z</time>
      </trkpt>
      <trkpt lat="51.509473007172346" lon="14.739568009972572">
        <ele>123.67</ele>
        <time>2024-09-18T08:16:23Z</time>
      </trkpt>
      <trkpt lat="51.509507959708571" lon="14.739900017157197">
        <ele>123.67</ele>
        <time>2024-09-18T08:16:24Z</time>
      </trkpt>
      <trkpt lat="51.509532015770674" lon="14.740206962451339">
        <ele>124.15000000000001</ele>
        <time>2024-09-18T08:16:25Z</time>
      </trkpt>
      <trkpt lat="51.509554982185364" lon="14.740498987957835">
        <ele>124.15000000000001</ele>
        <time>2024-09-18T08:16:26Z</time>
      </trkpt>
      <trkpt lat="51.509722033515573" lon="14.742021979764104">
        <ele>126.55</ele>
        <time>2024-09-18T08:16:33Z</time>
      </trkpt>
      <trkpt lat="51.509641986340284" lon="14.742246028035879">
        <ele>127.03</ele>
        <time>2024-09-18T08:16:34Z</time>
      </trkpt>
      <trkpt lat="51.509667970240116" lon="14.742373013868928">
        <ele>127.03</ele>
        <time>2024-09-18T08:16:35Z</time>
      </trkpt>
      <trkpt lat="51.509808031842113" lon="14.742450965568423">
        <ele>127.51000000000001</ele>
        <time>2024-09-18T08:16:36Z</time>
      </trkpt>
      <trkpt lat="51.509920014068484" lon="14.742719018831849">
        <ele>127.51000000000001</ele>
        <time>2024-09-18T08:16:38Z</time>
      </trkpt>
      <trkpt lat="51.510066026821733" lon="14.743096036836505">
        <ele>127.51000000000001</ele>
        <time>2024-09-18T08:16:40Z</time>
      </trkpt>
      <trkpt lat="51.510781003162265" lon="14.744873000308871">
        <ele>125.59</ele>
        <time>2024-09-18T08:16:47Z</time>
      </trkpt>
      <trkpt lat="51.511687003076077" lon="14.747085990384221">
        <ele>122.22</ele>
        <time>2024-09-18T08:16:54Z</time>
      </trkpt>
      <trkpt lat="51.513364976271987" lon="14.751247018575668">
        <ele>119.34</ele>
        <time>2024-09-18T08:17:06Z</time>
      </trkpt>
      <trkpt lat="51.515021994709969" lon="14.755347026512027">
        <ele>123.19</ele>
        <time>2024-09-18T08:17:19Z</time>
      </trkpt>
      <trkpt lat="51.515484005212784" lon="14.756658039987087">
        <ele>122.70999999999999</ele>
        <time>2024-09-18T08:17:25Z</time>
      </trkpt>
      <trkpt lat="51.515525998547673" lon="14.756859038025141">
        <ele>122.70999999999999</ele>
        <time>2024-09-18T08:17:26Z</time>
      </trkpt>
      <trkpt lat="51.515548964962363" lon="14.757062969729304">
        <ele>122.22</ele>
        <time>2024-09-18T08:17:27Z</time>
      </trkpt>
      <trkpt lat="51.515571009367704" lon="14.757262039929628">
        <ele>122.22</ele>
        <time>2024-09-18T08:17:28Z</time>
      </trkpt>
      <trkpt lat="51.515575032681227" lon="14.757461026310921">
        <ele>121.73999999999999</ele>
        <time>2024-09-18T08:17:29Z</time>
      </trkpt>
      <trkpt lat="51.515566986054182" lon="14.757655989378691">
        <ele>121.26000000000001</ele>
        <time>2024-09-18T08:17:30Z</time>
      </trkpt>
      <trkpt lat="51.515559023246169" lon="14.757845001295209">
        <ele>121.26000000000001</ele>
        <time>2024-09-18T08:17:31Z</time>
      </trkpt>
      <trkpt lat="51.51547503657639" lon="14.758760975673795">
        <ele>118.38</ele>
        <time>2024-09-18T08:17:37Z</time>
      </trkpt>
      <trkpt lat="51.515466989949346" lon="14.758847979828715">
        <ele>117.90000000000001</ele>
        <time>2024-09-18T08:17:38Z</time>
      </trkpt>
      <trkpt lat="51.515460032969713" lon="14.758915035054088">
        <ele>117.42</ele>
        <time>2024-09-18T08:17:39Z</time>
      </trkpt>
      <trkpt lat="51.515450980514288" lon="14.759016036987305">
        <ele>117.42</ele>
        <time>2024-09-18T08:17:40Z</time>
      </trkpt>
      <trkpt lat="51.515463972464204" lon="14.759029028937221">
        <ele>116.94</ele>
        <time>2024-09-18T08:17:41Z</time>
      </trkpt>
      <trkpt lat="51.515515018254519" lon="14.759079990908504">
        <ele>116.94</ele>
        <time>2024-09-18T08:17:42Z</time>
      </trkpt>
      <trkpt lat="51.515601016581059" lon="14.759165989235044">
        <ele>116.45999999999999</ele>
        <time>2024-09-18T08:17:43Z</time>
      </trkpt>
      <trkpt lat="51.515657007694244" lon="14.75920001976192">
        <ele>116.45999999999999</ele>
        <time>2024-09-18T08:17:44Z</time>
      </trkpt>
      <trkpt lat="51.515742000192404" lon="14.759249975904822">
        <ele>116.45999999999999</ele>
        <time>2024-09-18T08:17:45Z</time>
      </trkpt>
      <trkpt lat="51.515832021832466" lon="14.759301021695137">
        <ele>115.98</ele>
        <time>2024-09-18T08:17:46Z</time>
      </trkpt>
      <trkpt lat="51.515923971310258" lon="14.759353995323181">
        <ele>115.98</ele>
        <time>2024-09-18T08:17:47Z</time>
      </trkpt>
      <trkpt lat="51.516019022092223" lon="14.759407974779606">
        <ele>115.98</ele>
        <time>2024-09-18T08:17:48Z</time>
      </trkpt>
      <trkpt lat="51.516116000711918" lon="14.759462960064411">
        <ele>115.98</ele>
        <time>2024-09-18T08:17:49Z</time>
      </trkpt>
      <trkpt lat="51.516666021198034" lon="14.759827991947532">
        <ele>117.42</ele>
        <time>2024-09-18T08:17:55Z</time>
      </trkpt>
      <trkpt lat="51.516953017562628" lon="14.760077018290758">
        <ele>117.90000000000001</ele>
        <time>2024-09-18T08:17:59Z</time>
      </trkpt>
      <trkpt lat="51.517037004232407" lon="14.760199980810285">
        <ele>117.42</ele>
        <time>2024-09-18T08:18:01Z</time>
      </trkpt>
      <trkpt lat="51.517145968973637" lon="14.760560989379883">
        <ele>116.45999999999999</ele>
        <time>2024-09-18T08:18:06Z</time>
      </trkpt>
      <trkpt lat="51.517127025872469" lon="14.76059703156352">
        <ele>116.45999999999999</ele>
        <time>2024-09-18T08:18:07Z</time>
      </trkpt>
      <trkpt lat="51.517086960375309" lon="14.760669032111764">
        <ele>115.98</ele>
        <time>2024-09-18T08:18:08Z</time>
      </trkpt>
      <trkpt lat="51.517040021717548" lon="14.760755030438304">
        <ele>115.98</ele>
        <time>2024-09-18T08:18:09Z</time>
      </trkpt>
      <trkpt lat="51.516985958442092" lon="14.760853014886379">
        <ele>115.98</ele>
        <time>2024-09-18T08:18:10Z</time>
      </trkpt>
      <trkpt lat="51.516924016177654" lon="14.760967008769512">
        <ele>115.5</ele>
        <time>2024-09-18T08:18:11Z</time>
      </trkpt>
      <trkpt lat="51.516714971512556" lon="14.761547958478332">
        <ele>114.53</ele>
        <time>2024-09-18T08:18:15Z</time>
      </trkpt>
      <trkpt lat="51.51665797457099" lon="14.761891029775143">
        <ele>114.53</ele>
        <time>2024-09-18T08:18:17Z</time>
      </trkpt>
      <trkpt lat="51.516496036201715" lon="14.763115039095283">
        <ele>114.53</ele>
        <time>2024-09-18T08:18:24Z</time>
      </trkpt>
      <trkpt lat="51.51601298712194" lon="14.764769962057471">
        <ele>116.94</ele>
        <time>2024-09-18T08:18:34Z</time>
      </trkpt>
      <trkpt lat="51.515393983572721" lon="14.766653962433338">
        <ele>119.34</ele>
        <time>2024-09-18T08:18:45Z</time>
      </trkpt>
      <trkpt lat="51.514606000855565" lon="14.769048001617193">
        <ele>120.3</ele>
        <time>2024-09-18T08:18:59Z</time>
      </trkpt>
      <trkpt lat="51.514155976474285" lon="14.770411988720298">
        <ele>119.34</ele>
        <time>2024-09-18T08:19:07Z</time>
      </trkpt>
      <trkpt lat="51.514099985361099" lon="14.770580967888236">
        <ele>118.86</ele>
        <time>2024-09-18T08:19:08Z</time>
      </trkpt>
      <trkpt lat="51.514043994247913" lon="14.770751958712935">
        <ele>118.86</ele>
        <time>2024-09-18T08:19:09Z</time>
      </trkpt>
      <trkpt lat="51.513986997306347" lon="14.770924039185047">
        <ele>118.86</ele>
        <time>2024-09-18T08:19:10Z</time>
      </trkpt>
      <trkpt lat="51.513931006193161" lon="14.771096035838127">
        <ele>118.86</ele>
        <time>2024-09-18T08:19:11Z</time>
      </trkpt>
      <trkpt lat="51.513318959623575" lon="14.773013982921839">
        <ele>118.86</ele>
        <time>2024-09-18T08:19:22Z</time>
      </trkpt>
      <trkpt lat="51.51285401545465" lon="14.77460402995348">
        <ele>120.78</ele>
        <time>2024-09-18T08:19:29Z</time>
      </trkpt>
      <trkpt lat="51.512751001864672" lon="14.774845009669662">
        <ele>121.26000000000001</ele>
        <time>2024-09-18T08:19:30Z</time>
      </trkpt>
      <trkpt lat="51.512643964961171" lon="14.775093030184507">
        <ele>122.22</ele>
        <time>2024-09-18T08:19:31Z</time>
      </trkpt>
      <trkpt lat="51.512511027976871" lon="14.775322023779154">
        <ele>122.22</ele>
        <time>2024-09-18T08:19:32Z</time>
      </trkpt>
      <trkpt lat="51.512369960546494" lon="14.775544982403517">
        <ele>122.70999999999999</ele>
        <time>2024-09-18T08:19:33Z</time>
      </trkpt>
      <trkpt lat="51.510955011472106" lon="14.77774104103446">
        <ele>125.11</ele>
        <time>2024-09-18T08:19:42Z</time>
      </trkpt>
      <trkpt lat="51.509735025465488" lon="14.780109012499452">
        <ele>124.63</ele>
        <time>2024-09-18T08:19:51Z</time>
      </trkpt>
      <trkpt lat="51.509660007432103" lon="14.780400032177567">
        <ele>124.63</ele>
        <time>2024-09-18T08:19:52Z</time>
      </trkpt>
      <trkpt lat="51.509117027744651" lon="14.782575974240899">
        <ele>123.67</ele>
        <time>2024-09-18T08:19:59Z</time>
      </trkpt>
      <trkpt lat="51.508466005325317" lon="14.785187020897865">
        <ele>127.03</ele>
        <time>2024-09-18T08:20:07Z</time>
      </trkpt>
      <trkpt lat="51.507696965709329" lon="14.788268962875009">
        <ele>129.91999999999999</ele>
        <time>2024-09-18T08:20:16Z</time>
      </trkpt>
      <trkpt lat="51.507040997967124" lon="14.791750973090529">
        <ele>132.80000000000001</ele>
        <time>2024-09-18T08:20:26Z</time>
      </trkpt>
      <trkpt lat="51.506418976932764" lon="14.795249998569489">
        <ele>136.63999999999999</ele>
        <time>2024-09-18T08:20:36Z</time>
      </trkpt>
      <trkpt lat="51.505672987550497" lon="14.797941008582711">
        <ele>138.09</ele>
        <time>2024-09-18T08:20:44Z</time>
      </trkpt>
      <trkpt lat="51.505581038072705" lon="14.798263041302562">
        <ele>138.56999999999999</ele>
        <time>2024-09-18T08:20:45Z</time>
      </trkpt>
      <trkpt lat="51.504577975720167" lon="14.801321011036634">
        <ele>139.05000000000001</ele>
        <time>2024-09-18T08:20:55Z</time>
      </trkpt>
      <trkpt lat="51.504339007660747" lon="14.80187002569437">
        <ele>139.05000000000001</ele>
        <time>2024-09-18T08:20:57Z</time>
      </trkpt>
      <trkpt lat="51.503557981923223" lon="14.80345998890698">
        <ele>138.09</ele>
        <time>2024-09-18T08:21:03Z</time>
      </trkpt>
      <trkpt lat="51.503420015797019" lon="14.803715972229838">
        <ele>137.61000000000001</ele>
        <time>2024-09-18T08:21:04Z</time>
      </trkpt>
      <trkpt lat="51.502316035330296" lon="14.806192992255092">
        <ele>132.80000000000001</ele>
        <time>2024-09-18T08:21:13Z</time>
      </trkpt>
      <trkpt lat="51.501779006794095" lon="14.807803994044662">
        <ele>133.75999999999999</ele>
        <time>2024-09-18T08:21:20Z</time>
      </trkpt>
      <trkpt lat="51.501717986539006" lon="14.807995017617941">
        <ele>133.75999999999999</ele>
        <time>2024-09-18T08:21:21Z</time>
      </trkpt>
      <trkpt lat="51.50166098959744" lon="14.808183023706079">
        <ele>133.75999999999999</ele>
        <time>2024-09-18T08:21:22Z</time>
      </trkpt>
      <trkpt lat="51.501326970756054" lon="14.809307958930731">
        <ele>134.72</ele>
        <time>2024-09-18T08:21:29Z</time>
      </trkpt>
      <trkpt lat="51.500807963311672" lon="14.811054999008775">
        <ele>135.68000000000001</ele>
        <time>2024-09-18T08:21:39Z</time>
      </trkpt>
      <trkpt lat="51.500021992251277" lon="14.813874000683427">
        <ele>136.16</ele>
        <time>2024-09-18T08:21:55Z</time>
      </trkpt>
      <trkpt lat="51.499569034203887" lon="14.815360028296709">
        <ele>137.13</ele>
        <time>2024-09-18T08:22:02Z</time>
      </trkpt>
      <trkpt lat="51.498910970985889" lon="14.817603025585413">
        <ele>137.13</ele>
        <time>2024-09-18T08:22:10Z</time>
      </trkpt>
      <trkpt lat="51.497984016314149" lon="14.820424960926175">
        <ele>133.75999999999999</ele>
        <time>2024-09-18T08:22:19Z</time>
      </trkpt>
      <trkpt lat="51.496810968965292" lon="14.82273199595511">
        <ele>130.40000000000001</ele>
        <time>2024-09-18T08:22:27Z</time>
      </trkpt>
      <trkpt lat="51.495185969397426" lon="14.825906977057457">
        <ele>123.19</ele>
        <time>2024-09-18T08:22:38Z</time>
      </trkpt>
      <trkpt lat="51.493391990661621" lon="14.829331990331411">
        <ele>120.78</ele>
        <time>2024-09-18T08:22:50Z</time>
      </trkpt>
      <trkpt lat="51.492111990228295" lon="14.831393016502261">
        <ele>119.81999999999999</ele>
        <time>2024-09-18T08:22:58Z</time>
      </trkpt>
      <trkpt lat="51.491030976176262" lon="14.832862028852105">
        <ele>121.26000000000001</ele>
        <time>2024-09-18T08:23:05Z</time>
      </trkpt>
      <trkpt lat="51.490911031141877" lon="14.833043999969959">
        <ele>121.26000000000001</ele>
        <time>2024-09-18T08:23:06Z</time>
      </trkpt>
      <trkpt lat="51.49081002920866" lon="14.833242986351252">
        <ele>120.78</ele>
        <time>2024-09-18T08:23:07Z</time>
      </trkpt>
      <trkpt lat="51.490729982033372" lon="14.833470974117517">
        <ele>120.3</ele>
        <time>2024-09-18T08:23:08Z</time>
      </trkpt>
      <trkpt lat="51.490674996748567" lon="14.833721006289124">
        <ele>119.81999999999999</ele>
        <time>2024-09-18T08:23:09Z</time>
      </trkpt>
      <trkpt lat="51.490620011463761" lon="14.833966009318829">
        <ele>119.34</ele>
        <time>2024-09-18T08:23:10Z</time>
      </trkpt>
      <trkpt lat="51.490564020350575" lon="14.834218975156546">
        <ele>118.86</ele>
        <time>2024-09-18T08:23:11Z</time>
      </trkpt>
      <trkpt lat="51.490241987630725" lon="14.835578016936779">
        <ele>116.45999999999999</ele>
        <time>2024-09-18T08:23:16Z</time>
      </trkpt>
      <trkpt lat="51.490131011232734" lon="14.835818996652961">
        <ele>115.98</ele>
        <time>2024-09-18T08:23:17Z</time>
      </trkpt>
      <trkpt lat="51.490017017349601" lon="14.836067017167807">
        <ele>115.5</ele>
        <time>2024-09-18T08:23:18Z</time>
      </trkpt>
      <trkpt lat="51.489215958863497" lon="14.837942970916629">
        <ele>111.65000000000001</ele>
        <time>2024-09-18T08:23:25Z</time>
      </trkpt>
      <trkpt lat="51.487979041412473" lon="14.840141041204333">
        <ele>109.25</ele>
        <time>2024-09-18T08:23:34Z</time>
      </trkpt>
      <trkpt lat="51.486574988812208" lon="14.842097964137793">
        <ele>108.29000000000001</ele>
        <time>2024-09-18T08:23:43Z</time>
      </trkpt>
      <trkpt lat="51.484566014260054" lon="14.844676991924644">
        <ele>106.36</ele>
        <time>2024-09-18T08:23:55Z</time>
      </trkpt>
      <trkpt lat="51.4838089607656" lon="14.845971995964646">
        <ele>105.88</ele>
        <time>2024-09-18T08:24:02Z</time>
      </trkpt>
      <trkpt lat="51.483409982174635" lon="14.846663000062108">
        <ele>105.40000000000001</ele>
        <time>2024-09-18T08:24:07Z</time>
      </trkpt>
      <trkpt lat="51.483022989705205" lon="14.847636977210641">
        <ele>106.36</ele>
        <time>2024-09-18T08:24:13Z</time>
      </trkpt>
      <trkpt lat="51.482958029955626" lon="14.84780402854085">
        <ele>106.36</ele>
        <time>2024-09-18T08:24:14Z</time>
      </trkpt>
      <trkpt lat="51.482201982289553" lon="14.84978199005127">
        <ele>110.69</ele>
        <time>2024-09-18T08:24:26Z</time>
      </trkpt>
      <trkpt lat="51.481661014258862" lon="14.851501034572721">
        <ele>113.56999999999999</ele>
        <time>2024-09-18T08:24:36Z</time>
      </trkpt>
      <trkpt lat="51.481216019019485" lon="14.853082029148936">
        <ele>116.45999999999999</ele>
        <time>2024-09-18T08:24:45Z</time>
      </trkpt>
      <trkpt lat="51.48116597905755" lon="14.853256959468126">
        <ele>116.94</ele>
        <time>2024-09-18T08:24:46Z</time>
      </trkpt>
      <trkpt lat="51.480959029868245" lon="14.854162959381938">
        <ele>118.38</ele>
        <time>2024-09-18T08:24:51Z</time>
      </trkpt>
      <trkpt lat="51.480922987684608" lon="14.854349037632346">
        <ele>118.86</ele>
        <time>2024-09-18T08:24:52Z</time>
      </trkpt>
      <trkpt lat="51.480595003813505" lon="14.856373015791178">
        <ele>121.26000000000001</ele>
        <time>2024-09-18T08:25:02Z</time>
      </trkpt>
      <trkpt lat="51.480288980528712" lon="14.858646020293236">
        <ele>123.19</ele>
        <time>2024-09-18T08:25:12Z</time>
      </trkpt>
      <trkpt lat="51.480096029117703" lon="14.860461037606001">
        <ele>124.63</ele>
        <time>2024-09-18T08:25:21Z</time>
      </trkpt>
      <trkpt lat="51.479980023577809" lon="14.861653028056026">
        <ele>126.06999999999999</ele>
        <time>2024-09-18T08:25:27Z</time>
      </trkpt>
      <trkpt lat="51.479968037456274" lon="14.861866012215614">
        <ele>126.06999999999999</ele>
        <time>2024-09-18T08:25:28Z</time>
      </trkpt>
      <trkpt lat="51.479843985289335" lon="14.864002978429198">
        <ele>124.15000000000001</ele>
        <time>2024-09-18T08:25:37Z</time>
      </trkpt>
      <trkpt lat="51.479888996109366" lon="14.866224015131593">
        <ele>123.67</ele>
        <time>2024-09-18T08:25:45Z</time>
      </trkpt>
      <trkpt lat="51.479984968900681" lon="14.868834977969527">
        <ele>123.67</ele>
        <time>2024-09-18T08:25:53Z</time>
      </trkpt>
      <trkpt lat="51.480180015787482" lon="14.871981963515282">
        <ele>125.11</ele>
        <time>2024-09-18T08:26:02Z</time>
      </trkpt>
      <trkpt lat="51.480503976345062" lon="14.876062022522092">
        <ele>126.55</ele>
        <time>2024-09-18T08:26:13Z</time>
      </trkpt>
      <trkpt lat="51.480643032118678" lon="14.879341023042798">
        <ele>127.51000000000001</ele>
        <time>2024-09-18T08:26:22Z</time>
      </trkpt>
      <trkpt lat="51.480492996051908" lon="14.882580963894725">
        <ele>128.94999999999999</ele>
        <time>2024-09-18T08:26:31Z</time>
      </trkpt>
      <trkpt lat="51.48030498996377" lon="14.886150984093547">
        <ele>129.91999999999999</ele>
        <time>2024-09-18T08:26:41Z</time>
      </trkpt>
      <trkpt lat="51.480116983875632" lon="14.889728967100382">
        <ele>129.91999999999999</ele>
        <time>2024-09-18T08:26:51Z</time>
      </trkpt>
      <trkpt lat="51.479984968900681" lon="14.892242029309273">
        <ele>127.98999999999999</ele>
        <time>2024-09-18T08:26:58Z</time>
      </trkpt>
      <trkpt lat="51.479685986414552" lon="14.895452968776226">
        <ele>127.98999999999999</ele>
        <time>2024-09-18T08:27:07Z</time>
      </trkpt>
      <trkpt lat="51.479321960359812" lon="14.898562990128994">
        <ele>126.06999999999999</ele>
        <time>2024-09-18T08:27:16Z</time>
      </trkpt>
      <trkpt lat="51.478651994839311" lon="14.900740021839738">
        <ele>125.59</ele>
        <time>2024-09-18T08:27:23Z</time>
      </trkpt>
      <trkpt lat="51.477587996050715" lon="14.903398007154465">
        <ele>125.59</ele>
        <time>2024-09-18T08:27:32Z</time>
      </trkpt>
      <trkpt lat="51.476257033646107" lon="14.906789995729923">
        <ele>126.55</ele>
        <time>2024-09-18T08:27:44Z</time>
      </trkpt>
      <trkpt lat="51.47480302490294" lon="14.910450037568808">
        <ele>129.43000000000001</ele>
        <time>2024-09-18T08:27:57Z</time>
      </trkpt>
      <trkpt lat="51.474003978073597" lon="14.912195987999439">
        <ele>129.91999999999999</ele>
        <time>2024-09-18T08:28:04Z</time>
      </trkpt>
      <trkpt lat="51.473060008138418" lon="14.913667012006044">
        <ele>129.91999999999999</ele>
        <time>2024-09-18T08:28:12Z</time>
      </trkpt>
      <trkpt lat="51.47177598439157" lon="14.916615011170506">
        <ele>133.28</ele>
        <time>2024-09-18T08:28:25Z</time>
      </trkpt>
      <trkpt lat="51.470411997288465" lon="14.919734001159668">
        <ele>133.75999999999999</ele>
        <time>2024-09-18T08:28:38Z</time>
      </trkpt>
      <trkpt lat="51.469993991777301" lon="14.920688029378653">
        <ele>132.31999999999999</ele>
        <time>2024-09-18T08:28:42Z</time>
      </trkpt>
      <trkpt lat="51.469890978187323" lon="14.920923979952931">
        <ele>131.84</ele>
        <time>2024-09-18T08:28:43Z</time>
      </trkpt>
      <trkpt lat="51.469252025708556" lon="14.922385029494762">
        <ele>130.88</ele>
        <time>2024-09-18T08:28:49Z</time>
      </trkpt>
      <trkpt lat="51.469139959663153" lon="14.922640006989241">
        <ele>130.40000000000001</ele>
        <time>2024-09-18T08:28:50Z</time>
      </trkpt>
      <trkpt lat="51.468463037163019" lon="14.924188982695341">
        <ele>128.94999999999999</ele>
        <time>2024-09-18T08:28:56Z</time>
      </trkpt>
      <trkpt lat="51.468347031623125" lon="14.924453012645245">
        <ele>129.43000000000001</ele>
        <time>2024-09-18T08:28:57Z</time>
      </trkpt>
      <trkpt lat="51.467165015637875" lon="14.927144022658467">
        <ele>129.91999999999999</ele>
        <time>2024-09-18T08:29:07Z</time>
      </trkpt>
      <trkpt lat="51.466795960441232" lon="14.927967041730881">
        <ele>129.91999999999999</ele>
        <time>2024-09-18T08:29:10Z</time>
      </trkpt>
      <trkpt lat="51.466672997921705" lon="14.92824599146843">
        <ele>129.43000000000001</ele>
        <time>2024-09-18T08:29:11Z</time>
      </trkpt>
      <trkpt lat="51.465472038835287" lon="14.930962985381484">
        <ele>126.06999999999999</ele>
        <time>2024-09-18T08:29:21Z</time>
      </trkpt>
      <trkpt lat="51.464611971750855" lon="14.93288897909224">
        <ele>127.03</ele>
        <time>2024-09-18T08:29:29Z</time>
      </trkpt>
      <trkpt lat="51.463689040392637" lon="14.935089983046055">
        <ele>127.98999999999999</ele>
        <time>2024-09-18T08:29:38Z</time>
      </trkpt>
      <trkpt lat="51.462740963324904" lon="14.937518974766135">
        <ele>127.98999999999999</ele>
        <time>2024-09-18T08:29:47Z</time>
      </trkpt>
      <trkpt lat="51.46206202916801" lon="14.939235001802444">
        <ele>129.43000000000001</ele>
        <time>2024-09-18T08:29:53Z</time>
      </trkpt>
      <trkpt lat="51.461949041113257" lon="14.939519986510277">
        <ele>129.91999999999999</ele>
        <time>2024-09-18T08:29:54Z</time>
      </trkpt>
      <trkpt lat="51.460685972124338" lon="14.942333959043026">
        <ele>132.80000000000001</ele>
        <time>2024-09-18T08:30:04Z</time>
      </trkpt>
      <trkpt lat="51.459306981414557" lon="14.944909969344735">
        <ele>133.28</ele>
        <time>2024-09-18T08:30:14Z</time>
      </trkpt>
      <trkpt lat="51.458033015951514" lon="14.946705037727952">
        <ele>131.84</ele>
        <time>2024-09-18T08:30:22Z</time>
      </trkpt>
      <trkpt lat="51.457470003515482" lon="14.947210969403386">
        <ele>131.36000000000001</ele>
        <time>2024-09-18T08:30:25Z</time>
      </trkpt>
      <trkpt lat="51.45602697506547" lon="14.947731988504529">
        <ele>131.36000000000001</ele>
        <time>2024-09-18T08:30:32Z</time>
      </trkpt>
      <trkpt lat="51.454633986577392" lon="14.947965005412698">
        <ele>129.43000000000001</ele>
        <time>2024-09-18T08:30:40Z</time>
      </trkpt>
      <trkpt lat="51.453892020508647" lon="14.948279997333884">
        <ele>127.98999999999999</ele>
        <time>2024-09-18T08:30:46Z</time>
      </trkpt>
      <trkpt lat="51.453599995002151" lon="14.948418969288468">
        <ele>126.06999999999999</ele>
        <time>2024-09-18T08:30:50Z</time>
      </trkpt>
      <trkpt lat="51.453541992232203" lon="14.948547966778278">
        <ele>126.06999999999999</ele>
        <time>2024-09-18T08:30:51Z</time>
      </trkpt>
      <trkpt lat="51.453538974747062" lon="14.948631031438708">
        <ele>126.06999999999999</ele>
        <time>2024-09-18T08:30:52Z</time>
      </trkpt>
      <trkpt lat="51.453536041080952" lon="14.948723986744881">
        <ele>125.59</ele>
        <time>2024-09-18T08:30:53Z</time>
      </trkpt>
      <trkpt lat="51.453532017767429" lon="14.948838986456394">
        <ele>125.11</ele>
        <time>2024-09-18T08:30:54Z</time>
      </trkpt>
      <trkpt lat="51.45349295809865" lon="14.949953025206923">
        <ele>119.81999999999999</ele>
        <time>2024-09-18T08:31:01Z</time>
      </trkpt>
      <trkpt lat="51.453434033319354" lon="14.951670980080962">
        <ele>110.69</ele>
        <time>2024-09-18T08:31:09Z</time>
      </trkpt>
      <trkpt lat="51.453425986692309" lon="14.951897040009499">
        <ele>109.73</ele>
        <time>2024-09-18T08:31:10Z</time>
      </trkpt>
      <trkpt lat="51.453418023884296" lon="14.952127039432526">
        <ele>108.77</ele>
        <time>2024-09-18T08:31:11Z</time>
      </trkpt>
      <trkpt lat="51.453477032482624" lon="14.95237497612834">
        <ele>107.81</ele>
        <time>2024-09-18T08:31:12Z</time>
      </trkpt>
      <trkpt lat="51.453534029424191" lon="14.952583014965057">
        <ele>107.31999999999999</ele>
        <time>2024-09-18T08:31:13Z</time>
      </trkpt>
      <trkpt lat="51.453589014708996" lon="14.95278300717473">
        <ele>106.84</ele>
        <time>2024-09-18T08:31:14Z</time>
      </trkpt>
      <trkpt lat="51.45364198833704" lon="14.95297503657639">
        <ele>106.84</ele>
        <time>2024-09-18T08:31:15Z</time>
      </trkpt>
      <trkpt lat="51.453717006370425" lon="14.953250968828797">
        <ele>106.84</ele>
        <time>2024-09-18T08:31:16Z</time>
      </trkpt>
      <trkpt lat="51.453807028010488" lon="14.953375020995736">
        <ele>106.84</ele>
        <time>2024-09-18T08:31:17Z</time>
      </trkpt>
      <trkpt lat="51.454174993559718" lon="14.953939961269498">
        <ele>105.40000000000001</ele>
        <time>2024-09-18T08:31:22Z</time>
      </trkpt>
      <trkpt lat="51.454225033521652" lon="14.954025037586689">
        <ele>104.92</ele>
        <time>2024-09-18T08:31:23Z</time>
      </trkpt>
      <trkpt lat="51.454270966351032" lon="14.954101983457804">
        <ele>104.44</ele>
        <time>2024-09-18T08:31:24Z</time>
      </trkpt>
      <trkpt lat="51.454300973564386" lon="14.954175995662808">
        <ele>103.95999999999999</ele>
        <time>2024-09-18T08:31:25Z</time>
      </trkpt>
      <trkpt lat="51.454383032396436" lon="14.954387973994017">
        <ele>103</ele>
        <time>2024-09-18T08:31:26Z</time>
      </trkpt>
      <trkpt lat="51.454383032396436" lon="14.954387973994017">
        <ele>102.52</ele>
        <time>2024-09-18T08:31:27Z</time>
      </trkpt>
      <trkpt lat="51.454424019902945" lon="14.954648986458778">
        <ele>101.56</ele>
        <time>2024-09-18T08:31:29Z</time>
      </trkpt>
      <trkpt lat="51.454468024894595" lon="14.956014985218644">
        <ele>96.75</ele>
        <time>2024-09-18T08:31:39Z</time>
      </trkpt>
      <trkpt lat="51.454468024894595" lon="14.956487976014614">
        <ele>96.269999999999996</ele>
        <time>2024-09-18T08:31:44Z</time>
      </trkpt>
      <trkpt lat="51.454468024894595" lon="14.956571962684393">
        <ele>96.269999999999996</ele>
        <time>2024-09-18T08:31:45Z</time>
      </trkpt>
      <trkpt lat="51.454468024894595" lon="14.956657039001584">
        <ele>96.269999999999996</ele>
        <time>2024-09-18T08:31:46Z</time>
      </trkpt>
      <trkpt lat="51.454383032396436" lon="14.956856025382876">
        <ele>97.230000000000004</ele>
        <time>2024-09-18T08:31:48Z</time>
      </trkpt>
      <trkpt lat="51.454383032396436" lon="14.956856025382876">
        <ele>97.709999999999994</ele>
        <time>2024-09-18T08:31:49Z</time>
      </trkpt>
      <trkpt lat="51.454396024346352" lon="14.956881003454328">
        <ele>98.189999999999998</ele>
        <time>2024-09-18T08:31:50Z</time>
      </trkpt>
      <trkpt lat="51.4544159732759" lon="14.956917967647314">
        <ele>99.629999999999995</ele>
        <time>2024-09-18T08:31:51Z</time>
      </trkpt>
      <trkpt lat="51.454442963004112" lon="14.956968007609248">
        <ele>99.629999999999995</ele>
        <time>2024-09-18T08:31:52Z</time>
      </trkpt>
      <trkpt lat="51.454474981874228" lon="14.957028022035956">
        <ele>100.11</ele>
        <time>2024-09-18T08:31:53Z</time>
      </trkpt>
      <trkpt lat="51.454510018229485" lon="14.957091975957155">
        <ele>100.59999999999999</ele>
        <time>2024-09-18T08:31:54Z</time>
      </trkpt>
      <trkpt lat="51.454546982422471" lon="14.957169005647302">
        <ele>101.56</ele>
        <time>2024-09-18T08:31:55Z</time>
      </trkpt>
      <trkpt lat="51.454682014882565" lon="14.957501012831926">
        <ele>102.04000000000001</ele>
        <time>2024-09-18T08:31:59Z</time>
      </trkpt>
      <trkpt lat="51.454712022095919" lon="14.957576030865312">
        <ele>102.04000000000001</ele>
        <time>2024-09-18T08:32:00Z</time>
      </trkpt>
      <trkpt lat="51.454735994338989" lon="14.957635039463639">
        <ele>102.04000000000001</ele>
        <time>2024-09-18T08:32:01Z</time>
      </trkpt>
      <trkpt lat="51.454755021259189" lon="14.9576819781214">
        <ele>102.52</ele>
        <time>2024-09-18T08:32:02Z</time>
      </trkpt>
      <trkpt lat="51.454772036522627" lon="14.957722965627909">
        <ele>103</ele>
        <time>2024-09-18T08:32:03Z</time>
      </trkpt>
      <trkpt lat="51.454785028472543" lon="14.957756996154785">
        <ele>103.48</ele>
        <time>2024-09-18T08:32:04Z</time>
      </trkpt>
      <trkpt lat="51.45480003207922" lon="14.957793960347772">
        <ele>103</ele>
        <time>2024-09-18T08:32:05Z</time>
      </trkpt>
      <trkpt lat="51.454812018200755" lon="14.957835031673312">
        <ele>103</ele>
        <time>2024-09-18T08:32:06Z</time>
      </trkpt>
      <trkpt lat="51.454816963523626" lon="14.957910971716046">
        <ele>103</ele>
        <time>2024-09-18T08:32:07Z</time>
      </trkpt>
      <trkpt lat="51.454821992665529" lon="14.957999987527728">
        <ele>103</ele>
        <time>2024-09-18T08:32:08Z</time>
      </trkpt>
      <trkpt lat="51.454828027635813" lon="14.958107024431229">
        <ele>102.52</ele>
        <time>2024-09-18T08:32:09Z</time>
      </trkpt>
      <trkpt lat="51.45482299849391" lon="14.958220012485981">
        <ele>102.52</ele>
        <time>2024-09-18T08:32:10Z</time>
      </trkpt>
      <trkpt lat="51.454796008765697" lon="14.958309028297663">
        <ele>102.52</ele>
        <time>2024-09-18T08:32:11Z</time>
      </trkpt>
      <trkpt lat="51.454776981845498" lon="14.958371976390481">
        <ele>102.52</ele>
        <time>2024-09-18T08:32:12Z</time>
      </trkpt>
      <trkpt lat="51.454776981845498" lon="14.958423022180796">
        <ele>103</ele>
        <time>2024-09-18T08:32:13Z</time>
      </trkpt>
      <trkpt lat="51.454792991280556" lon="14.958466021344066">
        <ele>103</ele>
        <time>2024-09-18T08:32:14Z</time>
      </trkpt>
      <trkpt lat="51.454832972958684" lon="14.958572974428535">
        <ele>103</ele>
        <time>2024-09-18T08:32:15Z</time>
      </trkpt>
      <trkpt lat="51.454850994050503" lon="14.958572974428535">
        <ele>103.48</ele>
        <time>2024-09-18T08:32:16Z</time>
      </trkpt>
      <trkpt lat="51.454873038455844" lon="14.958572974428535">
        <ele>104.44</ele>
        <time>2024-09-18T08:32:17Z</time>
      </trkpt>
      <trkpt lat="51.454940009862185" lon="14.958485970273614">
        <ele>105.40000000000001</ele>
        <time>2024-09-18T08:32:18Z</time>
      </trkpt>
      <trkpt lat="51.454940009862185" lon="14.958465015515685">
        <ele>105.88</ele>
        <time>2024-09-18T08:32:19Z</time>
      </trkpt>
      <trkpt lat="51.454940009862185" lon="14.958427967503667">
        <ele>106.36</ele>
        <time>2024-09-18T08:32:20Z</time>
      </trkpt>
      <trkpt lat="51.454940009862185" lon="14.958382034674287">
        <ele>106.36</ele>
        <time>2024-09-18T08:32:21Z</time>
      </trkpt>
      <trkpt lat="51.454911008477211" lon="14.958325959742069">
        <ele>106.84</ele>
        <time>2024-09-18T08:32:22Z</time>
      </trkpt>
      <trkpt lat="51.454892987385392" lon="14.958295030519366">
        <ele>106.84</ele>
        <time>2024-09-18T08:32:23Z</time>
      </trkpt>
      <trkpt lat="51.454892987385392" lon="14.958295030519366">
        <ele>106.84</ele>
        <time>2024-09-18T08:32:24Z</time>
      </trkpt>
      <trkpt lat="51.454892987385392" lon="14.958295030519366">
        <ele>106.84</ele>
        <time>2024-09-18T08:32:37Z</time>
      </trkpt>
      <trkpt lat="51.454892987385392" lon="14.958295030519366">
        <ele>107.81</ele>
        <time>2024-09-18T08:33:08Z</time>
      </trkpt>
      <trkpt lat="51.454892987385392" lon="14.958295030519366">
        <ele>108.29000000000001</ele>
        <time>2024-09-18T08:33:59Z</time>
      </trkpt>
      <trkpt lat="51.454812018200755" lon="14.957822039723396">
        <ele>116.94</ele>
        <time>2024-09-18T08:34:08Z</time>
      </trkpt>
      <trkpt lat="51.454702969640493" lon="14.957554992288351">
        <ele>117.90000000000001</ele>
        <time>2024-09-18T08:34:11Z</time>
      </trkpt>
      <trkpt lat="51.454662987962365" lon="14.957456002011895">
        <ele>118.38</ele>
        <time>2024-09-18T08:34:12Z</time>
      </trkpt>
      <trkpt lat="51.454625017940998" lon="14.957362040877342">
        <ele>118.86</ele>
        <time>2024-09-18T08:34:13Z</time>
      </trkpt>
      <trkpt lat="51.454586964100599" lon="14.957269001752138">
        <ele>118.86</ele>
        <time>2024-09-18T08:34:14Z</time>
      </trkpt>
      <trkpt lat="51.454548994079232" lon="14.957175962626934">
        <ele>118.86</ele>
        <time>2024-09-18T08:34:15Z</time>
      </trkpt>
      <trkpt lat="51.454511024057865" lon="14.957094993442297">
        <ele>119.34</ele>
        <time>2024-09-18T08:34:16Z</time>
      </trkpt>
      <trkpt lat="51.454465007409453" lon="14.957007989287376">
        <ele>119.34</ele>
        <time>2024-09-18T08:34:17Z</time>
      </trkpt>
      <trkpt lat="51.454419996589422" lon="14.956926014274359">
        <ele>119.81999999999999</ele>
        <time>2024-09-18T08:34:18Z</time>
      </trkpt>
      <trkpt lat="51.45439401268959" lon="14.956876980140805">
        <ele>120.3</ele>
        <time>2024-09-18T08:34:19Z</time>
      </trkpt>
      <trkpt lat="51.454398036003113" lon="14.956840015947819">
        <ele>120.3</ele>
        <time>2024-09-18T08:34:20Z</time>
      </trkpt>
      <trkpt lat="51.454433994367719" lon="14.956803973764181">
        <ele>120.3</ele>
        <time>2024-09-18T08:34:21Z</time>
      </trkpt>
      <trkpt lat="51.45448001101613" lon="14.956754017621279">
        <ele>120.78</ele>
        <time>2024-09-18T08:34:22Z</time>
      </trkpt>
      <trkpt lat="51.454468024894595" lon="14.956625020131469">
        <ele>121.26000000000001</ele>
        <time>2024-09-18T08:34:23Z</time>
      </trkpt>
      <trkpt lat="51.454468024894595" lon="14.956544972956181">
        <ele>121.26000000000001</ele>
        <time>2024-09-18T08:34:24Z</time>
      </trkpt>
      <trkpt lat="51.454468024894595" lon="14.956466015428305">
        <ele>121.73999999999999</ele>
        <time>2024-09-18T08:34:25Z</time>
      </trkpt>
      <trkpt lat="51.454468024894595" lon="14.956379011273384">
        <ele>121.73999999999999</ele>
        <time>2024-09-18T08:34:26Z</time>
      </trkpt>
      <trkpt lat="51.454468024894595" lon="14.956271974369884">
        <ele>122.22</ele>
        <time>2024-09-18T08:34:27Z</time>
      </trkpt>
      <trkpt lat="51.454468024894595" lon="14.956152029335499">
        <ele>122.70999999999999</ele>
        <time>2024-09-18T08:34:28Z</time>
      </trkpt>
      <trkpt lat="51.454450003802776" lon="14.95493195950985">
        <ele>124.15000000000001</ele>
        <time>2024-09-18T08:34:36Z</time>
      </trkpt>
      <trkpt lat="51.454440029338002" lon="14.954749988391995">
        <ele>124.63</ele>
        <time>2024-09-18T08:34:37Z</time>
      </trkpt>
      <trkpt lat="51.454331986606121" lon="14.954256964847445">
        <ele>125.11</ele>
        <time>2024-09-18T08:34:40Z</time>
      </trkpt>
      <trkpt lat="51.454273983836174" lon="14.954107012599707">
        <ele>125.11</ele>
        <time>2024-09-18T08:34:41Z</time>
      </trkpt>
      <trkpt lat="51.454195026308298" lon="14.953973991796374">
        <ele>125.59</ele>
        <time>2024-09-18T08:34:42Z</time>
      </trkpt>
      <trkpt lat="51.453935019671917" lon="14.953552968800068">
        <ele>127.51000000000001</ele>
        <time>2024-09-18T08:34:45Z</time>
      </trkpt>
      <trkpt lat="51.453837035223842" lon="14.953417014330626">
        <ele>127.98999999999999</ele>
        <time>2024-09-18T08:34:46Z</time>
      </trkpt>
      <trkpt lat="51.453732009977102" lon="14.953272007405758">
        <ele>127.98999999999999</ele>
        <time>2024-09-18T08:34:47Z</time>
      </trkpt>
      <trkpt lat="51.453663026914001" lon="14.953054999932647">
        <ele>128.47</ele>
        <time>2024-09-18T08:34:48Z</time>
      </trkpt>
      <trkpt lat="51.453595971688628" lon="14.952807985246181">
        <ele>128.47</ele>
        <time>2024-09-18T08:34:49Z</time>
      </trkpt>
      <trkpt lat="51.453524976968765" lon="14.952548984438181">
        <ele>128.47</ele>
        <time>2024-09-18T08:34:50Z</time>
      </trkpt>
      <trkpt lat="51.453451970592141" lon="14.952285960316658">
        <ele>128.47</ele>
        <time>2024-09-18T08:34:51Z</time>
      </trkpt>
      <trkpt lat="51.453421041369438" lon="14.952026959508657">
        <ele>127.98999999999999</ele>
        <time>2024-09-18T08:34:52Z</time>
      </trkpt>
      <trkpt lat="51.453432021662593" lon="14.95172998867929">
        <ele>127.98999999999999</ele>
        <time>2024-09-18T08:34:53Z</time>
      </trkpt>
      <trkpt lat="51.453441996127367" lon="14.951425977051258">
        <ele>127.98999999999999</ele>
        <time>2024-09-18T08:34:54Z</time>
      </trkpt>
      <trkpt lat="51.453452976420522" lon="14.951126994565129">
        <ele>127.98999999999999</ele>
        <time>2024-09-18T08:34:55Z</time>
      </trkpt>
      <trkpt lat="51.453511985018849" lon="14.949407028034329">
        <ele>127.03</ele>
        <time>2024-09-18T08:35:02Z</time>
      </trkpt>
      <trkpt lat="51.453523971140385" lon="14.94906697422266">
        <ele>126.55</ele>
        <time>2024-09-18T08:35:04Z</time>
      </trkpt>
      <trkpt lat="51.453538974747062" lon="14.948648968711495">
        <ele>126.55</ele>
        <time>2024-09-18T08:35:10Z</time>
      </trkpt>
      <trkpt lat="51.453539980575442" lon="14.948599012568593">
        <ele>127.03</ele>
        <time>2024-09-18T08:35:11Z</time>
      </trkpt>
      <trkpt lat="51.453503016382456" lon="14.948478983715177">
        <ele>127.98999999999999</ele>
        <time>2024-09-18T08:35:12Z</time>
      </trkpt>
      <trkpt lat="51.453477032482624" lon="14.948500022292137">
        <ele>128.47</ele>
        <time>2024-09-18T08:35:13Z</time>
      </trkpt>
      <trkpt lat="51.45342699252069" lon="14.948541009798646">
        <ele>128.94999999999999</ele>
        <time>2024-09-18T08:35:14Z</time>
      </trkpt>
      <trkpt lat="51.453360021114349" lon="14.94859398342669">
        <ele>128.94999999999999</ele>
        <time>2024-09-18T08:35:15Z</time>
      </trkpt>
      <trkpt lat="51.45297696813941" lon="14.948905035853386">
        <ele>129.43000000000001</ele>
        <time>2024-09-18T08:35:19Z</time>
      </trkpt>
      <trkpt lat="51.45194398239255" lon="14.94983802549541">
        <ele>129.91999999999999</ele>
        <time>2024-09-18T08:35:26Z</time>
      </trkpt>
      <trkpt lat="51.450038021430373" lon="14.951388007029891">
        <ele>130.88</ele>
        <time>2024-09-18T08:35:36Z</time>
      </trkpt>
      <trkpt lat="51.448235996067524" lon="14.952197028324008">
        <ele>133.28</ele>
        <time>2024-09-18T08:35:44Z</time>
      </trkpt>
      <trkpt lat="51.446347972378135" lon="14.952662978321314">
        <ele>137.13</ele>
        <time>2024-09-18T08:35:52Z</time>
      </trkpt>
      <trkpt lat="51.445657974109054" lon="14.952577985823154">
        <ele>138.56999999999999</ele>
        <time>2024-09-18T08:35:55Z</time>
      </trkpt>
      <trkpt lat="51.443767016753554" lon="14.952082028612494">
        <ele>140.00999999999999</ele>
        <time>2024-09-18T08:36:03Z</time>
      </trkpt>
      <trkpt lat="51.442094994708896" lon="14.952228963375092">
        <ele>138.09</ele>
        <time>2024-09-18T08:36:10Z</time>
      </trkpt>
      <trkpt lat="51.439842022955418" lon="14.952521994709969">
        <ele>134.24000000000001</ele>
        <time>2024-09-18T08:36:19Z</time>
      </trkpt>
      <trkpt lat="51.436907015740871" lon="14.952929019927979">
        <ele>131.36000000000001</ele>
        <time>2024-09-18T08:36:31Z</time>
      </trkpt>
      <trkpt lat="51.434737024828792" lon="14.953229008242488">
        <ele>129.43000000000001</ele>
        <time>2024-09-18T08:36:40Z</time>
      </trkpt>
      <trkpt lat="51.433097021654248" lon="14.953582976013422">
        <ele>130.88</ele>
        <time>2024-09-18T08:36:47Z</time>
      </trkpt>
      <trkpt lat="51.431024009361863" lon="14.954414963722229">
        <ele>133.28</ele>
        <time>2024-09-18T08:36:56Z</time>
      </trkpt>
      <trkpt lat="51.428925013169646" lon="14.955254998058081">
        <ele>133.28</ele>
        <time>2024-09-18T08:37:05Z</time>
      </trkpt>
      <trkpt lat="51.426107017323375" lon="14.956381022930145">
        <ele>129.43000000000001</ele>
        <time>2024-09-18T08:37:17Z</time>
      </trkpt>
      <trkpt lat="51.423929985612631" lon="14.956956021487713">
        <ele>127.03</ele>
        <time>2024-09-18T08:37:26Z</time>
      </trkpt>
      <trkpt lat="51.421931991353631" lon="14.956870023161173">
        <ele>127.03</ele>
        <time>2024-09-18T08:37:34Z</time>
      </trkpt>
      <trkpt lat="51.419945983216166" lon="14.956726022064686">
        <ele>125.11</ele>
        <time>2024-09-18T08:37:42Z</time>
      </trkpt>
      <trkpt lat="51.418359959498048" lon="14.956714035943151">
        <ele>121.73999999999999</ele>
        <time>2024-09-18T08:37:49Z</time>
      </trkpt>
      <trkpt lat="51.418153010308743" lon="14.956752005964518">
        <ele>121.26000000000001</ele>
        <time>2024-09-18T08:37:50Z</time>
      </trkpt>
      <trkpt lat="51.416970994323492" lon="14.957204964011908">
        <ele>122.70999999999999</ele>
        <time>2024-09-18T08:37:57Z</time>
      </trkpt>
      <trkpt lat="51.415431993082166" lon="14.957304038107395">
        <ele>128.94999999999999</ele>
        <time>2024-09-18T08:38:07Z</time>
      </trkpt>
      <trkpt lat="51.413280023261905" lon="14.957215022295713">
        <ele>135.19999999999999</ele>
        <time>2024-09-18T08:38:18Z</time>
      </trkpt>
      <trkpt lat="51.410378040745854" lon="14.957064986228943">
        <ele>140.00999999999999</ele>
        <time>2024-09-18T08:38:33Z</time>
      </trkpt>
      <trkpt lat="51.409473968669772" lon="14.956743037328124">
        <ele>140.97</ele>
        <time>2024-09-18T08:38:38Z</time>
      </trkpt>
      <trkpt lat="51.408036975190043" lon="14.955578958615661">
        <ele>142.41</ele>
        <time>2024-09-18T08:38:46Z</time>
      </trkpt>
      <trkpt lat="51.405597003176808" lon="14.953407039865851">
        <ele>143.84999999999999</ele>
        <time>2024-09-18T08:38:58Z</time>
      </trkpt>
      <trkpt lat="51.402996014803648" lon="14.950974024832249">
        <ele>145.30000000000001</ele>
        <time>2024-09-18T08:39:10Z</time>
      </trkpt>
      <trkpt lat="51.401064991950989" lon="14.949226984754205">
        <ele>147.22</ele>
        <time>2024-09-18T08:39:19Z</time>
      </trkpt>
      <trkpt lat="51.399126006290317" lon="14.947821004316211">
        <ele>149.62</ele>
        <time>2024-09-18T08:39:28Z</time>
      </trkpt>
      <trkpt lat="51.398922996595502" lon="14.947780016809702">
        <ele>150.09999999999999</ele>
        <time>2024-09-18T08:39:29Z</time>
      </trkpt>
      <trkpt lat="51.3968560192734" lon="14.947525961324573">
        <ele>151.53999999999999</ele>
        <time>2024-09-18T08:39:38Z</time>
      </trkpt>
      <trkpt lat="51.395442998036742" lon="14.947887975722551">
        <ele>151.06</ele>
        <time>2024-09-18T08:39:44Z</time>
      </trkpt>
      <trkpt lat="51.39395697042346" lon="14.948598006740212">
        <ele>150.58000000000001</ele>
        <time>2024-09-18T08:39:51Z</time>
      </trkpt>
      <trkpt lat="51.392200039699674" lon="14.950314033776522">
        <ele>148.66</ele>
        <time>2024-09-18T08:40:00Z</time>
      </trkpt>
      <trkpt lat="51.390220988541842" lon="14.95235301554203">
        <ele>146.74000000000001</ele>
        <time>2024-09-18T08:40:10Z</time>
      </trkpt>
      <trkpt lat="51.389423031359911" lon="14.953337972983718">
        <ele>146.25999999999999</ele>
        <time>2024-09-18T08:40:15Z</time>
      </trkpt>
      <trkpt lat="51.388780977576971" lon="14.954402977600694">
        <ele>144.81999999999999</ele>
        <time>2024-09-18T08:40:20Z</time>
      </trkpt>
      <trkpt lat="51.388652985915542" lon="14.954598024487495">
        <ele>144.34</ele>
        <time>2024-09-18T08:40:21Z</time>
      </trkpt>
      <trkpt lat="51.388488030061126" lon="14.954719981178641">
        <ele>143.84999999999999</ele>
        <time>2024-09-18T08:40:22Z</time>
      </trkpt>
      <trkpt lat="51.388320978730917" lon="14.954828023910522">
        <ele>143.37</ele>
        <time>2024-09-18T08:40:23Z</time>
      </trkpt>
      <trkpt lat="51.388144036754966" lon="14.95488602668047">
        <ele>142.88999999999999</ele>
        <time>2024-09-18T08:40:24Z</time>
      </trkpt>
      <trkpt lat="51.387958964332938" lon="14.954901030287147">
        <ele>142.88999999999999</ele>
        <time>2024-09-18T08:40:25Z</time>
      </trkpt>
      <trkpt lat="51.387770036235452" lon="14.954898012802005">
        <ele>142.41</ele>
        <time>2024-09-18T08:40:26Z</time>
      </trkpt>
      <trkpt lat="51.38624201528728" lon="14.955132035538554">
        <ele>142.88999999999999</ele>
        <time>2024-09-18T08:40:34Z</time>
      </trkpt>
      <trkpt lat="51.384361032396555" lon="14.955870984122157">
        <ele>143.37</ele>
        <time>2024-09-18T08:40:43Z</time>
      </trkpt>
      <trkpt lat="51.383261997252703" lon="14.956311034038663">
        <ele>141.93000000000001</ele>
        <time>2024-09-18T08:40:50Z</time>
      </trkpt>
      <trkpt lat="51.382918003946543" lon="14.956445982679725">
        <ele>142.88999999999999</ele>
        <time>2024-09-18T08:40:53Z</time>
      </trkpt>
      <trkpt lat="51.381501965224743" lon="14.956987034529448">
        <ele>145.30000000000001</ele>
        <time>2024-09-18T08:41:05Z</time>
      </trkpt>
      <trkpt lat="51.38020696118474" lon="14.95738198980689">
        <ele>147.22</ele>
        <time>2024-09-18T08:41:16Z</time>
      </trkpt>
      <trkpt lat="51.379927005618811" lon="14.957432029768825">
        <ele>148.18000000000001</ele>
        <time>2024-09-18T08:41:21Z</time>
      </trkpt>
      <trkpt lat="51.37990303337574" lon="14.957364974543452">
        <ele>148.66</ele>
        <time>2024-09-18T08:41:22Z</time>
      </trkpt>
      <trkpt lat="51.37990303337574" lon="14.957305965945125">
        <ele>148.66</ele>
        <time>2024-09-18T08:41:23Z</time>
      </trkpt>
      <trkpt lat="51.37990303337574" lon="14.957232959568501">
        <ele>149.13999999999999</ele>
        <time>2024-09-18T08:41:24Z</time>
      </trkpt>
      <trkpt lat="51.37990303337574" lon="14.957146039232612">
        <ele>149.13999999999999</ele>
        <time>2024-09-18T08:41:25Z</time>
      </trkpt>
      <trkpt lat="51.379898004233837" lon="14.956940012052655">
        <ele>149.62</ele>
        <time>2024-09-18T08:41:27Z</time>
      </trkpt>
      <trkpt lat="51.379893980920315" lon="14.956826018169522">
        <ele>149.62</ele>
        <time>2024-09-18T08:41:28Z</time>
      </trkpt>
      <trkpt lat="51.379859028384089" lon="14.956173989921808">
        <ele>150.09999999999999</ele>
        <time>2024-09-18T08:41:33Z</time>
      </trkpt>
      <trkpt lat="51.379857016727328" lon="14.956024037674069">
        <ele>149.62</ele>
        <time>2024-09-18T08:41:34Z</time>
      </trkpt>
      <trkpt lat="51.37981896288693" lon="14.954107012599707">
        <ele>150.58000000000001</ele>
        <time>2024-09-18T08:41:45Z</time>
      </trkpt>
      <trkpt lat="51.379752997308969" lon="14.951697969809175">
        <ele>150.09999999999999</ele>
        <time>2024-09-18T08:41:55Z</time>
      </trkpt>
      <trkpt lat="51.379752997308969" lon="14.949035961180925">
        <ele>150.09999999999999</ele>
        <time>2024-09-18T08:42:03Z</time>
      </trkpt>
      <trkpt lat="51.379943015053868" lon="14.945066040381789">
        <ele>150.09999999999999</ele>
        <time>2024-09-18T08:42:13Z</time>
      </trkpt>
      <trkpt lat="51.380143007263541" lon="14.941994994878769">
        <ele>150.09999999999999</ele>
        <time>2024-09-18T08:42:21Z</time>
      </trkpt>
      <trkpt lat="51.380203021690249" lon="14.93802297860384">
        <ele>151.53999999999999</ele>
        <time>2024-09-18T08:42:32Z</time>
      </trkpt>
      <trkpt lat="51.380203021690249" lon="14.935961030423641">
        <ele>151.53999999999999</ele>
        <time>2024-09-18T08:42:39Z</time>
      </trkpt>
      <trkpt lat="51.380066983401775" lon="14.934259001165628">
        <ele>150.09999999999999</ele>
        <time>2024-09-18T08:42:45Z</time>
      </trkpt>
      <trkpt lat="51.380044016987085" lon="14.93400301784277">
        <ele>150.09999999999999</ele>
        <time>2024-09-18T08:42:46Z</time>
      </trkpt>
      <trkpt lat="51.380019960924983" lon="14.933743011206388">
        <ele>150.09999999999999</ele>
        <time>2024-09-18T08:42:47Z</time>
      </trkpt>
      <trkpt lat="51.379738999530673" lon="14.931931011378765">
        <ele>152.03</ele>
        <time>2024-09-18T08:42:55Z</time>
      </trkpt>
      <trkpt lat="51.379258967936039" lon="14.930407013744116">
        <ele>153.94999999999999</ele>
        <time>2024-09-18T08:43:05Z</time>
      </trkpt>
      <trkpt lat="51.379220997914672" lon="14.93028799071908">
        <ele>153.94999999999999</ele>
        <time>2024-09-18T08:43:10Z</time>
      </trkpt>
      <trkpt lat="51.37919501401484" lon="14.930206015706062">
        <ele>153.47</ele>
        <time>2024-09-18T08:43:12Z</time>
      </trkpt>
      <trkpt lat="51.379144974052906" lon="14.93020199239254">
        <ele>153.47</ele>
        <time>2024-09-18T08:43:13Z</time>
      </trkpt>
      <trkpt lat="51.379067022353411" lon="14.930195035412908">
        <ele>153.47</ele>
        <time>2024-09-18T08:43:14Z</time>
      </trkpt>
      <trkpt lat="51.378225982189178" lon="14.930127980187535">
        <ele>153.47</ele>
        <time>2024-09-18T08:43:21Z</time>
      </trkpt>
      <trkpt lat="51.377910990267992" lon="14.930165028199553">
        <ele>153.94999999999999</ele>
        <time>2024-09-18T08:43:23Z</time>
      </trkpt>
      <trkpt lat="51.377760032191873" lon="14.93022202514112">
        <ele>153.94999999999999</ele>
        <time>2024-09-18T08:43:24Z</time>
      </trkpt>
      <trkpt lat="51.37760697863996" lon="14.930314980447292">
        <ele>154.43000000000001</ele>
        <time>2024-09-18T08:43:25Z</time>
      </trkpt>
      <trkpt lat="51.376498974859715" lon="14.931174041703343">
        <ele>154.91</ele>
        <time>2024-09-18T08:43:33Z</time>
      </trkpt>
      <trkpt lat="51.375240013003349" lon="14.932193029671907">
        <ele>154.91</ele>
        <time>2024-09-18T08:43:41Z</time>
      </trkpt>
      <trkpt lat="51.373313013464212" lon="14.933848958462477">
        <ele>154.91</ele>
        <time>2024-09-18T08:43:51Z</time>
      </trkpt>
      <trkpt lat="51.373146967962384" lon="14.934064038097858">
        <ele>155.38999999999999</ele>
        <time>2024-09-18T08:43:52Z</time>
      </trkpt>
      <trkpt lat="51.371665969491005" lon="14.935678979381919">
        <ele>155.87</ele>
        <time>2024-09-18T08:44:00Z</time>
      </trkpt>
      <trkpt lat="51.370076006278396" lon="14.93643200956285">
        <ele>155.38999999999999</ele>
        <time>2024-09-18T08:44:07Z</time>
      </trkpt>
      <trkpt lat="51.367881959304214" lon="14.937371034175158">
        <ele>156.34999999999999</ele>
        <time>2024-09-18T08:44:16Z</time>
      </trkpt>
      <trkpt lat="51.365377027541399" lon="14.938951022922993">
        <ele>157.31</ele>
        <time>2024-09-18T08:44:27Z</time>
      </trkpt>
      <trkpt lat="51.364428028464317" lon="14.93974001146853">
        <ele>157.78999999999999</ele>
        <time>2024-09-18T08:44:33Z</time>
      </trkpt>
      <trkpt lat="51.363583970814943" lon="14.940478038042784">
        <ele>156.83000000000001</ele>
        <time>2024-09-18T08:44:41Z</time>
      </trkpt>
      <trkpt lat="51.363485986366868" lon="14.940571999177337">
        <ele>156.34999999999999</ele>
        <time>2024-09-18T08:44:42Z</time>
      </trkpt>
      <trkpt lat="51.36284502223134" lon="14.941085977479815">
        <ele>154.91</ele>
        <time>2024-09-18T08:44:48Z</time>
      </trkpt>
      <trkpt lat="51.362730022519827" lon="14.94113702327013">
        <ele>154.43000000000001</ele>
        <time>2024-09-18T08:44:49Z</time>
      </trkpt>
      <trkpt lat="51.362616028636694" lon="14.941187985241413">
        <ele>154.43000000000001</ele>
        <time>2024-09-18T08:44:50Z</time>
      </trkpt>
      <trkpt lat="51.362377982586622" lon="14.941170969977975">
        <ele>154.43000000000001</ele>
        <time>2024-09-18T08:44:52Z</time>
      </trkpt>
      <trkpt lat="51.362258959561586" lon="14.941160995513201">
        <ele>154.43000000000001</ele>
        <time>2024-09-18T08:44:53Z</time>
      </trkpt>
      <trkpt lat="51.362139014527202" lon="14.941150015220046">
        <ele>154.43000000000001</ele>
        <time>2024-09-18T08:44:54Z</time>
      </trkpt>
      <trkpt lat="51.361777000129223" lon="14.941117996349931">
        <ele>154.43000000000001</ele>
        <time>2024-09-18T08:44:57Z</time>
      </trkpt>
      <trkpt lat="51.361656971275806" lon="14.941107016056776">
        <ele>153.94999999999999</ele>
        <time>2024-09-18T08:44:58Z</time>
      </trkpt>
      <trkpt lat="51.361537026241422" lon="14.94113601744175">
        <ele>153.94999999999999</ele>
        <time>2024-09-18T08:44:59Z</time>
      </trkpt>
      <trkpt lat="51.361419009044766" lon="14.941168958321214">
        <ele>153.94999999999999</ele>
        <time>2024-09-18T08:45:00Z</time>
      </trkpt>
      <trkpt lat="51.361299986019731" lon="14.94120198301971">
        <ele>153.94999999999999</ele>
        <time>2024-09-18T08:45:01Z</time>
      </trkpt>
      <trkpt lat="51.360114030539989" lon="14.941356964409351">
        <ele>155.38999999999999</ele>
        <time>2024-09-18T08:45:11Z</time>
      </trkpt>
      <trkpt lat="51.359998025000095" lon="14.941392000764608">
        <ele>155.38999999999999</ele>
        <time>2024-09-18T08:45:12Z</time>
      </trkpt>
      <trkpt lat="51.359885958954692" lon="14.941446986049414">
        <ele>155.38999999999999</ele>
        <time>2024-09-18T08:45:13Z</time>
      </trkpt>
      <trkpt lat="51.359678003937006" lon="14.9416100140661">
        <ele>154.43000000000001</ele>
        <time>2024-09-18T08:45:15Z</time>
      </trkpt>
      <trkpt lat="51.359572978690267" lon="14.941699029877782">
        <ele>154.43000000000001</ele>
        <time>2024-09-18T08:45:16Z</time>
      </trkpt>
      <trkpt lat="51.359467031434178" lon="14.941790979355574">
        <ele>153.94999999999999</ele>
        <time>2024-09-18T08:45:17Z</time>
      </trkpt>
      <trkpt lat="51.358953975141048" lon="14.942281991243362">
        <ele>152.50999999999999</ele>
        <time>2024-09-18T08:45:22Z</time>
      </trkpt>
      <trkpt lat="51.358738979324698" lon="14.942434038966894">
        <ele>152.03</ele>
        <time>2024-09-18T08:45:24Z</time>
      </trkpt>
      <trkpt lat="51.358620962128043" lon="14.942485000938177">
        <ele>152.03</ele>
        <time>2024-09-18T08:45:25Z</time>
      </trkpt>
      <trkpt lat="51.358502022922039" lon="14.942536968737841">
        <ele>152.03</ele>
        <time>2024-09-18T08:45:26Z</time>
      </trkpt>
      <trkpt lat="51.358382999897003" lon="14.942588014528155">
        <ele>152.50999999999999</ele>
        <time>2024-09-18T08:45:27Z</time>
      </trkpt>
      <trkpt lat="51.358260037377477" lon="14.942617015913129">
        <ele>152.50999999999999</ele>
        <time>2024-09-18T08:45:28Z</time>
      </trkpt>
      <trkpt lat="51.356802005320787" lon="14.942572005093098">
        <ele>151.53999999999999</ele>
        <time>2024-09-18T08:45:40Z</time>
      </trkpt>
      <trkpt lat="51.356561025604606" lon="14.942546021193266">
        <ele>151.53999999999999</ele>
        <time>2024-09-18T08:45:42Z</time>
      </trkpt>
      <trkpt lat="51.35644300840795" lon="14.94253302924335">
        <ele>151.53999999999999</ele>
        <time>2024-09-18T08:45:43Z</time>
      </trkpt>
      <trkpt lat="51.355723002925515" lon="14.942478965967894">
        <ele>152.03</ele>
        <time>2024-09-18T08:45:49Z</time>
      </trkpt>
      <trkpt lat="51.355600962415338" lon="14.942478965967894">
        <ele>152.50999999999999</ele>
        <time>2024-09-18T08:45:50Z</time>
      </trkpt>
      <trkpt lat="51.355005009099841" lon="14.942549038678408">
        <ele>152.50999999999999</ele>
        <time>2024-09-18T08:45:55Z</time>
      </trkpt>
      <trkpt lat="51.354885986074805" lon="14.942579967901111">
        <ele>152.50999999999999</ele>
        <time>2024-09-18T08:45:56Z</time>
      </trkpt>
      <trkpt lat="51.354780960828066" lon="14.942658003419638">
        <ele>152.99000000000001</ele>
        <time>2024-09-18T08:45:57Z</time>
      </trkpt>
      <trkpt lat="51.354677025228739" lon="14.942750036716461">
        <ele>152.99000000000001</ele>
        <time>2024-09-18T08:45:58Z</time>
      </trkpt>
      <trkpt lat="51.354584991931915" lon="14.942862018942833">
        <ele>152.99000000000001</ele>
        <time>2024-09-18T08:45:59Z</time>
      </trkpt>
      <trkpt lat="51.354490024968982" lon="14.942980036139488">
        <ele>152.99000000000001</ele>
        <time>2024-09-18T08:46:00Z</time>
      </trkpt>
      <trkpt lat="51.353360982611775" lon="14.944384004920721">
        <ele>152.99000000000001</ele>
        <time>2024-09-18T08:46:10Z</time>
      </trkpt>
      <trkpt lat="51.351756015792489" lon="14.946114029735327">
        <ele>153.47</ele>
        <time>2024-09-18T08:46:20Z</time>
      </trkpt>
      <trkpt lat="51.349198026582599" lon="14.948971001431346">
        <ele>155.87</ele>
        <time>2024-09-18T08:46:34Z</time>
      </trkpt>
      <trkpt lat="51.348845986649394" lon="14.949438963085413">
        <ele>155.87</ele>
        <time>2024-09-18T08:46:36Z</time>
      </trkpt>
      <trkpt lat="51.34868698194623" lon="14.949698969721794">
        <ele>155.87</ele>
        <time>2024-09-18T08:46:37Z</time>
      </trkpt>
      <trkpt lat="51.347356019541621" lon="14.952616961672902">
        <ele>155.87</ele>
        <time>2024-09-18T08:46:47Z</time>
      </trkpt>
      <trkpt lat="51.346880011260509" lon="14.953809035941958">
        <ele>155.87</ele>
        <time>2024-09-18T08:46:51Z</time>
      </trkpt>
      <trkpt lat="51.346718994900584" lon="14.954044986516237">
        <ele>156.34999999999999</ele>
        <time>2024-09-18T08:46:52Z</time>
      </trkpt>
      <trkpt lat="51.344537017866969" lon="14.956945041194558">
        <ele>157.31</ele>
        <time>2024-09-18T08:47:05Z</time>
      </trkpt>
      <trkpt lat="51.342696016654372" lon="14.95882099494338">
        <ele>158.27000000000001</ele>
        <time>2024-09-18T08:47:15Z</time>
      </trkpt>
      <trkpt lat="51.341582983732224" lon="14.960062019526958">
        <ele>158.27000000000001</ele>
        <time>2024-09-18T08:47:23Z</time>
      </trkpt>
      <trkpt lat="51.340849986299872" lon="14.960911022499204">
        <ele>159.24000000000001</ele>
        <time>2024-09-18T08:47:31Z</time>
      </trkpt>
      <trkpt lat="51.340508004650474" lon="14.961339002475142">
        <ele>159.24000000000001</ele>
        <time>2024-09-18T08:47:36Z</time>
      </trkpt>
      <trkpt lat="51.340446984395385" lon="14.961445033550262">
        <ele>159.24000000000001</ele>
        <time>2024-09-18T08:47:37Z</time>
      </trkpt>
      <trkpt lat="51.340410020202398" lon="14.961564978584647">
        <ele>159.24000000000001</ele>
        <time>2024-09-18T08:47:38Z</time>
      </trkpt>
      <trkpt lat="51.34039300493896" lon="14.961690958589315">
        <ele>159.24000000000001</ele>
        <time>2024-09-18T08:47:39Z</time>
      </trkpt>
      <trkpt lat="51.340379007160664" lon="14.96180796995759">
        <ele>159.24000000000001</ele>
        <time>2024-09-18T08:47:40Z</time>
      </trkpt>
      <trkpt lat="51.340365009382367" lon="14.961921963840723">
        <ele>159.24000000000001</ele>
        <time>2024-09-18T08:47:41Z</time>
      </trkpt>
      <trkpt lat="51.340351011604071" lon="14.962040986865759">
        <ele>158.75</ele>
        <time>2024-09-18T08:47:42Z</time>
      </trkpt>
      <trkpt lat="51.340306000784039" lon="14.962404007092118">
        <ele>158.75</ele>
        <time>2024-09-18T08:47:45Z</time>
      </trkpt>
      <trkpt lat="51.340292003005743" lon="14.962521018460393">
        <ele>158.75</ele>
        <time>2024-09-18T08:47:46Z</time>
      </trkpt>
      <trkpt lat="51.340275993570685" lon="14.962630989030004">
        <ele>158.75</ele>
        <time>2024-09-18T08:47:47Z</time>
      </trkpt>
      <trkpt lat="51.340255960822105" lon="14.962714975699782">
        <ele>158.75</ele>
        <time>2024-09-18T08:47:48Z</time>
      </trkpt>
      <trkpt lat="51.340232994407415" lon="14.962783036753535">
        <ele>158.75</ele>
        <time>2024-09-18T08:47:49Z</time>
      </trkpt>
      <trkpt lat="51.340192006900907" lon="14.962905999273062">
        <ele>158.75</ele>
        <time>2024-09-18T08:47:51Z</time>
      </trkpt>
      <trkpt lat="51.340142972767353" lon="14.962996020913124">
        <ele>158.75</ele>
        <time>2024-09-18T08:47:52Z</time>
      </trkpt>
      <trkpt lat="51.340035013854504" lon="14.963013958185911">
        <ele>158.75</ele>
        <time>2024-09-18T08:47:53Z</time>
      </trkpt>
      <trkpt lat="51.340012969449162" lon="14.96303197927773">
        <ele>158.75</ele>
        <time>2024-09-18T08:47:54Z</time>
      </trkpt>
      <trkpt lat="51.339943986386061" lon="14.963090987876058">
        <ele>159.24000000000001</ele>
        <time>2024-09-18T08:47:55Z</time>
      </trkpt>
      <trkpt lat="51.339866034686565" lon="14.963156031444669">
        <ele>159.72</ele>
        <time>2024-09-18T08:47:56Z</time>
      </trkpt>
      <trkpt lat="51.339784981682897" lon="14.963225014507771">
        <ele>159.72</ele>
        <time>2024-09-18T08:47:57Z</time>
      </trkpt>
      <trkpt lat="51.339700995013118" lon="14.963296009227633">
        <ele>160.19999999999999</ele>
        <time>2024-09-18T08:47:58Z</time>
      </trkpt>
      <trkpt lat="51.338561978191137" lon="14.96434299275279">
        <ele>161.16</ele>
        <time>2024-09-18T08:48:09Z</time>
      </trkpt>
      <trkpt lat="51.337738959118724" lon="14.964975994080305">
        <ele>161.16</ele>
        <time>2024-09-18T08:48:17Z</time>
      </trkpt>
      <trkpt lat="51.33714996278286" lon="14.965473040938377">
        <ele>160.19999999999999</ele>
        <time>2024-09-18T08:48:26Z</time>
      </trkpt>
      <trkpt lat="51.336971009150147" lon="14.965635985136032">
        <ele>160.68000000000001</ele>
        <time>2024-09-18T08:48:29Z</time>
      </trkpt>
      <trkpt lat="51.336533976718783" lon="14.966309973970056">
        <ele>161.63999999999999</ele>
        <time>2024-09-18T08:48:38Z</time>
      </trkpt>
      <trkpt lat="51.336363991722465" lon="14.966540979221463">
        <ele>161.63999999999999</ele>
        <time>2024-09-18T08:48:41Z</time>
      </trkpt>
      <trkpt lat="51.336300037801266" lon="14.966613985598087">
        <ele>161.63999999999999</ele>
        <time>2024-09-18T08:48:42Z</time>
      </trkpt>
      <trkpt lat="51.336228037253022" lon="14.966668970882893">
        <ele>161.63999999999999</ele>
        <time>2024-09-18T08:48:43Z</time>
      </trkpt>
      <trkpt lat="51.336156036704779" lon="14.966723034158349">
        <ele>161.63999999999999</ele>
        <time>2024-09-18T08:48:44Z</time>
      </trkpt>
      <trkpt lat="51.336065009236336" lon="14.96679101139307">
        <ele>161.63999999999999</ele>
        <time>2024-09-18T08:48:45Z</time>
      </trkpt>
      <trkpt lat="51.33558196015656" lon="14.966972982510924">
        <ele>162.12</ele>
        <time>2024-09-18T08:48:51Z</time>
      </trkpt>
      <trkpt lat="51.335503002628684" lon="14.967009024694562">
        <ele>162.12</ele>
        <time>2024-09-18T08:48:52Z</time>
      </trkpt>
      <trkpt lat="51.334619969129562" lon="14.967569019645452">
        <ele>162.12</ele>
        <time>2024-09-18T08:49:03Z</time>
      </trkpt>
      <trkpt lat="51.333816982805729" lon="14.967920975759625">
        <ele>161.63999999999999</ele>
        <time>2024-09-18T08:49:13Z</time>
      </trkpt>
      <trkpt lat="51.333737019449472" lon="14.967969004064798">
        <ele>161.63999999999999</ele>
        <time>2024-09-18T08:49:14Z</time>
      </trkpt>
      <trkpt lat="51.333655966445804" lon="14.968017032369971">
        <ele>161.63999999999999</ele>
        <time>2024-09-18T08:49:15Z</time>
      </trkpt>
      <trkpt lat="51.33323703892529" lon="14.968267986550927">
        <ele>162.59999999999999</ele>
        <time>2024-09-18T08:49:20Z</time>
      </trkpt>
      <trkpt lat="51.333168977871537" lon="14.968362031504512">
        <ele>162.59999999999999</ele>
        <time>2024-09-18T08:49:21Z</time>
      </trkpt>
      <trkpt lat="51.333104018121958" lon="14.968455992639065">
        <ele>162.59999999999999</ele>
        <time>2024-09-18T08:49:22Z</time>
      </trkpt>
      <trkpt lat="51.332708979025483" lon="14.969255961477757">
        <ele>162.12</ele>
        <time>2024-09-18T08:49:29Z</time>
      </trkpt>
      <trkpt lat="51.33263697847724" lon="14.969361992552876">
        <ele>162.12</ele>
        <time>2024-09-18T08:49:30Z</time>
      </trkpt>
      <trkpt lat="51.332379989326" lon="14.969641026109457">
        <ele>162.12</ele>
        <time>2024-09-18T08:49:33Z</time>
      </trkpt>
      <trkpt lat="51.332204975187778" lon="14.969831965863705">
        <ele>162.12</ele>
        <time>2024-09-18T08:49:35Z</time>
      </trkpt>
      <trkpt lat="51.332116965204477" lon="14.969915030524135">
        <ele>162.12</ele>
        <time>2024-09-18T08:49:36Z</time>
      </trkpt>
      <trkpt lat="51.33164799772203" lon="14.970193980261683">
        <ele>160.68000000000001</ele>
        <time>2024-09-18T08:49:41Z</time>
      </trkpt>
      <trkpt lat="51.331550013273954" lon="14.970241002738476">
        <ele>160.19999999999999</ele>
        <time>2024-09-18T08:49:42Z</time>
      </trkpt>
      <trkpt lat="51.331445993855596" lon="14.970290036872029">
        <ele>160.19999999999999</ele>
        <time>2024-09-18T08:49:43Z</time>
      </trkpt>
      <trkpt lat="51.33020899258554" lon="14.970796974375844">
        <ele>159.24000000000001</ele>
        <time>2024-09-18T08:49:54Z</time>
      </trkpt>
      <trkpt lat="51.329883020371199" lon="14.971026973798871">
        <ele>158.75</ele>
        <time>2024-09-18T08:49:57Z</time>
      </trkpt>
      <trkpt lat="51.329776989296079" lon="14.97110903263092">
        <ele>158.75</ele>
        <time>2024-09-18T08:49:58Z</time>
      </trkpt>
      <trkpt lat="51.3296930026263" lon="14.971245992928743">
        <ele>158.75</ele>
        <time>2024-09-18T08:49:59Z</time>
      </trkpt>
      <trkpt lat="51.329614967107773" lon="14.971393011510372">
        <ele>158.75</ele>
        <time>2024-09-18T08:50:00Z</time>
      </trkpt>
      <trkpt lat="51.329537015408278" lon="14.971541035920382">
        <ele>158.27000000000001</ele>
        <time>2024-09-18T08:50:01Z</time>
      </trkpt>
      <trkpt lat="51.329127978533506" lon="14.97222600504756">
        <ele>157.78999999999999</ele>
        <time>2024-09-18T08:50:06Z</time>
      </trkpt>
      <trkpt lat="51.329029994085431" lon="14.972322983667254">
        <ele>157.78999999999999</ele>
        <time>2024-09-18T08:50:07Z</time>
      </trkpt>
      <trkpt lat="51.328813992440701" lon="14.972452986985445">
        <ele>157.31</ele>
        <time>2024-09-18T08:50:09Z</time>
      </trkpt>
      <trkpt lat="51.327384039759636" lon="14.973234012722969">
        <ele>155.38999999999999</ele>
        <time>2024-09-18T08:50:20Z</time>
      </trkpt>
      <trkpt lat="51.325553013011813" lon="14.974228022620082">
        <ele>153.94999999999999</ele>
        <time>2024-09-18T08:50:32Z</time>
      </trkpt>
      <trkpt lat="51.32374101318419" lon="14.975194036960602">
        <ele>154.91</ele>
        <time>2024-09-18T08:50:41Z</time>
      </trkpt>
      <trkpt lat="51.32271003909409" lon="14.975825026631355">
        <ele>155.38999999999999</ele>
        <time>2024-09-18T08:50:46Z</time>
      </trkpt>
      <trkpt lat="51.322567965835333" lon="14.975996017456055">
        <ele>155.38999999999999</ele>
        <time>2024-09-18T08:50:47Z</time>
      </trkpt>
      <trkpt lat="51.322466963902116" lon="14.976229034364223">
        <ele>155.87</ele>
        <time>2024-09-18T08:50:48Z</time>
      </trkpt>
      <trkpt lat="51.322364034131169" lon="14.976466996595263">
        <ele>155.87</ele>
        <time>2024-09-18T08:50:49Z</time>
      </trkpt>
      <trkpt lat="51.322260014712811" lon="14.976705964654684">
        <ele>155.87</ele>
        <time>2024-09-18T08:50:50Z</time>
      </trkpt>
      <trkpt lat="51.321276985108852" lon="14.978813007473946">
        <ele>155.87</ele>
        <time>2024-09-18T08:50:59Z</time>
      </trkpt>
      <trkpt lat="51.32112099789083" lon="14.979009982198477">
        <ele>155.87</ele>
        <time>2024-09-18T08:51:00Z</time>
      </trkpt>
      <trkpt lat="51.319455010816455" lon="14.980613021180034">
        <ele>154.91</ele>
        <time>2024-09-18T08:51:09Z</time>
      </trkpt>
      <trkpt lat="51.317825987935066" lon="14.982541026547551">
        <ele>157.31</ele>
        <time>2024-09-18T08:51:18Z</time>
      </trkpt>
      <trkpt lat="51.317697996273637" lon="14.982814025133848">
        <ele>157.78999999999999</ele>
        <time>2024-09-18T08:51:19Z</time>
      </trkpt>
      <trkpt lat="51.317568998783827" lon="14.983089035376906">
        <ele>158.27000000000001</ele>
        <time>2024-09-18T08:51:20Z</time>
      </trkpt>
      <trkpt lat="51.316887969151139" lon="14.985328009352088">
        <ele>160.19999999999999</ele>
        <time>2024-09-18T08:51:27Z</time>
      </trkpt>
      <trkpt lat="51.316838013008237" lon="14.985662028193474">
        <ele>160.68000000000001</ele>
        <time>2024-09-18T08:51:28Z</time>
      </trkpt>
      <trkpt lat="51.316795013844967" lon="14.986013984307647">
        <ele>160.68000000000001</ele>
        <time>2024-09-18T08:51:29Z</time>
      </trkpt>
      <trkpt lat="51.31671697832644" lon="14.988525034859776">
        <ele>161.16</ele>
        <time>2024-09-18T08:51:36Z</time>
      </trkpt>
      <trkpt lat="51.316659981384873" lon="14.98883499763906">
        <ele>160.68000000000001</ele>
        <time>2024-09-18T08:51:37Z</time>
      </trkpt>
      <trkpt lat="51.316584963351488" lon="14.98913599178195">
        <ele>160.68000000000001</ele>
        <time>2024-09-18T08:51:38Z</time>
      </trkpt>
      <trkpt lat="51.316143991425633" lon="14.990418003872037">
        <ele>160.19999999999999</ele>
        <time>2024-09-18T08:51:43Z</time>
      </trkpt>
      <trkpt lat="51.316043995320797" lon="14.990625958889723">
        <ele>160.19999999999999</ele>
        <time>2024-09-18T08:51:44Z</time>
      </trkpt>
      <trkpt lat="51.315939975902438" lon="14.990827962756157">
        <ele>160.19999999999999</ele>
        <time>2024-09-18T08:51:45Z</time>
      </trkpt>
      <trkpt lat="51.315820030868053" lon="14.990991996601224">
        <ele>160.19999999999999</ele>
        <time>2024-09-18T08:51:46Z</time>
      </trkpt>
      <trkpt lat="51.31570503115654" lon="14.991149995476007">
        <ele>160.19999999999999</ele>
        <time>2024-09-18T08:51:47Z</time>
      </trkpt>
      <trkpt lat="51.315085021778941" lon="14.991965973749757">
        <ele>161.63999999999999</ele>
        <time>2024-09-18T08:51:54Z</time>
      </trkpt>
      <trkpt lat="51.31439502350986" lon="14.99285495840013">
        <ele>162.59999999999999</ele>
        <time>2024-09-18T08:52:05Z</time>
      </trkpt>
      <trkpt lat="51.314336014911532" lon="14.992936011403799">
        <ele>162.59999999999999</ele>
        <time>2024-09-18T08:52:06Z</time>
      </trkpt>
      <trkpt lat="51.313482988625765" lon="14.994235038757324">
        <ele>164.03999999999999</ele>
        <time>2024-09-18T08:52:21Z</time>
      </trkpt>
      <trkpt lat="51.313319960609078" lon="14.994507031515241">
        <ele>164.03999999999999</ele>
        <time>2024-09-18T08:52:24Z</time>
      </trkpt>
      <trkpt lat="51.313243014737964" lon="14.994724960997701">
        <ele>164.52000000000001</ele>
        <time>2024-09-18T08:52:26Z</time>
      </trkpt>
      <trkpt lat="51.312920982018113" lon="14.995986018329859">
        <ele>163.08000000000001</ele>
        <time>2024-09-18T08:52:36Z</time>
      </trkpt>
      <trkpt lat="51.312858033925295" lon="14.996113004162908">
        <ele>163.08000000000001</ele>
        <time>2024-09-18T08:52:37Z</time>
      </trkpt>
      <trkpt lat="51.312788967043161" lon="14.996235966682434">
        <ele>163.08000000000001</ele>
        <time>2024-09-18T08:52:38Z</time>
      </trkpt>
      <trkpt lat="51.312318993732333" lon="14.997076001018286">
        <ele>163.56</ele>
        <time>2024-09-18T08:52:44Z</time>
      </trkpt>
      <trkpt lat="51.312279012054205" lon="14.997249003499746">
        <ele>164.03999999999999</ele>
        <time>2024-09-18T08:52:45Z</time>
      </trkpt>
      <trkpt lat="51.312240958213806" lon="14.997432986274362">
        <ele>164.03999999999999</ele>
        <time>2024-09-18T08:52:46Z</time>
      </trkpt>
      <trkpt lat="51.31203300319612" lon="14.998342003673315">
        <ele>163.56</ele>
        <time>2024-09-18T08:52:51Z</time>
      </trkpt>
      <trkpt lat="51.311979023739696" lon="14.998511988669634">
        <ele>164.03999999999999</ele>
        <time>2024-09-18T08:52:52Z</time>
      </trkpt>
      <trkpt lat="51.311264969408512" lon="15.000060964375734">
        <ele>163.08000000000001</ele>
        <time>2024-09-18T08:53:02Z</time>
      </trkpt>
      <trkpt lat="51.311162039637566" lon="15.000161966308951">
        <ele>163.08000000000001</ele>
        <time>2024-09-18T08:53:03Z</time>
      </trkpt>
      <trkpt lat="51.311059026047587" lon="15.000257017090917">
        <ele>163.08000000000001</ele>
        <time>2024-09-18T08:53:04Z</time>
      </trkpt>
      <trkpt lat="51.310951989144087" lon="15.000348966568708">
        <ele>163.56</ele>
        <time>2024-09-18T08:53:05Z</time>
      </trkpt>
      <trkpt lat="51.310839001089334" lon="15.000425996258855">
        <ele>163.56</ele>
        <time>2024-09-18T08:53:06Z</time>
      </trkpt>
      <trkpt lat="51.310311025008559" lon="15.00086504034698">
        <ele>162.59999999999999</ele>
        <time>2024-09-18T08:53:11Z</time>
      </trkpt>
      <trkpt lat="51.309225987643003" lon="15.002018976956606">
        <ele>163.56</ele>
        <time>2024-09-18T08:53:22Z</time>
      </trkpt>
      <trkpt lat="51.308076996356249" lon="15.002927994355559">
        <ele>165</ele>
        <time>2024-09-18T08:53:31Z</time>
      </trkpt>
      <trkpt lat="51.306457025930285" lon="15.003956034779549">
        <ele>165.96000000000001</ele>
        <time>2024-09-18T08:53:40Z</time>
      </trkpt>
      <trkpt lat="51.305140983313322" lon="15.00443497672677">
        <ele>169.81</ele>
        <time>2024-09-18T08:53:47Z</time>
      </trkpt>
      <trkpt lat="51.304991031065583" lon="15.00454100780189">
        <ele>169.81</ele>
        <time>2024-09-18T08:53:48Z</time>
      </trkpt>
      <trkpt lat="51.30483697168529" lon="15.00466899946332">
        <ele>170.28999999999999</ele>
        <time>2024-09-18T08:53:49Z</time>
      </trkpt>
      <trkpt lat="51.304687019437551" lon="15.004807971417904">
        <ele>170.28999999999999</ele>
        <time>2024-09-18T08:53:50Z</time>
      </trkpt>
      <trkpt lat="51.304542012512684" lon="15.004995977506042">
        <ele>170.28999999999999</ele>
        <time>2024-09-18T08:53:51Z</time>
      </trkpt>
      <trkpt lat="51.3031389657408" lon="15.006916020065546">
        <ele>172.21000000000001</ele>
        <time>2024-09-18T08:54:00Z</time>
      </trkpt>
      <trkpt lat="51.301797023043036" lon="15.009225988760591">
        <ele>174.13999999999999</ele>
        <time>2024-09-18T08:54:09Z</time>
      </trkpt>
      <trkpt lat="51.300635039806366" lon="15.011040000244975">
        <ele>174.13999999999999</ele>
        <time>2024-09-18T08:54:17Z</time>
      </trkpt>
      <trkpt lat="51.300509981811047" lon="15.011164974421263">
        <ele>174.13999999999999</ele>
        <time>2024-09-18T08:54:18Z</time>
      </trkpt>
      <trkpt lat="51.30036598071456" lon="15.011206967756152">
        <ele>174.13999999999999</ele>
        <time>2024-09-18T08:54:19Z</time>
      </trkpt>
      <trkpt lat="51.300216028466821" lon="15.011250972747803">
        <ele>174.62</ele>
        <time>2024-09-18T08:54:20Z</time>
      </trkpt>
      <trkpt lat="51.300049982964993" lon="15.011273017153144">
        <ele>175.09999999999999</ele>
        <time>2024-09-18T08:54:21Z</time>
      </trkpt>
      <trkpt lat="51.299090003594756" lon="15.011098003014922">
        <ele>175.58000000000001</ele>
        <time>2024-09-18T08:54:27Z</time>
      </trkpt>
      <trkpt lat="51.29894801415503" lon="15.011063972488046">
        <ele>176.06</ele>
        <time>2024-09-18T08:54:28Z</time>
      </trkpt>
      <trkpt lat="51.29879797808826" lon="15.011103032156825">
        <ele>176.06</ele>
        <time>2024-09-18T08:54:29Z</time>
      </trkpt>
      <trkpt lat="51.29864702001214" lon="15.01115701161325">
        <ele>176.06</ele>
        <time>2024-09-18T08:54:30Z</time>
      </trkpt>
      <trkpt lat="51.298493966460228" lon="15.011213002726436">
        <ele>176.53999999999999</ele>
        <time>2024-09-18T08:54:31Z</time>
      </trkpt>
      <trkpt lat="51.298342002555728" lon="15.011267988011241">
        <ele>176.53999999999999</ele>
        <time>2024-09-18T08:54:32Z</time>
      </trkpt>
      <trkpt lat="51.29720801487565" lon="15.011708037927747">
        <ele>175.09999999999999</ele>
        <time>2024-09-18T08:54:41Z</time>
      </trkpt>
      <trkpt lat="51.296518016606569" lon="15.012067034840584">
        <ele>174.62</ele>
        <time>2024-09-18T08:54:47Z</time>
      </trkpt>
      <trkpt lat="51.296417014673352" lon="15.012168036773801">
        <ele>174.13999999999999</ele>
        <time>2024-09-18T08:54:48Z</time>
      </trkpt>
      <trkpt lat="51.296323975548148" lon="15.012277001515031">
        <ele>174.62</ele>
        <time>2024-09-18T08:54:49Z</time>
      </trkpt>
      <trkpt lat="51.296242000535131" lon="15.012418990954757">
        <ele>174.62</ele>
        <time>2024-09-18T08:54:50Z</time>
      </trkpt>
      <trkpt lat="51.296160025522113" lon="15.012560980394483">
        <ele>174.62</ele>
        <time>2024-09-18T08:54:51Z</time>
      </trkpt>
      <trkpt lat="51.296093976125121" lon="15.012714033946395">
        <ele>175.09999999999999</ele>
        <time>2024-09-18T08:54:52Z</time>
      </trkpt>
      <trkpt lat="51.296049971133471" lon="15.012893993407488">
        <ele>175.09999999999999</ele>
        <time>2024-09-18T08:54:53Z</time>
      </trkpt>
      <trkpt lat="51.29600596614182" lon="15.013075964525342">
        <ele>175.58000000000001</ele>
        <time>2024-09-18T08:54:54Z</time>
      </trkpt>
      <trkpt lat="51.295961961150169" lon="15.013257013633847">
        <ele>175.58000000000001</ele>
        <time>2024-09-18T08:54:55Z</time>
      </trkpt>
      <trkpt lat="51.295918039977551" lon="15.013439990580082">
        <ele>175.58000000000001</ele>
        <time>2024-09-18T08:54:56Z</time>
      </trkpt>
      <trkpt lat="51.295914016664028" lon="15.013631014153361">
        <ele>176.06</ele>
        <time>2024-09-18T08:54:57Z</time>
      </trkpt>
      <trkpt lat="51.295909993350506" lon="15.01382295973599">
        <ele>176.06</ele>
        <time>2024-09-18T08:54:58Z</time>
      </trkpt>
      <trkpt lat="51.295729028061032" lon="15.016284976154566">
        <ele>177.5</ele>
        <time>2024-09-18T08:55:11Z</time>
      </trkpt>
      <trkpt lat="51.295675970613956" lon="15.016448004171252">
        <ele>177.5</ele>
        <time>2024-09-18T08:55:12Z</time>
      </trkpt>
      <trkpt lat="51.294833002611995" lon="15.018568960949779">
        <ele>177.97999999999999</ele>
        <time>2024-09-18T08:55:25Z</time>
      </trkpt>
      <trkpt lat="51.294186003506184" lon="15.019670007750392">
        <ele>178.46000000000001</ele>
        <time>2024-09-18T08:55:33Z</time>
      </trkpt>
      <trkpt lat="51.293299030512571" lon="15.020921006798744">
        <ele>177.5</ele>
        <time>2024-09-18T08:55:43Z</time>
      </trkpt>
      <trkpt lat="51.293213032186031" lon="15.021045980975032">
        <ele>177.5</ele>
        <time>2024-09-18T08:55:44Z</time>
      </trkpt>
      <trkpt lat="51.29312502220273" lon="15.021172966808081">
        <ele>177.02000000000001</ele>
        <time>2024-09-18T08:55:45Z</time>
      </trkpt>
      <trkpt lat="51.292190020903945" lon="15.022486997768283">
        <ele>175.09999999999999</ele>
        <time>2024-09-18T08:55:54Z</time>
      </trkpt>
      <trkpt lat="51.292064962908626" lon="15.022612977772951">
        <ele>175.09999999999999</ele>
        <time>2024-09-18T08:55:55Z</time>
      </trkpt>
      <trkpt lat="51.291930014267564" lon="15.022695036605">
        <ele>175.09999999999999</ele>
        <time>2024-09-18T08:55:56Z</time>
      </trkpt>
      <trkpt lat="51.291790958493948" lon="15.022778017446399">
        <ele>174.62</ele>
        <time>2024-09-18T08:55:57Z</time>
      </trkpt>
      <trkpt lat="51.291508991271257" lon="15.022929981350899">
        <ele>175.09999999999999</ele>
        <time>2024-09-18T08:55:59Z</time>
      </trkpt>
      <trkpt lat="51.290469970554113" lon="15.023315967991948">
        <ele>175.58000000000001</ele>
        <time>2024-09-18T08:56:06Z</time>
      </trkpt>
      <trkpt lat="51.29031197167933" lon="15.023374976590276">
        <ele>175.58000000000001</ele>
        <time>2024-09-18T08:56:07Z</time>
      </trkpt>
      <trkpt lat="51.288667023181915" lon="15.023947041481733">
        <ele>173.16999999999999</ele>
        <time>2024-09-18T08:56:16Z</time>
      </trkpt>
      <trkpt lat="51.2872379925102" lon="15.023908987641335">
        <ele>172.69</ele>
        <time>2024-09-18T08:56:23Z</time>
      </trkpt>
      <trkpt lat="51.285419035702944" lon="15.023766998201609">
        <ele>174.13999999999999</ele>
        <time>2024-09-18T08:56:32Z</time>
      </trkpt>
      <trkpt lat="51.283870982006192" lon="15.02462899312377">
        <ele>172.21000000000001</ele>
        <time>2024-09-18T08:56:40Z</time>
      </trkpt>
      <trkpt lat="51.281569981947541" lon="15.026329010725021">
        <ele>172.69</ele>
        <time>2024-09-18T08:56:53Z</time>
      </trkpt>
      <trkpt lat="51.280514029785991" lon="15.027151023969054">
        <ele>172.69</ele>
        <time>2024-09-18T08:57:01Z</time>
      </trkpt>
      <trkpt lat="51.280332980677485" lon="15.027254959568381">
        <ele>172.69</ele>
        <time>2024-09-18T08:57:03Z</time>
      </trkpt>
      <trkpt lat="51.279786983504891" lon="15.02800103276968">
        <ele>171.25</ele>
        <time>2024-09-18T08:57:14Z</time>
      </trkpt>
      <trkpt lat="51.279579028487206" lon="15.028286017477512">
        <ele>170.28999999999999</ele>
        <time>2024-09-18T08:57:18Z</time>
      </trkpt>
      <trkpt lat="51.279532006010413" lon="15.028348965570331">
        <ele>170.28999999999999</ele>
        <time>2024-09-18T08:57:19Z</time>
      </trkpt>
      <trkpt lat="51.278856005519629" lon="15.029368959367275">
        <ele>166.44999999999999</ele>
        <time>2024-09-18T08:57:32Z</time>
      </trkpt>
      <trkpt lat="51.278606979176402" lon="15.029814960435033">
        <ele>165.96000000000001</ele>
        <time>2024-09-18T08:57:38Z</time>
      </trkpt>
      <trkpt lat="51.278576971963048" lon="15.029869023710489">
        <ele>165.96000000000001</ele>
        <time>2024-09-18T08:57:39Z</time>
      </trkpt>
      <trkpt lat="51.278552999719977" lon="15.029972959309816">
        <ele>165.96000000000001</ele>
        <time>2024-09-18T08:57:40Z</time>
      </trkpt>
      <trkpt lat="51.278578983619809" lon="15.030026016756892">
        <ele>165.47999999999999</ele>
        <time>2024-09-18T08:57:41Z</time>
      </trkpt>
      <trkpt lat="51.27860102802515" lon="15.030070021748543">
        <ele>165</ele>
        <time>2024-09-18T08:57:42Z</time>
      </trkpt>
      <trkpt lat="51.278645033016801" lon="15.030133975669742">
        <ele>165</ele>
        <time>2024-09-18T08:57:43Z</time>
      </trkpt>
      <trkpt lat="51.278680991381407" lon="15.030187033116817">
        <ele>164.52000000000001</ele>
        <time>2024-09-18T08:57:44Z</time>
      </trkpt>
      <trkpt lat="51.278718039393425" lon="15.030242018401623">
        <ele>164.52000000000001</ele>
        <time>2024-09-18T08:57:45Z</time>
      </trkpt>
      <trkpt lat="51.278758021071553" lon="15.03030102699995">
        <ele>164.03999999999999</ele>
        <time>2024-09-18T08:57:46Z</time>
      </trkpt>
      <trkpt lat="51.278800014406443" lon="15.030362969264388">
        <ele>164.03999999999999</ele>
        <time>2024-09-18T08:57:47Z</time>
      </trkpt>
      <trkpt lat="51.278845025226474" lon="15.03043002448976">
        <ele>163.56</ele>
        <time>2024-09-18T08:57:48Z</time>
      </trkpt>
      <trkpt lat="51.278891041874886" lon="15.030496995896101">
        <ele>163.56</ele>
        <time>2024-09-18T08:57:49Z</time>
      </trkpt>
      <trkpt lat="51.278936974704266" lon="15.030564973130822">
        <ele>163.08000000000001</ele>
        <time>2024-09-18T08:57:50Z</time>
      </trkpt>
      <trkpt lat="51.279092039912939" lon="15.030764965340495">
        <ele>162.12</ele>
        <time>2024-09-18T08:57:53Z</time>
      </trkpt>
      <trkpt lat="51.279323967173696" lon="15.030940985307097">
        <ele>160.68000000000001</ele>
        <time>2024-09-18T08:57:57Z</time>
      </trkpt>
      <trkpt lat="51.279468974098563" lon="15.031051961705089">
        <ele>160.19999999999999</ele>
        <time>2024-09-18T08:58:00Z</time>
      </trkpt>
      <trkpt lat="51.279511973261833" lon="15.031083980575204">
        <ele>160.19999999999999</ele>
        <time>2024-09-18T08:58:01Z</time>
      </trkpt>
      <trkpt lat="51.279549021273851" lon="15.031111976131797">
        <ele>160.19999999999999</ele>
        <time>2024-09-18T08:58:02Z</time>
      </trkpt>
      <trkpt lat="51.279585985466838" lon="15.031152963638306">
        <ele>160.19999999999999</ele>
        <time>2024-09-18T08:58:03Z</time>
      </trkpt>
      <trkpt lat="51.279575005173683" lon="15.031199986115098">
        <ele>160.19999999999999</ele>
        <time>2024-09-18T08:58:04Z</time>
      </trkpt>
      <trkpt lat="51.279558995738626" lon="15.03126704134047">
        <ele>159.72</ele>
        <time>2024-09-18T08:58:05Z</time>
      </trkpt>
      <trkpt lat="51.279538040980697" lon="15.03135496750474">
        <ele>159.72</ele>
        <time>2024-09-18T08:58:06Z</time>
      </trkpt>
      <trkpt lat="51.279264036566019" lon="15.032506976276636">
        <ele>159.72</ele>
        <time>2024-09-18T08:58:18Z</time>
      </trkpt>
      <trkpt lat="51.279045017436147" lon="15.033579021692276">
        <ele>157.78999999999999</ele>
        <time>2024-09-18T08:58:30Z</time>
      </trkpt>
      <trkpt lat="51.27903001382947" lon="15.033653033897281">
        <ele>157.31</ele>
        <time>2024-09-18T08:58:31Z</time>
      </trkpt>
      <trkpt lat="51.278990032151341" lon="15.033672982826829">
        <ele>157.31</ele>
        <time>2024-09-18T08:58:32Z</time>
      </trkpt>
      <trkpt lat="51.278942003846169" lon="15.033697038888931">
        <ele>157.31</ele>
        <time>2024-09-18T08:58:33Z</time>
      </trkpt>
      <trkpt lat="51.278891963884234" lon="15.033722016960382">
        <ele>156.83000000000001</ele>
        <time>2024-09-18T08:58:34Z</time>
      </trkpt>
      <trkpt lat="51.2788160238415" lon="15.03375998698175">
        <ele>156.83000000000001</ele>
        <time>2024-09-18T08:58:35Z</time>
      </trkpt>
      <trkpt lat="51.278800014406443" lon="15.033758981153369">
        <ele>156.83000000000001</ele>
        <time>2024-09-18T08:58:36Z</time>
      </trkpt>
      <trkpt lat="51.278093000873923" lon="15.033811032772064">
        <ele>156.83000000000001</ele>
        <time>2024-09-18T08:58:48Z</time>
      </trkpt>
      <trkpt lat="51.278042960911989" lon="15.033818995580077">
        <ele>156.83000000000001</ele>
        <time>2024-09-18T08:58:49Z</time>
      </trkpt>
      <trkpt lat="51.277989987283945" lon="15.03382695838809">
        <ele>156.83000000000001</ele>
        <time>2024-09-18T08:58:50Z</time>
      </trkpt>
      <trkpt lat="51.277706008404493" lon="15.033884961158037">
        <ele>158.27000000000001</ele>
        <time>2024-09-18T08:58:56Z</time>
      </trkpt>
      <trkpt lat="51.277659991756082" lon="15.033904993906617">
        <ele>158.27000000000001</ele>
        <time>2024-09-18T08:58:57Z</time>
      </trkpt>
      <trkpt lat="51.277612969279289" lon="15.033927038311958">
        <ele>158.27000000000001</ele>
        <time>2024-09-18T08:58:58Z</time>
      </trkpt>
      <trkpt lat="51.277566030621529" lon="15.033948998898268">
        <ele>158.27000000000001</ele>
        <time>2024-09-18T08:58:59Z</time>
      </trkpt>
      <trkpt lat="51.277515990659595" lon="15.033970959484577">
        <ele>158.75</ele>
        <time>2024-09-18T08:59:00Z</time>
      </trkpt>
      <trkpt lat="51.277469974011183" lon="15.033993003889918">
        <ele>158.75</ele>
        <time>2024-09-18T08:59:01Z</time>
      </trkpt>
      <trkpt lat="51.277424041181803" lon="15.034013958647847">
        <ele>159.24000000000001</ele>
        <time>2024-09-18T08:59:02Z</time>
      </trkpt>
      <trkpt lat="51.277374001219869" lon="15.034036003053188">
        <ele>159.24000000000001</ele>
        <time>2024-09-18T08:59:03Z</time>
      </trkpt>
      <trkpt lat="51.277323961257935" lon="15.034058969467878">
        <ele>159.72</ele>
        <time>2024-09-18T08:59:04Z</time>
      </trkpt>
      <trkpt lat="51.277274005115032" lon="15.034083025529981">
        <ele>159.72</ele>
        <time>2024-09-18T08:59:05Z</time>
      </trkpt>
      <trkpt lat="51.27716101706028" lon="15.034133987501264">
        <ele>159.72</ele>
        <time>2024-09-18T08:59:07Z</time>
      </trkpt>
      <trkpt lat="51.276713004335761" lon="15.03434001468122">
        <ele>158.27000000000001</ele>
        <time>2024-09-18T08:59:16Z</time>
      </trkpt>
      <trkpt lat="51.276635974645615" lon="15.034407991915941">
        <ele>157.78999999999999</ele>
        <time>2024-09-18T08:59:17Z</time>
      </trkpt>
      <trkpt lat="51.276355013251305" lon="15.034660035744309">
        <ele>156.83000000000001</ele>
        <time>2024-09-18T08:59:24Z</time>
      </trkpt>
      <trkpt lat="51.276184022426605" lon="15.034895986318588">
        <ele>157.78999999999999</ele>
        <time>2024-09-18T08:59:35Z</time>
      </trkpt>
      <trkpt lat="51.276184022426605" lon="15.034895986318588">
        <ele>157.78999999999999</ele>
        <time>2024-09-18T09:00:11Z</time>
      </trkpt>
      <trkpt lat="51.276155021041632" lon="15.034939991310239">
        <ele>159.72</ele>
        <time>2024-09-18T09:00:27Z</time>
      </trkpt>
      <trkpt lat="51.2758510094136" lon="15.034785009920597">
        <ele>159.72</ele>
        <time>2024-09-18T09:00:41Z</time>
      </trkpt>
      <trkpt lat="51.275902977213264" lon="15.034761959686875">
        <ele>165.47999999999999</ele>
        <time>2024-09-18T09:54:42Z</time>
      </trkpt>
      <trkpt lat="51.275870036333799" lon="15.03477000631392">
        <ele>160.68000000000001</ele>
        <time>2024-09-18T09:55:18Z</time>
      </trkpt>
      <trkpt lat="51.275800969451666" lon="15.034784004092216">
        <ele>161.63999999999999</ele>
        <time>2024-09-18T09:55:46Z</time>
      </trkpt>
      <trkpt lat="51.275785965844989" lon="15.034774029627442">
        <ele>155.38999999999999</ele>
        <time>2024-09-18T09:55:58Z</time>
      </trkpt>
      <trkpt lat="51.275784960016608" lon="15.034732958301902">
        <ele>154.43000000000001</ele>
        <time>2024-09-18T09:56:08Z</time>
      </trkpt>
      <trkpt lat="51.275802981108427" lon="15.034715021029115">
        <ele>154.43000000000001</ele>
        <time>2024-09-18T09:56:11Z</time>
      </trkpt>
      <trkpt lat="51.276155021041632" lon="15.034939991310239">
        <ele>154.91</ele>
        <time>2024-09-18T09:56:17Z</time>
      </trkpt>
      <trkpt lat="51.27636699937284" lon="15.034649977460504">
        <ele>155.87</ele>
        <time>2024-09-18T09:56:28Z</time>
      </trkpt>
      <trkpt lat="51.276535978540778" lon="15.034498013556004">
        <ele>155.38999999999999</ele>
        <time>2024-09-18T09:56:38Z</time>
      </trkpt>
      <trkpt lat="51.276535978540778" lon="15.034498013556004">
        <ele>156.34999999999999</ele>
        <time>2024-09-18T09:57:28Z</time>
      </trkpt>
      <trkpt lat="51.276535978540778" lon="15.034498013556004">
        <ele>156.83000000000001</ele>
        <time>2024-09-18T09:58:19Z</time>
      </trkpt>
      <trkpt lat="51.276535978540778" lon="15.034498013556004">
        <ele>157.31</ele>
        <time>2024-09-18T09:58:44Z</time>
      </trkpt>
      <trkpt lat="51.276535978540778" lon="15.034498013556004">
        <ele>157.31</ele>
        <time>2024-09-18T09:59:07Z</time>
      </trkpt>
      <trkpt lat="51.276535978540778" lon="15.034498013556004">
        <ele>157.31</ele>
        <time>2024-09-18T09:59:34Z</time>
      </trkpt>
      <trkpt lat="51.276567997410893" lon="15.03446901217103">
        <ele>159.24000000000001</ele>
        <time>2024-09-18T10:00:03Z</time>
      </trkpt>
      <trkpt lat="51.276713004335761" lon="15.03434001468122">
        <ele>161.63999999999999</ele>
        <time>2024-09-18T10:00:16Z</time>
      </trkpt>
      <trkpt lat="51.276917019858956" lon="15.034245969727635">
        <ele>159.72</ele>
        <time>2024-09-18T10:00:29Z</time>
      </trkpt>
      <trkpt lat="51.277246009558439" lon="15.034095011651516">
        <ele>160.68000000000001</ele>
        <time>2024-09-18T10:00:42Z</time>
      </trkpt>
      <trkpt lat="51.277246009558439" lon="15.034095011651516">
        <ele>160.68000000000001</ele>
        <time>2024-09-18T10:00:55Z</time>
      </trkpt>
      <trkpt lat="51.277246009558439" lon="15.034095011651516">
        <ele>160.19999999999999</ele>
        <time>2024-09-18T10:01:47Z</time>
      </trkpt>
      <trkpt lat="51.277466034516692" lon="15.033994009718299">
        <ele>159.72</ele>
        <time>2024-09-18T10:01:58Z</time>
      </trkpt>
      <trkpt lat="51.27797800116241" lon="15.033829975873232">
        <ele>161.16</ele>
        <time>2024-09-18T10:02:12Z</time>
      </trkpt>
      <trkpt lat="51.278357030823827" lon="15.033768033608794">
        <ele>161.63999999999999</ele>
        <time>2024-09-18T10:02:23Z</time>
      </trkpt>
      <trkpt lat="51.2788160238415" lon="15.03375998698175">
        <ele>161.63999999999999</ele>
        <time>2024-09-18T10:02:34Z</time>
      </trkpt>
      <trkpt lat="51.278884001076221" lon="15.033726962283254">
        <ele>161.63999999999999</ele>
        <time>2024-09-18T10:02:35Z</time>
      </trkpt>
      <trkpt lat="51.278968993574381" lon="15.033683963119984">
        <ele>161.63999999999999</ele>
        <time>2024-09-18T10:02:37Z</time>
      </trkpt>
      <trkpt lat="51.279015010222793" lon="15.033660996705294">
        <ele>161.16</ele>
        <time>2024-09-18T10:02:38Z</time>
      </trkpt>
      <trkpt lat="51.27903001382947" lon="15.033653033897281">
        <ele>161.16</ele>
        <time>2024-09-18T10:02:39Z</time>
      </trkpt>
      <trkpt lat="51.279048034921288" lon="15.03356602974236">
        <ele>160.68000000000001</ele>
        <time>2024-09-18T10:02:40Z</time>
      </trkpt>
      <trkpt lat="51.279065972194076" lon="15.033475002273917">
        <ele>160.19999999999999</ele>
        <time>2024-09-18T10:02:41Z</time>
      </trkpt>
      <trkpt lat="51.279086004942656" lon="15.033377017825842">
        <ele>159.72</ele>
        <time>2024-09-18T10:02:42Z</time>
      </trkpt>
      <trkpt lat="51.279215002432466" lon="15.032739993184805">
        <ele>158.27000000000001</ele>
        <time>2024-09-18T10:02:48Z</time>
      </trkpt>
      <trkpt lat="51.279239980503917" lon="15.03262197598815">
        <ele>158.27000000000001</ele>
        <time>2024-09-18T10:02:49Z</time>
      </trkpt>
      <trkpt lat="51.279264958575368" lon="15.032499013468623">
        <ele>158.27000000000001</ele>
        <time>2024-09-18T10:02:50Z</time>
      </trkpt>
      <trkpt lat="51.279385993257165" lon="15.031989980489016">
        <ele>157.78999999999999</ele>
        <time>2024-09-18T10:02:54Z</time>
      </trkpt>
      <trkpt lat="51.279499987140298" lon="15.031513972207904">
        <ele>157.78999999999999</ele>
        <time>2024-09-18T10:02:58Z</time>
      </trkpt>
      <trkpt lat="51.279522031545639" lon="15.031420011073351">
        <ele>157.78999999999999</ele>
        <time>2024-09-18T10:02:59Z</time>
      </trkpt>
      <trkpt lat="51.279541980475187" lon="15.031339041888714">
        <ele>157.78999999999999</ele>
        <time>2024-09-18T10:03:00Z</time>
      </trkpt>
      <trkpt lat="51.279580034315586" lon="15.031176013872027">
        <ele>157.78999999999999</ele>
        <time>2024-09-18T10:03:03Z</time>
      </trkpt>
      <trkpt lat="51.279552960768342" lon="15.031115999445319">
        <ele>157.78999999999999</ele>
        <time>2024-09-18T10:03:04Z</time>
      </trkpt>
      <trkpt lat="51.279509039595723" lon="15.031082974746823">
        <ele>157.78999999999999</ele>
        <time>2024-09-18T10:03:05Z</time>
      </trkpt>
      <trkpt lat="51.279447013512254" lon="15.031035030260682">
        <ele>157.78999999999999</ele>
        <time>2024-09-18T10:03:06Z</time>
      </trkpt>
      <trkpt lat="51.27937400713563" lon="15.030979961156845">
        <ele>158.27000000000001</ele>
        <time>2024-09-18T10:03:07Z</time>
      </trkpt>
      <trkpt lat="51.279107965528965" lon="15.030777035281062">
        <ele>157.78999999999999</ele>
        <time>2024-09-18T10:03:10Z</time>
      </trkpt>
      <trkpt lat="51.278719967231154" lon="15.030245035886765">
        <ele>157.31</ele>
        <time>2024-09-18T10:03:15Z</time>
      </trkpt>
      <trkpt lat="51.278667999431491" lon="15.030167000368237">
        <ele>157.78999999999999</ele>
        <time>2024-09-18T10:03:16Z</time>
      </trkpt>
      <trkpt lat="51.27860102802515" lon="15.030070021748543">
        <ele>158.27000000000001</ele>
        <time>2024-09-18T10:03:17Z</time>
      </trkpt>
      <trkpt lat="51.278611002489924" lon="15.029809009283781">
        <ele>159.24000000000001</ele>
        <time>2024-09-18T10:03:19Z</time>
      </trkpt>
      <trkpt lat="51.278660958632827" lon="15.029718987643719">
        <ele>159.72</ele>
        <time>2024-09-18T10:03:20Z</time>
      </trkpt>
      <trkpt lat="51.278722984716296" lon="15.029607005417347">
        <ele>160.19999999999999</ele>
        <time>2024-09-18T10:03:21Z</time>
      </trkpt>
      <trkpt lat="51.278790961951017" lon="15.029486976563931">
        <ele>160.19999999999999</ele>
        <time>2024-09-18T10:03:22Z</time>
      </trkpt>
      <trkpt lat="51.278863968327641" lon="15.029355967417359">
        <ele>160.68000000000001</ele>
        <time>2024-09-18T10:03:23Z</time>
      </trkpt>
      <trkpt lat="51.279616998508573" lon="15.028236983343959">
        <ele>162.59999999999999</ele>
        <time>2024-09-18T10:03:33Z</time>
      </trkpt>
      <trkpt lat="51.280164001509547" lon="15.027436008676887">
        <ele>165</ele>
        <time>2024-09-18T10:03:41Z</time>
      </trkpt>
      <trkpt lat="51.280231978744268" lon="15.027334000915289">
        <ele>165.96000000000001</ele>
        <time>2024-09-18T10:03:44Z</time>
      </trkpt>
      <trkpt lat="51.280242037028074" lon="15.027318997308612">
        <ele>166.44999999999999</ele>
        <time>2024-09-18T10:03:45Z</time>
      </trkpt>
      <trkpt lat="51.28025402314961" lon="15.027300976216793">
        <ele>166.93000000000001</ele>
        <time>2024-09-18T10:03:47Z</time>
      </trkpt>
      <trkpt lat="51.280243964865804" lon="15.027303993701935">
        <ele>167.41</ele>
        <time>2024-09-18T10:03:48Z</time>
      </trkpt>
      <trkpt lat="51.280208006501198" lon="15.027312040328979">
        <ele>167.88999999999999</ele>
        <time>2024-09-18T10:03:49Z</time>
      </trkpt>
      <trkpt lat="51.280150003731251" lon="15.027326038107276">
        <ele>168.37</ele>
        <time>2024-09-18T10:03:50Z</time>
      </trkpt>
      <trkpt lat="51.280073979869485" lon="15.027344981208444">
        <ele>168.84999999999999</ele>
        <time>2024-09-18T10:03:51Z</time>
      </trkpt>
      <trkpt lat="51.279305024072528" lon="15.027501974254847">
        <ele>168.84999999999999</ele>
        <time>2024-09-18T10:03:57Z</time>
      </trkpt>
      <trkpt lat="51.277794018387794" lon="15.027716970071197">
        <ele>169.33000000000001</ele>
        <time>2024-09-18T10:04:05Z</time>
      </trkpt>
      <trkpt lat="51.276230039075017" lon="15.028117038309574">
        <ele>169.33000000000001</ele>
        <time>2024-09-18T10:04:13Z</time>
      </trkpt>
      <trkpt lat="51.274830009788275" lon="15.028799995779991">
        <ele>166.93000000000001</ele>
        <time>2024-09-18T10:04:21Z</time>
      </trkpt>
      <trkpt lat="51.273067966103554" lon="15.029486976563931">
        <ele>166.44999999999999</ele>
        <time>2024-09-18T10:04:31Z</time>
      </trkpt>
      <trkpt lat="51.272703018039465" lon="15.029475996270776">
        <ele>166.93000000000001</ele>
        <time>2024-09-18T10:04:33Z</time>
      </trkpt>
      <trkpt lat="51.270925970748067" lon="15.029243985190988">
        <ele>167.88999999999999</ele>
        <time>2024-09-18T10:04:42Z</time>
      </trkpt>
      <trkpt lat="51.268208976835012" lon="15.028607966378331">
        <ele>168.37</ele>
        <time>2024-09-18T10:04:54Z</time>
      </trkpt>
      <trkpt lat="51.265991041436791" lon="15.02808996476233">
        <ele>169.33000000000001</ele>
        <time>2024-09-18T10:05:03Z</time>
      </trkpt>
      <trkpt lat="51.263628015294671" lon="15.027285972610116">
        <ele>170.77000000000001</ele>
        <time>2024-09-18T10:05:13Z</time>
      </trkpt>
      <trkpt lat="51.262304009869695" lon="15.026679039001465">
        <ele>170.28999999999999</ele>
        <time>2024-09-18T10:05:20Z</time>
      </trkpt>
      <trkpt lat="51.262174006551504" lon="15.026592034846544">
        <ele>170.77000000000001</ele>
        <time>2024-09-18T10:05:21Z</time>
      </trkpt>
      <trkpt lat="51.262049032375216" lon="15.026508970186114">
        <ele>170.77000000000001</ele>
        <time>2024-09-18T10:05:22Z</time>
      </trkpt>
      <trkpt lat="51.260866010561585" lon="15.025370959192514">
        <ele>172.21000000000001</ele>
        <time>2024-09-18T10:05:33Z</time>
      </trkpt>
      <trkpt lat="51.259903013706207" lon="15.024331016466022">
        <ele>172.69</ele>
        <time>2024-09-18T10:05:43Z</time>
      </trkpt>
      <trkpt lat="51.259227013215423" lon="15.023309011012316">
        <ele>172.69</ele>
        <time>2024-09-18T10:05:51Z</time>
      </trkpt>
      <trkpt lat="51.258354960009456" lon="15.021732961758971">
        <ele>173.16999999999999</ele>
        <time>2024-09-18T10:06:02Z</time>
      </trkpt>
      <trkpt lat="51.257623974233866" lon="15.020454972982407">
        <ele>175.58000000000001</ele>
        <time>2024-09-18T10:06:11Z</time>
      </trkpt>
      <trkpt lat="51.256614038720727" lon="15.018697958439589">
        <ele>175.58000000000001</ele>
        <time>2024-09-18T10:06:23Z</time>
      </trkpt>
      <trkpt lat="51.255886992439628" lon="15.017457017675042">
        <ele>175.09999999999999</ele>
        <time>2024-09-18T10:06:30Z</time>
      </trkpt>
      <trkpt lat="51.255740979686379" lon="15.017277980223298">
        <ele>175.09999999999999</ele>
        <time>2024-09-18T10:06:31Z</time>
      </trkpt>
      <trkpt lat="51.255575018003583" lon="15.017143031582236">
        <ele>175.09999999999999</ele>
        <time>2024-09-18T10:06:32Z</time>
      </trkpt>
      <trkpt lat="51.253715995699167" lon="15.015633031725883">
        <ele>175.09999999999999</ele>
        <time>2024-09-18T10:06:42Z</time>
      </trkpt>
      <trkpt lat="51.25092800706625" lon="15.013391962274909">
        <ele>176.53999999999999</ele>
        <time>2024-09-18T10:06:55Z</time>
      </trkpt>
      <trkpt lat="51.249060016125441" lon="15.012470036745071">
        <ele>178.94</ele>
        <time>2024-09-18T10:07:03Z</time>
      </trkpt>
      <trkpt lat="51.246851971372962" lon="15.012177005410194">
        <ele>178.46000000000001</ele>
        <time>2024-09-18T10:07:12Z</time>
      </trkpt>
      <trkpt lat="51.245000995695591" lon="15.011559007689357">
        <ele>176.53999999999999</ele>
        <time>2024-09-18T10:07:20Z</time>
      </trkpt>
      <trkpt lat="51.243533995002508" lon="15.01055896282196">
        <ele>177.02000000000001</ele>
        <time>2024-09-18T10:07:28Z</time>
      </trkpt>
      <trkpt lat="51.24199197627604" lon="15.008793985471129">
        <ele>178.94</ele>
        <time>2024-09-18T10:07:37Z</time>
      </trkpt>
      <trkpt lat="51.240691021084785" lon="15.006418973207474">
        <ele>178.94</ele>
        <time>2024-09-18T10:07:46Z</time>
      </trkpt>
      <trkpt lat="51.23977798037231" lon="15.003755958750844">
        <ele>179.90000000000001</ele>
        <time>2024-09-18T10:07:54Z</time>
      </trkpt>
      <trkpt lat="51.239256039261818" lon="15.000621965155005">
        <ele>180.38</ele>
        <time>2024-09-18T10:08:02Z</time>
      </trkpt>
      <trkpt lat="51.239207005128264" lon="14.997339025139809">
        <ele>180.38</ele>
        <time>2024-09-18T10:08:10Z</time>
      </trkpt>
      <trkpt lat="51.239507999271154" lon="14.992102012038231">
        <ele>182.31</ele>
        <time>2024-09-18T10:08:23Z</time>
      </trkpt>
      <trkpt lat="51.239528032019734" lon="14.988704994320869">
        <ele>184.22999999999999</ele>
        <time>2024-09-18T10:08:32Z</time>
      </trkpt>
      <trkpt lat="51.238987985998392" lon="14.986133007332683">
        <ele>185.19</ele>
        <time>2024-09-18T10:08:39Z</time>
      </trkpt>
      <trkpt lat="51.237992970272899" lon="14.983968967571855">
        <ele>186.63</ele>
        <time>2024-09-18T10:08:46Z</time>
      </trkpt>
      <trkpt lat="51.236518006771803" lon="14.982115980237722">
        <ele>186.63</ele>
        <time>2024-09-18T10:08:54Z</time>
      </trkpt>
      <trkpt lat="51.234641969203949" lon="14.979993011802435">
        <ele>185.66999999999999</ele>
        <time>2024-09-18T10:09:05Z</time>
      </trkpt>
      <trkpt lat="51.233838982880116" lon="14.979069996625185">
        <ele>185.66999999999999</ele>
        <time>2024-09-18T10:09:12Z</time>
      </trkpt>
      <trkpt lat="51.233706967905164" lon="14.978916021063924">
        <ele>185.19</ele>
        <time>2024-09-18T10:09:14Z</time>
      </trkpt>
      <trkpt lat="51.233661035075784" lon="14.978862963616848">
        <ele>185.19</ele>
        <time>2024-09-18T10:09:15Z</time>
      </trkpt>
      <trkpt lat="51.233614012598991" lon="14.978990033268929">
        <ele>185.19</ele>
        <time>2024-09-18T10:09:16Z</time>
      </trkpt>
      <trkpt lat="51.233574030920863" lon="14.979076031595469">
        <ele>185.19</ele>
        <time>2024-09-18T10:09:17Z</time>
      </trkpt>
      <trkpt lat="51.233517033979297" lon="14.979199999943376">
        <ele>185.66999999999999</ele>
        <time>2024-09-18T10:09:18Z</time>
      </trkpt>
      <trkpt lat="51.233444027602673" lon="14.97935900464654">
        <ele>185.66999999999999</ele>
        <time>2024-09-18T10:09:19Z</time>
      </trkpt>
      <trkpt lat="51.233357023447752" lon="14.979547010734677">
        <ele>186.15000000000001</ele>
        <time>2024-09-18T10:09:20Z</time>
      </trkpt>
      <trkpt lat="51.232551019638777" lon="14.981494965031743">
        <ele>186.15000000000001</ele>
        <time>2024-09-18T10:09:28Z</time>
      </trkpt>
      <trkpt lat="51.231501018628478" lon="14.984579002484679">
        <ele>186.15000000000001</ele>
        <time>2024-09-18T10:09:38Z</time>
      </trkpt>
      <trkpt lat="51.230573980137706" lon="14.986896011978388">
        <ele>186.15000000000001</ele>
        <time>2024-09-18T10:09:46Z</time>
      </trkpt>
      <trkpt lat="51.230224035680294" lon="14.988021031022072">
        <ele>185.66999999999999</ele>
        <time>2024-09-18T10:09:50Z</time>
      </trkpt>
      <trkpt lat="51.230178019031882" lon="14.988338034600019">
        <ele>185.66999999999999</ele>
        <time>2024-09-18T10:09:51Z</time>
      </trkpt>
      <trkpt lat="51.230036029592156" lon="14.989576041698456">
        <ele>184.22999999999999</ele>
        <time>2024-09-18T10:09:55Z</time>
      </trkpt>
      <trkpt lat="51.229956988245249" lon="14.989815009757876">
        <ele>184.22999999999999</ele>
        <time>2024-09-18T10:09:56Z</time>
      </trkpt>
      <trkpt lat="51.229869984090328" lon="14.990035034716129">
        <ele>183.75</ele>
        <time>2024-09-18T10:09:57Z</time>
      </trkpt>
      <trkpt lat="51.229734029620886" lon="14.990197978913784">
        <ele>183.75</ele>
        <time>2024-09-18T10:09:58Z</time>
      </trkpt>
      <trkpt lat="51.229577958583832" lon="14.9903370346874">
        <ele>183.27000000000001</ele>
        <time>2024-09-18T10:09:59Z</time>
      </trkpt>
      <trkpt lat="51.229395987465978" lon="14.990465026348829">
        <ele>183.27000000000001</ele>
        <time>2024-09-18T10:10:00Z</time>
      </trkpt>
      <trkpt lat="51.227910965681076" lon="14.991729017347097">
        <ele>183.27000000000001</ele>
        <time>2024-09-18T10:10:08Z</time>
      </trkpt>
      <trkpt lat="51.225793026387691" lon="14.993530036881566">
        <ele>184.22999999999999</ele>
        <time>2024-09-18T10:10:19Z</time>
      </trkpt>
      <trkpt lat="51.224197028204799" lon="14.994410974904895">
        <ele>184.22999999999999</ele>
        <time>2024-09-18T10:10:27Z</time>
      </trkpt>
      <trkpt lat="51.221710033714771" lon="14.994750022888184">
        <ele>185.19</ele>
        <time>2024-09-18T10:10:38Z</time>
      </trkpt>
      <trkpt lat="51.220029965043068" lon="14.994940040633082">
        <ele>186.15000000000001</ele>
        <time>2024-09-18T10:10:46Z</time>
      </trkpt>
      <trkpt lat="51.218349980190396" lon="14.995260983705521">
        <ele>186.15000000000001</ele>
        <time>2024-09-18T10:10:55Z</time>
      </trkpt>
      <trkpt lat="51.216172026470304" lon="14.995239023119211">
        <ele>184.71000000000001</ele>
        <time>2024-09-18T10:11:05Z</time>
      </trkpt>
      <trkpt lat="51.214492041617632" lon="14.995029978454113">
        <ele>183.75</ele>
        <time>2024-09-18T10:11:13Z</time>
      </trkpt>
      <trkpt lat="51.212585996836424" lon="14.995133997872472">
        <ele>186.63</ele>
        <time>2024-09-18T10:11:22Z</time>
      </trkpt>
      <trkpt lat="51.211371039971709" lon="14.995998004451394">
        <ele>188.08000000000001</ele>
        <time>2024-09-18T10:11:28Z</time>
      </trkpt>
      <trkpt lat="51.209896998479962" lon="14.997632978484035">
        <ele>188.08000000000001</ele>
        <time>2024-09-18T10:11:36Z</time>
      </trkpt>
      <trkpt lat="51.209185961633921" lon="14.998291041702032">
        <ele>188.56</ele>
        <time>2024-09-18T10:11:42Z</time>
      </trkpt>
      <trkpt lat="51.208350034430623" lon="14.998901998624206">
        <ele>186.63</ele>
        <time>2024-09-18T10:11:51Z</time>
      </trkpt>
      <trkpt lat="51.207158965989947" lon="14.999266024678946">
        <ele>183.75</ele>
        <time>2024-09-18T10:12:02Z</time>
      </trkpt>
      <trkpt lat="51.206233017146587" lon="14.999187989160419">
        <ele>181.83000000000001</ele>
        <time>2024-09-18T10:12:10Z</time>
      </trkpt>
      <trkpt lat="51.206036964431405" lon="14.99904197640717">
        <ele>181.34999999999999</ele>
        <time>2024-09-18T10:12:12Z</time>
      </trkpt>
      <trkpt lat="51.205843007192016" lon="14.998838966712356">
        <ele>181.34999999999999</ele>
        <time>2024-09-18T10:12:14Z</time>
      </trkpt>
      <trkpt lat="51.205746028572321" lon="14.998737964779139">
        <ele>181.34999999999999</ele>
        <time>2024-09-18T10:12:15Z</time>
      </trkpt>
      <trkpt lat="51.205644020810723" lon="14.998644003644586">
        <ele>181.34999999999999</ele>
        <time>2024-09-18T10:12:16Z</time>
      </trkpt>
      <trkpt lat="51.205532038584352" lon="14.9985880125314">
        <ele>181.34999999999999</ele>
        <time>2024-09-18T10:12:17Z</time>
      </trkpt>
      <trkpt lat="51.205419972538948" lon="14.998556999489665">
        <ele>181.34999999999999</ele>
        <time>2024-09-18T10:12:18Z</time>
      </trkpt>
      <trkpt lat="51.205304972827435" lon="14.998537972569466">
        <ele>181.34999999999999</ele>
        <time>2024-09-18T10:12:19Z</time>
      </trkpt>
      <trkpt lat="51.204022960737348" lon="14.998220968991518">
        <ele>180.87</ele>
        <time>2024-09-18T10:12:30Z</time>
      </trkpt>
      <trkpt lat="51.203688019886613" lon="14.99816196039319">
        <ele>181.34999999999999</ele>
        <time>2024-09-18T10:12:33Z</time>
      </trkpt>
      <trkpt lat="51.202407013624907" lon="14.998234966769814">
        <ele>180.87</ele>
        <time>2024-09-18T10:12:44Z</time>
      </trkpt>
      <trkpt lat="51.201163977384567" lon="14.998399000614882">
        <ele>179.41999999999999</ele>
        <time>2024-09-18T10:12:55Z</time>
      </trkpt>
      <trkpt lat="51.19953403249383" lon="14.998401012271643">
        <ele>177.5</ele>
        <time>2024-09-18T10:13:09Z</time>
      </trkpt>
      <trkpt lat="51.199191967025399" lon="14.998285006731749">
        <ele>177.02000000000001</ele>
        <time>2024-09-18T10:13:12Z</time>
      </trkpt>
      <trkpt lat="51.19908501394093" lon="14.998210994526744">
        <ele>176.53999999999999</ele>
        <time>2024-09-18T10:13:13Z</time>
      </trkpt>
      <trkpt lat="51.198672959581017" lon="14.997884016484022">
        <ele>175.58000000000001</ele>
        <time>2024-09-18T10:13:17Z</time>
      </trkpt>
      <trkpt lat="51.198561983183026" lon="14.99785803258419">
        <ele>175.58000000000001</ele>
        <time>2024-09-18T10:13:18Z</time>
      </trkpt>
      <trkpt lat="51.198445977643132" lon="14.997830959036946">
        <ele>175.58000000000001</ele>
        <time>2024-09-18T10:13:19Z</time>
      </trkpt>
      <trkpt lat="51.198327038437128" lon="14.997803969308734">
        <ele>175.58000000000001</ele>
        <time>2024-09-18T10:13:20Z</time>
      </trkpt>
      <trkpt lat="51.198210027068853" lon="14.997776979580522">
        <ele>175.58000000000001</ele>
        <time>2024-09-18T10:13:21Z</time>
      </trkpt>
      <trkpt lat="51.197125995531678" lon="14.997689975425601">
        <ele>174.62</ele>
        <time>2024-09-18T10:13:31Z</time>
      </trkpt>
      <trkpt lat="51.196413030847907" lon="14.997705984860659">
        <ele>173.66</ele>
        <time>2024-09-18T10:13:41Z</time>
      </trkpt>
      <trkpt lat="51.195941967889667" lon="14.997728029266">
        <ele>172.69</ele>
        <time>2024-09-18T10:13:47Z</time>
      </trkpt>
      <trkpt lat="51.195864016190171" lon="14.99773196876049">
        <ele>172.69</ele>
        <time>2024-09-18T10:13:48Z</time>
      </trkpt>
      <trkpt lat="51.195728983730078" lon="14.997808998450637">
        <ele>172.21000000000001</ele>
        <time>2024-09-18T10:13:50Z</time>
      </trkpt>
      <trkpt lat="51.195660000666976" lon="14.997849985957146">
        <ele>172.21000000000001</ele>
        <time>2024-09-18T10:13:51Z</time>
      </trkpt>
      <trkpt lat="51.195597974583507" lon="14.997890973463655">
        <ele>172.21000000000001</ele>
        <time>2024-09-18T10:13:52Z</time>
      </trkpt>
      <trkpt lat="51.195507030934095" lon="14.99811602756381">
        <ele>172.21000000000001</ele>
        <time>2024-09-18T10:13:54Z</time>
      </trkpt>
      <trkpt lat="51.195463025942445" lon="14.998391959816217">
        <ele>172.21000000000001</ele>
        <time>2024-09-18T10:13:56Z</time>
      </trkpt>
      <trkpt lat="51.19543100707233" lon="14.998679962009192">
        <ele>172.21000000000001</ele>
        <time>2024-09-18T10:13:58Z</time>
      </trkpt>
      <trkpt lat="51.19543100707233" lon="14.99929896555841">
        <ele>170.77000000000001</ele>
        <time>2024-09-18T10:14:03Z</time>
      </trkpt>
      <trkpt lat="51.195387002080679" lon="14.999388987198472">
        <ele>170.28999999999999</ele>
        <time>2024-09-18T10:14:04Z</time>
      </trkpt>
      <trkpt lat="51.195347020402551" lon="14.999467022716999">
        <ele>169.81</ele>
        <time>2024-09-18T10:14:05Z</time>
      </trkpt>
      <trkpt lat="51.195293040946126" lon="14.999536005780101">
        <ele>168.84999999999999</ele>
        <time>2024-09-18T10:14:06Z</time>
      </trkpt>
      <trkpt lat="51.195224979892373" lon="14.999575987458229">
        <ele>168.37</ele>
        <time>2024-09-18T10:14:07Z</time>
      </trkpt>
      <trkpt lat="51.195133030414581" lon="14.999570036306977">
        <ele>167.41</ele>
        <time>2024-09-18T10:14:08Z</time>
      </trkpt>
      <trkpt lat="51.195031022652984" lon="14.999564001336694">
        <ele>166.44999999999999</ele>
        <time>2024-09-18T10:14:09Z</time>
      </trkpt>
      <trkpt lat="51.194579992443323" lon="14.99938203021884">
        <ele>164.52000000000001</ele>
        <time>2024-09-18T10:14:14Z</time>
      </trkpt>
      <trkpt lat="51.194496005773544" lon="14.99933903105557">
        <ele>164.52000000000001</ele>
        <time>2024-09-18T10:14:15Z</time>
      </trkpt>
      <trkpt lat="51.194245973601937" lon="14.999209027737379">
        <ele>164.52000000000001</ele>
        <time>2024-09-18T10:14:18Z</time>
      </trkpt>
      <trkpt lat="51.193988984450698" lon="14.999076006934047">
        <ele>165.47999999999999</ele>
        <time>2024-09-18T10:14:21Z</time>
      </trkpt>
      <trkpt lat="51.193613978102803" lon="14.998979028314352">
        <ele>166.93000000000001</ele>
        <time>2024-09-18T10:14:25Z</time>
      </trkpt>
      <trkpt lat="51.193530997261405" lon="14.998992020264268">
        <ele>167.41</ele>
        <time>2024-09-18T10:14:26Z</time>
      </trkpt>
      <trkpt lat="51.1934569850564" lon="14.999004006385803">
        <ele>167.41</ele>
        <time>2024-09-18T10:14:27Z</time>
      </trkpt>
      <trkpt lat="51.193366041406989" lon="14.99901900999248">
        <ele>167.88999999999999</ele>
        <time>2024-09-18T10:14:28Z</time>
      </trkpt>
      <trkpt lat="51.193265961483121" lon="14.999035019427538">
        <ele>168.37</ele>
        <time>2024-09-18T10:14:29Z</time>
      </trkpt>
      <trkpt lat="51.192966978996992" lon="14.999038958922029">
        <ele>169.33000000000001</ele>
        <time>2024-09-18T10:14:32Z</time>
      </trkpt>
      <trkpt lat="51.19287402369082" lon="14.999022027477622">
        <ele>169.33000000000001</ele>
        <time>2024-09-18T10:14:33Z</time>
      </trkpt>
      <trkpt lat="51.192785007879138" lon="14.999005012214184">
        <ele>168.84999999999999</ele>
        <time>2024-09-18T10:14:34Z</time>
      </trkpt>
      <trkpt lat="51.192700015380979" lon="14.998989002779126">
        <ele>168.84999999999999</ele>
        <time>2024-09-18T10:14:35Z</time>
      </trkpt>
      <trkpt lat="51.192620974034071" lon="14.998967964202166">
        <ele>168.37</ele>
        <time>2024-09-18T10:14:36Z</time>
      </trkpt>
      <trkpt lat="51.192541010677814" lon="14.99893200583756">
        <ele>168.37</ele>
        <time>2024-09-18T10:14:37Z</time>
      </trkpt>
      <trkpt lat="51.192276980727911" lon="14.998817006126046">
        <ele>165.96000000000001</ele>
        <time>2024-09-18T10:14:40Z</time>
      </trkpt>
      <trkpt lat="51.192186959087849" lon="14.998779036104679">
        <ele>165.47999999999999</ele>
        <time>2024-09-18T10:14:41Z</time>
      </trkpt>
      <trkpt lat="51.192087968811393" lon="14.998756991699338">
        <ele>165.47999999999999</ele>
        <time>2024-09-18T10:14:42Z</time>
      </trkpt>
      <trkpt lat="51.191988978534937" lon="14.998747017234564">
        <ele>165</ele>
        <time>2024-09-18T10:14:43Z</time>
      </trkpt>
      <trkpt lat="51.191869033500552" lon="14.99878398142755">
        <ele>164.52000000000001</ele>
        <time>2024-09-18T10:14:44Z</time>
      </trkpt>
      <trkpt lat="51.191761996597052" lon="14.998855981975794">
        <ele>164.52000000000001</ele>
        <time>2024-09-18T10:14:45Z</time>
      </trkpt>
      <trkpt lat="51.191654037684202" lon="14.998927982524037">
        <ele>164.03999999999999</ele>
        <time>2024-09-18T10:14:46Z</time>
      </trkpt>
      <trkpt lat="51.191542977467179" lon="14.999000988900661">
        <ele>164.03999999999999</ele>
        <time>2024-09-18T10:14:47Z</time>
      </trkpt>
      <trkpt lat="51.191290011629462" lon="14.9991699680686">
        <ele>163.56</ele>
        <time>2024-09-18T10:14:49Z</time>
      </trkpt>
      <trkpt lat="51.191188003867865" lon="14.999203998595476">
        <ele>162.59999999999999</ele>
        <time>2024-09-18T10:14:50Z</time>
      </trkpt>
      <trkpt lat="51.191058000549674" lon="14.999248003587127">
        <ele>162.12</ele>
        <time>2024-09-18T10:14:51Z</time>
      </trkpt>
      <trkpt lat="51.190924979746342" lon="14.999240040779114">
        <ele>161.63999999999999</ele>
        <time>2024-09-18T10:14:52Z</time>
      </trkpt>
      <trkpt lat="51.19079003110528" lon="14.999219002202153">
        <ele>161.63999999999999</ele>
        <time>2024-09-18T10:14:53Z</time>
      </trkpt>
      <trkpt lat="51.190662039443851" lon="14.999198969453573">
        <ele>161.16</ele>
        <time>2024-09-18T10:14:54Z</time>
      </trkpt>
      <trkpt lat="51.189650008454919" lon="14.999116994440556">
        <ele>159.72</ele>
        <time>2024-09-18T10:15:03Z</time>
      </trkpt>
      <trkpt lat="51.18877099826932" lon="14.999365014955401">
        <ele>161.63999999999999</ele>
        <time>2024-09-18T10:15:11Z</time>
      </trkpt>
      <trkpt lat="51.188077982515097" lon="14.999672966077924">
        <ele>164.03999999999999</ele>
        <time>2024-09-18T10:15:17Z</time>
      </trkpt>
      <trkpt lat="51.187749998643994" lon="14.999871030449867">
        <ele>166.44999999999999</ele>
        <time>2024-09-18T10:15:20Z</time>
      </trkpt>
      <trkpt lat="51.187087995931506" lon="15.000201025977731">
        <ele>170.77000000000001</ele>
        <time>2024-09-18T10:15:26Z</time>
      </trkpt>
      <trkpt lat="51.186970984563231" lon="15.000233966857195">
        <ele>171.72999999999999</ele>
        <time>2024-09-18T10:15:27Z</time>
      </trkpt>
      <trkpt lat="51.186036989092827" lon="15.000447034835815">
        <ele>176.53999999999999</ele>
        <time>2024-09-18T10:15:35Z</time>
      </trkpt>
      <trkpt lat="51.184786995872855" lon="15.000902004539967">
        <ele>177.5</ele>
        <time>2024-09-18T10:15:46Z</time>
      </trkpt>
      <trkpt lat="51.184240998700261" lon="15.001221019774675">
        <ele>176.53999999999999</ele>
        <time>2024-09-18T10:15:51Z</time>
      </trkpt>
      <trkpt lat="51.184121975675225" lon="15.001240968704224">
        <ele>176.53999999999999</ele>
        <time>2024-09-18T10:15:52Z</time>
      </trkpt>
      <trkpt lat="51.184005970135331" lon="15.00125496648252">
        <ele>176.53999999999999</ele>
        <time>2024-09-18T10:15:53Z</time>
      </trkpt>
      <trkpt lat="51.183457961305976" lon="15.001315986737609">
        <ele>177.5</ele>
        <time>2024-09-18T10:15:58Z</time>
      </trkpt>
      <trkpt lat="51.183328963816166" lon="15.00133803114295">
        <ele>177.5</ele>
        <time>2024-09-18T10:15:59Z</time>
      </trkpt>
      <trkpt lat="51.183114973828197" lon="15.001358985900879">
        <ele>177.5</ele>
        <time>2024-09-18T10:16:00Z</time>
      </trkpt>
      <trkpt lat="51.183104999363422" lon="15.001359991729259">
        <ele>177.5</ele>
        <time>2024-09-18T10:16:01Z</time>
      </trkpt>
      <trkpt lat="51.182989999651909" lon="15.001369966194034">
        <ele>177.02000000000001</ele>
        <time>2024-09-18T10:16:02Z</time>
      </trkpt>
      <trkpt lat="51.182761006057262" lon="15.00136099755764">
        <ele>177.02000000000001</ele>
        <time>2024-09-18T10:16:04Z</time>
      </trkpt>
      <trkpt lat="51.182643994688988" lon="15.001341970637441">
        <ele>177.02000000000001</ele>
        <time>2024-09-18T10:16:05Z</time>
      </trkpt>
      <trkpt lat="51.182543998584151" lon="15.001281034201384">
        <ele>177.02000000000001</ele>
        <time>2024-09-18T10:16:06Z</time>
      </trkpt>
      <trkpt lat="51.182438973337412" lon="15.001204004511237">
        <ele>177.5</ele>
        <time>2024-09-18T10:16:07Z</time>
      </trkpt>
      <trkpt lat="51.182332020252943" lon="15.00112496316433">
        <ele>177.5</ele>
        <time>2024-09-18T10:16:08Z</time>
      </trkpt>
      <trkpt lat="51.182212997227907" lon="15.00103703700006">
        <ele>177.5</ele>
        <time>2024-09-18T10:16:09Z</time>
      </trkpt>
      <trkpt lat="51.182133033871651" lon="15.000927988439798">
        <ele>177.97999999999999</ele>
        <time>2024-09-18T10:16:10Z</time>
      </trkpt>
      <trkpt lat="51.18204602971673" lon="15.000808965414762">
        <ele>177.97999999999999</ele>
        <time>2024-09-18T10:16:11Z</time>
      </trkpt>
      <trkpt lat="51.181961037218571" lon="15.000684997066855">
        <ele>177.97999999999999</ele>
        <time>2024-09-18T10:16:12Z</time>
      </trkpt>
      <trkpt lat="51.181887025013566" lon="15.00054401345551">
        <ele>177.97999999999999</ele>
        <time>2024-09-18T10:16:13Z</time>
      </trkpt>
      <trkpt lat="51.181662976741791" lon="15.000121984630823">
        <ele>177.97999999999999</ele>
        <time>2024-09-18T10:16:16Z</time>
      </trkpt>
      <trkpt lat="51.181589970365167" lon="14.99998401850462">
        <ele>177.97999999999999</ele>
        <time>2024-09-18T10:16:17Z</time>
      </trkpt>
      <trkpt lat="51.181229967623949" lon="14.998841984197497">
        <ele>176.06</ele>
        <time>2024-09-18T10:16:24Z</time>
      </trkpt>
      <trkpt lat="51.181142963469028" lon="14.998730001971126">
        <ele>176.06</ele>
        <time>2024-09-18T10:16:25Z</time>
      </trkpt>
      <trkpt lat="51.181057970970869" lon="14.998621959239244">
        <ele>176.06</ele>
        <time>2024-09-18T10:16:26Z</time>
      </trkpt>
      <trkpt lat="51.180960992351174" lon="14.998584995046258">
        <ele>176.06</ele>
        <time>2024-09-18T10:16:27Z</time>
      </trkpt>
      <trkpt lat="51.180835012346506" lon="14.998573008924723">
        <ele>175.58000000000001</ele>
        <time>2024-09-18T10:16:28Z</time>
      </trkpt>
      <trkpt lat="51.180724035948515" lon="14.998591030016541">
        <ele>175.58000000000001</ele>
        <time>2024-09-18T10:16:29Z</time>
      </trkpt>
      <trkpt lat="51.180626973509789" lon="14.998620031401515">
        <ele>175.09999999999999</ele>
        <time>2024-09-18T10:16:30Z</time>
      </trkpt>
      <trkpt lat="51.180505016818643" lon="14.99865498393774">
        <ele>174.62</ele>
        <time>2024-09-18T10:16:31Z</time>
      </trkpt>
      <trkpt lat="51.180057004094124" lon="14.998786998912692">
        <ele>172.21000000000001</ele>
        <time>2024-09-18T10:16:35Z</time>
      </trkpt>
      <trkpt lat="51.179393995553255" lon="14.998931000009179">
        <ele>169.81</ele>
        <time>2024-09-18T10:16:41Z</time>
      </trkpt>
      <trkpt lat="51.179292993620038" lon="14.999009035527706">
        <ele>169.33000000000001</ele>
        <time>2024-09-18T10:16:42Z</time>
      </trkpt>
      <trkpt lat="51.179201966151595" lon="14.999110037460923">
        <ele>169.33000000000001</ele>
        <time>2024-09-18T10:16:43Z</time>
      </trkpt>
      <trkpt lat="51.179113034158945" lon="14.999209027737379">
        <ele>168.84999999999999</ele>
        <time>2024-09-18T10:16:44Z</time>
      </trkpt>
      <trkpt lat="51.179021000862122" lon="14.999312041327357">
        <ele>168.84999999999999</ele>
        <time>2024-09-18T10:16:45Z</time>
      </trkpt>
      <trkpt lat="51.178927039727569" lon="14.999415976926684">
        <ele>168.37</ele>
        <time>2024-09-18T10:16:46Z</time>
      </trkpt>
      <trkpt lat="51.178831988945603" lon="14.999523013830185">
        <ele>168.37</ele>
        <time>2024-09-18T10:16:47Z</time>
      </trkpt>
      <trkpt lat="51.178739033639431" lon="14.999625021591783">
        <ele>168.37</ele>
        <time>2024-09-18T10:16:48Z</time>
      </trkpt>
      <trkpt lat="51.178648006170988" lon="14.999728035181761">
        <ele>167.88999999999999</ele>
        <time>2024-09-18T10:16:49Z</time>
      </trkpt>
      <trkpt lat="51.178549015894532" lon="14.999800035730004">
        <ele>167.88999999999999</ele>
        <time>2024-09-18T10:16:50Z</time>
      </trkpt>
      <trkpt lat="51.17832999676466" lon="14.999904977157712">
        <ele>168.37</ele>
        <time>2024-09-18T10:16:52Z</time>
      </trkpt>
      <trkpt lat="51.177084026858211" lon="15.000304961577058">
        <ele>171.25</ele>
        <time>2024-09-18T10:17:03Z</time>
      </trkpt>
      <trkpt lat="51.175550976768136" lon="15.000088959932327">
        <ele>173.16999999999999</ele>
        <time>2024-09-18T10:17:16Z</time>
      </trkpt>
      <trkpt lat="51.175101958215237" lon="14.999938001856208">
        <ele>174.13999999999999</ele>
        <time>2024-09-18T10:17:20Z</time>
      </trkpt>
      <trkpt lat="51.173972999677062" lon="14.999321009963751">
        <ele>175.58000000000001</ele>
        <time>2024-09-18T10:17:30Z</time>
      </trkpt>
      <trkpt lat="51.172843035310507" lon="14.998822035267949">
        <ele>176.53999999999999</ele>
        <time>2024-09-18T10:17:40Z</time>
      </trkpt>
      <trkpt lat="51.172150019556284" lon="14.99865498393774">
        <ele>178.46000000000001</ele>
        <time>2024-09-18T10:17:46Z</time>
      </trkpt>
      <trkpt lat="51.172052035108209" lon="14.998636040836573">
        <ele>178.46000000000001</ele>
        <time>2024-09-18T10:17:47Z</time>
      </trkpt>
      <trkpt lat="51.170919975265861" lon="14.998461026698351">
        <ele>181.34999999999999</ele>
        <time>2024-09-18T10:17:58Z</time>
      </trkpt>
      <trkpt lat="51.169925965368748" lon="14.99837402254343">
        <ele>182.31</ele>
        <time>2024-09-18T10:18:08Z</time>
      </trkpt>
      <trkpt lat="51.168463993817568" lon="14.998291041702032">
        <ele>181.83000000000001</ele>
        <time>2024-09-18T10:18:21Z</time>
      </trkpt>
      <trkpt lat="51.168357962742448" lon="14.99826698563993">
        <ele>181.34999999999999</ele>
        <time>2024-09-18T10:18:22Z</time>
      </trkpt>
      <trkpt lat="51.167375016957521" lon="14.998028017580509">
        <ele>177.97999999999999</ele>
        <time>2024-09-18T10:18:31Z</time>
      </trkpt>
      <trkpt lat="51.166280005127192" lon="14.997736997902393">
        <ele>179.41999999999999</ele>
        <time>2024-09-18T10:18:42Z</time>
      </trkpt>
      <trkpt lat="51.165806008502841" lon="14.997571958228946">
        <ele>178.46000000000001</ele>
        <time>2024-09-18T10:18:47Z</time>
      </trkpt>
      <trkpt lat="51.16571799851954" lon="14.997502975165844">
        <ele>178.46000000000001</ele>
        <time>2024-09-18T10:18:48Z</time>
      </trkpt>
      <trkpt lat="51.165638035163283" lon="14.997423011809587">
        <ele>177.97999999999999</ele>
        <time>2024-09-18T10:18:49Z</time>
      </trkpt>
      <trkpt lat="51.165556982159615" lon="14.99734103679657">
        <ele>177.97999999999999</ele>
        <time>2024-09-18T10:18:50Z</time>
      </trkpt>
      <trkpt lat="51.165474001318216" lon="14.99725897796452">
        <ele>177.97999999999999</ele>
        <time>2024-09-18T10:18:51Z</time>
      </trkpt>
      <trkpt lat="51.165399989113212" lon="14.997158981859684">
        <ele>177.97999999999999</ele>
        <time>2024-09-18T10:18:52Z</time>
      </trkpt>
      <trkpt lat="51.165333017706871" lon="14.99704297631979">
        <ele>177.97999999999999</ele>
        <time>2024-09-18T10:18:53Z</time>
      </trkpt>
      <trkpt lat="51.164995981380343" lon="14.996451968327165">
        <ele>177.02000000000001</ele>
        <time>2024-09-18T10:18:58Z</time>
      </trkpt>
      <trkpt lat="51.164930015802383" lon="14.996320959180593">
        <ele>177.97999999999999</ele>
        <time>2024-09-18T10:18:59Z</time>
      </trkpt>
      <trkpt lat="51.164865978062153" lon="14.996193973347545">
        <ele>178.46000000000001</ele>
        <time>2024-09-18T10:19:00Z</time>
      </trkpt>
      <trkpt lat="51.164802024140954" lon="14.996067993342876">
        <ele>178.94</ele>
        <time>2024-09-18T10:19:01Z</time>
      </trkpt>
      <trkpt lat="51.164739998057485" lon="14.99594503082335">
        <ele>179.41999999999999</ele>
        <time>2024-09-18T10:19:02Z</time>
      </trkpt>
      <trkpt lat="51.164133986458182" lon="14.994754968211055">
        <ele>182.31</ele>
        <time>2024-09-18T10:19:12Z</time>
      </trkpt>
      <trkpt lat="51.164076989516616" lon="14.994652038440108">
        <ele>182.31</ele>
        <time>2024-09-18T10:19:13Z</time>
      </trkpt>
      <trkpt lat="51.164016975089908" lon="14.9945920240134">
        <ele>182.31</ele>
        <time>2024-09-18T10:19:14Z</time>
      </trkpt>
      <trkpt lat="51.163945980370045" lon="14.994541984051466">
        <ele>182.31</ele>
        <time>2024-09-18T10:19:15Z</time>
      </trkpt>
      <trkpt lat="51.163872973993421" lon="14.994492027908564">
        <ele>182.31</ele>
        <time>2024-09-18T10:19:16Z</time>
      </trkpt>
      <trkpt lat="51.163798961788416" lon="14.994440982118249">
        <ele>182.31</ele>
        <time>2024-09-18T10:19:17Z</time>
      </trkpt>
      <trkpt lat="51.163501990959048" lon="14.994235038757324">
        <ele>182.78999999999999</ele>
        <time>2024-09-18T10:19:21Z</time>
      </trkpt>
      <trkpt lat="51.163448011502624" lon="14.994125990197062">
        <ele>182.78999999999999</ele>
        <time>2024-09-18T10:19:22Z</time>
      </trkpt>
      <trkpt lat="51.163400989025831" lon="14.99403303489089">
        <ele>182.78999999999999</ele>
        <time>2024-09-18T10:19:23Z</time>
      </trkpt>
      <trkpt lat="51.163356984034181" lon="14.993944019079208">
        <ele>182.78999999999999</ele>
        <time>2024-09-18T10:19:24Z</time>
      </trkpt>
      <trkpt lat="51.163319014012814" lon="14.993857014924288">
        <ele>183.27000000000001</ele>
        <time>2024-09-18T10:19:25Z</time>
      </trkpt>
      <trkpt lat="51.163288000971079" lon="14.993763975799084">
        <ele>183.27000000000001</ele>
        <time>2024-09-18T10:19:26Z</time>
      </trkpt>
      <trkpt lat="51.163260005414486" lon="14.993679989129305">
        <ele>183.27000000000001</ele>
        <time>2024-09-18T10:19:27Z</time>
      </trkpt>
      <trkpt lat="51.163198985159397" lon="14.993498018011451">
        <ele>184.71000000000001</ele>
        <time>2024-09-18T10:19:34Z</time>
      </trkpt>
      <trkpt lat="51.163223963230848" lon="14.99338997527957">
        <ele>183.27000000000001</ele>
        <time>2024-09-18T10:21:02Z</time>
      </trkpt>
      <trkpt lat="51.163234021514654" lon="14.993407996371388">
        <ele>189.03999999999999</ele>
        <time>2024-09-18T10:21:30Z</time>
      </trkpt>
      <trkpt lat="51.163170989602804" lon="14.993414031341672">
        <ele>188.56</ele>
        <time>2024-09-18T10:21:32Z</time>
      </trkpt>
      <trkpt lat="51.163159003481269" lon="14.993376983329654">
        <ele>188.56</ele>
        <time>2024-09-18T10:21:33Z</time>
      </trkpt>
      <trkpt lat="51.163141988217831" lon="14.993327027186751">
        <ele>188.56</ele>
        <time>2024-09-18T10:21:34Z</time>
      </trkpt>
      <trkpt lat="51.163121033459902" lon="14.99326198361814">
        <ele>188.56</ele>
        <time>2024-09-18T10:21:35Z</time>
      </trkpt>
      <trkpt lat="51.162836970761418" lon="14.992582965642214">
        <ele>184.22999999999999</ele>
        <time>2024-09-18T10:21:43Z</time>
      </trkpt>
      <trkpt lat="51.162799000740051" lon="14.992536026984453">
        <ele>183.75</ele>
        <time>2024-09-18T10:21:44Z</time>
      </trkpt>
      <trkpt lat="51.162754995748401" lon="14.992481963708997">
        <ele>183.27000000000001</ele>
        <time>2024-09-18T10:21:45Z</time>
      </trkpt>
      <trkpt lat="51.162714008241892" lon="14.992432007566094">
        <ele>183.27000000000001</ele>
        <time>2024-09-18T10:21:46Z</time>
      </trkpt>
      <trkpt lat="51.162671009078622" lon="14.99237903393805">
        <ele>182.78999999999999</ele>
        <time>2024-09-18T10:21:47Z</time>
      </trkpt>
      <trkpt lat="51.162625998258591" lon="14.992331005632877">
        <ele>182.78999999999999</ele>
        <time>2024-09-18T10:21:48Z</time>
      </trkpt>
      <trkpt lat="51.162575036287308" lon="14.992287000641227">
        <ele>182.78999999999999</ele>
        <time>2024-09-18T10:21:49Z</time>
      </trkpt>
      <trkpt lat="51.162520973011851" lon="14.992238972336054">
        <ele>182.31</ele>
        <time>2024-09-18T10:21:50Z</time>
      </trkpt>
      <trkpt lat="51.162469005212188" lon="14.992195973172784">
        <ele>182.31</ele>
        <time>2024-09-18T10:21:51Z</time>
      </trkpt>
      <trkpt lat="51.162400022149086" lon="14.992173006758094">
        <ele>181.83000000000001</ele>
        <time>2024-09-18T10:21:52Z</time>
      </trkpt>
      <trkpt lat="51.162327015772462" lon="14.992148028686643">
        <ele>181.83000000000001</ele>
        <time>2024-09-18T10:21:53Z</time>
      </trkpt>
      <trkpt lat="51.161928959190845" lon="14.992086002603173">
        <ele>180.38</ele>
        <time>2024-09-18T10:21:58Z</time>
      </trkpt>
      <trkpt lat="51.161837009713054" lon="14.99207803979516">
        <ele>180.38</ele>
        <time>2024-09-18T10:21:59Z</time>
      </trkpt>
      <trkpt lat="51.161747993901372" lon="14.992069993168116">
        <ele>180.38</ele>
        <time>2024-09-18T10:22:00Z</time>
      </trkpt>
      <trkpt lat="51.161668030545115" lon="14.992063036188483">
        <ele>179.90000000000001</ele>
        <time>2024-09-18T10:22:01Z</time>
      </trkpt>
      <trkpt lat="51.16159301251173" lon="14.992055995389819">
        <ele>179.41999999999999</ele>
        <time>2024-09-18T10:22:02Z</time>
      </trkpt>
      <trkpt lat="51.161444988101721" lon="14.992047026753426">
        <ele>178.94</ele>
        <time>2024-09-18T10:22:04Z</time>
      </trkpt>
      <trkpt lat="51.161368964239955" lon="14.992047026753426">
        <ele>178.94</ele>
        <time>2024-09-18T10:22:05Z</time>
      </trkpt>
      <trkpt lat="51.161296041682363" lon="14.992047026753426">
        <ele>178.46000000000001</ele>
        <time>2024-09-18T10:22:06Z</time>
      </trkpt>
      <trkpt lat="51.16118498146534" lon="14.992024982348084">
        <ele>177.5</ele>
        <time>2024-09-18T10:22:09Z</time>
      </trkpt>
      <trkpt lat="51.161109963431954" lon="14.992035962641239">
        <ele>177.02000000000001</ele>
        <time>2024-09-18T10:22:10Z</time>
      </trkpt>
      <trkpt lat="51.161088002845645" lon="14.991887016221881">
        <ele>177.02000000000001</ele>
        <time>2024-09-18T10:22:11Z</time>
      </trkpt>
      <trkpt lat="51.1610989831388" lon="14.991852985695004">
        <ele>177.02000000000001</ele>
        <time>2024-09-18T10:22:12Z</time>
      </trkpt>
      <trkpt lat="51.161132007837296" lon="14.991791965439916">
        <ele>176.53999999999999</ele>
        <time>2024-09-18T10:22:13Z</time>
      </trkpt>
      <trkpt lat="51.161160003393888" lon="14.991739997640252">
        <ele>176.53999999999999</ele>
        <time>2024-09-18T10:22:14Z</time>
      </trkpt>
      <trkpt lat="51.161187998950481" lon="14.991687024012208">
        <ele>176.06</ele>
        <time>2024-09-18T10:22:15Z</time>
      </trkpt>
      <trkpt lat="51.161219011992216" lon="14.991631032899022">
        <ele>175.58000000000001</ele>
        <time>2024-09-18T10:22:16Z</time>
      </trkpt>
      <trkpt lat="51.161491004750133" lon="14.991120994091034">
        <ele>174.13999999999999</ele>
        <time>2024-09-18T10:22:23Z</time>
      </trkpt>
      <trkpt lat="51.161694014444947" lon="14.990743976086378">
        <ele>173.16999999999999</ele>
        <time>2024-09-18T10:22:29Z</time>
      </trkpt>
      <trkpt lat="51.16169803775847" lon="14.990610033273697">
        <ele>173.16999999999999</ele>
        <time>2024-09-18T10:22:30Z</time>
      </trkpt>
      <trkpt lat="51.161667024716735" lon="14.990580026060343">
        <ele>173.16999999999999</ele>
        <time>2024-09-18T10:22:31Z</time>
      </trkpt>
      <trkpt lat="51.161628970876336" lon="14.990544989705086">
        <ele>172.69</ele>
        <time>2024-09-18T10:22:32Z</time>
      </trkpt>
      <trkpt lat="51.161585971713066" lon="14.990505008026958">
        <ele>172.69</ele>
        <time>2024-09-18T10:22:33Z</time>
      </trkpt>
      <trkpt lat="51.161238960921764" lon="14.990180041640997">
        <ele>172.21000000000001</ele>
        <time>2024-09-18T10:22:39Z</time>
      </trkpt>
      <trkpt lat="51.160845011472702" lon="14.989911988377571">
        <ele>172.21000000000001</ele>
        <time>2024-09-18T10:22:45Z</time>
      </trkpt>
      <trkpt lat="51.160779967904091" lon="14.989912994205952">
        <ele>172.21000000000001</ele>
        <time>2024-09-18T10:22:46Z</time>
      </trkpt>
      <trkpt lat="51.160716013982892" lon="14.989934032782912">
        <ele>172.69</ele>
        <time>2024-09-18T10:22:47Z</time>
      </trkpt>
      <trkpt lat="51.160385012626648" lon="14.99003897421062">
        <ele>172.21000000000001</ele>
        <time>2024-09-18T10:22:53Z</time>
      </trkpt>
      <trkpt lat="51.160314017906785" lon="14.989894973114133">
        <ele>172.21000000000001</ele>
        <time>2024-09-18T10:22:56Z</time>
      </trkpt>
      <trkpt lat="51.160237994045019" lon="14.989721970632672">
        <ele>172.21000000000001</ele>
        <time>2024-09-18T10:22:59Z</time>
      </trkpt>
      <trkpt lat="51.160212010145187" lon="14.989661034196615">
        <ele>172.21000000000001</ele>
        <time>2024-09-18T10:23:00Z</time>
      </trkpt>
      <trkpt lat="51.160186026245356" lon="14.989603031426668">
        <ele>171.72999999999999</ele>
        <time>2024-09-18T10:23:01Z</time>
      </trkpt>
      <trkpt lat="51.160159036517143" lon="14.989539999514818">
        <ele>171.72999999999999</ele>
        <time>2024-09-18T10:23:02Z</time>
      </trkpt>
      <trkpt lat="51.160131962969899" lon="14.98947998508811">
        <ele>171.72999999999999</ele>
        <time>2024-09-18T10:23:03Z</time>
      </trkpt>
      <trkpt lat="51.160106984898448" lon="14.989421982318163">
        <ele>171.25</ele>
        <time>2024-09-18T10:23:04Z</time>
      </trkpt>
      <trkpt lat="51.160079995170236" lon="14.989366997033358">
        <ele>171.25</ele>
        <time>2024-09-18T10:23:05Z</time>
      </trkpt>
      <trkpt lat="51.159881008788943" lon="14.988998025655746">
        <ele>168.84999999999999</ele>
        <time>2024-09-18T10:23:12Z</time>
      </trkpt>
      <trkpt lat="51.159849995747209" lon="14.988942034542561">
        <ele>168.37</ele>
        <time>2024-09-18T10:23:13Z</time>
      </trkpt>
      <trkpt lat="51.159804984927177" lon="14.988868022337556">
        <ele>167.88999999999999</ele>
        <time>2024-09-18T10:23:14Z</time>
      </trkpt>
      <trkpt lat="51.159718986600637" lon="14.988824017345905">
        <ele>167.41</ele>
        <time>2024-09-18T10:23:16Z</time>
      </trkpt>
      <trkpt lat="51.159683028236032" lon="14.988805996254086">
        <ele>167.41</ele>
        <time>2024-09-18T10:23:17Z</time>
      </trkpt>
      <trkpt lat="51.159585965797305" lon="14.988704994320869">
        <ele>166.93000000000001</ele>
        <time>2024-09-18T10:23:20Z</time>
      </trkpt>
      <trkpt lat="51.15955201908946" lon="14.988669035956264">
        <ele>166.93000000000001</ele>
        <time>2024-09-18T10:23:21Z</time>
      </trkpt>
      <trkpt lat="51.159524023532867" lon="14.98864003457129">
        <ele>166.93000000000001</ele>
        <time>2024-09-18T10:23:22Z</time>
      </trkpt>
      <trkpt lat="51.159504996612668" lon="14.98862000182271">
        <ele>166.44999999999999</ele>
        <time>2024-09-18T10:23:23Z</time>
      </trkpt>
      <trkpt lat="51.159480018541217" lon="14.988593012094498">
        <ele>166.44999999999999</ele>
        <time>2024-09-18T10:23:24Z</time>
      </trkpt>
      <trkpt lat="51.159446993842721" lon="14.988558981567621">
        <ele>165.96000000000001</ele>
        <time>2024-09-18T10:23:25Z</time>
      </trkpt>
      <trkpt lat="51.159231998026371" lon="14.988334011286497">
        <ele>164.52000000000001</ele>
        <time>2024-09-18T10:23:31Z</time>
      </trkpt>
      <trkpt lat="51.159212971106172" lon="14.988333005458117">
        <ele>164.52000000000001</ele>
        <time>2024-09-18T10:23:32Z</time>
      </trkpt>
      <trkpt lat="51.158970985561609" lon="14.988318001851439">
        <ele>162.12</ele>
        <time>2024-09-18T10:23:39Z</time>
      </trkpt>
      <trkpt lat="51.158889010548592" lon="14.988312972709537">
        <ele>161.63999999999999</ele>
        <time>2024-09-18T10:23:40Z</time>
      </trkpt>
      <trkpt lat="51.158840982243419" lon="14.988377010449767">
        <ele>161.16</ele>
        <time>2024-09-18T10:23:42Z</time>
      </trkpt>
      <trkpt lat="51.158796977251768" lon="14.988436019048095">
        <ele>160.68000000000001</ele>
        <time>2024-09-18T10:23:43Z</time>
      </trkpt>
      <trkpt lat="51.158751966431737" lon="14.988496033474803">
        <ele>159.72</ele>
        <time>2024-09-18T10:23:44Z</time>
      </trkpt>
      <trkpt lat="51.15871399641037" lon="14.988546995446086">
        <ele>159.72</ele>
        <time>2024-09-18T10:23:45Z</time>
      </trkpt>
      <trkpt lat="51.158675020560622" lon="14.988598041236401">
        <ele>159.24000000000001</ele>
        <time>2024-09-18T10:23:46Z</time>
      </trkpt>
      <trkpt lat="51.158631015568972" lon="14.988655960187316">
        <ele>158.75</ele>
        <time>2024-09-18T10:23:47Z</time>
      </trkpt>
      <trkpt lat="51.158604025840759" lon="14.988714968785644">
        <ele>158.27000000000001</ele>
        <time>2024-09-18T10:23:48Z</time>
      </trkpt>
      <trkpt lat="51.15854300558567" lon="14.988847989588976">
        <ele>157.78999999999999</ele>
        <time>2024-09-18T10:23:50Z</time>
      </trkpt>
      <trkpt lat="51.158517021685839" lon="14.988902974873781">
        <ele>157.31</ele>
        <time>2024-09-18T10:23:51Z</time>
      </trkpt>
      <trkpt lat="51.158503023907542" lon="14.988934993743896">
        <ele>156.83000000000001</ele>
        <time>2024-09-18T10:23:52Z</time>
      </trkpt>
      <trkpt lat="51.158492965623736" lon="14.989005988463759">
        <ele>156.83000000000001</ele>
        <time>2024-09-18T10:23:53Z</time>
      </trkpt>
      <trkpt lat="51.158473016694188" lon="14.989100033417344">
        <ele>156.34999999999999</ele>
        <time>2024-09-18T10:23:54Z</time>
      </trkpt>
      <trkpt lat="51.158447032794356" lon="14.989148983731866">
        <ele>155.87</ele>
        <time>2024-09-18T10:23:55Z</time>
      </trkpt>
      <trkpt lat="51.158418031409383" lon="14.989203969016671">
        <ele>155.87</ele>
        <time>2024-09-18T10:23:56Z</time>
      </trkpt>
      <trkpt lat="51.158384000882506" lon="14.989265995100141">
        <ele>155.87</ele>
        <time>2024-09-18T10:23:57Z</time>
      </trkpt>
      <trkpt lat="51.158353993669152" lon="14.989321986213326">
        <ele>155.87</ele>
        <time>2024-09-18T10:23:58Z</time>
      </trkpt>
      <trkpt lat="51.158331027254462" lon="14.989363979548216">
        <ele>155.87</ele>
        <time>2024-09-18T10:23:59Z</time>
      </trkpt>
      <trkpt lat="51.158331027254462" lon="14.989363979548216">
        <ele>155.87</ele>
        <time>2024-09-18T10:24:00Z</time>
      </trkpt>
      <trkpt lat="51.15819901227951" lon="14.989475039765239">
        <ele>156.34999999999999</ele>
        <time>2024-09-18T10:24:01Z</time>
      </trkpt>
      <trkpt lat="51.158163975924253" lon="14.989467998966575">
        <ele>158.27000000000001</ele>
        <time>2024-09-18T10:24:02Z</time>
      </trkpt>
      <trkpt lat="51.158117959275842" lon="14.989459030330181">
        <ele>159.72</ele>
        <time>2024-09-18T10:24:03Z</time>
      </trkpt>
      <trkpt lat="51.158060040324926" lon="14.989443020895123">
        <ele>162.12</ele>
        <time>2024-09-18T10:24:04Z</time>
      </trkpt>
      <trkpt lat="51.157997008413076" lon="14.989384012296796">
        <ele>164.03999999999999</ele>
        <time>2024-09-18T10:24:05Z</time>
      </trkpt>
      <trkpt lat="51.157948980107903" lon="14.989315029233694">
        <ele>165.96000000000001</ele>
        <time>2024-09-18T10:24:06Z</time>
      </trkpt>
      <trkpt lat="51.157655026763678" lon="14.988830974325538">
        <ele>174.62</ele>
        <time>2024-09-18T10:24:13Z</time>
      </trkpt>
      <trkpt lat="51.157608004286885" lon="14.988754028454423">
        <ele>175.09999999999999</ele>
        <time>2024-09-18T10:24:14Z</time>
      </trkpt>
      <trkpt lat="51.157519994303584" lon="14.988612039014697">
        <ele>176.53999999999999</ele>
        <time>2024-09-18T10:24:16Z</time>
      </trkpt>
      <trkpt lat="51.157476995140314" lon="14.988545989617705">
        <ele>177.5</ele>
        <time>2024-09-18T10:24:17Z</time>
      </trkpt>
      <trkpt lat="51.157430978491902" lon="14.988480024039745">
        <ele>177.97999999999999</ele>
        <time>2024-09-18T10:24:18Z</time>
      </trkpt>
      <trkpt lat="51.157380016520619" lon="14.988408023491502">
        <ele>178.94</ele>
        <time>2024-09-18T10:24:19Z</time>
      </trkpt>
      <trkpt lat="51.157331988215446" lon="14.988325964659452">
        <ele>179.41999999999999</ele>
        <time>2024-09-18T10:24:20Z</time>
      </trkpt>
      <trkpt lat="51.157298041507602" lon="14.988227980211377">
        <ele>180.38</ele>
        <time>2024-09-18T10:24:21Z</time>
      </trkpt>
      <trkpt lat="51.157280020415783" lon="14.98812697827816">
        <ele>180.87</ele>
        <time>2024-09-18T10:24:22Z</time>
      </trkpt>
      <trkpt lat="51.157261999323964" lon="14.988020025193691">
        <ele>181.34999999999999</ele>
        <time>2024-09-18T10:24:23Z</time>
      </trkpt>
      <trkpt lat="51.157243978232145" lon="14.98791097663343">
        <ele>182.31</ele>
        <time>2024-09-18T10:24:24Z</time>
      </trkpt>
      <trkpt lat="51.157226040959358" lon="14.987804023548961">
        <ele>182.78999999999999</ele>
        <time>2024-09-18T10:24:25Z</time>
      </trkpt>
      <trkpt lat="51.157186981290579" lon="14.987577041611075">
        <ele>184.71000000000001</ele>
        <time>2024-09-18T10:24:27Z</time>
      </trkpt>
      <trkpt lat="51.157053960487247" lon="14.986789980903268">
        <ele>191.91999999999999</ele>
        <time>2024-09-18T10:24:34Z</time>
      </trkpt>
      <trkpt lat="51.157039040699601" lon="14.986680010333657">
        <ele>192.40000000000001</ele>
        <time>2024-09-18T10:24:35Z</time>
      </trkpt>
      <trkpt lat="51.157026970759034" lon="14.986564004793763">
        <ele>193.36000000000001</ele>
        <time>2024-09-18T10:24:36Z</time>
      </trkpt>
      <trkpt lat="51.157014984637499" lon="14.98645001091063">
        <ele>193.84</ele>
        <time>2024-09-18T10:24:37Z</time>
      </trkpt>
      <trkpt lat="51.157002998515964" lon="14.986337022855878">
        <ele>194.80000000000001</ele>
        <time>2024-09-18T10:24:38Z</time>
      </trkpt>
      <trkpt lat="51.156979026272893" lon="14.986221017315984">
        <ele>195.28</ele>
        <time>2024-09-18T10:24:39Z</time>
      </trkpt>
      <trkpt lat="51.156914988532662" lon="14.985888004302979">
        <ele>196.72999999999999</ele>
        <time>2024-09-18T10:24:42Z</time>
      </trkpt>
      <trkpt lat="51.156896967440844" lon="14.985773004591465">
        <ele>197.21000000000001</ele>
        <time>2024-09-18T10:24:43Z</time>
      </trkpt>
      <trkpt lat="51.156835025176406" lon="14.985339995473623">
        <ele>198.16999999999999</ele>
        <time>2024-09-18T10:24:47Z</time>
      </trkpt>
      <trkpt lat="51.156819015741348" lon="14.985261037945747">
        <ele>198.65000000000001</ele>
        <time>2024-09-18T10:24:48Z</time>
      </trkpt>
      <trkpt lat="51.156805017963052" lon="14.98518199659884">
        <ele>198.65000000000001</ele>
        <time>2024-09-18T10:24:49Z</time>
      </trkpt>
      <trkpt lat="51.156789008527994" lon="14.985043024644256">
        <ele>198.65000000000001</ele>
        <time>2024-09-18T10:24:50Z</time>
      </trkpt>
      <trkpt lat="51.156815998256207" lon="14.984980998560786">
        <ele>198.65000000000001</ele>
        <time>2024-09-18T10:24:51Z</time>
      </trkpt>
      <trkpt lat="51.156841982156038" lon="14.984920984134078">
        <ele>199.13</ele>
        <time>2024-09-18T10:24:52Z</time>
      </trkpt>
      <trkpt lat="51.156850028783083" lon="14.98490103520453">
        <ele>199.13</ele>
        <time>2024-09-18T10:24:53Z</time>
      </trkpt>
      <trkpt lat="51.156840976327658" lon="14.984891982749104">
        <ele>199.61000000000001</ele>
        <time>2024-09-18T10:24:54Z</time>
      </trkpt>
      <trkpt lat="51.156805017963052" lon="14.984856024384499">
        <ele>199.61000000000001</ele>
        <time>2024-09-18T10:24:55Z</time>
      </trkpt>
      <trkpt lat="51.156722037121654" lon="14.98490103520453">
        <ele>199.61000000000001</ele>
        <time>2024-09-18T10:24:56Z</time>
      </trkpt>
      <trkpt lat="51.156711978837848" lon="14.98490103520453">
        <ele>200.09</ele>
        <time>2024-09-18T10:24:57Z</time>
      </trkpt>
      <trkpt lat="51.156670991331339" lon="14.98490396887064">
        <ele>200.56999999999999</ele>
        <time>2024-09-18T10:24:58Z</time>
      </trkpt>
      <trkpt lat="51.156623968854547" lon="14.984905980527401">
        <ele>200.56999999999999</ele>
        <time>2024-09-18T10:24:59Z</time>
      </trkpt>
      <trkpt lat="51.155845038592815" lon="14.984954008832574">
        <ele>202.49000000000001</ele>
        <time>2024-09-18T10:25:12Z</time>
      </trkpt>
      <trkpt lat="51.155012967064977" lon="14.9850769713521">
        <ele>201.05000000000001</ele>
        <time>2024-09-18T10:25:24Z</time>
      </trkpt>
      <trkpt lat="51.154941972345114" lon="14.985093986615539">
        <ele>201.05000000000001</ele>
        <time>2024-09-18T10:25:25Z</time>
      </trkpt>
      <trkpt lat="51.15489000454545" lon="14.985136985778809">
        <ele>201.05000000000001</ele>
        <time>2024-09-18T10:25:26Z</time>
      </trkpt>
      <trkpt lat="51.154840970411897" lon="14.985177973285317">
        <ele>201.53</ele>
        <time>2024-09-18T10:25:27Z</time>
      </trkpt>
      <trkpt lat="51.154794031754136" lon="14.985218038782477">
        <ele>201.53</ele>
        <time>2024-09-18T10:25:28Z</time>
      </trkpt>
      <trkpt lat="51.154748015105724" lon="14.985257014632225">
        <ele>201.05000000000001</ele>
        <time>2024-09-18T10:25:29Z</time>
      </trkpt>
      <trkpt lat="51.154671991243958" lon="14.985376037657261">
        <ele>201.53</ele>
        <time>2024-09-18T10:25:32Z</time>
      </trkpt>
      <trkpt lat="51.154681965708733" lon="14.985422976315022">
        <ele>201.53</ele>
        <time>2024-09-18T10:25:33Z</time>
      </trkpt>
      <trkpt lat="51.15469504147768" lon="14.985480979084969">
        <ele>202.00999999999999</ele>
        <time>2024-09-18T10:25:34Z</time>
      </trkpt>
      <trkpt lat="51.154708033427596" lon="14.985539987683296">
        <ele>202.49000000000001</ele>
        <time>2024-09-18T10:25:35Z</time>
      </trkpt>
      <trkpt lat="51.154721025377512" lon="14.985598996281624">
        <ele>202.49000000000001</ele>
        <time>2024-09-18T10:25:36Z</time>
      </trkpt>
      <trkpt lat="51.154748015105724" lon="14.985723970457911">
        <ele>203.46000000000001</ele>
        <time>2024-09-18T10:25:38Z</time>
      </trkpt>
      <trkpt lat="51.154792020097375" lon="14.985925974324346">
        <ele>204.41999999999999</ele>
        <time>2024-09-18T10:25:41Z</time>
      </trkpt>
      <trkpt lat="51.154808029532433" lon="14.985997974872589">
        <ele>204.90000000000001</ele>
        <time>2024-09-18T10:25:42Z</time>
      </trkpt>
      <trkpt lat="51.154914982616901" lon="14.986453028395772">
        <ele>204.90000000000001</ele>
        <time>2024-09-18T10:25:48Z</time>
      </trkpt>
      <trkpt lat="51.155002992600203" lon="14.986830968409777">
        <ele>205.86000000000001</ele>
        <time>2024-09-18T10:25:53Z</time>
      </trkpt>
      <trkpt lat="51.155141964554787" lon="14.987341007217765">
        <ele>205.86000000000001</ele>
        <time>2024-09-18T10:26:00Z</time>
      </trkpt>
      <trkpt lat="51.155244978144765" lon="14.987720036879182">
        <ele>205.38</ele>
        <time>2024-09-18T10:26:05Z</time>
      </trkpt>
      <trkpt lat="51.155260987579823" lon="14.987777033820748">
        <ele>204.90000000000001</ele>
        <time>2024-09-18T10:26:06Z</time>
      </trkpt>
      <trkpt lat="51.155272973701358" lon="14.987822966650128">
        <ele>204.90000000000001</ele>
        <time>2024-09-18T10:26:07Z</time>
      </trkpt>
      <trkpt lat="51.155284037813544" lon="14.987860014662147">
        <ele>204.90000000000001</ele>
        <time>2024-09-18T10:26:08Z</time>
      </trkpt>
      <trkpt lat="51.155212037265301" lon="14.987923968583345">
        <ele>204.41999999999999</ele>
        <time>2024-09-18T10:26:09Z</time>
      </trkpt>
      <trkpt lat="51.15518999285996" lon="14.987942995503545">
        <ele>204.41999999999999</ele>
        <time>2024-09-18T10:26:10Z</time>
      </trkpt>
      <trkpt lat="51.155156968161464" lon="14.987970991060138">
        <ele>204.41999999999999</ele>
        <time>2024-09-18T10:26:11Z</time>
      </trkpt>
      <trkpt lat="51.155122015625238" lon="14.98799798078835">
        <ele>203.94</ele>
        <time>2024-09-18T10:26:12Z</time>
      </trkpt>
      <trkpt lat="51.15503802895546" lon="14.988048020750284">
        <ele>203.46000000000001</ele>
        <time>2024-09-18T10:26:14Z</time>
      </trkpt>
      <trkpt lat="51.154751032590866" lon="14.988224962726235">
        <ele>202.00999999999999</ele>
        <time>2024-09-18T10:26:20Z</time>
      </trkpt>
      <trkpt lat="51.154695963487029" lon="14.988261004909873">
        <ele>201.53</ele>
        <time>2024-09-18T10:26:21Z</time>
      </trkpt>
      <trkpt lat="51.154594961553812" lon="14.988477006554604">
        <ele>201.05000000000001</ele>
        <time>2024-09-18T10:26:22Z</time>
      </trkpt>
      <trkpt lat="51.15460803732276" lon="14.988526962697506">
        <ele>200.56999999999999</ele>
        <time>2024-09-18T10:26:23Z</time>
      </trkpt>
      <trkpt lat="51.154625974595547" lon="14.988601980730891">
        <ele>200.56999999999999</ele>
        <time>2024-09-18T10:26:24Z</time>
      </trkpt>
      <trkpt lat="51.154693029820919" lon="14.988885037600994">
        <ele>199.61000000000001</ele>
        <time>2024-09-18T10:26:28Z</time>
      </trkpt>
      <trkpt lat="51.154708033427596" lon="14.98894396238029">
        <ele>199.61000000000001</ele>
        <time>2024-09-18T10:26:29Z</time>
      </trkpt>
      <trkpt lat="51.154670985415578" lon="14.989055022597313">
        <ele>199.61000000000001</ele>
        <time>2024-09-18T10:26:30Z</time>
      </trkpt>
      <trkpt lat="51.154645001515746" lon="14.989071032032371">
        <ele>199.13</ele>
        <time>2024-09-18T10:26:31Z</time>
      </trkpt>
      <trkpt lat="51.154617005959153" lon="14.989087041467428">
        <ele>199.13</ele>
        <time>2024-09-18T10:26:32Z</time>
      </trkpt>
      <trkpt lat="51.154585992917418" lon="14.989105984568596">
        <ele>198.65000000000001</ele>
        <time>2024-09-18T10:26:33Z</time>
      </trkpt>
      <trkpt lat="51.15454500541091" lon="14.989130962640047">
        <ele>198.65000000000001</ele>
        <time>2024-09-18T10:26:34Z</time>
      </trkpt>
      <trkpt lat="51.154499994590878" lon="14.98915895819664">
        <ele>197.69</ele>
        <time>2024-09-18T10:26:35Z</time>
      </trkpt>
      <trkpt lat="51.154217021539807" lon="14.989245962351561">
        <ele>196.25</ele>
        <time>2024-09-18T10:26:42Z</time>
      </trkpt>
      <trkpt lat="51.154205035418272" lon="14.989187037572265">
        <ele>196.25</ele>
        <time>2024-09-18T10:26:43Z</time>
      </trkpt>
      <trkpt lat="51.154192965477705" lon="14.989125011488795">
        <ele>195.77000000000001</ele>
        <time>2024-09-18T10:26:44Z</time>
      </trkpt>
      <trkpt lat="51.15409498102963" lon="14.988647997379303">
        <ele>195.77000000000001</ele>
        <time>2024-09-18T10:26:50Z</time>
      </trkpt>
      <trkpt lat="51.154062040150166" lon="14.988489998504519">
        <ele>195.28</ele>
        <time>2024-09-18T10:26:52Z</time>
      </trkpt>
      <trkpt lat="51.154047958552837" lon="14.988417997956276">
        <ele>195.28</ele>
        <time>2024-09-18T10:26:53Z</time>
      </trkpt>
      <trkpt lat="51.15400898270309" lon="14.988228986039758">
        <ele>194.31999999999999</ele>
        <time>2024-09-18T10:26:56Z</time>
      </trkpt>
      <trkpt lat="51.153978975489736" lon="14.988081967458129">
        <ele>193.36000000000001</ele>
        <time>2024-09-18T10:26:58Z</time>
      </trkpt>
      <trkpt lat="51.153962966054678" lon="14.988002004101872">
        <ele>192.88</ele>
        <time>2024-09-18T10:26:59Z</time>
      </trkpt>
      <trkpt lat="51.153947040438652" lon="14.987924974411726">
        <ele>192.40000000000001</ele>
        <time>2024-09-18T10:27:00Z</time>
      </trkpt>
      <trkpt lat="51.153932036831975" lon="14.987850040197372">
        <ele>191.91999999999999</ele>
        <time>2024-09-18T10:27:01Z</time>
      </trkpt>
      <trkpt lat="51.153917033225298" lon="14.987776027992368">
        <ele>191.44</ele>
        <time>2024-09-18T10:27:02Z</time>
      </trkpt>
      <trkpt lat="51.153902029618621" lon="14.987706961110234">
        <ele>190.96000000000001</ele>
        <time>2024-09-18T10:27:03Z</time>
      </trkpt>
      <trkpt lat="51.153878979384899" lon="14.987593973055482">
        <ele>190.47999999999999</ele>
        <time>2024-09-18T10:27:05Z</time>
      </trkpt>
      <trkpt lat="51.153872022405267" lon="14.987556003034115">
        <ele>190</ele>
        <time>2024-09-18T10:27:06Z</time>
      </trkpt>
      <trkpt lat="51.153865987434983" lon="14.987527001649141">
        <ele>189.52000000000001</ele>
        <time>2024-09-18T10:27:07Z</time>
      </trkpt>
      <trkpt lat="51.153861964121461" lon="14.987507974728942">
        <ele>189.03999999999999</ele>
        <time>2024-09-18T10:27:08Z</time>
      </trkpt>
      <trkpt lat="51.153861964121461" lon="14.987507974728942">
        <ele>188.56</ele>
        <time>2024-09-18T10:27:22Z</time>
      </trkpt>
      <trkpt lat="51.153861964121461" lon="14.987507974728942">
        <ele>188.08000000000001</ele>
        <time>2024-09-18T10:27:33Z</time>
      </trkpt>
      <trkpt lat="51.153917033225298" lon="14.987488025799394">
        <ele>193.36000000000001</ele>
        <time>2024-09-18T10:27:41Z</time>
      </trkpt>
      <trkpt lat="51.153960032388568" lon="14.987839981913567">
        <ele>195.77000000000001</ele>
        <time>2024-09-18T10:27:51Z</time>
      </trkpt>
      <trkpt lat="51.154005965217948" lon="14.988257987424731">
        <ele>197.69</ele>
        <time>2024-09-18T10:28:02Z</time>
      </trkpt>
      <trkpt lat="51.154091041535139" lon="14.988813959062099">
        <ele>199.61000000000001</ele>
        <time>2024-09-18T10:28:14Z</time>
      </trkpt>
      <trkpt lat="51.15418198518455" lon="14.989258032292128">
        <ele>202.00999999999999</ele>
        <time>2024-09-18T10:28:24Z</time>
      </trkpt>
      <trkpt lat="51.154177961871028" lon="14.989342018961906">
        <ele>202.00999999999999</ele>
        <time>2024-09-18T10:28:27Z</time>
      </trkpt>
      <trkpt lat="51.154151977971196" lon="14.9893509875983">
        <ele>201.53</ele>
        <time>2024-09-18T10:28:28Z</time>
      </trkpt>
      <trkpt lat="51.154113002121449" lon="14.989365991204977">
        <ele>201.53</ele>
        <time>2024-09-18T10:28:29Z</time>
      </trkpt>
      <trkpt lat="51.154067991301417" lon="14.989383006468415">
        <ele>201.05000000000001</ele>
        <time>2024-09-18T10:28:30Z</time>
      </trkpt>
      <trkpt lat="51.153889037668705" lon="14.989449977874756">
        <ele>200.09</ele>
        <time>2024-09-18T10:28:34Z</time>
      </trkpt>
      <trkpt lat="51.153889037668705" lon="14.989449977874756">
        <ele>200.09</ele>
        <time>2024-09-18T10:28:35Z</time>
      </trkpt>
      <trkpt lat="51.153777977451682" lon="14.988943040370941">
        <ele>199.13</ele>
        <time>2024-09-18T10:28:40Z</time>
      </trkpt>
      <trkpt lat="51.153756016865373" lon="14.988732989877462">
        <ele>198.65000000000001</ele>
        <time>2024-09-18T10:28:42Z</time>
      </trkpt>
      <trkpt lat="51.153670018538833" lon="14.988238038495183">
        <ele>198.65000000000001</ele>
        <time>2024-09-18T10:28:47Z</time>
      </trkpt>
      <trkpt lat="51.153502967208624" lon="14.987605037167668">
        <ele>199.61000000000001</ele>
        <time>2024-09-18T10:28:54Z</time>
      </trkpt>
      <trkpt lat="51.153502967208624" lon="14.987605037167668">
        <ele>199.61000000000001</ele>
        <time>2024-09-18T10:28:55Z</time>
      </trkpt>
      <trkpt lat="51.153502967208624" lon="14.987605037167668">
        <ele>199.61000000000001</ele>
        <time>2024-09-18T10:28:56Z</time>
      </trkpt>
      <trkpt lat="51.153410011902452" lon="14.987601013854146">
        <ele>200.09</ele>
        <time>2024-09-18T10:29:01Z</time>
      </trkpt>
      <trkpt lat="51.153008015826344" lon="14.987585004419088">
        <ele>199.61000000000001</ele>
        <time>2024-09-18T10:29:12Z</time>
      </trkpt>
      <trkpt lat="51.152961999177933" lon="14.987634960561991">
        <ele>199.13</ele>
        <time>2024-09-18T10:29:13Z</time>
      </trkpt>
      <trkpt lat="51.152923023328185" lon="14.988020025193691">
        <ele>194.31999999999999</ele>
        <time>2024-09-18T10:29:25Z</time>
      </trkpt>
      <trkpt lat="51.152919000014663" lon="14.988059001043439">
        <ele>194.31999999999999</ele>
        <time>2024-09-18T10:29:36Z</time>
      </trkpt>
      <trkpt lat="51.152901984751225" lon="14.988367035984993">
        <ele>190.96000000000001</ele>
        <time>2024-09-18T10:29:46Z</time>
      </trkpt>
      <trkpt lat="51.152901984751225" lon="14.988541966304183">
        <ele>190.96000000000001</ele>
        <time>2024-09-18T10:29:53Z</time>
      </trkpt>
      <trkpt lat="51.152901984751225" lon="14.988604998216033">
        <ele>191.91999999999999</ele>
        <time>2024-09-18T10:29:54Z</time>
      </trkpt>
      <trkpt lat="51.152901984751225" lon="14.988667024299502">
        <ele>191.91999999999999</ele>
        <time>2024-09-18T10:29:55Z</time>
      </trkpt>
      <trkpt lat="51.152901984751225" lon="14.988744975998998">
        <ele>191.44</ele>
        <time>2024-09-18T10:30:04Z</time>
      </trkpt>
      <trkpt lat="51.152901984751225" lon="14.988744975998998">
        <ele>191.44</ele>
        <time>2024-09-18T10:30:22Z</time>
      </trkpt>
      <trkpt lat="51.152881029993296" lon="14.988869028165936">
        <ele>216.91</ele>
        <time>2024-09-18T10:45:33Z</time>
      </trkpt>
      <trkpt lat="51.152901984751225" lon="14.988996013998985">
        <ele>212.11000000000001</ele>
        <time>2024-09-18T10:45:59Z</time>
      </trkpt>
      <trkpt lat="51.15299703553319" lon="14.989455007016659">
        <ele>210.66999999999999</ele>
        <time>2024-09-18T10:46:13Z</time>
      </trkpt>
      <trkpt lat="51.153010027483106" lon="14.989510998129845">
        <ele>210.19</ele>
        <time>2024-09-18T10:46:14Z</time>
      </trkpt>
      <trkpt lat="51.153030982241035" lon="14.989600013941526">
        <ele>210.19</ele>
        <time>2024-09-18T10:46:15Z</time>
      </trkpt>
      <trkpt lat="51.153030982241035" lon="14.989600013941526">
        <ele>210.19</ele>
        <time>2024-09-18T10:46:16Z</time>
      </trkpt>
      <trkpt lat="51.152996029704809" lon="14.989604959264398">
        <ele>210.19</ele>
        <time>2024-09-18T10:46:17Z</time>
      </trkpt>
      <trkpt lat="51.153030982241035" lon="14.989600013941526">
        <ele>209.69999999999999</ele>
        <time>2024-09-18T10:46:18Z</time>
      </trkpt>
      <trkpt lat="51.153098037466407" lon="14.989589033648372">
        <ele>209.69999999999999</ele>
        <time>2024-09-18T10:46:19Z</time>
      </trkpt>
      <trkpt lat="51.153153022751212" lon="14.989578975364566">
        <ele>209.69999999999999</ele>
        <time>2024-09-18T10:46:20Z</time>
      </trkpt>
      <trkpt lat="51.15334396250546" lon="14.989546034485102">
        <ele>209.22</ele>
        <time>2024-09-18T10:46:23Z</time>
      </trkpt>
      <trkpt lat="51.153759034350514" lon="14.989473028108478">
        <ele>207.30000000000001</ele>
        <time>2024-09-18T10:46:29Z</time>
      </trkpt>
      <trkpt lat="51.153832040727139" lon="14.989460036158562">
        <ele>206.34</ele>
        <time>2024-09-18T10:46:30Z</time>
      </trkpt>
      <trkpt lat="51.154234958812594" lon="14.989319974556565">
        <ele>204.90000000000001</ele>
        <time>2024-09-18T10:46:37Z</time>
      </trkpt>
      <trkpt lat="51.154456995427608" lon="14.989185025915504">
        <ele>203.94</ele>
        <time>2024-09-18T10:46:41Z</time>
      </trkpt>
      <trkpt lat="51.154624968767166" lon="14.989083018153906">
        <ele>203.46000000000001</ele>
        <time>2024-09-18T10:46:44Z</time>
      </trkpt>
      <trkpt lat="51.154658999294043" lon="14.989061979576945">
        <ele>202.97999999999999</ele>
        <time>2024-09-18T10:46:45Z</time>
      </trkpt>
      <trkpt lat="51.154707027599216" lon="14.98894102871418">
        <ele>202.97999999999999</ele>
        <time>2024-09-18T10:46:46Z</time>
      </trkpt>
      <trkpt lat="51.154690012335777" lon="14.988871039822698">
        <ele>202.97999999999999</ele>
        <time>2024-09-18T10:46:47Z</time>
      </trkpt>
      <trkpt lat="51.154670985415578" lon="14.988790992647409">
        <ele>202.49000000000001</ele>
        <time>2024-09-18T10:46:48Z</time>
      </trkpt>
      <trkpt lat="51.154650030657649" lon="14.98870600014925">
        <ele>202.00999999999999</ele>
        <time>2024-09-18T10:46:49Z</time>
      </trkpt>
      <trkpt lat="51.15463200956583" lon="14.988628970459104">
        <ele>201.53</ele>
        <time>2024-09-18T10:46:50Z</time>
      </trkpt>
      <trkpt lat="51.154614994302392" lon="14.98855696991086">
        <ele>201.53</ele>
        <time>2024-09-18T10:46:51Z</time>
      </trkpt>
      <trkpt lat="51.154597979038954" lon="14.988484969362617">
        <ele>201.05000000000001</ele>
        <time>2024-09-18T10:46:52Z</time>
      </trkpt>
      <trkpt lat="51.154701998457313" lon="14.988416992127895">
        <ele>200.56999999999999</ele>
        <time>2024-09-18T10:46:53Z</time>
      </trkpt>
      <trkpt lat="51.154744997620583" lon="14.988388996571302">
        <ele>200.09</ele>
        <time>2024-09-18T10:46:54Z</time>
      </trkpt>
      <trkpt lat="51.15480300039053" lon="14.988352032378316">
        <ele>200.09</ele>
        <time>2024-09-18T10:46:55Z</time>
      </trkpt>
      <trkpt lat="51.154863014817238" lon="14.988312972709537">
        <ele>199.61000000000001</ele>
        <time>2024-09-18T10:46:56Z</time>
      </trkpt>
      <trkpt lat="51.155085973441601" lon="14.98816897161305">
        <ele>198.65000000000001</ele>
        <time>2024-09-18T10:47:00Z</time>
      </trkpt>
      <trkpt lat="51.155138025060296" lon="14.988135024905205">
        <ele>198.16999999999999</ele>
        <time>2024-09-18T10:47:01Z</time>
      </trkpt>
      <trkpt lat="51.155327036976814" lon="14.988011978566647">
        <ele>198.16999999999999</ele>
        <time>2024-09-18T10:47:06Z</time>
      </trkpt>
      <trkpt lat="51.155374981462955" lon="14.987979037687182">
        <ele>198.65000000000001</ele>
        <time>2024-09-18T10:47:08Z</time>
      </trkpt>
      <trkpt lat="51.155459973961115" lon="14.987920029088855">
        <ele>198.65000000000001</ele>
        <time>2024-09-18T10:47:10Z</time>
      </trkpt>
      <trkpt lat="51.155497021973133" lon="14.987893039360642">
        <ele>198.16999999999999</ele>
        <time>2024-09-18T10:47:11Z</time>
      </trkpt>
      <trkpt lat="51.155518982559443" lon="14.987765969708562">
        <ele>198.16999999999999</ele>
        <time>2024-09-18T10:47:12Z</time>
      </trkpt>
      <trkpt lat="51.155504984781146" lon="14.987706039100885">
        <ele>197.69</ele>
        <time>2024-09-18T10:47:13Z</time>
      </trkpt>
      <trkpt lat="51.155488975346088" lon="14.987635966390371">
        <ele>197.69</ele>
        <time>2024-09-18T10:47:14Z</time>
      </trkpt>
      <trkpt lat="51.155470032244921" lon="14.987557008862495">
        <ele>197.21000000000001</ele>
        <time>2024-09-18T10:47:15Z</time>
      </trkpt>
      <trkpt lat="51.155452011153102" lon="14.987479979172349">
        <ele>196.72999999999999</ele>
        <time>2024-09-18T10:47:16Z</time>
      </trkpt>
      <trkpt lat="51.155312033370137" lon="14.986883020028472">
        <ele>193.84</ele>
        <time>2024-09-18T10:47:24Z</time>
      </trkpt>
      <trkpt lat="51.15521396510303" lon="14.986470965668559">
        <ele>191.91999999999999</ele>
        <time>2024-09-18T10:47:30Z</time>
      </trkpt>
      <trkpt lat="51.155196027830243" lon="14.98640701174736">
        <ele>191.91999999999999</ele>
        <time>2024-09-18T10:47:31Z</time>
      </trkpt>
      <trkpt lat="51.155107012018561" lon="14.986095037311316">
        <ele>190.47999999999999</ele>
        <time>2024-09-18T10:47:36Z</time>
      </trkpt>
      <trkpt lat="51.155091002583504" lon="14.986038040369749">
        <ele>190</ele>
        <time>2024-09-18T10:47:37Z</time>
      </trkpt>
      <trkpt lat="51.154940966516733" lon="14.986026976257563">
        <ele>189.03999999999999</ele>
        <time>2024-09-18T10:47:41Z</time>
      </trkpt>
      <trkpt lat="51.154809035360813" lon="14.986005015671253">
        <ele>189.03999999999999</ele>
        <time>2024-09-18T10:47:42Z</time>
      </trkpt>
      <trkpt lat="51.154794031754136" lon="14.985935026779771">
        <ele>189.03999999999999</ele>
        <time>2024-09-18T10:47:43Z</time>
      </trkpt>
      <trkpt lat="51.154779028147459" lon="14.985864032059908">
        <ele>189.03999999999999</ele>
        <time>2024-09-18T10:47:44Z</time>
      </trkpt>
      <trkpt lat="51.154765030369163" lon="14.9858040176332">
        <ele>188.56</ele>
        <time>2024-09-18T10:47:45Z</time>
      </trkpt>
      <trkpt lat="51.154751032590866" lon="14.985738974064589">
        <ele>188.56</ele>
        <time>2024-09-18T10:47:46Z</time>
      </trkpt>
      <trkpt lat="51.154735023155808" lon="14.985665967687964">
        <ele>188.56</ele>
        <time>2024-09-18T10:47:47Z</time>
      </trkpt>
      <trkpt lat="51.154721025377512" lon="14.985598996281624">
        <ele>188.08000000000001</ele>
        <time>2024-09-18T10:47:48Z</time>
      </trkpt>
      <trkpt lat="51.154785985127091" lon="14.98522499576211">
        <ele>188.08000000000001</ele>
        <time>2024-09-18T10:47:54Z</time>
      </trkpt>
      <trkpt lat="51.154820015653968" lon="14.985195994377136">
        <ele>188.56</ele>
        <time>2024-09-18T10:47:55Z</time>
      </trkpt>
      <trkpt lat="51.154861003160477" lon="14.98516196385026">
        <ele>188.08000000000001</ele>
        <time>2024-09-18T10:47:56Z</time>
      </trkpt>
      <trkpt lat="51.154907019808888" lon="14.985122988000512">
        <ele>188.08000000000001</ele>
        <time>2024-09-18T10:47:57Z</time>
      </trkpt>
      <trkpt lat="51.154972985386848" lon="14.985087029635906">
        <ele>188.56</ele>
        <time>2024-09-18T10:47:58Z</time>
      </trkpt>
      <trkpt lat="51.155149005353451" lon="14.985045958310366">
        <ele>189.52000000000001</ele>
        <time>2024-09-18T10:48:01Z</time>
      </trkpt>
      <trkpt lat="51.155858030542731" lon="14.984953003004193">
        <ele>188.56</ele>
        <time>2024-09-18T10:48:13Z</time>
      </trkpt>
      <trkpt lat="51.155951991677284" lon="14.984943028539419">
        <ele>188.56</ele>
        <time>2024-09-18T10:48:14Z</time>
      </trkpt>
      <trkpt lat="51.156037990003824" lon="14.984937999397516">
        <ele>188.56</ele>
        <time>2024-09-18T10:48:15Z</time>
      </trkpt>
      <trkpt lat="51.156120970845222" lon="14.984933976083994">
        <ele>189.03999999999999</ele>
        <time>2024-09-18T10:48:16Z</time>
      </trkpt>
      <trkpt lat="51.156204035505652" lon="14.984929030761123">
        <ele>189.52000000000001</ele>
        <time>2024-09-18T10:48:17Z</time>
      </trkpt>
      <trkpt lat="51.156506035476923" lon="14.984913021326065">
        <ele>191.44</ele>
        <time>2024-09-18T10:48:21Z</time>
      </trkpt>
      <trkpt lat="51.156565966084599" lon="14.984910003840923">
        <ele>191.91999999999999</ele>
        <time>2024-09-18T10:48:22Z</time>
      </trkpt>
      <trkpt lat="51.156616006046534" lon="14.984906986355782">
        <ele>192.40000000000001</ele>
        <time>2024-09-18T10:48:23Z</time>
      </trkpt>
      <trkpt lat="51.156661016866565" lon="14.98490396887064">
        <ele>192.88</ele>
        <time>2024-09-18T10:48:24Z</time>
      </trkpt>
      <trkpt lat="51.156717007979751" lon="14.98490103520453">
        <ele>193.36000000000001</ele>
        <time>2024-09-18T10:48:25Z</time>
      </trkpt>
      <trkpt lat="51.156850028783083" lon="14.98490103520453">
        <ele>193.84</ele>
        <time>2024-09-18T10:48:26Z</time>
      </trkpt>
      <trkpt lat="51.156872995197773" lon="14.98490103520453">
        <ele>194.31999999999999</ele>
        <time>2024-09-18T10:48:27Z</time>
      </trkpt>
      <trkpt lat="51.156946001574397" lon="14.98490103520453">
        <ele>194.80000000000001</ele>
        <time>2024-09-18T10:48:28Z</time>
      </trkpt>
      <trkpt lat="51.157020013779402" lon="14.98490103520453">
        <ele>195.28</ele>
        <time>2024-09-18T10:48:29Z</time>
      </trkpt>
      <trkpt lat="51.157310027629137" lon="14.98490103520453">
        <ele>196.25</ele>
        <time>2024-09-18T10:48:33Z</time>
      </trkpt>
      <trkpt lat="51.157378004863858" lon="14.98490103520453">
        <ele>196.72999999999999</ele>
        <time>2024-09-18T10:48:34Z</time>
      </trkpt>
      <trkpt lat="51.157439025118947" lon="14.98490103520453">
        <ele>196.72999999999999</ele>
        <time>2024-09-18T10:48:35Z</time>
      </trkpt>
      <trkpt lat="51.157577997073531" lon="14.98490103520453">
        <ele>196.72999999999999</ele>
        <time>2024-09-18T10:48:37Z</time>
      </trkpt>
      <trkpt lat="51.157667012885213" lon="14.984876979142427">
        <ele>196.72999999999999</ele>
        <time>2024-09-18T10:48:38Z</time>
      </trkpt>
      <trkpt lat="51.157743958756328" lon="14.984833979979157">
        <ele>196.25</ele>
        <time>2024-09-18T10:48:39Z</time>
      </trkpt>
      <trkpt lat="51.157825011759996" lon="14.984782012179494">
        <ele>195.77000000000001</ele>
        <time>2024-09-18T10:48:40Z</time>
      </trkpt>
      <trkpt lat="51.157879997044802" lon="14.984707999974489">
        <ele>195.28</ele>
        <time>2024-09-18T10:48:41Z</time>
      </trkpt>
      <trkpt lat="51.158217033371329" lon="14.984459979459643">
        <ele>192.88</ele>
        <time>2024-09-18T10:48:46Z</time>
      </trkpt>
      <trkpt lat="51.158335972577333" lon="14.984312038868666">
        <ele>191.91999999999999</ele>
        <time>2024-09-18T10:48:48Z</time>
      </trkpt>
      <trkpt lat="51.15837000310421" lon="14.984218999743462">
        <ele>191.91999999999999</ele>
        <time>2024-09-18T10:48:49Z</time>
      </trkpt>
      <trkpt lat="51.158399004489183" lon="14.984122021123767">
        <ele>191.44</ele>
        <time>2024-09-18T10:48:50Z</time>
      </trkpt>
      <trkpt lat="51.158427000045776" lon="14.984026970341802">
        <ele>191.44</ele>
        <time>2024-09-18T10:48:51Z</time>
      </trkpt>
      <trkpt lat="51.158460024744272" lon="14.983913982287049">
        <ele>190.96000000000001</ele>
        <time>2024-09-18T10:48:52Z</time>
      </trkpt>
      <trkpt lat="51.158464970067143" lon="14.983841981738806">
        <ele>190.47999999999999</ele>
        <time>2024-09-18T10:48:53Z</time>
      </trkpt>
      <trkpt lat="51.158473016694188" lon="14.983747014775872">
        <ele>190.47999999999999</ele>
        <time>2024-09-18T10:48:54Z</time>
      </trkpt>
      <trkpt lat="51.15847997367382" lon="14.983651963993907">
        <ele>190</ele>
        <time>2024-09-18T10:48:55Z</time>
      </trkpt>
      <trkpt lat="51.158488020300865" lon="14.983556997030973">
        <ele>189.52000000000001</ele>
        <time>2024-09-18T10:48:56Z</time>
      </trkpt>
      <trkpt lat="51.158510986715555" lon="14.983256002888083">
        <ele>189.03999999999999</ele>
        <time>2024-09-18T10:48:59Z</time>
      </trkpt>
      <trkpt lat="51.15852003917098" lon="14.983145026490092">
        <ele>188.56</ele>
        <time>2024-09-18T10:49:00Z</time>
      </trkpt>
      <trkpt lat="51.158561026677489" lon="14.982615038752556">
        <ele>188.56</ele>
        <time>2024-09-18T10:49:05Z</time>
      </trkpt>
      <trkpt lat="51.158568989485502" lon="14.982508001849055">
        <ele>188.08000000000001</ele>
        <time>2024-09-18T10:49:06Z</time>
      </trkpt>
      <trkpt lat="51.158577958121896" lon="14.982396019622684">
        <ele>188.08000000000001</ele>
        <time>2024-09-18T10:49:07Z</time>
      </trkpt>
      <trkpt lat="51.158589022234082" lon="14.982261992990971">
        <ele>188.08000000000001</ele>
        <time>2024-09-18T10:49:08Z</time>
      </trkpt>
      <trkpt lat="51.158602014183998" lon="14.982182029634714">
        <ele>188.08000000000001</ele>
        <time>2024-09-18T10:49:09Z</time>
      </trkpt>
      <trkpt lat="51.158708967268467" lon="14.981580041348934">
        <ele>187.11000000000001</ele>
        <time>2024-09-18T10:49:16Z</time>
      </trkpt>
      <trkpt lat="51.158831007778645" lon="14.981003031134605">
        <ele>187.11000000000001</ele>
        <time>2024-09-18T10:49:23Z</time>
      </trkpt>
      <trkpt lat="51.159009039402008" lon="14.980095019564033">
        <ele>190.47999999999999</ele>
        <time>2024-09-18T10:49:35Z</time>
      </trkpt>
      <trkpt lat="51.159451017156243" lon="14.978827005252242">
        <ele>191.44</ele>
        <time>2024-09-18T10:49:49Z</time>
      </trkpt>
      <trkpt lat="51.159656960517168" lon="14.978245971724391">
        <ele>190.96000000000001</ele>
        <time>2024-09-18T10:49:56Z</time>
      </trkpt>
      <trkpt lat="51.15968001075089" lon="14.978181011974812">
        <ele>190.96000000000001</ele>
        <time>2024-09-18T10:49:57Z</time>
      </trkpt>
      <trkpt lat="51.159840021282434" lon="14.977740962058306">
        <ele>190.96000000000001</ele>
        <time>2024-09-18T10:50:06Z</time>
      </trkpt>
      <trkpt lat="51.160270012915134" lon="14.976866981014609">
        <ele>191.91999999999999</ele>
        <time>2024-09-18T10:50:15Z</time>
      </trkpt>
      <trkpt lat="51.160850040614605" lon="14.975606007501483">
        <ele>191.91999999999999</ele>
        <time>2024-09-18T10:50:28Z</time>
      </trkpt>
      <trkpt lat="51.160931009799242" lon="14.975419007241726">
        <ele>192.40000000000001</ele>
        <time>2024-09-18T10:50:30Z</time>
      </trkpt>
      <trkpt lat="51.160965962335467" lon="14.975338038057089">
        <ele>192.88</ele>
        <time>2024-09-18T10:50:31Z</time>
      </trkpt>
      <trkpt lat="51.161102000623941" lon="14.975025979802012">
        <ele>196.72999999999999</ele>
        <time>2024-09-18T10:50:39Z</time>
      </trkpt>
      <trkpt lat="51.161128990352154" lon="14.974964959546924">
        <ele>198.65000000000001</ele>
        <time>2024-09-18T10:50:52Z</time>
      </trkpt>
      <trkpt lat="51.161287995055318" lon="14.974566986784339">
        <ele>201.05000000000001</ele>
        <time>2024-09-18T10:51:02Z</time>
      </trkpt>
      <trkpt lat="51.161287995055318" lon="14.974566986784339">
        <ele>201.53</ele>
        <time>2024-09-18T10:51:59Z</time>
      </trkpt>
      <trkpt lat="51.161396959796548" lon="14.974282002076507">
        <ele>204.41999999999999</ele>
        <time>2024-09-18T10:52:33Z</time>
      </trkpt>
      <trkpt lat="51.161515982821584" lon="14.97411503456533">
        <ele>206.34</ele>
        <time>2024-09-18T10:52:35Z</time>
      </trkpt>
      <trkpt lat="51.161575997248292" lon="14.974122997373343">
        <ele>206.81999999999999</ele>
        <time>2024-09-18T10:52:36Z</time>
      </trkpt>
      <trkpt lat="51.161645986139774" lon="14.974132971838117">
        <ele>206.81999999999999</ele>
        <time>2024-09-18T10:52:37Z</time>
      </trkpt>
      <trkpt lat="51.161727961152792" lon="14.974144035950303">
        <ele>206.81999999999999</ele>
        <time>2024-09-18T10:52:38Z</time>
      </trkpt>
      <trkpt lat="51.161819994449615" lon="14.974157027900219">
        <ele>206.81999999999999</ele>
        <time>2024-09-18T10:52:39Z</time>
      </trkpt>
      <trkpt lat="51.161923008039594" lon="14.974171025678515">
        <ele>206.81999999999999</ele>
        <time>2024-09-18T10:52:40Z</time>
      </trkpt>
      <trkpt lat="51.162394993007183" lon="14.974119979888201">
        <ele>207.30000000000001</ele>
        <time>2024-09-18T10:52:44Z</time>
      </trkpt>
      <trkpt lat="51.16251602768898" lon="14.974069017916918">
        <ele>207.30000000000001</ele>
        <time>2024-09-18T10:52:45Z</time>
      </trkpt>
      <trkpt lat="51.162634966894984" lon="14.974018977954984">
        <ele>207.30000000000001</ele>
        <time>2024-09-18T10:52:46Z</time>
      </trkpt>
      <trkpt lat="51.16275398992002" lon="14.973956029862165">
        <ele>207.78</ele>
        <time>2024-09-18T10:52:47Z</time>
      </trkpt>
      <trkpt lat="51.16286002099514" lon="14.973855027928948">
        <ele>207.78</ele>
        <time>2024-09-18T10:52:48Z</time>
      </trkpt>
      <trkpt lat="51.162964040413499" lon="14.973756037652493">
        <ele>208.25999999999999</ele>
        <time>2024-09-18T10:52:49Z</time>
      </trkpt>
      <trkpt lat="51.163066970184445" lon="14.973658975213766">
        <ele>208.74000000000001</ele>
        <time>2024-09-18T10:52:50Z</time>
      </trkpt>
      <trkpt lat="51.163165960460901" lon="14.973560990765691">
        <ele>208.74000000000001</ele>
        <time>2024-09-18T10:52:51Z</time>
      </trkpt>
      <trkpt lat="51.163728972896934" lon="14.972759010270238">
        <ele>212.11000000000001</ele>
        <time>2024-09-18T10:53:00Z</time>
      </trkpt>
      <trkpt lat="51.163854030892253" lon="14.972587013617158">
        <ele>213.06999999999999</ele>
        <time>2024-09-18T10:53:03Z</time>
      </trkpt>
      <trkpt lat="51.163939023390412" lon="14.972482994198799">
        <ele>214.03</ele>
        <time>2024-09-18T10:53:11Z</time>
      </trkpt>
      <trkpt lat="51.163997026160359" lon="14.972411999478936">
        <ele>215.94999999999999</ele>
        <time>2024-09-18T10:53:43Z</time>
      </trkpt>
      <trkpt lat="51.164053017273545" lon="14.97235500253737">
        <ele>216.91</ele>
        <time>2024-09-18T10:53:44Z</time>
      </trkpt>
      <trkpt lat="51.164116971194744" lon="14.97229197062552">
        <ele>216.91</ele>
        <time>2024-09-18T10:53:45Z</time>
      </trkpt>
      <trkpt lat="51.165025988593698" lon="14.971666010096669">
        <ele>219.80000000000001</ele>
        <time>2024-09-18T10:53:55Z</time>
      </trkpt>
      <trkpt lat="51.166658028960228" lon="14.970650039613247">
        <ele>220.75999999999999</ele>
        <time>2024-09-18T10:54:09Z</time>
      </trkpt>
      <trkpt lat="51.16747903637588" lon="14.969898015260696">
        <ele>221.72</ele>
        <time>2024-09-18T10:54:17Z</time>
      </trkpt>
      <trkpt lat="51.168086975812912" lon="14.968963013961911">
        <ele>222.19999999999999</ele>
        <time>2024-09-18T10:54:26Z</time>
      </trkpt>
      <trkpt lat="51.168121006339788" lon="14.968898976221681">
        <ele>222.19999999999999</ele>
        <time>2024-09-18T10:54:27Z</time>
      </trkpt>
      <trkpt lat="51.168279005214572" lon="14.968927977606654">
        <ele>222.19999999999999</ele>
        <time>2024-09-18T10:54:28Z</time>
      </trkpt>
      <trkpt lat="51.168319992721081" lon="14.968986986204982">
        <ele>222.19999999999999</ele>
        <time>2024-09-18T10:54:29Z</time>
      </trkpt>
      <trkpt lat="51.168366009369493" lon="14.969052029773593">
        <ele>222.19999999999999</ele>
        <time>2024-09-18T10:54:30Z</time>
      </trkpt>
      <trkpt lat="51.168410014361143" lon="14.969114977866411">
        <ele>222.19999999999999</ele>
        <time>2024-09-18T10:54:31Z</time>
      </trkpt>
      <trkpt lat="51.168449996039271" lon="14.969171974807978">
        <ele>221.72</ele>
        <time>2024-09-18T10:54:32Z</time>
      </trkpt>
      <trkpt lat="51.168481009081006" lon="14.969254033640027">
        <ele>221.72</ele>
        <time>2024-09-18T10:54:33Z</time>
      </trkpt>
      <trkpt lat="51.168481009081006" lon="14.969313964247704">
        <ele>221.72</ele>
        <time>2024-09-18T10:54:34Z</time>
      </trkpt>
      <trkpt lat="51.168481009081006" lon="14.969364004209638">
        <ele>221.24000000000001</ele>
        <time>2024-09-18T10:54:35Z</time>
      </trkpt>
      <trkpt lat="51.168481009081006" lon="14.969401974231005">
        <ele>221.24000000000001</ele>
        <time>2024-09-18T10:54:36Z</time>
      </trkpt>
      <trkpt lat="51.168481009081006" lon="14.969442039728165">
        <ele>221.24000000000001</ele>
        <time>2024-09-18T10:54:37Z</time>
      </trkpt>
      <trkpt lat="51.168481009081006" lon="14.969481015577912">
        <ele>221.24000000000001</ele>
        <time>2024-09-18T10:54:38Z</time>
      </trkpt>
      <trkpt lat="51.168481009081006" lon="14.969515968114138">
        <ele>220.75999999999999</ele>
        <time>2024-09-18T10:54:39Z</time>
      </trkpt>
      <trkpt lat="51.168481009081006" lon="14.969557961449027">
        <ele>221.24000000000001</ele>
        <time>2024-09-18T10:54:40Z</time>
      </trkpt>
      <trkpt lat="51.168481009081006" lon="14.969684025272727">
        <ele>220.75999999999999</ele>
        <time>2024-09-18T10:54:42Z</time>
      </trkpt>
      <trkpt lat="51.168481009081006" lon="14.969739010557532">
        <ele>220.75999999999999</ele>
        <time>2024-09-18T10:54:43Z</time>
      </trkpt>
      <trkpt lat="51.168481009081006" lon="14.969781003892422">
        <ele>220.75999999999999</ele>
        <time>2024-09-18T10:54:44Z</time>
      </trkpt>
      <trkpt lat="51.168312029913068" lon="14.970287019386888">
        <ele>220.75999999999999</ele>
        <time>2024-09-18T10:54:46Z</time>
      </trkpt>
      <trkpt lat="51.168260984122753" lon="14.970311997458339">
        <ele>220.75999999999999</ele>
        <time>2024-09-18T10:54:47Z</time>
      </trkpt>
      <trkpt lat="51.168211027979851" lon="14.97033697552979">
        <ele>220.28</ele>
        <time>2024-09-18T10:54:48Z</time>
      </trkpt>
      <trkpt lat="51.168130980804563" lon="14.97037704102695">
        <ele>220.28</ele>
        <time>2024-09-18T10:54:50Z</time>
      </trkpt>
      <trkpt lat="51.168069960549474" lon="14.970083003863692">
        <ele>220.28</ele>
        <time>2024-09-18T10:54:54Z</time>
      </trkpt>
      <trkpt lat="51.16814598441124" lon="14.970088033005595">
        <ele>219.31999999999999</ele>
        <time>2024-09-18T10:55:09Z</time>
      </trkpt>
      <trkpt lat="51.16829501464963" lon="14.970025001093745">
        <ele>228.44999999999999</ele>
        <time>2024-09-18T10:58:39Z</time>
      </trkpt>
      <trkpt lat="51.168276993557811" lon="14.970062971115112">
        <ele>229.41</ele>
        <time>2024-09-18T10:59:20Z</time>
      </trkpt>
      <trkpt lat="51.16844798438251" lon="14.970218958333135">
        <ele>231.33000000000001</ele>
        <time>2024-09-18T10:59:49Z</time>
      </trkpt>
      <trkpt lat="51.168494001030922" lon="14.970195991918445">
        <ele>230.37</ele>
        <time>2024-09-18T10:59:51Z</time>
      </trkpt>
      <trkpt lat="51.168523002415895" lon="14.970180988311768">
        <ele>230.37</ele>
        <time>2024-09-18T10:59:52Z</time>
      </trkpt>
      <trkpt lat="51.168523002415895" lon="14.970180988311768">
        <ele>229.41</ele>
        <time>2024-09-18T10:59:53Z</time>
      </trkpt>
      <trkpt lat="51.168526019901037" lon="14.970189034938812">
        <ele>228.93000000000001</ele>
        <time>2024-09-18T10:59:54Z</time>
      </trkpt>
      <trkpt lat="51.168545968830585" lon="14.970256006345153">
        <ele>228.44999999999999</ele>
        <time>2024-09-18T10:59:55Z</time>
      </trkpt>
      <trkpt lat="51.168566001579165" lon="14.970323983579874">
        <ele>227.97</ele>
        <time>2024-09-18T10:59:56Z</time>
      </trkpt>
      <trkpt lat="51.168671026825905" lon="14.97081097215414">
        <ele>224.61000000000001</ele>
        <time>2024-09-18T11:00:03Z</time>
      </trkpt>
      <trkpt lat="51.168729029595852" lon="14.97104600071907">
        <ele>223.63999999999999</ele>
        <time>2024-09-18T11:00:06Z</time>
      </trkpt>
      <trkpt lat="51.168743027374148" lon="14.971101991832256">
        <ele>223.63999999999999</ele>
        <time>2024-09-18T11:00:07Z</time>
      </trkpt>
      <trkpt lat="51.168857021257281" lon="14.971274994313717">
        <ele>223.63999999999999</ele>
        <time>2024-09-18T11:00:08Z</time>
      </trkpt>
      <trkpt lat="51.168895997107029" lon="14.971243981271982">
        <ele>223.16</ele>
        <time>2024-09-18T11:00:09Z</time>
      </trkpt>
      <trkpt lat="51.168949976563454" lon="14.971200982108712">
        <ele>222.68000000000001</ele>
        <time>2024-09-18T11:00:10Z</time>
      </trkpt>
      <trkpt lat="51.168994987383485" lon="14.971165023744106">
        <ele>222.68000000000001</ele>
        <time>2024-09-18T11:00:11Z</time>
      </trkpt>
      <trkpt lat="51.169023988768458" lon="14.971140967682004">
        <ele>222.19999999999999</ele>
        <time>2024-09-18T11:00:12Z</time>
      </trkpt>
      <trkpt lat="51.169123984873295" lon="14.970981040969491">
        <ele>222.19999999999999</ele>
        <time>2024-09-18T11:00:16Z</time>
      </trkpt>
      <trkpt lat="51.169123984873295" lon="14.970923960208893">
        <ele>221.72</ele>
        <time>2024-09-18T11:00:17Z</time>
      </trkpt>
      <trkpt lat="51.169123984873295" lon="14.970860006287694">
        <ele>221.72</ele>
        <time>2024-09-18T11:00:18Z</time>
      </trkpt>
      <trkpt lat="51.169123984873295" lon="14.970803009346128">
        <ele>221.24000000000001</ele>
        <time>2024-09-18T11:00:19Z</time>
      </trkpt>
      <trkpt lat="51.169123984873295" lon="14.970746012404561">
        <ele>220.75999999999999</ele>
        <time>2024-09-18T11:00:20Z</time>
      </trkpt>
      <trkpt lat="51.169123984873295" lon="14.970634030178189">
        <ele>220.28</ele>
        <time>2024-09-18T11:00:22Z</time>
      </trkpt>
      <trkpt lat="51.169204032048583" lon="14.970481982454658">
        <ele>220.28</ele>
        <time>2024-09-18T11:00:23Z</time>
      </trkpt>
      <trkpt lat="51.169250970706344" lon="14.970481982454658">
        <ele>219.80000000000001</ele>
        <time>2024-09-18T11:00:24Z</time>
      </trkpt>
      <trkpt lat="51.169312996789813" lon="14.970481982454658">
        <ele>219.80000000000001</ele>
        <time>2024-09-18T11:00:25Z</time>
      </trkpt>
      <trkpt lat="51.169380974024534" lon="14.970481982454658">
        <ele>219.80000000000001</ele>
        <time>2024-09-18T11:00:26Z</time>
      </trkpt>
      <trkpt lat="51.169721027836204" lon="14.970461027696729">
        <ele>218.84</ele>
        <time>2024-09-18T11:00:32Z</time>
      </trkpt>
      <trkpt lat="51.169724967330694" lon="14.970352984964848">
        <ele>219.31999999999999</ele>
        <time>2024-09-18T11:00:33Z</time>
      </trkpt>
      <trkpt lat="51.169881960377097" lon="14.970109993591905">
        <ele>219.80000000000001</ele>
        <time>2024-09-18T11:00:39Z</time>
      </trkpt>
      <trkpt lat="51.169893024489284" lon="14.970066994428635">
        <ele>219.80000000000001</ele>
        <time>2024-09-18T11:00:40Z</time>
      </trkpt>
      <trkpt lat="51.169896963983774" lon="14.970051990821958">
        <ele>219.80000000000001</ele>
        <time>2024-09-18T11:00:41Z</time>
      </trkpt>
      <trkpt lat="51.169896963983774" lon="14.970050984993577">
        <ele>219.80000000000001</ele>
        <time>2024-09-18T11:00:42Z</time>
      </trkpt>
      <trkpt lat="51.169921020045877" lon="14.969838000833988">
        <ele>219.80000000000001</ele>
        <time>2024-09-18T11:00:43Z</time>
      </trkpt>
      <trkpt lat="51.169921020045877" lon="14.969838000833988">
        <ele>219.31999999999999</ele>
        <time>2024-09-18T11:00:44Z</time>
      </trkpt>
      <trkpt lat="51.169921020045877" lon="14.969838000833988">
        <ele>219.80000000000001</ele>
        <time>2024-09-18T11:01:02Z</time>
      </trkpt>
      <trkpt lat="51.169840972870588" lon="14.969972027465701">
        <ele>224.12</ele>
        <time>2024-09-18T11:08:22Z</time>
      </trkpt>
      <trkpt lat="51.169886989519" lon="14.969990970566869">
        <ele>222.68000000000001</ele>
        <time>2024-09-18T11:08:42Z</time>
      </trkpt>
      <trkpt lat="51.169915990903974" lon="14.969993988052011">
        <ele>222.19999999999999</ele>
        <time>2024-09-18T11:09:23Z</time>
      </trkpt>
      <trkpt lat="51.169913979247212" lon="14.969928022474051">
        <ele>222.19999999999999</ele>
        <time>2024-09-18T11:09:33Z</time>
      </trkpt>
      <trkpt lat="51.169875003397465" lon="14.969838000833988">
        <ele>221.72</ele>
        <time>2024-09-18T11:09:35Z</time>
      </trkpt>
      <trkpt lat="51.169875003397465" lon="14.969815034419298">
        <ele>221.72</ele>
        <time>2024-09-18T11:09:36Z</time>
      </trkpt>
      <trkpt lat="51.169875003397465" lon="14.969367021694779">
        <ele>222.19999999999999</ele>
        <time>2024-09-18T11:09:42Z</time>
      </trkpt>
      <trkpt lat="51.169875003397465" lon="14.969343971461058">
        <ele>221.72</ele>
        <time>2024-09-18T11:09:43Z</time>
      </trkpt>
      <trkpt lat="51.169875003397465" lon="14.969343971461058">
        <ele>221.72</ele>
        <time>2024-09-18T11:09:44Z</time>
      </trkpt>
      <trkpt lat="51.169836027547717" lon="14.969350006431341">
        <ele>221.72</ele>
        <time>2024-09-18T11:09:45Z</time>
      </trkpt>
      <trkpt lat="51.169790010899305" lon="14.969356041401625">
        <ele>221.24000000000001</ele>
        <time>2024-09-18T11:09:46Z</time>
      </trkpt>
      <trkpt lat="51.169676017016172" lon="14.969359980896115">
        <ele>221.24000000000001</ele>
        <time>2024-09-18T11:09:48Z</time>
      </trkpt>
      <trkpt lat="51.169622959569097" lon="14.969353023916483">
        <ele>220.75999999999999</ele>
        <time>2024-09-18T11:09:49Z</time>
      </trkpt>
      <trkpt lat="51.169552970677614" lon="14.969343971461058">
        <ele>220.75999999999999</ele>
        <time>2024-09-18T11:09:50Z</time>
      </trkpt>
      <trkpt lat="51.169507959857583" lon="14.969350006431341">
        <ele>220.75999999999999</ele>
        <time>2024-09-18T11:09:51Z</time>
      </trkpt>
      <trkpt lat="51.169453980401158" lon="14.969356963410974">
        <ele>220.28</ele>
        <time>2024-09-18T11:09:52Z</time>
      </trkpt>
      <trkpt lat="51.169381979852915" lon="14.969366015866399">
        <ele>220.28</ele>
        <time>2024-09-18T11:09:53Z</time>
      </trkpt>
      <trkpt lat="51.169295981526375" lon="14.969386970624328">
        <ele>219.80000000000001</ele>
        <time>2024-09-18T11:09:54Z</time>
      </trkpt>
      <trkpt lat="51.169232027605176" lon="14.969429969787598">
        <ele>219.80000000000001</ele>
        <time>2024-09-18T11:09:55Z</time>
      </trkpt>
      <trkpt lat="51.169209983199835" lon="14.969461988657713">
        <ele>219.31999999999999</ele>
        <time>2024-09-18T11:09:56Z</time>
      </trkpt>
      <trkpt lat="51.16913203150034" lon="14.970180988311768">
        <ele>218.84</ele>
        <time>2024-09-18T11:10:03Z</time>
      </trkpt>
      <trkpt lat="51.169105041772127" lon="14.970180988311768">
        <ele>218.84</ele>
        <time>2024-09-18T11:10:04Z</time>
      </trkpt>
      <trkpt lat="51.169103030115366" lon="14.970023995265365">
        <ele>218.84</ele>
        <time>2024-09-18T11:10:05Z</time>
      </trkpt>
      <trkpt lat="51.169103030115366" lon="14.969965992495418">
        <ele>218.36000000000001</ele>
        <time>2024-09-18T11:10:06Z</time>
      </trkpt>
      <trkpt lat="51.169103030115366" lon="14.969903966411948">
        <ele>218.36000000000001</ele>
        <time>2024-09-18T11:10:07Z</time>
      </trkpt>
      <trkpt lat="51.169103030115366" lon="14.969843029975891">
        <ele>218.36000000000001</ele>
        <time>2024-09-18T11:10:08Z</time>
      </trkpt>
      <trkpt lat="51.169103030115366" lon="14.969623005017638">
        <ele>217.88</ele>
        <time>2024-09-18T11:10:18Z</time>
      </trkpt>
      <trkpt lat="51.168996999040246" lon="14.969279011711478">
        <ele>217.88</ele>
        <time>2024-09-18T11:10:23Z</time>
      </trkpt>
      <trkpt lat="51.168956011533737" lon="14.969298038631678">
        <ele>217.40000000000001</ele>
        <time>2024-09-18T11:10:24Z</time>
      </trkpt>
      <trkpt lat="51.168889962136745" lon="14.969327962026">
        <ele>217.40000000000001</ele>
        <time>2024-09-18T11:10:25Z</time>
      </trkpt>
      <trkpt lat="51.168816033750772" lon="14.969360986724496">
        <ele>217.40000000000001</ele>
        <time>2024-09-18T11:10:26Z</time>
      </trkpt>
      <trkpt lat="51.168743027374148" lon="14.969376996159554">
        <ele>216.91</ele>
        <time>2024-09-18T11:10:27Z</time>
      </trkpt>
      <trkpt lat="51.168673038482666" lon="14.969333996996284">
        <ele>216.43000000000001</ele>
        <time>2024-09-18T11:10:28Z</time>
      </trkpt>
      <trkpt lat="51.168609000742435" lon="14.969295021146536">
        <ele>216.43000000000001</ele>
        <time>2024-09-18T11:10:29Z</time>
      </trkpt>
      <trkpt lat="51.16855300962925" lon="14.969259984791279">
        <ele>215.94999999999999</ele>
        <time>2024-09-18T11:10:30Z</time>
      </trkpt>
      <trkpt lat="51.168501963838935" lon="14.969228971749544">
        <ele>215.94999999999999</ele>
        <time>2024-09-18T11:10:31Z</time>
      </trkpt>
      <trkpt lat="51.168460976332426" lon="14.969187984243035">
        <ele>215.94999999999999</ele>
        <time>2024-09-18T11:10:32Z</time>
      </trkpt>
      <trkpt lat="51.168395010754466" lon="14.969094023108482">
        <ele>215.47</ele>
        <time>2024-09-18T11:10:40Z</time>
      </trkpt>
      <trkpt lat="51.168395010754466" lon="14.969094023108482">
        <ele>215.47</ele>
        <time>2024-09-18T11:11:30Z</time>
      </trkpt>
      <trkpt lat="51.168261989951134" lon="14.968904005363584">
        <ele>215.47</ele>
        <time>2024-09-18T11:11:42Z</time>
      </trkpt>
      <trkpt lat="51.168144978582859" lon="14.96885203756392">
        <ele>215.47</ele>
        <time>2024-09-18T11:11:43Z</time>
      </trkpt>
      <trkpt lat="51.168109020218253" lon="14.968921020627022">
        <ele>215.47</ele>
        <time>2024-09-18T11:11:44Z</time>
      </trkpt>
      <trkpt lat="51.1680599860847" lon="14.969012970104814">
        <ele>215.47</ele>
        <time>2024-09-18T11:11:45Z</time>
      </trkpt>
      <trkpt lat="51.168008018285036" lon="14.969111038371921">
        <ele>215.47</ele>
        <time>2024-09-18T11:11:46Z</time>
      </trkpt>
      <trkpt lat="51.167476018890738" lon="14.969901032745838">
        <ele>217.40000000000001</ele>
        <time>2024-09-18T11:11:54Z</time>
      </trkpt>
      <trkpt lat="51.167312990874052" lon="14.970095995813608">
        <ele>218.36000000000001</ele>
        <time>2024-09-18T11:12:03Z</time>
      </trkpt>
      <trkpt lat="51.167259011417627" lon="14.970160033553839">
        <ele>218.84</ele>
        <time>2024-09-18T11:12:23Z</time>
      </trkpt>
      <trkpt lat="51.166795995086432" lon="14.97054903768003">
        <ele>219.31999999999999</ele>
        <time>2024-09-18T11:12:29Z</time>
      </trkpt>
      <trkpt lat="51.165539966896176" lon="14.971356969326735">
        <ele>219.31999999999999</ele>
        <time>2024-09-18T11:12:40Z</time>
      </trkpt>
      <trkpt lat="51.164360968396068" lon="14.972069012001157">
        <ele>217.40000000000001</ele>
        <time>2024-09-18T11:12:52Z</time>
      </trkpt>
      <trkpt lat="51.164241023361683" lon="14.972174037247896">
        <ele>217.40000000000001</ele>
        <time>2024-09-18T11:12:54Z</time>
      </trkpt>
      <trkpt lat="51.163967018947005" lon="14.972448041662574">
        <ele>216.43000000000001</ele>
        <time>2024-09-18T11:12:58Z</time>
      </trkpt>
      <trkpt lat="51.163160009309649" lon="14.973569959402084">
        <ele>212.59</ele>
        <time>2024-09-18T11:13:08Z</time>
      </trkpt>
      <trkpt lat="51.162762036547065" lon="14.973947983235121">
        <ele>211.15000000000001</ele>
        <time>2024-09-18T11:13:12Z</time>
      </trkpt>
      <trkpt lat="51.162656005471945" lon="14.97401000931859">
        <ele>210.19</ele>
        <time>2024-09-18T11:13:13Z</time>
      </trkpt>
      <trkpt lat="51.162544023245573" lon="14.974057031795382">
        <ele>209.69999999999999</ele>
        <time>2024-09-18T11:13:14Z</time>
      </trkpt>
      <trkpt lat="51.16243296302855" lon="14.974103970453143">
        <ele>209.22</ele>
        <time>2024-09-18T11:13:15Z</time>
      </trkpt>
      <trkpt lat="51.162321986630559" lon="14.974150992929935">
        <ele>208.74000000000001</ele>
        <time>2024-09-18T11:13:16Z</time>
      </trkpt>
      <trkpt lat="51.162210004404187" lon="14.974171025678515">
        <ele>208.25999999999999</ele>
        <time>2024-09-18T11:13:17Z</time>
      </trkpt>
      <trkpt lat="51.161751011386514" lon="14.974147975444794">
        <ele>207.30000000000001</ele>
        <time>2024-09-18T11:13:21Z</time>
      </trkpt>
      <trkpt lat="51.161189004778862" lon="14.97407203540206">
        <ele>206.81999999999999</ele>
        <time>2024-09-18T11:13:26Z</time>
      </trkpt>
      <trkpt lat="51.16013296879828" lon="14.973928034305573">
        <ele>209.69999999999999</ele>
        <time>2024-09-18T11:13:35Z</time>
      </trkpt>
      <trkpt lat="51.159171983599663" lon="14.973799036815763">
        <ele>212.11000000000001</ele>
        <time>2024-09-18T11:13:44Z</time>
      </trkpt>
      <trkpt lat="51.158137992024422" lon="14.973640032112598">
        <ele>210.66999999999999</ele>
        <time>2024-09-18T11:13:55Z</time>
      </trkpt>
      <trkpt lat="51.157838003709912" lon="14.973584963008761">
        <ele>208.74000000000001</ele>
        <time>2024-09-18T11:13:58Z</time>
      </trkpt>
      <trkpt lat="51.156792026013136" lon="14.973406009376049">
        <ele>202.00999999999999</ele>
        <time>2024-09-18T11:14:08Z</time>
      </trkpt>
      <trkpt lat="51.156580969691277" lon="14.973380025476217">
        <ele>201.05000000000001</ele>
        <time>2024-09-18T11:14:10Z</time>
      </trkpt>
      <trkpt lat="51.156477034091949" lon="14.973419001325965">
        <ele>200.56999999999999</ele>
        <time>2024-09-18T11:14:11Z</time>
      </trkpt>
      <trkpt lat="51.156373014673591" lon="14.973463006317616">
        <ele>200.09</ele>
        <time>2024-09-18T11:14:12Z</time>
      </trkpt>
      <trkpt lat="51.155261993408203" lon="14.973978996276855">
        <ele>195.28</ele>
        <time>2024-09-18T11:14:23Z</time>
      </trkpt>
      <trkpt lat="51.155193010345101" lon="14.97394697740674">
        <ele>194.80000000000001</ele>
        <time>2024-09-18T11:14:24Z</time>
      </trkpt>
      <trkpt lat="51.155126038938761" lon="14.973916970193386">
        <ele>193.84</ele>
        <time>2024-09-18T11:14:30Z</time>
      </trkpt>
      <trkpt lat="51.15504196844995" lon="14.973879000172019">
        <ele>193.84</ele>
        <time>2024-09-18T11:14:45Z</time>
      </trkpt>
      <trkpt lat="51.1549979634583" lon="14.973818985745311">
        <ele>193.84</ele>
        <time>2024-09-18T11:14:46Z</time>
      </trkpt>
      <trkpt lat="51.154947001487017" lon="14.973725024610758">
        <ele>193.84</ele>
        <time>2024-09-18T11:14:47Z</time>
      </trkpt>
      <trkpt lat="51.154876006767154" lon="14.973593009635806">
        <ele>193.84</ele>
        <time>2024-09-18T11:14:48Z</time>
      </trkpt>
      <trkpt lat="51.154858991503716" lon="14.973486978560686">
        <ele>193.84</ele>
        <time>2024-09-18T11:14:49Z</time>
      </trkpt>
      <trkpt lat="51.154833007603884" lon="14.973330991342664">
        <ele>193.84</ele>
        <time>2024-09-18T11:14:50Z</time>
      </trkpt>
      <trkpt lat="51.154810963198543" lon="14.973168969154358">
        <ele>193.84</ele>
        <time>2024-09-18T11:14:51Z</time>
      </trkpt>
      <trkpt lat="51.15480400621891" lon="14.972988003864884">
        <ele>193.84</ele>
        <time>2024-09-18T11:14:52Z</time>
      </trkpt>
      <trkpt lat="51.154797971248627" lon="14.972792034968734">
        <ele>193.84</ele>
        <time>2024-09-18T11:14:53Z</time>
      </trkpt>
      <trkpt lat="51.154791014268994" lon="14.97259103693068">
        <ele>193.84</ele>
        <time>2024-09-18T11:14:54Z</time>
      </trkpt>
      <trkpt lat="51.15482403896749" lon="14.972415016964078">
        <ele>193.84</ele>
        <time>2024-09-18T11:14:55Z</time>
      </trkpt>
      <trkpt lat="51.154859997332096" lon="14.972237991169095">
        <ele>193.84</ele>
        <time>2024-09-18T11:14:56Z</time>
      </trkpt>
      <trkpt lat="51.154968040063977" lon="14.971698028966784">
        <ele>192.88</ele>
        <time>2024-09-18T11:14:59Z</time>
      </trkpt>
      <trkpt lat="51.154973991215229" lon="14.971415977925062">
        <ele>192.40000000000001</ele>
        <time>2024-09-18T11:15:00Z</time>
      </trkpt>
      <trkpt lat="51.154925962910056" lon="14.971266025677323">
        <ele>191.91999999999999</ele>
        <time>2024-09-18T11:15:01Z</time>
      </trkpt>
      <trkpt lat="51.154878018423915" lon="14.971114983782172">
        <ele>191.91999999999999</ele>
        <time>2024-09-18T11:15:02Z</time>
      </trkpt>
      <trkpt lat="51.154811969026923" lon="14.970910968258977">
        <ele>191.44</ele>
        <time>2024-09-18T11:15:03Z</time>
      </trkpt>
      <trkpt lat="51.154741980135441" lon="14.97083100490272">
        <ele>191.91999999999999</ele>
        <time>2024-09-18T11:15:04Z</time>
      </trkpt>
      <trkpt lat="51.154647013172507" lon="14.970733020454645">
        <ele>191.91999999999999</ele>
        <time>2024-09-18T11:15:05Z</time>
      </trkpt>
      <trkpt lat="51.154543999582529" lon="14.970688009634614">
        <ele>192.40000000000001</ele>
        <time>2024-09-18T11:15:06Z</time>
      </trkpt>
      <trkpt lat="51.154430005699396" lon="14.970675017684698">
        <ele>192.40000000000001</ele>
        <time>2024-09-18T11:15:07Z</time>
      </trkpt>
      <trkpt lat="51.154321040958166" lon="14.97068096883595">
        <ele>192.88</ele>
        <time>2024-09-18T11:15:08Z</time>
      </trkpt>
      <trkpt lat="51.154212998226285" lon="14.970717011019588">
        <ele>192.88</ele>
        <time>2024-09-18T11:15:09Z</time>
      </trkpt>
      <trkpt lat="51.154103027656674" lon="14.970751963555813">
        <ele>193.36000000000001</ele>
        <time>2024-09-18T11:15:10Z</time>
      </trkpt>
      <trkpt lat="51.153208008036017" lon="14.971014987677336">
        <ele>197.21000000000001</ele>
        <time>2024-09-18T11:15:19Z</time>
      </trkpt>
      <trkpt lat="51.152993012219667" lon="14.97106603346765">
        <ele>200.09</ele>
        <time>2024-09-18T11:15:27Z</time>
      </trkpt>
      <trkpt lat="51.152983037754893" lon="14.971069972962141">
        <ele>200.09</ele>
        <time>2024-09-18T11:15:53Z</time>
      </trkpt>
      <trkpt lat="51.152901984751225" lon="14.971096040681005">
        <ele>203.46000000000001</ele>
        <time>2024-09-18T11:15:55Z</time>
      </trkpt>
      <trkpt lat="51.152823027223349" lon="14.971123030409217">
        <ele>204.90000000000001</ele>
        <time>2024-09-18T11:15:56Z</time>
      </trkpt>
      <trkpt lat="51.152670979499817" lon="14.971122024580836">
        <ele>205.38</ele>
        <time>2024-09-18T11:15:57Z</time>
      </trkpt>
      <trkpt lat="51.15173296071589" lon="14.97080703265965">
        <ele>207.78</ele>
        <time>2024-09-18T11:16:07Z</time>
      </trkpt>
      <trkpt lat="51.151640005409718" lon="14.970776019617915">
        <ele>208.25999999999999</ele>
        <time>2024-09-18T11:16:08Z</time>
      </trkpt>
      <trkpt lat="51.151553001254797" lon="14.97074500657618">
        <ele>208.74000000000001</ele>
        <time>2024-09-18T11:16:09Z</time>
      </trkpt>
      <trkpt lat="51.151271034032106" lon="14.970417022705078">
        <ele>210.19</ele>
        <time>2024-09-18T11:16:13Z</time>
      </trkpt>
      <trkpt lat="51.151273967698216" lon="14.97044401243329">
        <ele>210.19</ele>
        <time>2024-09-18T11:16:14Z</time>
      </trkpt>
      <trkpt lat="51.151227029040456" lon="14.970328006893396">
        <ele>210.19</ele>
        <time>2024-09-18T11:16:15Z</time>
      </trkpt>
      <trkpt lat="51.151174977421761" lon="14.970238991081715">
        <ele>210.66999999999999</ele>
        <time>2024-09-18T11:16:16Z</time>
      </trkpt>
      <trkpt lat="51.151105994358659" lon="14.970200015231967">
        <ele>210.66999999999999</ele>
        <time>2024-09-18T11:16:17Z</time>
      </trkpt>
      <trkpt lat="51.151028964668512" lon="14.970163973048329">
        <ele>210.66999999999999</ele>
        <time>2024-09-18T11:16:18Z</time>
      </trkpt>
      <trkpt lat="51.150959981605411" lon="14.970209989696741">
        <ele>210.66999999999999</ele>
        <time>2024-09-18T11:16:19Z</time>
      </trkpt>
      <trkpt lat="51.150907007977366" lon="14.970246031880379">
        <ele>210.19</ele>
        <time>2024-09-18T11:16:20Z</time>
      </trkpt>
      <trkpt lat="51.150907007977366" lon="14.970246031880379">
        <ele>209.69999999999999</ele>
        <time>2024-09-18T11:16:21Z</time>
      </trkpt>
      <trkpt lat="51.150739034637809" lon="14.970435965806246">
        <ele>209.69999999999999</ele>
        <time>2024-09-18T11:16:22Z</time>
      </trkpt>
      <trkpt lat="51.150658987462521" lon="14.970412999391556">
        <ele>209.22</ele>
        <time>2024-09-18T11:16:23Z</time>
      </trkpt>
      <trkpt lat="51.150563014671206" lon="14.970385003834963">
        <ele>208.25999999999999</ele>
        <time>2024-09-18T11:16:24Z</time>
      </trkpt>
      <trkpt lat="51.15037702023983" lon="14.970331024378538">
        <ele>207.78</ele>
        <time>2024-09-18T11:16:26Z</time>
      </trkpt>
      <trkpt lat="51.150068985298276" lon="14.970233961939812">
        <ele>203.94</ele>
        <time>2024-09-18T11:16:29Z</time>
      </trkpt>
      <trkpt lat="51.149949040263891" lon="14.970187023282051">
        <ele>203.46000000000001</ele>
        <time>2024-09-18T11:16:30Z</time>
      </trkpt>
      <trkpt lat="51.149851977825165" lon="14.970149975270033">
        <ele>202.49000000000001</ele>
        <time>2024-09-18T11:16:31Z</time>
      </trkpt>
      <trkpt lat="51.149718035012484" lon="14.97009901329875">
        <ele>201.53</ele>
        <time>2024-09-18T11:16:33Z</time>
      </trkpt>
      <trkpt lat="51.149632036685944" lon="14.970065988600254">
        <ele>201.05000000000001</ele>
        <time>2024-09-18T11:16:34Z</time>
      </trkpt>
      <trkpt lat="51.148951007053256" lon="14.969897009432316">
        <ele>199.61000000000001</ele>
        <time>2024-09-18T11:16:39Z</time>
      </trkpt>
      <trkpt lat="51.148855034261942" lon="14.969960963353515">
        <ele>199.13</ele>
        <time>2024-09-18T11:16:40Z</time>
      </trkpt>
      <trkpt lat="51.148753026500344" lon="14.970029024407268">
        <ele>198.65000000000001</ele>
        <time>2024-09-18T11:16:41Z</time>
      </trkpt>
      <trkpt lat="51.148543981835246" lon="14.970212001353502">
        <ele>198.16999999999999</ele>
        <time>2024-09-18T11:16:43Z</time>
      </trkpt>
      <trkpt lat="51.148332003504038" lon="14.970374023541808">
        <ele>197.69</ele>
        <time>2024-09-18T11:16:45Z</time>
      </trkpt>
      <trkpt lat="51.148224966600537" lon="14.970435965806246">
        <ele>198.16999999999999</ele>
        <time>2024-09-18T11:16:46Z</time>
      </trkpt>
      <trkpt lat="51.147059965878725" lon="14.97097902931273">
        <ele>202.00999999999999</ele>
        <time>2024-09-18T11:16:56Z</time>
      </trkpt>
      <trkpt lat="51.146351024508476" lon="14.971268037334085">
        <ele>205.38</ele>
        <time>2024-09-18T11:17:04Z</time>
      </trkpt>
      <trkpt lat="51.1463169939816" lon="14.971284968778491">
        <ele>205.86000000000001</ele>
        <time>2024-09-18T11:17:05Z</time>
      </trkpt>
      <trkpt lat="51.146296039223671" lon="14.971296032890677">
        <ele>205.86000000000001</ele>
        <time>2024-09-18T11:17:06Z</time>
      </trkpt>
      <trkpt lat="51.146296039223671" lon="14.971296032890677">
        <ele>206.34</ele>
        <time>2024-09-18T11:17:17Z</time>
      </trkpt>
      <trkpt lat="51.146288998425007" lon="14.971298966556787">
        <ele>206.34</ele>
        <time>2024-09-18T11:17:36Z</time>
      </trkpt>
      <trkpt lat="51.14625396206975" lon="14.971315981820226">
        <ele>206.81999999999999</ele>
        <time>2024-09-18T11:17:37Z</time>
      </trkpt>
      <trkpt lat="51.145602017641068" lon="14.971609013155103">
        <ele>213.06999999999999</ele>
        <time>2024-09-18T11:17:46Z</time>
      </trkpt>
      <trkpt lat="51.144555034115911" lon="14.972069012001157">
        <ele>215.94999999999999</ele>
        <time>2024-09-18T11:17:57Z</time>
      </trkpt>
      <trkpt lat="51.144383959472179" lon="14.9721410125494">
        <ele>216.43000000000001</ele>
        <time>2024-09-18T11:17:59Z</time>
      </trkpt>
      <trkpt lat="51.144287986680865" lon="14.972182000055909">
        <ele>216.91</ele>
        <time>2024-09-18T11:18:00Z</time>
      </trkpt>
      <trkpt lat="51.143851960077882" lon="14.972364977002144">
        <ele>218.36000000000001</ele>
        <time>2024-09-18T11:18:05Z</time>
      </trkpt>
      <trkpt lat="51.14373997785151" lon="14.972413005307317">
        <ele>218.84</ele>
        <time>2024-09-18T11:18:06Z</time>
      </trkpt>
      <trkpt lat="51.143649034202099" lon="14.972452986985445">
        <ele>219.80000000000001</ele>
        <time>2024-09-18T11:18:08Z</time>
      </trkpt>
      <trkpt lat="51.143555995076895" lon="14.972493974491954">
        <ele>220.75999999999999</ele>
        <time>2024-09-18T11:18:15Z</time>
      </trkpt>
      <trkpt lat="51.143424985930324" lon="14.972551977261901">
        <ele>223.16</ele>
        <time>2024-09-18T11:18:50Z</time>
      </trkpt>
      <trkpt lat="51.143328007310629" lon="14.972422979772091">
        <ele>223.16</ele>
        <time>2024-09-18T11:18:51Z</time>
      </trkpt>
      <trkpt lat="51.143316021189094" lon="14.972343016415834">
        <ele>223.63999999999999</ele>
        <time>2024-09-18T11:18:52Z</time>
      </trkpt>
      <trkpt lat="51.143300011754036" lon="14.972242014482617">
        <ele>223.63999999999999</ele>
        <time>2024-09-18T11:18:53Z</time>
      </trkpt>
      <trkpt lat="51.143280984833837" lon="14.972122991457582">
        <ele>223.63999999999999</ele>
        <time>2024-09-18T11:18:54Z</time>
      </trkpt>
      <trkpt lat="51.143261035904288" lon="14.971989970654249">
        <ele>223.63999999999999</ele>
        <time>2024-09-18T11:18:55Z</time>
      </trkpt>
      <trkpt lat="51.143236979842186" lon="14.971844963729382">
        <ele>223.16</ele>
        <time>2024-09-18T11:18:56Z</time>
      </trkpt>
      <trkpt lat="51.142963981255889" lon="14.970103958621621">
        <ele>222.19999999999999</ele>
        <time>2024-09-18T11:19:06Z</time>
      </trkpt>
      <trkpt lat="51.142916036769748" lon="14.969740016385913">
        <ele>222.68000000000001</ele>
        <time>2024-09-18T11:19:08Z</time>
      </trkpt>
      <trkpt lat="51.14285702817142" lon="14.96936802752316">
        <ele>222.68000000000001</ele>
        <time>2024-09-18T11:19:10Z</time>
      </trkpt>
      <trkpt lat="51.142532983794808" lon="14.967989036813378">
        <ele>219.80000000000001</ele>
        <time>2024-09-18T11:19:18Z</time>
      </trkpt>
      <trkpt lat="51.142485961318016" lon="14.967819973826408">
        <ele>219.31999999999999</ele>
        <time>2024-09-18T11:19:19Z</time>
      </trkpt>
      <trkpt lat="51.142132999375463" lon="14.96687600389123">
        <ele>219.31999999999999</ele>
        <time>2024-09-18T11:19:25Z</time>
      </trkpt>
      <trkpt lat="51.142072984948754" lon="14.966718005016446">
        <ele>219.31999999999999</ele>
        <time>2024-09-18T11:19:26Z</time>
      </trkpt>
      <trkpt lat="51.141148963943124" lon="14.964361013844609">
        <ele>220.28</ele>
        <time>2024-09-18T11:19:41Z</time>
      </trkpt>
      <trkpt lat="51.140463994815946" lon="14.962637024000287">
        <ele>224.12</ele>
        <time>2024-09-18T11:19:52Z</time>
      </trkpt>
      <trkpt lat="51.139712976291776" lon="14.960668031126261">
        <ele>228.93000000000001</ele>
        <time>2024-09-18T11:20:04Z</time>
      </trkpt>
      <trkpt lat="51.139522036537528" lon="14.960180036723614">
        <ele>229.88999999999999</ele>
        <time>2024-09-18T11:20:07Z</time>
      </trkpt>
      <trkpt lat="51.139008980244398" lon="14.958880003541708">
        <ele>233.25999999999999</ele>
        <time>2024-09-18T11:20:15Z</time>
      </trkpt>
      <trkpt lat="51.138749979436398" lon="14.958236021921039">
        <ele>233.74000000000001</ele>
        <time>2024-09-18T11:20:19Z</time>
      </trkpt>
      <trkpt lat="51.138100968673825" lon="14.956393009051681">
        <ele>233.74000000000001</ele>
        <time>2024-09-18T11:20:30Z</time>
      </trkpt>
      <trkpt lat="51.137493029236794" lon="14.954313961789012">
        <ele>236.62</ele>
        <time>2024-09-18T11:20:42Z</time>
      </trkpt>
      <trkpt lat="51.136942002922297" lon="14.952592989429832">
        <ele>234.22</ele>
        <time>2024-09-18T11:20:52Z</time>
      </trkpt>
      <trkpt lat="51.136741004884243" lon="14.951956970617175">
        <ele>233.25999999999999</ele>
        <time>2024-09-18T11:20:57Z</time>
      </trkpt>
      <trkpt lat="51.136574959382415" lon="14.951504012569785">
        <ele>232.30000000000001</ele>
        <time>2024-09-18T11:21:01Z</time>
      </trkpt>
      <trkpt lat="51.136490972712636" lon="14.951281975954771">
        <ele>231.33000000000001</ele>
        <time>2024-09-18T11:21:03Z</time>
      </trkpt>
      <trkpt lat="51.136243036016822" lon="14.950623996555805">
        <ele>228.93000000000001</ele>
        <time>2024-09-18T11:21:10Z</time>
      </trkpt>
      <trkpt lat="51.136191990226507" lon="14.950487958267331">
        <ele>228.44999999999999</ele>
        <time>2024-09-18T11:21:12Z</time>
      </trkpt>
      <trkpt lat="51.136013036593795" lon="14.950041035190225">
        <ele>227.49000000000001</ele>
        <time>2024-09-18T11:21:16Z</time>
      </trkpt>
      <trkpt lat="51.13555395975709" lon="14.948967983946204">
        <ele>225.56999999999999</ele>
        <time>2024-09-18T11:21:23Z</time>
      </trkpt>
      <trkpt lat="51.135149030014873" lon="14.948025019839406">
        <ele>223.16</ele>
        <time>2024-09-18T11:21:29Z</time>
      </trkpt>
      <trkpt lat="51.135063031688333" lon="14.947894010692835">
        <ele>222.68000000000001</ele>
        <time>2024-09-18T11:21:30Z</time>
      </trkpt>
      <trkpt lat="51.134302960708737" lon="14.946429021656513">
        <ele>222.68000000000001</ele>
        <time>2024-09-18T11:21:40Z</time>
      </trkpt>
      <trkpt lat="51.133290007710457" lon="14.944505961611867">
        <ele>228.44999999999999</ele>
        <time>2024-09-18T11:21:53Z</time>
      </trkpt>
      <trkpt lat="51.132764965295792" lon="14.943463001400232">
        <ele>234.22</ele>
        <time>2024-09-18T11:22:00Z</time>
      </trkpt>
      <trkpt lat="51.132702017202973" lon="14.943299973383546">
        <ele>235.66</ele>
        <time>2024-09-18T11:22:01Z</time>
      </trkpt>
      <trkpt lat="51.132656000554562" lon="14.943115990608931">
        <ele>236.13999999999999</ele>
        <time>2024-09-18T11:22:02Z</time>
      </trkpt>
      <trkpt lat="51.13263102248311" lon="14.942928990349174">
        <ele>237.09999999999999</ele>
        <time>2024-09-18T11:22:03Z</time>
      </trkpt>
      <trkpt lat="51.132606966421008" lon="14.942744001746178">
        <ele>238.53999999999999</ele>
        <time>2024-09-18T11:22:04Z</time>
      </trkpt>
      <trkpt lat="51.132421977818012" lon="14.941424019634724">
        <ele>242.38999999999999</ele>
        <time>2024-09-18T11:22:11Z</time>
      </trkpt>
      <trkpt lat="51.132398005574942" lon="14.941237019374967">
        <ele>242.38999999999999</ele>
        <time>2024-09-18T11:22:12Z</time>
      </trkpt>
      <trkpt lat="51.132366992533207" lon="14.940998973324895">
        <ele>242.87</ele>
        <time>2024-09-18T11:22:13Z</time>
      </trkpt>
      <trkpt lat="51.132327010855079" lon="14.940897971391678">
        <ele>242.87</ele>
        <time>2024-09-18T11:22:14Z</time>
      </trkpt>
      <trkpt lat="51.132262973114848" lon="14.940769979730248">
        <ele>243.34999999999999</ele>
        <time>2024-09-18T11:22:15Z</time>
      </trkpt>
      <trkpt lat="51.132192984223366" lon="14.940713988617063">
        <ele>243.83000000000001</ele>
        <time>2024-09-18T11:22:16Z</time>
      </trkpt>
      <trkpt lat="51.132125006988645" lon="14.940683981403708">
        <ele>244.31</ele>
        <time>2024-09-18T11:22:17Z</time>
      </trkpt>
      <trkpt lat="51.132056023925543" lon="14.94066302664578">
        <ele>244.78999999999999</ele>
        <time>2024-09-18T11:22:18Z</time>
      </trkpt>
      <trkpt lat="51.131549002602696" lon="14.940555989742279">
        <ele>245.75</ele>
        <time>2024-09-18T11:22:24Z</time>
      </trkpt>
      <trkpt lat="51.131298970431089" lon="14.940574010834098">
        <ele>246.22999999999999</ele>
        <time>2024-09-18T11:22:27Z</time>
      </trkpt>
      <trkpt lat="51.130301021039486" lon="14.940962009131908">
        <ele>246.72</ele>
        <time>2024-09-18T11:22:39Z</time>
      </trkpt>
      <trkpt lat="51.130059035494924" lon="14.941108021885157">
        <ele>247.68000000000001</ele>
        <time>2024-09-18T11:22:42Z</time>
      </trkpt>
      <trkpt lat="51.12998896278441" lon="14.941152026876807">
        <ele>248.16</ele>
        <time>2024-09-18T11:22:43Z</time>
      </trkpt>
      <trkpt lat="51.129919979721308" lon="14.941196031868458">
        <ele>248.63999999999999</ele>
        <time>2024-09-18T11:22:44Z</time>
      </trkpt>
      <trkpt lat="51.129842028021812" lon="14.94124598801136">
        <ele>248.63999999999999</ele>
        <time>2024-09-18T11:22:45Z</time>
      </trkpt>
      <trkpt lat="51.129760975018144" lon="14.941283036023378">
        <ele>249.12</ele>
        <time>2024-09-18T11:22:46Z</time>
      </trkpt>
      <trkpt lat="51.129667013883591" lon="14.941299967467785">
        <ele>249.12</ele>
        <time>2024-09-18T11:22:47Z</time>
      </trkpt>
      <trkpt lat="51.129577998071909" lon="14.941315976902843">
        <ele>249.59999999999999</ele>
        <time>2024-09-18T11:22:48Z</time>
      </trkpt>
      <trkpt lat="51.128788003697991" lon="14.941038032993674">
        <ele>252.96000000000001</ele>
        <time>2024-09-18T11:22:57Z</time>
      </trkpt>
      <trkpt lat="51.128707034513354" lon="14.940999979153275">
        <ele>252.96000000000001</ele>
        <time>2024-09-18T11:22:58Z</time>
      </trkpt>
      <trkpt lat="51.128611983731389" lon="14.940955974161625">
        <ele>252.96000000000001</ele>
        <time>2024-09-18T11:22:59Z</time>
      </trkpt>
      <trkpt lat="51.128540989011526" lon="14.94094398804009">
        <ele>252.96000000000001</ele>
        <time>2024-09-18T11:23:00Z</time>
      </trkpt>
      <trkpt lat="51.128449961543083" lon="14.940938958898187">
        <ele>252.96000000000001</ele>
        <time>2024-09-18T11:23:01Z</time>
      </trkpt>
      <trkpt lat="51.128359017893672" lon="14.940952034667134">
        <ele>252.47999999999999</ele>
        <time>2024-09-18T11:23:02Z</time>
      </trkpt>
      <trkpt lat="51.128261033445597" lon="14.940984975546598">
        <ele>252</ele>
        <time>2024-09-18T11:23:03Z</time>
      </trkpt>
      <trkpt lat="51.12816103734076" lon="14.941026968881488">
        <ele>252</ele>
        <time>2024-09-18T11:23:04Z</time>
      </trkpt>
      <trkpt lat="51.127477996051311" lon="14.941312959417701">
        <ele>251.52000000000001</ele>
        <time>2024-09-18T11:23:11Z</time>
      </trkpt>
      <trkpt lat="51.127226036041975" lon="14.941402981057763">
        <ele>251.03999999999999</ele>
        <time>2024-09-18T11:23:13Z</time>
      </trkpt>
      <trkpt lat="51.12693702802062" lon="14.941476993262768">
        <ele>250.56</ele>
        <time>2024-09-18T11:23:15Z</time>
      </trkpt>
      <trkpt lat="51.126778023317456" lon="14.941487973555923">
        <ele>250.56</ele>
        <time>2024-09-18T11:23:16Z</time>
      </trkpt>
      <trkpt lat="51.125165009871125" lon="14.941316982731223">
        <ele>250.56</ele>
        <time>2024-09-18T11:23:25Z</time>
      </trkpt>
      <trkpt lat="51.123648975044489" lon="14.941322011873126">
        <ele>257.29000000000002</ele>
        <time>2024-09-18T11:23:34Z</time>
      </trkpt>
      <trkpt lat="51.1231579631567" lon="14.941168036311865">
        <ele>259.20999999999998</ele>
        <time>2024-09-18T11:23:37Z</time>
      </trkpt>
      <trkpt lat="51.123008010908961" lon="14.9410729855299">
        <ele>260.17000000000002</ele>
        <time>2024-09-18T11:23:38Z</time>
      </trkpt>
      <trkpt lat="51.122861998155713" lon="14.940981036052108">
        <ele>261.13999999999999</ele>
        <time>2024-09-18T11:23:39Z</time>
      </trkpt>
      <trkpt lat="51.122722020372748" lon="14.94087802246213">
        <ele>262.10000000000002</ele>
        <time>2024-09-18T11:23:40Z</time>
      </trkpt>
      <trkpt lat="51.122604003176093" lon="14.94075195863843">
        <ele>263.06</ele>
        <time>2024-09-18T11:23:41Z</time>
      </trkpt>
      <trkpt lat="51.121992962434888" lon="14.940028013661504">
        <ele>263.54000000000002</ele>
        <time>2024-09-18T11:23:48Z</time>
      </trkpt>
      <trkpt lat="51.121318973600864" lon="14.939231984317303">
        <ele>261.13999999999999</ele>
        <time>2024-09-18T11:23:59Z</time>
      </trkpt>
      <trkpt lat="51.121261976659298" lon="14.939166018739343">
        <ele>260.64999999999998</ele>
        <time>2024-09-18T11:24:00Z</time>
      </trkpt>
      <trkpt lat="51.12120296806097" lon="14.939098041504622">
        <ele>260.64999999999998</ele>
        <time>2024-09-18T11:24:01Z</time>
      </trkpt>
      <trkpt lat="51.120761996135116" lon="14.938588002696633">
        <ele>258.73000000000002</ele>
        <time>2024-09-18T11:24:10Z</time>
      </trkpt>
      <trkpt lat="51.12044801004231" lon="14.938223976641893">
        <ele>257.29000000000002</ele>
        <time>2024-09-18T11:24:21Z</time>
      </trkpt>
      <trkpt lat="51.12034298479557" lon="14.938095984980464">
        <ele>255.84999999999999</ele>
        <time>2024-09-18T11:24:33Z</time>
      </trkpt>
      <trkpt lat="51.12034298479557" lon="14.938095984980464">
        <ele>255.84999999999999</ele>
        <time>2024-09-18T11:25:12Z</time>
      </trkpt>
      <trkpt lat="51.12034298479557" lon="14.938095984980464">
        <ele>256.81</ele>
        <time>2024-09-18T11:25:29Z</time>
      </trkpt>
      <trkpt lat="51.120315995067358" lon="14.938062960281968">
        <ele>256.81</ele>
        <time>2024-09-18T11:25:37Z</time>
      </trkpt>
      <trkpt lat="51.120297973975539" lon="14.938042005524039">
        <ele>256.81</ele>
        <time>2024-09-18T11:25:38Z</time>
      </trkpt>
      <trkpt lat="51.120272995904088" lon="14.938010992482305">
        <ele>256.81</ele>
        <time>2024-09-18T11:25:39Z</time>
      </trkpt>
      <trkpt lat="51.119855996221304" lon="14.937410010024905">
        <ele>253.93000000000001</ele>
        <time>2024-09-18T11:25:54Z</time>
      </trkpt>
      <trkpt lat="51.119633037596941" lon="14.937043972313404">
        <ele>252.47999999999999</ele>
        <time>2024-09-18T11:26:08Z</time>
      </trkpt>
      <trkpt lat="51.119633037596941" lon="14.937043972313404">
        <ele>252.47999999999999</ele>
        <time>2024-09-18T11:26:22Z</time>
      </trkpt>
      <trkpt lat="51.11963102594018" lon="14.937067022547126">
        <ele>252.47999999999999</ele>
        <time>2024-09-18T11:26:27Z</time>
      </trkpt>
      <trkpt lat="51.119624990969896" lon="14.937074985355139">
        <ele>252.96000000000001</ele>
        <time>2024-09-18T11:26:28Z</time>
      </trkpt>
      <trkpt lat="51.119643012061715" lon="14.937051013112068">
        <ele>252.96000000000001</ele>
        <time>2024-09-18T11:26:29Z</time>
      </trkpt>
      <trkpt lat="51.119643012061715" lon="14.937051013112068">
        <ele>252.96000000000001</ele>
        <time>2024-09-18T11:26:30Z</time>
      </trkpt>
      <trkpt lat="51.119643012061715" lon="14.937051013112068">
        <ele>252.96000000000001</ele>
        <time>2024-09-18T11:26:31Z</time>
      </trkpt>
      <trkpt lat="51.119643012061715" lon="14.937051013112068">
        <ele>252.96000000000001</ele>
        <time>2024-09-18T11:26:32Z</time>
      </trkpt>
      <trkpt lat="51.119673019275069" lon="14.937101975083351">
        <ele>252.96000000000001</ele>
        <time>2024-09-18T11:26:33Z</time>
      </trkpt>
      <trkpt lat="51.119702020660043" lon="14.937151009216905">
        <ele>252.96000000000001</ele>
        <time>2024-09-18T11:26:34Z</time>
      </trkpt>
      <trkpt lat="51.119738984853029" lon="14.937212029471993">
        <ele>252.47999999999999</ele>
        <time>2024-09-18T11:26:35Z</time>
      </trkpt>
      <trkpt lat="51.119777960702777" lon="14.937276989221573">
        <ele>252.47999999999999</ele>
        <time>2024-09-18T11:26:36Z</time>
      </trkpt>
      <trkpt lat="51.119968984276056" lon="14.937600027769804">
        <ele>251.52000000000001</ele>
        <time>2024-09-18T11:26:41Z</time>
      </trkpt>
      <trkpt lat="51.120006032288074" lon="14.937661970034242">
        <ele>251.52000000000001</ele>
        <time>2024-09-18T11:26:42Z</time>
      </trkpt>
      <trkpt lat="51.120050959289074" lon="14.937736988067627">
        <ele>251.52000000000001</ele>
        <time>2024-09-18T11:26:43Z</time>
      </trkpt>
      <trkpt lat="51.120120026171207" lon="14.937821980565786">
        <ele>251.52000000000001</ele>
        <time>2024-09-18T11:26:45Z</time>
      </trkpt>
      <trkpt lat="51.120160007849336" lon="14.93787101469934">
        <ele>252</ele>
        <time>2024-09-18T11:26:46Z</time>
      </trkpt>
      <trkpt lat="51.120203007012606" lon="14.937923988327384">
        <ele>252</ele>
        <time>2024-09-18T11:26:47Z</time>
      </trkpt>
      <trkpt lat="51.120240977033973" lon="14.937971010804176">
        <ele>252.47999999999999</ele>
        <time>2024-09-18T11:26:48Z</time>
      </trkpt>
      <trkpt lat="51.12027701921761" lon="14.938015015795827">
        <ele>252.96000000000001</ele>
        <time>2024-09-18T11:26:49Z</time>
      </trkpt>
      <trkpt lat="51.120314989238977" lon="14.938062038272619">
        <ele>253.44</ele>
        <time>2024-09-18T11:26:50Z</time>
      </trkpt>
      <trkpt lat="51.120354970917106" lon="14.93810998275876">
        <ele>253.93000000000001</ele>
        <time>2024-09-18T11:26:51Z</time>
      </trkpt>
      <trkpt lat="51.120395036414266" lon="14.938160022720695">
        <ele>253.93000000000001</ele>
        <time>2024-09-18T11:26:52Z</time>
      </trkpt>
      <trkpt lat="51.120437029749155" lon="14.938211990520358">
        <ele>253.93000000000001</ele>
        <time>2024-09-18T11:26:53Z</time>
      </trkpt>
      <trkpt lat="51.120536020025611" lon="14.938332019373775">
        <ele>254.41</ele>
        <time>2024-09-18T11:26:55Z</time>
      </trkpt>
      <trkpt lat="51.120592011138797" lon="14.938393961638212">
        <ele>254.41</ele>
        <time>2024-09-18T11:26:56Z</time>
      </trkpt>
      <trkpt lat="51.120720002800226" lon="14.93853997439146">
        <ele>254.41</ele>
        <time>2024-09-18T11:26:58Z</time>
      </trkpt>
      <trkpt lat="51.121439002454281" lon="14.939383026212454">
        <ele>254.88999999999999</ele>
        <time>2024-09-18T11:27:07Z</time>
      </trkpt>
      <trkpt lat="51.122462013736367" lon="14.94059999473393">
        <ele>257.76999999999998</ele>
        <time>2024-09-18T11:27:16Z</time>
      </trkpt>
      <trkpt lat="51.12302896566689" lon="14.941085977479815">
        <ele>260.64999999999998</ele>
        <time>2024-09-18T11:27:20Z</time>
      </trkpt>
      <trkpt lat="51.123171960934997" lon="14.941173987463117">
        <ele>261.13999999999999</ele>
        <time>2024-09-18T11:27:21Z</time>
      </trkpt>
      <trkpt lat="51.124373003840446" lon="14.941345984116197">
        <ele>263.06</ele>
        <time>2024-09-18T11:27:29Z</time>
      </trkpt>
      <trkpt lat="51.125942012295127" lon="14.941399041563272">
        <ele>256.32999999999998</ele>
        <time>2024-09-18T11:27:38Z</time>
      </trkpt>
      <trkpt lat="51.126965023577213" lon="14.941474981606007">
        <ele>257.29000000000002</ele>
        <time>2024-09-18T11:27:43Z</time>
      </trkpt>
      <trkpt lat="51.127159986644983" lon="14.941425025463104">
        <ele>257.76999999999998</ele>
        <time>2024-09-18T11:27:44Z</time>
      </trkpt>
      <trkpt lat="51.127355033531785" lon="14.941360987722874">
        <ele>258.73000000000002</ele>
        <time>2024-09-18T11:27:45Z</time>
      </trkpt>
      <trkpt lat="51.128261033445597" lon="14.940985981374979">
        <ele>263.06</ele>
        <time>2024-09-18T11:27:51Z</time>
      </trkpt>
      <trkpt lat="51.128366980701685" lon="14.940951028838754">
        <ele>263.06</ele>
        <time>2024-09-18T11:27:52Z</time>
      </trkpt>
      <trkpt lat="51.12846395932138" lon="14.940937031060457">
        <ele>263.54000000000002</ele>
        <time>2024-09-18T11:27:53Z</time>
      </trkpt>
      <trkpt lat="51.128561021760106" lon="14.940947005525231">
        <ele>263.54000000000002</ele>
        <time>2024-09-18T11:27:54Z</time>
      </trkpt>
      <trkpt lat="51.128650959581137" lon="14.940973995253444">
        <ele>264.01999999999998</ele>
        <time>2024-09-18T11:27:55Z</time>
      </trkpt>
      <trkpt lat="51.128727989271283" lon="14.941010037437081">
        <ele>264.01999999999998</ele>
        <time>2024-09-18T11:27:56Z</time>
      </trkpt>
      <trkpt lat="51.128802001476288" lon="14.941043984144926">
        <ele>263.54000000000002</ele>
        <time>2024-09-18T11:27:57Z</time>
      </trkpt>
      <trkpt lat="51.129413964226842" lon="14.941289993003011">
        <ele>264.98000000000002</ele>
        <time>2024-09-18T11:28:05Z</time>
      </trkpt>
      <trkpt lat="51.129721999168396" lon="14.941290998831391">
        <ele>265.94</ele>
        <time>2024-09-18T11:28:09Z</time>
      </trkpt>
      <trkpt lat="51.129799028858542" lon="14.941272977739573">
        <ele>265.94</ele>
        <time>2024-09-18T11:28:10Z</time>
      </trkpt>
      <trkpt lat="51.129873963072896" lon="14.941225033253431">
        <ele>265.94</ele>
        <time>2024-09-18T11:28:11Z</time>
      </trkpt>
      <trkpt lat="51.129948981106281" lon="14.941178010776639">
        <ele>265.94</ele>
        <time>2024-09-18T11:28:12Z</time>
      </trkpt>
      <trkpt lat="51.130022993311286" lon="14.941130988299847">
        <ele>265.94</ele>
        <time>2024-09-18T11:28:13Z</time>
      </trkpt>
      <trkpt lat="51.130950031802058" lon="14.940682975575328">
        <ele>264.98000000000002</ele>
        <time>2024-09-18T11:28:25Z</time>
      </trkpt>
      <trkpt lat="51.131736002862453" lon="14.940591026097536">
        <ele>265.94</ele>
        <time>2024-09-18T11:28:35Z</time>
      </trkpt>
      <trkpt lat="51.132005983963609" lon="14.940648023039103">
        <ele>265.94</ele>
        <time>2024-09-18T11:28:39Z</time>
      </trkpt>
      <trkpt lat="51.132054012268782" lon="14.940662020817399">
        <ele>265.94</ele>
        <time>2024-09-18T11:28:40Z</time>
      </trkpt>
      <trkpt lat="51.132174041122198" lon="14.940697979182005">
        <ele>265.94</ele>
        <time>2024-09-18T11:28:42Z</time>
      </trkpt>
      <trkpt lat="51.132217040285468" lon="14.940733015537262">
        <ele>265.94</ele>
        <time>2024-09-18T11:28:43Z</time>
      </trkpt>
      <trkpt lat="51.132280994206667" lon="14.940783977508545">
        <ele>265.94</ele>
        <time>2024-09-18T11:28:44Z</time>
      </trkpt>
      <trkpt lat="51.132305972278118" lon="14.940847009420395">
        <ele>265.94</ele>
        <time>2024-09-18T11:28:45Z</time>
      </trkpt>
      <trkpt lat="51.132332039996982" lon="14.940910963341594">
        <ele>265.45999999999998</ele>
        <time>2024-09-18T11:28:46Z</time>
      </trkpt>
      <trkpt lat="51.132356012240052" lon="14.940970977768302">
        <ele>265.45999999999998</ele>
        <time>2024-09-18T11:28:47Z</time>
      </trkpt>
      <trkpt lat="51.132404962554574" lon="14.940952034667134">
        <ele>264.98000000000002</ele>
        <time>2024-09-18T11:28:48Z</time>
      </trkpt>
      <trkpt lat="51.132449973374605" lon="14.940895037725568">
        <ele>264.98000000000002</ele>
        <time>2024-09-18T11:28:49Z</time>
      </trkpt>
      <trkpt lat="51.132538989186287" lon="14.940783977508545">
        <ele>264.98000000000002</ele>
        <time>2024-09-18T11:28:50Z</time>
      </trkpt>
      <trkpt lat="51.132546029984951" lon="14.940738966688514">
        <ele>264.98000000000002</ele>
        <time>2024-09-18T11:28:51Z</time>
      </trkpt>
      <trkpt lat="51.13256698474288" lon="14.940614998340607">
        <ele>265.45999999999998</ele>
        <time>2024-09-18T11:28:52Z</time>
      </trkpt>
      <trkpt lat="51.132773011922836" lon="14.939337009564042">
        <ele>265.94</ele>
        <time>2024-09-18T11:29:01Z</time>
      </trkpt>
      <trkpt lat="51.132861021906137" lon="14.938831999897957">
        <ele>266.89999999999998</ele>
        <time>2024-09-18T11:29:05Z</time>
      </trkpt>
      <trkpt lat="51.132869990542531" lon="14.938705014064908">
        <ele>267.38</ele>
        <time>2024-09-18T11:29:06Z</time>
      </trkpt>
      <trkpt lat="51.132924975827336" lon="14.938337970525026">
        <ele>268.82999999999998</ele>
        <time>2024-09-18T11:29:09Z</time>
      </trkpt>
      <trkpt lat="51.132947020232677" lon="14.938148036599159">
        <ele>269.31</ele>
        <time>2024-09-18T11:29:11Z</time>
      </trkpt>
      <trkpt lat="51.132960012182593" lon="14.938039993867278">
        <ele>269.31</ele>
        <time>2024-09-18T11:29:12Z</time>
      </trkpt>
      <trkpt lat="51.133080963045359" lon="14.937295010313392">
        <ele>269.79000000000002</ele>
        <time>2024-09-18T11:29:19Z</time>
      </trkpt>
      <trkpt lat="51.133099989965558" lon="14.937179004773498">
        <ele>269.79000000000002</ele>
        <time>2024-09-18T11:29:20Z</time>
      </trkpt>
      <trkpt lat="51.133204009383917" lon="14.936556983739138">
        <ele>269.79000000000002</ele>
        <time>2024-09-18T11:29:25Z</time>
      </trkpt>
      <trkpt lat="51.133650010451674" lon="14.935276983305812">
        <ele>271.23000000000002</ele>
        <time>2024-09-18T11:29:33Z</time>
      </trkpt>
      <trkpt lat="51.134450985118747" lon="14.933144962415099">
        <ele>268.35000000000002</ele>
        <time>2024-09-18T11:29:46Z</time>
      </trkpt>
      <trkpt lat="51.13503796979785" lon="14.931474030017853">
        <ele>264.5</ele>
        <time>2024-09-18T11:29:56Z</time>
      </trkpt>
      <trkpt lat="51.13565999083221" lon="14.929638979956508">
        <ele>260.64999999999998</ele>
        <time>2024-09-18T11:30:05Z</time>
      </trkpt>
      <trkpt lat="51.135781025514007" lon="14.929477963596582">
        <ele>260.17000000000002</ele>
        <time>2024-09-18T11:30:06Z</time>
      </trkpt>
      <trkpt lat="51.135913040488958" lon="14.929325999692082">
        <ele>259.20999999999998</ele>
        <time>2024-09-18T11:30:07Z</time>
      </trkpt>
      <trkpt lat="51.137091033160686" lon="14.927936028689146">
        <ele>247.68000000000001</ele>
        <time>2024-09-18T11:30:17Z</time>
      </trkpt>
      <trkpt lat="51.137197986245155" lon="14.92783603258431">
        <ele>246.72</ele>
        <time>2024-09-18T11:30:18Z</time>
      </trkpt>
      <trkpt lat="51.137310974299908" lon="14.927746010944247">
        <ele>246.22999999999999</ele>
        <time>2024-09-18T11:30:19Z</time>
      </trkpt>
      <trkpt lat="51.137429997324944" lon="14.927691025659442">
        <ele>245.75</ele>
        <time>2024-09-18T11:30:20Z</time>
      </trkpt>
      <trkpt lat="51.137983035296202" lon="14.9274099804461">
        <ele>242.87</ele>
        <time>2024-09-18T11:30:26Z</time>
      </trkpt>
      <trkpt lat="51.138055035844445" lon="14.927368992939591">
        <ele>242.87</ele>
        <time>2024-09-18T11:30:27Z</time>
      </trkpt>
      <trkpt lat="51.138923987746239" lon="14.926424017176032">
        <ele>240.47</ele>
        <time>2024-09-18T11:30:40Z</time>
      </trkpt>
      <trkpt lat="51.139053991064429" lon="14.926254032179713">
        <ele>239.50999999999999</ele>
        <time>2024-09-18T11:30:42Z</time>
      </trkpt>
      <trkpt lat="51.13911903463304" lon="14.926169039681554">
        <ele>238.53999999999999</ele>
        <time>2024-09-18T11:30:43Z</time>
      </trkpt>
      <trkpt lat="51.139308968558908" lon="14.925920013338327">
        <ele>235.66</ele>
        <time>2024-09-18T11:30:46Z</time>
      </trkpt>
      <trkpt lat="51.139424974098802" lon="14.925728989765048">
        <ele>234.22</ele>
        <time>2024-09-18T11:30:48Z</time>
      </trkpt>
      <trkpt lat="51.139476019889116" lon="14.925637962296605">
        <ele>233.25999999999999</ele>
        <time>2024-09-18T11:30:49Z</time>
      </trkpt>
      <trkpt lat="51.139531005173922" lon="14.925551963970065">
        <ele>232.78</ele>
        <time>2024-09-18T11:30:50Z</time>
      </trkpt>
      <trkpt lat="51.139600994065404" lon="14.925478035584092">
        <ele>232.30000000000001</ele>
        <time>2024-09-18T11:30:51Z</time>
      </trkpt>
      <trkpt lat="51.139676012098789" lon="14.925398994237185">
        <ele>231.81</ele>
        <time>2024-09-18T11:30:52Z</time>
      </trkpt>
      <trkpt lat="51.139754969626665" lon="14.925316013395786">
        <ele>231.33000000000001</ele>
        <time>2024-09-18T11:30:53Z</time>
      </trkpt>
      <trkpt lat="51.139831999316812" lon="14.925234960392118">
        <ele>231.33000000000001</ele>
        <time>2024-09-18T11:30:54Z</time>
      </trkpt>
      <trkpt lat="51.139906011521816" lon="14.925157008692622">
        <ele>230.84999999999999</ele>
        <time>2024-09-18T11:30:55Z</time>
      </trkpt>
      <trkpt lat="51.13995797932148" lon="14.925039997324347">
        <ele>230.84999999999999</ele>
        <time>2024-09-18T11:30:56Z</time>
      </trkpt>
      <trkpt lat="51.139983963221312" lon="14.924908988177776">
        <ele>230.84999999999999</ele>
        <time>2024-09-18T11:30:57Z</time>
      </trkpt>
      <trkpt lat="51.139984969049692" lon="14.924777979031205">
        <ele>230.84999999999999</ele>
        <time>2024-09-18T11:30:58Z</time>
      </trkpt>
      <trkpt lat="51.139984969049692" lon="14.924647975713015">
        <ele>230.84999999999999</ele>
        <time>2024-09-18T11:30:59Z</time>
      </trkpt>
      <trkpt lat="51.139984969049692" lon="14.924544962123036">
        <ele>230.84999999999999</ele>
        <time>2024-09-18T11:31:00Z</time>
      </trkpt>
      <trkpt lat="51.139984969049692" lon="14.924498023465276">
        <ele>230.37</ele>
        <time>2024-09-18T11:31:01Z</time>
      </trkpt>
      <trkpt lat="51.139994021505117" lon="14.924319991841912">
        <ele>230.37</ele>
        <time>2024-09-18T11:31:03Z</time>
      </trkpt>
      <trkpt lat="51.139965020120144" lon="14.924254026263952">
        <ele>230.37</ele>
        <time>2024-09-18T11:31:04Z</time>
      </trkpt>
      <trkpt lat="51.139842979609966" lon="14.923974992707372">
        <ele>230.84999999999999</ele>
        <time>2024-09-18T11:31:07Z</time>
      </trkpt>
      <trkpt lat="51.139791011810303" lon="14.923855969682336">
        <ele>231.33000000000001</ele>
        <time>2024-09-18T11:31:08Z</time>
      </trkpt>
      <trkpt lat="51.139674000442028" lon="14.923600992187858">
        <ele>231.81</ele>
        <time>2024-09-18T11:31:10Z</time>
      </trkpt>
      <trkpt lat="51.139600994065404" lon="14.923464031890035">
        <ele>231.81</ele>
        <time>2024-09-18T11:31:11Z</time>
      </trkpt>
      <trkpt lat="51.139446012675762" lon="14.92317502386868">
        <ele>231.33000000000001</ele>
        <time>2024-09-18T11:31:13Z</time>
      </trkpt>
      <trkpt lat="51.139365965500474" lon="14.923022976145148">
        <ele>231.33000000000001</ele>
        <time>2024-09-18T11:31:14Z</time>
      </trkpt>
      <trkpt lat="51.139139989390969" lon="14.922500029206276">
        <ele>231.33000000000001</ele>
        <time>2024-09-18T11:31:17Z</time>
      </trkpt>
      <trkpt lat="51.139089027419686" lon="14.922307999804616">
        <ele>231.81</ele>
        <time>2024-09-18T11:31:18Z</time>
      </trkpt>
      <trkpt lat="51.139042004942894" lon="14.922128040343523">
        <ele>231.81</ele>
        <time>2024-09-18T11:31:19Z</time>
      </trkpt>
      <trkpt lat="51.138461977243423" lon="14.920221995562315">
        <ele>235.66</ele>
        <time>2024-09-18T11:31:29Z</time>
      </trkpt>
      <trkpt lat="51.137495040893555" lon="14.917943039909005">
        <ele>240.94999999999999</ele>
        <time>2024-09-18T11:31:38Z</time>
      </trkpt>
      <trkpt lat="51.137395966798067" lon="14.91771899163723">
        <ele>241.43000000000001</ele>
        <time>2024-09-18T11:31:39Z</time>
      </trkpt>
      <trkpt lat="51.137277027592063" lon="14.917545989155769">
        <ele>241.91</ele>
        <time>2024-09-18T11:31:40Z</time>
      </trkpt>
      <trkpt lat="51.137153981253505" lon="14.917400982230902">
        <ele>242.38999999999999</ele>
        <time>2024-09-18T11:31:41Z</time>
      </trkpt>
      <trkpt lat="51.136995982378721" lon="14.917350020259619">
        <ele>242.87</ele>
        <time>2024-09-18T11:31:42Z</time>
      </trkpt>
      <trkpt lat="51.136828009039164" lon="14.917319007217884">
        <ele>242.87</ele>
        <time>2024-09-18T11:31:43Z</time>
      </trkpt>
      <trkpt lat="51.1366499774158" lon="14.917286988347769">
        <ele>243.34999999999999</ele>
        <time>2024-09-18T11:31:44Z</time>
      </trkpt>
      <trkpt lat="51.134459031745791" lon="14.916890021413565">
        <ele>247.68000000000001</ele>
        <time>2024-09-18T11:31:55Z</time>
      </trkpt>
      <trkpt lat="51.133866012096405" lon="14.916685000061989">
        <ele>249.12</ele>
        <time>2024-09-18T11:31:58Z</time>
      </trkpt>
      <trkpt lat="51.133693009614944" lon="14.916561031714082">
        <ele>249.59999999999999</ele>
        <time>2024-09-18T11:31:59Z</time>
      </trkpt>
      <trkpt lat="51.133517995476723" lon="14.916398003697395">
        <ele>250.08000000000001</ele>
        <time>2024-09-18T11:32:00Z</time>
      </trkpt>
      <trkpt lat="51.133351027965546" lon="14.916187031194568">
        <ele>250.56</ele>
        <time>2024-09-18T11:32:01Z</time>
      </trkpt>
      <trkpt lat="51.133182970806956" lon="14.91595895960927">
        <ele>250.56</ele>
        <time>2024-09-18T11:32:02Z</time>
      </trkpt>
      <trkpt lat="51.131376000121236" lon="14.913559975102544">
        <ele>253.93000000000001</ele>
        <time>2024-09-18T11:32:12Z</time>
      </trkpt>
      <trkpt lat="51.129095032811165" lon="14.911050014197826">
        <ele>253.44</ele>
        <time>2024-09-18T11:32:24Z</time>
      </trkpt>
      <trkpt lat="51.128102028742433" lon="14.909733971580863">
        <ele>252.96000000000001</ele>
        <time>2024-09-18T11:32:31Z</time>
      </trkpt>
      <trkpt lat="51.127630965784192" lon="14.908647006377578">
        <ele>252</ele>
        <time>2024-09-18T11:32:37Z</time>
      </trkpt>
      <trkpt lat="51.127524012699723" lon="14.908404015004635">
        <ele>251.52000000000001</ele>
        <time>2024-09-18T11:32:39Z</time>
      </trkpt>
      <trkpt lat="51.126890005543828" lon="14.907000968232751">
        <ele>247.19999999999999</ele>
        <time>2024-09-18T11:32:49Z</time>
      </trkpt>
      <trkpt lat="51.126822028309107" lon="14.906908012926579">
        <ele>246.72</ele>
        <time>2024-09-18T11:32:50Z</time>
      </trkpt>
      <trkpt lat="51.126747010275722" lon="14.9068240262568">
        <ele>245.75</ele>
        <time>2024-09-18T11:32:51Z</time>
      </trkpt>
      <trkpt lat="51.126684984192252" lon="14.906778009608388">
        <ele>245.27000000000001</ele>
        <time>2024-09-18T11:32:52Z</time>
      </trkpt>
      <trkpt lat="51.12659596838057" lon="14.906797036528587">
        <ele>244.78999999999999</ele>
        <time>2024-09-18T11:32:53Z</time>
      </trkpt>
      <trkpt lat="51.12650896422565" lon="14.906816985458136">
        <ele>244.31</ele>
        <time>2024-09-18T11:32:54Z</time>
      </trkpt>
      <trkpt lat="51.126432018354535" lon="14.906921004876494">
        <ele>243.83000000000001</ele>
        <time>2024-09-18T11:32:55Z</time>
      </trkpt>
      <trkpt lat="51.126348031684756" lon="14.907033992931247">
        <ele>242.87</ele>
        <time>2024-09-18T11:32:56Z</time>
      </trkpt>
      <trkpt lat="51.126261027529836" lon="14.907152010127902">
        <ele>242.38999999999999</ele>
        <time>2024-09-18T11:32:57Z</time>
      </trkpt>
      <trkpt lat="51.126172011718154" lon="14.907272960990667">
        <ele>241.91</ele>
        <time>2024-09-18T11:32:58Z</time>
      </trkpt>
      <trkpt lat="51.125343041494489" lon="14.908382976427674">
        <ele>243.34999999999999</ele>
        <time>2024-09-18T11:33:07Z</time>
      </trkpt>
      <trkpt lat="51.125242039561272" lon="14.90847903303802">
        <ele>243.83000000000001</ele>
        <time>2024-09-18T11:33:08Z</time>
      </trkpt>
      <trkpt lat="51.125141037628055" lon="14.908575005829334">
        <ele>244.31</ele>
        <time>2024-09-18T11:33:09Z</time>
      </trkpt>
      <trkpt lat="51.123903030529618" lon="14.909367011860013">
        <ele>247.19999999999999</ele>
        <time>2024-09-18T11:33:20Z</time>
      </trkpt>
      <trkpt lat="51.123560965061188" lon="14.909582007676363">
        <ele>247.68000000000001</ele>
        <time>2024-09-18T11:33:23Z</time>
      </trkpt>
      <trkpt lat="51.122797960415483" lon="14.910468980669975">
        <ele>247.19999999999999</ele>
        <time>2024-09-18T11:33:31Z</time>
      </trkpt>
      <trkpt lat="51.121948035433888" lon="14.911835985258222">
        <ele>247.19999999999999</ele>
        <time>2024-09-18T11:33:41Z</time>
      </trkpt>
      <trkpt lat="51.121198022738099" lon="14.912794958800077">
        <ele>246.72</ele>
        <time>2024-09-18T11:33:49Z</time>
      </trkpt>
      <trkpt lat="51.12109299749136" lon="14.912877017632127">
        <ele>246.72</ele>
        <time>2024-09-18T11:33:50Z</time>
      </trkpt>
      <trkpt lat="51.120176017284393" lon="14.913800032809377">
        <ele>247.19999999999999</ele>
        <time>2024-09-18T11:33:59Z</time>
      </trkpt>
      <trkpt lat="51.119613004848361" lon="14.91451702080667">
        <ele>248.16</ele>
        <time>2024-09-18T11:34:05Z</time>
      </trkpt>
      <trkpt lat="51.119532035663724" lon="14.914656998589635">
        <ele>248.63999999999999</ele>
        <time>2024-09-18T11:34:06Z</time>
      </trkpt>
      <trkpt lat="51.119372025132179" lon="14.914934020489454">
        <ele>249.12</ele>
        <time>2024-09-18T11:34:08Z</time>
      </trkpt>
      <trkpt lat="51.119270017370582" lon="14.915027981624007">
        <ele>249.12</ele>
        <time>2024-09-18T11:34:09Z</time>
      </trkpt>
      <trkpt lat="51.11851598136127" lon="14.91556903347373">
        <ele>250.56</ele>
        <time>2024-09-18T11:34:16Z</time>
      </trkpt>
      <trkpt lat="51.118391007184982" lon="14.915550006553531">
        <ele>250.56</ele>
        <time>2024-09-18T11:34:17Z</time>
      </trkpt>
      <trkpt lat="51.118272989988327" lon="14.91552796214819">
        <ele>250.56</ele>
        <time>2024-09-18T11:34:18Z</time>
      </trkpt>
      <trkpt lat="51.117802010849118" lon="14.915498038753867">
        <ele>252</ele>
        <time>2024-09-18T11:34:22Z</time>
      </trkpt>
      <trkpt lat="51.117690028622746" lon="14.91552796214819">
        <ele>252</ele>
        <time>2024-09-18T11:34:23Z</time>
      </trkpt>
      <trkpt lat="51.11759296618402" lon="14.915625024586916">
        <ele>252</ele>
        <time>2024-09-18T11:34:24Z</time>
      </trkpt>
      <trkpt lat="51.117500010877848" lon="14.915734995156527">
        <ele>252</ele>
        <time>2024-09-18T11:34:25Z</time>
      </trkpt>
      <trkpt lat="51.117408983409405" lon="14.915861980989575">
        <ele>252</ele>
        <time>2024-09-18T11:34:26Z</time>
      </trkpt>
      <trkpt lat="51.117319967597723" lon="14.915993995964527">
        <ele>252</ele>
        <time>2024-09-18T11:34:27Z</time>
      </trkpt>
      <trkpt lat="51.117255007848144" lon="14.916161969304085">
        <ele>252</ele>
        <time>2024-09-18T11:34:28Z</time>
      </trkpt>
      <trkpt lat="51.117188958451152" lon="14.916330026462674">
        <ele>252</ele>
        <time>2024-09-18T11:34:29Z</time>
      </trkpt>
      <trkpt lat="51.1169049795717" lon="14.917184980586171">
        <ele>251.03999999999999</ele>
        <time>2024-09-18T11:34:34Z</time>
      </trkpt>
      <trkpt lat="51.116800960153341" lon="14.91752696223557">
        <ele>250.08000000000001</ele>
        <time>2024-09-18T11:34:36Z</time>
      </trkpt>
      <trkpt lat="51.116328975185752" lon="14.918830012902617">
        <ele>248.16</ele>
        <time>2024-09-18T11:34:44Z</time>
      </trkpt>
      <trkpt lat="51.116268960759044" lon="14.918949035927653">
        <ele>248.16</ele>
        <time>2024-09-18T11:34:45Z</time>
      </trkpt>
      <trkpt lat="51.116205006837845" lon="14.919023970142007">
        <ele>248.16</ele>
        <time>2024-09-18T11:34:46Z</time>
      </trkpt>
      <trkpt lat="51.116115991026163" lon="14.919035034254193">
        <ele>248.16</ele>
        <time>2024-09-18T11:34:47Z</time>
      </trkpt>
      <trkpt lat="51.116033010184765" lon="14.918979965150356">
        <ele>248.16</ele>
        <time>2024-09-18T11:34:48Z</time>
      </trkpt>
      <trkpt lat="51.11593603156507" lon="14.918916011229157">
        <ele>248.16</ele>
        <time>2024-09-18T11:34:49Z</time>
      </trkpt>
      <trkpt lat="51.115247961133718" lon="14.91857604123652">
        <ele>250.08000000000001</ele>
        <time>2024-09-18T11:34:55Z</time>
      </trkpt>
      <trkpt lat="51.115131033584476" lon="14.918532036244869">
        <ele>250.56</ele>
        <time>2024-09-18T11:34:56Z</time>
      </trkpt>
      <trkpt lat="51.114644967019558" lon="14.918352998793125">
        <ele>253.44</ele>
        <time>2024-09-18T11:35:00Z</time>
      </trkpt>
      <trkpt lat="51.114520998671651" lon="14.918306982144713">
        <ele>254.88999999999999</ele>
        <time>2024-09-18T11:35:01Z</time>
      </trkpt>
      <trkpt lat="51.11441002227366" lon="14.918307987973094">
        <ele>256.32999999999998</ele>
        <time>2024-09-18T11:35:02Z</time>
      </trkpt>
      <trkpt lat="51.114342967048287" lon="14.918317962437868">
        <ele>257.76999999999998</ele>
        <time>2024-09-18T11:35:03Z</time>
      </trkpt>
      <trkpt lat="51.114269960671663" lon="14.918421981856227">
        <ele>259.20999999999998</ele>
        <time>2024-09-18T11:35:04Z</time>
      </trkpt>
      <trkpt lat="51.114210030063987" lon="14.918506974354386">
        <ele>260.17000000000002</ele>
        <time>2024-09-18T11:35:05Z</time>
      </trkpt>
      <trkpt lat="51.114185974001884" lon="14.91861904039979">
        <ele>260.64999999999998</ele>
        <time>2024-09-18T11:35:06Z</time>
      </trkpt>
      <trkpt lat="51.114172982051969" lon="14.918789025396109">
        <ele>261.13999999999999</ele>
        <time>2024-09-18T11:35:07Z</time>
      </trkpt>
      <trkpt lat="51.114158984273672" lon="14.918983988463879">
        <ele>261.62</ele>
        <time>2024-09-18T11:35:08Z</time>
      </trkpt>
      <trkpt lat="51.114015989005566" lon="14.9208789691329">
        <ele>262.57999999999998</ele>
        <time>2024-09-18T11:35:16Z</time>
      </trkpt>
      <trkpt lat="51.11389797180891" lon="14.921659994870424">
        <ele>263.54000000000002</ele>
        <time>2024-09-18T11:35:20Z</time>
      </trkpt>
      <trkpt lat="51.113836029544473" lon="14.921820005401969">
        <ele>264.01999999999998</ele>
        <time>2024-09-18T11:35:21Z</time>
      </trkpt>
      <trkpt lat="51.113741984590888" lon="14.921943973749876">
        <ele>264.5</ele>
        <time>2024-09-18T11:35:22Z</time>
      </trkpt>
      <trkpt lat="51.113634025678039" lon="14.922052016481757">
        <ele>264.5</ele>
        <time>2024-09-18T11:35:23Z</time>
      </trkpt>
      <trkpt lat="51.113519025966525" lon="14.922100966796279">
        <ele>264.5</ele>
        <time>2024-09-18T11:35:24Z</time>
      </trkpt>
      <trkpt lat="51.113387010991573" lon="14.922113958746195">
        <ele>264.5</ele>
        <time>2024-09-18T11:35:25Z</time>
      </trkpt>
      <trkpt lat="51.11325197853148" lon="14.922126028686762">
        <ele>264.5</ele>
        <time>2024-09-18T11:35:26Z</time>
      </trkpt>
      <trkpt lat="51.113118035718799" lon="14.922139020636678">
        <ele>264.98000000000002</ele>
        <time>2024-09-18T11:35:27Z</time>
      </trkpt>
      <trkpt lat="51.112155960872769" lon="14.922175984829664">
        <ele>265.94</ele>
        <time>2024-09-18T11:35:36Z</time>
      </trkpt>
      <trkpt lat="51.112089995294809" lon="14.922176990658045">
        <ele>265.94</ele>
        <time>2024-09-18T11:35:37Z</time>
      </trkpt>
      <trkpt lat="51.112031992524862" lon="14.922179002314806">
        <ele>265.94</ele>
        <time>2024-09-18T11:35:38Z</time>
      </trkpt>
      <trkpt lat="51.111945994198322" lon="14.922097027301788">
        <ele>265.94</ele>
        <time>2024-09-18T11:35:39Z</time>
      </trkpt>
      <trkpt lat="51.111923027783632" lon="14.921978004276752">
        <ele>265.94</ele>
        <time>2024-09-18T11:35:40Z</time>
      </trkpt>
      <trkpt lat="51.111896960064769" lon="14.921837020665407">
        <ele>265.94</ele>
        <time>2024-09-18T11:35:41Z</time>
      </trkpt>
      <trkpt lat="51.111668972298503" lon="14.920474961400032">
        <ele>265.94</ele>
        <time>2024-09-18T11:35:47Z</time>
      </trkpt>
      <trkpt lat="51.111535029485822" lon="14.91814898326993">
        <ele>266.42000000000002</ele>
        <time>2024-09-18T11:35:54Z</time>
      </trkpt>
      <trkpt lat="51.111410977318883" lon="14.916700003668666">
        <ele>269.79000000000002</ele>
        <time>2024-09-18T11:35:58Z</time>
      </trkpt>
      <trkpt lat="51.111331013962626" lon="14.916391968727112">
        <ele>270.75</ele>
        <time>2024-09-18T11:35:59Z</time>
      </trkpt>
      <trkpt lat="51.111226994544268" lon="14.916098015382886">
        <ele>271.70999999999998</ele>
        <time>2024-09-18T11:36:00Z</time>
      </trkpt>
      <trkpt lat="51.110128965228796" lon="14.913461990654469">
        <ele>276.51999999999998</ele>
        <time>2024-09-18T11:36:08Z</time>
      </trkpt>
      <trkpt lat="51.107869036495686" lon="14.908082988113165">
        <ele>283.73000000000002</ele>
        <time>2024-09-18T11:36:24Z</time>
      </trkpt>
      <trkpt lat="51.106360964477062" lon="14.904670966789126">
        <ele>288.05000000000001</ele>
        <time>2024-09-18T11:36:35Z</time>
      </trkpt>
      <trkpt lat="51.106138005852699" lon="14.904039977118373">
        <ele>288.05000000000001</ele>
        <time>2024-09-18T11:36:37Z</time>
      </trkpt>
      <trkpt lat="51.10605401918292" lon="14.903711993247271">
        <ele>288.05000000000001</ele>
        <time>2024-09-18T11:36:38Z</time>
      </trkpt>
      <trkpt lat="51.105659985914826" lon="14.901166995987296">
        <ele>286.61000000000001</ele>
        <time>2024-09-18T11:36:45Z</time>
      </trkpt>
      <trkpt lat="51.105668032541871" lon="14.900778997689486">
        <ele>286.13</ele>
        <time>2024-09-18T11:36:46Z</time>
      </trkpt>
      <trkpt lat="51.105567030608654" lon="14.89803702570498">
        <ele>285.64999999999998</ele>
        <time>2024-09-18T11:36:53Z</time>
      </trkpt>
      <trkpt lat="51.104802014306188" lon="14.89288198761642">
        <ele>289.00999999999999</ele>
        <time>2024-09-18T11:37:07Z</time>
      </trkpt>
      <trkpt lat="51.104228021577001" lon="14.889699965715408">
        <ele>295.74000000000001</ele>
        <time>2024-09-18T11:37:16Z</time>
      </trkpt>
      <trkpt lat="51.104020988568664" lon="14.88673503510654">
        <ele>289.00999999999999</ele>
        <time>2024-09-18T11:37:24Z</time>
      </trkpt>
      <trkpt lat="51.103678001090884" lon="14.884800994768739">
        <ele>278.44</ele>
        <time>2024-09-18T11:37:30Z</time>
      </trkpt>
      <trkpt lat="51.103437021374702" lon="14.883379004895687">
        <ele>269.31</ele>
        <time>2024-09-18T11:37:36Z</time>
      </trkpt>
      <trkpt lat="51.103335013613105" lon="14.881955003365874">
        <ele>263.06</ele>
        <time>2024-09-18T11:37:43Z</time>
      </trkpt>
      <trkpt lat="51.103335013613105" lon="14.881852995604277">
        <ele>262.57999999999998</ele>
        <time>2024-09-18T11:37:44Z</time>
      </trkpt>
      <trkpt lat="51.103335013613105" lon="14.881790969520807">
        <ele>262.57999999999998</ele>
        <time>2024-09-18T11:37:45Z</time>
      </trkpt>
      <trkpt lat="51.103265024721622" lon="14.881791975349188">
        <ele>262.10000000000002</ele>
        <time>2024-09-18T11:37:46Z</time>
      </trkpt>
      <trkpt lat="51.103202998638153" lon="14.881826005876064">
        <ele>261.62</ele>
        <time>2024-09-18T11:37:47Z</time>
      </trkpt>
      <trkpt lat="51.103124963119626" lon="14.881867999210954">
        <ele>261.62</ele>
        <time>2024-09-18T11:37:48Z</time>
      </trkpt>
      <trkpt lat="51.103036031126976" lon="14.881916027516127">
        <ele>261.13999999999999</ele>
        <time>2024-09-18T11:37:49Z</time>
      </trkpt>
      <trkpt lat="51.102941986173391" lon="14.88196698948741">
        <ele>260.64999999999998</ele>
        <time>2024-09-18T11:37:50Z</time>
      </trkpt>
      <trkpt lat="51.102542001754045" lon="14.882189026102424">
        <ele>260.17000000000002</ele>
        <time>2024-09-18T11:37:54Z</time>
      </trkpt>
      <trkpt lat="51.102433959022164" lon="14.88222599029541">
        <ele>260.17000000000002</ele>
        <time>2024-09-18T11:37:55Z</time>
      </trkpt>
      <trkpt lat="51.102224998176098" lon="14.882195983082056">
        <ele>259.69</ele>
        <time>2024-09-18T11:37:57Z</time>
      </trkpt>
      <trkpt lat="51.102140005677938" lon="14.882127000018954">
        <ele>259.69</ele>
        <time>2024-09-18T11:37:58Z</time>
      </trkpt>
      <trkpt lat="51.102053001523018" lon="14.882056005299091">
        <ele>259.69</ele>
        <time>2024-09-18T11:37:59Z</time>
      </trkpt>
      <trkpt lat="51.101873964071274" lon="14.881909992545843">
        <ele>260.17000000000002</ele>
        <time>2024-09-18T11:38:01Z</time>
      </trkpt>
      <trkpt lat="51.101689981296659" lon="14.881760040298104">
        <ele>260.64999999999998</ele>
        <time>2024-09-18T11:38:03Z</time>
      </trkpt>
      <trkpt lat="51.10158302821219" lon="14.88172902725637">
        <ele>261.13999999999999</ele>
        <time>2024-09-18T11:38:04Z</time>
      </trkpt>
      <trkpt lat="51.101470040157437" lon="14.881701031699777">
        <ele>261.62</ele>
        <time>2024-09-18T11:38:05Z</time>
      </trkpt>
      <trkpt lat="51.101355962455273" lon="14.881672030314803">
        <ele>262.10000000000002</ele>
        <time>2024-09-18T11:38:06Z</time>
      </trkpt>
      <trkpt lat="51.101238029077649" lon="14.88164302892983">
        <ele>262.57999999999998</ele>
        <time>2024-09-18T11:38:07Z</time>
      </trkpt>
      <trkpt lat="51.100179981440306" lon="14.881440019235015">
        <ele>265.94</ele>
        <time>2024-09-18T11:38:16Z</time>
      </trkpt>
      <trkpt lat="51.099816961213946" lon="14.88125997595489">
        <ele>265.94</ele>
        <time>2024-09-18T11:38:19Z</time>
      </trkpt>
      <trkpt lat="51.099712019786239" lon="14.88115101121366">
        <ele>265.94</ele>
        <time>2024-09-18T11:38:20Z</time>
      </trkpt>
      <trkpt lat="51.09960800036788" lon="14.881041962653399">
        <ele>266.42000000000002</ele>
        <time>2024-09-18T11:38:21Z</time>
      </trkpt>
      <trkpt lat="51.099503980949521" lon="14.880934003740549">
        <ele>266.42000000000002</ele>
        <time>2024-09-18T11:38:22Z</time>
      </trkpt>
      <trkpt lat="51.099404990673065" lon="14.880830990150571">
        <ele>266.89999999999998</ele>
        <time>2024-09-18T11:38:23Z</time>
      </trkpt>
      <trkpt lat="51.098786992952228" lon="14.88022699020803">
        <ele>267.86000000000001</ele>
        <time>2024-09-18T11:38:29Z</time>
      </trkpt>
      <trkpt lat="51.098708035424352" lon="14.880085000768304">
        <ele>267.86000000000001</ele>
        <time>2024-09-18T11:38:30Z</time>
      </trkpt>
      <trkpt lat="51.098649026826024" lon="14.87992599606514">
        <ele>268.35000000000002</ele>
        <time>2024-09-18T11:38:31Z</time>
      </trkpt>
      <trkpt lat="51.098357001319528" lon="14.879050003364682">
        <ele>269.31</ele>
        <time>2024-09-18T11:38:36Z</time>
      </trkpt>
      <trkpt lat="51.097980989143252" lon="14.877482000738382">
        <ele>271.70999999999998</ele>
        <time>2024-09-18T11:38:45Z</time>
      </trkpt>
      <trkpt lat="51.097643030807376" lon="14.875634964555502">
        <ele>274.11000000000001</ele>
        <time>2024-09-18T11:38:55Z</time>
      </trkpt>
      <trkpt lat="51.0975899733603" lon="14.874109039083123">
        <ele>273.63</ele>
        <time>2024-09-18T11:39:03Z</time>
      </trkpt>
      <trkpt lat="51.097584022209048" lon="14.873858001083136">
        <ele>273.63</ele>
        <time>2024-09-18T11:39:04Z</time>
      </trkpt>
      <trkpt lat="51.097509004175663" lon="14.873548038303852">
        <ele>273.63</ele>
        <time>2024-09-18T11:39:06Z</time>
      </trkpt>
      <trkpt lat="51.097341030836105" lon="14.872831972315907">
        <ele>274.11000000000001</ele>
        <time>2024-09-18T11:39:10Z</time>
      </trkpt>
      <trkpt lat="51.097319992259145" lon="14.87264497205615">
        <ele>274.58999999999997</ele>
        <time>2024-09-18T11:39:11Z</time>
      </trkpt>
      <trkpt lat="51.097203986719251" lon="14.871489023789763">
        <ele>276.04000000000002</ele>
        <time>2024-09-18T11:39:18Z</time>
      </trkpt>
      <trkpt lat="51.097198035567999" lon="14.871410988271236">
        <ele>276.51999999999998</ele>
        <time>2024-09-18T11:39:19Z</time>
      </trkpt>
      <trkpt lat="51.09715897589922" lon="14.871292971074581">
        <ele>276.51999999999998</ele>
        <time>2024-09-18T11:39:20Z</time>
      </trkpt>
      <trkpt lat="51.097127962857485" lon="14.871201021596789">
        <ele>277</ele>
        <time>2024-09-18T11:39:21Z</time>
      </trkpt>
      <trkpt lat="51.097100973129272" lon="14.871149975806475">
        <ele>277</ele>
        <time>2024-09-18T11:39:22Z</time>
      </trkpt>
      <trkpt lat="51.097005000337958" lon="14.871110999956727">
        <ele>277</ele>
        <time>2024-09-18T11:39:23Z</time>
      </trkpt>
      <trkpt lat="51.096936017274857" lon="14.87111602909863">
        <ele>277</ele>
        <time>2024-09-18T11:39:24Z</time>
      </trkpt>
      <trkpt lat="51.09683501534164" lon="14.871121980249882">
        <ele>277</ele>
        <time>2024-09-18T11:39:25Z</time>
      </trkpt>
      <trkpt lat="51.096736025065184" lon="14.871129021048546">
        <ele>277.48000000000002</ele>
        <time>2024-09-18T11:39:26Z</time>
      </trkpt>
      <trkpt lat="51.096540978178382" lon="14.871103037148714">
        <ele>277.95999999999998</ele>
        <time>2024-09-18T11:39:28Z</time>
      </trkpt>
      <trkpt lat="51.09644802287221" lon="14.871083004400134">
        <ele>278.44</ele>
        <time>2024-09-18T11:39:29Z</time>
      </trkpt>
      <trkpt lat="51.096252975985408" lon="14.871060959994793">
        <ele>279.88</ele>
        <time>2024-09-18T11:39:31Z</time>
      </trkpt>
      <trkpt lat="51.096162032335997" lon="14.871121980249882">
        <ele>280.83999999999997</ele>
        <time>2024-09-18T11:39:32Z</time>
      </trkpt>
      <trkpt lat="51.096067987382412" lon="14.871185012161732">
        <ele>281.31999999999999</ele>
        <time>2024-09-18T11:39:33Z</time>
      </trkpt>
      <trkpt lat="51.095596002414823" lon="14.871500004082918">
        <ele>284.69</ele>
        <time>2024-09-18T11:39:38Z</time>
      </trkpt>
      <trkpt lat="51.09453602693975" lon="14.87202001735568">
        <ele>290.94</ele>
        <time>2024-09-18T11:39:47Z</time>
      </trkpt>
      <trkpt lat="51.093224007636309" lon="14.872803976759315">
        <ele>294.30000000000001</ele>
        <time>2024-09-18T11:39:55Z</time>
      </trkpt>
      <trkpt lat="51.090972041711211" lon="14.874165030196309">
        <ele>293.81999999999999</ele>
        <time>2024-09-18T11:40:06Z</time>
      </trkpt>
      <trkpt lat="51.08839301392436" lon="14.875691961497068">
        <ele>280.36000000000001</ele>
        <time>2024-09-18T11:40:17Z</time>
      </trkpt>
      <trkpt lat="51.086367024108768" lon="14.876323034986854">
        <ele>274.11000000000001</ele>
        <time>2024-09-18T11:40:25Z</time>
      </trkpt>
      <trkpt lat="51.084667006507516" lon="14.876669039949775">
        <ele>277.48000000000002</ele>
        <time>2024-09-18T11:40:32Z</time>
      </trkpt>
      <trkpt lat="51.084467014297843" lon="14.876818992197514">
        <ele>277.95999999999998</ele>
        <time>2024-09-18T11:40:33Z</time>
      </trkpt>
      <trkpt lat="51.084262998774648" lon="14.876971039921045">
        <ele>278.44</ele>
        <time>2024-09-18T11:40:34Z</time>
      </trkpt>
      <trkpt lat="51.084075998514891" lon="14.87717698328197">
        <ele>278.92000000000002</ele>
        <time>2024-09-18T11:40:35Z</time>
      </trkpt>
      <trkpt lat="51.083887992426753" lon="14.877393990755081">
        <ele>278.92000000000002</ele>
        <time>2024-09-18T11:40:36Z</time>
      </trkpt>
      <trkpt lat="51.082107005640864" lon="14.879440013319254">
        <ele>274.58999999999997</ele>
        <time>2024-09-18T11:40:45Z</time>
      </trkpt>
      <trkpt lat="51.081038983538747" lon="14.880422037094831">
        <ele>273.14999999999998</ele>
        <time>2024-09-18T11:40:50Z</time>
      </trkpt>
      <trkpt lat="51.080807978287339" lon="14.880524966865778">
        <ele>273.14999999999998</ele>
        <time>2024-09-18T11:40:51Z</time>
      </trkpt>
      <trkpt lat="51.080355020239949" lon="14.880755972117186">
        <ele>273.14999999999998</ele>
        <time>2024-09-18T11:40:53Z</time>
      </trkpt>
      <trkpt lat="51.080138012766838" lon="14.880910031497478">
        <ele>273.14999999999998</ele>
        <time>2024-09-18T11:40:54Z</time>
      </trkpt>
      <trkpt lat="51.077898032963276" lon="14.882681965827942">
        <ele>268.35000000000002</ele>
        <time>2024-09-18T11:41:04Z</time>
      </trkpt>
      <trkpt lat="51.075800964608788" lon="14.883798016235232">
        <ele>259.69</ele>
        <time>2024-09-18T11:41:13Z</time>
      </trkpt>
      <trkpt lat="51.074950033798814" lon="14.884099010378122">
        <ele>254.41</ele>
        <time>2024-09-18T11:41:17Z</time>
      </trkpt>
      <trkpt lat="51.074737971648574" lon="14.884107979014516">
        <ele>252.96000000000001</ele>
        <time>2024-09-18T11:41:18Z</time>
      </trkpt>
      <trkpt lat="51.074530016630888" lon="14.8840949870646">
        <ele>251.52000000000001</ele>
        <time>2024-09-18T11:41:19Z</time>
      </trkpt>
      <trkpt lat="51.074131038039923" lon="14.88398602232337">
        <ele>248.16</ele>
        <time>2024-09-18T11:41:21Z</time>
      </trkpt>
      <trkpt lat="51.073915036395192" lon="14.88405198790133">
        <ele>246.22999999999999</ele>
        <time>2024-09-18T11:41:22Z</time>
      </trkpt>
      <trkpt lat="51.073702974244952" lon="14.884117031469941">
        <ele>244.78999999999999</ele>
        <time>2024-09-18T11:41:23Z</time>
      </trkpt>
      <trkpt lat="51.073483033105731" lon="14.884184002876282">
        <ele>242.87</ele>
        <time>2024-09-18T11:41:24Z</time>
      </trkpt>
      <trkpt lat="51.07326602563262" lon="14.884279975667596">
        <ele>241.43000000000001</ele>
        <time>2024-09-18T11:41:25Z</time>
      </trkpt>
      <trkpt lat="51.073053041473031" lon="14.884415008127689">
        <ele>239.99000000000001</ele>
        <time>2024-09-18T11:41:26Z</time>
      </trkpt>
      <trkpt lat="51.072837961837649" lon="14.884550962597132">
        <ele>238.53999999999999</ele>
        <time>2024-09-18T11:41:27Z</time>
      </trkpt>
      <trkpt lat="51.071068961173296" lon="14.885582020506263">
        <ele>229.41</ele>
        <time>2024-09-18T11:41:36Z</time>
      </trkpt>
      <trkpt lat="51.070371000096202" lon="14.886031039059162">
        <ele>223.63999999999999</ele>
        <time>2024-09-18T11:41:40Z</time>
      </trkpt>
      <trkpt lat="51.069836989045143" lon="14.886382995173335">
        <ele>218.84</ele>
        <time>2024-09-18T11:41:43Z</time>
      </trkpt>
      <trkpt lat="51.068722028285265" lon="14.887343980371952">
        <ele>212.11000000000001</ele>
        <time>2024-09-18T11:41:50Z</time>
      </trkpt>
      <trkpt lat="51.06752903200686" lon="14.888532031327486">
        <ele>206.81999999999999</ele>
        <time>2024-09-18T11:41:59Z</time>
      </trkpt>
      <trkpt lat="51.066625965759158" lon="14.889709018170834">
        <ele>201.05000000000001</ele>
        <time>2024-09-18T11:42:07Z</time>
      </trkpt>
      <trkpt lat="51.066087009385228" lon="14.890227019786835">
        <ele>199.13</ele>
        <time>2024-09-18T11:42:12Z</time>
      </trkpt>
      <trkpt lat="51.065982989966869" lon="14.890345958992839">
        <ele>199.13</ele>
        <time>2024-09-18T11:42:13Z</time>
      </trkpt>
      <trkpt lat="51.065895985811949" lon="14.890456013381481">
        <ele>199.13</ele>
        <time>2024-09-18T11:42:14Z</time>
      </trkpt>
      <trkpt lat="51.065816022455692" lon="14.890572018921375">
        <ele>198.65000000000001</ele>
        <time>2024-09-18T11:42:15Z</time>
      </trkpt>
      <trkpt lat="51.065733963623643" lon="14.890693975612521">
        <ele>198.16999999999999</ele>
        <time>2024-09-18T11:42:16Z</time>
      </trkpt>
      <trkpt lat="51.064987974241376" lon="14.891783036291599">
        <ele>196.72999999999999</ele>
        <time>2024-09-18T11:42:25Z</time>
      </trkpt>
      <trkpt lat="51.064918991178274" lon="14.891847996041179">
        <ele>196.72999999999999</ele>
        <time>2024-09-18T11:42:30Z</time>
      </trkpt>
      <trkpt lat="51.064912034198642" lon="14.891854031011462">
        <ele>196.72999999999999</ele>
        <time>2024-09-18T11:42:33Z</time>
      </trkpt>
      <trkpt lat="51.064886972308159" lon="14.891909016296268">
        <ele>196.72999999999999</ele>
        <time>2024-09-18T11:42:34Z</time>
      </trkpt>
      <trkpt lat="51.064898958429694" lon="14.891985962167382">
        <ele>196.72999999999999</ele>
        <time>2024-09-18T11:42:35Z</time>
      </trkpt>
      <trkpt lat="51.064914967864752" lon="14.892090987414122">
        <ele>196.72999999999999</ele>
        <time>2024-09-18T11:42:36Z</time>
      </trkpt>
      <trkpt lat="51.064933994784951" lon="14.89221403375268">
        <ele>196.72999999999999</ele>
        <time>2024-09-18T11:42:37Z</time>
      </trkpt>
      <trkpt lat="51.064979005604982" lon="14.892509998753667">
        <ele>196.25</ele>
        <time>2024-09-18T11:42:39Z</time>
      </trkpt>
      <trkpt lat="51.065005995333195" lon="14.892680989578366">
        <ele>195.77000000000001</ele>
        <time>2024-09-18T11:42:40Z</time>
      </trkpt>
      <trkpt lat="51.064998032525182" lon="14.892872013151646">
        <ele>195.77000000000001</ele>
        <time>2024-09-18T11:42:41Z</time>
      </trkpt>
      <trkpt lat="51.064979005604982" lon="14.893076028674841">
        <ele>195.77000000000001</ele>
        <time>2024-09-18T11:42:42Z</time>
      </trkpt>
      <trkpt lat="51.064942041411996" lon="14.893285995349288">
        <ele>196.25</ele>
        <time>2024-09-18T11:42:43Z</time>
      </trkpt>
      <trkpt lat="51.064885966479778" lon="14.893480958417058">
        <ele>196.72999999999999</ele>
        <time>2024-09-18T11:42:44Z</time>
      </trkpt>
      <trkpt lat="51.064799968153238" lon="14.893619008362293">
        <ele>196.72999999999999</ele>
        <time>2024-09-18T11:42:45Z</time>
      </trkpt>
      <trkpt lat="51.064703995361924" lon="14.893766026943922">
        <ele>197.21000000000001</ele>
        <time>2024-09-18T11:42:46Z</time>
      </trkpt>
      <trkpt lat="51.064605005085468" lon="14.893918996676803">
        <ele>197.21000000000001</ele>
        <time>2024-09-18T11:42:47Z</time>
      </trkpt>
      <trkpt lat="51.064482964575291" lon="14.893971970304847">
        <ele>197.69</ele>
        <time>2024-09-18T11:42:48Z</time>
      </trkpt>
      <trkpt lat="51.064304010942578" lon="14.894048999994993">
        <ele>197.21000000000001</ele>
        <time>2024-09-18T11:42:49Z</time>
      </trkpt>
      <trkpt lat="51.064165960997343" lon="14.894037013873458">
        <ele>197.69</ele>
        <time>2024-09-18T11:42:50Z</time>
      </trkpt>
      <trkpt lat="51.06402799487114" lon="14.894001977518201">
        <ele>197.69</ele>
        <time>2024-09-18T11:42:51Z</time>
      </trkpt>
      <trkpt lat="51.063897991552949" lon="14.89391497336328">
        <ele>197.69</ele>
        <time>2024-09-18T11:42:52Z</time>
      </trkpt>
      <trkpt lat="51.063766982406378" lon="14.893819000571966">
        <ele>197.69</ele>
        <time>2024-09-18T11:42:53Z</time>
      </trkpt>
      <trkpt lat="51.062928037717938" lon="14.893135959282517">
        <ele>202.00999999999999</ele>
        <time>2024-09-18T11:42:59Z</time>
      </trkpt>
      <trkpt lat="51.062764003872871" lon="14.8930539842695">
        <ele>202.49000000000001</ele>
        <time>2024-09-18T11:43:00Z</time>
      </trkpt>
      <trkpt lat="51.062582032755017" lon="14.893003022298217">
        <ele>202.97999999999999</ele>
        <time>2024-09-18T11:43:01Z</time>
      </trkpt>
      <trkpt lat="51.062407018616796" lon="14.892977960407734">
        <ele>203.46000000000001</ele>
        <time>2024-09-18T11:43:02Z</time>
      </trkpt>
      <trkpt lat="51.062209960073233" lon="14.892963040620089">
        <ele>203.46000000000001</ele>
        <time>2024-09-18T11:43:03Z</time>
      </trkpt>
      <trkpt lat="51.062027988955379" lon="14.893004028126597">
        <ele>204.41999999999999</ele>
        <time>2024-09-18T11:43:04Z</time>
      </trkpt>
      <trkpt lat="51.061841994524002" lon="14.893046021461487">
        <ele>205.38</ele>
        <time>2024-09-18T11:43:05Z</time>
      </trkpt>
      <trkpt lat="51.06164401397109" lon="14.893147023394704">
        <ele>206.34</ele>
        <time>2024-09-18T11:43:06Z</time>
      </trkpt>
      <trkpt lat="51.061468999832869" lon="14.893264034762979">
        <ele>207.30000000000001</ele>
        <time>2024-09-18T11:43:07Z</time>
      </trkpt>
      <trkpt lat="51.060527041554451" lon="14.893792010843754">
        <ele>211.63</ele>
        <time>2024-09-18T11:43:12Z</time>
      </trkpt>
      <trkpt lat="51.05885099619627" lon="14.894302971661091">
        <ele>220.28</ele>
        <time>2024-09-18T11:43:20Z</time>
      </trkpt>
      <trkpt lat="51.05721602216363" lon="14.895408041775227">
        <ele>226.53</ele>
        <time>2024-09-18T11:43:28Z</time>
      </trkpt>
      <trkpt lat="51.055704010650516" lon="14.897269997745752">
        <ele>229.41</ele>
        <time>2024-09-18T11:43:36Z</time>
      </trkpt>
      <trkpt lat="51.054466003552079" lon="14.89990996196866">
        <ele>230.84999999999999</ele>
        <time>2024-09-18T11:43:45Z</time>
      </trkpt>
      <trkpt lat="51.053124982863665" lon="14.903111010789871">
        <ele>228.44999999999999</ele>
        <time>2024-09-18T11:43:56Z</time>
      </trkpt>
      <trkpt lat="51.052788030356169" lon="14.903535973280668">
        <ele>227.49000000000001</ele>
        <time>2024-09-18T11:43:58Z</time>
      </trkpt>
      <trkpt lat="51.052603041753173" lon="14.903702018782496">
        <ele>226.53</ele>
        <time>2024-09-18T11:43:59Z</time>
      </trkpt>
      <trkpt lat="51.052418975159526" lon="14.903867980465293">
        <ele>226.05000000000001</ele>
        <time>2024-09-18T11:44:00Z</time>
      </trkpt>
      <trkpt lat="51.052225017920136" lon="14.904023967683315">
        <ele>225.56999999999999</ele>
        <time>2024-09-18T11:44:01Z</time>
      </trkpt>
      <trkpt lat="51.052027959376574" lon="14.904114995151758">
        <ele>224.61000000000001</ele>
        <time>2024-09-18T11:44:02Z</time>
      </trkpt>
      <trkpt lat="51.051836013793945" lon="14.904203005135059">
        <ele>223.63999999999999</ele>
        <time>2024-09-18T11:44:03Z</time>
      </trkpt>
      <trkpt lat="51.050656009465456" lon="14.904700974002481">
        <ele>217.40000000000001</ele>
        <time>2024-09-18T11:44:10Z</time>
      </trkpt>
      <trkpt lat="51.050134990364313" lon="14.90491303615272">
        <ele>214.99000000000001</ele>
        <time>2024-09-18T11:44:16Z</time>
      </trkpt>
      <trkpt lat="51.050101965665817" lon="14.904926028102636">
        <ele>214.50999999999999</ele>
        <time>2024-09-18T11:44:17Z</time>
      </trkpt>
      <trkpt lat="51.05008402839303" lon="14.904933990910649">
        <ele>214.50999999999999</ele>
        <time>2024-09-18T11:44:18Z</time>
      </trkpt>
      <trkpt lat="51.05008402839303" lon="14.904933990910649">
        <ele>214.03</ele>
        <time>2024-09-18T11:44:29Z</time>
      </trkpt>
      <trkpt lat="51.05008402839303" lon="14.904933990910649">
        <ele>214.03</ele>
        <time>2024-09-18T11:44:43Z</time>
      </trkpt>
      <trkpt lat="51.05004396289587" lon="14.904950000345707">
        <ele>214.03</ele>
        <time>2024-09-18T11:44:44Z</time>
      </trkpt>
      <trkpt lat="51.050024013966322" lon="14.90495796315372">
        <ele>214.99000000000001</ele>
        <time>2024-09-18T11:44:45Z</time>
      </trkpt>
      <trkpt lat="51.049999035894871" lon="14.904968021437526">
        <ele>215.94999999999999</ele>
        <time>2024-09-18T11:44:46Z</time>
      </trkpt>
      <trkpt lat="51.049990989267826" lon="14.904971038922668">
        <ele>216.43000000000001</ele>
        <time>2024-09-18T11:44:47Z</time>
      </trkpt>
      <trkpt lat="51.049990989267826" lon="14.904971038922668">
        <ele>216.91</ele>
        <time>2024-09-18T11:44:48Z</time>
      </trkpt>
      <trkpt lat="51.049885964021087" lon="14.905056031420827">
        <ele>217.40000000000001</ele>
        <time>2024-09-18T11:44:53Z</time>
      </trkpt>
      <trkpt lat="51.049827039241791" lon="14.905102970078588">
        <ele>217.40000000000001</ele>
        <time>2024-09-18T11:44:54Z</time>
      </trkpt>
      <trkpt lat="51.049754032865167" lon="14.905160972848535">
        <ele>217.40000000000001</ele>
        <time>2024-09-18T11:44:55Z</time>
      </trkpt>
      <trkpt lat="51.049066968262196" lon="14.905734965577722">
        <ele>217.88</ele>
        <time>2024-09-18T11:45:01Z</time>
      </trkpt>
      <trkpt lat="51.048136996105313" lon="14.907071962952614">
        <ele>219.80000000000001</ele>
        <time>2024-09-18T11:45:08Z</time>
      </trkpt>
      <trkpt lat="51.047408021986485" lon="14.908999968320131">
        <ele>225.56999999999999</ele>
        <time>2024-09-18T11:45:15Z</time>
      </trkpt>
      <trkpt lat="51.047089006751776" lon="14.911067029461265">
        <ele>228.44999999999999</ele>
        <time>2024-09-18T11:45:21Z</time>
      </trkpt>
      <trkpt lat="51.047156983986497" lon="14.913024958223104">
        <ele>228.93000000000001</ele>
        <time>2024-09-18T11:45:27Z</time>
      </trkpt>
      <trkpt lat="51.047360999509692" lon="14.914236981421709">
        <ele>227.97</ele>
        <time>2024-09-18T11:45:33Z</time>
      </trkpt>
      <trkpt lat="51.047417996451259" lon="14.914489025250077">
        <ele>227.97</ele>
        <time>2024-09-18T11:45:35Z</time>
      </trkpt>
      <trkpt lat="51.047436017543077" lon="14.914565971121192">
        <ele>227.97</ele>
        <time>2024-09-18T11:45:36Z</time>
      </trkpt>
      <trkpt lat="51.047431994229555" lon="14.914708966389298">
        <ele>227.97</ele>
        <time>2024-09-18T11:45:37Z</time>
      </trkpt>
      <trkpt lat="51.047401987016201" lon="14.914752971380949">
        <ele>227.97</ele>
        <time>2024-09-18T11:45:38Z</time>
      </trkpt>
      <trkpt lat="51.047362005338073" lon="14.914809968322515">
        <ele>227.97</ele>
        <time>2024-09-18T11:45:39Z</time>
      </trkpt>
      <trkpt lat="51.047312971204519" lon="14.91488004103303">
        <ele>227.97</ele>
        <time>2024-09-18T11:45:40Z</time>
      </trkpt>
      <trkpt lat="51.047156983986497" lon="14.915105011314154">
        <ele>228.93000000000001</ele>
        <time>2024-09-18T11:45:43Z</time>
      </trkpt>
      <trkpt lat="51.047105016186833" lon="14.915198972448707">
        <ele>228.93000000000001</ele>
        <time>2024-09-18T11:45:44Z</time>
      </trkpt>
      <trkpt lat="51.047069979831576" lon="14.91531397216022">
        <ele>229.88999999999999</ele>
        <time>2024-09-18T11:45:45Z</time>
      </trkpt>
      <trkpt lat="51.046691033989191" lon="14.916637977585196">
        <ele>235.66</ele>
        <time>2024-09-18T11:45:56Z</time>
      </trkpt>
      <trkpt lat="51.046316027641296" lon="14.91870797239244">
        <ele>240.47</ele>
        <time>2024-09-18T11:46:07Z</time>
      </trkpt>
      <trkpt lat="51.04582903906703" lon="14.921567039564252">
        <ele>242.38999999999999</ele>
        <time>2024-09-18T11:46:22Z</time>
      </trkpt>
      <trkpt lat="51.045429976657033" lon="14.923751028254628">
        <ele>246.22999999999999</ele>
        <time>2024-09-18T11:46:35Z</time>
      </trkpt>
      <trkpt lat="51.045398041605949" lon="14.923917995765805">
        <ele>247.19999999999999</ele>
        <time>2024-09-18T11:46:37Z</time>
      </trkpt>
      <trkpt lat="51.045338027179241" lon="14.9240149743855">
        <ele>247.19999999999999</ele>
        <time>2024-09-18T11:46:38Z</time>
      </trkpt>
      <trkpt lat="51.045288993045688" lon="14.924000976607203">
        <ele>247.68000000000001</ele>
        <time>2024-09-18T11:46:39Z</time>
      </trkpt>
      <trkpt lat="51.045221015810966" lon="14.923982033506036">
        <ele>247.68000000000001</ele>
        <time>2024-09-18T11:46:40Z</time>
      </trkpt>
      <trkpt lat="51.045135017484426" lon="14.923957977443933">
        <ele>248.16</ele>
        <time>2024-09-18T11:46:41Z</time>
      </trkpt>
      <trkpt lat="51.045030998066068" lon="14.92392897605896">
        <ele>248.16</ele>
        <time>2024-09-18T11:46:42Z</time>
      </trkpt>
      <trkpt lat="51.043585035949945" lon="14.923467971384525">
        <ele>252.96000000000001</ele>
        <time>2024-09-18T11:46:54Z</time>
      </trkpt>
      <trkpt lat="51.042357003316283" lon="14.923056000843644">
        <ele>258.73000000000002</ele>
        <time>2024-09-18T11:47:03Z</time>
      </trkpt>
      <trkpt lat="51.04170698672533" lon="14.922789959236979">
        <ele>261.62</ele>
        <time>2024-09-18T11:47:09Z</time>
      </trkpt>
      <trkpt lat="51.040585990995169" lon="14.921809025108814">
        <ele>264.5</ele>
        <time>2024-09-18T11:47:18Z</time>
      </trkpt>
      <trkpt lat="51.03859000839293" lon="14.92006097920239">
        <ele>265.45999999999998</ele>
        <time>2024-09-18T11:47:33Z</time>
      </trkpt>
      <trkpt lat="51.037205988541245" lon="14.918618034571409">
        <ele>267.38</ele>
        <time>2024-09-18T11:47:44Z</time>
      </trkpt>
      <trkpt lat="51.035348977893591" lon="14.916356010362506">
        <ele>266.42000000000002</ele>
        <time>2024-09-18T11:47:59Z</time>
      </trkpt>
      <trkpt lat="51.033707968890667" lon="14.914359021931887">
        <ele>263.06</ele>
        <time>2024-09-18T11:48:13Z</time>
      </trkpt>
      <trkpt lat="51.032814960926771" lon="14.913149010390043">
        <ele>259.69</ele>
        <time>2024-09-18T11:48:22Z</time>
      </trkpt>
      <trkpt lat="51.032024966552854" lon="14.912060033529997">
        <ele>256.81</ele>
        <time>2024-09-18T11:48:30Z</time>
      </trkpt>
      <trkpt lat="51.031234972178936" lon="14.910970972850919">
        <ele>254.41</ele>
        <time>2024-09-18T11:48:38Z</time>
      </trkpt>
      <trkpt lat="51.02997399866581" lon="14.90923197939992">
        <ele>252.47999999999999</ele>
        <time>2024-09-18T11:48:50Z</time>
      </trkpt>
      <trkpt lat="51.028198041021824" lon="14.906712966039777">
        <ele>254.41</ele>
        <time>2024-09-18T11:49:05Z</time>
      </trkpt>
      <trkpt lat="51.026941007003188" lon="14.905009008944035">
        <ele>257.76999999999998</ele>
        <time>2024-09-18T11:49:16Z</time>
      </trkpt>
      <trkpt lat="51.025229003280401" lon="14.902741033583879">
        <ele>261.62</ele>
        <time>2024-09-18T11:49:30Z</time>
      </trkpt>
      <trkpt lat="51.024030977860093" lon="14.900973960757256">
        <ele>267.38</ele>
        <time>2024-09-18T11:49:42Z</time>
      </trkpt>
      <trkpt lat="51.023826040327549" lon="14.900546986609697">
        <ele>269.79000000000002</ele>
        <time>2024-09-18T11:49:45Z</time>
      </trkpt>
      <trkpt lat="51.023750016465783" lon="14.900480015203357">
        <ele>270.75</ele>
        <time>2024-09-18T11:49:46Z</time>
      </trkpt>
      <trkpt lat="51.023681033402681" lon="14.900421006605029">
        <ele>271.23000000000002</ele>
        <time>2024-09-18T11:49:47Z</time>
      </trkpt>
      <trkpt lat="51.0235729906708" lon="14.900326961651444">
        <ele>272.67000000000002</ele>
        <time>2024-09-18T11:49:49Z</time>
      </trkpt>
      <trkpt lat="51.023534014821053" lon="14.900284968316555">
        <ele>273.14999999999998</ele>
        <time>2024-09-18T11:49:50Z</time>
      </trkpt>
      <trkpt lat="51.023534014821053" lon="14.900172986090183">
        <ele>273.63</ele>
        <time>2024-09-18T11:49:51Z</time>
      </trkpt>
      <trkpt lat="51.023539965972304" lon="14.900038037449121">
        <ele>274.11000000000001</ele>
        <time>2024-09-18T11:49:52Z</time>
      </trkpt>
      <trkpt lat="51.023568967357278" lon="14.899861011654139">
        <ele>274.58999999999997</ele>
        <time>2024-09-18T11:49:53Z</time>
      </trkpt>
      <trkpt lat="51.023601992055774" lon="14.89965196698904">
        <ele>274.58999999999997</ele>
        <time>2024-09-18T11:49:54Z</time>
      </trkpt>
      <trkpt lat="51.023871973156929" lon="14.89795396104455">
        <ele>273.14999999999998</ele>
        <time>2024-09-18T11:50:00Z</time>
      </trkpt>
      <trkpt lat="51.023887982591987" lon="14.897594964131713">
        <ele>273.14999999999998</ele>
        <time>2024-09-18T11:50:01Z</time>
      </trkpt>
      <trkpt lat="51.023867027834058" lon="14.897235967218876">
        <ele>273.14999999999998</ele>
        <time>2024-09-18T11:50:02Z</time>
      </trkpt>
      <trkpt lat="51.023800978437066" lon="14.894567001610994">
        <ele>275.06999999999999</ele>
        <time>2024-09-18T11:50:09Z</time>
      </trkpt>
      <trkpt lat="51.023812964558601" lon="14.894156958907843">
        <ele>275.56</ele>
        <time>2024-09-18T11:50:10Z</time>
      </trkpt>
      <trkpt lat="51.023877002298832" lon="14.89382604137063">
        <ele>275.56</ele>
        <time>2024-09-18T11:50:11Z</time>
      </trkpt>
      <trkpt lat="51.024294001981616" lon="14.890716020017862">
        <ele>276.51999999999998</ele>
        <time>2024-09-18T11:50:19Z</time>
      </trkpt>
      <trkpt lat="51.024772021919489" lon="14.887120015919209">
        <ele>273.63</ele>
        <time>2024-09-18T11:50:28Z</time>
      </trkpt>
      <trkpt lat="51.025432012975216" lon="14.883995996788144">
        <ele>270.75</ele>
        <time>2024-09-18T11:50:36Z</time>
      </trkpt>
      <trkpt lat="51.026285039260983" lon="14.881411017850041">
        <ele>266.89999999999998</ele>
        <time>2024-09-18T11:50:43Z</time>
      </trkpt>
      <trkpt lat="51.027924958616495" lon="14.877272034063935">
        <ele>260.17000000000002</ele>
        <time>2024-09-18T11:50:55Z</time>
      </trkpt>
      <trkpt lat="51.029564961791039" lon="14.874401986598969">
        <ele>256.81</ele>
        <time>2024-09-18T11:51:05Z</time>
      </trkpt>
      <trkpt lat="51.030455036088824" lon="14.872906990349293">
        <ele>255.37</ele>
        <time>2024-09-18T11:51:12Z</time>
      </trkpt>
      <trkpt lat="51.031447034329176" lon="14.870955012738705">
        <ele>251.52000000000001</ele>
        <time>2024-09-18T11:51:22Z</time>
      </trkpt>
      <trkpt lat="51.031665969640017" lon="14.870424019172788">
        <ele>252.47999999999999</ele>
        <time>2024-09-18T11:51:26Z</time>
      </trkpt>
      <trkpt lat="51.031677033752203" lon="14.870339026674628">
        <ele>252.47999999999999</ele>
        <time>2024-09-18T11:51:27Z</time>
      </trkpt>
      <trkpt lat="51.031648032367229" lon="14.870197037234902">
        <ele>252.96000000000001</ele>
        <time>2024-09-18T11:51:28Z</time>
      </trkpt>
      <trkpt lat="51.031590029597282" lon="14.870114978402853">
        <ele>253.44</ele>
        <time>2024-09-18T11:51:29Z</time>
      </trkpt>
      <trkpt lat="51.0315200407058" lon="14.870016993954778">
        <ele>253.44</ele>
        <time>2024-09-18T11:51:30Z</time>
      </trkpt>
      <trkpt lat="51.031433958560228" lon="14.869924960657954">
        <ele>253.44</ele>
        <time>2024-09-18T11:51:31Z</time>
      </trkpt>
      <trkpt lat="51.031334968283772" lon="14.869856983423233">
        <ele>253.44</ele>
        <time>2024-09-18T11:51:32Z</time>
      </trkpt>
      <trkpt lat="51.031234972178936" lon="14.869788000360131">
        <ele>253.44</ele>
        <time>2024-09-18T11:51:33Z</time>
      </trkpt>
      <trkpt lat="51.031136987730861" lon="14.86972002312541">
        <ele>253.44</ele>
        <time>2024-09-18T11:51:34Z</time>
      </trkpt>
      <trkpt lat="51.030858037993312" lon="14.869497986510396">
        <ele>253.44</ele>
        <time>2024-09-18T11:51:37Z</time>
      </trkpt>
      <trkpt lat="51.030772961676121" lon="14.869394972920418">
        <ele>253.93000000000001</ele>
        <time>2024-09-18T11:51:38Z</time>
      </trkpt>
      <trkpt lat="51.030688975006342" lon="14.869281984865665">
        <ele>254.41</ele>
        <time>2024-09-18T11:51:39Z</time>
      </trkpt>
      <trkpt lat="51.030625021085143" lon="14.869128009304404">
        <ele>254.41</ele>
        <time>2024-09-18T11:51:40Z</time>
      </trkpt>
      <trkpt lat="51.030557965859771" lon="14.86896799877286">
        <ele>254.88999999999999</ele>
        <time>2024-09-18T11:51:41Z</time>
      </trkpt>
      <trkpt lat="51.029837960377336" lon="14.86699397675693">
        <ele>257.29000000000002</ele>
        <time>2024-09-18T11:51:51Z</time>
      </trkpt>
      <trkpt lat="51.02915802039206" lon="14.865033030509949">
        <ele>257.76999999999998</ele>
        <time>2024-09-18T11:52:00Z</time>
      </trkpt>
      <trkpt lat="51.029065987095237" lon="14.86486597917974">
        <ele>257.76999999999998</ele>
        <time>2024-09-18T11:52:01Z</time>
      </trkpt>
      <trkpt lat="51.028937995433807" lon="14.864753996953368">
        <ele>258.25</ele>
        <time>2024-09-18T11:52:02Z</time>
      </trkpt>
      <trkpt lat="51.028800029307604" lon="14.864632962271571">
        <ele>258.25</ele>
        <time>2024-09-18T11:52:03Z</time>
      </trkpt>
      <trkpt lat="51.028640018776059" lon="14.864565990865231">
        <ele>258.25</ele>
        <time>2024-09-18T11:52:04Z</time>
      </trkpt>
      <trkpt lat="51.028458969667554" lon="14.864530032500625">
        <ele>258.25</ele>
        <time>2024-09-18T11:52:05Z</time>
      </trkpt>
      <trkpt lat="51.028270963579416" lon="14.864491978660226">
        <ele>258.25</ele>
        <time>2024-09-18T11:52:06Z</time>
      </trkpt>
      <trkpt lat="51.026468016207218" lon="14.864199031144381">
        <ele>260.17000000000002</ele>
        <time>2024-09-18T11:52:15Z</time>
      </trkpt>
      <trkpt lat="51.025879019871354" lon="14.864215040579438">
        <ele>261.13999999999999</ele>
        <time>2024-09-18T11:52:19Z</time>
      </trkpt>
      <trkpt lat="51.025743987411261" lon="14.864234989508986">
        <ele>261.13999999999999</ele>
        <time>2024-09-18T11:52:20Z</time>
      </trkpt>
      <trkpt lat="51.025621024891734" lon="14.864283017814159">
        <ele>261.13999999999999</ele>
        <time>2024-09-18T11:52:21Z</time>
      </trkpt>
      <trkpt lat="51.025499990209937" lon="14.864362981170416">
        <ele>261.13999999999999</ele>
        <time>2024-09-18T11:52:22Z</time>
      </trkpt>
      <trkpt lat="51.025382978841662" lon="14.864440010860562">
        <ele>261.13999999999999</ele>
        <time>2024-09-18T11:52:23Z</time>
      </trkpt>
      <trkpt lat="51.02456197142601" lon="14.865024983882904">
        <ele>260.17000000000002</ele>
        <time>2024-09-18T11:52:31Z</time>
      </trkpt>
      <trkpt lat="51.024241028353572" lon="14.865291025489569">
        <ele>259.69</ele>
        <time>2024-09-18T11:52:34Z</time>
      </trkpt>
      <trkpt lat="51.024128962308168" lon="14.865368977189064">
        <ele>259.69</ele>
        <time>2024-09-18T11:52:35Z</time>
      </trkpt>
      <trkpt lat="51.02389401756227" lon="14.865442989394069">
        <ele>259.20999999999998</ele>
        <time>2024-09-18T11:52:37Z</time>
      </trkpt>
      <trkpt lat="51.023066975176334" lon="14.865628983825445">
        <ele>257.76999999999998</ele>
        <time>2024-09-18T11:52:44Z</time>
      </trkpt>
      <trkpt lat="51.021735006943345" lon="14.865495041012764">
        <ele>261.62</ele>
        <time>2024-09-18T11:52:55Z</time>
      </trkpt>
      <trkpt lat="51.021614978089929" lon="14.865519013255835">
        <ele>261.62</ele>
        <time>2024-09-18T11:52:56Z</time>
      </trkpt>
      <trkpt lat="51.021496038883924" lon="14.865567963570356">
        <ele>261.62</ele>
        <time>2024-09-18T11:52:57Z</time>
      </trkpt>
      <trkpt lat="51.021267967298627" lon="14.86566100269556">
        <ele>260.64999999999998</ele>
        <time>2024-09-18T11:52:59Z</time>
      </trkpt>
      <trkpt lat="51.021151039749384" lon="14.865666031837463">
        <ele>260.64999999999998</ele>
        <time>2024-09-18T11:53:00Z</time>
      </trkpt>
      <trkpt lat="51.021041991189122" lon="14.865638958290219">
        <ele>260.17000000000002</ele>
        <time>2024-09-18T11:53:01Z</time>
      </trkpt>
      <trkpt lat="51.020933026447892" lon="14.86559696495533">
        <ele>260.64999999999998</ele>
        <time>2024-09-18T11:53:02Z</time>
      </trkpt>
      <trkpt lat="51.020826995372772" lon="14.86551197245717">
        <ele>260.64999999999998</ele>
        <time>2024-09-18T11:53:03Z</time>
      </trkpt>
      <trkpt lat="51.020719036459923" lon="14.86542597413063">
        <ele>261.13999999999999</ele>
        <time>2024-09-18T11:53:04Z</time>
      </trkpt>
      <trkpt lat="51.020611999556422" lon="14.865333018824458">
        <ele>261.13999999999999</ele>
        <time>2024-09-18T11:53:05Z</time>
      </trkpt>
      <trkpt lat="51.020236993208528" lon="14.864918030798435">
        <ele>261.62</ele>
        <time>2024-09-18T11:53:09Z</time>
      </trkpt>
      <trkpt lat="51.020160969346762" lon="14.864873019978404">
        <ele>261.62</ele>
        <time>2024-09-18T11:53:10Z</time>
      </trkpt>
      <trkpt lat="51.020089974626899" lon="14.864833960309625">
        <ele>261.62</ele>
        <time>2024-09-18T11:53:11Z</time>
      </trkpt>
      <trkpt lat="51.019397964701056" lon="14.864554004743695">
        <ele>261.13999999999999</ele>
        <time>2024-09-18T11:53:18Z</time>
      </trkpt>
      <trkpt lat="51.018237993121147" lon="14.864377984777093">
        <ele>260.17000000000002</ele>
        <time>2024-09-18T11:53:28Z</time>
      </trkpt>
      <trkpt lat="51.017758967354894" lon="14.864451996982098">
        <ele>260.17000000000002</ele>
        <time>2024-09-18T11:53:32Z</time>
      </trkpt>
      <trkpt lat="51.01674098521471" lon="14.865059014409781">
        <ele>262.57999999999998</ele>
        <time>2024-09-18T11:53:41Z</time>
      </trkpt>
      <trkpt lat="51.015524016693234" lon="14.865764016285539">
        <ele>264.5</ele>
        <time>2024-09-18T11:53:52Z</time>
      </trkpt>
      <trkpt lat="51.014187019318342" lon="14.865811038762331">
        <ele>264.98000000000002</ele>
        <time>2024-09-18T11:54:03Z</time>
      </trkpt>
      <trkpt lat="51.013115979731083" lon="14.866085965186357">
        <ele>265.94</ele>
        <time>2024-09-18T11:54:12Z</time>
      </trkpt>
      <trkpt lat="51.012992011383176" lon="14.86608998849988">
        <ele>265.94</ele>
        <time>2024-09-18T11:54:13Z</time>
      </trkpt>
      <trkpt lat="51.012873994186521" lon="14.86608998849988">
        <ele>266.42000000000002</ele>
        <time>2024-09-18T11:54:14Z</time>
      </trkpt>
      <trkpt lat="51.012754971161485" lon="14.866069033741951">
        <ele>266.42000000000002</ele>
        <time>2024-09-18T11:54:15Z</time>
      </trkpt>
      <trkpt lat="51.012631002813578" lon="14.866044977679849">
        <ele>266.42000000000002</ele>
        <time>2024-09-18T11:54:16Z</time>
      </trkpt>
      <trkpt lat="51.012511979788542" lon="14.866023017093539">
        <ele>266.89999999999998</ele>
        <time>2024-09-18T11:54:17Z</time>
      </trkpt>
      <trkpt lat="51.011329041793942" lon="14.86579000018537">
        <ele>268.35000000000002</ele>
        <time>2024-09-18T11:54:27Z</time>
      </trkpt>
      <trkpt lat="51.011093007400632" lon="14.865765022113919">
        <ele>268.35000000000002</ele>
        <time>2024-09-18T11:54:29Z</time>
      </trkpt>
      <trkpt lat="51.010973984375596" lon="14.865754041820765">
        <ele>268.35000000000002</ele>
        <time>2024-09-18T11:54:30Z</time>
      </trkpt>
      <trkpt lat="51.010850016027689" lon="14.865762004628778">
        <ele>268.35000000000002</ele>
        <time>2024-09-18T11:54:31Z</time>
      </trkpt>
      <trkpt lat="51.009672023355961" lon="14.866143967956305">
        <ele>268.82999999999998</ele>
        <time>2024-09-18T11:54:41Z</time>
      </trkpt>
      <trkpt lat="51.009549982845783" lon="14.866167018190026">
        <ele>268.35000000000002</ele>
        <time>2024-09-18T11:54:42Z</time>
      </trkpt>
      <trkpt lat="51.009430959820747" lon="14.866188978776336">
        <ele>268.35000000000002</ele>
        <time>2024-09-18T11:54:43Z</time>
      </trkpt>
      <trkpt lat="51.009311014786363" lon="14.866212029010057">
        <ele>268.35000000000002</ele>
        <time>2024-09-18T11:54:44Z</time>
      </trkpt>
      <trkpt lat="51.009191991761327" lon="14.866234995424747">
        <ele>268.35000000000002</ele>
        <time>2024-09-18T11:54:45Z</time>
      </trkpt>
      <trkpt lat="51.007752986624837" lon="14.866321999579668">
        <ele>272.67000000000002</ele>
        <time>2024-09-18T11:54:57Z</time>
      </trkpt>
      <trkpt lat="51.006431998685002" lon="14.866544958204031">
        <ele>277</ele>
        <time>2024-09-18T11:55:08Z</time>
      </trkpt>
      <trkpt lat="51.005351990461349" lon="14.866715027019382">
        <ele>278.44</ele>
        <time>2024-09-18T11:55:17Z</time>
      </trkpt>
      <trkpt lat="51.005231961607933" lon="14.86675500869751">
        <ele>278.44</ele>
        <time>2024-09-18T11:55:18Z</time>
      </trkpt>
      <trkpt lat="51.005101958289742" lon="14.86679800786078">
        <ele>278.92000000000002</ele>
        <time>2024-09-18T11:55:19Z</time>
      </trkpt>
      <trkpt lat="51.004999028518796" lon="14.866851987317204">
        <ele>279.39999999999998</ele>
        <time>2024-09-18T11:55:20Z</time>
      </trkpt>
      <trkpt lat="51.004884028807282" lon="14.866914013400674">
        <ele>279.88</ele>
        <time>2024-09-18T11:55:21Z</time>
      </trkpt>
      <trkpt lat="51.004543974995613" lon="14.867033958435059">
        <ele>281.31999999999999</ele>
        <time>2024-09-18T11:55:24Z</time>
      </trkpt>
      <trkpt lat="51.004393016919494" lon="14.867004035040736">
        <ele>281.31999999999999</ele>
        <time>2024-09-18T11:55:25Z</time>
      </trkpt>
      <trkpt lat="51.00425697863102" lon="14.866943014785647">
        <ele>281.80000000000001</ele>
        <time>2024-09-18T11:55:26Z</time>
      </trkpt>
      <trkpt lat="51.004118006676435" lon="14.866849975660443">
        <ele>282.27999999999997</ele>
        <time>2024-09-18T11:55:27Z</time>
      </trkpt>
      <trkpt lat="51.003968976438046" lon="14.866750985383987">
        <ele>282.76999999999998</ele>
        <time>2024-09-18T11:55:28Z</time>
      </trkpt>
      <trkpt lat="51.003811983391643" lon="14.866646965965629">
        <ele>283.73000000000002</ele>
        <time>2024-09-18T11:55:29Z</time>
      </trkpt>
      <trkpt lat="51.003670999780297" lon="14.866493996232748">
        <ele>284.20999999999998</ele>
        <time>2024-09-18T11:55:30Z</time>
      </trkpt>
      <trkpt lat="51.003540996462107" lon="14.866313030943274">
        <ele>284.69</ele>
        <time>2024-09-18T11:55:31Z</time>
      </trkpt>
      <trkpt lat="51.003453992307186" lon="14.86608998849988">
        <ele>285.64999999999998</ele>
        <time>2024-09-18T11:55:32Z</time>
      </trkpt>
      <trkpt lat="51.003367993980646" lon="14.865860994905233">
        <ele>286.61000000000001</ele>
        <time>2024-09-18T11:55:33Z</time>
      </trkpt>
      <trkpt lat="51.003278978168964" lon="14.865625966340303">
        <ele>287.56999999999999</ele>
        <time>2024-09-18T11:55:34Z</time>
      </trkpt>
      <trkpt lat="51.003187028691173" lon="14.86538297496736">
        <ele>289.00999999999999</ele>
        <time>2024-09-18T11:55:35Z</time>
      </trkpt>
      <trkpt lat="51.003060964867473" lon="14.865161022171378">
        <ele>289.97000000000003</ele>
        <time>2024-09-18T11:55:36Z</time>
      </trkpt>
      <trkpt lat="51.002913024276495" lon="14.864969998598099">
        <ele>290.45999999999998</ele>
        <time>2024-09-18T11:55:37Z</time>
      </trkpt>
      <trkpt lat="51.002745972946286" lon="14.864796996116638">
        <ele>291.42000000000002</ele>
        <time>2024-09-18T11:55:38Z</time>
      </trkpt>
      <trkpt lat="51.002572970464826" lon="14.864617036655545">
        <ele>292.38</ele>
        <time>2024-09-18T11:55:39Z</time>
      </trkpt>
      <trkpt lat="51.002382030710578" lon="14.864464988932014">
        <ele>292.86000000000001</ele>
        <time>2024-09-18T11:55:40Z</time>
      </trkpt>
      <trkpt lat="51.002174997702241" lon="14.864346971735358">
        <ele>293.81999999999999</ele>
        <time>2024-09-18T11:55:41Z</time>
      </trkpt>
      <trkpt lat="51.001963019371033" lon="14.864226020872593">
        <ele>294.30000000000001</ele>
        <time>2024-09-18T11:55:42Z</time>
      </trkpt>
      <trkpt lat="51.000724006444216" lon="14.863408030942082">
        <ele>297.67000000000002</ele>
        <time>2024-09-18T11:55:48Z</time>
      </trkpt>
      <trkpt lat="51.000512028113008" lon="14.863358996808529">
        <ele>298.63</ele>
        <time>2024-09-18T11:55:49Z</time>
      </trkpt>
      <trkpt lat="50.998535994440317" lon="14.863096978515387">
        <ele>307.27999999999997</ele>
        <time>2024-09-18T11:55:58Z</time>
      </trkpt>
      <trkpt lat="50.997434025630355" lon="14.863099996000528">
        <ele>312.56999999999999</ele>
        <time>2024-09-18T11:56:05Z</time>
      </trkpt>
      <trkpt lat="50.996735980734229" lon="14.863171996548772">
        <ele>316.41000000000003</ele>
        <time>2024-09-18T11:56:11Z</time>
      </trkpt>
      <trkpt lat="50.99645895883441" lon="14.863076023757458">
        <ele>316.88999999999999</ele>
        <time>2024-09-18T11:56:14Z</time>
      </trkpt>
      <trkpt lat="50.995095977559686" lon="14.862421983852983">
        <ele>313.52999999999997</ele>
        <time>2024-09-18T11:56:27Z</time>
      </trkpt>
      <trkpt lat="50.994101967662573" lon="14.861860983073711">
        <ele>312.56999999999999</ele>
        <time>2024-09-18T11:56:36Z</time>
      </trkpt>
      <trkpt lat="50.992650976404548" lon="14.860963029786944">
        <ele>310.16000000000003</ele>
        <time>2024-09-18T11:56:49Z</time>
      </trkpt>
      <trkpt lat="50.991827035322785" lon="14.860187033191323">
        <ele>309.19999999999999</ele>
        <time>2024-09-18T11:56:57Z</time>
      </trkpt>
      <trkpt lat="50.991738019511104" lon="14.860061975196004">
        <ele>309.19999999999999</ele>
        <time>2024-09-18T11:56:58Z</time>
      </trkpt>
      <trkpt lat="50.991264022886753" lon="14.859468033537269">
        <ele>309.19999999999999</ele>
        <time>2024-09-18T11:57:03Z</time>
      </trkpt>
      <trkpt lat="50.990160964429379" lon="14.858707962557673">
        <ele>307.27999999999997</ele>
        <time>2024-09-18T11:57:13Z</time>
      </trkpt>
      <trkpt lat="50.988779040053487" lon="14.858059035614133">
        <ele>303.91000000000003</ele>
        <time>2024-09-18T11:57:25Z</time>
      </trkpt>
      <trkpt lat="50.988299008458853" lon="14.857928026467562">
        <ele>303.43000000000001</ele>
        <time>2024-09-18T11:57:29Z</time>
      </trkpt>
      <trkpt lat="50.987023031339049" lon="14.857367025688291">
        <ele>301.99000000000001</ele>
        <time>2024-09-18T11:57:40Z</time>
      </trkpt>
      <trkpt lat="50.986292967572808" lon="14.857100984081626">
        <ele>301.50999999999999</ele>
        <time>2024-09-18T11:57:48Z</time>
      </trkpt>
      <trkpt lat="50.986238988116384" lon="14.857085980474949">
        <ele>301.50999999999999</ele>
        <time>2024-09-18T11:57:49Z</time>
      </trkpt>
      <trkpt lat="50.986168999224901" lon="14.857066031545401">
        <ele>301.50999999999999</ele>
        <time>2024-09-18T11:57:50Z</time>
      </trkpt>
      <trkpt lat="50.985379004850984" lon="14.856957988813519">
        <ele>301.99000000000001</ele>
        <time>2024-09-18T11:57:57Z</time>
      </trkpt>
      <trkpt lat="50.98393002524972" lon="14.856815999373794">
        <ele>304.38999999999999</ele>
        <time>2024-09-18T11:58:05Z</time>
      </trkpt>
      <trkpt lat="50.98201802931726" lon="14.856459014117718">
        <ele>304.88</ele>
        <time>2024-09-18T11:58:16Z</time>
      </trkpt>
      <trkpt lat="50.979815013706684" lon="14.85599298030138">
        <ele>304.38999999999999</ele>
        <time>2024-09-18T11:58:26Z</time>
      </trkpt>
      <trkpt lat="50.97802103497088" lon="14.855868006125093">
        <ele>303.91000000000003</ele>
        <time>2024-09-18T11:58:34Z</time>
      </trkpt>
      <trkpt lat="50.977818025276065" lon="14.855937995016575">
        <ele>304.38999999999999</ele>
        <time>2024-09-18T11:58:35Z</time>
      </trkpt>
      <trkpt lat="50.977608980610967" lon="14.856031034141779">
        <ele>304.88</ele>
        <time>2024-09-18T11:58:36Z</time>
      </trkpt>
      <trkpt lat="50.977408988401294" lon="14.856174029409885">
        <ele>305.36000000000001</ele>
        <time>2024-09-18T11:58:37Z</time>
      </trkpt>
      <trkpt lat="50.97720698453486" lon="14.856331022456288">
        <ele>306.31999999999999</ele>
        <time>2024-09-18T11:58:38Z</time>
      </trkpt>
      <trkpt lat="50.977017972618341" lon="14.856539983302355">
        <ele>307.27999999999997</ele>
        <time>2024-09-18T11:58:39Z</time>
      </trkpt>
      <trkpt lat="50.976829966530204" lon="14.856756990775466">
        <ele>308.24000000000001</ele>
        <time>2024-09-18T11:58:40Z</time>
      </trkpt>
      <trkpt lat="50.976226972416043" lon="14.857379011809826">
        <ele>311.12</ele>
        <time>2024-09-18T11:58:43Z</time>
      </trkpt>
      <trkpt lat="50.976005019620061" lon="14.857536004856229">
        <ele>312.08999999999997</ele>
        <time>2024-09-18T11:58:44Z</time>
      </trkpt>
      <trkpt lat="50.975770996883512" lon="14.857643963769078">
        <ele>313.05000000000001</ele>
        <time>2024-09-18T11:58:45Z</time>
      </trkpt>
      <trkpt lat="50.975535968318582" lon="14.857745971530676">
        <ele>314.00999999999999</ele>
        <time>2024-09-18T11:58:46Z</time>
      </trkpt>
      <trkpt lat="50.975290965288877" lon="14.857791988179088">
        <ele>314.49000000000001</ele>
        <time>2024-09-18T11:58:47Z</time>
      </trkpt>
      <trkpt lat="50.975045040249825" lon="14.857838004827499">
        <ele>315.93000000000001</ele>
        <time>2024-09-18T11:58:48Z</time>
      </trkpt>
      <trkpt lat="50.972568020224571" lon="14.858031962066889">
        <ele>331.79000000000002</ele>
        <time>2024-09-18T11:58:58Z</time>
      </trkpt>
      <trkpt lat="50.972333997488022" lon="14.857953004539013">
        <ele>333.70999999999998</ele>
        <time>2024-09-18T11:58:59Z</time>
      </trkpt>
      <trkpt lat="50.972120007500052" lon="14.857825012877584">
        <ele>335.63999999999999</ele>
        <time>2024-09-18T11:59:00Z</time>
      </trkpt>
      <trkpt lat="50.971912974491715" lon="14.857702972367406">
        <ele>337.07999999999998</ele>
        <time>2024-09-18T11:59:01Z</time>
      </trkpt>
      <trkpt lat="50.971710970625281" lon="14.85756098292768">
        <ele>338.51999999999998</ele>
        <time>2024-09-18T11:59:02Z</time>
      </trkpt>
      <trkpt lat="50.971521036699414" lon="14.857399966567755">
        <ele>339.95999999999998</ele>
        <time>2024-09-18T11:59:03Z</time>
      </trkpt>
      <trkpt lat="50.971329007297754" lon="14.857164015993476">
        <ele>341.41000000000003</ele>
        <time>2024-09-18T11:59:04Z</time>
      </trkpt>
      <trkpt lat="50.971138989552855" lon="14.856930999085307">
        <ele>341.88999999999999</ele>
        <time>2024-09-18T11:59:05Z</time>
      </trkpt>
      <trkpt lat="50.969970971345901" lon="14.855225030332804">
        <ele>347.64999999999998</ele>
        <time>2024-09-18T11:59:12Z</time>
      </trkpt>
      <trkpt lat="50.969334030523896" lon="14.854276031255722">
        <ele>349.57999999999998</ele>
        <time>2024-09-18T11:59:18Z</time>
      </trkpt>
      <trkpt lat="50.968475975096226" lon="14.852916989475489">
        <ele>350.06</ele>
        <time>2024-09-18T11:59:26Z</time>
      </trkpt>
      <trkpt lat="50.967590007930994" lon="14.851635983213782">
        <ele>352.94</ele>
        <time>2024-09-18T11:59:32Z</time>
      </trkpt>
      <trkpt lat="50.967438966035843" lon="14.851485025137663">
        <ele>352.94</ele>
        <time>2024-09-18T11:59:33Z</time>
      </trkpt>
      <trkpt lat="50.966346971690655" lon="14.850640967488289">
        <ele>354.38</ele>
        <time>2024-09-18T11:59:40Z</time>
      </trkpt>
      <trkpt lat="50.965864006429911" lon="14.850173005834222">
        <ele>354.86000000000001</ele>
        <time>2024-09-18T11:59:43Z</time>
      </trkpt>
      <trkpt lat="50.96571397036314" lon="14.850004026666284">
        <ele>354.86000000000001</ele>
        <time>2024-09-18T11:59:44Z</time>
      </trkpt>
      <trkpt lat="50.965585978701711" lon="14.849785007536411">
        <ele>354.86000000000001</ele>
        <time>2024-09-18T11:59:45Z</time>
      </trkpt>
      <trkpt lat="50.965314991772175" lon="14.849326014518738">
        <ele>354.38</ele>
        <time>2024-09-18T11:59:47Z</time>
      </trkpt>
      <trkpt lat="50.964258033782244" lon="14.846951002255082">
        <ele>352.94</ele>
        <time>2024-09-18T11:59:56Z</time>
      </trkpt>
      <trkpt lat="50.963565018028021" lon="14.845562037080526">
        <ele>353.42000000000002</ele>
        <time>2024-09-18T12:00:02Z</time>
      </trkpt>
      <trkpt lat="50.963117005303502" lon="14.845054009929299">
        <ele>353.89999999999998</ele>
        <time>2024-09-18T12:00:05Z</time>
      </trkpt>
      <trkpt lat="50.961739020422101" lon="14.844043990597129">
        <ele>353.89999999999998</ele>
        <time>2024-09-18T12:00:13Z</time>
      </trkpt>
      <trkpt lat="50.960451979190111" lon="14.842881001532078">
        <ele>353.42000000000002</ele>
        <time>2024-09-18T12:00:21Z</time>
      </trkpt>
      <trkpt lat="50.959387980401516" lon="14.841444008052349">
        <ele>353.42000000000002</ele>
        <time>2024-09-18T12:00:29Z</time>
      </trkpt>
      <trkpt lat="50.95830000936985" lon="14.840228967368603">
        <ele>352.45999999999998</ele>
        <time>2024-09-18T12:00:37Z</time>
      </trkpt>
      <trkpt lat="50.957749988883734" lon="14.839888997375965">
        <ele>351.01999999999998</ele>
        <time>2024-09-18T12:00:42Z</time>
      </trkpt>
      <trkpt lat="50.957687962800264" lon="14.839858990162611">
        <ele>351.01999999999998</ele>
        <time>2024-09-18T12:00:43Z</time>
      </trkpt>
      <trkpt lat="50.957644041627645" lon="14.839838035404682">
        <ele>350.54000000000002</ele>
        <time>2024-09-18T12:00:44Z</time>
      </trkpt>
      <trkpt lat="50.957619985565543" lon="14.839826971292496">
        <ele>350.06</ele>
        <time>2024-09-18T12:00:45Z</time>
      </trkpt>
      <trkpt lat="50.957572963088751" lon="14.839804004877806">
        <ele>346.69</ele>
        <time>2024-09-18T12:00:55Z</time>
      </trkpt>
      <trkpt lat="50.957425022497773" lon="14.839537041261792">
        <ele>370.73000000000002</ele>
        <time>2024-09-18T12:08:02Z</time>
      </trkpt>
      <trkpt lat="50.957477996125817" lon="14.839618010446429">
        <ele>346.20999999999998</ele>
        <time>2024-09-18T12:08:23Z</time>
      </trkpt>
      <trkpt lat="50.957425022497773" lon="14.839758994057775">
        <ele>346.20999999999998</ele>
        <time>2024-09-18T12:08:26Z</time>
      </trkpt>
      <trkpt lat="50.957389986142516" lon="14.839749019593">
        <ele>345.73000000000002</ele>
        <time>2024-09-18T12:08:27Z</time>
      </trkpt>
      <trkpt lat="50.957337012514472" lon="14.839732004329562">
        <ele>345.73000000000002</ele>
        <time>2024-09-18T12:08:28Z</time>
      </trkpt>
      <trkpt lat="50.95727096311748" lon="14.839711971580982">
        <ele>345.25</ele>
        <time>2024-09-18T12:08:29Z</time>
      </trkpt>
      <trkpt lat="50.957197034731507" lon="14.839689005166292">
        <ele>344.29000000000002</ele>
        <time>2024-09-18T12:08:30Z</time>
      </trkpt>
      <trkpt lat="50.957110030576587" lon="14.83966302126646">
        <ele>343.81</ele>
        <time>2024-09-18T12:08:31Z</time>
      </trkpt>
      <trkpt lat="50.957007016986609" lon="14.839631002396345">
        <ele>343.32999999999998</ele>
        <time>2024-09-18T12:08:32Z</time>
      </trkpt>
      <trkpt lat="50.955995991826057" lon="14.83929899521172">
        <ele>340.92000000000002</ele>
        <time>2024-09-18T12:08:39Z</time>
      </trkpt>
      <trkpt lat="50.954486997798085" lon="14.838690971955657">
        <ele>336.12</ele>
        <time>2024-09-18T12:08:48Z</time>
      </trkpt>
      <trkpt lat="50.953289978206158" lon="14.837975995615125">
        <ele>329.38999999999999</ele>
        <time>2024-09-18T12:08:57Z</time>
      </trkpt>
      <trkpt lat="50.95206898637116" lon="14.83676397241652">
        <ele>313.52999999999997</ele>
        <time>2024-09-18T12:09:09Z</time>
      </trkpt>
      <trkpt lat="50.951882991939783" lon="14.836539002135396">
        <ele>311.60000000000002</ele>
        <time>2024-09-18T12:09:11Z</time>
      </trkpt>
      <trkpt lat="50.95178903080523" lon="14.836426014080644">
        <ele>310.16000000000003</ele>
        <time>2024-09-18T12:09:12Z</time>
      </trkpt>
      <trkpt lat="50.950809018686414" lon="14.835426975041628">
        <ele>298.63</ele>
        <time>2024-09-18T12:09:23Z</time>
      </trkpt>
      <trkpt lat="50.950385984033346" lon="14.835052974522114">
        <ele>295.74000000000001</ele>
        <time>2024-09-18T12:09:28Z</time>
      </trkpt>
      <trkpt lat="50.950295962393284" lon="14.834955995902419">
        <ele>295.25999999999999</ele>
        <time>2024-09-18T12:09:29Z</time>
      </trkpt>
      <trkpt lat="50.950212981551886" lon="14.834838984534144">
        <ele>294.77999999999997</ele>
        <time>2024-09-18T12:09:30Z</time>
      </trkpt>
      <trkpt lat="50.950151039287448" lon="14.834691965952516">
        <ele>294.77999999999997</ele>
        <time>2024-09-18T12:09:31Z</time>
      </trkpt>
      <trkpt lat="50.950088007375598" lon="14.834543019533157">
        <ele>294.77999999999997</ele>
        <time>2024-09-18T12:09:32Z</time>
      </trkpt>
      <trkpt lat="50.950026987120509" lon="14.83439801260829">
        <ele>294.77999999999997</ele>
        <time>2024-09-18T12:09:33Z</time>
      </trkpt>
      <trkpt lat="50.949757006019354" lon="14.833634002134204">
        <ele>295.25999999999999</ele>
        <time>2024-09-18T12:09:38Z</time>
      </trkpt>
      <trkpt lat="50.949720041826367" lon="14.833482960239053">
        <ele>295.25999999999999</ele>
        <time>2024-09-18T12:09:39Z</time>
      </trkpt>
      <trkpt lat="50.949681987985969" lon="14.833324961364269">
        <ele>295.25999999999999</ele>
        <time>2024-09-18T12:09:40Z</time>
      </trkpt>
      <trkpt lat="50.949643012136221" lon="14.833162017166615">
        <ele>295.25999999999999</ele>
        <time>2024-09-18T12:09:41Z</time>
      </trkpt>
      <trkpt lat="50.949603030458093" lon="14.832995971664786">
        <ele>295.25999999999999</ele>
        <time>2024-09-18T12:09:42Z</time>
      </trkpt>
      <trkpt lat="50.949519965797663" lon="14.832649966701865">
        <ele>295.25999999999999</ele>
        <time>2024-09-18T12:09:44Z</time>
      </trkpt>
      <trkpt lat="50.94908201135695" lon="14.831123035401106">
        <ele>293.81999999999999</ele>
        <time>2024-09-18T12:09:53Z</time>
      </trkpt>
      <trkpt lat="50.948518998920918" lon="14.829485965892673">
        <ele>293.81999999999999</ele>
        <time>2024-09-18T12:10:03Z</time>
      </trkpt>
      <trkpt lat="50.947791030630469" lon="14.827891979366541">
        <ele>293.33999999999997</ele>
        <time>2024-09-18T12:10:14Z</time>
      </trkpt>
      <trkpt lat="50.947128022089601" lon="14.826627988368273">
        <ele>290.45999999999998</ele>
        <time>2024-09-18T12:10:23Z</time>
      </trkpt>
      <trkpt lat="50.94613803550601" lon="14.825127962976694">
        <ele>295.25999999999999</ele>
        <time>2024-09-18T12:10:35Z</time>
      </trkpt>
      <trkpt lat="50.944882007315755" lon="14.823775961995125">
        <ele>306.80000000000001</ele>
        <time>2024-09-18T12:10:48Z</time>
      </trkpt>
      <trkpt lat="50.944418990984559" lon="14.823243040591478">
        <ele>311.60000000000002</ele>
        <time>2024-09-18T12:10:53Z</time>
      </trkpt>
      <trkpt lat="50.944341039285064" lon="14.823103984817863">
        <ele>312.56999999999999</ele>
        <time>2024-09-18T12:10:54Z</time>
      </trkpt>
      <trkpt lat="50.94396997243166" lon="14.822101006284356">
        <ele>317.85000000000002</ele>
        <time>2024-09-18T12:11:00Z</time>
      </trkpt>
      <trkpt lat="50.94368901103735" lon="14.820151962339878">
        <ele>324.10000000000002</ele>
        <time>2024-09-18T12:11:08Z</time>
      </trkpt>
      <trkpt lat="50.943245021626353" lon="14.816685039550066">
        <ele>337.07999999999998</ele>
        <time>2024-09-18T12:11:20Z</time>
      </trkpt>
      <trkpt lat="50.942611014470458" lon="14.814409017562866">
        <ele>339.48000000000002</ele>
        <time>2024-09-18T12:11:28Z</time>
      </trkpt>
      <trkpt lat="50.941855972632766" lon="14.811849016696215">
        <ele>335.16000000000003</ele>
        <time>2024-09-18T12:11:37Z</time>
      </trkpt>
      <trkpt lat="50.941133033484221" lon="14.809075025841594">
        <ele>328.91000000000003</ele>
        <time>2024-09-18T12:11:49Z</time>
      </trkpt>
      <trkpt lat="50.940921977162361" lon="14.808283019810915">
        <ele>327.94999999999999</ele>
        <time>2024-09-18T12:11:55Z</time>
      </trkpt>
      <trkpt lat="50.940520986914635" lon="14.807397974655032">
        <ele>324.10000000000002</ele>
        <time>2024-09-18T12:12:02Z</time>
      </trkpt>
      <trkpt lat="50.940498020499945" lon="14.807274006307125">
        <ele>323.62</ele>
        <time>2024-09-18T12:12:03Z</time>
      </trkpt>
      <trkpt lat="50.940483016893268" lon="14.807170992717147">
        <ele>322.66000000000003</ele>
        <time>2024-09-18T12:12:04Z</time>
      </trkpt>
      <trkpt lat="50.940471030771732" lon="14.807094968855381">
        <ele>322.18000000000001</ele>
        <time>2024-09-18T12:12:05Z</time>
      </trkpt>
      <trkpt lat="50.940463989973068" lon="14.807046018540859">
        <ele>321.22000000000003</ele>
        <time>2024-09-18T12:12:06Z</time>
      </trkpt>
      <trkpt lat="50.940458960831165" lon="14.807013999670744">
        <ele>320.25999999999999</ele>
        <time>2024-09-18T12:12:07Z</time>
      </trkpt>
      <trkpt lat="50.940507994964719" lon="14.806944010779262">
        <ele>316.88999999999999</ele>
        <time>2024-09-18T12:12:16Z</time>
      </trkpt>
      <trkpt lat="50.940600028261542" lon="14.806931018829346">
        <ele>316.41000000000003</ele>
        <time>2024-09-18T12:12:17Z</time>
      </trkpt>
      <trkpt lat="50.940823992714286" lon="14.80674996972084">
        <ele>314.00999999999999</ele>
        <time>2024-09-18T12:12:21Z</time>
      </trkpt>
      <trkpt lat="50.940898004919291" lon="14.806690039113164">
        <ele>313.52999999999997</ele>
        <time>2024-09-18T12:12:22Z</time>
      </trkpt>
      <trkpt lat="50.941264964640141" lon="14.806368006393313">
        <ele>313.05000000000001</ele>
        <time>2024-09-18T12:12:27Z</time>
      </trkpt>
      <trkpt lat="50.941336965188384" lon="14.806302040815353">
        <ele>313.05000000000001</ele>
        <time>2024-09-18T12:12:28Z</time>
      </trkpt>
      <trkpt lat="50.941773997619748" lon="14.805885963141918">
        <ele>314.97000000000003</ele>
        <time>2024-09-18T12:12:34Z</time>
      </trkpt>
      <trkpt lat="50.941841974854469" lon="14.805817985907197">
        <ele>315.44999999999999</ele>
        <time>2024-09-18T12:12:35Z</time>
      </trkpt>
      <trkpt lat="50.941915987059474" lon="14.805743973702192">
        <ele>315.93000000000001</ele>
        <time>2024-09-18T12:12:36Z</time>
      </trkpt>
      <trkpt lat="50.941987987607718" lon="14.805671973153949">
        <ele>316.41000000000003</ele>
        <time>2024-09-18T12:12:37Z</time>
      </trkpt>
      <trkpt lat="50.94205898232758" lon="14.805600978434086">
        <ele>316.88999999999999</ele>
        <time>2024-09-18T12:12:38Z</time>
      </trkpt>
      <trkpt lat="50.942129977047443" lon="14.805529983714223">
        <ele>316.88999999999999</ele>
        <time>2024-09-18T12:12:39Z</time>
      </trkpt>
      <trkpt lat="50.942203989252448" lon="14.805455971509218">
        <ele>317.37</ele>
        <time>2024-09-18T12:12:40Z</time>
      </trkpt>
      <trkpt lat="50.942281018942595" lon="14.805379025638103">
        <ele>317.37</ele>
        <time>2024-09-18T12:12:41Z</time>
      </trkpt>
      <trkpt lat="50.942515963688493" lon="14.805143997073174">
        <ele>317.37</ele>
        <time>2024-09-18T12:12:44Z</time>
      </trkpt>
      <trkpt lat="50.942583018913865" lon="14.805048024281859">
        <ele>317.85000000000002</ele>
        <time>2024-09-18T12:12:45Z</time>
      </trkpt>
      <trkpt lat="50.942649990320206" lon="14.804941993206739">
        <ele>317.85000000000002</ele>
        <time>2024-09-18T12:12:46Z</time>
      </trkpt>
      <trkpt lat="50.943502010777593" lon="14.803629973903298">
        <ele>321.22000000000003</ele>
        <time>2024-09-18T12:12:57Z</time>
      </trkpt>
      <trkpt lat="50.943573005497456" lon="14.803512040525675">
        <ele>321.69999999999999</ele>
        <time>2024-09-18T12:12:58Z</time>
      </trkpt>
      <trkpt lat="50.943630002439022" lon="14.80337399058044">
        <ele>321.69999999999999</ele>
        <time>2024-09-18T12:12:59Z</time>
      </trkpt>
      <trkpt lat="50.94416200183332" lon="14.802252994850278">
        <ele>322.66000000000003</ele>
        <time>2024-09-18T12:13:08Z</time>
      </trkpt>
      <trkpt lat="50.944374985992908" lon="14.801983013749123">
        <ele>324.10000000000002</ele>
        <time>2024-09-18T12:13:11Z</time>
      </trkpt>
      <trkpt lat="50.944439023733139" lon="14.80186901986599">
        <ele>324.10000000000002</ele>
        <time>2024-09-18T12:13:12Z</time>
      </trkpt>
      <trkpt lat="50.944627029821277" lon="14.801532989367843">
        <ele>324.57999999999998</ele>
        <time>2024-09-18T12:13:15Z</time>
      </trkpt>
      <trkpt lat="50.944689977914095" lon="14.801422012969851">
        <ele>325.06</ele>
        <time>2024-09-18T12:13:16Z</time>
      </trkpt>
      <trkpt lat="50.944753009825945" lon="14.801322016865015">
        <ele>325.54000000000002</ele>
        <time>2024-09-18T12:13:17Z</time>
      </trkpt>
      <trkpt lat="50.944835990667343" lon="14.801256973296404">
        <ele>326.01999999999998</ele>
        <time>2024-09-18T12:13:18Z</time>
      </trkpt>
      <trkpt lat="50.944917965680361" lon="14.801192013546824">
        <ele>326.01999999999998</ele>
        <time>2024-09-18T12:13:19Z</time>
      </trkpt>
      <trkpt lat="50.94500002451241" lon="14.801126969978213">
        <ele>326.5</ele>
        <time>2024-09-18T12:13:20Z</time>
      </trkpt>
      <trkpt lat="50.945392968133092" lon="14.800779959186912">
        <ele>327.47000000000003</ele>
        <time>2024-09-18T12:13:25Z</time>
      </trkpt>
      <trkpt lat="50.9454529825598" lon="14.800678035244346">
        <ele>327.94999999999999</ele>
        <time>2024-09-18T12:13:26Z</time>
      </trkpt>
      <trkpt lat="50.945510985329747" lon="14.800578039139509">
        <ele>327.94999999999999</ele>
        <time>2024-09-18T12:13:27Z</time>
      </trkpt>
      <trkpt lat="50.94555901363492" lon="14.800463039427996">
        <ele>327.94999999999999</ele>
        <time>2024-09-18T12:13:28Z</time>
      </trkpt>
      <trkpt lat="50.945603018626571" lon="14.800329012796283">
        <ele>327.47000000000003</ele>
        <time>2024-09-18T12:13:29Z</time>
      </trkpt>
      <trkpt lat="50.945647023618221" lon="14.800193980336189">
        <ele>327.47000000000003</ele>
        <time>2024-09-18T12:13:30Z</time>
      </trkpt>
      <trkpt lat="50.945690022781491" lon="14.800060959532857">
        <ele>326.99000000000001</ele>
        <time>2024-09-18T12:13:31Z</time>
      </trkpt>
      <trkpt lat="50.945733021944761" lon="14.799930034205317">
        <ele>326.99000000000001</ele>
        <time>2024-09-18T12:13:32Z</time>
      </trkpt>
      <trkpt lat="50.945771997794509" lon="14.79980899952352">
        <ele>326.5</ele>
        <time>2024-09-18T12:13:33Z</time>
      </trkpt>
      <trkpt lat="50.945808039978147" lon="14.799701040610671">
        <ele>326.5</ele>
        <time>2024-09-18T12:13:34Z</time>
      </trkpt>
      <trkpt lat="50.945836035534739" lon="14.799595009535551">
        <ele>326.5</ele>
        <time>2024-09-18T12:13:35Z</time>
      </trkpt>
      <trkpt lat="50.945836035534739" lon="14.799485960975289">
        <ele>326.5</ele>
        <time>2024-09-18T12:13:36Z</time>
      </trkpt>
      <trkpt lat="50.945793036371469" lon="14.799389988183975">
        <ele>326.5</ele>
        <time>2024-09-18T12:13:37Z</time>
      </trkpt>
      <trkpt lat="50.945654986426234" lon="14.799086982384324">
        <ele>326.5</ele>
        <time>2024-09-18T12:13:40Z</time>
      </trkpt>
      <trkpt lat="50.945615004748106" lon="14.798967037349939">
        <ele>326.5</ele>
        <time>2024-09-18T12:13:41Z</time>
      </trkpt>
      <trkpt lat="50.945597989484668" lon="14.798828987404704">
        <ele>326.5</ele>
        <time>2024-09-18T12:13:42Z</time>
      </trkpt>
      <trkpt lat="50.945579968392849" lon="14.798683980479836">
        <ele>326.5</ele>
        <time>2024-09-18T12:13:43Z</time>
      </trkpt>
      <trkpt lat="50.945570999756455" lon="14.798536039888859">
        <ele>326.5</ele>
        <time>2024-09-18T12:13:44Z</time>
      </trkpt>
      <trkpt lat="50.945525988936424" lon="14.797755014151335">
        <ele>327.47000000000003</ele>
        <time>2024-09-18T12:13:49Z</time>
      </trkpt>
      <trkpt lat="50.94543001614511" lon="14.796062037348747">
        <ele>341.41000000000003</ele>
        <time>2024-09-18T12:13:59Z</time>
      </trkpt>
      <trkpt lat="50.945295989513397" lon="14.794318014755845">
        <ele>357.75</ele>
        <time>2024-09-18T12:14:10Z</time>
      </trkpt>
      <trkpt lat="50.945115024223924" lon="14.792356984689832">
        <ele>375.05000000000001</ele>
        <time>2024-09-18T12:14:22Z</time>
      </trkpt>
      <trkpt lat="50.94504302367568" lon="14.791580988094211">
        <ele>382.25999999999999</ele>
        <time>2024-09-18T12:14:29Z</time>
      </trkpt>
      <trkpt lat="50.9450420178473" lon="14.791566990315914">
        <ele>383.69999999999999</ele>
        <time>2024-09-18T12:14:35Z</time>
      </trkpt>
      <trkpt lat="50.945020979270339" lon="14.791573025286198">
        <ele>383.69999999999999</ele>
        <time>2024-09-18T12:14:36Z</time>
      </trkpt>
      <trkpt lat="50.944960964843631" lon="14.791587023064494">
        <ele>384.18000000000001</ele>
        <time>2024-09-18T12:14:37Z</time>
      </trkpt>
      <trkpt lat="50.94487396068871" lon="14.791608983650804">
        <ele>384.18000000000001</ele>
        <time>2024-09-18T12:14:38Z</time>
      </trkpt>
      <trkpt lat="50.944789974018931" lon="14.791642008349299">
        <ele>384.66000000000003</ele>
        <time>2024-09-18T12:14:39Z</time>
      </trkpt>
      <trkpt lat="50.94386100769043" lon="14.791988013312221">
        <ele>380.33999999999997</ele>
        <time>2024-09-18T12:14:46Z</time>
      </trkpt>
      <trkpt lat="50.94257497228682" lon="14.792434014379978">
        <ele>373.13</ele>
        <time>2024-09-18T12:14:53Z</time>
      </trkpt>
      <trkpt lat="50.940617965534329" lon="14.793122000992298">
        <ele>360.63</ele>
        <time>2024-09-18T12:15:03Z</time>
      </trkpt>
      <trkpt lat="50.938960025086999" lon="14.79370697401464">
        <ele>351.5</ele>
        <time>2024-09-18T12:15:14Z</time>
      </trkpt>
      <trkpt lat="50.938741005957127" lon="14.793776962906122">
        <ele>348.13</ele>
        <time>2024-09-18T12:15:20Z</time>
      </trkpt>
      <trkpt lat="50.938708987087011" lon="14.793788027018309">
        <ele>344.76999999999998</ele>
        <time>2024-09-18T12:15:34Z</time>
      </trkpt>
      <trkpt lat="50.938453003764153" lon="14.793872013688087">
        <ele>338.04000000000002</ele>
        <time>2024-09-18T12:15:49Z</time>
      </trkpt>
      <trkpt lat="50.937464023008943" lon="14.794213995337486">
        <ele>333.70999999999998</ele>
        <time>2024-09-18T12:16:01Z</time>
      </trkpt>
      <trkpt lat="50.937078036367893" lon="14.794346010312438">
        <ele>330.82999999999998</ele>
        <time>2024-09-18T12:16:08Z</time>
      </trkpt>
      <trkpt lat="50.936926994472742" lon="14.794396972283721">
        <ele>327.94999999999999</ele>
        <time>2024-09-18T12:16:18Z</time>
      </trkpt>
      <trkpt lat="50.936926994472742" lon="14.794396972283721">
        <ele>327.94999999999999</ele>
        <time>2024-09-18T12:17:13Z</time>
      </trkpt>
      <trkpt lat="50.936820041388273" lon="14.794434020295739">
        <ele>326.5</ele>
        <time>2024-09-18T12:18:00Z</time>
      </trkpt>
      <trkpt lat="50.936001967638731" lon="14.794724034145474">
        <ele>323.13999999999999</ele>
        <time>2024-09-18T12:18:12Z</time>
      </trkpt>
      <trkpt lat="50.93584799207747" lon="14.794776001945138">
        <ele>322.66000000000003</ele>
        <time>2024-09-18T12:18:14Z</time>
      </trkpt>
      <trkpt lat="50.934866974130273" lon="14.795107003301382">
        <ele>322.66000000000003</ele>
        <time>2024-09-18T12:18:25Z</time>
      </trkpt>
      <trkpt lat="50.933423023670912" lon="14.7956189699471">
        <ele>317.37</ele>
        <time>2024-09-18T12:18:38Z</time>
      </trkpt>
      <trkpt lat="50.932492967694998" lon="14.79527598246932">
        <ele>314.00999999999999</ele>
        <time>2024-09-18T12:18:46Z</time>
      </trkpt>
      <trkpt lat="50.931840017437935" lon="14.79503802023828">
        <ele>313.05000000000001</ele>
        <time>2024-09-18T12:18:56Z</time>
      </trkpt>
      <trkpt lat="50.931311035528779" lon="14.79493198916316">
        <ele>312.08999999999997</ele>
        <time>2024-09-18T12:19:02Z</time>
      </trkpt>
      <trkpt lat="50.931095033884048" lon="14.794957973062992">
        <ele>311.60000000000002</ele>
        <time>2024-09-18T12:19:04Z</time>
      </trkpt>
      <trkpt lat="50.930422972887754" lon="14.795352006331086">
        <ele>309.19999999999999</ele>
        <time>2024-09-18T12:19:10Z</time>
      </trkpt>
      <trkpt lat="50.930011002346873" lon="14.795878976583481">
        <ele>306.80000000000001</ele>
        <time>2024-09-18T12:19:14Z</time>
      </trkpt>
      <trkpt lat="50.929017998278141" lon="14.797330973669887">
        <ele>298.63</ele>
        <time>2024-09-18T12:19:23Z</time>
      </trkpt>
      <trkpt lat="50.92886502854526" lon="14.797392999753356">
        <ele>297.67000000000002</ele>
        <time>2024-09-18T12:19:24Z</time>
      </trkpt>
      <trkpt lat="50.927645964547992" lon="14.797905972227454">
        <ele>287.56999999999999</ele>
        <time>2024-09-18T12:19:33Z</time>
      </trkpt>
      <trkpt lat="50.926451962441206" lon="14.798238985240459">
        <ele>278.92000000000002</ele>
        <time>2024-09-18T12:19:44Z</time>
      </trkpt>
      <trkpt lat="50.925075989216566" lon="14.798256000503898">
        <ele>272.19</ele>
        <time>2024-09-18T12:19:55Z</time>
      </trkpt>
      <trkpt lat="50.924830986186862" lon="14.798334036022425">
        <ele>271.23000000000002</ele>
        <time>2024-09-18T12:19:57Z</time>
      </trkpt>
      <trkpt lat="50.924715986475348" lon="14.798405030742288">
        <ele>271.23000000000002</ele>
        <time>2024-09-18T12:19:58Z</time>
      </trkpt>
      <trkpt lat="50.924602998420596" lon="14.798495974391699">
        <ele>271.23000000000002</ele>
        <time>2024-09-18T12:19:59Z</time>
      </trkpt>
      <trkpt lat="50.923749972134829" lon="14.799555027857423">
        <ele>269.79000000000002</ele>
        <time>2024-09-18T12:20:07Z</time>
      </trkpt>
      <trkpt lat="50.923655005171895" lon="14.799705985933542">
        <ele>269.31</ele>
        <time>2024-09-18T12:20:08Z</time>
      </trkpt>
      <trkpt lat="50.922908009961247" lon="14.800872998312116">
        <ele>267.38</ele>
        <time>2024-09-18T12:20:16Z</time>
      </trkpt>
      <trkpt lat="50.922784963622689" lon="14.801003001630306">
        <ele>266.89999999999998</ele>
        <time>2024-09-18T12:20:17Z</time>
      </trkpt>
      <trkpt lat="50.922658983618021" lon="14.801136022433639">
        <ele>266.42000000000002</ele>
        <time>2024-09-18T12:20:18Z</time>
      </trkpt>
      <trkpt lat="50.921216038987041" lon="14.802093990147114">
        <ele>257.29000000000002</ele>
        <time>2024-09-18T12:20:29Z</time>
      </trkpt>
      <trkpt lat="50.919847022742033" lon="14.802486011758447">
        <ele>252.47999999999999</ele>
        <time>2024-09-18T12:20:39Z</time>
      </trkpt>
      <trkpt lat="50.917848022654653" lon="14.802994960919023">
        <ele>254.41</ele>
        <time>2024-09-18T12:20:53Z</time>
      </trkpt>
      <trkpt lat="50.915944995358586" lon="14.803469041362405">
        <ele>251.52000000000001</ele>
        <time>2024-09-18T12:21:06Z</time>
      </trkpt>
      <trkpt lat="50.914093013852835" lon="14.803945971652865">
        <ele>248.16</ele>
        <time>2024-09-18T12:21:19Z</time>
      </trkpt>
      <trkpt lat="50.912233991548419" lon="14.804423991590738">
        <ele>247.68000000000001</ele>
        <time>2024-09-18T12:21:33Z</time>
      </trkpt>
      <trkpt lat="50.911317011341453" lon="14.804646028205752">
        <ele>248.63999999999999</ele>
        <time>2024-09-18T12:21:41Z</time>
      </trkpt>
      <trkpt lat="50.909888986498117" lon="14.805039977654815">
        <ele>250.08000000000001</ele>
        <time>2024-09-18T12:21:54Z</time>
      </trkpt>
      <trkpt lat="50.909365033730865" lon="14.805174004286528">
        <ele>249.59999999999999</ele>
        <time>2024-09-18T12:22:01Z</time>
      </trkpt>
      <trkpt lat="50.909327985718846" lon="14.805183978751302">
        <ele>249.59999999999999</ele>
        <time>2024-09-18T12:22:02Z</time>
      </trkpt>
      <trkpt lat="50.909300995990634" lon="14.805191019549966">
        <ele>249.12</ele>
        <time>2024-09-18T12:22:03Z</time>
      </trkpt>
      <trkpt lat="50.909285992383957" lon="14.805194037035108">
        <ele>249.12</ele>
        <time>2024-09-18T12:22:04Z</time>
      </trkpt>
      <trkpt lat="50.909260008484125" lon="14.804975017905235">
        <ele>248.63999999999999</ele>
        <time>2024-09-18T12:22:05Z</time>
      </trkpt>
      <trkpt lat="50.909247016534209" lon="14.804819030687213">
        <ele>248.63999999999999</ele>
        <time>2024-09-18T12:22:07Z</time>
      </trkpt>
      <trkpt lat="50.908994972705841" lon="14.804495992138982">
        <ele>248.16</ele>
        <time>2024-09-18T12:22:15Z</time>
      </trkpt>
      <trkpt lat="50.908901011571288" lon="14.804726997390389">
        <ele>248.63999999999999</ele>
        <time>2024-09-18T12:22:21Z</time>
      </trkpt>
      <trkpt lat="50.908895982429385" lon="14.804837973788381">
        <ele>249.12</ele>
        <time>2024-09-18T12:22:23Z</time>
      </trkpt>
      <trkpt lat="50.908851977437735" lon="14.804896982386708">
        <ele>248.16</ele>
        <time>2024-09-18T12:22:33Z</time>
      </trkpt>
      <trkpt lat="50.908953985199332" lon="14.805166041478515">
        <ele>190.96000000000001</ele>
        <time>2024-09-18T12:33:17Z</time>
      </trkpt>
      <trkpt lat="50.908829011023045" lon="14.804860018193722">
        <ele>252.47999999999999</ele>
        <time>2024-09-18T12:33:44Z</time>
      </trkpt>
      <trkpt lat="50.908955996856093" lon="14.805279029533267">
        <ele>252.96000000000001</ele>
        <time>2024-09-18T12:34:01Z</time>
      </trkpt>
      <trkpt lat="50.909038977697492" lon="14.805257990956306">
        <ele>252.47999999999999</ele>
        <time>2024-09-18T12:34:04Z</time>
      </trkpt>
      <trkpt lat="50.909064961597323" lon="14.805251033976674">
        <ele>252.47999999999999</ele>
        <time>2024-09-18T12:34:05Z</time>
      </trkpt>
      <trkpt lat="50.909061022102833" lon="14.804815007373691">
        <ele>251.52000000000001</ele>
        <time>2024-09-18T12:34:09Z</time>
      </trkpt>
      <trkpt lat="50.909081976860762" lon="14.80457897298038">
        <ele>250.56</ele>
        <time>2024-09-18T12:34:16Z</time>
      </trkpt>
      <trkpt lat="50.909171998500824" lon="14.804616020992398">
        <ele>250.08000000000001</ele>
        <time>2024-09-18T12:34:21Z</time>
      </trkpt>
      <trkpt lat="50.909247016534209" lon="14.805204011499882">
        <ele>248.16</ele>
        <time>2024-09-18T12:34:33Z</time>
      </trkpt>
      <trkpt lat="50.909213991835713" lon="14.805212980136275">
        <ele>248.16</ele>
        <time>2024-09-18T12:34:35Z</time>
      </trkpt>
      <trkpt lat="50.909180967137218" lon="14.805222032591701">
        <ele>248.16</ele>
        <time>2024-09-18T12:34:36Z</time>
      </trkpt>
      <trkpt lat="50.909131010994315" lon="14.805234018713236">
        <ele>247.68000000000001</ele>
        <time>2024-09-18T12:34:37Z</time>
      </trkpt>
      <trkpt lat="50.909054987132549" lon="14.805253967642784">
        <ele>247.68000000000001</ele>
        <time>2024-09-18T12:34:38Z</time>
      </trkpt>
      <trkpt lat="50.908963959664106" lon="14.805277017876506">
        <ele>247.19999999999999</ele>
        <time>2024-09-18T12:34:39Z</time>
      </trkpt>
      <trkpt lat="50.908250994980335" lon="14.805449014529586">
        <ele>246.22999999999999</ele>
        <time>2024-09-18T12:34:46Z</time>
      </trkpt>
      <trkpt lat="50.908133983612061" lon="14.805471980944276">
        <ele>246.72</ele>
        <time>2024-09-18T12:34:47Z</time>
      </trkpt>
      <trkpt lat="50.906969988718629" lon="14.805840030312538">
        <ele>248.63999999999999</ele>
        <time>2024-09-18T12:34:57Z</time>
      </trkpt>
      <trkpt lat="50.906853983178735" lon="14.805913036689162">
        <ele>248.16</ele>
        <time>2024-09-18T12:34:58Z</time>
      </trkpt>
      <trkpt lat="50.906742000952363" lon="14.805998029187322">
        <ele>247.68000000000001</ele>
        <time>2024-09-18T12:34:59Z</time>
      </trkpt>
      <trkpt lat="50.906636975705624" lon="14.806089978665113">
        <ele>247.19999999999999</ele>
        <time>2024-09-18T12:35:00Z</time>
      </trkpt>
      <trkpt lat="50.905858967453241" lon="14.80724198743701">
        <ele>243.34999999999999</ele>
        <time>2024-09-18T12:35:09Z</time>
      </trkpt>
      <trkpt lat="50.905815968289971" lon="14.80737098492682">
        <ele>243.34999999999999</ele>
        <time>2024-09-18T12:35:10Z</time>
      </trkpt>
      <trkpt lat="50.905796019360423" lon="14.807532001286745">
        <ele>243.83000000000001</ele>
        <time>2024-09-18T12:35:11Z</time>
      </trkpt>
      <trkpt lat="50.905806999653578" lon="14.80762998573482">
        <ele>244.31</ele>
        <time>2024-09-18T12:35:12Z</time>
      </trkpt>
      <trkpt lat="50.905898027122021" lon="14.808519976213574">
        <ele>246.72</ele>
        <time>2024-09-18T12:35:18Z</time>
      </trkpt>
      <trkpt lat="50.905902972444892" lon="14.808690967038274">
        <ele>246.72</ele>
        <time>2024-09-18T12:35:19Z</time>
      </trkpt>
      <trkpt lat="50.905917976051569" lon="14.808822982013226">
        <ele>246.72</ele>
        <time>2024-09-18T12:35:20Z</time>
      </trkpt>
      <trkpt lat="50.905924011021852" lon="14.808975029736757">
        <ele>246.72</ele>
        <time>2024-09-18T12:35:21Z</time>
      </trkpt>
      <trkpt lat="50.905934991315007" lon="14.809120958670974">
        <ele>246.72</ele>
        <time>2024-09-18T12:35:22Z</time>
      </trkpt>
      <trkpt lat="50.905955024063587" lon="14.809279041364789">
        <ele>246.72</ele>
        <time>2024-09-18T12:35:23Z</time>
      </trkpt>
      <trkpt lat="50.905971033498645" lon="14.809462018311024">
        <ele>246.72</ele>
        <time>2024-09-18T12:35:24Z</time>
      </trkpt>
      <trkpt lat="50.905978996306658" lon="14.809653041884303">
        <ele>246.22999999999999</ele>
        <time>2024-09-18T12:35:25Z</time>
      </trkpt>
      <trkpt lat="50.905986959114671" lon="14.809840964153409">
        <ele>245.75</ele>
        <time>2024-09-18T12:35:26Z</time>
      </trkpt>
      <trkpt lat="50.905996011570096" lon="14.81003399938345">
        <ele>245.27000000000001</ele>
        <time>2024-09-18T12:35:27Z</time>
      </trkpt>
      <trkpt lat="50.906003974378109" lon="14.810218987986445">
        <ele>244.78999999999999</ele>
        <time>2024-09-18T12:35:28Z</time>
      </trkpt>
      <trkpt lat="50.906012021005154" lon="14.810402970761061">
        <ele>244.31</ele>
        <time>2024-09-18T12:35:29Z</time>
      </trkpt>
      <trkpt lat="50.906019983813167" lon="14.81059298850596">
        <ele>243.83000000000001</ele>
        <time>2024-09-18T12:35:30Z</time>
      </trkpt>
      <trkpt lat="50.906028030440211" lon="14.810780994594097">
        <ele>243.34999999999999</ele>
        <time>2024-09-18T12:35:31Z</time>
      </trkpt>
      <trkpt lat="50.906036999076605" lon="14.810977969318628">
        <ele>242.87</ele>
        <time>2024-09-18T12:35:32Z</time>
      </trkpt>
      <trkpt lat="50.906045967712998" lon="14.811186008155346">
        <ele>241.91</ele>
        <time>2024-09-18T12:35:33Z</time>
      </trkpt>
      <trkpt lat="50.906054014340043" lon="14.811378037557006">
        <ele>241.43000000000001</ele>
        <time>2024-09-18T12:35:34Z</time>
      </trkpt>
      <trkpt lat="50.906061977148056" lon="14.811555985361338">
        <ele>240.94999999999999</ele>
        <time>2024-09-18T12:35:35Z</time>
      </trkpt>
      <trkpt lat="50.90606901794672" lon="14.811720019206405">
        <ele>240.94999999999999</ele>
        <time>2024-09-18T12:35:36Z</time>
      </trkpt>
      <trkpt lat="50.906074969097972" lon="14.812022019177675">
        <ele>239.99000000000001</ele>
        <time>2024-09-18T12:35:38Z</time>
      </trkpt>
      <trkpt lat="50.906058959662914" lon="14.812170965597034">
        <ele>239.50999999999999</ele>
        <time>2024-09-18T12:35:39Z</time>
      </trkpt>
      <trkpt lat="50.906020989641547" lon="14.812284959480166">
        <ele>239.02000000000001</ele>
        <time>2024-09-18T12:35:40Z</time>
      </trkpt>
      <trkpt lat="50.905970027670264" lon="14.812398031353951">
        <ele>239.02000000000001</ele>
        <time>2024-09-18T12:35:41Z</time>
      </trkpt>
      <trkpt lat="50.905900960788131" lon="14.812457961961627">
        <ele>238.53999999999999</ele>
        <time>2024-09-18T12:35:42Z</time>
      </trkpt>
      <trkpt lat="50.905829966068268" lon="14.812520993873477">
        <ele>238.06</ele>
        <time>2024-09-18T12:35:43Z</time>
      </trkpt>
      <trkpt lat="50.90574698522687" lon="14.812539014965296">
        <ele>238.06</ele>
        <time>2024-09-18T12:35:44Z</time>
      </trkpt>
      <trkpt lat="50.90566098690033" lon="14.812546977773309">
        <ele>237.58000000000001</ele>
        <time>2024-09-18T12:35:45Z</time>
      </trkpt>
      <trkpt lat="50.905578006058931" lon="14.812554018571973">
        <ele>237.58000000000001</ele>
        <time>2024-09-18T12:35:46Z</time>
      </trkpt>
      <trkpt lat="50.905072996392846" lon="14.812572961673141">
        <ele>236.62</ele>
        <time>2024-09-18T12:35:55Z</time>
      </trkpt>
      <trkpt lat="50.905034020543098" lon="14.812573967501521">
        <ele>237.09999999999999</ele>
        <time>2024-09-18T12:35:58Z</time>
      </trkpt>
      <trkpt lat="50.904997978359461" lon="14.812575979158282">
        <ele>237.09999999999999</ele>
        <time>2024-09-18T12:36:01Z</time>
      </trkpt>
      <trkpt lat="50.904821958392859" lon="14.812590982764959">
        <ele>236.62</ele>
        <time>2024-09-18T12:36:04Z</time>
      </trkpt>
      <trkpt lat="50.904548037797213" lon="14.812596011906862">
        <ele>236.13999999999999</ele>
        <time>2024-09-18T12:36:08Z</time>
      </trkpt>
      <trkpt lat="50.904489029198885" lon="14.812592994421721">
        <ele>236.13999999999999</ele>
        <time>2024-09-18T12:36:09Z</time>
      </trkpt>
      <trkpt lat="50.90443697758019" lon="14.812584025785327">
        <ele>236.13999999999999</ele>
        <time>2024-09-18T12:36:10Z</time>
      </trkpt>
      <trkpt lat="50.9043949842453" lon="14.812576984986663">
        <ele>236.13999999999999</ele>
        <time>2024-09-18T12:36:11Z</time>
      </trkpt>
      <trkpt lat="50.904363971203566" lon="14.812572039663792">
        <ele>235.66</ele>
        <time>2024-09-18T12:36:12Z</time>
      </trkpt>
      <trkpt lat="50.904303034767509" lon="14.812561981379986">
        <ele>234.69999999999999</ele>
        <time>2024-09-18T12:36:16Z</time>
      </trkpt>
      <trkpt lat="50.904289036989212" lon="14.812343968078494">
        <ele>233.74000000000001</ele>
        <time>2024-09-18T12:36:33Z</time>
      </trkpt>
      <trkpt lat="50.904234973713756" lon="14.812551001086831">
        <ele>233.74000000000001</ele>
        <time>2024-09-18T12:36:35Z</time>
      </trkpt>
      <trkpt lat="50.904192980378866" lon="14.812543960288167">
        <ele>233.74000000000001</ele>
        <time>2024-09-18T12:36:36Z</time>
      </trkpt>
      <trkpt lat="50.904131038114429" lon="14.812532979995012">
        <ele>233.74000000000001</ele>
        <time>2024-09-18T12:36:37Z</time>
      </trkpt>
      <trkpt lat="50.904051996767521" lon="14.812519988045096">
        <ele>233.74000000000001</ele>
        <time>2024-09-18T12:36:38Z</time>
      </trkpt>
      <trkpt lat="50.903220009058714" lon="14.812218993902206">
        <ele>234.69999999999999</ele>
        <time>2024-09-18T12:36:46Z</time>
      </trkpt>
      <trkpt lat="50.902241002768278" lon="14.811579035595059">
        <ele>240.47</ele>
        <time>2024-09-18T12:36:56Z</time>
      </trkpt>
      <trkpt lat="50.901862978935242" lon="14.811329003423452">
        <ele>243.83000000000001</ele>
        <time>2024-09-18T12:37:00Z</time>
      </trkpt>
      <trkpt lat="50.901767006143928" lon="14.811265971511602">
        <ele>244.78999999999999</ele>
        <time>2024-09-18T12:37:01Z</time>
      </trkpt>
      <trkpt lat="50.901382025331259" lon="14.811011999845505">
        <ele>247.19999999999999</ele>
        <time>2024-09-18T12:37:05Z</time>
      </trkpt>
      <trkpt lat="50.901284040883183" lon="14.810946034267545">
        <ele>248.16</ele>
        <time>2024-09-18T12:37:06Z</time>
      </trkpt>
      <trkpt lat="50.900439983233809" lon="14.810357037931681">
        <ele>250.56</ele>
        <time>2024-09-18T12:37:15Z</time>
      </trkpt>
      <trkpt lat="50.900345016270876" lon="14.81029300019145">
        <ele>250.08000000000001</ele>
        <time>2024-09-18T12:37:16Z</time>
      </trkpt>
      <trkpt lat="50.900247031822801" lon="14.810228040441871">
        <ele>250.08000000000001</ele>
        <time>2024-09-18T12:37:17Z</time>
      </trkpt>
      <trkpt lat="50.8992990385741" lon="14.809606019407511">
        <ele>246.72</ele>
        <time>2024-09-18T12:37:27Z</time>
      </trkpt>
      <trkpt lat="50.898994021117687" lon="14.809409966692328">
        <ele>245.27000000000001</ele>
        <time>2024-09-18T12:37:33Z</time>
      </trkpt>
      <trkpt lat="50.898968037217855" lon="14.809393035247922">
        <ele>244.31</ele>
        <time>2024-09-18T12:37:45Z</time>
      </trkpt>
      <trkpt lat="50.898968037217855" lon="14.809393035247922">
        <ele>244.31</ele>
        <time>2024-09-18T12:37:53Z</time>
      </trkpt>
      <trkpt lat="50.898927971720695" lon="14.809366967529058">
        <ele>244.31</ele>
        <time>2024-09-18T12:37:54Z</time>
      </trkpt>
      <trkpt lat="50.89889201335609" lon="14.809344001114368">
        <ele>244.78999999999999</ele>
        <time>2024-09-18T12:37:55Z</time>
      </trkpt>
      <trkpt lat="50.898869968950748" lon="14.809203017503023">
        <ele>245.27000000000001</ele>
        <time>2024-09-18T12:37:56Z</time>
      </trkpt>
      <trkpt lat="50.89889301918447" lon="14.809103021398187">
        <ele>245.75</ele>
        <time>2024-09-18T12:37:57Z</time>
      </trkpt>
      <trkpt lat="50.898917997255921" lon="14.809000007808208">
        <ele>245.75</ele>
        <time>2024-09-18T12:37:58Z</time>
      </trkpt>
      <trkpt lat="50.898943981155753" lon="14.808889031410217">
        <ele>245.75</ele>
        <time>2024-09-18T12:37:59Z</time>
      </trkpt>
      <trkpt lat="50.898974994197488" lon="14.808612009510398">
        <ele>246.22999999999999</ele>
        <time>2024-09-18T12:38:01Z</time>
      </trkpt>
      <trkpt lat="50.899069961160421" lon="14.807631997391582">
        <ele>246.22999999999999</ele>
        <time>2024-09-18T12:38:08Z</time>
      </trkpt>
      <trkpt lat="50.8990019839257" lon="14.807495959103107">
        <ele>246.22999999999999</ele>
        <time>2024-09-18T12:38:09Z</time>
      </trkpt>
      <trkpt lat="50.898954961448908" lon="14.807475004345179">
        <ele>246.22999999999999</ele>
        <time>2024-09-18T12:38:10Z</time>
      </trkpt>
      <trkpt lat="50.898900981992483" lon="14.807450026273727">
        <ele>245.75</ele>
        <time>2024-09-18T12:38:11Z</time>
      </trkpt>
      <trkpt lat="50.898843985050917" lon="14.807423036545515">
        <ele>245.75</ele>
        <time>2024-09-18T12:38:12Z</time>
      </trkpt>
      <trkpt lat="50.898468978703022" lon="14.807259002700448">
        <ele>245.27000000000001</ele>
        <time>2024-09-18T12:38:18Z</time>
      </trkpt>
      <trkpt lat="50.898296982049942" lon="14.807206029072404">
        <ele>244.78999999999999</ele>
        <time>2024-09-18T12:38:22Z</time>
      </trkpt>
      <trkpt lat="50.898257000371814" lon="14.807193959131837">
        <ele>244.78999999999999</ele>
        <time>2024-09-18T12:38:23Z</time>
      </trkpt>
      <trkpt lat="50.898214001208544" lon="14.807180967181921">
        <ele>245.27000000000001</ele>
        <time>2024-09-18T12:38:24Z</time>
      </trkpt>
      <trkpt lat="50.898091960698366" lon="14.807144002988935">
        <ele>244.31</ele>
        <time>2024-09-18T12:38:27Z</time>
      </trkpt>
      <trkpt lat="50.898047033697367" lon="14.807130005210638">
        <ele>244.31</ele>
        <time>2024-09-18T12:38:28Z</time>
      </trkpt>
      <trkpt lat="50.898004034534097" lon="14.807116007432342">
        <ele>243.83000000000001</ele>
        <time>2024-09-18T12:38:29Z</time>
      </trkpt>
      <trkpt lat="50.897959023714066" lon="14.807098992168903">
        <ele>243.83000000000001</ele>
        <time>2024-09-18T12:38:30Z</time>
      </trkpt>
      <trkpt lat="50.897912001237273" lon="14.807081976905465">
        <ele>243.83000000000001</ele>
        <time>2024-09-18T12:38:31Z</time>
      </trkpt>
      <trkpt lat="50.897867996245623" lon="14.807065967470407">
        <ele>243.83000000000001</ele>
        <time>2024-09-18T12:38:32Z</time>
      </trkpt>
      <trkpt lat="50.89782097376883" lon="14.807049036026001">
        <ele>243.34999999999999</ele>
        <time>2024-09-18T12:38:33Z</time>
      </trkpt>
      <trkpt lat="50.89777403511107" lon="14.807032020762563">
        <ele>243.34999999999999</ele>
        <time>2024-09-18T12:38:34Z</time>
      </trkpt>
      <trkpt lat="50.897686025127769" lon="14.807000001892447">
        <ele>242.87</ele>
        <time>2024-09-18T12:38:36Z</time>
      </trkpt>
      <trkpt lat="50.897657023742795" lon="14.806989021599293">
        <ele>242.38999999999999</ele>
        <time>2024-09-18T12:38:37Z</time>
      </trkpt>
      <trkpt lat="50.897550992667675" lon="14.807040989398956">
        <ele>242.38999999999999</ele>
        <time>2024-09-18T12:38:38Z</time>
      </trkpt>
      <trkpt lat="50.897547975182533" lon="14.807093963027">
        <ele>241.91</ele>
        <time>2024-09-18T12:38:39Z</time>
      </trkpt>
      <trkpt lat="50.897545041516423" lon="14.807159006595612">
        <ele>241.91</ele>
        <time>2024-09-18T12:38:40Z</time>
      </trkpt>
      <trkpt lat="50.89754001237452" lon="14.807232012972236">
        <ele>241.43000000000001</ele>
        <time>2024-09-18T12:38:41Z</time>
      </trkpt>
      <trkpt lat="50.897535989060998" lon="14.807303007692099">
        <ele>241.43000000000001</ele>
        <time>2024-09-18T12:38:42Z</time>
      </trkpt>
      <trkpt lat="50.897504976019263" lon="14.807660998776555">
        <ele>239.99000000000001</ele>
        <time>2024-09-18T12:38:47Z</time>
      </trkpt>
      <trkpt lat="50.897498019039631" lon="14.807740962132812">
        <ele>239.50999999999999</ele>
        <time>2024-09-18T12:38:48Z</time>
      </trkpt>
      <trkpt lat="50.897491984069347" lon="14.807811034843326">
        <ele>239.50999999999999</ele>
        <time>2024-09-18T12:38:49Z</time>
      </trkpt>
      <trkpt lat="50.897471029311419" lon="14.80788798071444">
        <ele>239.50999999999999</ele>
        <time>2024-09-18T12:38:50Z</time>
      </trkpt>
      <trkpt lat="50.897450996562839" lon="14.807960987091064">
        <ele>239.50999999999999</ele>
        <time>2024-09-18T12:38:51Z</time>
      </trkpt>
      <trkpt lat="50.897431969642639" lon="14.808029970154166">
        <ele>239.50999999999999</ele>
        <time>2024-09-18T12:38:52Z</time>
      </trkpt>
      <trkpt lat="50.89738997630775" lon="14.808065006509423">
        <ele>239.02000000000001</ele>
        <time>2024-09-18T12:38:53Z</time>
      </trkpt>
      <trkpt lat="50.897353012114763" lon="14.808084033429623">
        <ele>239.02000000000001</ele>
        <time>2024-09-18T12:38:54Z</time>
      </trkpt>
      <trkpt lat="50.897298026829958" lon="14.808111023157835">
        <ele>238.53999999999999</ele>
        <time>2024-09-18T12:38:55Z</time>
      </trkpt>
      <trkpt lat="50.897274976596236" lon="14.808117980137467">
        <ele>238.06</ele>
        <time>2024-09-18T12:38:56Z</time>
      </trkpt>
      <trkpt lat="50.897231977432966" lon="14.808129966259003">
        <ele>237.58000000000001</ele>
        <time>2024-09-18T12:38:57Z</time>
      </trkpt>
      <trkpt lat="50.897187972441316" lon="14.808142958208919">
        <ele>237.58000000000001</ele>
        <time>2024-09-18T12:38:58Z</time>
      </trkpt>
      <trkpt lat="50.897142039611936" lon="14.808157039806247">
        <ele>237.09999999999999</ele>
        <time>2024-09-18T12:38:59Z</time>
      </trkpt>
      <trkpt lat="50.897095017135143" lon="14.808170031756163">
        <ele>236.62</ele>
        <time>2024-09-18T12:39:00Z</time>
      </trkpt>
      <trkpt lat="50.897051012143493" lon="14.808183023706079">
        <ele>236.62</ele>
        <time>2024-09-18T12:39:01Z</time>
      </trkpt>
      <trkpt lat="50.897008012980223" lon="14.808195009827614">
        <ele>236.13999999999999</ele>
        <time>2024-09-18T12:39:02Z</time>
      </trkpt>
      <trkpt lat="50.896566035225987" lon="14.808323001489043">
        <ele>232.78</ele>
        <time>2024-09-18T12:39:11Z</time>
      </trkpt>
      <trkpt lat="50.896522030234337" lon="14.808334987610579">
        <ele>232.30000000000001</ele>
        <time>2024-09-18T12:39:12Z</time>
      </trkpt>
      <trkpt lat="50.896480036899447" lon="14.808347979560494">
        <ele>231.81</ele>
        <time>2024-09-18T12:39:13Z</time>
      </trkpt>
      <trkpt lat="50.896446006372571" lon="14.80835703201592">
        <ele>231.33000000000001</ele>
        <time>2024-09-18T12:39:14Z</time>
      </trkpt>
      <trkpt lat="50.896333018317819" lon="14.808389972895384">
        <ele>230.84999999999999</ele>
        <time>2024-09-18T12:39:15Z</time>
      </trkpt>
      <trkpt lat="50.896326983347535" lon="14.808391984552145">
        <ele>230.37</ele>
        <time>2024-09-18T12:39:17Z</time>
      </trkpt>
      <trkpt lat="50.896281972527504" lon="14.808406988158822">
        <ele>229.88999999999999</ele>
        <time>2024-09-18T12:39:18Z</time>
      </trkpt>
      <trkpt lat="50.896240985020995" lon="14.808420985937119">
        <ele>229.88999999999999</ele>
        <time>2024-09-18T12:39:19Z</time>
      </trkpt>
      <trkpt lat="50.896205026656389" lon="14.808432972058654">
        <ele>229.41</ele>
        <time>2024-09-18T12:39:20Z</time>
      </trkpt>
      <trkpt lat="50.896168984472752" lon="14.808444958180189">
        <ele>229.41</ele>
        <time>2024-09-18T12:39:21Z</time>
      </trkpt>
      <trkpt lat="50.896130008623004" lon="14.808458033949137">
        <ele>228.93000000000001</ele>
        <time>2024-09-18T12:39:22Z</time>
      </trkpt>
      <trkpt lat="50.896075023338199" lon="14.808475971221924">
        <ele>228.93000000000001</ele>
        <time>2024-09-18T12:39:23Z</time>
      </trkpt>
      <trkpt lat="50.896044010296464" lon="14.80848703533411">
        <ele>228.44999999999999</ele>
        <time>2024-09-18T12:39:24Z</time>
      </trkpt>
      <trkpt lat="50.895996987819672" lon="14.808502038940787">
        <ele>227.97</ele>
        <time>2024-09-18T12:39:25Z</time>
      </trkpt>
      <trkpt lat="50.895948959514499" lon="14.808517964556813">
        <ele>227.97</ele>
        <time>2024-09-18T12:39:26Z</time>
      </trkpt>
      <trkpt lat="50.895902020856738" lon="14.808533973991871">
        <ele>227.49000000000001</ele>
        <time>2024-09-18T12:39:27Z</time>
      </trkpt>
      <trkpt lat="50.895856004208326" lon="14.808548977598548">
        <ele>227.49000000000001</ele>
        <time>2024-09-18T12:39:28Z</time>
      </trkpt>
      <trkpt lat="50.895811999216676" lon="14.808563981205225">
        <ele>227.00999999999999</ele>
        <time>2024-09-18T12:39:29Z</time>
      </trkpt>
      <trkpt lat="50.895753996446729" lon="14.808583008125424">
        <ele>225.56999999999999</ele>
        <time>2024-09-18T12:39:31Z</time>
      </trkpt>
      <trkpt lat="50.895699011161923" lon="14.808593988418579">
        <ele>225.09</ele>
        <time>2024-09-18T12:39:32Z</time>
      </trkpt>
      <trkpt lat="50.895657017827034" lon="14.808602035045624">
        <ele>224.61000000000001</ele>
        <time>2024-09-18T12:39:33Z</time>
      </trkpt>
      <trkpt lat="50.895614018663764" lon="14.808609997853637">
        <ele>224.12</ele>
        <time>2024-09-18T12:39:34Z</time>
      </trkpt>
      <trkpt lat="50.89556498453021" lon="14.808619972318411">
        <ele>223.63999999999999</ele>
        <time>2024-09-18T12:39:35Z</time>
      </trkpt>
      <trkpt lat="50.895428024232388" lon="14.808646040037274">
        <ele>221.72</ele>
        <time>2024-09-18T12:39:38Z</time>
      </trkpt>
      <trkpt lat="50.895384019240737" lon="14.808655008673668">
        <ele>221.24000000000001</ele>
        <time>2024-09-18T12:39:39Z</time>
      </trkpt>
      <trkpt lat="50.895338002592325" lon="14.808663977310061">
        <ele>220.28</ele>
        <time>2024-09-18T12:39:40Z</time>
      </trkpt>
      <trkpt lat="50.895087970420718" lon="14.808712005615234">
        <ele>218.36000000000001</ele>
        <time>2024-09-18T12:39:45Z</time>
      </trkpt>
      <trkpt lat="50.895042037591338" lon="14.808718962594867">
        <ele>217.40000000000001</ele>
        <time>2024-09-18T12:39:46Z</time>
      </trkpt>
      <trkpt lat="50.894938018172979" lon="14.808733966201544">
        <ele>217.40000000000001</ele>
        <time>2024-09-18T12:39:47Z</time>
      </trkpt>
      <trkpt lat="50.894938018172979" lon="14.808733966201544">
        <ele>216.91</ele>
        <time>2024-09-18T12:39:48Z</time>
      </trkpt>
      <trkpt lat="50.894895019009709" lon="14.808742012828588">
        <ele>216.43000000000001</ele>
        <time>2024-09-18T12:39:49Z</time>
      </trkpt>
      <trkpt lat="50.894631994888186" lon="14.808791968971491">
        <ele>213.55000000000001</ele>
        <time>2024-09-18T12:39:54Z</time>
      </trkpt>
      <trkpt lat="50.894568962976336" lon="14.808804038912058">
        <ele>213.06999999999999</ele>
        <time>2024-09-18T12:39:55Z</time>
      </trkpt>
      <trkpt lat="50.894510038197041" lon="14.808815019205213">
        <ele>212.59</ele>
        <time>2024-09-18T12:39:56Z</time>
      </trkpt>
      <trkpt lat="50.894237961620092" lon="14.808866987004876">
        <ele>212.11000000000001</ele>
        <time>2024-09-18T12:40:01Z</time>
      </trkpt>
      <trkpt lat="50.894134026020765" lon="14.808887019753456">
        <ele>211.63</ele>
        <time>2024-09-18T12:40:03Z</time>
      </trkpt>
      <trkpt lat="50.894036963582039" lon="14.808905040845275">
        <ele>212.11000000000001</ele>
        <time>2024-09-18T12:40:05Z</time>
      </trkpt>
      <trkpt lat="50.893991030752659" lon="14.808948040008545">
        <ele>212.11000000000001</ele>
        <time>2024-09-18T12:40:06Z</time>
      </trkpt>
      <trkpt lat="50.893949037417769" lon="14.808986010029912">
        <ele>212.11000000000001</ele>
        <time>2024-09-18T12:40:07Z</time>
      </trkpt>
      <trkpt lat="50.893901009112597" lon="14.809030015021563">
        <ele>212.11000000000001</ele>
        <time>2024-09-18T12:40:08Z</time>
      </trkpt>
      <trkpt lat="50.893849963322282" lon="14.809077037498355">
        <ele>212.11000000000001</ele>
        <time>2024-09-18T12:40:09Z</time>
      </trkpt>
      <trkpt lat="50.893799001350999" lon="14.809122970327735">
        <ele>212.11000000000001</ele>
        <time>2024-09-18T12:40:10Z</time>
      </trkpt>
      <trkpt lat="50.893747033551335" lon="14.809170998632908">
        <ele>211.63</ele>
        <time>2024-09-18T12:40:11Z</time>
      </trkpt>
      <trkpt lat="50.893644019961357" lon="14.809264959767461">
        <ele>211.15000000000001</ele>
        <time>2024-09-18T12:40:13Z</time>
      </trkpt>
      <trkpt lat="50.893515022471547" lon="14.809384988620877">
        <ele>211.15000000000001</ele>
        <time>2024-09-18T12:40:16Z</time>
      </trkpt>
      <trkpt lat="50.893475040793419" lon="14.809427987784147">
        <ele>210.66999999999999</ele>
        <time>2024-09-18T12:40:17Z</time>
      </trkpt>
      <trkpt lat="50.893274964764714" lon="14.809649018570781">
        <ele>211.63</ele>
        <time>2024-09-18T12:40:22Z</time>
      </trkpt>
      <trkpt lat="50.893216039985418" lon="14.80971397832036">
        <ele>212.59</ele>
        <time>2024-09-18T12:40:23Z</time>
      </trkpt>
      <trkpt lat="50.892784036695957" lon="14.810279002413154">
        <ele>216.43000000000001</ele>
        <time>2024-09-18T12:40:31Z</time>
      </trkpt>
      <trkpt lat="50.89272603392601" lon="14.810348991304636">
        <ele>216.91</ele>
        <time>2024-09-18T12:40:32Z</time>
      </trkpt>
      <trkpt lat="50.892089009284973" lon="14.811102021485567">
        <ele>219.31999999999999</ele>
        <time>2024-09-18T12:40:42Z</time>
      </trkpt>
      <trkpt lat="50.89182497933507" lon="14.811292039230466">
        <ele>220.75999999999999</ele>
        <time>2024-09-18T12:40:45Z</time>
      </trkpt>
      <trkpt lat="50.891726994886994" lon="14.811311988160014">
        <ele>220.75999999999999</ele>
        <time>2024-09-18T12:40:46Z</time>
      </trkpt>
      <trkpt lat="50.89096499606967" lon="14.811596972867846">
        <ele>222.68000000000001</ele>
        <time>2024-09-18T12:40:55Z</time>
      </trkpt>
      <trkpt lat="50.890682023018599" lon="14.811785984784365">
        <ele>223.16</ele>
        <time>2024-09-18T12:40:59Z</time>
      </trkpt>
      <trkpt lat="50.890655033290386" lon="14.811803000047803">
        <ele>223.16</ele>
        <time>2024-09-18T12:41:05Z</time>
      </trkpt>
      <trkpt lat="50.890580015257001" lon="14.811853962019086">
        <ele>225.09</ele>
        <time>2024-09-18T12:41:20Z</time>
      </trkpt>
      <trkpt lat="50.890475995838642" lon="14.811707027256489">
        <ele>225.09</ele>
        <time>2024-09-18T12:41:21Z</time>
      </trkpt>
      <trkpt lat="50.890432996675372" lon="14.811626980081201">
        <ele>225.09</ele>
        <time>2024-09-18T12:41:22Z</time>
      </trkpt>
      <trkpt lat="50.890383962541819" lon="14.811536958441138">
        <ele>225.09</ele>
        <time>2024-09-18T12:41:23Z</time>
      </trkpt>
      <trkpt lat="50.890327971428633" lon="14.811445008963346">
        <ele>225.09</ele>
        <time>2024-09-18T12:41:24Z</time>
      </trkpt>
      <trkpt lat="50.890068970620632" lon="14.811074025928974">
        <ele>224.61000000000001</ele>
        <time>2024-09-18T12:41:28Z</time>
      </trkpt>
      <trkpt lat="50.889917006716132" lon="14.810878979042172">
        <ele>224.61000000000001</ele>
        <time>2024-09-18T12:41:30Z</time>
      </trkpt>
      <trkpt lat="50.888954009860754" lon="14.810131983831525">
        <ele>226.53</ele>
        <time>2024-09-18T12:41:40Z</time>
      </trkpt>
      <trkpt lat="50.887759001925588" lon="14.809429999440908">
        <ele>227.97</ele>
        <time>2024-09-18T12:41:51Z</time>
      </trkpt>
      <trkpt lat="50.887291962280869" lon="14.809225983917713">
        <ele>228.93000000000001</ele>
        <time>2024-09-18T12:41:58Z</time>
      </trkpt>
      <trkpt lat="50.887158019468188" lon="14.809210980311036">
        <ele>228.93000000000001</ele>
        <time>2024-09-18T12:42:07Z</time>
      </trkpt>
      <trkpt lat="50.886382022872567" lon="14.809249034151435">
        <ele>227.97</ele>
        <time>2024-09-18T12:42:16Z</time>
      </trkpt>
      <trkpt lat="50.885452972725034" lon="14.809317011386156">
        <ele>231.33000000000001</ele>
        <time>2024-09-18T12:42:26Z</time>
      </trkpt>
      <trkpt lat="50.884805973619223" lon="14.809414995834231">
        <ele>234.22</ele>
        <time>2024-09-18T12:42:33Z</time>
      </trkpt>
      <trkpt lat="50.883957976475358" lon="14.809609958902001">
        <ele>235.66</ele>
        <time>2024-09-18T12:42:41Z</time>
      </trkpt>
      <trkpt lat="50.883849011734128" lon="14.809636026620865">
        <ele>235.66</ele>
        <time>2024-09-18T12:42:42Z</time>
      </trkpt>
      <trkpt lat="50.883048037067056" lon="14.809826966375113">
        <ele>238.06</ele>
        <time>2024-09-18T12:42:49Z</time>
      </trkpt>
      <trkpt lat="50.882933037355542" lon="14.809854039922357">
        <ele>238.06</ele>
        <time>2024-09-18T12:42:50Z</time>
      </trkpt>
      <trkpt lat="50.88258602656424" lon="14.80994800105691">
        <ele>239.02000000000001</ele>
        <time>2024-09-18T12:42:53Z</time>
      </trkpt>
      <trkpt lat="50.882470021024346" lon="14.809983037412167">
        <ele>239.50999999999999</ele>
        <time>2024-09-18T12:42:54Z</time>
      </trkpt>
      <trkpt lat="50.882355021312833" lon="14.810016984120011">
        <ele>239.50999999999999</ele>
        <time>2024-09-18T12:42:55Z</time>
      </trkpt>
      <trkpt lat="50.881668040528893" lon="14.810189986601472">
        <ele>241.43000000000001</ele>
        <time>2024-09-18T12:43:01Z</time>
      </trkpt>
      <trkpt lat="50.881551029160619" lon="14.810218987986445">
        <ele>241.91</ele>
        <time>2024-09-18T12:43:02Z</time>
      </trkpt>
      <trkpt lat="50.880517959594727" lon="14.810462985187769">
        <ele>242.87</ele>
        <time>2024-09-18T12:43:11Z</time>
      </trkpt>
      <trkpt lat="50.879727965220809" lon="14.810654008761048">
        <ele>243.34999999999999</ele>
        <time>2024-09-18T12:43:18Z</time>
      </trkpt>
      <trkpt lat="50.878134984523058" lon="14.811067990958691">
        <ele>239.50999999999999</ele>
        <time>2024-09-18T12:43:32Z</time>
      </trkpt>
      <trkpt lat="50.877547999843955" lon="14.811210986226797">
        <ele>238.06</ele>
        <time>2024-09-18T12:43:37Z</time>
      </trkpt>
      <trkpt lat="50.876623978838325" lon="14.811054999008775">
        <ele>234.69999999999999</ele>
        <time>2024-09-18T12:43:45Z</time>
      </trkpt>
      <trkpt lat="50.875716973096132" lon="14.810749981552362">
        <ele>231.81</ele>
        <time>2024-09-18T12:43:53Z</time>
      </trkpt>
      <trkpt lat="50.875586969777942" lon="14.81072299182415">
        <ele>231.33000000000001</ele>
        <time>2024-09-18T12:43:54Z</time>
      </trkpt>
      <trkpt lat="50.875311959534883" lon="14.810664989054203">
        <ele>230.84999999999999</ele>
        <time>2024-09-18T12:43:56Z</time>
      </trkpt>
      <trkpt lat="50.875168964266777" lon="14.810634981840849">
        <ele>230.84999999999999</ele>
        <time>2024-09-18T12:43:57Z</time>
      </trkpt>
      <trkpt lat="50.873230984434485" lon="14.810210019350052">
        <ele>231.33000000000001</ele>
        <time>2024-09-18T12:44:10Z</time>
      </trkpt>
      <trkpt lat="50.871466007083654" lon="14.809769969433546">
        <ele>232.78</ele>
        <time>2024-09-18T12:44:22Z</time>
      </trkpt>
      <trkpt lat="50.871072979643941" lon="14.809537036344409">
        <ele>233.25999999999999</ele>
        <time>2024-09-18T12:44:25Z</time>
      </trkpt>
      <trkpt lat="50.870831999927759" lon="14.809317011386156">
        <ele>235.18000000000001</ele>
        <time>2024-09-18T12:44:27Z</time>
      </trkpt>
      <trkpt lat="50.86967303417623" lon="14.807868031784892">
        <ele>241.43000000000001</ele>
        <time>2024-09-18T12:44:36Z</time>
      </trkpt>
      <trkpt lat="50.867801019921899" lon="14.805471980944276">
        <ele>244.31</ele>
        <time>2024-09-18T12:44:50Z</time>
      </trkpt>
      <trkpt lat="50.86675001308322" lon="14.804118974134326">
        <ele>246.72</ele>
        <time>2024-09-18T12:44:58Z</time>
      </trkpt>
      <trkpt lat="50.866627972573042" lon="14.803959969431162">
        <ele>246.22999999999999</ele>
        <time>2024-09-18T12:44:59Z</time>
      </trkpt>
      <trkpt lat="50.86505401879549" lon="14.80193599127233">
        <ele>249.59999999999999</ele>
        <time>2024-09-18T12:45:12Z</time>
      </trkpt>
      <trkpt lat="50.863855993375182" lon="14.800382992252707">
        <ele>255.37</ele>
        <time>2024-09-18T12:45:23Z</time>
      </trkpt>
      <trkpt lat="50.862629972398281" lon="14.798835022374988">
        <ele>259.20999999999998</ele>
        <time>2024-09-18T12:45:35Z</time>
      </trkpt>
      <trkpt lat="50.861588018015027" lon="14.797513028606772">
        <ele>261.13999999999999</ele>
        <time>2024-09-18T12:45:46Z</time>
      </trkpt>
      <trkpt lat="50.860888967290521" lon="14.796626977622509">
        <ele>264.98000000000002</ele>
        <time>2024-09-18T12:45:57Z</time>
      </trkpt>
      <trkpt lat="50.860743038356304" lon="14.796439977362752">
        <ele>265.94</ele>
        <time>2024-09-18T12:46:03Z</time>
      </trkpt>
      <trkpt lat="50.860730968415737" lon="14.796424973756075">
        <ele>265.94</ele>
        <time>2024-09-18T12:46:04Z</time>
      </trkpt>
      <trkpt lat="50.860719988122582" lon="14.796409970149398">
        <ele>265.94</ele>
        <time>2024-09-18T12:46:05Z</time>
      </trkpt>
      <trkpt lat="50.860710013657808" lon="14.796397984027863">
        <ele>266.42000000000002</ele>
        <time>2024-09-18T12:46:06Z</time>
      </trkpt>
      <trkpt lat="50.860699033364654" lon="14.796383986249566">
        <ele>266.42000000000002</ele>
        <time>2024-09-18T12:46:07Z</time>
      </trkpt>
      <trkpt lat="50.860686041414738" lon="14.796367976814508">
        <ele>266.89999999999998</ele>
        <time>2024-09-18T12:46:08Z</time>
      </trkpt>
      <trkpt lat="50.860677994787693" lon="14.796356996521354">
        <ele>266.89999999999998</ele>
        <time>2024-09-18T12:46:09Z</time>
      </trkpt>
      <trkpt lat="50.860700961202383" lon="14.796359008178115">
        <ele>264.5</ele>
        <time>2024-09-18T13:25:08Z</time>
      </trkpt>
      <trkpt lat="50.860700039193034" lon="14.79626102373004">
        <ele>263.54000000000002</ele>
        <time>2024-09-18T13:25:43Z</time>
      </trkpt>
      <trkpt lat="50.860695010051131" lon="14.796229004859924">
        <ele>273.14999999999998</ele>
        <time>2024-09-18T13:26:25Z</time>
      </trkpt>
      <trkpt lat="50.860717976465821" lon="14.79624099098146">
        <ele>277.48000000000002</ele>
        <time>2024-09-18T13:27:13Z</time>
      </trkpt>
      <trkpt lat="50.860719988122582" lon="14.796264041215181">
        <ele>277</ele>
        <time>2024-09-18T13:27:35Z</time>
      </trkpt>
      <trkpt lat="50.86075603030622" lon="14.79645699262619">
        <ele>274.58999999999997</ele>
        <time>2024-09-18T13:27:45Z</time>
      </trkpt>
      <trkpt lat="50.860731974244118" lon="14.796426985412836">
        <ele>274.58999999999997</ele>
        <time>2024-09-18T13:27:46Z</time>
      </trkpt>
      <trkpt lat="50.86069299839437" lon="14.796377029269934">
        <ele>274.11000000000001</ele>
        <time>2024-09-18T13:27:47Z</time>
      </trkpt>
      <trkpt lat="50.860642958432436" lon="14.796311985701323">
        <ele>274.11000000000001</ele>
        <time>2024-09-18T13:27:48Z</time>
      </trkpt>
      <trkpt lat="50.859946003183722" lon="14.795417971909046">
        <ele>274.11000000000001</ele>
        <time>2024-09-18T13:27:57Z</time>
      </trkpt>
      <trkpt lat="50.85951098240912" lon="14.794851019978523">
        <ele>275.06999999999999</ele>
        <time>2024-09-18T13:28:02Z</time>
      </trkpt>
      <trkpt lat="50.859420038759708" lon="14.794739037752151">
        <ele>275.06999999999999</ele>
        <time>2024-09-18T13:28:03Z</time>
      </trkpt>
      <trkpt lat="50.858580004423857" lon="14.793745027855039">
        <ele>278.92000000000002</ele>
        <time>2024-09-18T13:28:12Z</time>
      </trkpt>
      <trkpt lat="50.858293008059263" lon="14.793420983478427">
        <ele>280.83999999999997</ele>
        <time>2024-09-18T13:28:15Z</time>
      </trkpt>
      <trkpt lat="50.858181025832891" lon="14.793347977101803">
        <ele>281.31999999999999</ele>
        <time>2024-09-18T13:28:16Z</time>
      </trkpt>
      <trkpt lat="50.857950020581484" lon="14.793232977390289">
        <ele>282.76999999999998</ele>
        <time>2024-09-18T13:28:18Z</time>
      </trkpt>
      <trkpt lat="50.857832003384829" lon="14.793176986277103">
        <ele>283.25</ele>
        <time>2024-09-18T13:28:19Z</time>
      </trkpt>
      <trkpt lat="50.857717003673315" lon="14.793187966570258">
        <ele>284.20999999999998</ele>
        <time>2024-09-18T13:28:20Z</time>
      </trkpt>
      <trkpt lat="50.856506992131472" lon="14.793329034000635">
        <ele>285.17000000000002</ele>
        <time>2024-09-18T13:28:30Z</time>
      </trkpt>
      <trkpt lat="50.855790004134178" lon="14.793433975428343">
        <ele>283.25</ele>
        <time>2024-09-18T13:28:36Z</time>
      </trkpt>
      <trkpt lat="50.855540977790952" lon="14.793433975428343">
        <ele>281.80000000000001</ele>
        <time>2024-09-18T13:28:38Z</time>
      </trkpt>
      <trkpt lat="50.855066981166601" lon="14.793443027883768">
        <ele>279.88</ele>
        <time>2024-09-18T13:28:41Z</time>
      </trkpt>
      <trkpt lat="50.854889033362269" lon="14.793507987633348">
        <ele>279.39999999999998</ele>
        <time>2024-09-18T13:28:42Z</time>
      </trkpt>
      <trkpt lat="50.854702033102512" lon="14.793586023151875">
        <ele>278.92000000000002</ele>
        <time>2024-09-18T13:28:43Z</time>
      </trkpt>
      <trkpt lat="50.852876035496593" lon="14.794133026152849">
        <ele>282.27999999999997</ele>
        <time>2024-09-18T13:28:52Z</time>
      </trkpt>
      <trkpt lat="50.852283015847206" lon="14.79422103613615">
        <ele>284.20999999999998</ele>
        <time>2024-09-18T13:28:55Z</time>
      </trkpt>
      <trkpt lat="50.851886970922351" lon="14.794193040579557">
        <ele>286.13</ele>
        <time>2024-09-18T13:28:57Z</time>
      </trkpt>
      <trkpt lat="50.850686011835933" lon="14.794058008119464">
        <ele>290.94</ele>
        <time>2024-09-18T13:29:04Z</time>
      </trkpt>
      <trkpt lat="50.848889015614986" lon="14.79377000592649">
        <ele>301.50999999999999</ele>
        <time>2024-09-18T13:29:13Z</time>
      </trkpt>
      <trkpt lat="50.846889009699225" lon="14.793526008725166">
        <ele>314.00999999999999</ele>
        <time>2024-09-18T13:29:22Z</time>
      </trkpt>
      <trkpt lat="50.846000025048852" lon="14.793675960972905">
        <ele>319.77999999999997</ele>
        <time>2024-09-18T13:29:26Z</time>
      </trkpt>
      <trkpt lat="50.844655986875296" lon="14.794185999780893">
        <ele>330.82999999999998</ele>
        <time>2024-09-18T13:29:33Z</time>
      </trkpt>
      <trkpt lat="50.842879023402929" lon="14.794380040839314">
        <ele>342.85000000000002</ele>
        <time>2024-09-18T13:29:41Z</time>
      </trkpt>
      <trkpt lat="50.841916026547551" lon="14.794555976986885">
        <ele>351.98000000000002</ele>
        <time>2024-09-18T13:29:47Z</time>
      </trkpt>
      <trkpt lat="50.841815024614334" lon="14.794666031375527">
        <ele>352.94</ele>
        <time>2024-09-18T13:29:48Z</time>
      </trkpt>
      <trkpt lat="50.841729026287794" lon="14.79478295892477">
        <ele>353.89999999999998</ele>
        <time>2024-09-18T13:29:49Z</time>
      </trkpt>
      <trkpt lat="50.841653002426028" lon="14.794980017468333">
        <ele>355.33999999999997</ele>
        <time>2024-09-18T13:29:50Z</time>
      </trkpt>
      <trkpt lat="50.841586031019688" lon="14.795228959992528">
        <ele>356.31</ele>
        <time>2024-09-18T13:29:51Z</time>
      </trkpt>
      <trkpt lat="50.84122896194458" lon="14.796414999291301">
        <ele>361.11000000000001</ele>
        <time>2024-09-18T13:29:55Z</time>
      </trkpt>
      <trkpt lat="50.841101976111531" lon="14.796726973727345">
        <ele>362.55000000000001</ele>
        <time>2024-09-18T13:29:56Z</time>
      </trkpt>
      <trkpt lat="50.840272000059485" lon="14.798677023500204">
        <ele>373.13</ele>
        <time>2024-09-18T13:30:03Z</time>
      </trkpt>
      <trkpt lat="50.840178960934281" lon="14.798857988789678">
        <ele>374.56999999999999</ele>
        <time>2024-09-18T13:30:04Z</time>
      </trkpt>
      <trkpt lat="50.840074019506574" lon="14.798939041793346">
        <ele>376.00999999999999</ele>
        <time>2024-09-18T13:30:05Z</time>
      </trkpt>
      <trkpt lat="50.839982992038131" lon="14.798979023471475">
        <ele>377.94</ele>
        <time>2024-09-18T13:30:06Z</time>
      </trkpt>
      <trkpt lat="50.83989498205483" lon="14.798929989337921">
        <ele>379.38</ele>
        <time>2024-09-18T13:30:07Z</time>
      </trkpt>
      <trkpt lat="50.839810995385051" lon="14.798866035416722">
        <ele>380.33999999999997</ele>
        <time>2024-09-18T13:30:08Z</time>
      </trkpt>
      <trkpt lat="50.839794985949993" lon="14.798720022663474">
        <ele>381.77999999999997</ele>
        <time>2024-09-18T13:30:09Z</time>
      </trkpt>
      <trkpt lat="50.839770007878542" lon="14.79849798604846">
        <ele>383.69999999999999</ele>
        <time>2024-09-18T13:30:10Z</time>
      </trkpt>
      <trkpt lat="50.839802026748657" lon="14.798306962475181">
        <ele>385.14999999999998</ele>
        <time>2024-09-18T13:30:11Z</time>
      </trkpt>
      <trkpt lat="50.839845025911927" lon="14.798051984980702">
        <ele>386.58999999999997</ele>
        <time>2024-09-18T13:30:12Z</time>
      </trkpt>
      <trkpt lat="50.839882995933294" lon="14.797771023586392">
        <ele>388.02999999999997</ele>
        <time>2024-09-18T13:30:13Z</time>
      </trkpt>
      <trkpt lat="50.839905040338635" lon="14.7974650003016">
        <ele>388.99000000000001</ele>
        <time>2024-09-18T13:30:14Z</time>
      </trkpt>
      <trkpt lat="50.840189019218087" lon="14.794830987229943">
        <ele>401.49000000000001</ele>
        <time>2024-09-18T13:30:22Z</time>
      </trkpt>
      <trkpt lat="50.840284992009401" lon="14.793992964550853">
        <ele>406.29000000000002</ele>
        <time>2024-09-18T13:30:25Z</time>
      </trkpt>
      <trkpt lat="50.840267976745963" lon="14.79374997317791">
        <ele>407.74000000000001</ele>
        <time>2024-09-18T13:30:26Z</time>
      </trkpt>
      <trkpt lat="50.840224977582693" lon="14.793526008725166">
        <ele>408.69999999999999</ele>
        <time>2024-09-18T13:30:27Z</time>
      </trkpt>
      <trkpt lat="50.840166974812746" lon="14.793315958231688">
        <ele>409.66000000000003</ele>
        <time>2024-09-18T13:30:28Z</time>
      </trkpt>
      <trkpt lat="50.840090028941631" lon="14.793134992942214">
        <ele>411.10000000000002</ele>
        <time>2024-09-18T13:30:29Z</time>
      </trkpt>
      <trkpt lat="50.840003024786711" lon="14.792966013774276">
        <ele>412.54000000000002</ele>
        <time>2024-09-18T13:30:30Z</time>
      </trkpt>
      <trkpt lat="50.839903028681874" lon="14.792828969657421">
        <ele>414.47000000000003</ele>
        <time>2024-09-18T13:30:31Z</time>
      </trkpt>
      <trkpt lat="50.839779982343316" lon="14.792746994644403">
        <ele>415.43000000000001</ele>
        <time>2024-09-18T13:30:32Z</time>
      </trkpt>
      <trkpt lat="50.839645033702254" lon="14.792734002694488">
        <ele>416.87</ele>
        <time>2024-09-18T13:30:33Z</time>
      </trkpt>
      <trkpt lat="50.839470019564033" lon="14.792748000472784">
        <ele>418.79000000000002</ele>
        <time>2024-09-18T13:30:34Z</time>
      </trkpt>
      <trkpt lat="50.839307997375727" lon="14.792808014899492">
        <ele>420.23000000000002</ele>
        <time>2024-09-18T13:30:35Z</time>
      </trkpt>
      <trkpt lat="50.839109010994434" lon="14.792882027104497">
        <ele>422.16000000000003</ele>
        <time>2024-09-18T13:30:36Z</time>
      </trkpt>
      <trkpt lat="50.838710032403469" lon="14.793027034029365">
        <ele>425.04000000000002</ele>
        <time>2024-09-18T13:30:38Z</time>
      </trkpt>
      <trkpt lat="50.838530994951725" lon="14.793013036251068">
        <ele>426.48000000000002</ele>
        <time>2024-09-18T13:30:39Z</time>
      </trkpt>
      <trkpt lat="50.838364027440548" lon="14.792951010167599">
        <ele>427.92000000000002</ele>
        <time>2024-09-18T13:30:40Z</time>
      </trkpt>
      <trkpt lat="50.838181972503662" lon="14.792883032932878">
        <ele>429.37</ele>
        <time>2024-09-18T13:30:41Z</time>
      </trkpt>
      <trkpt lat="50.837978962808847" lon="14.792808014899492">
        <ele>430.81</ele>
        <time>2024-09-18T13:30:42Z</time>
      </trkpt>
      <trkpt lat="50.837756004184484" lon="14.792744982987642">
        <ele>432.25</ele>
        <time>2024-09-18T13:30:43Z</time>
      </trkpt>
      <trkpt lat="50.837516030296683" lon="14.792732996866107">
        <ele>433.69</ele>
        <time>2024-09-18T13:30:44Z</time>
      </trkpt>
      <trkpt lat="50.836236029863358" lon="14.792536022141576">
        <ele>439.94</ele>
        <time>2024-09-18T13:30:49Z</time>
      </trkpt>
      <trkpt lat="50.835374034941196" lon="14.792047021910548">
        <ele>444.26999999999998</ele>
        <time>2024-09-18T13:30:53Z</time>
      </trkpt>
      <trkpt lat="50.835188962519169" lon="14.791911989450455">
        <ele>444.75</ele>
        <time>2024-09-18T13:30:54Z</time>
      </trkpt>
      <trkpt lat="50.835023000836372" lon="14.791693976148963">
        <ele>445.70999999999998</ele>
        <time>2024-09-18T13:30:55Z</time>
      </trkpt>
      <trkpt lat="50.834865001961589" lon="14.791455008089542">
        <ele>446.67000000000002</ele>
        <time>2024-09-18T13:30:56Z</time>
      </trkpt>
      <trkpt lat="50.834728963673115" lon="14.791177986189723">
        <ele>447.63</ele>
        <time>2024-09-18T13:30:57Z</time>
      </trkpt>
      <trkpt lat="50.834198975935578" lon="14.790007034316659">
        <ele>451</ele>
        <time>2024-09-18T13:31:01Z</time>
      </trkpt>
      <trkpt lat="50.834091017022729" lon="14.789691036567092">
        <ele>451.95999999999998</ele>
        <time>2024-09-18T13:31:02Z</time>
      </trkpt>
      <trkpt lat="50.83387996070087" lon="14.789069015532732">
        <ele>453.39999999999998</ele>
        <time>2024-09-18T13:31:04Z</time>
      </trkpt>
      <trkpt lat="50.833200020715594" lon="14.78685200214386">
        <ele>458.69</ele>
        <time>2024-09-18T13:31:11Z</time>
      </trkpt>
      <trkpt lat="50.833096001297235" lon="14.786612028256059">
        <ele>459.64999999999998</ele>
        <time>2024-09-18T13:31:12Z</time>
      </trkpt>
      <trkpt lat="50.832994999364018" lon="14.786397032439709">
        <ele>460.61000000000001</ele>
        <time>2024-09-18T13:31:13Z</time>
      </trkpt>
      <trkpt lat="50.832862984389067" lon="14.786226963624358">
        <ele>461.56999999999999</ele>
        <time>2024-09-18T13:31:14Z</time>
      </trkpt>
      <trkpt lat="50.832735998556018" lon="14.786064019426703">
        <ele>462.52999999999997</ele>
        <time>2024-09-18T13:31:15Z</time>
      </trkpt>
      <trkpt lat="50.832599960267544" lon="14.785981038585305">
        <ele>463.49000000000001</ele>
        <time>2024-09-18T13:31:16Z</time>
      </trkpt>
      <trkpt lat="50.832474986091256" lon="14.785924041643739">
        <ele>464.44999999999999</ele>
        <time>2024-09-18T13:31:17Z</time>
      </trkpt>
      <trkpt lat="50.832322016358376" lon="14.785983972251415">
        <ele>465.89999999999998</ele>
        <time>2024-09-18T13:31:18Z</time>
      </trkpt>
      <trkpt lat="50.832162005826831" lon="14.786047004163265">
        <ele>467.33999999999997</ele>
        <time>2024-09-18T13:31:19Z</time>
      </trkpt>
      <trkpt lat="50.831984980031848" lon="14.786115987226367">
        <ele>469.25999999999999</ele>
        <time>2024-09-18T13:31:20Z</time>
      </trkpt>
      <trkpt lat="50.830745967105031" lon="14.786479007452726">
        <ele>479.35000000000002</ele>
        <time>2024-09-18T13:31:26Z</time>
      </trkpt>
      <trkpt lat="50.830352017655969" lon="14.786495016887784">
        <ele>482.24000000000001</ele>
        <time>2024-09-18T13:31:28Z</time>
      </trkpt>
      <trkpt lat="50.830171974375844" lon="14.78646601550281">
        <ele>483.19999999999999</ele>
        <time>2024-09-18T13:31:29Z</time>
      </trkpt>
      <trkpt lat="50.830011963844299" lon="14.786347998306155">
        <ele>484.63999999999999</ele>
        <time>2024-09-18T13:31:30Z</time>
      </trkpt>
      <trkpt lat="50.829852959141135" lon="14.786201985552907">
        <ele>485.60000000000002</ele>
        <time>2024-09-18T13:31:31Z</time>
      </trkpt>
      <trkpt lat="50.829694960266352" lon="14.78605798445642">
        <ele>486.56</ele>
        <time>2024-09-18T13:31:32Z</time>
      </trkpt>
      <trkpt lat="50.829557999968529" lon="14.785871990025043">
        <ele>487.52999999999997</ele>
        <time>2024-09-18T13:31:33Z</time>
      </trkpt>
      <trkpt lat="50.82943101413548" lon="14.785663029178977">
        <ele>488.49000000000001</ele>
        <time>2024-09-18T13:31:34Z</time>
      </trkpt>
      <trkpt lat="50.829306039959192" lon="14.785457001999021">
        <ele>489.44999999999999</ele>
        <time>2024-09-18T13:31:35Z</time>
      </trkpt>
      <trkpt lat="50.828813016414642" lon="14.784759040921926">
        <ele>493.76999999999998</ele>
        <time>2024-09-18T13:31:40Z</time>
      </trkpt>
      <trkpt lat="50.828822990879416" lon="14.784589977934957">
        <ele>494.74000000000001</ele>
        <time>2024-09-18T13:31:41Z</time>
      </trkpt>
      <trkpt lat="50.828873030841351" lon="14.784499034285545">
        <ele>495.69999999999999</ele>
        <time>2024-09-18T13:31:42Z</time>
      </trkpt>
      <trkpt lat="50.828940002247691" lon="14.784370958805084">
        <ele>496.66000000000003</ele>
        <time>2024-09-18T13:31:43Z</time>
      </trkpt>
      <trkpt lat="50.829018037766218" lon="14.784220000728965">
        <ele>497.13999999999999</ele>
        <time>2024-09-18T13:31:44Z</time>
      </trkpt>
      <trkpt lat="50.829194979742169" lon="14.783873995766044">
        <ele>498.57999999999998</ele>
        <time>2024-09-18T13:31:46Z</time>
      </trkpt>
      <trkpt lat="50.830067032948136" lon="14.782418981194496">
        <ele>501.45999999999998</ele>
        <time>2024-09-18T13:31:53Z</time>
      </trkpt>
      <trkpt lat="50.83031103014946" lon="14.782013967633247">
        <ele>501.94999999999999</ele>
        <time>2024-09-18T13:31:55Z</time>
      </trkpt>
      <trkpt lat="50.830448996275663" lon="14.781829984858632">
        <ele>501.94999999999999</ele>
        <time>2024-09-18T13:31:56Z</time>
      </trkpt>
      <trkpt lat="50.830595009028912" lon="14.781693024560809">
        <ele>502.43000000000001</ele>
        <time>2024-09-18T13:31:57Z</time>
      </trkpt>
      <trkpt lat="50.83076398819685" lon="14.781569978222251">
        <ele>502.43000000000001</ele>
        <time>2024-09-18T13:31:58Z</time>
      </trkpt>
      <trkpt lat="50.830939002335072" lon="14.781442992389202">
        <ele>502.43000000000001</ele>
        <time>2024-09-18T13:31:59Z</time>
      </trkpt>
      <trkpt lat="50.831641992554069" lon="14.780863970518112">
        <ele>499.06</ele>
        <time>2024-09-18T13:32:03Z</time>
      </trkpt>
      <trkpt lat="50.831776019185781" lon="14.780684011057019">
        <ele>498.10000000000002</ele>
        <time>2024-09-18T13:32:04Z</time>
      </trkpt>
      <trkpt lat="50.831866962835193" lon="14.780459040775895">
        <ele>496.66000000000003</ele>
        <time>2024-09-18T13:32:05Z</time>
      </trkpt>
      <trkpt lat="50.831933012232184" lon="14.780195010825992">
        <ele>496.18000000000001</ele>
        <time>2024-09-18T13:32:06Z</time>
      </trkpt>
      <trkpt lat="50.831998977810144" lon="14.779929975047708">
        <ele>495.22000000000003</ele>
        <time>2024-09-18T13:32:07Z</time>
      </trkpt>
      <trkpt lat="50.832121018320322" lon="14.779443992301822">
        <ele>494.25999999999999</ele>
        <time>2024-09-18T13:32:09Z</time>
      </trkpt>
      <trkpt lat="50.832131998613477" lon="14.77920301258564">
        <ele>493.76999999999998</ele>
        <time>2024-09-18T13:32:10Z</time>
      </trkpt>
      <trkpt lat="50.832119006663561" lon="14.778949040919542">
        <ele>493.76999999999998</ele>
        <time>2024-09-18T13:32:11Z</time>
      </trkpt>
      <trkpt lat="50.832096040248871" lon="14.778677970170975">
        <ele>493.29000000000002</ele>
        <time>2024-09-18T13:32:12Z</time>
      </trkpt>
      <trkpt lat="50.832072990015149" lon="14.778399020433426">
        <ele>493.29000000000002</ele>
        <time>2024-09-18T13:32:13Z</time>
      </trkpt>
      <trkpt lat="50.832142978906631" lon="14.777502994984388">
        <ele>492.81</ele>
        <time>2024-09-18T13:32:16Z</time>
      </trkpt>
      <trkpt lat="50.832431986927986" lon="14.775060005486012">
        <ele>486.56</ele>
        <time>2024-09-18T13:32:23Z</time>
      </trkpt>
      <trkpt lat="50.832598032429814" lon="14.773096041753888">
        <ele>482.24000000000001</ele>
        <time>2024-09-18T13:32:29Z</time>
      </trkpt>
      <trkpt lat="50.832690987735987" lon="14.772851038724184">
        <ele>481.75999999999999</ele>
        <time>2024-09-18T13:32:30Z</time>
      </trkpt>
      <trkpt lat="50.832818979397416" lon="14.772636964917183">
        <ele>481.27999999999997</ele>
        <time>2024-09-18T13:32:31Z</time>
      </trkpt>
      <trkpt lat="50.832963986322284" lon="14.772448036819696">
        <ele>480.31999999999999</ele>
        <time>2024-09-18T13:32:32Z</time>
      </trkpt>
      <trkpt lat="50.833115028217435" lon="14.772251984104514">
        <ele>479.83999999999997</ele>
        <time>2024-09-18T13:32:33Z</time>
      </trkpt>
      <trkpt lat="50.833289036527276" lon="14.772072024643421">
        <ele>479.35000000000002</ele>
        <time>2024-09-18T13:32:34Z</time>
      </trkpt>
      <trkpt lat="50.834935996681452" lon="14.770511984825134">
        <ele>473.58999999999997</ele>
        <time>2024-09-18T13:32:43Z</time>
      </trkpt>
      <trkpt lat="50.835227016359568" lon="14.770193975418806">
        <ele>472.63</ele>
        <time>2024-09-18T13:32:45Z</time>
      </trkpt>
      <trkpt lat="50.835328018292785" lon="14.770006975159049">
        <ele>471.66000000000003</ele>
        <time>2024-09-18T13:32:46Z</time>
      </trkpt>
      <trkpt lat="50.835417034104466" lon="14.769798014312983">
        <ele>471.18000000000001</ele>
        <time>2024-09-18T13:32:47Z</time>
      </trkpt>
      <trkpt lat="50.835470007732511" lon="14.769530966877937">
        <ele>470.69999999999999</ele>
        <time>2024-09-18T13:32:48Z</time>
      </trkpt>
      <trkpt lat="50.835525998845696" lon="14.769245982170105">
        <ele>470.69999999999999</ele>
        <time>2024-09-18T13:32:49Z</time>
      </trkpt>
      <trkpt lat="50.835570003837347" lon="14.768939958885312">
        <ele>470.22000000000003</ele>
        <time>2024-09-18T13:32:50Z</time>
      </trkpt>
      <trkpt lat="50.835705036297441" lon="14.768011998385191">
        <ele>470.69999999999999</ele>
        <time>2024-09-18T13:32:53Z</time>
      </trkpt>
      <trkpt lat="50.835715010762215" lon="14.767728019505739">
        <ele>470.69999999999999</ele>
        <time>2024-09-18T13:32:54Z</time>
      </trkpt>
      <trkpt lat="50.83566103130579" lon="14.767464995384216">
        <ele>471.18000000000001</ele>
        <time>2024-09-18T13:32:55Z</time>
      </trkpt>
      <trkpt lat="50.835561035200953" lon="14.767211023718119">
        <ele>471.66000000000003</ele>
        <time>2024-09-18T13:32:56Z</time>
      </trkpt>
      <trkpt lat="50.835420973598957" lon="14.766986975446343">
        <ele>472.13999999999999</ele>
        <time>2024-09-18T13:32:57Z</time>
      </trkpt>
      <trkpt lat="50.835269009694457" lon="14.766741972416639">
        <ele>472.63</ele>
        <time>2024-09-18T13:32:58Z</time>
      </trkpt>
      <trkpt lat="50.834997016936541" lon="14.766284991055727">
        <ele>474.06999999999999</ele>
        <time>2024-09-18T13:33:00Z</time>
      </trkpt>
      <trkpt lat="50.834914036095142" lon="14.766083993017673">
        <ele>475.02999999999997</ele>
        <time>2024-09-18T13:33:01Z</time>
      </trkpt>
      <trkpt lat="50.834871036931872" lon="14.765877965837717">
        <ele>475.99000000000001</ele>
        <time>2024-09-18T13:33:02Z</time>
      </trkpt>
      <trkpt lat="50.834832983091474" lon="14.765691971406341">
        <ele>476.94999999999999</ele>
        <time>2024-09-18T13:33:03Z</time>
      </trkpt>
      <trkpt lat="50.834798030555248" lon="14.765525003895164">
        <ele>477.43000000000001</ele>
        <time>2024-09-18T13:33:04Z</time>
      </trkpt>
      <trkpt lat="50.834699962288141" lon="14.765047989785671">
        <ele>479.35000000000002</ele>
        <time>2024-09-18T13:33:07Z</time>
      </trkpt>
      <trkpt lat="50.834590997546911" lon="14.764736015349627">
        <ele>480.31999999999999</ele>
        <time>2024-09-18T13:33:09Z</time>
      </trkpt>
      <trkpt lat="50.834511034190655" lon="14.764583967626095">
        <ele>481.27999999999997</ele>
        <time>2024-09-18T13:33:10Z</time>
      </trkpt>
      <trkpt lat="50.833452986553311" lon="14.762718994170427">
        <ele>486.07999999999998</ele>
        <time>2024-09-18T13:33:23Z</time>
      </trkpt>
      <trkpt lat="50.833229022100568" lon="14.762275004759431">
        <ele>487.52999999999997</ele>
        <time>2024-09-18T13:33:26Z</time>
      </trkpt>
      <trkpt lat="50.833178982138634" lon="14.762108037248254">
        <ele>488.00999999999999</ele>
        <time>2024-09-18T13:33:27Z</time>
      </trkpt>
      <trkpt lat="50.833137994632125" lon="14.761945009231567">
        <ele>488.49000000000001</ele>
        <time>2024-09-18T13:33:28Z</time>
      </trkpt>
      <trkpt lat="50.833116034045815" lon="14.761576959863305">
        <ele>489.44999999999999</ele>
        <time>2024-09-18T13:33:30Z</time>
      </trkpt>
      <trkpt lat="50.833074040710926" lon="14.760813033208251">
        <ele>490.41000000000003</ele>
        <time>2024-09-18T13:33:34Z</time>
      </trkpt>
      <trkpt lat="50.833049984648824" lon="14.760626032948494">
        <ele>490.41000000000003</ele>
        <time>2024-09-18T13:33:35Z</time>
      </trkpt>
      <trkpt lat="50.833026012405753" lon="14.760440038517118">
        <ele>490.88999999999999</ele>
        <time>2024-09-18T13:33:36Z</time>
      </trkpt>
      <trkpt lat="50.8329769782722" lon="14.76025203242898">
        <ele>490.41000000000003</ele>
        <time>2024-09-18T13:33:37Z</time>
      </trkpt>
      <trkpt lat="50.832905983552337" lon="14.760100990533829">
        <ele>490.41000000000003</ele>
        <time>2024-09-18T13:33:38Z</time>
      </trkpt>
      <trkpt lat="50.832835994660854" lon="14.759951960295439">
        <ele>490.41000000000003</ele>
        <time>2024-09-18T13:33:39Z</time>
      </trkpt>
      <trkpt lat="50.832763994112611" lon="14.759799996390939">
        <ele>489.93000000000001</ele>
        <time>2024-09-18T13:33:40Z</time>
      </trkpt>
      <trkpt lat="50.832406003028154" lon="14.759032968431711">
        <ele>489.44999999999999</ele>
        <time>2024-09-18T13:33:45Z</time>
      </trkpt>
      <trkpt lat="50.832320004701614" lon="14.758925009518862">
        <ele>489.44999999999999</ele>
        <time>2024-09-18T13:33:46Z</time>
      </trkpt>
      <trkpt lat="50.83222302608192" lon="14.758869018405676">
        <ele>489.44999999999999</ele>
        <time>2024-09-18T13:33:47Z</time>
      </trkpt>
      <trkpt lat="50.832129986956716" lon="14.7588159609586">
        <ele>489.44999999999999</ele>
        <time>2024-09-18T13:33:48Z</time>
      </trkpt>
      <trkpt lat="50.832067038863897" lon="14.758780002593994">
        <ele>488.97000000000003</ele>
        <time>2024-09-18T13:33:49Z</time>
      </trkpt>
      <trkpt lat="50.831960001960397" lon="14.758656034246087">
        <ele>488.97000000000003</ele>
        <time>2024-09-18T13:33:50Z</time>
      </trkpt>
      <trkpt lat="50.83190300501883" lon="14.758537011221051">
        <ele>489.44999999999999</ele>
        <time>2024-09-18T13:33:51Z</time>
      </trkpt>
      <trkpt lat="50.831848019734025" lon="14.758395021781325">
        <ele>489.44999999999999</ele>
        <time>2024-09-18T13:33:52Z</time>
      </trkpt>
      <trkpt lat="50.831791022792459" lon="14.758248003199697">
        <ele>489.44999999999999</ele>
        <time>2024-09-18T13:33:53Z</time>
      </trkpt>
      <trkpt lat="50.831736037507653" lon="14.758104002103209">
        <ele>489.44999999999999</ele>
        <time>2024-09-18T13:33:54Z</time>
      </trkpt>
      <trkpt lat="50.831695972010493" lon="14.757966035977006">
        <ele>489.44999999999999</ele>
        <time>2024-09-18T13:33:55Z</time>
      </trkpt>
      <trkpt lat="50.831655990332365" lon="14.757817005738616">
        <ele>489.93000000000001</ele>
        <time>2024-09-18T13:33:56Z</time>
      </trkpt>
      <trkpt lat="50.831330018118024" lon="14.756194017827511">
        <ele>492.81</ele>
        <time>2024-09-18T13:34:04Z</time>
      </trkpt>
      <trkpt lat="50.831041010096669" lon="14.754519984126091">
        <ele>494.74000000000001</ele>
        <time>2024-09-18T13:34:12Z</time>
      </trkpt>
      <trkpt lat="50.830988036468625" lon="14.753813976421952">
        <ele>496.18000000000001</ele>
        <time>2024-09-18T13:34:15Z</time>
      </trkpt>
      <trkpt lat="50.83099901676178" lon="14.753574002534151">
        <ele>497.13999999999999</ele>
        <time>2024-09-18T13:34:16Z</time>
      </trkpt>
      <trkpt lat="50.83102198317647" lon="14.753104029223323">
        <ele>498.57999999999998</ele>
        <time>2024-09-18T13:34:18Z</time>
      </trkpt>
      <trkpt lat="50.831032963469625" lon="14.752887021750212">
        <ele>500.01999999999998</ele>
        <time>2024-09-18T13:34:19Z</time>
      </trkpt>
      <trkpt lat="50.831020977348089" lon="14.752676971256733">
        <ele>501.45999999999998</ele>
        <time>2024-09-18T13:34:20Z</time>
      </trkpt>
      <trkpt lat="50.830995999276638" lon="14.752489970996976">
        <ele>502.43000000000001</ele>
        <time>2024-09-18T13:34:21Z</time>
      </trkpt>
      <trkpt lat="50.830972027033567" lon="14.752313029021025">
        <ele>503.87</ele>
        <time>2024-09-18T13:34:22Z</time>
      </trkpt>
      <trkpt lat="50.830907989293337" lon="14.751849006861448">
        <ele>507.70999999999998</ele>
        <time>2024-09-18T13:34:25Z</time>
      </trkpt>
      <trkpt lat="50.830907989293337" lon="14.751650020480156">
        <ele>508.67000000000002</ele>
        <time>2024-09-18T13:34:26Z</time>
      </trkpt>
      <trkpt lat="50.830811010673642" lon="14.750343030318618">
        <ele>518.28999999999996</ele>
        <time>2024-09-18T13:34:33Z</time>
      </trkpt>
      <trkpt lat="50.830787038430572" lon="14.749937010928988">
        <ele>520.69000000000005</ele>
        <time>2024-09-18T13:34:35Z</time>
      </trkpt>
      <trkpt lat="50.830775974318385" lon="14.749721009284258">
        <ele>521.64999999999998</ele>
        <time>2024-09-18T13:34:36Z</time>
      </trkpt>
      <trkpt lat="50.830765999853611" lon="14.74951003678143">
        <ele>523.09000000000003</ele>
        <time>2024-09-18T13:34:37Z</time>
      </trkpt>
      <trkpt lat="50.830756025388837" lon="14.74929504096508">
        <ele>524.05999999999995</ele>
        <time>2024-09-18T13:34:38Z</time>
      </trkpt>
      <trkpt lat="50.83074496127665" lon="14.749068981036544">
        <ele>525.01999999999998</ele>
        <time>2024-09-18T13:34:39Z</time>
      </trkpt>
      <trkpt lat="50.830730041489005" lon="14.748855996876955">
        <ele>525.5</ele>
        <time>2024-09-18T13:34:40Z</time>
      </trkpt>
      <trkpt lat="50.830684024840593" lon="14.748646030202508">
        <ele>525.98000000000002</ele>
        <time>2024-09-18T13:34:41Z</time>
      </trkpt>
      <trkpt lat="50.830638008192182" lon="14.74843799136579">
        <ele>526.46000000000004</ele>
        <time>2024-09-18T13:34:42Z</time>
      </trkpt>
      <trkpt lat="50.830255039036274" lon="14.746931008994579">
        <ele>523.09000000000003</ele>
        <time>2024-09-18T13:34:50Z</time>
      </trkpt>
      <trkpt lat="50.830199969932437" lon="14.746753983199596">
        <ele>522.61000000000001</ele>
        <time>2024-09-18T13:34:51Z</time>
      </trkpt>
      <trkpt lat="50.830145990476012" lon="14.746580980718136">
        <ele>521.64999999999998</ele>
        <time>2024-09-18T13:34:52Z</time>
      </trkpt>
      <trkpt lat="50.830136016011238" lon="14.746378976851702">
        <ele>521.16999999999996</ele>
        <time>2024-09-18T13:34:53Z</time>
      </trkpt>
      <trkpt lat="50.830154037103057" lon="14.746172027662396">
        <ele>520.69000000000005</ele>
        <time>2024-09-18T13:34:54Z</time>
      </trkpt>
      <trkpt lat="50.83018203265965" lon="14.745954014360905">
        <ele>520.69000000000005</ele>
        <time>2024-09-18T13:34:55Z</time>
      </trkpt>
      <trkpt lat="50.830211034044623" lon="14.745731977745891">
        <ele>520.69000000000005</ele>
        <time>2024-09-18T13:34:56Z</time>
      </trkpt>
      <trkpt lat="50.830212039873004" lon="14.745517987757921">
        <ele>520.69000000000005</ele>
        <time>2024-09-18T13:34:57Z</time>
      </trkpt>
      <trkpt lat="50.830196030437946" lon="14.745311960577965">
        <ele>520.69000000000005</ele>
        <time>2024-09-18T13:34:58Z</time>
      </trkpt>
      <trkpt lat="50.830179015174508" lon="14.745090007781982">
        <ele>520.21000000000004</ele>
        <time>2024-09-18T13:34:59Z</time>
      </trkpt>
      <trkpt lat="50.83012000657618" lon="14.744876017794013">
        <ele>520.21000000000004</ele>
        <time>2024-09-18T13:35:00Z</time>
      </trkpt>
      <trkpt lat="50.830023027956486" lon="14.744686000049114">
        <ele>520.21000000000004</ele>
        <time>2024-09-18T13:35:01Z</time>
      </trkpt>
      <trkpt lat="50.829920014366508" lon="14.744497993960977">
        <ele>520.21000000000004</ele>
        <time>2024-09-18T13:35:02Z</time>
      </trkpt>
      <trkpt lat="50.829812977463007" lon="14.744304036721587">
        <ele>520.21000000000004</ele>
        <time>2024-09-18T13:35:03Z</time>
      </trkpt>
      <trkpt lat="50.829519024118781" lon="14.743674974888563">
        <ele>519.25</ele>
        <time>2024-09-18T13:35:06Z</time>
      </trkpt>
      <trkpt lat="50.829445011913776" lon="14.743432989344001">
        <ele>519.25</ele>
        <time>2024-09-18T13:35:07Z</time>
      </trkpt>
      <trkpt lat="50.829389020800591" lon="14.743197038769722">
        <ele>518.76999999999998</ele>
        <time>2024-09-18T13:35:08Z</time>
      </trkpt>
      <trkpt lat="50.829335963353515" lon="14.742777021601796">
        <ele>518.76999999999998</ele>
        <time>2024-09-18T13:35:10Z</time>
      </trkpt>
      <trkpt lat="50.829358007758856" lon="14.742601001635194">
        <ele>518.76999999999998</ele>
        <time>2024-09-18T13:35:11Z</time>
      </trkpt>
      <trkpt lat="50.829421039670706" lon="14.742433028295636">
        <ele>518.76999999999998</ele>
        <time>2024-09-18T13:35:12Z</time>
      </trkpt>
      <trkpt lat="50.829492034390569" lon="14.742278968915343">
        <ele>518.76999999999998</ele>
        <time>2024-09-18T13:35:13Z</time>
      </trkpt>
      <trkpt lat="50.829602004960179" lon="14.742137985303998">
        <ele>518.76999999999998</ele>
        <time>2024-09-18T13:35:14Z</time>
      </trkpt>
      <trkpt lat="50.829719016328454" lon="14.742041006684303">
        <ele>518.76999999999998</ele>
        <time>2024-09-18T13:35:15Z</time>
      </trkpt>
      <trkpt lat="50.829854970797896" lon="14.741959031671286">
        <ele>518.28999999999996</ele>
        <time>2024-09-18T13:35:16Z</time>
      </trkpt>
      <trkpt lat="50.829998971894383" lon="14.741873033344746">
        <ele>517.80999999999995</ele>
        <time>2024-09-18T13:35:17Z</time>
      </trkpt>
      <trkpt lat="50.830146996304393" lon="14.741785023361444">
        <ele>516.85000000000002</ele>
        <time>2024-09-18T13:35:18Z</time>
      </trkpt>
      <trkpt lat="50.830297032371163" lon="14.741696007549763">
        <ele>515.88</ele>
        <time>2024-09-18T13:35:19Z</time>
      </trkpt>
      <trkpt lat="50.830598026514053" lon="14.74154002033174">
        <ele>513.48000000000002</ele>
        <time>2024-09-18T13:35:21Z</time>
      </trkpt>
      <trkpt lat="50.830761976540089" lon="14.741511018946767">
        <ele>512.03999999999996</ele>
        <time>2024-09-18T13:35:22Z</time>
      </trkpt>
      <trkpt lat="50.832022028043866" lon="14.741307003423572">
        <ele>500.01999999999998</ele>
        <time>2024-09-18T13:35:29Z</time>
      </trkpt>
      <trkpt lat="50.833003968000412" lon="14.741137018427253">
        <ele>487.05000000000001</ele>
        <time>2024-09-18T13:35:35Z</time>
      </trkpt>
      <trkpt lat="50.834271982312202" lon="14.740915987640619">
        <ele>468.30000000000001</ele>
        <time>2024-09-18T13:35:44Z</time>
      </trkpt>
      <trkpt lat="50.835499009117484" lon="14.74055296741426">
        <ele>455.31999999999999</ele>
        <time>2024-09-18T13:35:53Z</time>
      </trkpt>
      <trkpt lat="50.835599005222321" lon="14.740449031814933">
        <ele>453.88</ele>
        <time>2024-09-18T13:35:54Z</time>
      </trkpt>
      <trkpt lat="50.835705036297441" lon="14.740313999354839">
        <ele>452.44</ele>
        <time>2024-09-18T13:35:55Z</time>
      </trkpt>
      <trkpt lat="50.836351029574871" lon="14.739488968625665">
        <ele>443.79000000000002</ele>
        <time>2024-09-18T13:36:01Z</time>
      </trkpt>
      <trkpt lat="50.836701979860663" lon="14.739082027226686">
        <ele>438.01999999999998</ele>
        <time>2024-09-18T13:36:05Z</time>
      </trkpt>
      <trkpt lat="50.836819997057319" lon="14.739035004749894">
        <ele>436.57999999999998</ele>
        <time>2024-09-18T13:36:06Z</time>
      </trkpt>
      <trkpt lat="50.836886968463659" lon="14.739115973934531">
        <ele>435.13</ele>
        <time>2024-09-18T13:36:07Z</time>
      </trkpt>
      <trkpt lat="50.836969027295709" lon="14.739214964210987">
        <ele>433.69</ele>
        <time>2024-09-18T13:36:08Z</time>
      </trkpt>
      <trkpt lat="50.83705997094512" lon="14.739324012771249">
        <ele>432.25</ele>
        <time>2024-09-18T13:36:09Z</time>
      </trkpt>
      <trkpt lat="50.837158039212227" lon="14.739443035796285">
        <ele>431.29000000000002</ele>
        <time>2024-09-18T13:36:10Z</time>
      </trkpt>
      <trkpt lat="50.838332008570433" lon="14.7407460026443">
        <ele>418.31</ele>
        <time>2024-09-18T13:36:20Z</time>
      </trkpt>
      <trkpt lat="50.839170031249523" lon="14.741592993959785">
        <ele>408.22000000000003</ele>
        <time>2024-09-18T13:36:27Z</time>
      </trkpt>
      <trkpt lat="50.83931403234601" lon="14.741629036143422">
        <ele>407.25999999999999</ele>
        <time>2024-09-18T13:36:28Z</time>
      </trkpt>
      <trkpt lat="50.839427020400763" lon="14.741657031700015">
        <ele>405.81</ele>
        <time>2024-09-18T13:36:29Z</time>
      </trkpt>
      <trkpt lat="50.839519975706935" lon="14.74164898507297">
        <ele>404.85000000000002</ele>
        <time>2024-09-18T13:36:30Z</time>
      </trkpt>
      <trkpt lat="50.839622989296913" lon="14.741639010608196">
        <ele>403.88999999999999</ele>
        <time>2024-09-18T13:36:31Z</time>
      </trkpt>
      <trkpt lat="50.840399991720915" lon="14.741578996181488">
        <ele>398.12</ele>
        <time>2024-09-18T13:36:40Z</time>
      </trkpt>
      <trkpt lat="50.841083033010364" lon="14.741667006164789">
        <ele>395.24000000000001</ele>
        <time>2024-09-18T13:36:47Z</time>
      </trkpt>
      <trkpt lat="50.841171965003014" lon="14.741682009771466">
        <ele>394.75999999999999</ele>
        <time>2024-09-18T13:36:48Z</time>
      </trkpt>
      <trkpt lat="50.841290988028049" lon="14.741790974512696">
        <ele>394.27999999999997</ele>
        <time>2024-09-18T13:36:49Z</time>
      </trkpt>
      <trkpt lat="50.841314038261771" lon="14.741903962567449">
        <ele>393.80000000000001</ele>
        <time>2024-09-18T13:36:50Z</time>
      </trkpt>
      <trkpt lat="50.841338010504842" lon="14.742021979764104">
        <ele>393.31999999999999</ele>
        <time>2024-09-18T13:36:51Z</time>
      </trkpt>
      <trkpt lat="50.841362988576293" lon="14.742144020274282">
        <ele>392.36000000000001</ele>
        <time>2024-09-18T13:36:52Z</time>
      </trkpt>
      <trkpt lat="50.841387966647744" lon="14.742265976965427">
        <ele>391.38999999999999</ele>
        <time>2024-09-18T13:36:53Z</time>
      </trkpt>
      <trkpt lat="50.841832961887121" lon="14.743460984900594">
        <ele>383.69999999999999</ele>
        <time>2024-09-18T13:37:03Z</time>
      </trkpt>
      <trkpt lat="50.842517009004951" lon="14.745027981698513">
        <ele>377.44999999999999</ele>
        <time>2024-09-18T13:37:17Z</time>
      </trkpt>
      <trkpt lat="50.842551961541176" lon="14.745161002501845">
        <ele>377.44999999999999</ele>
        <time>2024-09-18T13:37:18Z</time>
      </trkpt>
      <trkpt lat="50.842719012871385" lon="14.745811019092798">
        <ele>376.97000000000003</ele>
        <time>2024-09-18T13:37:23Z</time>
      </trkpt>
      <trkpt lat="50.842752959579229" lon="14.745947979390621">
        <ele>376.49000000000001</ele>
        <time>2024-09-18T13:37:24Z</time>
      </trkpt>
      <trkpt lat="50.842819008976221" lon="14.746028026565909">
        <ele>376.49000000000001</ele>
        <time>2024-09-18T13:37:25Z</time>
      </trkpt>
      <trkpt lat="50.842896038666368" lon="14.746102038770914">
        <ele>376.49000000000001</ele>
        <time>2024-09-18T13:37:26Z</time>
      </trkpt>
      <trkpt lat="50.842980025336146" lon="14.74616096355021">
        <ele>376.49000000000001</ele>
        <time>2024-09-18T13:37:27Z</time>
      </trkpt>
      <trkpt lat="50.843067029491067" lon="14.746220977976918">
        <ele>376.00999999999999</ele>
        <time>2024-09-18T13:37:28Z</time>
      </trkpt>
      <trkpt lat="50.843165013939142" lon="14.746251991018653">
        <ele>376.00999999999999</ele>
        <time>2024-09-18T13:37:29Z</time>
      </trkpt>
      <trkpt lat="50.844282992184162" lon="14.746507974341512">
        <ele>376.00999999999999</ele>
        <time>2024-09-18T13:37:40Z</time>
      </trkpt>
      <trkpt lat="50.845554023981094" lon="14.746575029566884">
        <ele>378.42000000000002</ele>
        <time>2024-09-18T13:37:51Z</time>
      </trkpt>
      <trkpt lat="50.845919977873564" lon="14.746515015140176">
        <ele>379.38</ele>
        <time>2024-09-18T13:37:54Z</time>
      </trkpt>
      <trkpt lat="50.846036989241838" lon="14.746448965743184">
        <ele>379.38</ele>
        <time>2024-09-18T13:37:55Z</time>
      </trkpt>
      <trkpt lat="50.846149977296591" lon="14.74637302570045">
        <ele>378.89999999999998</ele>
        <time>2024-09-18T13:37:56Z</time>
      </trkpt>
      <trkpt lat="50.846797982230783" lon="14.745868016034365">
        <ele>376.97000000000003</ele>
        <time>2024-09-18T13:38:02Z</time>
      </trkpt>
      <trkpt lat="50.84692002274096" lon="14.74581697024405">
        <ele>376.00999999999999</ele>
        <time>2024-09-18T13:38:03Z</time>
      </trkpt>
      <trkpt lat="50.847039967775345" lon="14.745784029364586">
        <ele>375.52999999999997</ele>
        <time>2024-09-18T13:38:04Z</time>
      </trkpt>
      <trkpt lat="50.847155973315239" lon="14.745811019092798">
        <ele>375.05000000000001</ele>
        <time>2024-09-18T13:38:05Z</time>
      </trkpt>
      <trkpt lat="50.847268039360642" lon="14.745855024084449">
        <ele>374.08999999999997</ele>
        <time>2024-09-18T13:38:06Z</time>
      </trkpt>
      <trkpt lat="50.847369963303208" lon="14.745915960520506">
        <ele>373.13</ele>
        <time>2024-09-18T13:38:07Z</time>
      </trkpt>
      <trkpt lat="50.847460990771651" lon="14.746033977717161">
        <ele>372.64999999999998</ele>
        <time>2024-09-18T13:38:08Z</time>
      </trkpt>
      <trkpt lat="50.847553024068475" lon="14.746154006570578">
        <ele>372.17000000000002</ele>
        <time>2024-09-18T13:38:09Z</time>
      </trkpt>
      <trkpt lat="50.847644973546267" lon="14.746273029595613">
        <ele>371.69</ele>
        <time>2024-09-18T13:38:10Z</time>
      </trkpt>
      <trkpt lat="50.848556002601981" lon="14.747541965916753">
        <ele>366.88</ele>
        <time>2024-09-18T13:38:20Z</time>
      </trkpt>
      <trkpt lat="50.849134018644691" lon="14.748981976881623">
        <ele>363.04000000000002</ele>
        <time>2024-09-18T13:38:29Z</time>
      </trkpt>
      <trkpt lat="50.849220016971231" lon="14.749133018776774">
        <ele>362.06999999999999</ele>
        <time>2024-09-18T13:38:30Z</time>
      </trkpt>
      <trkpt lat="50.849296040832996" lon="14.749238966032863">
        <ele>361.58999999999997</ele>
        <time>2024-09-18T13:38:31Z</time>
      </trkpt>
      <trkpt lat="50.849406011402607" lon="14.749284982681274">
        <ele>361.11000000000001</ele>
        <time>2024-09-18T13:38:32Z</time>
      </trkpt>
      <trkpt lat="50.849525034427643" lon="14.749335022643209">
        <ele>360.14999999999998</ele>
        <time>2024-09-18T13:38:33Z</time>
      </trkpt>
      <trkpt lat="50.849644979462028" lon="14.749334016814828">
        <ele>359.67000000000002</ele>
        <time>2024-09-18T13:38:34Z</time>
      </trkpt>
      <trkpt lat="50.849768025800586" lon="14.749327981844544">
        <ele>359.19</ele>
        <time>2024-09-18T13:38:35Z</time>
      </trkpt>
      <trkpt lat="50.850210003554821" lon="14.749410040676594">
        <ele>357.26999999999998</ele>
        <time>2024-09-18T13:38:39Z</time>
      </trkpt>
      <trkpt lat="50.850970996543765" lon="14.749895017594099">
        <ele>356.79000000000002</ele>
        <time>2024-09-18T13:38:48Z</time>
      </trkpt>
      <trkpt lat="50.851778006181121" lon="14.75026398897171">
        <ele>357.26999999999998</ele>
        <time>2024-09-18T13:38:57Z</time>
      </trkpt>
      <trkpt lat="50.852282010018826" lon="14.75054101087153">
        <ele>355.82999999999998</ele>
        <time>2024-09-18T13:39:02Z</time>
      </trkpt>
      <trkpt lat="50.852575963363051" lon="14.750830018892884">
        <ele>355.33999999999997</ele>
        <time>2024-09-18T13:39:04Z</time>
      </trkpt>
      <trkpt lat="50.85328096523881" lon="14.751524040475488">
        <ele>355.33999999999997</ele>
        <time>2024-09-18T13:39:09Z</time>
      </trkpt>
      <trkpt lat="50.853400994092226" lon="14.751641973853111">
        <ele>354.86000000000001</ele>
        <time>2024-09-18T13:39:10Z</time>
      </trkpt>
      <trkpt lat="50.8539670240134" lon="14.752058973535895">
        <ele>353.89999999999998</ele>
        <time>2024-09-18T13:39:15Z</time>
      </trkpt>
      <trkpt lat="50.854079006239772" lon="14.752109013497829">
        <ele>353.42000000000002</ele>
        <time>2024-09-18T13:39:16Z</time>
      </trkpt>
      <trkpt lat="50.854302970692515" lon="14.752156035974622">
        <ele>353.42000000000002</ele>
        <time>2024-09-18T13:39:18Z</time>
      </trkpt>
      <trkpt lat="50.855565033853054" lon="14.752251002937555">
        <ele>358.70999999999998</ele>
        <time>2024-09-18T13:39:29Z</time>
      </trkpt>
      <trkpt lat="50.855680033564568" lon="14.752299031242728">
        <ele>359.19</ele>
        <time>2024-09-18T13:39:30Z</time>
      </trkpt>
      <trkpt lat="50.855788998305798" lon="14.752385029569268">
        <ele>359.19</ele>
        <time>2024-09-18T13:39:31Z</time>
      </trkpt>
      <trkpt lat="50.855884971097112" lon="14.752498017624021">
        <ele>359.67000000000002</ele>
        <time>2024-09-18T13:39:32Z</time>
      </trkpt>
      <trkpt lat="50.855982033535838" lon="14.752613017335534">
        <ele>359.67000000000002</ele>
        <time>2024-09-18T13:39:33Z</time>
      </trkpt>
      <trkpt lat="50.856185965240002" lon="14.752855002880096">
        <ele>359.19</ele>
        <time>2024-09-18T13:39:35Z</time>
      </trkpt>
      <trkpt lat="50.856286967173219" lon="14.752974025905132">
        <ele>358.70999999999998</ele>
        <time>2024-09-18T13:39:36Z</time>
      </trkpt>
      <trkpt lat="50.857357000932097" lon="14.754354022443295">
        <ele>351.5</ele>
        <time>2024-09-18T13:39:48Z</time>
      </trkpt>
      <trkpt lat="50.858110031113029" lon="14.755164971575141">
        <ele>345.73000000000002</ele>
        <time>2024-09-18T13:39:56Z</time>
      </trkpt>
      <trkpt lat="50.859008990228176" lon="14.755685990676284">
        <ele>343.81</ele>
        <time>2024-09-18T13:40:05Z</time>
      </trkpt>
      <trkpt lat="50.859101023525" lon="14.755732007324696">
        <ele>343.81</ele>
        <time>2024-09-18T13:40:06Z</time>
      </trkpt>
      <trkpt lat="50.859203031286597" lon="14.755726978182793">
        <ele>343.81</ele>
        <time>2024-09-18T13:40:07Z</time>
      </trkpt>
      <trkpt lat="50.859305961057544" lon="14.755721027031541">
        <ele>344.29000000000002</ele>
        <time>2024-09-18T13:40:08Z</time>
      </trkpt>
      <trkpt lat="50.859408974647522" lon="14.755714992061257">
        <ele>344.29000000000002</ele>
        <time>2024-09-18T13:40:09Z</time>
      </trkpt>
      <trkpt lat="50.859492961317301" lon="14.755689008161426">
        <ele>344.76999999999998</ele>
        <time>2024-09-18T13:40:10Z</time>
      </trkpt>
      <trkpt lat="50.859577031806111" lon="14.755609966814518">
        <ele>344.76999999999998</ele>
        <time>2024-09-18T13:40:11Z</time>
      </trkpt>
      <trkpt lat="50.859659006819129" lon="14.755533020943403">
        <ele>344.76999999999998</ele>
        <time>2024-09-18T13:40:12Z</time>
      </trkpt>
      <trkpt lat="50.859738970175385" lon="14.755458002910018">
        <ele>344.76999999999998</ele>
        <time>2024-09-18T13:40:13Z</time>
      </trkpt>
      <trkpt lat="50.85981197655201" lon="14.755390025675297">
        <ele>344.76999999999998</ele>
        <time>2024-09-18T13:40:14Z</time>
      </trkpt>
      <trkpt lat="50.859920019283891" lon="14.755378039553761">
        <ele>344.29000000000002</ele>
        <time>2024-09-18T13:40:15Z</time>
      </trkpt>
      <trkpt lat="50.860013980418444" lon="14.755374016240239">
        <ele>343.81</ele>
        <time>2024-09-18T13:40:16Z</time>
      </trkpt>
      <trkpt lat="50.860110959038138" lon="14.755426989868283">
        <ele>342.85000000000002</ele>
        <time>2024-09-18T13:40:17Z</time>
      </trkpt>
      <trkpt lat="50.860208021476865" lon="14.755481975153089">
        <ele>342.37</ele>
        <time>2024-09-18T13:40:18Z</time>
      </trkpt>
      <trkpt lat="50.860301982611418" lon="14.755545007064939">
        <ele>341.88999999999999</ele>
        <time>2024-09-18T13:40:19Z</time>
      </trkpt>
      <trkpt lat="50.861033974215388" lon="14.756307005882263">
        <ele>335.16000000000003</ele>
        <time>2024-09-18T13:40:28Z</time>
      </trkpt>
      <trkpt lat="50.861099017783999" lon="14.756410019472241">
        <ele>334.68000000000001</ele>
        <time>2024-09-18T13:40:29Z</time>
      </trkpt>
      <trkpt lat="50.861344020813704" lon="14.756775973364711">
        <ele>331.79000000000002</ele>
        <time>2024-09-18T13:40:33Z</time>
      </trkpt>
      <trkpt lat="50.861742999404669" lon="14.757214011624455">
        <ele>328.43000000000001</ele>
        <time>2024-09-18T13:40:39Z</time>
      </trkpt>
      <trkpt lat="50.861832015216351" lon="14.757258016616106">
        <ele>327.94999999999999</ele>
        <time>2024-09-18T13:40:40Z</time>
      </trkpt>
      <trkpt lat="50.861914996057749" lon="14.757299004122615">
        <ele>327.47000000000003</ele>
        <time>2024-09-18T13:40:41Z</time>
      </trkpt>
      <trkpt lat="50.862000994384289" lon="14.757252987474203">
        <ele>326.99000000000001</ele>
        <time>2024-09-18T13:40:42Z</time>
      </trkpt>
      <trkpt lat="50.862099984660745" lon="14.757199008017778">
        <ele>326.5</ele>
        <time>2024-09-18T13:40:43Z</time>
      </trkpt>
      <trkpt lat="50.862204004079103" lon="14.757142011076212">
        <ele>326.01999999999998</ele>
        <time>2024-09-18T13:40:44Z</time>
      </trkpt>
      <trkpt lat="50.862307017669082" lon="14.757086019963026">
        <ele>325.54000000000002</ele>
        <time>2024-09-18T13:40:45Z</time>
      </trkpt>
      <trkpt lat="50.862386981025338" lon="14.757042014971375">
        <ele>324.57999999999998</ele>
        <time>2024-09-18T13:40:46Z</time>
      </trkpt>
      <trkpt lat="50.862514972686768" lon="14.757032040506601">
        <ele>324.10000000000002</ele>
        <time>2024-09-18T13:40:47Z</time>
      </trkpt>
      <trkpt lat="50.862624021247029" lon="14.757023993879557">
        <ele>324.10000000000002</ele>
        <time>2024-09-18T13:40:48Z</time>
      </trkpt>
      <trkpt lat="50.862729968503118" lon="14.757058024406433">
        <ele>323.13999999999999</ele>
        <time>2024-09-18T13:40:49Z</time>
      </trkpt>
      <trkpt lat="50.862839017063379" lon="14.757120972499251">
        <ele>322.66000000000003</ele>
        <time>2024-09-18T13:40:50Z</time>
      </trkpt>
      <trkpt lat="50.862945970147848" lon="14.757182998582721">
        <ele>322.18000000000001</ele>
        <time>2024-09-18T13:40:51Z</time>
      </trkpt>
      <trkpt lat="50.863049989566207" lon="14.757243013009429">
        <ele>321.69999999999999</ele>
        <time>2024-09-18T13:40:52Z</time>
      </trkpt>
      <trkpt lat="50.863414015620947" lon="14.757452979683876">
        <ele>319.30000000000001</ele>
        <time>2024-09-18T13:40:56Z</time>
      </trkpt>
      <trkpt lat="50.863533038645983" lon="14.757551969960332">
        <ele>319.30000000000001</ele>
        <time>2024-09-18T13:40:58Z</time>
      </trkpt>
      <trkpt lat="50.86357100866735" lon="14.757594969123602">
        <ele>318.81</ele>
        <time>2024-09-18T13:40:59Z</time>
      </trkpt>
      <trkpt lat="50.863602021709085" lon="14.75763101130724">
        <ele>318.81</ele>
        <time>2024-09-18T13:41:00Z</time>
      </trkpt>
      <trkpt lat="50.863668993115425" lon="14.757621036842465">
        <ele>318.32999999999998</ele>
        <time>2024-09-18T13:41:01Z</time>
      </trkpt>
      <trkpt lat="50.863704029470682" lon="14.757580971345305">
        <ele>318.32999999999998</ele>
        <time>2024-09-18T13:41:02Z</time>
      </trkpt>
      <trkpt lat="50.863792039453983" lon="14.757483992725611">
        <ele>317.37</ele>
        <time>2024-09-18T13:41:04Z</time>
      </trkpt>
      <trkpt lat="50.863850964233279" lon="14.757434958592057">
        <ele>317.37</ele>
        <time>2024-09-18T13:41:05Z</time>
      </trkpt>
      <trkpt lat="50.86402203887701" lon="14.757292969152331">
        <ele>316.88999999999999</ele>
        <time>2024-09-18T13:41:08Z</time>
      </trkpt>
      <trkpt lat="50.864065960049629" lon="14.757222980260849">
        <ele>317.37</ele>
        <time>2024-09-18T13:41:09Z</time>
      </trkpt>
      <trkpt lat="50.86410703137517" lon="14.757139999419451">
        <ele>317.37</ele>
        <time>2024-09-18T13:41:10Z</time>
      </trkpt>
      <trkpt lat="50.864438032731414" lon="14.756459975615144">
        <ele>317.85000000000002</ele>
        <time>2024-09-18T13:41:18Z</time>
      </trkpt>
      <trkpt lat="50.864471979439259" lon="14.756371965631843">
        <ele>318.32999999999998</ele>
        <time>2024-09-18T13:41:19Z</time>
      </trkpt>
      <trkpt lat="50.864563006907701" lon="14.756125034764409">
        <ele>319.30000000000001</ele>
        <time>2024-09-18T13:41:22Z</time>
      </trkpt>
      <trkpt lat="50.864587984979153" lon="14.756056973710656">
        <ele>319.30000000000001</ele>
        <time>2024-09-18T13:41:23Z</time>
      </trkpt>
      <trkpt lat="50.864589996635914" lon="14.755976004526019">
        <ele>319.30000000000001</ele>
        <time>2024-09-18T13:41:24Z</time>
      </trkpt>
      <trkpt lat="50.864579016342759" lon="14.755883971229196">
        <ele>319.77999999999997</ele>
        <time>2024-09-18T13:41:25Z</time>
      </trkpt>
      <trkpt lat="50.864569041877985" lon="14.755796967074275">
        <ele>319.77999999999997</ele>
        <time>2024-09-18T13:41:26Z</time>
      </trkpt>
      <trkpt lat="50.864570969715714" lon="14.755608960986137">
        <ele>320.25999999999999</ele>
        <time>2024-09-18T13:41:28Z</time>
      </trkpt>
      <trkpt lat="50.864593014121056" lon="14.755530003458261">
        <ele>320.25999999999999</ele>
        <time>2024-09-18T13:41:29Z</time>
      </trkpt>
      <trkpt lat="50.864612963050604" lon="14.755454985424876">
        <ele>320.25999999999999</ele>
        <time>2024-09-18T13:41:30Z</time>
      </trkpt>
      <trkpt lat="50.864632995799184" lon="14.755386002361774">
        <ele>320.25999999999999</ele>
        <time>2024-09-18T13:41:31Z</time>
      </trkpt>
      <trkpt lat="50.864651016891003" lon="14.755319030955434">
        <ele>320.74000000000001</ele>
        <time>2024-09-18T13:41:32Z</time>
      </trkpt>
      <trkpt lat="50.864704996347427" lon="14.755286006256938">
        <ele>320.74000000000001</ele>
        <time>2024-09-18T13:41:33Z</time>
      </trkpt>
      <trkpt lat="50.864751012995839" lon="14.75528902374208">
        <ele>321.22000000000003</ele>
        <time>2024-09-18T13:41:34Z</time>
      </trkpt>
      <trkpt lat="50.864801974967122" lon="14.75529296323657">
        <ele>321.22000000000003</ele>
        <time>2024-09-18T13:41:36Z</time>
      </trkpt>
      <trkpt lat="50.864899959415197" lon="14.755300004035234">
        <ele>321.22000000000003</ele>
        <time>2024-09-18T13:41:37Z</time>
      </trkpt>
      <trkpt lat="50.86494798772037" lon="14.755304027348757">
        <ele>321.22000000000003</ele>
        <time>2024-09-18T13:41:38Z</time>
      </trkpt>
      <trkpt lat="50.865005990490317" lon="14.755307966843247">
        <ele>321.22000000000003</ele>
        <time>2024-09-18T13:41:39Z</time>
      </trkpt>
      <trkpt lat="50.865519968792796" lon="14.755347026512027">
        <ele>318.81</ele>
        <time>2024-09-18T13:41:49Z</time>
      </trkpt>
      <trkpt lat="50.865521980449557" lon="14.755315007641912">
        <ele>318.81</ele>
        <time>2024-09-18T13:41:50Z</time>
      </trkpt>
      <trkpt lat="50.86552600376308" lon="14.755250969901681">
        <ele>318.32999999999998</ele>
        <time>2024-09-18T13:41:51Z</time>
      </trkpt>
      <trkpt lat="50.865532960742712" lon="14.755151979625225">
        <ele>317.85000000000002</ele>
        <time>2024-09-18T13:41:52Z</time>
      </trkpt>
      <trkpt lat="50.86565600708127" lon="14.753866028040648">
        <ele>317.37</ele>
        <time>2024-09-18T13:42:01Z</time>
      </trkpt>
      <trkpt lat="50.865820962935686" lon="14.752773027867079">
        <ele>318.81</ele>
        <time>2024-09-18T13:42:08Z</time>
      </trkpt>
      <trkpt lat="50.866029001772404" lon="14.752289978787303">
        <ele>320.25999999999999</ele>
        <time>2024-09-18T13:42:11Z</time>
      </trkpt>
      <trkpt lat="50.866220025345683" lon="14.751974986866117">
        <ele>321.22000000000003</ele>
        <time>2024-09-18T13:42:13Z</time>
      </trkpt>
      <trkpt lat="50.86724697612226" lon="14.750648969784379">
        <ele>324.57999999999998</ele>
        <time>2024-09-18T13:42:21Z</time>
      </trkpt>
      <trkpt lat="50.868207961320877" lon="14.74942303262651">
        <ele>325.54000000000002</ele>
        <time>2024-09-18T13:42:28Z</time>
      </trkpt>
      <trkpt lat="50.868550026789308" lon="14.748940989375114">
        <ele>325.54000000000002</ele>
        <time>2024-09-18T13:42:31Z</time>
      </trkpt>
      <trkpt lat="50.868820007890463" lon="14.748461963608861">
        <ele>326.01999999999998</ele>
        <time>2024-09-18T13:42:34Z</time>
      </trkpt>
      <trkpt lat="50.868901982903481" lon="14.748366996645927">
        <ele>326.01999999999998</ele>
        <time>2024-09-18T13:42:35Z</time>
      </trkpt>
      <trkpt lat="50.868971971794963" lon="14.748305976390839">
        <ele>326.01999999999998</ele>
        <time>2024-09-18T13:42:36Z</time>
      </trkpt>
      <trkpt lat="50.869028968736529" lon="14.748263983055949">
        <ele>326.01999999999998</ele>
        <time>2024-09-18T13:42:37Z</time>
      </trkpt>
      <trkpt lat="50.869085965678096" lon="14.748253002762794">
        <ele>326.01999999999998</ele>
        <time>2024-09-18T13:42:38Z</time>
      </trkpt>
      <trkpt lat="50.869124019518495" lon="14.748246967792511">
        <ele>326.01999999999998</ele>
        <time>2024-09-18T13:42:39Z</time>
      </trkpt>
      <trkpt lat="50.869147991761565" lon="14.74824202246964">
        <ele>326.01999999999998</ele>
        <time>2024-09-18T13:42:40Z</time>
      </trkpt>
      <trkpt lat="50.869191996753216" lon="14.748233975842595">
        <ele>326.5</ele>
        <time>2024-09-18T13:42:43Z</time>
      </trkpt>
      <trkpt lat="50.869253017008305" lon="14.748214026913047">
        <ele>326.5</ele>
        <time>2024-09-18T13:42:44Z</time>
      </trkpt>
      <trkpt lat="50.869253017008305" lon="14.74813599139452">
        <ele>326.5</ele>
        <time>2024-09-18T13:42:45Z</time>
      </trkpt>
      <trkpt lat="50.869253017008305" lon="14.748017974197865">
        <ele>326.99000000000001</ele>
        <time>2024-09-18T13:42:46Z</time>
      </trkpt>
      <trkpt lat="50.869253017008305" lon="14.747876990586519">
        <ele>326.99000000000001</ele>
        <time>2024-09-18T13:42:47Z</time>
      </trkpt>
      <trkpt lat="50.869253017008305" lon="14.747730977833271">
        <ele>326.99000000000001</ele>
        <time>2024-09-18T13:42:48Z</time>
      </trkpt>
      <trkpt lat="50.869231978431344" lon="14.747579013928771">
        <ele>326.99000000000001</ele>
        <time>2024-09-18T13:42:49Z</time>
      </trkpt>
      <trkpt lat="50.869210017845035" lon="14.747365023940802">
        <ele>327.47000000000003</ele>
        <time>2024-09-18T13:42:51Z</time>
      </trkpt>
      <trkpt lat="50.869193002581596" lon="14.747263016179204">
        <ele>327.47000000000003</ele>
        <time>2024-09-18T13:42:52Z</time>
      </trkpt>
      <trkpt lat="50.869256034493446" lon="14.747129995375872">
        <ele>327.94999999999999</ele>
        <time>2024-09-18T13:42:53Z</time>
      </trkpt>
      <trkpt lat="50.869339015334845" lon="14.746999992057681">
        <ele>327.94999999999999</ele>
        <time>2024-09-18T13:42:54Z</time>
      </trkpt>
      <trkpt lat="50.869375979527831" lon="14.746898990124464">
        <ele>328.43000000000001</ele>
        <time>2024-09-18T13:42:55Z</time>
      </trkpt>
      <trkpt lat="50.869980985298753" lon="14.74527801387012">
        <ele>330.82999999999998</ele>
        <time>2024-09-18T13:43:04Z</time>
      </trkpt>
      <trkpt lat="50.870728986337781" lon="14.743226962164044">
        <ele>333.23000000000002</ele>
        <time>2024-09-18T13:43:12Z</time>
      </trkpt>
      <trkpt lat="50.871827015653253" lon="14.74119896069169">
        <ele>329.38999999999999</ele>
        <time>2024-09-18T13:43:20Z</time>
      </trkpt>
      <trkpt lat="50.873649995774031" lon="14.738255990669131">
        <ele>314.97000000000003</ele>
        <time>2024-09-18T13:43:32Z</time>
      </trkpt>
      <trkpt lat="50.875702975317836" lon="14.734760988503695">
        <ele>319.77999999999997</ele>
        <time>2024-09-18T13:43:44Z</time>
      </trkpt>
      <trkpt lat="50.87663697078824" lon="14.732162011787295">
        <ele>319.30000000000001</ele>
        <time>2024-09-18T13:43:52Z</time>
      </trkpt>
      <trkpt lat="50.877656964585185" lon="14.729028018191457">
        <ele>317.85000000000002</ele>
        <time>2024-09-18T13:44:02Z</time>
      </trkpt>
      <trkpt lat="50.878363978117704" lon="14.726210022345185">
        <ele>314.49000000000001</ele>
        <time>2024-09-18T13:44:11Z</time>
      </trkpt>
      <trkpt lat="50.878887008875608" lon="14.724444961175323">
        <ele>311.12</ele>
        <time>2024-09-18T13:44:19Z</time>
      </trkpt>
      <trkpt lat="50.87931901216507" lon="14.723023977130651">
        <ele>311.12</ele>
        <time>2024-09-18T13:44:28Z</time>
      </trkpt>
      <trkpt lat="50.879404004663229" lon="14.722891040146351">
        <ele>311.12</ele>
        <time>2024-09-18T13:44:29Z</time>
      </trkpt>
      <trkpt lat="50.879500983282924" lon="14.722777968272567">
        <ele>311.60000000000002</ele>
        <time>2024-09-18T13:44:30Z</time>
      </trkpt>
      <trkpt lat="50.879607014358044" lon="14.722659029066563">
        <ele>311.60000000000002</ele>
        <time>2024-09-18T13:44:31Z</time>
      </trkpt>
      <trkpt lat="50.879715979099274" lon="14.722583005204797">
        <ele>311.60000000000002</ele>
        <time>2024-09-18T13:44:32Z</time>
      </trkpt>
      <trkpt lat="50.87981203570962" lon="14.722515027970076">
        <ele>311.12</ele>
        <time>2024-09-18T13:44:33Z</time>
      </trkpt>
      <trkpt lat="50.880131972953677" lon="14.722342025488615">
        <ele>309.68000000000001</ele>
        <time>2024-09-18T13:44:39Z</time>
      </trkpt>
      <trkpt lat="50.880217971280217" lon="14.722301959991455">
        <ele>309.19999999999999</ele>
        <time>2024-09-18T13:44:42Z</time>
      </trkpt>
      <trkpt lat="50.880218977108598" lon="14.722298020496964">
        <ele>309.19999999999999</ele>
        <time>2024-09-18T13:44:43Z</time>
      </trkpt>
      <trkpt lat="50.8802430331707" lon="14.722226019948721">
        <ele>309.19999999999999</ele>
        <time>2024-09-18T13:44:44Z</time>
      </trkpt>
      <trkpt lat="50.880303969606757" lon="14.722134992480278">
        <ele>308.72000000000003</ele>
        <time>2024-09-18T13:44:45Z</time>
      </trkpt>
      <trkpt lat="50.880379993468523" lon="14.722067015245557">
        <ele>309.19999999999999</ele>
        <time>2024-09-18T13:44:46Z</time>
      </trkpt>
      <trkpt lat="50.880462974309921" lon="14.721993003040552">
        <ele>309.68000000000001</ele>
        <time>2024-09-18T13:44:47Z</time>
      </trkpt>
      <trkpt lat="50.880643017590046" lon="14.721830980852246">
        <ele>311.12</ele>
        <time>2024-09-18T13:44:49Z</time>
      </trkpt>
      <trkpt lat="50.880723986774683" lon="14.721726039424539">
        <ele>311.60000000000002</ele>
        <time>2024-09-18T13:44:50Z</time>
      </trkpt>
      <trkpt lat="50.880804033949971" lon="14.721605004742742">
        <ele>312.56999999999999</ele>
        <time>2024-09-18T13:44:51Z</time>
      </trkpt>
      <trkpt lat="50.880883997306228" lon="14.721469972282648">
        <ele>313.52999999999997</ele>
        <time>2024-09-18T13:44:52Z</time>
      </trkpt>
      <trkpt lat="50.880968989804387" lon="14.721325971186161">
        <ele>314.49000000000001</ele>
        <time>2024-09-18T13:44:53Z</time>
      </trkpt>
      <trkpt lat="50.881799971684813" lon="14.719737013801932">
        <ele>323.62</ele>
        <time>2024-09-18T13:45:01Z</time>
      </trkpt>
      <trkpt lat="50.882916022092104" lon="14.717429978772998">
        <ele>338.04000000000002</ele>
        <time>2024-09-18T13:45:10Z</time>
      </trkpt>
      <trkpt lat="50.882993973791599" lon="14.717188999056816">
        <ele>339.48000000000002</ele>
        <time>2024-09-18T13:45:11Z</time>
      </trkpt>
      <trkpt lat="50.883035967126489" lon="14.716906026005745">
        <ele>340.92000000000002</ele>
        <time>2024-09-18T13:45:12Z</time>
      </trkpt>
      <trkpt lat="50.883048037067056" lon="14.716603020206094">
        <ele>342.85000000000002</ele>
        <time>2024-09-18T13:45:13Z</time>
      </trkpt>
      <trkpt lat="50.883060023188591" lon="14.716287022456527">
        <ele>344.29000000000002</ele>
        <time>2024-09-18T13:45:14Z</time>
      </trkpt>
      <trkpt lat="50.883219027891755" lon="14.713520994409919">
        <ele>354.86000000000001</ele>
        <time>2024-09-18T13:45:22Z</time>
      </trkpt>
      <trkpt lat="50.883278036490083" lon="14.713204996660352">
        <ele>356.31</ele>
        <time>2024-09-18T13:45:23Z</time>
      </trkpt>
      <trkpt lat="50.88340301066637" lon="14.712927974760532">
        <ele>357.75</ele>
        <time>2024-09-18T13:45:24Z</time>
      </trkpt>
      <trkpt lat="50.884066019207239" lon="14.711534986272454">
        <ele>366.39999999999998</ele>
        <time>2024-09-18T13:45:29Z</time>
      </trkpt>
      <trkpt lat="50.884146988391876" lon="14.711260981857777">
        <ele>367.83999999999997</ele>
        <time>2024-09-18T13:45:30Z</time>
      </trkpt>
      <trkpt lat="50.884199040010571" lon="14.710951019078493">
        <ele>369.27999999999997</ele>
        <time>2024-09-18T13:45:31Z</time>
      </trkpt>
      <trkpt lat="50.88421898894012" lon="14.710611971095204">
        <ele>370.73000000000002</ele>
        <time>2024-09-18T13:45:32Z</time>
      </trkpt>
      <trkpt lat="50.884241033345461" lon="14.710263032466173">
        <ele>372.64999999999998</ele>
        <time>2024-09-18T13:45:33Z</time>
      </trkpt>
      <trkpt lat="50.884585026651621" lon="14.706854028627276">
        <ele>390.91000000000003</ele>
        <time>2024-09-18T13:45:42Z</time>
      </trkpt>
      <trkpt lat="50.884809996932745" lon="14.703464973717928">
        <ele>395.24000000000001</ele>
        <time>2024-09-18T13:45:50Z</time>
      </trkpt>
      <trkpt lat="50.884702960029244" lon="14.700786033645272">
        <ele>389.94999999999999</ele>
        <time>2024-09-18T13:45:57Z</time>
      </trkpt>
      <trkpt lat="50.884702960029244" lon="14.70046098344028">
        <ele>388.50999999999999</ele>
        <time>2024-09-18T13:45:58Z</time>
      </trkpt>
      <trkpt lat="50.884715029969811" lon="14.700145991519094">
        <ele>387.55000000000001</ele>
        <time>2024-09-18T13:45:59Z</time>
      </trkpt>
      <trkpt lat="50.884806979447603" lon="14.699897971004248">
        <ele>386.58999999999997</ele>
        <time>2024-09-18T13:46:00Z</time>
      </trkpt>
      <trkpt lat="50.88490404188633" lon="14.699636958539486">
        <ele>385.63</ele>
        <time>2024-09-18T13:46:01Z</time>
      </trkpt>
      <trkpt lat="50.885025998577476" lon="14.699371000751853">
        <ele>384.18000000000001</ele>
        <time>2024-09-18T13:46:02Z</time>
      </trkpt>
      <trkpt lat="50.886107012629509" lon="14.697206960991025">
        <ele>370.73000000000002</ele>
        <time>2024-09-18T13:46:09Z</time>
      </trkpt>
      <trkpt lat="50.887705022469163" lon="14.693958973512053">
        <ele>344.29000000000002</ele>
        <time>2024-09-18T13:46:19Z</time>
      </trkpt>
      <trkpt lat="50.889669992029667" lon="14.689967008307576">
        <ele>319.77999999999997</ele>
        <time>2024-09-18T13:46:32Z</time>
      </trkpt>
      <trkpt lat="50.89034398086369" lon="14.689054973423481">
        <ele>316.41000000000003</ele>
        <time>2024-09-18T13:46:37Z</time>
      </trkpt>
      <trkpt lat="50.891493977978826" lon="14.687410024926066">
        <ele>316.41000000000003</ele>
        <time>2024-09-18T13:46:48Z</time>
      </trkpt>
      <trkpt lat="50.89238497428596" lon="14.686230020597577">
        <ele>305.36000000000001</ele>
        <time>2024-09-18T13:46:56Z</time>
      </trkpt>
      <trkpt lat="50.89264003559947" lon="14.685805980116129">
        <ele>299.11000000000001</ele>
        <time>2024-09-18T13:47:02Z</time>
      </trkpt>
      <trkpt lat="50.892667025327682" lon="14.685762980952859">
        <ele>296.22000000000003</ele>
        <time>2024-09-18T13:47:05Z</time>
      </trkpt>
      <trkpt lat="50.892718993127346" lon="14.685680000111461">
        <ele>293.33999999999997</ele>
        <time>2024-09-18T13:47:08Z</time>
      </trkpt>
      <trkpt lat="50.892738020047545" lon="14.685586038976908">
        <ele>292.86000000000001</ele>
        <time>2024-09-18T13:47:09Z</time>
      </trkpt>
      <trkpt lat="50.892709018662572" lon="14.685475984588265">
        <ele>292.38</ele>
        <time>2024-09-18T13:47:10Z</time>
      </trkpt>
      <trkpt lat="50.892379023134708" lon="14.684192966669798">
        <ele>288.52999999999997</ele>
        <time>2024-09-18T13:47:18Z</time>
      </trkpt>
      <trkpt lat="50.892107030376792" lon="14.683084962889552">
        <ele>289.97000000000003</ele>
        <time>2024-09-18T13:47:25Z</time>
      </trkpt>
      <trkpt lat="50.89208297431469" lon="14.682931993156672">
        <ele>290.94</ele>
        <time>2024-09-18T13:47:26Z</time>
      </trkpt>
      <trkpt lat="50.89208004064858" lon="14.682770976796746">
        <ele>291.42000000000002</ele>
        <time>2024-09-18T13:47:27Z</time>
      </trkpt>
      <trkpt lat="50.892076017335057" lon="14.682609038427472">
        <ele>292.38</ele>
        <time>2024-09-18T13:47:28Z</time>
      </trkpt>
      <trkpt lat="50.892072999849916" lon="14.682448022067547">
        <ele>292.86000000000001</ele>
        <time>2024-09-18T13:47:29Z</time>
      </trkpt>
      <trkpt lat="50.892249019816518" lon="14.680783040821552">
        <ele>298.14999999999998</ele>
        <time>2024-09-18T13:47:39Z</time>
      </trkpt>
      <trkpt lat="50.892746988683939" lon="14.679191987961531">
        <ele>302.47000000000003</ele>
        <time>2024-09-18T13:47:50Z</time>
      </trkpt>
      <trkpt lat="50.893258033320308" lon="14.677518038079143">
        <ele>308.24000000000001</ele>
        <time>2024-09-18T13:48:01Z</time>
      </trkpt>
      <trkpt lat="50.893766982480884" lon="14.675377970561385">
        <ele>309.68000000000001</ele>
        <time>2024-09-18T13:48:14Z</time>
      </trkpt>
      <trkpt lat="50.893811993300915" lon="14.67519499361515">
        <ele>309.19999999999999</ele>
        <time>2024-09-18T13:48:15Z</time>
      </trkpt>
      <trkpt lat="50.893854992464185" lon="14.675018973648548">
        <ele>307.75999999999999</ele>
        <time>2024-09-18T13:48:16Z</time>
      </trkpt>
      <trkpt lat="50.89427400380373" lon="14.673459017649293">
        <ele>299.58999999999997</ele>
        <time>2024-09-18T13:48:26Z</time>
      </trkpt>
      <trkpt lat="50.89455203153193" lon="14.672562992200255">
        <ele>293.81999999999999</ele>
        <time>2024-09-18T13:48:37Z</time>
      </trkpt>
      <trkpt lat="50.894895019009709" lon="14.671405032277107">
        <ele>291.42000000000002</ele>
        <time>2024-09-18T13:48:49Z</time>
      </trkpt>
      <trkpt lat="50.895092999562621" lon="14.670175993815064">
        <ele>296.22000000000003</ele>
        <time>2024-09-18T13:49:00Z</time>
      </trkpt>
      <trkpt lat="50.895293997600675" lon="14.668939998373389">
        <ele>301.50999999999999</ele>
        <time>2024-09-18T13:49:08Z</time>
      </trkpt>
      <trkpt lat="50.895526008680463" lon="14.667448019608855">
        <ele>306.80000000000001</ele>
        <time>2024-09-18T13:49:18Z</time>
      </trkpt>
      <trkpt lat="50.89560798369348" lon="14.666937980800867">
        <ele>307.27999999999997</ele>
        <time>2024-09-18T13:49:22Z</time>
      </trkpt>
      <trkpt lat="50.895684007555246" lon="14.666510000824928">
        <ele>307.75999999999999</ele>
        <time>2024-09-18T13:49:27Z</time>
      </trkpt>
      <trkpt lat="50.895719965919852" lon="14.66632098890841">
        <ele>307.75999999999999</ele>
        <time>2024-09-18T13:49:28Z</time>
      </trkpt>
      <trkpt lat="50.895755002275109" lon="14.666139017790556">
        <ele>307.75999999999999</ele>
        <time>2024-09-18T13:49:30Z</time>
      </trkpt>
      <trkpt lat="50.895771011710167" lon="14.666050001978874">
        <ele>307.75999999999999</ele>
        <time>2024-09-18T13:49:31Z</time>
      </trkpt>
      <trkpt lat="50.89586203917861" lon="14.665452959015965">
        <ele>307.27999999999997</ele>
        <time>2024-09-18T13:49:40Z</time>
      </trkpt>
      <trkpt lat="50.895905960351229" lon="14.665135033428669">
        <ele>307.27999999999997</ele>
        <time>2024-09-18T13:49:43Z</time>
      </trkpt>
      <trkpt lat="50.895922975614667" lon="14.665018022060394">
        <ele>307.27999999999997</ele>
        <time>2024-09-18T13:49:44Z</time>
      </trkpt>
      <trkpt lat="50.895939990878105" lon="14.664891036227345">
        <ele>306.80000000000001</ele>
        <time>2024-09-18T13:49:45Z</time>
      </trkpt>
      <trkpt lat="50.895959017798305" lon="14.664757009595633">
        <ele>306.80000000000001</ele>
        <time>2024-09-18T13:49:46Z</time>
      </trkpt>
      <trkpt lat="50.895980978384614" lon="14.664604039862752">
        <ele>307.27999999999997</ele>
        <time>2024-09-18T13:49:47Z</time>
      </trkpt>
      <trkpt lat="50.896004028618336" lon="14.664439000189304">
        <ele>308.24000000000001</ele>
        <time>2024-09-18T13:49:48Z</time>
      </trkpt>
      <trkpt lat="50.896033030003309" lon="14.664288964122534">
        <ele>309.19999999999999</ele>
        <time>2024-09-18T13:49:49Z</time>
      </trkpt>
      <trkpt lat="50.896199997514486" lon="14.663284979760647">
        <ele>312.08999999999997</ele>
        <time>2024-09-18T13:49:56Z</time>
      </trkpt>
      <trkpt lat="50.896223969757557" lon="14.663135027512908">
        <ele>312.08999999999997</ele>
        <time>2024-09-18T13:49:57Z</time>
      </trkpt>
      <trkpt lat="50.896451035514474" lon="14.66183197684586">
        <ele>311.12</ele>
        <time>2024-09-18T13:50:05Z</time>
      </trkpt>
      <trkpt lat="50.896512977778912" lon="14.661495024338365">
        <ele>312.56999999999999</ele>
        <time>2024-09-18T13:50:11Z</time>
      </trkpt>
      <trkpt lat="50.896524963900447" lon="14.661430986598134">
        <ele>313.05000000000001</ele>
        <time>2024-09-18T13:50:12Z</time>
      </trkpt>
      <trkpt lat="50.896611968055367" lon="14.661288997158408">
        <ele>313.52999999999997</ele>
        <time>2024-09-18T13:50:14Z</time>
      </trkpt>
      <trkpt lat="50.896611968055367" lon="14.661234011873603">
        <ele>313.52999999999997</ele>
        <time>2024-09-18T13:50:15Z</time>
      </trkpt>
      <trkpt lat="50.896611968055367" lon="14.660933017730713">
        <ele>314.49000000000001</ele>
        <time>2024-09-18T13:50:17Z</time>
      </trkpt>
      <trkpt lat="50.896624037995934" lon="14.660826986655593">
        <ele>314.97000000000003</ele>
        <time>2024-09-18T13:50:18Z</time>
      </trkpt>
      <trkpt lat="50.896805003285408" lon="14.659612029790878">
        <ele>318.32999999999998</ele>
        <time>2024-09-18T13:50:26Z</time>
      </trkpt>
      <trkpt lat="50.897115971893072" lon="14.657692993059754">
        <ele>319.30000000000001</ele>
        <time>2024-09-18T13:50:38Z</time>
      </trkpt>
      <trkpt lat="50.897161988541484" lon="14.657523008063436">
        <ele>318.81</ele>
        <time>2024-09-18T13:50:39Z</time>
      </trkpt>
      <trkpt lat="50.897272964939475" lon="14.65718999505043">
        <ele>318.32999999999998</ele>
        <time>2024-09-18T13:50:41Z</time>
      </trkpt>
      <trkpt lat="50.897855004295707" lon="14.655782002955675">
        <ele>318.81</ele>
        <time>2024-09-18T13:50:50Z</time>
      </trkpt>
      <trkpt lat="50.89790303260088" lon="14.655657028779387">
        <ele>318.81</ele>
        <time>2024-09-18T13:50:51Z</time>
      </trkpt>
      <trkpt lat="50.89797000400722" lon="14.655561977997422">
        <ele>318.81</ele>
        <time>2024-09-18T13:50:52Z</time>
      </trkpt>
      <trkpt lat="50.898024989292026" lon="14.655507998540998">
        <ele>319.30000000000001</ele>
        <time>2024-09-18T13:50:53Z</time>
      </trkpt>
      <trkpt lat="50.898101013153791" lon="14.655614029616117">
        <ele>319.30000000000001</ele>
        <time>2024-09-18T13:50:54Z</time>
      </trkpt>
      <trkpt lat="50.898186005651951" lon="14.655616041272879">
        <ele>319.30000000000001</ele>
        <time>2024-09-18T13:50:55Z</time>
      </trkpt>
      <trkpt lat="50.898253982886672" lon="14.655574969947338">
        <ele>319.77999999999997</ele>
        <time>2024-09-18T13:50:56Z</time>
      </trkpt>
      <trkpt lat="50.898324977606535" lon="14.655440021306276">
        <ele>319.77999999999997</ele>
        <time>2024-09-18T13:50:57Z</time>
      </trkpt>
      <trkpt lat="50.898407036438584" lon="14.655440021306276">
        <ele>319.30000000000001</ele>
        <time>2024-09-18T13:50:58Z</time>
      </trkpt>
      <trkpt lat="50.898494962602854" lon="14.655440021306276">
        <ele>319.30000000000001</ele>
        <time>2024-09-18T13:50:59Z</time>
      </trkpt>
      <trkpt lat="50.898581966757774" lon="14.655477991327643">
        <ele>318.81</ele>
        <time>2024-09-18T13:51:00Z</time>
      </trkpt>
      <trkpt lat="50.898671988397837" lon="14.655519984662533">
        <ele>318.32999999999998</ele>
        <time>2024-09-18T13:51:01Z</time>
      </trkpt>
      <trkpt lat="50.898759998381138" lon="14.655560972169042">
        <ele>318.32999999999998</ele>
        <time>2024-09-18T13:51:02Z</time>
      </trkpt>
      <trkpt lat="50.898852031677961" lon="14.655603971332312">
        <ele>317.85000000000002</ele>
        <time>2024-09-18T13:51:03Z</time>
      </trkpt>
      <trkpt lat="50.899128969758749" lon="14.655732968822122">
        <ele>316.41000000000003</ele>
        <time>2024-09-18T13:51:06Z</time>
      </trkpt>
      <trkpt lat="50.899203987792134" lon="14.655842017382383">
        <ele>315.93000000000001</ele>
        <time>2024-09-18T13:51:07Z</time>
      </trkpt>
      <trkpt lat="50.899267019703984" lon="14.655949976295233">
        <ele>315.93000000000001</ele>
        <time>2024-09-18T13:51:08Z</time>
      </trkpt>
      <trkpt lat="50.899326028302312" lon="14.656049972400069">
        <ele>315.44999999999999</ele>
        <time>2024-09-18T13:51:09Z</time>
      </trkpt>
      <trkpt lat="50.899371039122343" lon="14.656152985990047">
        <ele>314.49000000000001</ele>
        <time>2024-09-18T13:51:10Z</time>
      </trkpt>
      <trkpt lat="50.899396017193794" lon="14.656245019286871">
        <ele>314.00999999999999</ele>
        <time>2024-09-18T13:51:11Z</time>
      </trkpt>
      <trkpt lat="50.899422001093626" lon="14.656336968764663">
        <ele>314.00999999999999</ele>
        <time>2024-09-18T13:51:12Z</time>
      </trkpt>
      <trkpt lat="50.899432981386781" lon="14.656444005668163">
        <ele>313.52999999999997</ele>
        <time>2024-09-18T13:51:13Z</time>
      </trkpt>
      <trkpt lat="50.899426024407148" lon="14.656737959012389">
        <ele>313.05000000000001</ele>
        <time>2024-09-18T13:51:16Z</time>
      </trkpt>
      <trkpt lat="50.899416971951723" lon="14.656830998137593">
        <ele>313.05000000000001</ele>
        <time>2024-09-18T13:51:17Z</time>
      </trkpt>
      <trkpt lat="50.89938897639513" lon="14.657029984518886">
        <ele>312.08999999999997</ele>
        <time>2024-09-18T13:51:20Z</time>
      </trkpt>
      <trkpt lat="50.899186972528696" lon="14.657961968332529">
        <ele>309.68000000000001</ele>
        <time>2024-09-18T13:51:31Z</time>
      </trkpt>
      <trkpt lat="50.899186972528696" lon="14.658079985529184">
        <ele>309.19999999999999</ele>
        <time>2024-09-18T13:51:32Z</time>
      </trkpt>
      <trkpt lat="50.899186972528696" lon="14.658144023269415">
        <ele>309.19999999999999</ele>
        <time>2024-09-18T13:51:33Z</time>
      </trkpt>
      <trkpt lat="50.899240029975772" lon="14.658222980797291">
        <ele>308.72000000000003</ele>
        <time>2024-09-18T13:51:34Z</time>
      </trkpt>
      <trkpt lat="50.899298032745719" lon="14.658310990780592">
        <ele>308.72000000000003</ele>
        <time>2024-09-18T13:51:35Z</time>
      </trkpt>
      <trkpt lat="50.899357963353395" lon="14.658401012420654">
        <ele>309.19999999999999</ele>
        <time>2024-09-18T13:51:36Z</time>
      </trkpt>
      <trkpt lat="50.899414038285613" lon="14.658424984663725">
        <ele>309.19999999999999</ele>
        <time>2024-09-18T13:51:37Z</time>
      </trkpt>
      <trkpt lat="50.89949500747025" lon="14.658460021018982">
        <ele>309.68000000000001</ele>
        <time>2024-09-18T13:51:38Z</time>
      </trkpt>
      <trkpt lat="50.900492034852505" lon="14.658924965187907">
        <ele>312.08999999999997</ele>
        <time>2024-09-18T13:51:47Z</time>
      </trkpt>
      <trkpt lat="50.901755020022392" lon="14.659556038677692">
        <ele>314.00999999999999</ele>
        <time>2024-09-18T13:51:57Z</time>
      </trkpt>
      <trkpt lat="50.903024040162563" lon="14.660168001428246">
        <ele>321.22000000000003</ele>
        <time>2024-09-18T13:52:05Z</time>
      </trkpt>
      <trkpt lat="50.904725985601544" lon="14.660983979701996">
        <ele>332.26999999999998</ele>
        <time>2024-09-18T13:52:13Z</time>
      </trkpt>
      <trkpt lat="50.907371984794736" lon="14.66221796348691">
        <ele>352.45999999999998</ele>
        <time>2024-09-18T13:52:24Z</time>
      </trkpt>
      <trkpt lat="50.907578011974692" lon="14.662249982357025">
        <ele>354.38</ele>
        <time>2024-09-18T13:52:25Z</time>
      </trkpt>
      <trkpt lat="50.907784039154649" lon="14.662223998457193">
        <ele>355.33999999999997</ele>
        <time>2024-09-18T13:52:26Z</time>
      </trkpt>
      <trkpt lat="50.907993000000715" lon="14.6621960029006">
        <ele>356.79000000000002</ele>
        <time>2024-09-18T13:52:27Z</time>
      </trkpt>
      <trkpt lat="50.909616993740201" lon="14.661621004343033">
        <ele>358.23000000000002</ele>
        <time>2024-09-18T13:52:34Z</time>
      </trkpt>
      <trkpt lat="50.91221303679049" lon="14.661070983856916">
        <ele>352.94</ele>
        <time>2024-09-18T13:52:44Z</time>
      </trkpt>
      <trkpt lat="50.914556030184031" lon="14.660806031897664">
        <ele>362.55000000000001</ele>
        <time>2024-09-18T13:52:53Z</time>
      </trkpt>
      <trkpt lat="50.916651003062725" lon="14.660835033282638">
        <ele>376.00999999999999</ele>
        <time>2024-09-18T13:53:01Z</time>
      </trkpt>
      <trkpt lat="50.918456967920065" lon="14.66069296002388">
        <ele>388.99000000000001</ele>
        <time>2024-09-18T13:53:08Z</time>
      </trkpt>
      <trkpt lat="50.919557008892298" lon="14.660909967496991">
        <ele>397.16000000000003</ele>
        <time>2024-09-18T13:53:13Z</time>
      </trkpt>
      <trkpt lat="50.921486020088196" lon="14.661537017673254">
        <ele>409.18000000000001</ele>
        <time>2024-09-18T13:53:21Z</time>
      </trkpt>
      <trkpt lat="50.921960016712546" lon="14.661810016259551">
        <ele>411.57999999999998</ele>
        <time>2024-09-18T13:53:23Z</time>
      </trkpt>
      <trkpt lat="50.922194039449096" lon="14.661985030397773">
        <ele>413.01999999999998</ele>
        <time>2024-09-18T13:53:24Z</time>
      </trkpt>
      <trkpt lat="50.924032023176551" lon="14.66361497528851">
        <ele>422.16000000000003</ele>
        <time>2024-09-18T13:53:32Z</time>
      </trkpt>
      <trkpt lat="50.924811959266663" lon="14.664626000449061">
        <ele>427.44</ele>
        <time>2024-09-18T13:53:36Z</time>
      </trkpt>
      <trkpt lat="50.924961995333433" lon="14.664920037612319">
        <ele>428.88999999999999</ele>
        <time>2024-09-18T13:53:37Z</time>
      </trkpt>
      <trkpt lat="50.925277993083" lon="14.665455976501107">
        <ele>431.29000000000002</ele>
        <time>2024-09-18T13:53:39Z</time>
      </trkpt>
      <trkpt lat="50.9254489839077" lon="14.665681030601263">
        <ele>431.76999999999998</ele>
        <time>2024-09-18T13:53:40Z</time>
      </trkpt>
      <trkpt lat="50.925646964460611" lon="14.665851015597582">
        <ele>432.73000000000002</ele>
        <time>2024-09-18T13:53:41Z</time>
      </trkpt>
      <trkpt lat="50.925853997468948" lon="14.666000967845321">
        <ele>433.20999999999998</ele>
        <time>2024-09-18T13:53:42Z</time>
      </trkpt>
      <trkpt lat="50.926064969971776" lon="14.666155027225614">
        <ele>434.17000000000002</ele>
        <time>2024-09-18T13:53:43Z</time>
      </trkpt>
      <trkpt lat="50.927521996200085" lon="14.667083993554115">
        <ele>438.5</ele>
        <time>2024-09-18T13:53:50Z</time>
      </trkpt>
      <trkpt lat="50.92880099080503" lon="14.667843980714679">
        <ele>440.89999999999998</ele>
        <time>2024-09-18T13:53:58Z</time>
      </trkpt>
      <trkpt lat="50.929329972714186" lon="14.668036010116339">
        <ele>439.94</ele>
        <time>2024-09-18T13:54:02Z</time>
      </trkpt>
      <trkpt lat="50.929476991295815" lon="14.668036010116339">
        <ele>439.45999999999998</ele>
        <time>2024-09-18T13:54:03Z</time>
      </trkpt>
      <trkpt lat="50.929628033190966" lon="14.668036010116339">
        <ele>438.5</ele>
        <time>2024-09-18T13:54:04Z</time>
      </trkpt>
      <trkpt lat="50.929763987660408" lon="14.668036010116339">
        <ele>438.01999999999998</ele>
        <time>2024-09-18T13:54:05Z</time>
      </trkpt>
      <trkpt lat="50.929923998191953" lon="14.667975995689631">
        <ele>437.06</ele>
        <time>2024-09-18T13:54:06Z</time>
      </trkpt>
      <trkpt lat="50.9300890378654" lon="14.667913969606161">
        <ele>435.61000000000001</ele>
        <time>2024-09-18T13:54:07Z</time>
      </trkpt>
      <trkpt lat="50.93172200024128" lon="14.666934041306376">
        <ele>420.70999999999998</ele>
        <time>2024-09-18T13:54:18Z</time>
      </trkpt>
      <trkpt lat="50.932846013456583" lon="14.666824992746115">
        <ele>412.06</ele>
        <time>2024-09-18T13:54:26Z</time>
      </trkpt>
      <trkpt lat="50.932988002896309" lon="14.666910991072655">
        <ele>411.10000000000002</ele>
        <time>2024-09-18T13:54:27Z</time>
      </trkpt>
      <trkpt lat="50.933113982900977" lon="14.667017022147775">
        <ele>410.13999999999999</ele>
        <time>2024-09-18T13:54:28Z</time>
      </trkpt>
      <trkpt lat="50.933239962905645" lon="14.667122969403863">
        <ele>408.69999999999999</ele>
        <time>2024-09-18T13:54:29Z</time>
      </trkpt>
      <trkpt lat="50.93335697427392" lon="14.667256996035576">
        <ele>407.74000000000001</ele>
        <time>2024-09-18T13:54:30Z</time>
      </trkpt>
      <trkpt lat="50.933455964550376" lon="14.667404014617205">
        <ele>406.29000000000002</ele>
        <time>2024-09-18T13:54:31Z</time>
      </trkpt>
      <trkpt lat="50.933950999751687" lon="14.668041039258242">
        <ele>398.12</ele>
        <time>2024-09-18T13:54:36Z</time>
      </trkpt>
      <trkpt lat="50.93404202722013" lon="14.668140029534698">
        <ele>397.16000000000003</ele>
        <time>2024-09-18T13:54:37Z</time>
      </trkpt>
      <trkpt lat="50.934422984719276" lon="14.668444963172078">
        <ele>391.38999999999999</ele>
        <time>2024-09-18T13:54:42Z</time>
      </trkpt>
      <trkpt lat="50.934503031894565" lon="14.668498020619154">
        <ele>390.43000000000001</ele>
        <time>2024-09-18T13:54:43Z</time>
      </trkpt>
      <trkpt lat="50.934579977765679" lon="14.668521992862225">
        <ele>389.47000000000003</ele>
        <time>2024-09-18T13:54:44Z</time>
      </trkpt>
      <trkpt lat="50.934669999405742" lon="14.668501038104296">
        <ele>388.99000000000001</ele>
        <time>2024-09-18T13:54:45Z</time>
      </trkpt>
      <trkpt lat="50.934765972197056" lon="14.668478993698955">
        <ele>388.02999999999997</ele>
        <time>2024-09-18T13:54:46Z</time>
      </trkpt>
      <trkpt lat="50.935659985989332" lon="14.668185962364078">
        <ele>388.02999999999997</ele>
        <time>2024-09-18T13:54:54Z</time>
      </trkpt>
      <trkpt lat="50.935775991529226" lon="14.668160984292626">
        <ele>388.50999999999999</ele>
        <time>2024-09-18T13:54:55Z</time>
      </trkpt>
      <trkpt lat="50.937107959762216" lon="14.668474970385432">
        <ele>392.83999999999997</ele>
        <time>2024-09-18T13:55:06Z</time>
      </trkpt>
      <trkpt lat="50.938387038186193" lon="14.668864980340004">
        <ele>390.91000000000003</ele>
        <time>2024-09-18T13:55:14Z</time>
      </trkpt>
      <trkpt lat="50.940151009708643" lon="14.669579034671187">
        <ele>385.14999999999998</ele>
        <time>2024-09-18T13:55:23Z</time>
      </trkpt>
      <trkpt lat="50.942109022289515" lon="14.671029020100832">
        <ele>386.58999999999997</ele>
        <time>2024-09-18T13:55:34Z</time>
      </trkpt>
      <trkpt lat="50.94368901103735" lon="14.671969972550869">
        <ele>389.94999999999999</ele>
        <time>2024-09-18T13:55:42Z</time>
      </trkpt>
      <trkpt lat="50.944584030658007" lon="14.672813024371862">
        <ele>389.47000000000003</ele>
        <time>2024-09-18T13:55:48Z</time>
      </trkpt>
      <trkpt lat="50.945848021656275" lon="14.673563037067652">
        <ele>388.99000000000001</ele>
        <time>2024-09-18T13:55:57Z</time>
      </trkpt>
      <trkpt lat="50.947530018165708" lon="14.674278013408184">
        <ele>387.06999999999999</ele>
        <time>2024-09-18T13:56:09Z</time>
      </trkpt>
      <trkpt lat="50.947989011183381" lon="14.674501977860928">
        <ele>387.06999999999999</ele>
        <time>2024-09-18T13:56:13Z</time>
      </trkpt>
      <trkpt lat="50.948809012770653" lon="14.675223995000124">
        <ele>387.06999999999999</ele>
        <time>2024-09-18T13:56:21Z</time>
      </trkpt>
      <trkpt lat="50.949009004980326" lon="14.675433039665222">
        <ele>387.06999999999999</ele>
        <time>2024-09-18T13:56:23Z</time>
      </trkpt>
      <trkpt lat="50.949107995256782" lon="14.675552984699607">
        <ele>387.06999999999999</ele>
        <time>2024-09-18T13:56:24Z</time>
      </trkpt>
      <trkpt lat="50.949194999411702" lon="14.6756880171597">
        <ele>386.58999999999997</ele>
        <time>2024-09-18T13:56:25Z</time>
      </trkpt>
      <trkpt lat="50.949282003566623" lon="14.67583897523582">
        <ele>386.58999999999997</ele>
        <time>2024-09-18T13:56:26Z</time>
      </trkpt>
      <trkpt lat="50.949345035478473" lon="14.6760109718889">
        <ele>386.11000000000001</ele>
        <time>2024-09-18T13:56:27Z</time>
      </trkpt>
      <trkpt lat="50.949413012713194" lon="14.676195038482547">
        <ele>386.11000000000001</ele>
        <time>2024-09-18T13:56:28Z</time>
      </trkpt>
      <trkpt lat="50.949979964643717" lon="14.678238965570927">
        <ele>388.02999999999997</ele>
        <time>2024-09-18T13:56:36Z</time>
      </trkpt>
      <trkpt lat="50.950750010088086" lon="14.680782034993172">
        <ele>390.91000000000003</ele>
        <time>2024-09-18T13:56:44Z</time>
      </trkpt>
      <trkpt lat="50.951641006395221" lon="14.682478029280901">
        <ele>391.87</ele>
        <time>2024-09-18T13:56:50Z</time>
      </trkpt>
      <trkpt lat="50.952966017648578" lon="14.68496804125607">
        <ele>391.87</ele>
        <time>2024-09-18T13:56:57Z</time>
      </trkpt>
      <trkpt lat="50.954381972551346" lon="14.687558971345425">
        <ele>394.27999999999997</ele>
        <time>2024-09-18T13:57:05Z</time>
      </trkpt>
      <trkpt lat="50.954687995836139" lon="14.68810698017478">
        <ele>393.31999999999999</ele>
        <time>2024-09-18T13:57:07Z</time>
      </trkpt>
      <trkpt lat="50.954805007204413" lon="14.688404034823179">
        <ele>392.36000000000001</ele>
        <time>2024-09-18T13:57:08Z</time>
      </trkpt>
      <trkpt lat="50.955461980774999" lon="14.690864961594343">
        <ele>387.55000000000001</ele>
        <time>2024-09-18T13:57:15Z</time>
      </trkpt>
      <trkpt lat="50.955860037356615" lon="14.693890996277332">
        <ele>379.86000000000001</ele>
        <time>2024-09-18T13:57:23Z</time>
      </trkpt>
      <trkpt lat="50.956507036462426" lon="14.695873986929655">
        <ele>374.08999999999997</ele>
        <time>2024-09-18T13:57:29Z</time>
      </trkpt>
      <trkpt lat="50.957273980602622" lon="14.697089027613401">
        <ele>369.27999999999997</ele>
        <time>2024-09-18T13:57:35Z</time>
      </trkpt>
      <trkpt lat="50.95823303796351" lon="14.698142968118191">
        <ele>364.95999999999998</ele>
        <time>2024-09-18T13:57:42Z</time>
      </trkpt>
      <trkpt lat="50.959359984844923" lon="14.699023989960551">
        <ele>361.11000000000001</ele>
        <time>2024-09-18T13:57:47Z</time>
      </trkpt>
      <trkpt lat="50.961096966639161" lon="14.700235007330775">
        <ele>352.45999999999998</ele>
        <time>2024-09-18T13:57:54Z</time>
      </trkpt>
      <trkpt lat="50.962300021201372" lon="14.700956018641591">
        <ele>346.20999999999998</ele>
        <time>2024-09-18T13:57:59Z</time>
      </trkpt>
      <trkpt lat="50.962518034502864" lon="14.701007986441255">
        <ele>345.25</ele>
        <time>2024-09-18T13:58:00Z</time>
      </trkpt>
      <trkpt lat="50.962737975642085" lon="14.701049979776144">
        <ele>344.29000000000002</ele>
        <time>2024-09-18T13:58:01Z</time>
      </trkpt>
      <trkpt lat="50.962964035570621" lon="14.701042016968131">
        <ele>342.85000000000002</ele>
        <time>2024-09-18T13:58:02Z</time>
      </trkpt>
      <trkpt lat="50.963186994194984" lon="14.70101997256279">
        <ele>341.88999999999999</ele>
        <time>2024-09-18T13:58:03Z</time>
      </trkpt>
      <trkpt lat="50.964665981009603" lon="14.701038999482989">
        <ele>335.63999999999999</ele>
        <time>2024-09-18T13:58:11Z</time>
      </trkpt>
      <trkpt lat="50.965576004236937" lon="14.701459016650915">
        <ele>331.31</ele>
        <time>2024-09-18T13:58:18Z</time>
      </trkpt>
      <trkpt lat="50.96567097119987" lon="14.701564041897655">
        <ele>330.82999999999998</ele>
        <time>2024-09-18T13:58:19Z</time>
      </trkpt>
      <trkpt lat="50.965766021981835" lon="14.701702008023858">
        <ele>330.35000000000002</ele>
        <time>2024-09-18T13:58:20Z</time>
      </trkpt>
      <trkpt lat="50.965864006429911" lon="14.701847014948726">
        <ele>329.87</ele>
        <time>2024-09-18T13:58:21Z</time>
      </trkpt>
      <trkpt lat="50.965954028069973" lon="14.701997973024845">
        <ele>329.38999999999999</ele>
        <time>2024-09-18T13:58:22Z</time>
      </trkpt>
      <trkpt lat="50.966013958677649" lon="14.702182039618492">
        <ele>328.91000000000003</ele>
        <time>2024-09-18T13:58:23Z</time>
      </trkpt>
      <trkpt lat="50.966073973104358" lon="14.702367028221488">
        <ele>328.43000000000001</ele>
        <time>2024-09-18T13:58:24Z</time>
      </trkpt>
      <trkpt lat="50.966133987531066" lon="14.702551010996103">
        <ele>327.47000000000003</ele>
        <time>2024-09-18T13:58:25Z</time>
      </trkpt>
      <trkpt lat="50.966809988021851" lon="14.704357981681824">
        <ele>319.77999999999997</ele>
        <time>2024-09-18T13:58:36Z</time>
      </trkpt>
      <trkpt lat="50.967047028243542" lon="14.704768024384975">
        <ele>316.41000000000003</ele>
        <time>2024-09-18T13:58:39Z</time>
      </trkpt>
      <trkpt lat="50.967951016500592" lon="14.706065962091088">
        <ele>308.24000000000001</ele>
        <time>2024-09-18T13:58:49Z</time>
      </trkpt>
      <trkpt lat="50.968452002853155" lon="14.706837013363838">
        <ele>305.36000000000001</ele>
        <time>2024-09-18T13:58:55Z</time>
      </trkpt>
      <trkpt lat="50.96863598562777" lon="14.707084028050303">
        <ele>304.38999999999999</ele>
        <time>2024-09-18T13:58:58Z</time>
      </trkpt>
      <trkpt lat="50.96869801171124" lon="14.707166003063321">
        <ele>302.94999999999999</ele>
        <time>2024-09-18T13:59:04Z</time>
      </trkpt>
      <trkpt lat="50.968735981732607" lon="14.707215959206223">
        <ele>301.99000000000001</ele>
        <time>2024-09-18T13:59:12Z</time>
      </trkpt>
      <trkpt lat="50.968752996996045" lon="14.707239009439945">
        <ele>301.50999999999999</ele>
        <time>2024-09-18T13:59:13Z</time>
      </trkpt>
      <trkpt lat="50.968789961189032" lon="14.707180000841618">
        <ele>301.02999999999997</ele>
        <time>2024-09-18T13:59:14Z</time>
      </trkpt>
      <trkpt lat="50.968846958130598" lon="14.707090985029936">
        <ele>301.02999999999997</ele>
        <time>2024-09-18T13:59:15Z</time>
      </trkpt>
      <trkpt lat="50.96891300752759" lon="14.706986965611577">
        <ele>300.55000000000001</ele>
        <time>2024-09-18T13:59:16Z</time>
      </trkpt>
      <trkpt lat="50.968985008075833" lon="14.706873977556825">
        <ele>300.06999999999999</ele>
        <time>2024-09-18T13:59:17Z</time>
      </trkpt>
      <trkpt lat="50.969727979972959" lon="14.705668995156884">
        <ele>298.14999999999998</ele>
        <time>2024-09-18T13:59:26Z</time>
      </trkpt>
      <trkpt lat="50.970855010673404" lon="14.703891025856137">
        <ele>298.14999999999998</ele>
        <time>2024-09-18T13:59:39Z</time>
      </trkpt>
      <trkpt lat="50.971740977838635" lon="14.702110039070249">
        <ele>300.55000000000001</ele>
        <time>2024-09-18T13:59:51Z</time>
      </trkpt>
      <trkpt lat="50.971982963383198" lon="14.70166596584022">
        <ele>301.99000000000001</ele>
        <time>2024-09-18T13:59:54Z</time>
      </trkpt>
      <trkpt lat="50.972167029976845" lon="14.701434960588813">
        <ele>302.47000000000003</ele>
        <time>2024-09-18T13:59:56Z</time>
      </trkpt>
      <trkpt lat="50.972271971404552" lon="14.701343011111021">
        <ele>302.94999999999999</ele>
        <time>2024-09-18T13:59:57Z</time>
      </trkpt>
      <trkpt lat="50.972375990822911" lon="14.701251983642578">
        <ele>302.94999999999999</ele>
        <time>2024-09-18T13:59:58Z</time>
      </trkpt>
      <trkpt lat="50.972472969442606" lon="14.701166991144419">
        <ele>303.43000000000001</ele>
        <time>2024-09-18T13:59:59Z</time>
      </trkpt>
      <trkpt lat="50.972557961940765" lon="14.701092978939414">
        <ele>302.94999999999999</ele>
        <time>2024-09-18T14:00:01Z</time>
      </trkpt>
      <trkpt lat="50.973116029053926" lon="14.700666004791856">
        <ele>302.47000000000003</ele>
        <time>2024-09-18T14:00:06Z</time>
      </trkpt>
      <trkpt lat="50.973218036815524" lon="14.700562991201878">
        <ele>302.47000000000003</ele>
        <time>2024-09-18T14:00:07Z</time>
      </trkpt>
      <trkpt lat="50.973320966586471" lon="14.700442040339112">
        <ele>301.99000000000001</ele>
        <time>2024-09-18T14:00:08Z</time>
      </trkpt>
      <trkpt lat="50.974179022014141" lon="14.698818968608975">
        <ele>304.38999999999999</ele>
        <time>2024-09-18T14:00:19Z</time>
      </trkpt>
      <trkpt lat="50.975241009145975" lon="14.696759032085538">
        <ele>308.72000000000003</ele>
        <time>2024-09-18T14:00:33Z</time>
      </trkpt>
      <trkpt lat="50.975281996652484" lon="14.696582006290555">
        <ele>308.72000000000003</ele>
        <time>2024-09-18T14:00:34Z</time>
      </trkpt>
      <trkpt lat="50.975301023572683" lon="14.696392994374037">
        <ele>309.19999999999999</ele>
        <time>2024-09-18T14:00:35Z</time>
      </trkpt>
      <trkpt lat="50.975319966673851" lon="14.69620599411428">
        <ele>309.68000000000001</ele>
        <time>2024-09-18T14:00:36Z</time>
      </trkpt>
      <trkpt lat="50.975339999422431" lon="14.696015976369381">
        <ele>309.68000000000001</ele>
        <time>2024-09-18T14:00:37Z</time>
      </trkpt>
      <trkpt lat="50.975318038836122" lon="14.695826964452863">
        <ele>310.16000000000003</ele>
        <time>2024-09-18T14:00:38Z</time>
      </trkpt>
      <trkpt lat="50.9752949886024" lon="14.695638036355376">
        <ele>310.63999999999999</ele>
        <time>2024-09-18T14:00:39Z</time>
      </trkpt>
      <trkpt lat="50.975018972530961" lon="14.693571981042624">
        <ele>314.00999999999999</ele>
        <time>2024-09-18T14:00:50Z</time>
      </trkpt>
      <trkpt lat="50.974709009751678" lon="14.69154397957027">
        <ele>315.93000000000001</ele>
        <time>2024-09-18T14:01:01Z</time>
      </trkpt>
      <trkpt lat="50.974397035315633" lon="14.689507009461522">
        <ele>320.25999999999999</ele>
        <time>2024-09-18T14:01:12Z</time>
      </trkpt>
      <trkpt lat="50.974224032834172" lon="14.68743902631104">
        <ele>323.62</ele>
        <time>2024-09-18T14:01:23Z</time>
      </trkpt>
      <trkpt lat="50.974293015897274" lon="14.685347992926836">
        <ele>326.99000000000001</ele>
        <time>2024-09-18T14:01:34Z</time>
      </trkpt>
      <trkpt lat="50.974295027554035" lon="14.682865021750331">
        <ele>328.43000000000001</ele>
        <time>2024-09-18T14:01:47Z</time>
      </trkpt>
      <trkpt lat="50.974231995642185" lon="14.680954031646252">
        <ele>327.47000000000003</ele>
        <time>2024-09-18T14:01:57Z</time>
      </trkpt>
      <trkpt lat="50.974094029515982" lon="14.678486986085773">
        <ele>328.91000000000003</ele>
        <time>2024-09-18T14:02:10Z</time>
      </trkpt>
      <trkpt lat="50.974066033959389" lon="14.678105022758245">
        <ele>329.38999999999999</ele>
        <time>2024-09-18T14:02:12Z</time>
      </trkpt>
      <trkpt lat="50.973947010934353" lon="14.676327975466847">
        <ele>333.23000000000002</ele>
        <time>2024-09-18T14:02:19Z</time>
      </trkpt>
      <trkpt lat="50.973859000951052" lon="14.674151027575135">
        <ele>337.56</ele>
        <time>2024-09-18T14:02:26Z</time>
      </trkpt>
      <trkpt lat="50.973966037854552" lon="14.673174032941461">
        <ele>339.48000000000002</ele>
        <time>2024-09-18T14:02:30Z</time>
      </trkpt>
      <trkpt lat="50.974286980926991" lon="14.672154961153865">
        <ele>339.95999999999998</ele>
        <time>2024-09-18T14:02:36Z</time>
      </trkpt>
      <trkpt lat="50.974987959489226" lon="14.670383026823401">
        <ele>337.56</ele>
        <time>2024-09-18T14:02:47Z</time>
      </trkpt>
      <trkpt lat="50.975330024957657" lon="14.669593032449484">
        <ele>337.07999999999998</ele>
        <time>2024-09-18T14:02:52Z</time>
      </trkpt>
      <trkpt lat="50.97550998441875" lon="14.66934903524816">
        <ele>337.07999999999998</ele>
        <time>2024-09-18T14:02:54Z</time>
      </trkpt>
      <trkpt lat="50.975713999941945" lon="14.669152982532978">
        <ele>337.56</ele>
        <time>2024-09-18T14:02:56Z</time>
      </trkpt>
      <trkpt lat="50.977014033123851" lon="14.668154027312994">
        <ele>339.95999999999998</ele>
        <time>2024-09-18T14:03:08Z</time>
      </trkpt>
      <trkpt lat="50.97795800305903" lon="14.667897960171103">
        <ele>339.95999999999998</ele>
        <time>2024-09-18T14:03:16Z</time>
      </trkpt>
      <trkpt lat="50.978190014138818" lon="14.667879017069936">
        <ele>339.95999999999998</ele>
        <time>2024-09-18T14:03:18Z</time>
      </trkpt>
      <trkpt lat="50.97830300219357" lon="14.667838029563427">
        <ele>339.95999999999998</ele>
        <time>2024-09-18T14:03:19Z</time>
      </trkpt>
      <trkpt lat="50.9784119669348" lon="14.667794024571776">
        <ele>339.95999999999998</ele>
        <time>2024-09-18T14:03:20Z</time>
      </trkpt>
      <trkpt lat="50.97849796526134" lon="14.667669972404838">
        <ele>339.95999999999998</ele>
        <time>2024-09-18T14:03:21Z</time>
      </trkpt>
      <trkpt lat="50.978587986901402" lon="14.667538963258266">
        <ele>339.95999999999998</ele>
        <time>2024-09-18T14:03:22Z</time>
      </trkpt>
      <trkpt lat="50.978679014369845" lon="14.667407032102346">
        <ele>339.95999999999998</ele>
        <time>2024-09-18T14:03:23Z</time>
      </trkpt>
      <trkpt lat="50.978770041838288" lon="14.667275017127395">
        <ele>339.95999999999998</ele>
        <time>2024-09-18T14:03:24Z</time>
      </trkpt>
      <trkpt lat="50.979649974033237" lon="14.665984958410263">
        <ele>339.95999999999998</ele>
        <time>2024-09-18T14:03:34Z</time>
      </trkpt>
      <trkpt lat="50.980166969820857" lon="14.665499981492758">
        <ele>339.95999999999998</ele>
        <time>2024-09-18T14:03:39Z</time>
      </trkpt>
      <trkpt lat="50.980273000895977" lon="14.665408032014966">
        <ele>339.95999999999998</ele>
        <time>2024-09-18T14:03:40Z</time>
      </trkpt>
      <trkpt lat="50.980375008657575" lon="14.665319016203284">
        <ele>339.95999999999998</ele>
        <time>2024-09-18T14:03:41Z</time>
      </trkpt>
      <trkpt lat="50.981209008023143" lon="14.664405975490808">
        <ele>341.41000000000003</ele>
        <time>2024-09-18T14:03:50Z</time>
      </trkpt>
      <trkpt lat="50.981922978535295" lon="14.663620004430413">
        <ele>341.88999999999999</ele>
        <time>2024-09-18T14:03:59Z</time>
      </trkpt>
      <trkpt lat="50.982210980728269" lon="14.663238963112235">
        <ele>341.88999999999999</ele>
        <time>2024-09-18T14:04:05Z</time>
      </trkpt>
      <trkpt lat="50.982467969879508" lon="14.662763960659504">
        <ele>341.88999999999999</ele>
        <time>2024-09-18T14:04:16Z</time>
      </trkpt>
      <trkpt lat="50.982638960704207" lon="14.66243103146553">
        <ele>341.88999999999999</ele>
        <time>2024-09-18T14:04:28Z</time>
      </trkpt>
      <trkpt lat="50.982742980122566" lon="14.662274038419127">
        <ele>342.37</ele>
        <time>2024-09-18T14:04:30Z</time>
      </trkpt>
      <trkpt lat="50.982872983440757" lon="14.66215199790895">
        <ele>341.88999999999999</ele>
        <time>2024-09-18T14:04:32Z</time>
      </trkpt>
      <trkpt lat="50.982938027009368" lon="14.662098018452525">
        <ele>341.88999999999999</ele>
        <time>2024-09-18T14:04:33Z</time>
      </trkpt>
      <trkpt lat="50.983003992587328" lon="14.662042027339339">
        <ele>342.37</ele>
        <time>2024-09-18T14:04:34Z</time>
      </trkpt>
      <trkpt lat="50.983205996453762" lon="14.661860978230834">
        <ele>342.37</ele>
        <time>2024-09-18T14:04:37Z</time>
      </trkpt>
      <trkpt lat="50.98360899835825" lon="14.661354040727019">
        <ele>341.88999999999999</ele>
        <time>2024-09-18T14:04:44Z</time>
      </trkpt>
      <trkpt lat="50.983664989471436" lon="14.661293020471931">
        <ele>342.37</ele>
        <time>2024-09-18T14:04:45Z</time>
      </trkpt>
      <trkpt lat="50.984305031597614" lon="14.660616014152765">
        <ele>342.37</ele>
        <time>2024-09-18T14:04:54Z</time>
      </trkpt>
      <trkpt lat="50.984372003003955" lon="14.660511994734406">
        <ele>342.85000000000002</ele>
        <time>2024-09-18T14:04:55Z</time>
      </trkpt>
      <trkpt lat="50.984434029087424" lon="14.660395989194512">
        <ele>342.85000000000002</ele>
        <time>2024-09-18T14:04:56Z</time>
      </trkpt>
      <trkpt lat="50.984496977180243" lon="14.660275960341096">
        <ele>343.32999999999998</ele>
        <time>2024-09-18T14:04:57Z</time>
      </trkpt>
      <trkpt lat="50.98455598577857" lon="14.660146040841937">
        <ele>343.32999999999998</ele>
        <time>2024-09-18T14:04:58Z</time>
      </trkpt>
      <trkpt lat="50.984671991318464" lon="14.659862983971834">
        <ele>343.32999999999998</ele>
        <time>2024-09-18T14:05:00Z</time>
      </trkpt>
      <trkpt lat="50.98472798243165" lon="14.659727029502392">
        <ele>343.32999999999998</ele>
        <time>2024-09-18T14:05:01Z</time>
      </trkpt>
      <trkpt lat="50.984842982143164" lon="14.65944497846067">
        <ele>343.81</ele>
        <time>2024-09-18T14:05:03Z</time>
      </trkpt>
      <trkpt lat="50.98515403456986" lon="14.658624976873398">
        <ele>345.73000000000002</ele>
        <time>2024-09-18T14:05:08Z</time>
      </trkpt>
      <trkpt lat="50.985554018989205" lon="14.657025961205363">
        <ele>348.62</ele>
        <time>2024-09-18T14:05:17Z</time>
      </trkpt>
      <trkpt lat="50.985848978161812" lon="14.655557032674551">
        <ele>349.10000000000002</ele>
        <time>2024-09-18T14:05:25Z</time>
      </trkpt>
      <trkpt lat="50.985922990366817" lon="14.655411019921303">
        <ele>349.10000000000002</ele>
        <time>2024-09-18T14:05:26Z</time>
      </trkpt>
      <trkpt lat="50.985997002571821" lon="14.655260983854532">
        <ele>349.57999999999998</ele>
        <time>2024-09-18T14:05:27Z</time>
      </trkpt>
      <trkpt lat="50.986072020605206" lon="14.655111031606793">
        <ele>350.06</ele>
        <time>2024-09-18T14:05:28Z</time>
      </trkpt>
      <trkpt lat="50.986145026981831" lon="14.654956972226501">
        <ele>350.54000000000002</ele>
        <time>2024-09-18T14:05:29Z</time>
      </trkpt>
      <trkpt lat="50.986866038292646" lon="14.652967024594545">
        <ele>354.86000000000001</ele>
        <time>2024-09-18T14:05:41Z</time>
      </trkpt>
      <trkpt lat="50.98693803884089" lon="14.652821011841297">
        <ele>355.33999999999997</ele>
        <time>2024-09-18T14:05:42Z</time>
      </trkpt>
      <trkpt lat="50.987012973055243" lon="14.652714980766177">
        <ele>355.33999999999997</ele>
        <time>2024-09-18T14:05:43Z</time>
      </trkpt>
      <trkpt lat="50.987134007737041" lon="14.652607021853328">
        <ele>355.33999999999997</ele>
        <time>2024-09-18T14:05:44Z</time>
      </trkpt>
      <trkpt lat="50.987237021327019" lon="14.652520017698407">
        <ele>355.33999999999997</ele>
        <time>2024-09-18T14:05:45Z</time>
      </trkpt>
      <trkpt lat="50.987342968583107" lon="14.65244198217988">
        <ele>354.86000000000001</ele>
        <time>2024-09-18T14:05:46Z</time>
      </trkpt>
      <trkpt lat="50.987725015729666" lon="14.65216102078557">
        <ele>354.38</ele>
        <time>2024-09-18T14:05:50Z</time>
      </trkpt>
      <trkpt lat="50.987824006006122" lon="14.652088014408946">
        <ele>354.38</ele>
        <time>2024-09-18T14:05:51Z</time>
      </trkpt>
      <trkpt lat="50.988146038725972" lon="14.651836976408958">
        <ele>354.38</ele>
        <time>2024-09-18T14:05:54Z</time>
      </trkpt>
      <trkpt lat="50.988459018990397" lon="14.651565989479423">
        <ele>354.86000000000001</ele>
        <time>2024-09-18T14:05:57Z</time>
      </trkpt>
      <trkpt lat="50.988548034802079" lon="14.651442021131516">
        <ele>355.33999999999997</ele>
        <time>2024-09-18T14:05:58Z</time>
      </trkpt>
      <trkpt lat="50.989019013941288" lon="14.650838021188974">
        <ele>357.75</ele>
        <time>2024-09-18T14:06:03Z</time>
      </trkpt>
      <trkpt lat="50.989122027531266" lon="14.650736013427377">
        <ele>358.23000000000002</ele>
        <time>2024-09-18T14:06:04Z</time>
      </trkpt>
      <trkpt lat="50.990307983011007" lon="14.649793971329927">
        <ele>360.63</ele>
        <time>2024-09-18T14:06:15Z</time>
      </trkpt>
      <trkpt lat="50.990626998245716" lon="14.649538993835449">
        <ele>361.58999999999997</ele>
        <time>2024-09-18T14:06:18Z</time>
      </trkpt>
      <trkpt lat="50.990736968815327" lon="14.649460036307573">
        <ele>362.06999999999999</ele>
        <time>2024-09-18T14:06:19Z</time>
      </trkpt>
      <trkpt lat="50.991871040314436" lon="14.648406011983752">
        <ele>365.44</ele>
        <time>2024-09-18T14:06:30Z</time>
      </trkpt>
      <trkpt lat="50.992833031341434" lon="14.646673975512385">
        <ele>370.73000000000002</ele>
        <time>2024-09-18T14:06:42Z</time>
      </trkpt>
      <trkpt lat="50.993553036823869" lon="14.645147966220975">
        <ele>375.05000000000001</ele>
        <time>2024-09-18T14:06:52Z</time>
      </trkpt>
      <trkpt lat="50.993601987138391" lon="14.644973035901785">
        <ele>375.52999999999997</ele>
        <time>2024-09-18T14:06:53Z</time>
      </trkpt>
      <trkpt lat="50.993652027100325" lon="14.644797015935183">
        <ele>376.00999999999999</ele>
        <time>2024-09-18T14:06:54Z</time>
      </trkpt>
      <trkpt lat="50.994254015386105" lon="14.642703970894217">
        <ele>378.89999999999998</ele>
        <time>2024-09-18T14:07:06Z</time>
      </trkpt>
      <trkpt lat="50.99441603757441" lon="14.642200972884893">
        <ele>378.89999999999998</ele>
        <time>2024-09-18T14:07:09Z</time>
      </trkpt>
      <trkpt lat="50.99450203590095" lon="14.642046997323632">
        <ele>378.42000000000002</ele>
        <time>2024-09-18T14:07:10Z</time>
      </trkpt>
      <trkpt lat="50.995363024994731" lon="14.64023700915277">
        <ele>380.33999999999997</ele>
        <time>2024-09-18T14:07:22Z</time>
      </trkpt>
      <trkpt lat="50.99540401250124" lon="14.640067024156451">
        <ele>380.81999999999999</ele>
        <time>2024-09-18T14:07:23Z</time>
      </trkpt>
      <trkpt lat="50.99542697891593" lon="14.639883041381836">
        <ele>380.81999999999999</ele>
        <time>2024-09-18T14:07:24Z</time>
      </trkpt>
      <trkpt lat="50.995509037747979" lon="14.638547971844673">
        <ele>382.74000000000001</ele>
        <time>2024-09-18T14:07:31Z</time>
      </trkpt>
      <trkpt lat="50.995540972799063" lon="14.638364994898438">
        <ele>383.22000000000003</ele>
        <time>2024-09-18T14:07:32Z</time>
      </trkpt>
      <trkpt lat="50.996032990515232" lon="14.636009009554982">
        <ele>382.25999999999999</ele>
        <time>2024-09-18T14:07:45Z</time>
      </trkpt>
      <trkpt lat="50.996086969971657" lon="14.635649006813765">
        <ele>382.74000000000001</ele>
        <time>2024-09-18T14:07:47Z</time>
      </trkpt>
      <trkpt lat="50.99613499827683" lon="14.635087000206113">
        <ele>382.74000000000001</ele>
        <time>2024-09-18T14:07:50Z</time>
      </trkpt>
      <trkpt lat="50.996141033247113" lon="14.634892959147692">
        <ele>382.74000000000001</ele>
        <time>2024-09-18T14:07:51Z</time>
      </trkpt>
      <trkpt lat="50.996339013800025" lon="14.633020022884011">
        <ele>383.69999999999999</ele>
        <time>2024-09-18T14:08:01Z</time>
      </trkpt>
      <trkpt lat="50.996424006298184" lon="14.632668988779187">
        <ele>383.69999999999999</ele>
        <time>2024-09-18T14:08:03Z</time>
      </trkpt>
      <trkpt lat="50.99701602011919" lon="14.630377041175961">
        <ele>387.06999999999999</ele>
        <time>2024-09-18T14:08:16Z</time>
      </trkpt>
      <trkpt lat="50.997796040028334" lon="14.628661014139652">
        <ele>390.43000000000001</ele>
        <time>2024-09-18T14:08:27Z</time>
      </trkpt>
      <trkpt lat="50.998835982754827" lon="14.626814983785152">
        <ele>392.83999999999997</ele>
        <time>2024-09-18T14:08:40Z</time>
      </trkpt>
      <trkpt lat="50.999693032354116" lon="14.625314036384225">
        <ele>394.27999999999997</ele>
        <time>2024-09-18T14:08:49Z</time>
      </trkpt>
      <trkpt lat="51.00159103050828" lon="14.622022965922952">
        <ele>394.75999999999999</ele>
        <time>2024-09-18T14:09:04Z</time>
      </trkpt>
      <trkpt lat="51.002299971878529" lon="14.620527969673276">
        <ele>394.75999999999999</ele>
        <time>2024-09-18T14:09:11Z</time>
      </trkpt>
      <trkpt lat="51.00264698266983" lon="14.619581988081336">
        <ele>393.80000000000001</ele>
        <time>2024-09-18T14:09:18Z</time>
      </trkpt>
      <trkpt lat="51.00279601290822" lon="14.619143027812243">
        <ele>391.38999999999999</ele>
        <time>2024-09-18T14:09:27Z</time>
      </trkpt>
      <trkpt lat="51.002920987084508" lon="14.618766009807587">
        <ele>389.94999999999999</ele>
        <time>2024-09-18T14:09:34Z</time>
      </trkpt>
      <trkpt lat="51.002996005117893" lon="14.618541961535811">
        <ele>389.94999999999999</ele>
        <time>2024-09-18T14:09:36Z</time>
      </trkpt>
      <trkpt lat="51.003014026209712" lon="14.618399972096086">
        <ele>389.94999999999999</ele>
        <time>2024-09-18T14:09:37Z</time>
      </trkpt>
      <trkpt lat="51.00303104147315" lon="14.618241973221302">
        <ele>389.47000000000003</ele>
        <time>2024-09-18T14:09:38Z</time>
      </trkpt>
      <trkpt lat="51.003191974014044" lon="14.616273986175656">
        <ele>385.63</ele>
        <time>2024-09-18T14:09:49Z</time>
      </trkpt>
      <trkpt lat="51.003191974014044" lon="14.615887999534607">
        <ele>384.66000000000003</ele>
        <time>2024-09-18T14:09:51Z</time>
      </trkpt>
      <trkpt lat="51.003191974014044" lon="14.615509975701571">
        <ele>384.18000000000001</ele>
        <time>2024-09-18T14:09:53Z</time>
      </trkpt>
      <trkpt lat="51.00322600454092" lon="14.614748982712626">
        <ele>383.22000000000003</ele>
        <time>2024-09-18T14:09:57Z</time>
      </trkpt>
      <trkpt lat="51.003244025632739" lon="14.614567011594772">
        <ele>382.74000000000001</ele>
        <time>2024-09-18T14:09:58Z</time>
      </trkpt>
      <trkpt lat="51.00328803062439" lon="14.614386968314648">
        <ele>382.25999999999999</ele>
        <time>2024-09-18T14:09:59Z</time>
      </trkpt>
      <trkpt lat="51.00333102978766" lon="14.614210026338696">
        <ele>381.77999999999997</ele>
        <time>2024-09-18T14:10:00Z</time>
      </trkpt>
      <trkpt lat="51.00337402895093" lon="14.614034006372094">
        <ele>381.30000000000001</ele>
        <time>2024-09-18T14:10:01Z</time>
      </trkpt>
      <trkpt lat="51.00343999452889" lon="14.613666962832212">
        <ele>380.33999999999997</ele>
        <time>2024-09-18T14:10:03Z</time>
      </trkpt>
      <trkpt lat="51.003449968993664" lon="14.613480968400836">
        <ele>379.86000000000001</ele>
        <time>2024-09-18T14:10:04Z</time>
      </trkpt>
      <trkpt lat="51.003513000905514" lon="14.612721987068653">
        <ele>378.42000000000002</ele>
        <time>2024-09-18T14:10:08Z</time>
      </trkpt>
      <trkpt lat="51.003594975918531" lon="14.612571028992534">
        <ele>378.42000000000002</ele>
        <time>2024-09-18T14:10:09Z</time>
      </trkpt>
      <trkpt lat="51.00367502309382" lon="14.612428033724427">
        <ele>377.94</ele>
        <time>2024-09-18T14:10:10Z</time>
      </trkpt>
      <trkpt lat="51.004099985584617" lon="14.611766031011939">
        <ele>375.05000000000001</ele>
        <time>2024-09-18T14:10:15Z</time>
      </trkpt>
      <trkpt lat="51.004163017496467" lon="14.611607026308775">
        <ele>374.56999999999999</ele>
        <time>2024-09-18T14:10:16Z</time>
      </trkpt>
      <trkpt lat="51.004209034144878" lon="14.611434023827314">
        <ele>373.61000000000001</ele>
        <time>2024-09-18T14:10:17Z</time>
      </trkpt>
      <trkpt lat="51.004237029701471" lon="14.61125398054719">
        <ele>373.13</ele>
        <time>2024-09-18T14:10:18Z</time>
      </trkpt>
      <trkpt lat="51.00425697863102" lon="14.611067986115813">
        <ele>372.64999999999998</ele>
        <time>2024-09-18T14:10:19Z</time>
      </trkpt>
      <trkpt lat="51.0042770113796" lon="14.610880985856056">
        <ele>372.64999999999998</ele>
        <time>2024-09-18T14:10:20Z</time>
      </trkpt>
      <trkpt lat="51.004297966137528" lon="14.610690968111157">
        <ele>372.17000000000002</ele>
        <time>2024-09-18T14:10:21Z</time>
      </trkpt>
      <trkpt lat="51.004642965272069" lon="14.608259964734316">
        <ele>370.73000000000002</ele>
        <time>2024-09-18T14:10:34Z</time>
      </trkpt>
      <trkpt lat="51.004765005782247" lon="14.607328986749053">
        <ele>369.27999999999997</ele>
        <time>2024-09-18T14:10:39Z</time>
      </trkpt>
      <trkpt lat="51.004863996058702" lon="14.6052370313555">
        <ele>364.95999999999998</ele>
        <time>2024-09-18T14:10:50Z</time>
      </trkpt>
      <trkpt lat="51.004881011322141" lon="14.60504500195384">
        <ele>364.48000000000002</ele>
        <time>2024-09-18T14:10:51Z</time>
      </trkpt>
      <trkpt lat="51.004910012707114" lon="14.604854984208941">
        <ele>364.48000000000002</ele>
        <time>2024-09-18T14:10:52Z</time>
      </trkpt>
      <trkpt lat="51.004946976900101" lon="14.604673013091087">
        <ele>364</ele>
        <time>2024-09-18T14:10:53Z</time>
      </trkpt>
      <trkpt lat="51.004983019083738" lon="14.604491963982582">
        <ele>363.51999999999998</ele>
        <time>2024-09-18T14:10:54Z</time>
      </trkpt>
      <trkpt lat="51.005018977448344" lon="14.604312004521489">
        <ele>363.04000000000002</ele>
        <time>2024-09-18T14:10:55Z</time>
      </trkpt>
      <trkpt lat="51.005058959126472" lon="14.604113018140197">
        <ele>362.55000000000001</ele>
        <time>2024-09-18T14:10:56Z</time>
      </trkpt>
      <trkpt lat="51.005116039887071" lon="14.603962982073426">
        <ele>362.55000000000001</ele>
        <time>2024-09-18T14:10:57Z</time>
      </trkpt>
      <trkpt lat="51.005177982151508" lon="14.603802971541882">
        <ele>361.58999999999997</ele>
        <time>2024-09-18T14:10:58Z</time>
      </trkpt>
      <trkpt lat="51.005918020382524" lon="14.602308981120586">
        <ele>358.23000000000002</ele>
        <time>2024-09-18T14:11:08Z</time>
      </trkpt>
      <trkpt lat="51.006133016198874" lon="14.601847976446152">
        <ele>357.75</ele>
        <time>2024-09-18T14:11:11Z</time>
      </trkpt>
      <trkpt lat="51.006195964291692" lon="14.601682014763355">
        <ele>357.26999999999998</ele>
        <time>2024-09-18T14:11:12Z</time>
      </trkpt>
      <trkpt lat="51.006385982036591" lon="14.601185973733664">
        <ele>356.79000000000002</ele>
        <time>2024-09-18T14:11:15Z</time>
      </trkpt>
      <trkpt lat="51.007245965301991" lon="14.599359976127744">
        <ele>353.89999999999998</ele>
        <time>2024-09-18T14:11:27Z</time>
      </trkpt>
      <trkpt lat="51.007317965850234" lon="14.599209018051624">
        <ele>353.42000000000002</ele>
        <time>2024-09-18T14:11:29Z</time>
      </trkpt>
      <trkpt lat="51.007627006620169" lon="14.598609041422606">
        <ele>352.45999999999998</ele>
        <time>2024-09-18T14:11:33Z</time>
      </trkpt>
      <trkpt lat="51.008170992136002" lon="14.597840001806617">
        <ele>351.98000000000002</ele>
        <time>2024-09-18T14:11:41Z</time>
      </trkpt>
      <trkpt lat="51.008236035704613" lon="14.597751991823316">
        <ele>351.5</ele>
        <time>2024-09-18T14:11:43Z</time>
      </trkpt>
      <trkpt lat="51.00866099819541" lon="14.597127959132195">
        <ele>350.54000000000002</ele>
        <time>2024-09-18T14:11:53Z</time>
      </trkpt>
      <trkpt lat="51.008797958493233" lon="14.596870969980955">
        <ele>351.01999999999998</ele>
        <time>2024-09-18T14:11:56Z</time>
      </trkpt>
      <trkpt lat="51.008863002061844" lon="14.596748007461429">
        <ele>351.5</ele>
        <time>2024-09-18T14:11:58Z</time>
      </trkpt>
      <trkpt lat="51.00889703258872" lon="14.596683969721198">
        <ele>351.98000000000002</ele>
        <time>2024-09-18T14:11:59Z</time>
      </trkpt>
      <trkpt lat="51.008936008438468" lon="14.596610041335225">
        <ele>352.45999999999998</ele>
        <time>2024-09-18T14:12:00Z</time>
      </trkpt>
      <trkpt lat="51.008975990116596" lon="14.59653502330184">
        <ele>352.45999999999998</ele>
        <time>2024-09-18T14:12:01Z</time>
      </trkpt>
      <trkpt lat="51.009003985673189" lon="14.596467968076468">
        <ele>352.45999999999998</ele>
        <time>2024-09-18T14:12:02Z</time>
      </trkpt>
      <trkpt lat="51.009130971506238" lon="14.596136966720223">
        <ele>352.45999999999998</ele>
        <time>2024-09-18T14:12:06Z</time>
      </trkpt>
      <trkpt lat="51.00915796123445" lon="14.59606203250587">
        <ele>352.45999999999998</ele>
        <time>2024-09-18T14:12:07Z</time>
      </trkpt>
      <trkpt lat="51.009424002841115" lon="14.594570975750685">
        <ele>356.31</ele>
        <time>2024-09-18T14:12:19Z</time>
      </trkpt>
      <trkpt lat="51.009445963427424" lon="14.594464022666216">
        <ele>356.31</ele>
        <time>2024-09-18T14:12:20Z</time>
      </trkpt>
      <trkpt lat="51.009468007832766" lon="14.594358997419477">
        <ele>356.31</ele>
        <time>2024-09-18T14:12:21Z</time>
      </trkpt>
      <trkpt lat="51.009501032531261" lon="14.594077030196786">
        <ele>356.31</ele>
        <time>2024-09-18T14:12:24Z</time>
      </trkpt>
      <trkpt lat="51.009501032531261" lon="14.593866979703307">
        <ele>356.31</ele>
        <time>2024-09-18T14:12:26Z</time>
      </trkpt>
      <trkpt lat="51.009501032531261" lon="14.593754997476935">
        <ele>356.31</ele>
        <time>2024-09-18T14:12:27Z</time>
      </trkpt>
      <trkpt lat="51.009492985904217" lon="14.593686014413834">
        <ele>356.31</ele>
        <time>2024-09-18T14:12:28Z</time>
      </trkpt>
      <trkpt lat="51.009426014497876" lon="14.593502031639218">
        <ele>356.31</ele>
        <time>2024-09-18T14:12:30Z</time>
      </trkpt>
      <trkpt lat="51.00939298979938" lon="14.593408992514014">
        <ele>356.79000000000002</ele>
        <time>2024-09-18T14:12:31Z</time>
      </trkpt>
      <trkpt lat="51.009201966226101" lon="14.592911023646593">
        <ele>356.31</ele>
        <time>2024-09-18T14:12:36Z</time>
      </trkpt>
      <trkpt lat="51.009161984547973" lon="14.592807004228234">
        <ele>355.82999999999998</ele>
        <time>2024-09-18T14:12:37Z</time>
      </trkpt>
      <trkpt lat="51.009129965677857" lon="14.592664008960128">
        <ele>355.82999999999998</ele>
        <time>2024-09-18T14:12:38Z</time>
      </trkpt>
      <trkpt lat="51.009119991213083" lon="14.592528976500034">
        <ele>355.33999999999997</ele>
        <time>2024-09-18T14:12:39Z</time>
      </trkpt>
      <trkpt lat="51.009109010919929" lon="14.592385981231928">
        <ele>355.33999999999997</ele>
        <time>2024-09-18T14:12:40Z</time>
      </trkpt>
      <trkpt lat="51.008952017873526" lon="14.591069016605616">
        <ele>353.42000000000002</ele>
        <time>2024-09-18T14:12:48Z</time>
      </trkpt>
      <trkpt lat="51.008902983739972" lon="14.590904982760549">
        <ele>353.42000000000002</ele>
        <time>2024-09-18T14:12:49Z</time>
      </trkpt>
      <trkpt lat="51.008523032069206" lon="14.589752973988652">
        <ele>352.45999999999998</ele>
        <time>2024-09-18T14:12:56Z</time>
      </trkpt>
      <trkpt lat="51.008491013199091" lon="14.589567985385656">
        <ele>352.45999999999998</ele>
        <time>2024-09-18T14:12:57Z</time>
      </trkpt>
      <trkpt lat="51.008460000157356" lon="14.589386014267802">
        <ele>352.94</ele>
        <time>2024-09-18T14:12:58Z</time>
      </trkpt>
      <trkpt lat="51.008428987115622" lon="14.589206976816058">
        <ele>352.94</ele>
        <time>2024-09-18T14:12:59Z</time>
      </trkpt>
      <trkpt lat="51.008432004600763" lon="14.589019976556301">
        <ele>352.94</ele>
        <time>2024-09-18T14:13:00Z</time>
      </trkpt>
      <trkpt lat="51.008436027914286" lon="14.588828030973673">
        <ele>352.94</ele>
        <time>2024-09-18T14:13:01Z</time>
      </trkpt>
      <trkpt lat="51.008526971563697" lon="14.587510982528329">
        <ele>351.98000000000002</ele>
        <time>2024-09-18T14:13:08Z</time>
      </trkpt>
      <trkpt lat="51.008807010948658" lon="14.585898974910378">
        <ele>351.5</ele>
        <time>2024-09-18T14:13:17Z</time>
      </trkpt>
      <trkpt lat="51.008797036483884" lon="14.585748016834259">
        <ele>351.5</ele>
        <time>2024-09-18T14:13:18Z</time>
      </trkpt>
      <trkpt lat="51.008786978200078" lon="14.58559999242425">
        <ele>351.01999999999998</ele>
        <time>2024-09-18T14:13:19Z</time>
      </trkpt>
      <trkpt lat="51.008760994300246" lon="14.585316013544798">
        <ele>351.01999999999998</ele>
        <time>2024-09-18T14:13:21Z</time>
      </trkpt>
      <trkpt lat="51.008591009303927" lon="14.584352010861039">
        <ele>350.54000000000002</ele>
        <time>2024-09-18T14:13:28Z</time>
      </trkpt>
      <trkpt lat="51.00857499986887" lon="14.584174985066056">
        <ele>350.54000000000002</ele>
        <time>2024-09-18T14:13:29Z</time>
      </trkpt>
      <trkpt lat="51.008587991818786" lon="14.583422960713506">
        <ele>351.01999999999998</ele>
        <time>2024-09-18T14:13:33Z</time>
      </trkpt>
      <trkpt lat="51.008609030395746" lon="14.583248030394316">
        <ele>351.01999999999998</ele>
        <time>2024-09-18T14:13:34Z</time>
      </trkpt>
      <trkpt lat="51.0086390376091" lon="14.583076033741236">
        <ele>351.01999999999998</ele>
        <time>2024-09-18T14:13:35Z</time>
      </trkpt>
      <trkpt lat="51.00868497043848" lon="14.582919040694833">
        <ele>350.54000000000002</ele>
        <time>2024-09-18T14:13:36Z</time>
      </trkpt>
      <trkpt lat="51.008739033713937" lon="14.582771016284823">
        <ele>350.54000000000002</ele>
        <time>2024-09-18T14:13:37Z</time>
      </trkpt>
      <trkpt lat="51.008821008726954" lon="14.582645958289504">
        <ele>350.06</ele>
        <time>2024-09-18T14:13:38Z</time>
      </trkpt>
      <trkpt lat="51.008907007053494" lon="14.582535987719893">
        <ele>350.06</ele>
        <time>2024-09-18T14:13:39Z</time>
      </trkpt>
      <trkpt lat="51.009007003158331" lon="14.582419982179999">
        <ele>349.57999999999998</ele>
        <time>2024-09-18T14:13:40Z</time>
      </trkpt>
      <trkpt lat="51.00920096039772" lon="14.582240022718906">
        <ele>349.10000000000002</ele>
        <time>2024-09-18T14:13:41Z</time>
      </trkpt>
      <trkpt lat="51.009590970352292" lon="14.58196802996099">
        <ele>347.64999999999998</ele>
        <time>2024-09-18T14:13:45Z</time>
      </trkpt>
      <trkpt lat="51.010479032993317" lon="14.581448016688228">
        <ele>346.20999999999998</ele>
        <time>2024-09-18T14:13:54Z</time>
      </trkpt>
      <trkpt lat="51.010699979960918" lon="14.581426978111267">
        <ele>346.20999999999998</ele>
        <time>2024-09-18T14:13:56Z</time>
      </trkpt>
      <trkpt lat="51.0108080226928" lon="14.581447010859847">
        <ele>346.20999999999998</ele>
        <time>2024-09-18T14:13:57Z</time>
      </trkpt>
      <trkpt lat="51.011386038735509" lon="14.581555975601077">
        <ele>346.20999999999998</ele>
        <time>2024-09-18T14:14:02Z</time>
      </trkpt>
      <trkpt lat="51.011502966284752" lon="14.581576008349657">
        <ele>345.73000000000002</ele>
        <time>2024-09-18T14:14:03Z</time>
      </trkpt>
      <trkpt lat="51.011614026501775" lon="14.581593023613095">
        <ele>344.76999999999998</ele>
        <time>2024-09-18T14:14:04Z</time>
      </trkpt>
      <trkpt lat="51.012061033397913" lon="14.581738030537963">
        <ele>342.37</ele>
        <time>2024-09-18T14:14:08Z</time>
      </trkpt>
      <trkpt lat="51.01216496899724" lon="14.581821011379361">
        <ele>341.41000000000003</ele>
        <time>2024-09-18T14:14:09Z</time>
      </trkpt>
      <trkpt lat="51.012273011729121" lon="14.581907009705901">
        <ele>340.44</ele>
        <time>2024-09-18T14:14:10Z</time>
      </trkpt>
      <trkpt lat="51.012381976470351" lon="14.581993008032441">
        <ele>339.95999999999998</ele>
        <time>2024-09-18T14:14:11Z</time>
      </trkpt>
      <trkpt lat="51.012490019202232" lon="14.582078000530601">
        <ele>339.48000000000002</ele>
        <time>2024-09-18T14:14:12Z</time>
      </trkpt>
      <trkpt lat="51.012586997821927" lon="14.58214002661407">
        <ele>338.51999999999998</ele>
        <time>2024-09-18T14:14:13Z</time>
      </trkpt>
      <trkpt lat="51.012703003361821" lon="14.582132985815406">
        <ele>338.04000000000002</ele>
        <time>2024-09-18T14:14:14Z</time>
      </trkpt>
      <trkpt lat="51.012819008901715" lon="14.582126028835773">
        <ele>337.56</ele>
        <time>2024-09-18T14:14:15Z</time>
      </trkpt>
      <trkpt lat="51.012934008613229" lon="14.582118988037109">
        <ele>337.07999999999998</ele>
        <time>2024-09-18T14:14:16Z</time>
      </trkpt>
      <trkpt lat="51.013028975576162" lon="14.582075988873839">
        <ele>336.60000000000002</ele>
        <time>2024-09-18T14:14:17Z</time>
      </trkpt>
      <trkpt lat="51.013123020529747" lon="14.582032989710569">
        <ele>336.60000000000002</ele>
        <time>2024-09-18T14:14:18Z</time>
      </trkpt>
      <trkpt lat="51.01416296325624" lon="14.581410968676209">
        <ele>335.63999999999999</ele>
        <time>2024-09-18T14:14:28Z</time>
      </trkpt>
      <trkpt lat="51.015055971220136" lon="14.580876035615802">
        <ele>337.56</ele>
        <time>2024-09-18T14:14:36Z</time>
      </trkpt>
      <trkpt lat="51.015145992860198" lon="14.580762041732669">
        <ele>337.56</ele>
        <time>2024-09-18T14:14:37Z</time>
      </trkpt>
      <trkpt lat="51.01523601450026" lon="14.580645030364394">
        <ele>337.56</ele>
        <time>2024-09-18T14:14:39Z</time>
      </trkpt>
      <trkpt lat="51.015325030311942" lon="14.580530030652881">
        <ele>338.04000000000002</ele>
        <time>2024-09-18T14:14:40Z</time>
      </trkpt>
      <trkpt lat="51.015412034466863" lon="14.580416958779097">
        <ele>338.51999999999998</ele>
        <time>2024-09-18T14:14:41Z</time>
      </trkpt>
      <trkpt lat="51.015479005873203" lon="14.580269018188119">
        <ele>338.51999999999998</ele>
        <time>2024-09-18T14:14:42Z</time>
      </trkpt>
      <trkpt lat="51.015595011413097" lon="14.579995013773441">
        <ele>339</ele>
        <time>2024-09-18T14:14:44Z</time>
      </trkpt>
      <trkpt lat="51.015633987262845" lon="14.579823017120361">
        <ele>339.48000000000002</ele>
        <time>2024-09-18T14:14:45Z</time>
      </trkpt>
      <trkpt lat="51.015864992514253" lon="14.578023003414273">
        <ele>336.12</ele>
        <time>2024-09-18T14:14:56Z</time>
      </trkpt>
      <trkpt lat="51.016105972230434" lon="14.575988966971636">
        <ele>333.70999999999998</ele>
        <time>2024-09-18T14:15:06Z</time>
      </trkpt>
      <trkpt lat="51.016474021598697" lon="14.573870021849871">
        <ele>333.23000000000002</ele>
        <time>2024-09-18T14:15:17Z</time>
      </trkpt>
      <trkpt lat="51.016831006854773" lon="14.571860041469336">
        <ele>333.23000000000002</ele>
        <time>2024-09-18T14:15:24Z</time>
      </trkpt>
      <trkpt lat="51.017266027629375" lon="14.56948502920568">
        <ele>334.19999999999999</ele>
        <time>2024-09-18T14:15:32Z</time>
      </trkpt>
      <trkpt lat="51.017430983483791" lon="14.568607024848461">
        <ele>337.56</ele>
        <time>2024-09-18T14:15:38Z</time>
      </trkpt>
      <trkpt lat="51.017465014010668" lon="14.568423964083195">
        <ele>338.04000000000002</ele>
        <time>2024-09-18T14:15:40Z</time>
      </trkpt>
      <trkpt lat="51.017527962103486" lon="14.568123975768685">
        <ele>338.51999999999998</ele>
        <time>2024-09-18T14:15:48Z</time>
      </trkpt>
      <trkpt lat="51.017527962103486" lon="14.568123975768685">
        <ele>338.51999999999998</ele>
        <time>2024-09-18T14:16:25Z</time>
      </trkpt>
      <trkpt lat="51.017527962103486" lon="14.568123975768685">
        <ele>339</ele>
        <time>2024-09-18T14:17:16Z</time>
      </trkpt>
      <trkpt lat="51.01760096848011" lon="14.567868998274207">
        <ele>339.95999999999998</ele>
        <time>2024-09-18T14:17:44Z</time>
      </trkpt>
      <trkpt lat="51.017728038132191" lon="14.567585019394755">
        <ele>339.95999999999998</ele>
        <time>2024-09-18T14:17:48Z</time>
      </trkpt>
      <trkpt lat="51.017765002325177" lon="14.567502960562706">
        <ele>339.95999999999998</ele>
        <time>2024-09-18T14:17:49Z</time>
      </trkpt>
      <trkpt lat="51.01787799037993" lon="14.567255023866892">
        <ele>339.95999999999998</ele>
        <time>2024-09-18T14:17:52Z</time>
      </trkpt>
      <trkpt lat="51.01792199537158" lon="14.56718503497541">
        <ele>339.95999999999998</ele>
        <time>2024-09-18T14:17:53Z</time>
      </trkpt>
      <trkpt lat="51.018456006422639" lon="14.566384982317686">
        <ele>339.95999999999998</ele>
        <time>2024-09-18T14:18:03Z</time>
      </trkpt>
      <trkpt lat="51.018530018627644" lon="14.566325973719358">
        <ele>339.95999999999998</ele>
        <time>2024-09-18T14:18:04Z</time>
      </trkpt>
      <trkpt lat="51.018607970327139" lon="14.56626595929265">
        <ele>340.44</ele>
        <time>2024-09-18T14:18:05Z</time>
      </trkpt>
      <trkpt lat="51.018690029159188" lon="14.566200999543071">
        <ele>340.44</ele>
        <time>2024-09-18T14:18:06Z</time>
      </trkpt>
      <trkpt lat="51.018776027485728" lon="14.566136039793491">
        <ele>340.92000000000002</ele>
        <time>2024-09-18T14:18:07Z</time>
      </trkpt>
      <trkpt lat="51.018870994448662" lon="14.566073007881641">
        <ele>341.41000000000003</ele>
        <time>2024-09-18T14:18:08Z</time>
      </trkpt>
      <trkpt lat="51.020145965740085" lon="14.565287958830595">
        <ele>344.29000000000002</ele>
        <time>2024-09-18T14:18:20Z</time>
      </trkpt>
      <trkpt lat="51.021135030314326" lon="14.564318004995584">
        <ele>344.29000000000002</ele>
        <time>2024-09-18T14:18:29Z</time>
      </trkpt>
      <trkpt lat="51.022199029102921" lon="14.562881011515856">
        <ele>343.32999999999998</ele>
        <time>2024-09-18T14:18:40Z</time>
      </trkpt>
      <trkpt lat="51.022738991305232" lon="14.562138039618731">
        <ele>343.32999999999998</ele>
        <time>2024-09-18T14:18:47Z</time>
      </trkpt>
      <trkpt lat="51.023952020332217" lon="14.560513962060213">
        <ele>338.04000000000002</ele>
        <time>2024-09-18T14:19:01Z</time>
      </trkpt>
      <trkpt lat="51.025191033259034" lon="14.5590899605304">
        <ele>337.07999999999998</ele>
        <time>2024-09-18T14:19:14Z</time>
      </trkpt>
      <trkpt lat="51.026432979851961" lon="14.557918002828956">
        <ele>338.51999999999998</ele>
        <time>2024-09-18T14:19:26Z</time>
      </trkpt>
      <trkpt lat="51.027473006397486" lon="14.556934973224998">
        <ele>339</ele>
        <time>2024-09-18T14:19:37Z</time>
      </trkpt>
      <trkpt lat="51.027549030259252" lon="14.556864984333515">
        <ele>339</ele>
        <time>2024-09-18T14:19:38Z</time>
      </trkpt>
      <trkpt lat="51.028274986892939" lon="14.556198036298156">
        <ele>340.44</ele>
        <time>2024-09-18T14:19:46Z</time>
      </trkpt>
      <trkpt lat="51.028389986604452" lon="14.556092005223036">
        <ele>340.44</ele>
        <time>2024-09-18T14:19:47Z</time>
      </trkpt>
      <trkpt lat="51.028498029336333" lon="14.555992009118199">
        <ele>340.44</ele>
        <time>2024-09-18T14:19:48Z</time>
      </trkpt>
      <trkpt lat="51.029347032308578" lon="14.555250965058804">
        <ele>338.04000000000002</ele>
        <time>2024-09-18T14:19:56Z</time>
      </trkpt>
      <trkpt lat="51.029685996472836" lon="14.555089026689529">
        <ele>336.12</ele>
        <time>2024-09-18T14:20:00Z</time>
      </trkpt>
      <trkpt lat="51.029737964272499" lon="14.555073017254472">
        <ele>335.16000000000003</ele>
        <time>2024-09-18T14:20:01Z</time>
      </trkpt>
      <trkpt lat="51.029773000627756" lon="14.554934967309237">
        <ele>335.16000000000003</ele>
        <time>2024-09-18T14:20:02Z</time>
      </trkpt>
      <trkpt lat="51.029768977314234" lon="14.554829020053148">
        <ele>334.68000000000001</ele>
        <time>2024-09-18T14:20:03Z</time>
      </trkpt>
      <trkpt lat="51.029765037819743" lon="14.554714020341635">
        <ele>334.19999999999999</ele>
        <time>2024-09-18T14:20:04Z</time>
      </trkpt>
      <trkpt lat="51.02976000867784" lon="14.554593991488218">
        <ele>333.70999999999998</ele>
        <time>2024-09-18T14:20:05Z</time>
      </trkpt>
      <trkpt lat="51.029735030606389" lon="14.554477985948324">
        <ele>333.70999999999998</ele>
        <time>2024-09-18T14:20:06Z</time>
      </trkpt>
      <trkpt lat="51.02965003810823" lon="14.55438201315701">
        <ele>333.70999999999998</ele>
        <time>2024-09-18T14:20:07Z</time>
      </trkpt>
      <trkpt lat="51.029558004811406" lon="14.554276987910271">
        <ele>334.19999999999999</ele>
        <time>2024-09-18T14:20:08Z</time>
      </trkpt>
      <trkpt lat="51.028714030981064" lon="14.553316002711654">
        <ele>338.04000000000002</ele>
        <time>2024-09-18T14:20:15Z</time>
      </trkpt>
      <trkpt lat="51.027822028845549" lon="14.552300032228231">
        <ele>342.85000000000002</ele>
        <time>2024-09-18T14:20:21Z</time>
      </trkpt>
      <trkpt lat="51.027694037184119" lon="14.552204981446266">
        <ele>343.81</ele>
        <time>2024-09-18T14:20:22Z</time>
      </trkpt>
      <trkpt lat="51.027573002502322" lon="14.552200958132744">
        <ele>344.29000000000002</ele>
        <time>2024-09-18T14:20:23Z</time>
      </trkpt>
      <trkpt lat="51.027454985305667" lon="14.552196012809873">
        <ele>345.25</ele>
        <time>2024-09-18T14:20:24Z</time>
      </trkpt>
      <trkpt lat="51.027338979765773" lon="14.55219198949635">
        <ele>345.73000000000002</ele>
        <time>2024-09-18T14:20:25Z</time>
      </trkpt>
      <trkpt lat="51.027236972004175" lon="14.552187966182828">
        <ele>346.20999999999998</ele>
        <time>2024-09-18T14:20:26Z</time>
      </trkpt>
      <trkpt lat="51.027135970070958" lon="14.552110014483333">
        <ele>346.69</ele>
        <time>2024-09-18T14:20:27Z</time>
      </trkpt>
      <trkpt lat="51.027070004492998" lon="14.551999038085341">
        <ele>347.17000000000002</ele>
        <time>2024-09-18T14:20:28Z</time>
      </trkpt>
      <trkpt lat="51.027046032249928" lon="14.551826035603881">
        <ele>347.64999999999998</ele>
        <time>2024-09-18T14:20:29Z</time>
      </trkpt>
      <trkpt lat="51.027036979794502" lon="14.551636017858982">
        <ele>348.13</ele>
        <time>2024-09-18T14:20:30Z</time>
      </trkpt>
      <trkpt lat="51.027032034471631" lon="14.551410041749477">
        <ele>348.62</ele>
        <time>2024-09-18T14:20:31Z</time>
      </trkpt>
      <trkpt lat="51.027032034471631" lon="14.550887010991573">
        <ele>347.64999999999998</ele>
        <time>2024-09-18T14:20:33Z</time>
      </trkpt>
      <trkpt lat="51.027032034471631" lon="14.550598002970219">
        <ele>346.69</ele>
        <time>2024-09-18T14:20:34Z</time>
      </trkpt>
      <trkpt lat="51.026980988681316" lon="14.550331039354205">
        <ele>346.20999999999998</ele>
        <time>2024-09-18T14:20:35Z</time>
      </trkpt>
      <trkpt lat="51.02632200345397" lon="14.548591962084174">
        <ele>342.85000000000002</ele>
        <time>2024-09-18T14:20:41Z</time>
      </trkpt>
      <trkpt lat="51.025410974398255" lon="14.546319963410497">
        <ele>341.88999999999999</ele>
        <time>2024-09-18T14:20:49Z</time>
      </trkpt>
      <trkpt lat="51.025315001606941" lon="14.546080995351076">
        <ele>341.88999999999999</ele>
        <time>2024-09-18T14:20:50Z</time>
      </trkpt>
      <trkpt lat="51.025218022987247" lon="14.545916961506009">
        <ele>342.37</ele>
        <time>2024-09-18T14:20:51Z</time>
      </trkpt>
      <trkpt lat="51.025109980255365" lon="14.545758962631226">
        <ele>342.37</ele>
        <time>2024-09-18T14:20:52Z</time>
      </trkpt>
      <trkpt lat="51.02499196305871" lon="14.545587971806526">
        <ele>342.85000000000002</ele>
        <time>2024-09-18T14:20:53Z</time>
      </trkpt>
      <trkpt lat="51.024867994710803" lon="14.545407006517053">
        <ele>343.32999999999998</ele>
        <time>2024-09-18T14:20:54Z</time>
      </trkpt>
      <trkpt lat="51.02473396807909" lon="14.545211037620902">
        <ele>344.29000000000002</ele>
        <time>2024-09-18T14:20:55Z</time>
      </trkpt>
      <trkpt lat="51.0237439814955" lon="14.543767003342509">
        <ele>346.20999999999998</ele>
        <time>2024-09-18T14:21:01Z</time>
      </trkpt>
      <trkpt lat="51.022870000451803" lon="14.542492032051086">
        <ele>343.81</ele>
        <time>2024-09-18T14:21:07Z</time>
      </trkpt>
      <trkpt lat="51.022770004346967" lon="14.542346019297838">
        <ele>343.32999999999998</ele>
        <time>2024-09-18T14:21:08Z</time>
      </trkpt>
      <trkpt lat="51.022664979100227" lon="14.542092969641089">
        <ele>343.32999999999998</ele>
        <time>2024-09-18T14:21:09Z</time>
      </trkpt>
      <trkpt lat="51.022653998807073" lon="14.541972018778324">
        <ele>342.85000000000002</ele>
        <time>2024-09-18T14:21:10Z</time>
      </trkpt>
      <trkpt lat="51.022729016840458" lon="14.541731961071491">
        <ele>342.37</ele>
        <time>2024-09-18T14:21:11Z</time>
      </trkpt>
      <trkpt lat="51.022776961326599" lon="14.541587037965655">
        <ele>341.88999999999999</ele>
        <time>2024-09-18T14:21:12Z</time>
      </trkpt>
      <trkpt lat="51.022837981581688" lon="14.541428033262491">
        <ele>341.88999999999999</ele>
        <time>2024-09-18T14:21:13Z</time>
      </trkpt>
      <trkpt lat="51.022902019321918" lon="14.541259976103902">
        <ele>341.41000000000003</ele>
        <time>2024-09-18T14:21:14Z</time>
      </trkpt>
      <trkpt lat="51.022964967414737" lon="14.541097031906247">
        <ele>341.88999999999999</ele>
        <time>2024-09-18T14:21:15Z</time>
      </trkpt>
      <trkpt lat="51.023025987669826" lon="14.540938027203083">
        <ele>341.88999999999999</ele>
        <time>2024-09-18T14:21:17Z</time>
      </trkpt>
      <trkpt lat="51.023346008732915" lon="14.540101010352373">
        <ele>344.76999999999998</ele>
        <time>2024-09-18T14:21:22Z</time>
      </trkpt>
      <trkpt lat="51.02337702177465" lon="14.540020041167736">
        <ele>344.76999999999998</ele>
        <time>2024-09-18T14:21:23Z</time>
      </trkpt>
      <trkpt lat="51.023322036489844" lon="14.53981401398778">
        <ele>345.25</ele>
        <time>2024-09-18T14:21:25Z</time>
      </trkpt>
      <trkpt lat="51.023155990988016" lon="14.539693985134363">
        <ele>345.25</ele>
        <time>2024-09-18T14:21:26Z</time>
      </trkpt>
      <trkpt lat="51.023049959912896" lon="14.539617961272597">
        <ele>345.73000000000002</ele>
        <time>2024-09-18T14:21:27Z</time>
      </trkpt>
      <trkpt lat="51.022278992459178" lon="14.539026031270623">
        <ele>347.64999999999998</ele>
        <time>2024-09-18T14:21:35Z</time>
      </trkpt>
      <trkpt lat="51.022145971655846" lon="14.538945984095335">
        <ele>347.64999999999998</ele>
        <time>2024-09-18T14:21:37Z</time>
      </trkpt>
      <trkpt lat="51.022098027169704" lon="14.538916982710361">
        <ele>347.17000000000002</ele>
        <time>2024-09-18T14:21:38Z</time>
      </trkpt>
      <trkpt lat="51.022124011069536" lon="14.538846993818879">
        <ele>346.69</ele>
        <time>2024-09-18T14:21:39Z</time>
      </trkpt>
      <trkpt lat="51.022152006626129" lon="14.538815980777144">
        <ele>346.20999999999998</ele>
        <time>2024-09-18T14:21:40Z</time>
      </trkpt>
      <trkpt lat="51.02219601161778" lon="14.538767030462623">
        <ele>346.20999999999998</ele>
        <time>2024-09-18T14:21:41Z</time>
      </trkpt>
      <trkpt lat="51.02226197719574" lon="14.538692012429237">
        <ele>345.73000000000002</ele>
        <time>2024-09-18T14:21:42Z</time>
      </trkpt>
      <trkpt lat="51.02234898135066" lon="14.538594027981162">
        <ele>345.73000000000002</ele>
        <time>2024-09-18T14:21:43Z</time>
      </trkpt>
      <trkpt lat="51.022451994940639" lon="14.538477016612887">
        <ele>345.73000000000002</ele>
        <time>2024-09-18T14:21:44Z</time>
      </trkpt>
      <trkpt lat="51.022568000480533" lon="14.538346007466316">
        <ele>346.20999999999998</ele>
        <time>2024-09-18T14:21:45Z</time>
      </trkpt>
      <trkpt lat="51.022664979100227" lon="14.538113996386528">
        <ele>346.20999999999998</ele>
        <time>2024-09-18T14:21:46Z</time>
      </trkpt>
      <trkpt lat="51.022747959941626" lon="14.537906041368842">
        <ele>346.20999999999998</ele>
        <time>2024-09-18T14:21:47Z</time>
      </trkpt>
      <trkpt lat="51.022817026823759" lon="14.537673024460673">
        <ele>345.73000000000002</ele>
        <time>2024-09-18T14:21:48Z</time>
      </trkpt>
      <trkpt lat="51.022850973531604" lon="14.537423998117447">
        <ele>345.25</ele>
        <time>2024-09-18T14:21:49Z</time>
      </trkpt>
      <trkpt lat="51.022887015715241" lon="14.537162985652685">
        <ele>345.25</ele>
        <time>2024-09-18T14:21:50Z</time>
      </trkpt>
      <trkpt lat="51.022966979071498" lon="14.536629980430007">
        <ele>343.81</ele>
        <time>2024-09-18T14:21:52Z</time>
      </trkpt>
      <trkpt lat="51.02301400154829" lon="14.536365028470755">
        <ele>343.32999999999998</ele>
        <time>2024-09-18T14:21:53Z</time>
      </trkpt>
      <trkpt lat="51.023409040644765" lon="14.535193992778659">
        <ele>340.92000000000002</ele>
        <time>2024-09-18T14:21:58Z</time>
      </trkpt>
      <trkpt lat="51.023500990122557" lon="14.535052003338933">
        <ele>340.44</ele>
        <time>2024-09-18T14:21:59Z</time>
      </trkpt>
      <trkpt lat="51.023584976792336" lon="14.534924011677504">
        <ele>339.95999999999998</ele>
        <time>2024-09-18T14:22:00Z</time>
      </trkpt>
      <trkpt lat="51.023735012859106" lon="14.534699963405728">
        <ele>339</ele>
        <time>2024-09-18T14:22:02Z</time>
      </trkpt>
      <trkpt lat="51.023812964558601" lon="14.534589992836118">
        <ele>338.04000000000002</ele>
        <time>2024-09-18T14:22:03Z</time>
      </trkpt>
      <trkpt lat="51.023856969550252" lon="14.534482033923268">
        <ele>338.04000000000002</ele>
        <time>2024-09-18T14:22:04Z</time>
      </trkpt>
      <trkpt lat="51.02421797811985" lon="14.533587014302611">
        <ele>334.68000000000001</ele>
        <time>2024-09-18T14:22:12Z</time>
      </trkpt>
      <trkpt lat="51.0244329739362" lon="14.533207984641194">
        <ele>334.19999999999999</ele>
        <time>2024-09-18T14:22:15Z</time>
      </trkpt>
      <trkpt lat="51.024527018889785" lon="14.533097008243203">
        <ele>333.70999999999998</ele>
        <time>2024-09-18T14:22:16Z</time>
      </trkpt>
      <trkpt lat="51.024789959192276" lon="14.532733988016844">
        <ele>333.23000000000002</ele>
        <time>2024-09-18T14:22:19Z</time>
      </trkpt>
      <trkpt lat="51.024866988882422" lon="14.532591998577118">
        <ele>332.75</ele>
        <time>2024-09-18T14:22:20Z</time>
      </trkpt>
      <trkpt lat="51.025321958586574" lon="14.531752970069647">
        <ele>331.31</ele>
        <time>2024-09-18T14:22:26Z</time>
      </trkpt>
      <trkpt lat="51.025400999933481" lon="14.531607963144779">
        <ele>331.79000000000002</ele>
        <time>2024-09-18T14:22:27Z</time>
      </trkpt>
      <trkpt lat="51.025502001866698" lon="14.531520958989859">
        <ele>331.79000000000002</ele>
        <time>2024-09-18T14:22:28Z</time>
      </trkpt>
      <trkpt lat="51.025607027113438" lon="14.531431021168828">
        <ele>331.79000000000002</ele>
        <time>2024-09-18T14:22:29Z</time>
      </trkpt>
      <trkpt lat="51.025724960491061" lon="14.531346028670669">
        <ele>331.79000000000002</ele>
        <time>2024-09-18T14:22:30Z</time>
      </trkpt>
      <trkpt lat="51.025829985737801" lon="14.53132901340723">
        <ele>332.26999999999998</ele>
        <time>2024-09-18T14:22:31Z</time>
      </trkpt>
      <trkpt lat="51.025969041511416" lon="14.531347034499049">
        <ele>332.75</ele>
        <time>2024-09-18T14:22:32Z</time>
      </trkpt>
      <trkpt lat="51.026099966838956" lon="14.531362960115075">
        <ele>333.23000000000002</ele>
        <time>2024-09-18T14:22:33Z</time>
      </trkpt>
      <trkpt lat="51.026237010955811" lon="14.531380981206894">
        <ele>333.70999999999998</ele>
        <time>2024-09-18T14:22:34Z</time>
      </trkpt>
      <trkpt lat="51.026375982910395" lon="14.531399002298713">
        <ele>334.68000000000001</ele>
        <time>2024-09-18T14:22:35Z</time>
      </trkpt>
      <trkpt lat="51.027809958904982" lon="14.531690021976829">
        <ele>338.04000000000002</ele>
        <time>2024-09-18T14:22:44Z</time>
      </trkpt>
      <trkpt lat="51.029550964012742" lon="14.532564003020525">
        <ele>343.32999999999998</ele>
        <time>2024-09-18T14:22:53Z</time>
      </trkpt>
      <trkpt lat="51.02973897010088" lon="14.532677996903658">
        <ele>343.32999999999998</ele>
        <time>2024-09-18T14:22:54Z</time>
      </trkpt>
      <trkpt lat="51.029934016987681" lon="14.532815041020513">
        <ele>342.85000000000002</ele>
        <time>2024-09-18T14:22:55Z</time>
      </trkpt>
      <trkpt lat="51.030308017507195" lon="14.533189041540027">
        <ele>341.41000000000003</ele>
        <time>2024-09-18T14:22:57Z</time>
      </trkpt>
      <trkpt lat="51.030801963061094" lon="14.533633030951023">
        <ele>338.04000000000002</ele>
        <time>2024-09-18T14:23:00Z</time>
      </trkpt>
      <trkpt lat="51.030924003571272" lon="14.533667983487248">
        <ele>336.60000000000002</ele>
        <time>2024-09-18T14:23:01Z</time>
      </trkpt>
      <trkpt lat="51.031041014939547" lon="14.533661026507616">
        <ele>335.63999999999999</ele>
        <time>2024-09-18T14:23:02Z</time>
      </trkpt>
      <trkpt lat="51.031166994944215" lon="14.533610986545682">
        <ele>334.19999999999999</ele>
        <time>2024-09-18T14:23:03Z</time>
      </trkpt>
      <trkpt lat="51.031303033232689" lon="14.533558012917638">
        <ele>333.23000000000002</ele>
        <time>2024-09-18T14:23:04Z</time>
      </trkpt>
      <trkpt lat="51.031438987702131" lon="14.533505039289594">
        <ele>331.79000000000002</ele>
        <time>2024-09-18T14:23:05Z</time>
      </trkpt>
      <trkpt lat="51.03156597353518" lon="14.533472014591098">
        <ele>330.82999999999998</ele>
        <time>2024-09-18T14:23:06Z</time>
      </trkpt>
      <trkpt lat="51.032216995954514" lon="14.533436978235841">
        <ele>327.47000000000003</ele>
        <time>2024-09-18T14:23:13Z</time>
      </trkpt>
      <trkpt lat="51.032310035079718" lon="14.53343203291297">
        <ele>326.99000000000001</ele>
        <time>2024-09-18T14:23:14Z</time>
      </trkpt>
      <trkpt lat="51.032378012314439" lon="14.533374030143023">
        <ele>326.99000000000001</ele>
        <time>2024-09-18T14:23:15Z</time>
      </trkpt>
      <trkpt lat="51.032459987327456" lon="14.53330404125154">
        <ele>326.99000000000001</ele>
        <time>2024-09-18T14:23:16Z</time>
      </trkpt>
      <trkpt lat="51.032545985653996" lon="14.533231034874916">
        <ele>326.5</ele>
        <time>2024-09-18T14:23:17Z</time>
      </trkpt>
      <trkpt lat="51.032636007294059" lon="14.53315501101315">
        <ele>326.5</ele>
        <time>2024-09-18T14:23:18Z</time>
      </trkpt>
      <trkpt lat="51.033232966437936" lon="14.532299973070621">
        <ele>328.43000000000001</ele>
        <time>2024-09-18T14:23:26Z</time>
      </trkpt>
      <trkpt lat="51.033687014132738" lon="14.530926011502743">
        <ele>332.26999999999998</ele>
        <time>2024-09-18T14:23:35Z</time>
      </trkpt>
      <trkpt lat="51.033910978585482" lon="14.52986704185605">
        <ele>334.68000000000001</ele>
        <time>2024-09-18T14:23:43Z</time>
      </trkpt>
      <trkpt lat="51.03401399217546" lon="14.528899015858769">
        <ele>335.16000000000003</ele>
        <time>2024-09-18T14:23:52Z</time>
      </trkpt>
      <trkpt lat="51.034021032974124" lon="14.528831038624048">
        <ele>335.16000000000003</ele>
        <time>2024-09-18T14:23:54Z</time>
      </trkpt>
      <trkpt lat="51.034065037965775" lon="14.528798013925552">
        <ele>335.16000000000003</ele>
        <time>2024-09-18T14:23:55Z</time>
      </trkpt>
      <trkpt lat="51.034102002158761" lon="14.528818968683481">
        <ele>335.16000000000003</ele>
        <time>2024-09-18T14:23:56Z</time>
      </trkpt>
      <trkpt lat="51.034224964678288" lon="14.528890969231725">
        <ele>335.63999999999999</ele>
        <time>2024-09-18T14:23:59Z</time>
      </trkpt>
      <trkpt lat="51.034298976883292" lon="14.528859034180641">
        <ele>335.16000000000003</ele>
        <time>2024-09-18T14:24:00Z</time>
      </trkpt>
      <trkpt lat="51.034316997975111" lon="14.528777981176972">
        <ele>335.16000000000003</ele>
        <time>2024-09-18T14:24:01Z</time>
      </trkpt>
      <trkpt lat="51.034338036552072" lon="14.528679996728897">
        <ele>335.16000000000003</ele>
        <time>2024-09-18T14:24:02Z</time>
      </trkpt>
      <trkpt lat="51.034362008795142" lon="14.528573965653777">
        <ele>335.16000000000003</ele>
        <time>2024-09-18T14:24:03Z</time>
      </trkpt>
      <trkpt lat="51.034384975209832" lon="14.52847003005445">
        <ele>335.16000000000003</ele>
        <time>2024-09-18T14:24:04Z</time>
      </trkpt>
      <trkpt lat="51.034410037100315" lon="14.528357964009047">
        <ele>335.16000000000003</ele>
        <time>2024-09-18T14:24:05Z</time>
      </trkpt>
      <trkpt lat="51.034559989348054" lon="14.527674000710249">
        <ele>334.19999999999999</ele>
        <time>2024-09-18T14:24:11Z</time>
      </trkpt>
      <trkpt lat="51.034610029309988" lon="14.52733201906085">
        <ele>332.75</ele>
        <time>2024-09-18T14:24:14Z</time>
      </trkpt>
      <trkpt lat="51.034612962976098" lon="14.527218025177717">
        <ele>331.79000000000002</ele>
        <time>2024-09-18T14:24:15Z</time>
      </trkpt>
      <trkpt lat="51.034617992118001" lon="14.527003029361367">
        <ele>330.82999999999998</ele>
        <time>2024-09-18T14:24:17Z</time>
      </trkpt>
      <trkpt lat="51.034621009603143" lon="14.526908984407783">
        <ele>330.35000000000002</ele>
        <time>2024-09-18T14:24:18Z</time>
      </trkpt>
      <trkpt lat="51.034623021259904" lon="14.526827009394765">
        <ele>329.87</ele>
        <time>2024-09-18T14:24:19Z</time>
      </trkpt>
      <trkpt lat="51.034625032916665" lon="14.526759032160044">
        <ele>329.38999999999999</ele>
        <time>2024-09-18T14:24:20Z</time>
      </trkpt>
      <trkpt lat="51.034626038745046" lon="14.526693988591433">
        <ele>328.91000000000003</ele>
        <time>2024-09-18T14:24:21Z</time>
      </trkpt>
      <trkpt lat="51.034627966582775" lon="14.526650989428163">
        <ele>327.94999999999999</ele>
        <time>2024-09-18T14:24:22Z</time>
      </trkpt>
      <trkpt lat="51.034563006833196" lon="14.526308001950383">
        <ele>326.99000000000001</ele>
        <time>2024-09-18T14:24:24Z</time>
      </trkpt>
      <trkpt lat="51.034563006833196" lon="14.526308001950383">
        <ele>326.5</ele>
        <time>2024-09-18T14:24:25Z</time>
      </trkpt>
      <trkpt lat="51.034545991569757" lon="14.526196019724011">
        <ele>325.54000000000002</ele>
        <time>2024-09-18T14:24:26Z</time>
      </trkpt>
      <trkpt lat="51.034525958821177" lon="14.52606501057744">
        <ele>325.06</ele>
        <time>2024-09-18T14:24:27Z</time>
      </trkpt>
      <trkpt lat="51.034523025155067" lon="14.525927966460586">
        <ele>324.10000000000002</ele>
        <time>2024-09-18T14:24:28Z</time>
      </trkpt>
      <trkpt lat="51.034531993791461" lon="14.525594031438231">
        <ele>322.66000000000003</ele>
        <time>2024-09-18T14:24:30Z</time>
      </trkpt>
      <trkpt lat="51.034588990733027" lon="14.52355002053082">
        <ele>320.25999999999999</ele>
        <time>2024-09-18T14:24:39Z</time>
      </trkpt>
      <trkpt lat="51.034603994339705" lon="14.521977994590998">
        <ele>320.25999999999999</ele>
        <time>2024-09-18T14:24:46Z</time>
      </trkpt>
      <trkpt lat="51.034584967419505" lon="14.521848997101188">
        <ele>320.25999999999999</ele>
        <time>2024-09-18T14:24:47Z</time>
      </trkpt>
      <trkpt lat="51.034544985741377" lon="14.521754030138254">
        <ele>320.25999999999999</ele>
        <time>2024-09-18T14:24:48Z</time>
      </trkpt>
      <trkpt lat="51.034511961042881" lon="14.521680017933249">
        <ele>320.25999999999999</ele>
        <time>2024-09-18T14:24:49Z</time>
      </trkpt>
      <trkpt lat="51.03444498963654" lon="14.521451024338603">
        <ele>320.74000000000001</ele>
        <time>2024-09-18T14:24:52Z</time>
      </trkpt>
      <trkpt lat="51.034462004899979" lon="14.521373994648457">
        <ele>321.22000000000003</ele>
        <time>2024-09-18T14:24:53Z</time>
      </trkpt>
      <trkpt lat="51.03457398712635" lon="14.521032012999058">
        <ele>321.22000000000003</ele>
        <time>2024-09-18T14:24:56Z</time>
      </trkpt>
      <trkpt lat="51.034653028473258" lon="14.520962024107575">
        <ele>321.22000000000003</ele>
        <time>2024-09-18T14:24:57Z</time>
      </trkpt>
      <trkpt lat="51.034712959080935" lon="14.520921958610415">
        <ele>321.22000000000003</ele>
        <time>2024-09-18T14:24:58Z</time>
      </trkpt>
      <trkpt lat="51.0347889829427" lon="14.520965963602066">
        <ele>321.69999999999999</ele>
        <time>2024-09-18T14:24:59Z</time>
      </trkpt>
      <trkpt lat="51.034868024289608" lon="14.521011980250478">
        <ele>321.69999999999999</ele>
        <time>2024-09-18T14:25:00Z</time>
      </trkpt>
      <trkpt lat="51.034956034272909" lon="14.521064031869173">
        <ele>321.69999999999999</ele>
        <time>2024-09-18T14:25:01Z</time>
      </trkpt>
      <trkpt lat="51.035049995407462" lon="14.521119017153978">
        <ele>321.69999999999999</ele>
        <time>2024-09-18T14:25:02Z</time>
      </trkpt>
      <trkpt lat="51.036150958389044" lon="14.521714970469475">
        <ele>321.22000000000003</ele>
        <time>2024-09-18T14:25:14Z</time>
      </trkpt>
      <trkpt lat="51.037305984646082" lon="14.522206988185644">
        <ele>320.25999999999999</ele>
        <time>2024-09-18T14:25:26Z</time>
      </trkpt>
      <trkpt lat="51.038231011480093" lon="14.522601021453738">
        <ele>319.30000000000001</ele>
        <time>2024-09-18T14:25:35Z</time>
      </trkpt>
      <trkpt lat="51.038542985916138" lon="14.522733958438039">
        <ele>318.81</ele>
        <time>2024-09-18T14:25:38Z</time>
      </trkpt>
      <trkpt lat="51.038650022819638" lon="14.522779975086451">
        <ele>318.32999999999998</ele>
        <time>2024-09-18T14:25:39Z</time>
      </trkpt>
      <trkpt lat="51.038754964247346" lon="14.522823980078101">
        <ele>317.37</ele>
        <time>2024-09-18T14:25:40Z</time>
      </trkpt>
      <trkpt lat="51.039368016645312" lon="14.523085998371243">
        <ele>315.44999999999999</ele>
        <time>2024-09-18T14:25:46Z</time>
      </trkpt>
      <trkpt lat="51.040117023512721" lon="14.523392021656036">
        <ele>312.08999999999997</ele>
        <time>2024-09-18T14:25:55Z</time>
      </trkpt>
      <trkpt lat="51.040117023512721" lon="14.523392021656036">
        <ele>311.12</ele>
        <time>2024-09-18T14:26:02Z</time>
      </trkpt>
      <trkpt lat="51.040139989927411" lon="14.52340099029243">
        <ele>311.12</ele>
        <time>2024-09-18T14:26:05Z</time>
      </trkpt>
      <trkpt lat="51.040175026282668" lon="14.523367965593934">
        <ele>310.63999999999999</ele>
        <time>2024-09-18T14:26:06Z</time>
      </trkpt>
      <trkpt lat="51.040194975212216" lon="14.523291019722819">
        <ele>310.16000000000003</ele>
        <time>2024-09-18T14:26:08Z</time>
      </trkpt>
      <trkpt lat="51.040293965488672" lon="14.522912995889783">
        <ele>308.72000000000003</ele>
        <time>2024-09-18T14:26:12Z</time>
      </trkpt>
      <trkpt lat="51.040441989898682" lon="14.522355012595654">
        <ele>306.80000000000001</ele>
        <time>2024-09-18T14:26:20Z</time>
      </trkpt>
      <trkpt lat="51.040465962141752" lon="14.522273959591985">
        <ele>306.31999999999999</ele>
        <time>2024-09-18T14:26:21Z</time>
      </trkpt>
      <trkpt lat="51.040489012375474" lon="14.522193996235728">
        <ele>306.31999999999999</ele>
        <time>2024-09-18T14:26:22Z</time>
      </trkpt>
      <trkpt lat="51.040505021810532" lon="14.522132975980639">
        <ele>305.83999999999997</ele>
        <time>2024-09-18T14:26:23Z</time>
      </trkpt>
      <trkpt lat="51.040511978790164" lon="14.522101962938905">
        <ele>305.36000000000001</ele>
        <time>2024-09-18T14:26:24Z</time>
      </trkpt>
      <trkpt lat="51.040511978790164" lon="14.522101962938905">
        <ele>304.88</ele>
        <time>2024-09-18T14:26:36Z</time>
      </trkpt>
      <trkpt lat="51.040526982396841" lon="14.522044965997338">
        <ele>305.36000000000001</ele>
        <time>2024-09-18T14:26:54Z</time>
      </trkpt>
      <trkpt lat="51.040543997660279" lon="14.521975982934237">
        <ele>305.83999999999997</ele>
        <time>2024-09-18T14:26:55Z</time>
      </trkpt>
      <trkpt lat="51.040569981560111" lon="14.521870035678148">
        <ele>307.75999999999999</ele>
        <time>2024-09-18T14:27:02Z</time>
      </trkpt>
      <trkpt lat="51.04069503955543" lon="14.521474996581674">
        <ele>307.27999999999997</ele>
        <time>2024-09-18T14:27:10Z</time>
      </trkpt>
      <trkpt lat="51.040871981531382" lon="14.520815005525947">
        <ele>307.27999999999997</ele>
        <time>2024-09-18T14:27:14Z</time>
      </trkpt>
      <trkpt lat="51.040871981531382" lon="14.520577965304255">
        <ele>307.75999999999999</ele>
        <time>2024-09-18T14:27:15Z</time>
      </trkpt>
      <trkpt lat="51.040929984301329" lon="14.519958039745688">
        <ele>308.72000000000003</ele>
        <time>2024-09-18T14:27:18Z</time>
      </trkpt>
      <trkpt lat="51.040944987908006" lon="14.519753018394113">
        <ele>309.68000000000001</ele>
        <time>2024-09-18T14:27:19Z</time>
      </trkpt>
      <trkpt lat="51.040959991514683" lon="14.519545985385776">
        <ele>310.16000000000003</ele>
        <time>2024-09-18T14:27:20Z</time>
      </trkpt>
      <trkpt lat="51.041028974577785" lon="14.518922958523035">
        <ele>311.60000000000002</ele>
        <time>2024-09-18T14:27:23Z</time>
      </trkpt>
      <trkpt lat="51.041069962084293" lon="14.518729001283646">
        <ele>312.08999999999997</ele>
        <time>2024-09-18T14:27:24Z</time>
      </trkpt>
      <trkpt lat="51.04119099676609" lon="14.518368998542428">
        <ele>312.56999999999999</ele>
        <time>2024-09-18T14:27:26Z</time>
      </trkpt>
      <trkpt lat="51.041262997314334" lon="14.518216028809547">
        <ele>313.05000000000001</ele>
        <time>2024-09-18T14:27:27Z</time>
      </trkpt>
      <trkpt lat="51.042230017483234" lon="14.516765959560871">
        <ele>308.24000000000001</ele>
        <time>2024-09-18T14:27:38Z</time>
      </trkpt>
      <trkpt lat="51.043260991573334" lon="14.515368025749922">
        <ele>307.27999999999997</ele>
        <time>2024-09-18T14:27:49Z</time>
      </trkpt>
      <trkpt lat="51.043396024033427" lon="14.515280015766621">
        <ele>308.24000000000001</ele>
        <time>2024-09-18T14:27:50Z</time>
      </trkpt>
      <trkpt lat="51.043539019301534" lon="14.515187982469797">
        <ele>309.19999999999999</ele>
        <time>2024-09-18T14:27:51Z</time>
      </trkpt>
      <trkpt lat="51.043699029833078" lon="14.51515001244843">
        <ele>311.12</ele>
        <time>2024-09-18T14:27:52Z</time>
      </trkpt>
      <trkpt lat="51.043864991515875" lon="14.51515001244843">
        <ele>312.56999999999999</ele>
        <time>2024-09-18T14:27:53Z</time>
      </trkpt>
      <trkpt lat="51.044035982340574" lon="14.51515001244843">
        <ele>314.00999999999999</ele>
        <time>2024-09-18T14:27:54Z</time>
      </trkpt>
      <trkpt lat="51.044560018926859" lon="14.51515001244843">
        <ele>318.81</ele>
        <time>2024-09-18T14:27:57Z</time>
      </trkpt>
      <trkpt lat="51.044731009751558" lon="14.515108019113541">
        <ele>320.25999999999999</ele>
        <time>2024-09-18T14:27:58Z</time>
      </trkpt>
      <trkpt lat="51.044893031939864" lon="14.515011962503195">
        <ele>321.69999999999999</ele>
        <time>2024-09-18T14:27:59Z</time>
      </trkpt>
      <trkpt lat="51.045038960874081" lon="14.514864021912217">
        <ele>322.66000000000003</ele>
        <time>2024-09-18T14:28:00Z</time>
      </trkpt>
      <trkpt lat="51.045171981677413" lon="14.51467601582408">
        <ele>324.10000000000002</ele>
        <time>2024-09-18T14:28:01Z</time>
      </trkpt>
      <trkpt lat="51.045309025794268" lon="14.514480968937278">
        <ele>324.57999999999998</ele>
        <time>2024-09-18T14:28:02Z</time>
      </trkpt>
      <trkpt lat="51.046624984592199" lon="14.512506024912">
        <ele>333.23000000000002</ele>
        <time>2024-09-18T14:28:11Z</time>
      </trkpt>
      <trkpt lat="51.047419002279639" lon="14.511487958952785">
        <ele>337.07999999999998</ele>
        <time>2024-09-18T14:28:17Z</time>
      </trkpt>
      <trkpt lat="51.04866698384285" lon="14.510542983189225">
        <ele>337.56</ele>
        <time>2024-09-18T14:28:28Z</time>
      </trkpt>
      <trkpt lat="51.048977030441165" lon="14.510308038443327">
        <ele>337.56</ele>
        <time>2024-09-18T14:28:32Z</time>
      </trkpt>
      <trkpt lat="51.049688989296556" lon="14.509772015735507">
        <ele>339</ele>
        <time>2024-09-18T14:28:41Z</time>
      </trkpt>
      <trkpt lat="51.051145009696484" lon="14.508664011955261">
        <ele>339.48000000000002</ele>
        <time>2024-09-18T14:28:55Z</time>
      </trkpt>
      <trkpt lat="51.05223398655653" lon="14.507850967347622">
        <ele>342.37</ele>
        <time>2024-09-18T14:29:05Z</time>
      </trkpt>
      <trkpt lat="51.053448021411896" lon="14.506953014060855">
        <ele>344.29000000000002</ele>
        <time>2024-09-18T14:29:16Z</time>
      </trkpt>
      <trkpt lat="51.054423004388809" lon="14.50619000941515">
        <ele>336.60000000000002</ele>
        <time>2024-09-18T14:29:25Z</time>
      </trkpt>
      <trkpt lat="51.055507035925984" lon="14.505366990342736">
        <ele>326.01999999999998</ele>
        <time>2024-09-18T14:29:35Z</time>
      </trkpt>
      <trkpt lat="51.055612983182073" lon="14.505286021158099">
        <ele>325.06</ele>
        <time>2024-09-18T14:29:36Z</time>
      </trkpt>
      <trkpt lat="51.057022986933589" lon="14.504219004884362">
        <ele>320.74000000000001</ele>
        <time>2024-09-18T14:29:49Z</time>
      </trkpt>
      <trkpt lat="51.057728994637728" lon="14.503681976348162">
        <ele>318.32999999999998</ele>
        <time>2024-09-18T14:29:57Z</time>
      </trkpt>
      <trkpt lat="51.058038035407662" lon="14.503451976925135">
        <ele>315.44999999999999</ele>
        <time>2024-09-18T14:30:02Z</time>
      </trkpt>
      <trkpt lat="51.058123027905822" lon="14.503380982205272">
        <ele>313.52999999999997</ele>
        <time>2024-09-18T14:30:06Z</time>
      </trkpt>
      <trkpt lat="51.058137025684118" lon="14.503368996083736">
        <ele>313.05000000000001</ele>
        <time>2024-09-18T14:30:07Z</time>
      </trkpt>
      <trkpt lat="51.058153035119176" lon="14.503356004133821">
        <ele>312.08999999999997</ele>
        <time>2024-09-18T14:30:08Z</time>
      </trkpt>
      <trkpt lat="51.058315979316831" lon="14.503219965845346">
        <ele>310.16000000000003</ele>
        <time>2024-09-18T14:30:13Z</time>
      </trkpt>
      <trkpt lat="51.058344980701804" lon="14.503135979175568">
        <ele>309.68000000000001</ele>
        <time>2024-09-18T14:30:14Z</time>
      </trkpt>
      <trkpt lat="51.058376999571919" lon="14.503037994727492">
        <ele>309.19999999999999</ele>
        <time>2024-09-18T14:30:15Z</time>
      </trkpt>
      <trkpt lat="51.058412035927176" lon="14.502933975309134">
        <ele>308.72000000000003</ele>
        <time>2024-09-18T14:30:16Z</time>
      </trkpt>
      <trkpt lat="51.058449000120163" lon="14.502821993082762">
        <ele>308.24000000000001</ele>
        <time>2024-09-18T14:30:17Z</time>
      </trkpt>
      <trkpt lat="51.05848697014153" lon="14.502709005028009">
        <ele>307.75999999999999</ele>
        <time>2024-09-18T14:30:18Z</time>
      </trkpt>
      <trkpt lat="51.058682017028332" lon="14.502254035323858">
        <ele>305.36000000000001</ele>
        <time>2024-09-18T14:30:22Z</time>
      </trkpt>
      <trkpt lat="51.059461031109095" lon="14.501022985205054">
        <ele>304.88</ele>
        <time>2024-09-18T14:30:34Z</time>
      </trkpt>
      <trkpt lat="51.059549963101745" lon="14.500934975221753">
        <ele>305.36000000000001</ele>
        <time>2024-09-18T14:30:35Z</time>
      </trkpt>
      <trkpt lat="51.059635961428285" lon="14.500848976895213">
        <ele>306.31999999999999</ele>
        <time>2024-09-18T14:30:36Z</time>
      </trkpt>
      <trkpt lat="51.059727994725108" lon="14.500780999660492">
        <ele>306.80000000000001</ele>
        <time>2024-09-18T14:30:37Z</time>
      </trkpt>
      <trkpt lat="51.059821033850312" lon="14.500727020204067">
        <ele>307.27999999999997</ele>
        <time>2024-09-18T14:30:38Z</time>
      </trkpt>
      <trkpt lat="51.05992597527802" lon="14.500665999948978">
        <ele>307.75999999999999</ele>
        <time>2024-09-18T14:30:39Z</time>
      </trkpt>
      <trkpt lat="51.060864999890327" lon="14.49985396116972">
        <ele>314.00999999999999</ele>
        <time>2024-09-18T14:30:48Z</time>
      </trkpt>
      <trkpt lat="51.062293024733663" lon="14.498616037890315">
        <ele>321.22000000000003</ele>
        <time>2024-09-18T14:31:01Z</time>
      </trkpt>
      <trkpt lat="51.063313018530607" lon="14.497737027704716">
        <ele>328.43000000000001</ele>
        <time>2024-09-18T14:31:08Z</time>
      </trkpt>
      <trkpt lat="51.064537027850747" lon="14.496674034744501">
        <ele>339</ele>
        <time>2024-09-18T14:31:14Z</time>
      </trkpt>
      <trkpt lat="51.066330000758171" lon="14.49516898021102">
        <ele>351.01999999999998</ele>
        <time>2024-09-18T14:31:24Z</time>
      </trkpt>
      <trkpt lat="51.067484021186829" lon="14.494385020807385">
        <ele>351.5</ele>
        <time>2024-09-18T14:31:29Z</time>
      </trkpt>
      <trkpt lat="51.068597976118326" lon="14.493631990626454">
        <ele>352.94</ele>
        <time>2024-09-18T14:31:35Z</time>
      </trkpt>
      <trkpt lat="51.069582011550665" lon="14.492968982085586">
        <ele>359.19</ele>
        <time>2024-09-18T14:31:43Z</time>
      </trkpt>
      <trkpt lat="51.070630000904202" lon="14.492231961339712">
        <ele>366.88</ele>
        <time>2024-09-18T14:31:52Z</time>
      </trkpt>
      <trkpt lat="51.072006979957223" lon="14.491277011111379">
        <ele>372.64999999999998</ele>
        <time>2024-09-18T14:32:02Z</time>
      </trkpt>
      <trkpt lat="51.073631979525089" lon="14.490180993452668">
        <ele>378.89999999999998</ele>
        <time>2024-09-18T14:32:15Z</time>
      </trkpt>
      <trkpt lat="51.07479396276176" lon="14.489382030442357">
        <ele>384.18000000000001</ele>
        <time>2024-09-18T14:32:25Z</time>
      </trkpt>
      <trkpt lat="51.075161006301641" lon="14.489122023805976">
        <ele>385.14999999999998</ele>
        <time>2024-09-18T14:32:28Z</time>
      </trkpt>
      <trkpt lat="51.076054014265537" lon="14.487891979515553">
        <ele>380.33999999999997</ele>
        <time>2024-09-18T14:32:36Z</time>
      </trkpt>
      <trkpt lat="51.076762033626437" lon="14.486925965175033">
        <ele>372.17000000000002</ele>
        <time>2024-09-18T14:32:42Z</time>
      </trkpt>
      <trkpt lat="51.076884996145964" lon="14.486859999597073">
        <ele>371.20999999999998</ele>
        <time>2024-09-18T14:32:43Z</time>
      </trkpt>
      <trkpt lat="51.076997984200716" lon="14.486798979341984">
        <ele>369.75999999999999</ele>
        <time>2024-09-18T14:32:44Z</time>
      </trkpt>
      <trkpt lat="51.077102003619075" lon="14.486795039847493">
        <ele>368.80000000000001</ele>
        <time>2024-09-18T14:32:45Z</time>
      </trkpt>
      <trkpt lat="51.077218009158969" lon="14.486813982948661">
        <ele>367.36000000000001</ele>
        <time>2024-09-18T14:32:46Z</time>
      </trkpt>
      <trkpt lat="51.077329991385341" lon="14.486872991546988">
        <ele>365.92000000000002</ele>
        <time>2024-09-18T14:32:47Z</time>
      </trkpt>
      <trkpt lat="51.077439961954951" lon="14.486990002915263">
        <ele>364.95999999999998</ele>
        <time>2024-09-18T14:32:48Z</time>
      </trkpt>
      <trkpt lat="51.077551022171974" lon="14.487107014283538">
        <ele>363.51999999999998</ele>
        <time>2024-09-18T14:32:49Z</time>
      </trkpt>
      <trkpt lat="51.077653029933572" lon="14.487237017601728">
        <ele>362.06999999999999</ele>
        <time>2024-09-18T14:32:50Z</time>
      </trkpt>
      <trkpt lat="51.077737016603351" lon="14.487397028133273">
        <ele>361.11000000000001</ele>
        <time>2024-09-18T14:32:51Z</time>
      </trkpt>
      <trkpt lat="51.077821003273129" lon="14.487556032836437">
        <ele>360.14999999999998</ele>
        <time>2024-09-18T14:32:52Z</time>
      </trkpt>
      <trkpt lat="51.078342022374272" lon="14.489008029922843">
        <ele>351.01999999999998</ele>
        <time>2024-09-18T14:33:01Z</time>
      </trkpt>
      <trkpt lat="51.078463979065418" lon="14.489658968523145">
        <ele>346.69</ele>
        <time>2024-09-18T14:33:05Z</time>
      </trkpt>
      <trkpt lat="51.078488035127521" lon="14.48979701846838">
        <ele>345.25</ele>
        <time>2024-09-18T14:33:06Z</time>
      </trkpt>
      <trkpt lat="51.078513013198972" lon="14.489919980987906">
        <ele>344.29000000000002</ele>
        <time>2024-09-18T14:33:07Z</time>
      </trkpt>
      <trkpt lat="51.078580990433693" lon="14.489987958222628">
        <ele>342.85000000000002</ele>
        <time>2024-09-18T14:33:08Z</time>
      </trkpt>
      <trkpt lat="51.078647961840034" lon="14.490055013448">
        <ele>341.88999999999999</ele>
        <time>2024-09-18T14:33:09Z</time>
      </trkpt>
      <trkpt lat="51.078715017065406" lon="14.490102035924792">
        <ele>340.44</ele>
        <time>2024-09-18T14:33:10Z</time>
      </trkpt>
      <trkpt lat="51.078799003735185" lon="14.490059958770871">
        <ele>339.48000000000002</ele>
        <time>2024-09-18T14:33:11Z</time>
      </trkpt>
      <trkpt lat="51.078891959041357" lon="14.489998016506433">
        <ele>338.51999999999998</ele>
        <time>2024-09-18T14:33:12Z</time>
      </trkpt>
      <trkpt lat="51.078963037580252" lon="14.489861978217959">
        <ele>337.56</ele>
        <time>2024-09-18T14:33:13Z</time>
      </trkpt>
      <trkpt lat="51.079018022865057" lon="14.489695010706782">
        <ele>336.12</ele>
        <time>2024-09-18T14:33:14Z</time>
      </trkpt>
      <trkpt lat="51.079070996493101" lon="14.489524019882083">
        <ele>335.16000000000003</ele>
        <time>2024-09-18T14:33:15Z</time>
      </trkpt>
      <trkpt lat="51.079105027019978" lon="14.489338025450706">
        <ele>333.70999999999998</ele>
        <time>2024-09-18T14:33:16Z</time>
      </trkpt>
      <trkpt lat="51.07911198399961" lon="14.489144990220666">
        <ele>332.75</ele>
        <time>2024-09-18T14:33:17Z</time>
      </trkpt>
      <trkpt lat="51.079116007313132" lon="14.488944998010993">
        <ele>331.79000000000002</ele>
        <time>2024-09-18T14:33:18Z</time>
      </trkpt>
      <trkpt lat="51.079120030626655" lon="14.488736037164927">
        <ele>330.35000000000002</ele>
        <time>2024-09-18T14:33:19Z</time>
      </trkpt>
      <trkpt lat="51.079169986769557" lon="14.486786993220448">
        <ele>323.13999999999999</ele>
        <time>2024-09-18T14:33:27Z</time>
      </trkpt>
      <trkpt lat="51.079303007572889" lon="14.485554015263915">
        <ele>319.30000000000001</ele>
        <time>2024-09-18T14:33:32Z</time>
      </trkpt>
      <trkpt lat="51.079377019777894" lon="14.485322004184127">
        <ele>318.81</ele>
        <time>2024-09-18T14:33:33Z</time>
      </trkpt>
      <trkpt lat="51.079472992569208" lon="14.485106002539396">
        <ele>317.85000000000002</ele>
        <time>2024-09-18T14:33:34Z</time>
      </trkpt>
      <trkpt lat="51.079607019200921" lon="14.484959989786148">
        <ele>317.37</ele>
        <time>2024-09-18T14:33:35Z</time>
      </trkpt>
      <trkpt lat="51.079750014469028" lon="14.484853036701679">
        <ele>316.41000000000003</ele>
        <time>2024-09-18T14:33:36Z</time>
      </trkpt>
      <trkpt lat="51.079904995858669" lon="14.484776007011533">
        <ele>315.44999999999999</ele>
        <time>2024-09-18T14:33:37Z</time>
      </trkpt>
      <trkpt lat="51.080059977248311" lon="14.484700988978148">
        <ele>314.97000000000003</ele>
        <time>2024-09-18T14:33:38Z</time>
      </trkpt>
      <trkpt lat="51.080215964466333" lon="14.48468598537147">
        <ele>314.00999999999999</ele>
        <time>2024-09-18T14:33:39Z</time>
      </trkpt>
      <trkpt lat="51.080364994704723" lon="14.484671987593174">
        <ele>313.05000000000001</ele>
        <time>2024-09-18T14:33:40Z</time>
      </trkpt>
      <trkpt lat="51.0812399815768" lon="14.484589006751776">
        <ele>307.75999999999999</ele>
        <time>2024-09-18T14:33:48Z</time>
      </trkpt>
      <trkpt lat="51.082288976758718" lon="14.484393037855625">
        <ele>306.80000000000001</ele>
        <time>2024-09-18T14:33:57Z</time>
      </trkpt>
      <trkpt lat="51.083229007199407" lon="14.483821978792548">
        <ele>302.47000000000003</ele>
        <time>2024-09-18T14:34:03Z</time>
      </trkpt>
      <trkpt lat="51.084473971277475" lon="14.482805002480745">
        <ele>297.67000000000002</ele>
        <time>2024-09-18T14:34:09Z</time>
      </trkpt>
      <trkpt lat="51.085997968912125" lon="14.481562972068787">
        <ele>293.81999999999999</ele>
        <time>2024-09-18T14:34:17Z</time>
      </trkpt>
      <trkpt lat="51.087951036170125" lon="14.479907965287566">
        <ele>280.83999999999997</ele>
        <time>2024-09-18T14:34:25Z</time>
      </trkpt>
      <trkpt lat="51.089866971597075" lon="14.478256981819868">
        <ele>268.82999999999998</ele>
        <time>2024-09-18T14:34:34Z</time>
      </trkpt>
      <trkpt lat="51.092343991622329" lon="14.476138036698103">
        <ele>259.69</ele>
        <time>2024-09-18T14:34:46Z</time>
      </trkpt>
      <trkpt lat="51.09324999153614" lon="14.475366985425353">
        <ele>257.29000000000002</ele>
        <time>2024-09-18T14:34:52Z</time>
      </trkpt>
      <trkpt lat="51.094226986169815" lon="14.474529968574643">
        <ele>255.84999999999999</ele>
        <time>2024-09-18T14:35:01Z</time>
      </trkpt>
      <trkpt lat="51.095730029046535" lon="14.473276035860181">
        <ele>254.41</ele>
        <time>2024-09-18T14:35:15Z</time>
      </trkpt>
      <trkpt lat="51.096361018717289" lon="14.472663989290595">
        <ele>252</ele>
        <time>2024-09-18T14:35:21Z</time>
      </trkpt>
      <trkpt lat="51.096971975639462" lon="14.471528995782137">
        <ele>248.16</ele>
        <time>2024-09-18T14:35:29Z</time>
      </trkpt>
      <trkpt lat="51.09761000610888" lon="14.469704004004598">
        <ele>245.27000000000001</ele>
        <time>2024-09-18T14:35:40Z</time>
      </trkpt>
      <trkpt lat="51.097758030518889" lon="14.469391023740172">
        <ele>245.27000000000001</ele>
        <time>2024-09-18T14:35:42Z</time>
      </trkpt>
      <trkpt lat="51.098301010206342" lon="14.468531040474772">
        <ele>243.83000000000001</ele>
        <time>2024-09-18T14:35:50Z</time>
      </trkpt>
      <trkpt lat="51.098345015197992" lon="14.468465996906161">
        <ele>243.83000000000001</ele>
        <time>2024-09-18T14:35:51Z</time>
      </trkpt>
      <trkpt lat="51.098358007147908" lon="14.468299029394984">
        <ele>243.83000000000001</ele>
        <time>2024-09-18T14:35:52Z</time>
      </trkpt>
      <trkpt lat="51.098332023248076" lon="14.468154022470117">
        <ele>243.34999999999999</ele>
        <time>2024-09-18T14:35:53Z</time>
      </trkpt>
      <trkpt lat="51.098316013813019" lon="14.467980014160275">
        <ele>243.34999999999999</ele>
        <time>2024-09-18T14:35:54Z</time>
      </trkpt>
      <trkpt lat="51.098321964964271" lon="14.467792008072138">
        <ele>243.34999999999999</ele>
        <time>2024-09-18T14:35:55Z</time>
      </trkpt>
      <trkpt lat="51.098327999934554" lon="14.467597967013717">
        <ele>242.87</ele>
        <time>2024-09-18T14:35:56Z</time>
      </trkpt>
      <trkpt lat="51.098291035741568" lon="14.467037972062826">
        <ele>241.91</ele>
        <time>2024-09-18T14:35:59Z</time>
      </trkpt>
      <trkpt lat="51.098014013841748" lon="14.464978035539389">
        <ele>241.43000000000001</ele>
        <time>2024-09-18T14:36:10Z</time>
      </trkpt>
      <trkpt lat="51.097992975264788" lon="14.464781982824206">
        <ele>241.43000000000001</ele>
        <time>2024-09-18T14:36:11Z</time>
      </trkpt>
      <trkpt lat="51.098047960549593" lon="14.464412005618215">
        <ele>242.38999999999999</ele>
        <time>2024-09-18T14:36:13Z</time>
      </trkpt>
      <trkpt lat="51.098075034096837" lon="14.464225005358458">
        <ele>242.38999999999999</ele>
        <time>2024-09-18T14:36:14Z</time>
      </trkpt>
      <trkpt lat="51.098140999674797" lon="14.464071029797196">
        <ele>242.38999999999999</ele>
        <time>2024-09-18T14:36:15Z</time>
      </trkpt>
      <trkpt lat="51.098208976909518" lon="14.463919987902045">
        <ele>242.38999999999999</ele>
        <time>2024-09-18T14:36:16Z</time>
      </trkpt>
      <trkpt lat="51.098277037963271" lon="14.463770035654306">
        <ele>242.38999999999999</ele>
        <time>2024-09-18T14:36:17Z</time>
      </trkpt>
      <trkpt lat="51.098398994654417" lon="14.463440962135792">
        <ele>241.91</ele>
        <time>2024-09-18T14:36:19Z</time>
      </trkpt>
      <trkpt lat="51.098458003252745" lon="14.463278017938137">
        <ele>242.38999999999999</ele>
        <time>2024-09-18T14:36:20Z</time>
      </trkpt>
      <trkpt lat="51.098488010466099" lon="14.463100992143154">
        <ele>242.38999999999999</ele>
        <time>2024-09-18T14:36:21Z</time>
      </trkpt>
      <trkpt lat="51.098493039608002" lon="14.462916003540158">
        <ele>242.87</ele>
        <time>2024-09-18T14:36:22Z</time>
      </trkpt>
      <trkpt lat="51.098497984930873" lon="14.462724979966879">
        <ele>243.34999999999999</ele>
        <time>2024-09-18T14:36:23Z</time>
      </trkpt>
      <trkpt lat="51.098503014072776" lon="14.462536973878741">
        <ele>243.34999999999999</ele>
        <time>2024-09-18T14:36:24Z</time>
      </trkpt>
      <trkpt lat="51.098542995750904" lon="14.462160961702466">
        <ele>244.78999999999999</ele>
        <time>2024-09-18T14:36:26Z</time>
      </trkpt>
      <trkpt lat="51.098570991307497" lon="14.461977984756231">
        <ele>244.78999999999999</ele>
        <time>2024-09-18T14:36:27Z</time>
      </trkpt>
      <trkpt lat="51.098637040704489" lon="14.461828032508492">
        <ele>245.27000000000001</ele>
        <time>2024-09-18T14:36:28Z</time>
      </trkpt>
      <trkpt lat="51.099271969869733" lon="14.460132960230112">
        <ele>246.22999999999999</ele>
        <time>2024-09-18T14:36:37Z</time>
      </trkpt>
      <trkpt lat="51.100150980055332" lon="14.457537000998855">
        <ele>247.68000000000001</ele>
        <time>2024-09-18T14:36:47Z</time>
      </trkpt>
      <trkpt lat="51.100692031905055" lon="14.455871013924479">
        <ele>246.72</ele>
        <time>2024-09-18T14:36:53Z</time>
      </trkpt>
      <trkpt lat="51.10081197693944" lon="14.455617964267731">
        <ele>246.22999999999999</ele>
        <time>2024-09-18T14:36:54Z</time>
      </trkpt>
      <trkpt lat="51.101403990760446" lon="14.45406798273325">
        <ele>244.31</ele>
        <time>2024-09-18T14:37:01Z</time>
      </trkpt>
      <trkpt lat="51.101524019613862" lon="14.45344696752727">
        <ele>242.87</ele>
        <time>2024-09-18T14:37:05Z</time>
      </trkpt>
      <trkpt lat="51.101659974083304" lon="14.452352961525321">
        <ele>240.94999999999999</ele>
        <time>2024-09-18T14:37:11Z</time>
      </trkpt>
      <trkpt lat="51.101730968803167" lon="14.452190017327666">
        <ele>239.99000000000001</ele>
        <time>2024-09-18T14:37:12Z</time>
      </trkpt>
      <trkpt lat="51.101801041513681" lon="14.452036041766405">
        <ele>239.50999999999999</ele>
        <time>2024-09-18T14:37:13Z</time>
      </trkpt>
      <trkpt lat="51.101913023740053" lon="14.451734041795135">
        <ele>238.53999999999999</ele>
        <time>2024-09-18T14:37:15Z</time>
      </trkpt>
      <trkpt lat="51.101947976276278" lon="14.45157403126359">
        <ele>238.53999999999999</ele>
        <time>2024-09-18T14:37:16Z</time>
      </trkpt>
      <trkpt lat="51.102216029539704" lon="14.449831014499068">
        <ele>233.74000000000001</ele>
        <time>2024-09-18T14:37:25Z</time>
      </trkpt>
      <trkpt lat="51.102247964590788" lon="14.449636973440647">
        <ele>233.25999999999999</ele>
        <time>2024-09-18T14:37:26Z</time>
      </trkpt>
      <trkpt lat="51.102261040359735" lon="14.449435975402594">
        <ele>232.78</ele>
        <time>2024-09-18T14:37:27Z</time>
      </trkpt>
      <trkpt lat="51.102258022874594" lon="14.449237994849682">
        <ele>232.30000000000001</ele>
        <time>2024-09-18T14:37:28Z</time>
      </trkpt>
      <trkpt lat="51.10225198790431" lon="14.447940979152918">
        <ele>230.84999999999999</ele>
        <time>2024-09-18T14:37:35Z</time>
      </trkpt>
      <trkpt lat="51.10229498706758" lon="14.447791026905179">
        <ele>230.37</ele>
        <time>2024-09-18T14:37:36Z</time>
      </trkpt>
      <trkpt lat="51.102344021201134" lon="14.447651971131563">
        <ele>230.84999999999999</ele>
        <time>2024-09-18T14:37:37Z</time>
      </trkpt>
      <trkpt lat="51.102409986779094" lon="14.447520039975643">
        <ele>230.84999999999999</ele>
        <time>2024-09-18T14:37:38Z</time>
      </trkpt>
      <trkpt lat="51.102478969842196" lon="14.447381990030408">
        <ele>230.37</ele>
        <time>2024-09-18T14:37:39Z</time>
      </trkpt>
      <trkpt lat="51.1025529820472" lon="14.447263972833753">
        <ele>230.84999999999999</ele>
        <time>2024-09-18T14:37:40Z</time>
      </trkpt>
      <trkpt lat="51.102639986202121" lon="14.447169005870819">
        <ele>230.84999999999999</ele>
        <time>2024-09-18T14:37:41Z</time>
      </trkpt>
      <trkpt lat="51.102725984528661" lon="14.447075966745615">
        <ele>231.33000000000001</ele>
        <time>2024-09-18T14:37:42Z</time>
      </trkpt>
      <trkpt lat="51.102779963985085" lon="14.446931965649128">
        <ele>231.81</ele>
        <time>2024-09-18T14:37:43Z</time>
      </trkpt>
      <trkpt lat="51.10281097702682" lon="14.446787964552641">
        <ele>231.33000000000001</ele>
        <time>2024-09-18T14:37:44Z</time>
      </trkpt>
      <trkpt lat="51.102846013382077" lon="14.446630971506238">
        <ele>231.33000000000001</ele>
        <time>2024-09-18T14:37:45Z</time>
      </trkpt>
      <trkpt lat="51.102879960089922" lon="14.446475990116596">
        <ele>230.84999999999999</ele>
        <time>2024-09-18T14:37:46Z</time>
      </trkpt>
      <trkpt lat="51.102906027808785" lon="14.44635596126318">
        <ele>230.37</ele>
        <time>2024-09-18T14:37:47Z</time>
      </trkpt>
      <trkpt lat="51.102964030578732" lon="14.446269040927291">
        <ele>230.37</ele>
        <time>2024-09-18T14:37:48Z</time>
      </trkpt>
      <trkpt lat="51.103035025298595" lon="14.446163009852171">
        <ele>230.37</ele>
        <time>2024-09-18T14:37:49Z</time>
      </trkpt>
      <trkpt lat="51.103080036118627" lon="14.446152029559016">
        <ele>229.88999999999999</ele>
        <time>2024-09-18T14:37:50Z</time>
      </trkpt>
      <trkpt lat="51.103158993646502" lon="14.446131996810436">
        <ele>229.88999999999999</ele>
        <time>2024-09-18T14:37:51Z</time>
      </trkpt>
      <trkpt lat="51.103245997801423" lon="14.446110958233476">
        <ele>229.41</ele>
        <time>2024-09-18T14:37:52Z</time>
      </trkpt>
      <trkpt lat="51.103330990299582" lon="14.446066031232476">
        <ele>229.41</ele>
        <time>2024-09-18T14:37:53Z</time>
      </trkpt>
      <trkpt lat="51.103405002504587" lon="14.446005010977387">
        <ele>229.41</ele>
        <time>2024-09-18T14:37:54Z</time>
      </trkpt>
      <trkpt lat="51.10345303080976" lon="14.445895962417126">
        <ele>229.88999999999999</ele>
        <time>2024-09-18T14:37:55Z</time>
      </trkpt>
      <trkpt lat="51.103483038023114" lon="14.445807030424476">
        <ele>229.88999999999999</ele>
        <time>2024-09-18T14:37:56Z</time>
      </trkpt>
      <trkpt lat="51.103502986952662" lon="14.445745004341006">
        <ele>229.88999999999999</ele>
        <time>2024-09-18T14:37:57Z</time>
      </trkpt>
      <trkpt lat="51.103515978902578" lon="14.445706028491259">
        <ele>229.41</ele>
        <time>2024-09-18T14:37:58Z</time>
      </trkpt>
      <trkpt lat="51.103526037186384" lon="14.445678032934666">
        <ele>229.41</ele>
        <time>2024-09-18T14:37:59Z</time>
      </trkpt>
      <trkpt lat="51.103533999994397" lon="14.445650959387422">
        <ele>229.41</ele>
        <time>2024-09-18T14:38:00Z</time>
      </trkpt>
      <trkpt lat="51.103546991944313" lon="14.445613995194435">
        <ele>228.93000000000001</ele>
        <time>2024-09-18T14:38:09Z</time>
      </trkpt>
      <trkpt lat="51.103516984730959" lon="14.445521961897612">
        <ele>229.41</ele>
        <time>2024-09-18T14:38:10Z</time>
      </trkpt>
      <trkpt lat="51.103470968082547" lon="14.445506036281586">
        <ele>228.93000000000001</ele>
        <time>2024-09-18T14:38:11Z</time>
      </trkpt>
      <trkpt lat="51.103399973362684" lon="14.445480974391103">
        <ele>228.93000000000001</ele>
        <time>2024-09-18T14:38:12Z</time>
      </trkpt>
      <trkpt lat="51.103314980864525" lon="14.445450967177749">
        <ele>228.44999999999999</ele>
        <time>2024-09-18T14:38:13Z</time>
      </trkpt>
      <trkpt lat="51.102440999820828" lon="14.445180986076593">
        <ele>228.44999999999999</ele>
        <time>2024-09-18T14:38:20Z</time>
      </trkpt>
      <trkpt lat="51.102022994309664" lon="14.445038996636868">
        <ele>229.88999999999999</ele>
        <time>2024-09-18T14:38:24Z</time>
      </trkpt>
      <trkpt lat="51.101757036522031" lon="14.444864988327026">
        <ele>230.37</ele>
        <time>2024-09-18T14:38:26Z</time>
      </trkpt>
      <trkpt lat="51.100385002791882" lon="14.443651959300041">
        <ele>231.33000000000001</ele>
        <time>2024-09-18T14:38:36Z</time>
      </trkpt>
      <trkpt lat="51.100258016958833" lon="14.443504018709064">
        <ele>231.33000000000001</ele>
        <time>2024-09-18T14:38:37Z</time>
      </trkpt>
      <trkpt lat="51.100132036954165" lon="14.443318024277687">
        <ele>231.81</ele>
        <time>2024-09-18T14:38:38Z</time>
      </trkpt>
      <trkpt lat="51.099220002070069" lon="14.441766031086445">
        <ele>232.30000000000001</ele>
        <time>2024-09-18T14:38:44Z</time>
      </trkpt>
      <trkpt lat="51.099083963781595" lon="14.441411979496479">
        <ele>232.30000000000001</ele>
        <time>2024-09-18T14:38:45Z</time>
      </trkpt>
      <trkpt lat="51.098957983776927" lon="14.441056000068784">
        <ele>232.78</ele>
        <time>2024-09-18T14:38:46Z</time>
      </trkpt>
      <trkpt lat="51.098871985450387" lon="14.440644029527903">
        <ele>233.25999999999999</ele>
        <time>2024-09-18T14:38:47Z</time>
      </trkpt>
      <trkpt lat="51.098449034616351" lon="14.438627008348703">
        <ele>238.06</ele>
        <time>2024-09-18T14:38:53Z</time>
      </trkpt>
      <trkpt lat="51.098028011620045" lon="14.436616022139788">
        <ele>243.34999999999999</ele>
        <time>2024-09-18T14:39:01Z</time>
      </trkpt>
      <trkpt lat="51.097496012225747" lon="14.433981003239751">
        <ele>248.16</ele>
        <time>2024-09-18T14:39:13Z</time>
      </trkpt>
      <trkpt lat="51.097170040011406" lon="14.432409983128309">
        <ele>251.03999999999999</ele>
        <time>2024-09-18T14:39:21Z</time>
      </trkpt>
      <trkpt lat="51.096873991191387" lon="14.430904006585479">
        <ele>254.88999999999999</ele>
        <time>2024-09-18T14:39:30Z</time>
      </trkpt>
      <trkpt lat="51.096425978466868" lon="14.429189991205931">
        <ele>255.37</ele>
        <time>2024-09-18T14:39:39Z</time>
      </trkpt>
      <trkpt lat="51.095922980457544" lon="14.42809296771884">
        <ele>251.03999999999999</ele>
        <time>2024-09-18T14:39:47Z</time>
      </trkpt>
      <trkpt lat="51.095769004896283" lon="14.427757021039724">
        <ele>249.59999999999999</ele>
        <time>2024-09-18T14:39:49Z</time>
      </trkpt>
      <trkpt lat="51.095373965799809" lon="14.426894020289183">
        <ele>243.83000000000001</ele>
        <time>2024-09-18T14:39:55Z</time>
      </trkpt>
      <trkpt lat="51.095215966925025" lon="14.426663015037775">
        <ele>241.91</ele>
        <time>2024-09-18T14:39:57Z</time>
      </trkpt>
      <trkpt lat="51.095140026882291" lon="14.426552038639784">
        <ele>240.94999999999999</ele>
        <time>2024-09-18T14:39:58Z</time>
      </trkpt>
      <trkpt lat="51.095070960000157" lon="14.426466040313244">
        <ele>239.99000000000001</ele>
        <time>2024-09-18T14:39:59Z</time>
      </trkpt>
      <trkpt lat="51.094885971397161" lon="14.42630996927619">
        <ele>237.58000000000001</ele>
        <time>2024-09-18T14:40:02Z</time>
      </trkpt>
      <trkpt lat="51.09486099332571" lon="14.426130009815097">
        <ele>237.09999999999999</ele>
        <time>2024-09-18T14:40:03Z</time>
      </trkpt>
      <trkpt lat="51.094893012195826" lon="14.426045017316937">
        <ele>236.13999999999999</ele>
        <time>2024-09-18T14:40:05Z</time>
      </trkpt>
      <trkpt lat="51.095002982765436" lon="14.425844019278884">
        <ele>235.66</ele>
        <time>2024-09-18T14:40:06Z</time>
      </trkpt>
      <trkpt lat="51.09578300267458" lon="14.424779014661908">
        <ele>240.94999999999999</ele>
        <time>2024-09-18T14:40:15Z</time>
      </trkpt>
      <trkpt lat="51.096232021227479" lon="14.423748962581158">
        <ele>247.19999999999999</ele>
        <time>2024-09-18T14:40:23Z</time>
      </trkpt>
      <trkpt lat="51.096291029825807" lon="14.423603033646941">
        <ele>247.68000000000001</ele>
        <time>2024-09-18T14:40:24Z</time>
      </trkpt>
      <trkpt lat="51.096350960433483" lon="14.423403041437268">
        <ele>247.68000000000001</ele>
        <time>2024-09-18T14:40:25Z</time>
      </trkpt>
      <trkpt lat="51.096615996211767" lon="14.421465983614326">
        <ele>250.56</ele>
        <time>2024-09-18T14:40:32Z</time>
      </trkpt>
      <trkpt lat="51.09698697924614" lon="14.418462999165058">
        <ele>256.32999999999998</ele>
        <time>2024-09-18T14:40:41Z</time>
      </trkpt>
      <trkpt lat="51.097194012254477" lon="14.416011041030288">
        <ele>259.20999999999998</ele>
        <time>2024-09-18T14:40:47Z</time>
      </trkpt>
      <trkpt lat="51.097452007234097" lon="14.413136970251799">
        <ele>266.42000000000002</ele>
        <time>2024-09-18T14:40:54Z</time>
      </trkpt>
      <trkpt lat="51.097749983891845" lon="14.410813003778458">
        <ele>270.75</ele>
        <time>2024-09-18T14:41:01Z</time>
      </trkpt>
      <trkpt lat="51.098099006339908" lon="14.408749965950847">
        <ele>278.44</ele>
        <time>2024-09-18T14:41:09Z</time>
      </trkpt>
      <trkpt lat="51.09840402379632" lon="14.407348008826375">
        <ele>286.13</ele>
        <time>2024-09-18T14:41:17Z</time>
      </trkpt>
      <trkpt lat="51.098464038223028" lon="14.407195961102843">
        <ele>286.61000000000001</ele>
        <time>2024-09-18T14:41:18Z</time>
      </trkpt>
      <trkpt lat="51.098551964387298" lon="14.407049026340246">
        <ele>287.08999999999997</ele>
        <time>2024-09-18T14:41:19Z</time>
      </trkpt>
      <trkpt lat="51.098636034876108" lon="14.40690603107214">
        <ele>287.56999999999999</ele>
        <time>2024-09-18T14:41:20Z</time>
      </trkpt>
      <trkpt lat="51.098721027374268" lon="14.406764041632414">
        <ele>287.56999999999999</ele>
        <time>2024-09-18T14:41:21Z</time>
      </trkpt>
      <trkpt lat="51.098871985450387" lon="14.406509986147285">
        <ele>287.56999999999999</ele>
        <time>2024-09-18T14:41:23Z</time>
      </trkpt>
      <trkpt lat="51.098939040675759" lon="14.406364979222417">
        <ele>287.56999999999999</ele>
        <time>2024-09-18T14:41:24Z</time>
      </trkpt>
      <trkpt lat="51.099004000425339" lon="14.406226007267833">
        <ele>287.56999999999999</ele>
        <time>2024-09-18T14:41:25Z</time>
      </trkpt>
      <trkpt lat="51.099053034558892" lon="14.406077982857823">
        <ele>287.08999999999997</ele>
        <time>2024-09-18T14:41:26Z</time>
      </trkpt>
      <trkpt lat="51.099100979045033" lon="14.405910009518266">
        <ele>287.08999999999997</ele>
        <time>2024-09-18T14:41:27Z</time>
      </trkpt>
      <trkpt lat="51.099108019843698" lon="14.40572896040976">
        <ele>287.08999999999997</ele>
        <time>2024-09-18T14:41:28Z</time>
      </trkpt>
      <trkpt lat="51.099107014015317" lon="14.405536008998752">
        <ele>287.08999999999997</ele>
        <time>2024-09-18T14:41:29Z</time>
      </trkpt>
      <trkpt lat="51.099081030115485" lon="14.405342973768711">
        <ele>287.08999999999997</ele>
        <time>2024-09-18T14:41:30Z</time>
      </trkpt>
      <trkpt lat="51.099055968225002" lon="14.405152034014463">
        <ele>287.56999999999999</ele>
        <time>2024-09-18T14:41:31Z</time>
      </trkpt>
      <trkpt lat="51.099030990153551" lon="14.404960004612803">
        <ele>287.56999999999999</ele>
        <time>2024-09-18T14:41:32Z</time>
      </trkpt>
      <trkpt lat="51.098814988508821" lon="14.403286976739764">
        <ele>288.05000000000001</ele>
        <time>2024-09-18T14:41:41Z</time>
      </trkpt>
      <trkpt lat="51.098562022671103" lon="14.401396019384265">
        <ele>285.64999999999998</ele>
        <time>2024-09-18T14:41:51Z</time>
      </trkpt>
      <trkpt lat="51.098304027691483" lon="14.399502966552973">
        <ele>288.05000000000001</ele>
        <time>2024-09-18T14:42:01Z</time>
      </trkpt>
      <trkpt lat="51.098068999126554" lon="14.397837985306978">
        <ele>289.00999999999999</ele>
        <time>2024-09-18T14:42:11Z</time>
      </trkpt>
      <trkpt lat="51.09797403216362" lon="14.397458033636212">
        <ele>288.52999999999997</ele>
        <time>2024-09-18T14:42:14Z</time>
      </trkpt>
      <trkpt lat="51.097731962800026" lon="14.396553039550781">
        <ele>287.08999999999997</ele>
        <time>2024-09-18T14:42:20Z</time>
      </trkpt>
      <trkpt lat="51.097689969465137" lon="14.396395962685347">
        <ele>287.08999999999997</ele>
        <time>2024-09-18T14:42:21Z</time>
      </trkpt>
      <trkpt lat="51.097656022757292" lon="14.39624902792275">
        <ele>286.61000000000001</ele>
        <time>2024-09-18T14:42:22Z</time>
      </trkpt>
      <trkpt lat="51.097299959510565" lon="14.39466199837625">
        <ele>286.13</ele>
        <time>2024-09-18T14:42:32Z</time>
      </trkpt>
      <trkpt lat="51.097262995317578" lon="14.394493019208312">
        <ele>285.64999999999998</ele>
        <time>2024-09-18T14:42:33Z</time>
      </trkpt>
      <trkpt lat="51.096931993961334" lon="14.392999028787017">
        <ele>284.20999999999998</ele>
        <time>2024-09-18T14:42:44Z</time>
      </trkpt>
      <trkpt lat="51.096581965684891" lon="14.391611991450191">
        <ele>283.25</ele>
        <time>2024-09-18T14:42:53Z</time>
      </trkpt>
      <trkpt lat="51.096377028152347" lon="14.390899026766419">
        <ele>283.25</ele>
        <time>2024-09-18T14:42:57Z</time>
      </trkpt>
      <trkpt lat="51.096340985968709" lon="14.390746979042888">
        <ele>283.25</ele>
        <time>2024-09-18T14:42:58Z</time>
      </trkpt>
      <trkpt lat="51.096305027604103" lon="14.390598032623529">
        <ele>283.73000000000002</ele>
        <time>2024-09-18T14:42:59Z</time>
      </trkpt>
      <trkpt lat="51.096268985420465" lon="14.390449002385139">
        <ele>283.73000000000002</ele>
        <time>2024-09-18T14:43:00Z</time>
      </trkpt>
      <trkpt lat="51.09623403288424" lon="14.390301983803511">
        <ele>283.73000000000002</ele>
        <time>2024-09-18T14:43:01Z</time>
      </trkpt>
      <trkpt lat="51.095823990181088" lon="14.38890396617353">
        <ele>284.20999999999998</ele>
        <time>2024-09-18T14:43:11Z</time>
      </trkpt>
      <trkpt lat="51.095780991017818" lon="14.388781003654003">
        <ele>283.73000000000002</ele>
        <time>2024-09-18T14:43:12Z</time>
      </trkpt>
      <trkpt lat="51.095695998519659" lon="14.388540023937821">
        <ele>282.76999999999998</ele>
        <time>2024-09-18T14:43:14Z</time>
      </trkpt>
      <trkpt lat="51.095551997423172" lon="14.388038031756878">
        <ele>281.31999999999999</ele>
        <time>2024-09-18T14:43:18Z</time>
      </trkpt>
      <trkpt lat="51.095496006309986" lon="14.387811971828341">
        <ele>279.88</ele>
        <time>2024-09-18T14:43:20Z</time>
      </trkpt>
      <trkpt lat="51.09548200853169" lon="14.387690015137196">
        <ele>279.39999999999998</ele>
        <time>2024-09-18T14:43:21Z</time>
      </trkpt>
      <trkpt lat="51.09548200853169" lon="14.387561017647386">
        <ele>279.39999999999998</ele>
        <time>2024-09-18T14:43:22Z</time>
      </trkpt>
      <trkpt lat="51.09548200853169" lon="14.387133037671447">
        <ele>278.44</ele>
        <time>2024-09-18T14:43:25Z</time>
      </trkpt>
      <trkpt lat="51.095503969117999" lon="14.38697000965476">
        <ele>278.44</ele>
        <time>2024-09-18T14:43:26Z</time>
      </trkpt>
      <trkpt lat="51.09552500769496" lon="14.38681703992188">
        <ele>278.44</ele>
        <time>2024-09-18T14:43:27Z</time>
      </trkpt>
      <trkpt lat="51.095683006569743" lon="14.386227037757635">
        <ele>279.39999999999998</ele>
        <time>2024-09-18T14:43:31Z</time>
      </trkpt>
      <trkpt lat="51.096132025122643" lon="14.384797001257539">
        <ele>282.27999999999997</ele>
        <time>2024-09-18T14:43:40Z</time>
      </trkpt>
      <trkpt lat="51.096412986516953" lon="14.383601993322372">
        <ele>285.17000000000002</ele>
        <time>2024-09-18T14:43:47Z</time>
      </trkpt>
      <trkpt lat="51.096704006195068" lon="14.381969030946493">
        <ele>288.52999999999997</ele>
        <time>2024-09-18T14:43:56Z</time>
      </trkpt>
      <trkpt lat="51.096678022295237" lon="14.380987007170916">
        <ele>289.00999999999999</ele>
        <time>2024-09-18T14:44:01Z</time>
      </trkpt>
      <trkpt lat="51.096661007031798" lon="14.380792966112494">
        <ele>289.00999999999999</ele>
        <time>2024-09-18T14:44:02Z</time>
      </trkpt>
      <trkpt lat="51.09664399176836" lon="14.380604038015008">
        <ele>288.52999999999997</ele>
        <time>2024-09-18T14:44:03Z</time>
      </trkpt>
      <trkpt lat="51.096595963463187" lon="14.380240011960268">
        <ele>288.05000000000001</ele>
        <time>2024-09-18T14:44:05Z</time>
      </trkpt>
      <trkpt lat="51.096413992345333" lon="14.378690030425787">
        <ele>285.17000000000002</ele>
        <time>2024-09-18T14:44:14Z</time>
      </trkpt>
      <trkpt lat="51.096296980977058" lon="14.377154968678951">
        <ele>286.13</ele>
        <time>2024-09-18T14:44:23Z</time>
      </trkpt>
      <trkpt lat="51.096339980140328" lon="14.374819016084075">
        <ele>289.49000000000001</ele>
        <time>2024-09-18T14:44:35Z</time>
      </trkpt>
      <trkpt lat="51.096562016755342" lon="14.373874040320516">
        <ele>289.97000000000003</ele>
        <time>2024-09-18T14:44:40Z</time>
      </trkpt>
      <trkpt lat="51.096705012023449" lon="14.373515965417027">
        <ele>290.45999999999998</ele>
        <time>2024-09-18T14:44:42Z</time>
      </trkpt>
      <trkpt lat="51.096776006743312" lon="14.373339023441076">
        <ele>290.94</ele>
        <time>2024-09-18T14:44:43Z</time>
      </trkpt>
      <trkpt lat="51.097651999443769" lon="14.371160985901952">
        <ele>294.30000000000001</ele>
        <time>2024-09-18T14:44:55Z</time>
      </trkpt>
      <trkpt lat="51.098164971917868" lon="14.369542021304369">
        <ele>300.55000000000001</ele>
        <time>2024-09-18T14:45:04Z</time>
      </trkpt>
      <trkpt lat="51.098425984382629" lon="14.3676339648664">
        <ele>303.43000000000001</ele>
        <time>2024-09-18T14:45:13Z</time>
      </trkpt>
      <trkpt lat="51.098460014909506" lon="14.36529197730124">
        <ele>305.36000000000001</ele>
        <time>2024-09-18T14:45:21Z</time>
      </trkpt>
      <trkpt lat="51.098485998809338" lon="14.36303498223424">
        <ele>306.31999999999999</ele>
        <time>2024-09-18T14:45:29Z</time>
      </trkpt>
      <trkpt lat="51.098507037386298" lon="14.361792029812932">
        <ele>308.24000000000001</ele>
        <time>2024-09-18T14:45:36Z</time>
      </trkpt>
      <trkpt lat="51.098599992692471" lon="14.360486967489123">
        <ele>309.19999999999999</ele>
        <time>2024-09-18T14:45:43Z</time>
      </trkpt>
      <trkpt lat="51.098636034876108" lon="14.360312037169933">
        <ele>309.19999999999999</ele>
        <time>2024-09-18T14:45:44Z</time>
      </trkpt>
      <trkpt lat="51.099141966551542" lon="14.358648983761668">
        <ele>311.60000000000002</ele>
        <time>2024-09-18T14:45:54Z</time>
      </trkpt>
      <trkpt lat="51.09930700622499" lon="14.357192041352391">
        <ele>315.93000000000001</ele>
        <time>2024-09-18T14:46:02Z</time>
      </trkpt>
      <trkpt lat="51.099293008446693" lon="14.357010992243886">
        <ele>316.41000000000003</ele>
        <time>2024-09-18T14:46:03Z</time>
      </trkpt>
      <trkpt lat="51.099276999011636" lon="14.35682499781251">
        <ele>316.88999999999999</ele>
        <time>2024-09-18T14:46:04Z</time>
      </trkpt>
      <trkpt lat="51.099235005676746" lon="14.356645038351417">
        <ele>317.85000000000002</ele>
        <time>2024-09-18T14:46:05Z</time>
      </trkpt>
      <trkpt lat="51.099193012341857" lon="14.356464995071292">
        <ele>318.32999999999998</ele>
        <time>2024-09-18T14:46:06Z</time>
      </trkpt>
      <trkpt lat="51.098844995722175" lon="14.35448301024735">
        <ele>322.18000000000001</ele>
        <time>2024-09-18T14:46:17Z</time>
      </trkpt>
      <trkpt lat="51.098590018227696" lon="14.351684041321278">
        <ele>328.91000000000003</ele>
        <time>2024-09-18T14:46:32Z</time>
      </trkpt>
      <trkpt lat="51.098398994654417" lon="14.34997002594173">
        <ele>330.35000000000002</ele>
        <time>2024-09-18T14:46:41Z</time>
      </trkpt>
      <trkpt lat="51.098380973562598" lon="14.349741032347083">
        <ele>330.35000000000002</ele>
        <time>2024-09-18T14:46:42Z</time>
      </trkpt>
      <trkpt lat="51.098395977169275" lon="14.349493011832237">
        <ele>330.35000000000002</ele>
        <time>2024-09-18T14:46:43Z</time>
      </trkpt>
      <trkpt lat="51.098416009917855" lon="14.349229987710714">
        <ele>330.35000000000002</ele>
        <time>2024-09-18T14:46:44Z</time>
      </trkpt>
      <trkpt lat="51.098437970504165" lon="14.348952965810895">
        <ele>330.35000000000002</ele>
        <time>2024-09-18T14:46:45Z</time>
      </trkpt>
      <trkpt lat="51.098461020737886" lon="14.348664041608572">
        <ele>330.35000000000002</ele>
        <time>2024-09-18T14:46:46Z</time>
      </trkpt>
      <trkpt lat="51.098485998809338" lon="14.34835902415216">
        <ele>330.35000000000002</ele>
        <time>2024-09-18T14:46:47Z</time>
      </trkpt>
      <trkpt lat="51.098481975495815" lon="14.34806096367538">
        <ele>330.35000000000002</ele>
        <time>2024-09-18T14:46:48Z</time>
      </trkpt>
      <trkpt lat="51.098451968282461" lon="14.347743038088083">
        <ele>330.82999999999998</ele>
        <time>2024-09-18T14:46:49Z</time>
      </trkpt>
      <trkpt lat="51.098177963867784" lon="14.344846000894904">
        <ele>331.31</ele>
        <time>2024-09-18T14:46:57Z</time>
      </trkpt>
      <trkpt lat="51.097916029393673" lon="14.342067986726761">
        <ele>330.35000000000002</ele>
        <time>2024-09-18T14:47:05Z</time>
      </trkpt>
      <trkpt lat="51.097861966118217" lon="14.341794988140464">
        <ele>330.35000000000002</ele>
        <time>2024-09-18T14:47:06Z</time>
      </trkpt>
      <trkpt lat="51.097798012197018" lon="14.341547973453999">
        <ele>330.35000000000002</ele>
        <time>2024-09-18T14:47:07Z</time>
      </trkpt>
      <trkpt lat="51.097734980285168" lon="14.34133498929441">
        <ele>330.35000000000002</ele>
        <time>2024-09-18T14:47:08Z</time>
      </trkpt>
      <trkpt lat="51.097662979736924" lon="14.341160980984569">
        <ele>329.87</ele>
        <time>2024-09-18T14:47:09Z</time>
      </trkpt>
      <trkpt lat="51.097597014158964" lon="14.341001976281404">
        <ele>329.87</ele>
        <time>2024-09-18T14:47:10Z</time>
      </trkpt>
      <trkpt lat="51.097526019439101" lon="14.340860992670059">
        <ele>329.38999999999999</ele>
        <time>2024-09-18T14:47:11Z</time>
      </trkpt>
      <trkpt lat="51.096974993124604" lon="14.339699009433389">
        <ele>326.99000000000001</ele>
        <time>2024-09-18T14:47:20Z</time>
      </trkpt>
      <trkpt lat="51.096913972869515" lon="14.339561965316534">
        <ele>326.5</ele>
        <time>2024-09-18T14:47:21Z</time>
      </trkpt>
      <trkpt lat="51.096864016726613" lon="14.339418970048428">
        <ele>325.54000000000002</ele>
        <time>2024-09-18T14:47:22Z</time>
      </trkpt>
      <trkpt lat="51.096796039491892" lon="14.339113030582666">
        <ele>325.06</ele>
        <time>2024-09-18T14:47:24Z</time>
      </trkpt>
      <trkpt lat="51.096776006743312" lon="14.338793009519577">
        <ele>324.57999999999998</ele>
        <time>2024-09-18T14:47:26Z</time>
      </trkpt>
      <trkpt lat="51.096768965944648" lon="14.338634004816413">
        <ele>324.57999999999998</ele>
        <time>2024-09-18T14:47:27Z</time>
      </trkpt>
      <trkpt lat="51.096770977601409" lon="14.338475000113249">
        <ele>324.57999999999998</ele>
        <time>2024-09-18T14:47:28Z</time>
      </trkpt>
      <trkpt lat="51.096778018400073" lon="14.338318007066846">
        <ele>324.57999999999998</ele>
        <time>2024-09-18T14:47:29Z</time>
      </trkpt>
      <trkpt lat="51.096784975379705" lon="14.338164031505585">
        <ele>324.57999999999998</ele>
        <time>2024-09-18T14:47:30Z</time>
      </trkpt>
      <trkpt lat="51.09679201617837" lon="14.338003015145659">
        <ele>324.57999999999998</ele>
        <time>2024-09-18T14:47:31Z</time>
      </trkpt>
      <trkpt lat="51.096868962049484" lon="14.336370974779129">
        <ele>326.99000000000001</ele>
        <time>2024-09-18T14:47:41Z</time>
      </trkpt>
      <trkpt lat="51.096888994798064" lon="14.334821999073029">
        <ele>329.87</ele>
        <time>2024-09-18T14:47:51Z</time>
      </trkpt>
      <trkpt lat="51.096916990354657" lon="14.333564965054393">
        <ele>332.26999999999998</ele>
        <time>2024-09-18T14:47:59Z</time>
      </trkpt>
      <trkpt lat="51.096924031153321" lon="14.333406966179609">
        <ele>332.75</ele>
        <time>2024-09-18T14:48:00Z</time>
      </trkpt>
      <trkpt lat="51.09694398008287" lon="14.333245027810335">
        <ele>333.23000000000002</ele>
        <time>2024-09-18T14:48:01Z</time>
      </trkpt>
      <trkpt lat="51.09696501865983" lon="14.333079988136888">
        <ele>333.23000000000002</ele>
        <time>2024-09-18T14:48:02Z</time>
      </trkpt>
      <trkpt lat="51.096991002559662" lon="14.332905979827046">
        <ele>332.75</ele>
        <time>2024-09-18T14:48:03Z</time>
      </trkpt>
      <trkpt lat="51.097390986979008" lon="14.331493964418769">
        <ele>327.94999999999999</ele>
        <time>2024-09-18T14:48:12Z</time>
      </trkpt>
      <trkpt lat="51.097404984757304" lon="14.331329008564353">
        <ele>327.94999999999999</ele>
        <time>2024-09-18T14:48:13Z</time>
      </trkpt>
      <trkpt lat="51.097423005849123" lon="14.33112901635468">
        <ele>326.99000000000001</ele>
        <time>2024-09-18T14:48:15Z</time>
      </trkpt>
      <trkpt lat="51.097261989489198" lon="14.328993977978826">
        <ele>325.54000000000002</ele>
        <time>2024-09-18T14:48:23Z</time>
      </trkpt>
      <trkpt lat="51.097078006714582" lon="14.32693999260664">
        <ele>323.13999999999999</ele>
        <time>2024-09-18T14:48:32Z</time>
      </trkpt>
      <trkpt lat="51.096823029220104" lon="14.324466995894909">
        <ele>326.01999999999998</ele>
        <time>2024-09-18T14:48:43Z</time>
      </trkpt>
      <trkpt lat="51.096781035885215" lon="14.324172958731651">
        <ele>326.5</ele>
        <time>2024-09-18T14:48:45Z</time>
      </trkpt>
      <trkpt lat="51.09677298925817" lon="14.324045972898602">
        <ele>326.99000000000001</ele>
        <time>2024-09-18T14:48:46Z</time>
      </trkpt>
      <trkpt lat="51.096782963722944" lon="14.323937008157372">
        <ele>326.99000000000001</ele>
        <time>2024-09-18T14:48:47Z</time>
      </trkpt>
      <trkpt lat="51.096897963434458" lon="14.323832988739014">
        <ele>327.47000000000003</ele>
        <time>2024-09-18T14:48:48Z</time>
      </trkpt>
      <trkpt lat="51.096916990354657" lon="14.323795018717647">
        <ele>327.94999999999999</ele>
        <time>2024-09-18T14:48:49Z</time>
      </trkpt>
      <trkpt lat="51.096940962597728" lon="14.323664009571075">
        <ele>328.43000000000001</ele>
        <time>2024-09-18T14:48:50Z</time>
      </trkpt>
      <trkpt lat="51.096940962597728" lon="14.323560995981097">
        <ele>328.91000000000003</ele>
        <time>2024-09-18T14:48:51Z</time>
      </trkpt>
      <trkpt lat="51.096886983141303" lon="14.323460999876261">
        <ele>328.91000000000003</ele>
        <time>2024-09-18T14:48:52Z</time>
      </trkpt>
      <trkpt lat="51.09681498259306" lon="14.323472985997796">
        <ele>328.43000000000001</ele>
        <time>2024-09-18T14:48:53Z</time>
      </trkpt>
      <trkpt lat="51.096700988709927" lon="14.323486983776093">
        <ele>327.94999999999999</ele>
        <time>2024-09-18T14:48:54Z</time>
      </trkpt>
      <trkpt lat="51.096632005646825" lon="14.323418000712991">
        <ele>327.94999999999999</ele>
        <time>2024-09-18T14:48:55Z</time>
      </trkpt>
      <trkpt lat="51.096555981785059" lon="14.323343988507986">
        <ele>328.43000000000001</ele>
        <time>2024-09-18T14:48:56Z</time>
      </trkpt>
      <trkpt lat="51.096477024257183" lon="14.323266036808491">
        <ele>328.91000000000003</ele>
        <time>2024-09-18T14:48:57Z</time>
      </trkpt>
      <trkpt lat="51.095640007406473" lon="14.322442011907697">
        <ele>330.35000000000002</ele>
        <time>2024-09-18T14:49:08Z</time>
      </trkpt>
      <trkpt lat="51.095500029623508" lon="14.322304967790842">
        <ele>329.87</ele>
        <time>2024-09-18T14:49:10Z</time>
      </trkpt>
      <trkpt lat="51.095429034903646" lon="14.322233973070979">
        <ele>329.87</ele>
        <time>2024-09-18T14:49:11Z</time>
      </trkpt>
      <trkpt lat="51.095348987728357" lon="14.322155015543103">
        <ele>329.38999999999999</ele>
        <time>2024-09-18T14:49:12Z</time>
      </trkpt>
      <trkpt lat="51.094542983919382" lon="14.321085987612605">
        <ele>327.47000000000003</ele>
        <time>2024-09-18T14:49:23Z</time>
      </trkpt>
      <trkpt lat="51.094481041654944" lon="14.320998983457685">
        <ele>326.99000000000001</ele>
        <time>2024-09-18T14:49:24Z</time>
      </trkpt>
      <trkpt lat="51.09440996311605" lon="14.320936035364866">
        <ele>326.01999999999998</ele>
        <time>2024-09-18T14:49:26Z</time>
      </trkpt>
      <trkpt lat="51.094260010868311" lon="14.320857999846339">
        <ele>325.54000000000002</ele>
        <time>2024-09-18T14:49:27Z</time>
      </trkpt>
      <trkpt lat="51.093838987872005" lon="14.320703018456697">
        <ele>324.57999999999998</ele>
        <time>2024-09-18T14:49:32Z</time>
      </trkpt>
      <trkpt lat="51.093211015686393" lon="14.320719027891755">
        <ele>323.62</ele>
        <time>2024-09-18T14:49:39Z</time>
      </trkpt>
      <trkpt lat="51.092943968251348" lon="14.32070997543633">
        <ele>323.62</ele>
        <time>2024-09-18T14:49:43Z</time>
      </trkpt>
      <trkpt lat="51.09279896132648" lon="14.320700000971556">
        <ele>324.10000000000002</ele>
        <time>2024-09-18T14:49:47Z</time>
      </trkpt>
      <trkpt lat="51.092645991593599" lon="14.32062397710979">
        <ele>324.10000000000002</ele>
        <time>2024-09-18T14:49:55Z</time>
      </trkpt>
      <trkpt lat="51.092607015743852" lon="14.320509983226657">
        <ele>324.10000000000002</ele>
        <time>2024-09-18T14:49:56Z</time>
      </trkpt>
      <trkpt lat="51.092623025178909" lon="14.32045198045671">
        <ele>324.57999999999998</ele>
        <time>2024-09-18T14:49:57Z</time>
      </trkpt>
      <trkpt lat="51.092645991593599" lon="14.32036698795855">
        <ele>324.57999999999998</ele>
        <time>2024-09-18T14:49:58Z</time>
      </trkpt>
      <trkpt lat="51.092671975493431" lon="14.320274032652378">
        <ele>324.57999999999998</ele>
        <time>2024-09-18T14:49:59Z</time>
      </trkpt>
      <trkpt lat="51.092766020447016" lon="14.319928027689457">
        <ele>324.57999999999998</ele>
        <time>2024-09-18T14:50:02Z</time>
      </trkpt>
      <trkpt lat="51.093241022899747" lon="14.318085014820099">
        <ele>323.62</ele>
        <time>2024-09-18T14:50:15Z</time>
      </trkpt>
      <trkpt lat="51.09365701675415" lon="14.316527992486954">
        <ele>322.66000000000003</ele>
        <time>2024-09-18T14:50:24Z</time>
      </trkpt>
      <trkpt lat="51.09398097731173" lon="14.315311023965478">
        <ele>320.25999999999999</ele>
        <time>2024-09-18T14:50:31Z</time>
      </trkpt>
      <trkpt lat="51.094024982303381" lon="14.315149001777172">
        <ele>319.77999999999997</ele>
        <time>2024-09-18T14:50:32Z</time>
      </trkpt>
      <trkpt lat="51.094587994739413" lon="14.313073977828026">
        <ele>315.44999999999999</ele>
        <time>2024-09-18T14:50:44Z</time>
      </trkpt>
      <trkpt lat="51.095177996903658" lon="14.31087096221745">
        <ele>316.88999999999999</ele>
        <time>2024-09-18T14:50:57Z</time>
      </trkpt>
      <trkpt lat="51.09524798579514" lon="14.31061003357172">
        <ele>317.37</ele>
        <time>2024-09-18T14:51:00Z</time>
      </trkpt>
      <trkpt lat="51.095272041857243" lon="14.310522023588419">
        <ele>317.37</ele>
        <time>2024-09-18T14:51:01Z</time>
      </trkpt>
      <trkpt lat="51.095300959423184" lon="14.310412975028157">
        <ele>317.85000000000002</ele>
        <time>2024-09-18T14:51:02Z</time>
      </trkpt>
      <trkpt lat="51.095516039058566" lon="14.309691041707993">
        <ele>318.32999999999998</ele>
        <time>2024-09-18T14:51:07Z</time>
      </trkpt>
      <trkpt lat="51.095584016293287" lon="14.3095369823277">
        <ele>318.32999999999998</ele>
        <time>2024-09-18T14:51:08Z</time>
      </trkpt>
      <trkpt lat="51.095660040155053" lon="14.309395998716354">
        <ele>318.81</ele>
        <time>2024-09-18T14:51:09Z</time>
      </trkpt>
      <trkpt lat="51.095824996009469" lon="14.309091987088323">
        <ele>319.30000000000001</ele>
        <time>2024-09-18T14:51:11Z</time>
      </trkpt>
      <trkpt lat="51.09636202454567" lon="14.308431996032596">
        <ele>320.25999999999999</ele>
        <time>2024-09-18T14:51:17Z</time>
      </trkpt>
      <trkpt lat="51.096445005387068" lon="14.308281037956476">
        <ele>320.74000000000001</ele>
        <time>2024-09-18T14:51:18Z</time>
      </trkpt>
      <trkpt lat="51.096526980400085" lon="14.308117004111409">
        <ele>320.74000000000001</ele>
        <time>2024-09-18T14:51:19Z</time>
      </trkpt>
      <trkpt lat="51.096607027575374" lon="14.307955987751484">
        <ele>321.22000000000003</ele>
        <time>2024-09-18T14:51:20Z</time>
      </trkpt>
      <trkpt lat="51.096669975668192" lon="14.307772004976869">
        <ele>321.22000000000003</ele>
        <time>2024-09-18T14:51:21Z</time>
      </trkpt>
      <trkpt lat="51.097039030864835" lon="14.306607004255056">
        <ele>321.22000000000003</ele>
        <time>2024-09-18T14:51:28Z</time>
      </trkpt>
      <trkpt lat="51.097104996442795" lon="14.306457974016666">
        <ele>320.74000000000001</ele>
        <time>2024-09-18T14:51:29Z</time>
      </trkpt>
      <trkpt lat="51.097170962020755" lon="14.306309027597308">
        <ele>320.74000000000001</ele>
        <time>2024-09-18T14:51:30Z</time>
      </trkpt>
      <trkpt lat="51.097241034731269" lon="14.306152034550905">
        <ele>320.25999999999999</ele>
        <time>2024-09-18T14:51:31Z</time>
      </trkpt>
      <trkpt lat="51.097326027229428" lon="14.306026976555586">
        <ele>320.25999999999999</ele>
        <time>2024-09-18T14:51:32Z</time>
      </trkpt>
      <trkpt lat="51.097821984440088" lon="14.305322980508208">
        <ele>318.32999999999998</ele>
        <time>2024-09-18T14:51:39Z</time>
      </trkpt>
      <trkpt lat="51.098064975813031" lon="14.304846972227097">
        <ele>316.41000000000003</ele>
        <time>2024-09-18T14:51:44Z</time>
      </trkpt>
      <trkpt lat="51.09810302965343" lon="14.304735995829105">
        <ele>315.44999999999999</ele>
        <time>2024-09-18T14:51:45Z</time>
      </trkpt>
      <trkpt lat="51.098144017159939" lon="14.304618984460831">
        <ele>314.97000000000003</ele>
        <time>2024-09-18T14:51:46Z</time>
      </trkpt>
      <trkpt lat="51.098206965252757" lon="14.304435001686215">
        <ele>314.49000000000001</ele>
        <time>2024-09-18T14:51:47Z</time>
      </trkpt>
      <trkpt lat="51.098219035193324" lon="14.304367024451494">
        <ele>314.00999999999999</ele>
        <time>2024-09-18T14:51:48Z</time>
      </trkpt>
      <trkpt lat="51.098246024921536" lon="14.304227968677878">
        <ele>313.52999999999997</ele>
        <time>2024-09-18T14:51:49Z</time>
      </trkpt>
      <trkpt lat="51.098330011591315" lon="14.302672035992146">
        <ele>308.72000000000003</ele>
        <time>2024-09-18T14:51:59Z</time>
      </trkpt>
      <trkpt lat="51.09836102463305" lon="14.302122015506029">
        <ele>307.27999999999997</ele>
        <time>2024-09-18T14:52:02Z</time>
      </trkpt>
      <trkpt lat="51.098664030432701" lon="14.300121003761888">
        <ele>306.31999999999999</ele>
        <time>2024-09-18T14:52:13Z</time>
      </trkpt>
      <trkpt lat="51.098763020709157" lon="14.299196982756257">
        <ele>305.83999999999997</ele>
        <time>2024-09-18T14:52:18Z</time>
      </trkpt>
      <trkpt lat="51.098749022930861" lon="14.299023980274796">
        <ele>306.31999999999999</ele>
        <time>2024-09-18T14:52:19Z</time>
      </trkpt>
      <trkpt lat="51.098726978525519" lon="14.298847960308194">
        <ele>306.31999999999999</ele>
        <time>2024-09-18T14:52:20Z</time>
      </trkpt>
      <trkpt lat="51.098699988797307" lon="14.298664983361959">
        <ele>306.31999999999999</ele>
        <time>2024-09-18T14:52:21Z</time>
      </trkpt>
      <trkpt lat="51.098674004897475" lon="14.298481000587344">
        <ele>306.80000000000001</ele>
        <time>2024-09-18T14:52:22Z</time>
      </trkpt>
      <trkpt lat="51.098406035453081" lon="14.296659026294947">
        <ele>307.27999999999997</ele>
        <time>2024-09-18T14:52:32Z</time>
      </trkpt>
      <trkpt lat="51.098047038540244" lon="14.29428200237453">
        <ele>304.38999999999999</ele>
        <time>2024-09-18T14:52:45Z</time>
      </trkpt>
      <trkpt lat="51.097856014966965" lon="14.293197970837355">
        <ele>304.38999999999999</ele>
        <time>2024-09-18T14:52:51Z</time>
      </trkpt>
      <trkpt lat="51.097783008590341" lon="14.292819024994969">
        <ele>304.38999999999999</ele>
        <time>2024-09-18T14:52:53Z</time>
      </trkpt>
      <trkpt lat="51.097616041079164" lon="14.291112972423434">
        <ele>304.38999999999999</ele>
        <time>2024-09-18T14:53:02Z</time>
      </trkpt>
      <trkpt lat="51.097443038597703" lon="14.288835022598505">
        <ele>303.43000000000001</ele>
        <time>2024-09-18T14:53:14Z</time>
      </trkpt>
      <trkpt lat="51.097298031672835" lon="14.287724001333117">
        <ele>305.36000000000001</ele>
        <time>2024-09-18T14:53:20Z</time>
      </trkpt>
      <trkpt lat="51.097098039463162" lon="14.286603005602956">
        <ele>306.31999999999999</ele>
        <time>2024-09-18T14:53:26Z</time>
      </trkpt>
      <trkpt lat="51.096975998952985" lon="14.283930016681552">
        <ele>306.31999999999999</ele>
        <time>2024-09-18T14:53:40Z</time>
      </trkpt>
      <trkpt lat="51.096710041165352" lon="14.282079041004181">
        <ele>306.31999999999999</ele>
        <time>2024-09-18T14:53:50Z</time>
      </trkpt>
      <trkpt lat="51.096619013696909" lon="14.281320981681347">
        <ele>306.31999999999999</ele>
        <time>2024-09-18T14:53:54Z</time>
      </trkpt>
      <trkpt lat="51.096633011475205" lon="14.280928960070014">
        <ele>307.27999999999997</ele>
        <time>2024-09-18T14:53:56Z</time>
      </trkpt>
      <trkpt lat="51.09666695818305" lon="14.280743971467018">
        <ele>307.27999999999997</ele>
        <time>2024-09-18T14:53:57Z</time>
      </trkpt>
      <trkpt lat="51.096700988709927" lon="14.280558982864022">
        <ele>307.27999999999997</ele>
        <time>2024-09-18T14:53:58Z</time>
      </trkpt>
      <trkpt lat="51.096736025065184" lon="14.280372988432646">
        <ele>307.27999999999997</ele>
        <time>2024-09-18T14:53:59Z</time>
      </trkpt>
      <trkpt lat="51.096767960116267" lon="14.280196968466043">
        <ele>307.27999999999997</ele>
        <time>2024-09-18T14:54:00Z</time>
      </trkpt>
      <trkpt lat="51.096963007003069" lon="14.279404040426016">
        <ele>306.31999999999999</ele>
        <time>2024-09-18T14:54:06Z</time>
      </trkpt>
      <trkpt lat="51.097006006166339" lon="14.279303960502148">
        <ele>305.83999999999997</ele>
        <time>2024-09-18T14:54:07Z</time>
      </trkpt>
      <trkpt lat="51.09726601280272" lon="14.278693003579974">
        <ele>304.88</ele>
        <time>2024-09-18T14:54:12Z</time>
      </trkpt>
      <trkpt lat="51.097327033057809" lon="14.278536010533571">
        <ele>304.38999999999999</ele>
        <time>2024-09-18T14:54:13Z</time>
      </trkpt>
      <trkpt lat="51.097360979765654" lon="14.278407013043761">
        <ele>304.38999999999999</ele>
        <time>2024-09-18T14:54:14Z</time>
      </trkpt>
      <trkpt lat="51.097401967272162" lon="14.278250019997358">
        <ele>303.91000000000003</ele>
        <time>2024-09-18T14:54:15Z</time>
      </trkpt>
      <trkpt lat="51.097443960607052" lon="14.278091015294194">
        <ele>303.91000000000003</ele>
        <time>2024-09-18T14:54:16Z</time>
      </trkpt>
      <trkpt lat="51.097486959770322" lon="14.277925975620747">
        <ele>303.43000000000001</ele>
        <time>2024-09-18T14:54:17Z</time>
      </trkpt>
      <trkpt lat="51.09754697419703" lon="14.277559015899897">
        <ele>302.94999999999999</ele>
        <time>2024-09-18T14:54:19Z</time>
      </trkpt>
      <trkpt lat="51.097554014995694" lon="14.277366986498237">
        <ele>302.47000000000003</ele>
        <time>2024-09-18T14:54:20Z</time>
      </trkpt>
      <trkpt lat="51.097560971975327" lon="14.277181997895241">
        <ele>302.94999999999999</ele>
        <time>2024-09-18T14:54:21Z</time>
      </trkpt>
      <trkpt lat="51.097553009167314" lon="14.276997009292245">
        <ele>302.47000000000003</ele>
        <time>2024-09-18T14:54:22Z</time>
      </trkpt>
      <trkpt lat="51.097538005560637" lon="14.27681403234601">
        <ele>302.47000000000003</ele>
        <time>2024-09-18T14:54:23Z</time>
      </trkpt>
      <trkpt lat="51.09752400778234" lon="14.276636000722647">
        <ele>302.47000000000003</ele>
        <time>2024-09-18T14:54:24Z</time>
      </trkpt>
      <trkpt lat="51.09752400778234" lon="14.276456041261554">
        <ele>301.99000000000001</ele>
        <time>2024-09-18T14:54:25Z</time>
      </trkpt>
      <trkpt lat="51.097529958933592" lon="14.276270968839526">
        <ele>301.99000000000001</ele>
        <time>2024-09-18T14:54:26Z</time>
      </trkpt>
      <trkpt lat="51.097535993903875" lon="14.27608204074204">
        <ele>301.99000000000001</ele>
        <time>2024-09-18T14:54:27Z</time>
      </trkpt>
      <trkpt lat="51.097559966146946" lon="14.273969968780875">
        <ele>306.31999999999999</ele>
        <time>2024-09-18T14:54:38Z</time>
      </trkpt>
      <trkpt lat="51.097545968368649" lon="14.27339899353683">
        <ele>308.72000000000003</ele>
        <time>2024-09-18T14:54:41Z</time>
      </trkpt>
      <trkpt lat="51.097542028874159" lon="14.27320403046906">
        <ele>309.19999999999999</ele>
        <time>2024-09-18T14:54:42Z</time>
      </trkpt>
      <trkpt lat="51.0974380094558" lon="14.270531963557005">
        <ele>309.19999999999999</ele>
        <time>2024-09-18T14:54:55Z</time>
      </trkpt>
      <trkpt lat="51.097538005560637" lon="14.268259964883327">
        <ele>306.31999999999999</ele>
        <time>2024-09-18T14:55:02Z</time>
      </trkpt>
      <trkpt lat="51.097816033288836" lon="14.26615702919662">
        <ele>307.27999999999997</ele>
        <time>2024-09-18T14:55:09Z</time>
      </trkpt>
      <trkpt lat="51.097938995808363" lon="14.265564009547234">
        <ele>307.27999999999997</ele>
        <time>2024-09-18T14:55:12Z</time>
      </trkpt>
      <trkpt lat="51.098228003829718" lon="14.26428803242743">
        <ele>310.16000000000003</ele>
        <time>2024-09-18T14:55:20Z</time>
      </trkpt>
      <trkpt lat="51.098783975467086" lon="14.262376958504319">
        <ele>316.41000000000003</ele>
        <time>2024-09-18T14:55:31Z</time>
      </trkpt>
      <trkpt lat="51.099483026191592" lon="14.260620027780533">
        <ele>316.88999999999999</ele>
        <time>2024-09-18T14:55:40Z</time>
      </trkpt>
      <trkpt lat="51.100389026105404" lon="14.257986014708877">
        <ele>310.63999999999999</ele>
        <time>2024-09-18T14:55:50Z</time>
      </trkpt>
      <trkpt lat="51.100559011101723" lon="14.257467007264495">
        <ele>308.72000000000003</ele>
        <time>2024-09-18T14:55:52Z</time>
      </trkpt>
      <trkpt lat="51.100599998608232" lon="14.257190991193056">
        <ele>307.75999999999999</ele>
        <time>2024-09-18T14:55:53Z</time>
      </trkpt>
      <trkpt lat="51.10061801970005" lon="14.256888991221786">
        <ele>307.27999999999997</ele>
        <time>2024-09-18T14:55:54Z</time>
      </trkpt>
      <trkpt lat="51.100631011649966" lon="14.256585985422134">
        <ele>306.80000000000001</ele>
        <time>2024-09-18T14:55:55Z</time>
      </trkpt>
      <trkpt lat="51.100631011649966" lon="14.256281973794103">
        <ele>306.31999999999999</ele>
        <time>2024-09-18T14:55:56Z</time>
      </trkpt>
      <trkpt lat="51.100592035800219" lon="14.255986008793116">
        <ele>306.31999999999999</ele>
        <time>2024-09-18T14:55:57Z</time>
      </trkpt>
      <trkpt lat="51.100535960868001" lon="14.255703035742044">
        <ele>306.31999999999999</ele>
        <time>2024-09-18T14:55:58Z</time>
      </trkpt>
      <trkpt lat="51.100478963926435" lon="14.2554169613868">
        <ele>306.80000000000001</ele>
        <time>2024-09-18T14:55:59Z</time>
      </trkpt>
      <trkpt lat="51.100416015833616" lon="14.255131976678967">
        <ele>307.27999999999997</ele>
        <time>2024-09-18T14:56:00Z</time>
      </trkpt>
      <trkpt lat="51.099811010062695" lon="14.253006996586919">
        <ele>308.24000000000001</ele>
        <time>2024-09-18T14:56:08Z</time>
      </trkpt>
      <trkpt lat="51.099442038685083" lon="14.25109600648284">
        <ele>307.75999999999999</ele>
        <time>2024-09-18T14:56:16Z</time>
      </trkpt>
      <trkpt lat="51.099365008994937" lon="14.250453030690551">
        <ele>307.27999999999997</ele>
        <time>2024-09-18T14:56:19Z</time>
      </trkpt>
      <trkpt lat="51.099347993731499" lon="14.250007029622793">
        <ele>306.80000000000001</ele>
        <time>2024-09-18T14:56:21Z</time>
      </trkpt>
      <trkpt lat="51.099426029250026" lon="14.247864028438926">
        <ele>302.94999999999999</ele>
        <time>2024-09-18T14:56:29Z</time>
      </trkpt>
      <trkpt lat="51.099548991769552" lon="14.24463196657598">
        <ele>298.63</ele>
        <time>2024-09-18T14:56:39Z</time>
      </trkpt>
      <trkpt lat="51.099603977054358" lon="14.24299799837172">
        <ele>294.30000000000001</ele>
        <time>2024-09-18T14:56:45Z</time>
      </trkpt>
      <trkpt lat="51.099612023681402" lon="14.242776967585087">
        <ele>293.81999999999999</ele>
        <time>2024-09-18T14:56:46Z</time>
      </trkpt>
      <trkpt lat="51.099686035886407" lon="14.240917023271322">
        <ele>294.30000000000001</ele>
        <time>2024-09-18T14:56:56Z</time>
      </trkpt>
      <trkpt lat="51.099689975380898" lon="14.239574996754527">
        <ele>296.22000000000003</ele>
        <time>2024-09-18T14:57:03Z</time>
      </trkpt>
      <trkpt lat="51.099669020622969" lon="14.23938799649477">
        <ele>296.69999999999999</ele>
        <time>2024-09-18T14:57:04Z</time>
      </trkpt>
      <trkpt lat="51.099625015631318" lon="14.239213988184929">
        <ele>297.18000000000001</ele>
        <time>2024-09-18T14:57:05Z</time>
      </trkpt>
      <trkpt lat="51.099526025354862" lon="14.238869994878769">
        <ele>298.14999999999998</ele>
        <time>2024-09-18T14:57:07Z</time>
      </trkpt>
      <trkpt lat="51.099469028413296" lon="14.23870000988245">
        <ele>298.14999999999998</ele>
        <time>2024-09-18T14:57:08Z</time>
      </trkpt>
      <trkpt lat="51.099412031471729" lon="14.238529019057751">
        <ele>298.63</ele>
        <time>2024-09-18T14:57:09Z</time>
      </trkpt>
      <trkpt lat="51.099341958761215" lon="14.238371020182967">
        <ele>298.63</ele>
        <time>2024-09-18T14:57:10Z</time>
      </trkpt>
      <trkpt lat="51.099263001233339" lon="14.238224001601338">
        <ele>299.11000000000001</ele>
        <time>2024-09-18T14:57:11Z</time>
      </trkpt>
      <trkpt lat="51.098265973851085" lon="14.236300019547343">
        <ele>298.14999999999998</ele>
        <time>2024-09-18T14:57:24Z</time>
      </trkpt>
      <trkpt lat="51.098157009109855" lon="14.235986033454537">
        <ele>298.14999999999998</ele>
        <time>2024-09-18T14:57:26Z</time>
      </trkpt>
      <trkpt lat="51.098136976361275" lon="14.235802972689271">
        <ele>298.63</ele>
        <time>2024-09-18T14:57:27Z</time>
      </trkpt>
      <trkpt lat="51.098117027431726" lon="14.235614966601133">
        <ele>298.63</ele>
        <time>2024-09-18T14:57:28Z</time>
      </trkpt>
      <trkpt lat="51.098099006339908" lon="14.235426960512996">
        <ele>298.63</ele>
        <time>2024-09-18T14:57:29Z</time>
      </trkpt>
      <trkpt lat="51.098099006339908" lon="14.235234009101987">
        <ele>298.63</ele>
        <time>2024-09-18T14:57:30Z</time>
      </trkpt>
      <trkpt lat="51.098259016871452" lon="14.234089041128755">
        <ele>298.14999999999998</ele>
        <time>2024-09-18T14:57:36Z</time>
      </trkpt>
      <trkpt lat="51.098305033519864" lon="14.23390899784863">
        <ele>297.67000000000002</ele>
        <time>2024-09-18T14:57:37Z</time>
      </trkpt>
      <trkpt lat="51.098409974947572" lon="14.233556035906076">
        <ele>297.18000000000001</ele>
        <time>2024-09-18T14:57:39Z</time>
      </trkpt>
      <trkpt lat="51.098481975495815" lon="14.233400970697403">
        <ele>296.69999999999999</ele>
        <time>2024-09-18T14:57:40Z</time>
      </trkpt>
      <trkpt lat="51.098573002964258" lon="14.233272979035974">
        <ele>296.69999999999999</ele>
        <time>2024-09-18T14:57:41Z</time>
      </trkpt>
      <trkpt lat="51.09930801205337" lon="14.232604019343853">
        <ele>297.18000000000001</ele>
        <time>2024-09-18T14:57:48Z</time>
      </trkpt>
      <trkpt lat="51.099422005936503" lon="14.232551967725158">
        <ele>297.18000000000001</ele>
        <time>2024-09-18T14:57:49Z</time>
      </trkpt>
      <trkpt lat="51.099882004782557" lon="14.232343006879091">
        <ele>296.69999999999999</ele>
        <time>2024-09-18T14:57:53Z</time>
      </trkpt>
      <trkpt lat="51.09999499283731" lon="14.232283998280764">
        <ele>296.69999999999999</ele>
        <time>2024-09-18T14:57:54Z</time>
      </trkpt>
      <trkpt lat="51.100079985335469" lon="14.232156006619334">
        <ele>296.69999999999999</ele>
        <time>2024-09-18T14:57:55Z</time>
      </trkpt>
      <trkpt lat="51.10016698949039" lon="14.232026003301144">
        <ele>296.69999999999999</ele>
        <time>2024-09-18T14:57:56Z</time>
      </trkpt>
      <trkpt lat="51.100254999473691" lon="14.231894994154572">
        <ele>297.18000000000001</ele>
        <time>2024-09-18T14:57:57Z</time>
      </trkpt>
      <trkpt lat="51.100526992231607" lon="14.231528034433722">
        <ele>297.18000000000001</ele>
        <time>2024-09-18T14:58:00Z</time>
      </trkpt>
      <trkpt lat="51.101493006572127" lon="14.230163963511586">
        <ele>301.02999999999997</ele>
        <time>2024-09-18T14:58:11Z</time>
      </trkpt>
      <trkpt lat="51.101569030433893" lon="14.230011999607086">
        <ele>301.50999999999999</ele>
        <time>2024-09-18T14:58:12Z</time>
      </trkpt>
      <trkpt lat="51.101611023768783" lon="14.229830028489232">
        <ele>301.99000000000001</ele>
        <time>2024-09-18T14:58:13Z</time>
      </trkpt>
      <trkpt lat="51.101941019296646" lon="14.228178961202502">
        <ele>303.91000000000003</ele>
        <time>2024-09-18T14:58:22Z</time>
      </trkpt>
      <trkpt lat="51.10197396017611" lon="14.227994978427887">
        <ele>303.43000000000001</ele>
        <time>2024-09-18T14:58:23Z</time>
      </trkpt>
      <trkpt lat="51.102476958185434" lon="14.225212018936872">
        <ele>300.55000000000001</ele>
        <time>2024-09-18T14:58:38Z</time>
      </trkpt>
      <trkpt lat="51.102669993415475" lon="14.224483966827393">
        <ele>299.58999999999997</ele>
        <time>2024-09-18T14:58:42Z</time>
      </trkpt>
      <trkpt lat="51.102736964821815" lon="14.224341977387667">
        <ele>299.58999999999997</ele>
        <time>2024-09-18T14:58:43Z</time>
      </trkpt>
      <trkpt lat="51.10280997119844" lon="14.224185990169644">
        <ele>299.11000000000001</ele>
        <time>2024-09-18T14:58:44Z</time>
      </trkpt>
      <trkpt lat="51.10289697535336" lon="14.22404601238668">
        <ele>299.11000000000001</ele>
        <time>2024-09-18T14:58:45Z</time>
      </trkpt>
      <trkpt lat="51.102969981729984" lon="14.223948027938604">
        <ele>299.11000000000001</ele>
        <time>2024-09-18T14:58:46Z</time>
      </trkpt>
      <trkpt lat="51.103123035281897" lon="14.223605962470174">
        <ele>298.14999999999998</ele>
        <time>2024-09-18T14:58:48Z</time>
      </trkpt>
      <trkpt lat="51.10319403000176" lon="14.223448969423771">
        <ele>298.14999999999998</ele>
        <time>2024-09-18T14:58:49Z</time>
      </trkpt>
      <trkpt lat="51.103251026943326" lon="14.223304968327284">
        <ele>297.67000000000002</ele>
        <time>2024-09-18T14:58:50Z</time>
      </trkpt>
      <trkpt lat="51.103266030550003" lon="14.223119979724288">
        <ele>297.67000000000002</ele>
        <time>2024-09-18T14:58:51Z</time>
      </trkpt>
      <trkpt lat="51.103282039985061" lon="14.222937002778053">
        <ele>297.18000000000001</ele>
        <time>2024-09-18T14:58:52Z</time>
      </trkpt>
      <trkpt lat="51.103284973651171" lon="14.222770035266876">
        <ele>296.69999999999999</ele>
        <time>2024-09-18T14:58:53Z</time>
      </trkpt>
      <trkpt lat="51.103250021114945" lon="14.22258798032999">
        <ele>296.69999999999999</ele>
        <time>2024-09-18T14:58:54Z</time>
      </trkpt>
      <trkpt lat="51.103214984759688" lon="14.222400980070233">
        <ele>296.69999999999999</ele>
        <time>2024-09-18T14:58:55Z</time>
      </trkpt>
      <trkpt lat="51.103180032223463" lon="14.222213979810476">
        <ele>296.22000000000003</ele>
        <time>2024-09-18T14:58:56Z</time>
      </trkpt>
      <trkpt lat="51.102963024750352" lon="14.221540996804833">
        <ele>295.25999999999999</ele>
        <time>2024-09-18T14:59:00Z</time>
      </trkpt>
      <trkpt lat="51.102889012545347" lon="14.221400013193488">
        <ele>294.77999999999997</ele>
        <time>2024-09-18T14:59:01Z</time>
      </trkpt>
      <trkpt lat="51.102660018950701" lon="14.220955017954111">
        <ele>294.30000000000001</ele>
        <time>2024-09-18T14:59:04Z</time>
      </trkpt>
      <trkpt lat="51.102608973160386" lon="14.220789978280663">
        <ele>294.77999999999997</ele>
        <time>2024-09-18T14:59:05Z</time>
      </trkpt>
      <trkpt lat="51.102564968168736" lon="14.220589986070991">
        <ele>295.25999999999999</ele>
        <time>2024-09-18T14:59:06Z</time>
      </trkpt>
      <trkpt lat="51.102575026452541" lon="14.220413966104388">
        <ele>295.74000000000001</ele>
        <time>2024-09-18T14:59:07Z</time>
      </trkpt>
      <trkpt lat="51.102583995088935" lon="14.220236018300056">
        <ele>296.22000000000003</ele>
        <time>2024-09-18T14:59:08Z</time>
      </trkpt>
      <trkpt lat="51.102636968716979" lon="14.220068966969848">
        <ele>297.18000000000001</ele>
        <time>2024-09-18T14:59:09Z</time>
      </trkpt>
      <trkpt lat="51.102691031992435" lon="14.219899987801909">
        <ele>297.67000000000002</ele>
        <time>2024-09-18T14:59:10Z</time>
      </trkpt>
      <trkpt lat="51.102747023105621" lon="14.219725979492068">
        <ele>298.14999999999998</ele>
        <time>2024-09-18T14:59:11Z</time>
      </trkpt>
      <trkpt lat="51.102807959541678" lon="14.21955700032413">
        <ele>298.63</ele>
        <time>2024-09-18T14:59:12Z</time>
      </trkpt>
      <trkpt lat="51.102869985625148" lon="14.219389026984572">
        <ele>299.11000000000001</ele>
        <time>2024-09-18T14:59:13Z</time>
      </trkpt>
      <trkpt lat="51.103009963408113" lon="14.218855015933514">
        <ele>299.58999999999997</ele>
        <time>2024-09-18T14:59:16Z</time>
      </trkpt>
      <trkpt lat="51.103020021691918" lon="14.218671033158898">
        <ele>299.58999999999997</ele>
        <time>2024-09-18T14:59:17Z</time>
      </trkpt>
      <trkpt lat="51.103026978671551" lon="14.21848202124238">
        <ele>299.11000000000001</ele>
        <time>2024-09-18T14:59:18Z</time>
      </trkpt>
      <trkpt lat="51.103034019470215" lon="14.218293009325862">
        <ele>299.11000000000001</ele>
        <time>2024-09-18T14:59:19Z</time>
      </trkpt>
      <trkpt lat="51.103035025298595" lon="14.218103997409344">
        <ele>298.63</ele>
        <time>2024-09-18T14:59:20Z</time>
      </trkpt>
      <trkpt lat="51.103012980893254" lon="14.215425979346037">
        <ele>295.25999999999999</ele>
        <time>2024-09-18T14:59:34Z</time>
      </trkpt>
      <trkpt lat="51.103134015575051" lon="14.214147990569472">
        <ele>294.77999999999997</ele>
        <time>2024-09-18T14:59:40Z</time>
      </trkpt>
      <trkpt lat="51.103187995031476" lon="14.213917991146445">
        <ele>294.77999999999997</ele>
        <time>2024-09-18T14:59:41Z</time>
      </trkpt>
      <trkpt lat="51.1032610014081" lon="14.213697966188192">
        <ele>294.77999999999997</ele>
        <time>2024-09-18T14:59:42Z</time>
      </trkpt>
      <trkpt lat="51.104239001870155" lon="14.211037969216704">
        <ele>296.69999999999999</ele>
        <time>2024-09-18T14:59:53Z</time>
      </trkpt>
      <trkpt lat="51.105307023972273" lon="14.208064991980791">
        <ele>296.69999999999999</ele>
        <time>2024-09-18T15:00:05Z</time>
      </trkpt>
      <trkpt lat="51.105915969237685" lon="14.206047970801592">
        <ele>293.81999999999999</ele>
        <time>2024-09-18T15:00:13Z</time>
      </trkpt>
      <trkpt lat="51.106695989146829" lon="14.203286971896887">
        <ele>293.81999999999999</ele>
        <time>2024-09-18T15:00:25Z</time>
      </trkpt>
      <trkpt lat="51.107169985771179" lon="14.200837025418878">
        <ele>292.86000000000001</ele>
        <time>2024-09-18T15:00:34Z</time>
      </trkpt>
      <trkpt lat="51.107206027954817" lon="14.199666995555162">
        <ele>291.42000000000002</ele>
        <time>2024-09-18T15:00:38Z</time>
      </trkpt>
      <trkpt lat="51.107193036004901" lon="14.199372958391905">
        <ele>290.94</ele>
        <time>2024-09-18T15:00:39Z</time>
      </trkpt>
      <trkpt lat="51.107179960235953" lon="14.199089985340834">
        <ele>290.94</ele>
        <time>2024-09-18T15:00:40Z</time>
      </trkpt>
      <trkpt lat="51.107125980779529" lon="14.198827967047691">
        <ele>290.45999999999998</ele>
        <time>2024-09-18T15:00:41Z</time>
      </trkpt>
      <trkpt lat="51.107059009373188" lon="14.198578018695116">
        <ele>289.97000000000003</ele>
        <time>2024-09-18T15:00:42Z</time>
      </trkpt>
      <trkpt lat="51.106994971632957" lon="14.198338966816664">
        <ele>289.97000000000003</ele>
        <time>2024-09-18T15:00:43Z</time>
      </trkpt>
      <trkpt lat="51.10693302936852" lon="14.198121037334204">
        <ele>289.49000000000001</ele>
        <time>2024-09-18T15:00:44Z</time>
      </trkpt>
      <trkpt lat="51.106848958879709" lon="14.19796203263104">
        <ele>289.00999999999999</ele>
        <time>2024-09-18T15:00:45Z</time>
      </trkpt>
      <trkpt lat="51.106772013008595" lon="14.197817025706172">
        <ele>289.00999999999999</ele>
        <time>2024-09-18T15:00:46Z</time>
      </trkpt>
      <trkpt lat="51.106455009430647" lon="14.19719198718667">
        <ele>288.52999999999997</ele>
        <time>2024-09-18T15:00:51Z</time>
      </trkpt>
      <trkpt lat="51.106415027752519" lon="14.197087967768312">
        <ele>288.52999999999997</ele>
        <time>2024-09-18T15:00:52Z</time>
      </trkpt>
      <trkpt lat="51.106361970305443" lon="14.196883030235767">
        <ele>288.52999999999997</ele>
        <time>2024-09-18T15:00:55Z</time>
      </trkpt>
      <trkpt lat="51.106373034417629" lon="14.196813963353634">
        <ele>288.52999999999997</ele>
        <time>2024-09-18T15:00:56Z</time>
      </trkpt>
      <trkpt lat="51.106388038024306" lon="14.196726959198713">
        <ele>288.52999999999997</ele>
        <time>2024-09-18T15:00:57Z</time>
      </trkpt>
      <trkpt lat="51.106403041630983" lon="14.19663199223578">
        <ele>288.52999999999997</ele>
        <time>2024-09-18T15:00:58Z</time>
      </trkpt>
      <trkpt lat="51.106529021635652" lon="14.196539958938956">
        <ele>288.52999999999997</ele>
        <time>2024-09-18T15:00:59Z</time>
      </trkpt>
      <trkpt lat="51.106623988598585" lon="14.196469970047474">
        <ele>289.00999999999999</ele>
        <time>2024-09-18T15:01:00Z</time>
      </trkpt>
      <trkpt lat="51.106727002188563" lon="14.19639503583312">
        <ele>289.00999999999999</ele>
        <time>2024-09-18T15:01:01Z</time>
      </trkpt>
      <trkpt lat="51.106839990243316" lon="14.196319011971354">
        <ele>289.00999999999999</ele>
        <time>2024-09-18T15:01:02Z</time>
      </trkpt>
      <trkpt lat="51.107811033725739" lon="14.195631025359035">
        <ele>287.56999999999999</ele>
        <time>2024-09-18T15:01:10Z</time>
      </trkpt>
      <trkpt lat="51.107907006517053" lon="14.195504961535335">
        <ele>287.56999999999999</ele>
        <time>2024-09-18T15:01:11Z</time>
      </trkpt>
      <trkpt lat="51.107999039813876" lon="14.195377975702286">
        <ele>287.56999999999999</ele>
        <time>2024-09-18T15:01:12Z</time>
      </trkpt>
      <trkpt lat="51.108819963410497" lon="14.194242982193828">
        <ele>287.56999999999999</ele>
        <time>2024-09-18T15:01:21Z</time>
      </trkpt>
      <trkpt lat="51.109704002737999" lon="14.193016961216927">
        <ele>288.05000000000001</ele>
        <time>2024-09-18T15:01:31Z</time>
      </trkpt>
      <trkpt lat="51.110446974635124" lon="14.192392006516457">
        <ele>288.52999999999997</ele>
        <time>2024-09-18T15:01:38Z</time>
      </trkpt>
      <trkpt lat="51.111752036958933" lon="14.192073997110128">
        <ele>288.05000000000001</ele>
        <time>2024-09-18T15:01:49Z</time>
      </trkpt>
      <trkpt lat="51.113003036007285" lon="14.191502016037703">
        <ele>293.81999999999999</ele>
        <time>2024-09-18T15:01:59Z</time>
      </trkpt>
      <trkpt lat="51.114494008943439" lon="14.190752003341913">
        <ele>296.69999999999999</ele>
        <time>2024-09-18T15:02:10Z</time>
      </trkpt>
      <trkpt lat="51.115282997488976" lon="14.190357970073819">
        <ele>295.74000000000001</ele>
        <time>2024-09-18T15:02:15Z</time>
      </trkpt>
      <trkpt lat="51.116306008771062" lon="14.189854972064495">
        <ele>297.18000000000001</ele>
        <time>2024-09-18T15:02:23Z</time>
      </trkpt>
      <trkpt lat="51.117668990045786" lon="14.189158016815782">
        <ele>304.38999999999999</ele>
        <time>2024-09-18T15:02:34Z</time>
      </trkpt>
      <trkpt lat="51.118932981044054" lon="14.18853297829628">
        <ele>305.83999999999997</ele>
        <time>2024-09-18T15:02:45Z</time>
      </trkpt>
      <trkpt lat="51.120554963126779" lon="14.187727980315685">
        <ele>304.38999999999999</ele>
        <time>2024-09-18T15:02:59Z</time>
      </trkpt>
      <trkpt lat="51.120669962838292" lon="14.187671989202499">
        <ele>304.38999999999999</ele>
        <time>2024-09-18T15:03:00Z</time>
      </trkpt>
      <trkpt lat="51.122031016275287" lon="14.186990037560463">
        <ele>299.58999999999997</ele>
        <time>2024-09-18T15:03:12Z</time>
      </trkpt>
      <trkpt lat="51.12276996485889" lon="14.186568008735776">
        <ele>299.58999999999997</ele>
        <time>2024-09-18T15:03:19Z</time>
      </trkpt>
      <trkpt lat="51.122849006205797" lon="14.186499025672674">
        <ele>299.11000000000001</ele>
        <time>2024-09-18T15:03:20Z</time>
      </trkpt>
      <trkpt lat="51.123008010908961" lon="14.186354018747807">
        <ele>299.11000000000001</ele>
        <time>2024-09-18T15:03:22Z</time>
      </trkpt>
      <trkpt lat="51.123077999800444" lon="14.186268020421267">
        <ele>299.11000000000001</ele>
        <time>2024-09-18T15:03:23Z</time>
      </trkpt>
      <trkpt lat="51.123498016968369" lon="14.185745995491743">
        <ele>296.22000000000003</ele>
        <time>2024-09-18T15:03:29Z</time>
      </trkpt>
      <trkpt lat="51.123655010014772" lon="14.185452964156866">
        <ele>294.30000000000001</ele>
        <time>2024-09-18T15:03:32Z</time>
      </trkpt>
      <trkpt lat="51.123807979747653" lon="14.185397978872061">
        <ele>293.81999999999999</ele>
        <time>2024-09-18T15:03:33Z</time>
      </trkpt>
      <trkpt lat="51.123828012496233" lon="14.185297982767224">
        <ele>293.33999999999997</ele>
        <time>2024-09-18T15:03:34Z</time>
      </trkpt>
      <trkpt lat="51.123846033588052" lon="14.185206033289433">
        <ele>292.86000000000001</ele>
        <time>2024-09-18T15:03:35Z</time>
      </trkpt>
      <trkpt lat="51.123783001676202" lon="14.185079969465733">
        <ele>292.38</ele>
        <time>2024-09-18T15:03:36Z</time>
      </trkpt>
      <trkpt lat="51.123762968927622" lon="14.185045016929507">
        <ele>291.89999999999998</ele>
        <time>2024-09-18T15:03:37Z</time>
      </trkpt>
      <trkpt lat="51.123614022508264" lon="14.184953989461064">
        <ele>291.42000000000002</ele>
        <time>2024-09-18T15:03:38Z</time>
      </trkpt>
      <trkpt lat="51.123575968667865" lon="14.184819962829351">
        <ele>290.94</ele>
        <time>2024-09-18T15:03:39Z</time>
      </trkpt>
      <trkpt lat="51.123531041666865" lon="14.184662969782948">
        <ele>290.45999999999998</ele>
        <time>2024-09-18T15:03:40Z</time>
      </trkpt>
      <trkpt lat="51.123483013361692" lon="14.184496002271771">
        <ele>289.97000000000003</ele>
        <time>2024-09-18T15:03:41Z</time>
      </trkpt>
      <trkpt lat="51.123138014227152" lon="14.183285990729928">
        <ele>287.08999999999997</ele>
        <time>2024-09-18T15:03:49Z</time>
      </trkpt>
      <trkpt lat="51.123109012842178" lon="14.183184988796711">
        <ele>287.08999999999997</ele>
        <time>2024-09-18T15:03:50Z</time>
      </trkpt>
      <trkpt lat="51.123140025883913" lon="14.18301198631525">
        <ele>287.08999999999997</ele>
        <time>2024-09-18T15:03:51Z</time>
      </trkpt>
      <trkpt lat="51.123186964541674" lon="14.18296898715198">
        <ele>287.08999999999997</ele>
        <time>2024-09-18T15:03:52Z</time>
      </trkpt>
      <trkpt lat="51.123246978968382" lon="14.182914001867175">
        <ele>287.56999999999999</ele>
        <time>2024-09-18T15:03:53Z</time>
      </trkpt>
      <trkpt lat="51.123333983123302" lon="14.182834960520267">
        <ele>287.56999999999999</ele>
        <time>2024-09-18T15:03:54Z</time>
      </trkpt>
      <trkpt lat="51.123759029433131" lon="14.181833993643522">
        <ele>286.13</ele>
        <time>2024-09-18T15:04:01Z</time>
      </trkpt>
      <trkpt lat="51.124132024124265" lon="14.181522019207478">
        <ele>285.64999999999998</ele>
        <time>2024-09-18T15:04:05Z</time>
      </trkpt>
      <trkpt lat="51.124886982142925" lon="14.180845012888312">
        <ele>286.13</ele>
        <time>2024-09-18T15:04:15Z</time>
      </trkpt>
      <trkpt lat="51.125092003494501" lon="14.18062599375844">
        <ele>286.13</ele>
        <time>2024-09-18T15:04:22Z</time>
      </trkpt>
      <trkpt lat="51.125093009322882" lon="14.180624987930059">
        <ele>285.64999999999998</ele>
        <time>2024-09-18T15:04:23Z</time>
      </trkpt>
      <trkpt lat="51.125064007937908" lon="14.180545024573803">
        <ele>285.64999999999998</ele>
        <time>2024-09-18T15:04:24Z</time>
      </trkpt>
      <trkpt lat="51.125026037916541" lon="14.180437987670302">
        <ele>285.64999999999998</ele>
        <time>2024-09-18T15:04:25Z</time>
      </trkpt>
      <trkpt lat="51.12498396076262" lon="14.180319970473647">
        <ele>285.64999999999998</ele>
        <time>2024-09-18T15:04:26Z</time>
      </trkpt>
      <trkpt lat="51.124937022104859" lon="14.180190972983837">
        <ele>285.17000000000002</ele>
        <time>2024-09-18T15:04:27Z</time>
      </trkpt>
      <trkpt lat="51.124346014112234" lon="14.178663035854697">
        <ele>281.80000000000001</ele>
        <time>2024-09-18T15:04:37Z</time>
      </trkpt>
      <trkpt lat="51.124134035781026" lon="14.178171018138528">
        <ele>279.88</ele>
        <time>2024-09-18T15:04:41Z</time>
      </trkpt>
      <trkpt lat="51.124092964455485" lon="14.178076973184943">
        <ele>279.88</ele>
        <time>2024-09-18T15:04:42Z</time>
      </trkpt>
      <trkpt lat="51.124086007475853" lon="14.17796197347343">
        <ele>279.39999999999998</ele>
        <time>2024-09-18T15:04:43Z</time>
      </trkpt>
      <trkpt lat="51.124119032174349" lon="14.177895002067089">
        <ele>279.39999999999998</ele>
        <time>2024-09-18T15:04:44Z</time>
      </trkpt>
      <trkpt lat="51.124149039387703" lon="14.177834987640381">
        <ele>279.39999999999998</ele>
        <time>2024-09-18T15:04:45Z</time>
      </trkpt>
      <trkpt lat="51.124193966388702" lon="14.177777990698814">
        <ele>279.39999999999998</ele>
        <time>2024-09-18T15:04:46Z</time>
      </trkpt>
      <trkpt lat="51.124245012179017" lon="14.177712025120854">
        <ele>279.88</ele>
        <time>2024-09-18T15:04:47Z</time>
      </trkpt>
      <trkpt lat="51.124423965811729" lon="14.177483031526208">
        <ele>279.39999999999998</ele>
        <time>2024-09-18T15:04:50Z</time>
      </trkpt>
      <trkpt lat="51.125043975189328" lon="14.176689013838768">
        <ele>278.92000000000002</ele>
        <time>2024-09-18T15:04:59Z</time>
      </trkpt>
      <trkpt lat="51.125094015151262" lon="14.176623970270157">
        <ele>278.92000000000002</ele>
        <time>2024-09-18T15:05:00Z</time>
      </trkpt>
      <trkpt lat="51.125245979055762" lon="14.176430013030767">
        <ele>279.39999999999998</ele>
        <time>2024-09-18T15:05:07Z</time>
      </trkpt>
      <trkpt lat="51.125388974323869" lon="14.176246030256152">
        <ele>278.92000000000002</ele>
        <time>2024-09-18T15:05:22Z</time>
      </trkpt>
      <trkpt lat="51.125444965437055" lon="14.176175035536289">
        <ele>278.92000000000002</ele>
        <time>2024-09-18T15:05:23Z</time>
      </trkpt>
      <trkpt lat="51.125437002629042" lon="14.175939001142979">
        <ele>278.44</ele>
        <time>2024-09-18T15:05:24Z</time>
      </trkpt>
      <trkpt lat="51.125381011515856" lon="14.175848979502916">
        <ele>277.95999999999998</ele>
        <time>2024-09-18T15:05:25Z</time>
      </trkpt>
      <trkpt lat="51.125315967947245" lon="14.175744960084558">
        <ele>277.95999999999998</ele>
        <time>2024-09-18T15:05:26Z</time>
      </trkpt>
      <trkpt lat="51.125244973227382" lon="14.175630966201425">
        <ele>277.48000000000002</ele>
        <time>2024-09-18T15:05:27Z</time>
      </trkpt>
      <trkpt lat="51.12502402625978" lon="14.175268029794097">
        <ele>275.56</ele>
        <time>2024-09-18T15:05:30Z</time>
      </trkpt>
      <trkpt lat="51.124941967427731" lon="14.175158981233835">
        <ele>275.06999999999999</ele>
        <time>2024-09-18T15:05:31Z</time>
      </trkpt>
      <trkpt lat="51.124857980757952" lon="14.175052028149366">
        <ele>275.06999999999999</ele>
        <time>2024-09-18T15:05:32Z</time>
      </trkpt>
      <trkpt lat="51.123784007504582" lon="14.173701032996178">
        <ele>272.67000000000002</ele>
        <time>2024-09-18T15:05:44Z</time>
      </trkpt>
      <trkpt lat="51.123465998098254" lon="14.17323399335146">
        <ele>273.63</ele>
        <time>2024-09-18T15:05:48Z</time>
      </trkpt>
      <trkpt lat="51.123381005600095" lon="14.173082029446959">
        <ele>274.58999999999997</ele>
        <time>2024-09-18T15:05:49Z</time>
      </trkpt>
      <trkpt lat="51.12328696064651" lon="14.172911960631609">
        <ele>275.06999999999999</ele>
        <time>2024-09-18T15:05:50Z</time>
      </trkpt>
      <trkpt lat="51.123218983411789" lon="14.172713980078697">
        <ele>275.56</ele>
        <time>2024-09-18T15:05:51Z</time>
      </trkpt>
      <trkpt lat="51.123147988691926" lon="14.172508036717772">
        <ele>276.04000000000002</ele>
        <time>2024-09-18T15:05:52Z</time>
      </trkpt>
      <trkpt lat="51.123076993972063" lon="14.172304021194577">
        <ele>276.51999999999998</ele>
        <time>2024-09-18T15:05:53Z</time>
      </trkpt>
      <trkpt lat="51.12300499342382" lon="14.172094976529479">
        <ele>277</ele>
        <time>2024-09-18T15:05:54Z</time>
      </trkpt>
      <trkpt lat="51.122375009581447" lon="14.170271996408701">
        <ele>278.92000000000002</ele>
        <time>2024-09-18T15:06:03Z</time>
      </trkpt>
      <trkpt lat="51.12171501852572" lon="14.168393025174737">
        <ele>280.83999999999997</ele>
        <time>2024-09-18T15:06:13Z</time>
      </trkpt>
      <trkpt lat="51.121255019679666" lon="14.166137035936117">
        <ele>279.88</ele>
        <time>2024-09-18T15:06:22Z</time>
      </trkpt>
      <trkpt lat="51.120673986151814" lon="14.163099015131593">
        <ele>278.44</ele>
        <time>2024-09-18T15:06:32Z</time>
      </trkpt>
      <trkpt lat="51.119792964309454" lon="14.160969005897641">
        <ele>278.44</ele>
        <time>2024-09-18T15:06:39Z</time>
      </trkpt>
      <trkpt lat="51.118339961394668" lon="14.157693022862077">
        <ele>279.39999999999998</ele>
        <time>2024-09-18T15:06:49Z</time>
      </trkpt>
      <trkpt lat="51.117105977609754" lon="14.154744017869234">
        <ele>277.95999999999998</ele>
        <time>2024-09-18T15:06:58Z</time>
      </trkpt>
      <trkpt lat="51.116288993507624" lon="14.15310300886631">
        <ele>278.44</ele>
        <time>2024-09-18T15:07:05Z</time>
      </trkpt>
      <trkpt lat="51.115632019937038" lon="14.15168303065002">
        <ele>276.51999999999998</ele>
        <time>2024-09-18T15:07:11Z</time>
      </trkpt>
      <trkpt lat="51.115566976368427" lon="14.151414977386594">
        <ele>276.51999999999998</ele>
        <time>2024-09-18T15:07:12Z</time>
      </trkpt>
      <trkpt lat="51.115501010790467" lon="14.151143990457058">
        <ele>276.51999999999998</ele>
        <time>2024-09-18T15:07:13Z</time>
      </trkpt>
      <trkpt lat="51.115457005798817" lon="14.150864034891129">
        <ele>276.51999999999998</ele>
        <time>2024-09-18T15:07:14Z</time>
      </trkpt>
      <trkpt lat="51.115423981100321" lon="14.150585001334548">
        <ele>276.51999999999998</ele>
        <time>2024-09-18T15:07:15Z</time>
      </trkpt>
      <trkpt lat="51.115194987505674" lon="14.148703012615442">
        <ele>277</ele>
        <time>2024-09-18T15:07:23Z</time>
      </trkpt>
      <trkpt lat="51.115050986409187" lon="14.147491995245218">
        <ele>275.56</ele>
        <time>2024-09-18T15:07:29Z</time>
      </trkpt>
      <trkpt lat="51.115074036642909" lon="14.146122979000211">
        <ele>275.06999999999999</ele>
        <time>2024-09-18T15:07:38Z</time>
      </trkpt>
      <trkpt lat="51.115086022764444" lon="14.145517973229289">
        <ele>274.11000000000001</ele>
        <time>2024-09-18T15:07:43Z</time>
      </trkpt>
      <trkpt lat="51.114999018609524" lon="14.145007012411952">
        <ele>273.14999999999998</ele>
        <time>2024-09-18T15:07:47Z</time>
      </trkpt>
      <trkpt lat="51.114629041403532" lon="14.143904037773609">
        <ele>272.19</ele>
        <time>2024-09-18T15:07:55Z</time>
      </trkpt>
      <trkpt lat="51.114387977868319" lon="14.143443033099174">
        <ele>272.19</ele>
        <time>2024-09-18T15:07:58Z</time>
      </trkpt>
      <trkpt lat="51.114317988976836" lon="14.143280005082488">
        <ele>272.19</ele>
        <time>2024-09-18T15:07:59Z</time>
      </trkpt>
      <trkpt lat="51.114252023398876" lon="14.143107002601027">
        <ele>272.19</ele>
        <time>2024-09-18T15:08:00Z</time>
      </trkpt>
      <trkpt lat="51.114220004528761" lon="14.142913967370987">
        <ele>272.19</ele>
        <time>2024-09-18T15:08:01Z</time>
      </trkpt>
      <trkpt lat="51.114207012578845" lon="14.142711041495204">
        <ele>272.19</ele>
        <time>2024-09-18T15:08:02Z</time>
      </trkpt>
      <trkpt lat="51.1141989659518" lon="14.142507025972009">
        <ele>272.19</ele>
        <time>2024-09-18T15:08:03Z</time>
      </trkpt>
      <trkpt lat="51.11419502645731" lon="14.142308961600065">
        <ele>272.67000000000002</ele>
        <time>2024-09-18T15:08:04Z</time>
      </trkpt>
      <trkpt lat="51.114210030063987" lon="14.142104024067521">
        <ele>272.67000000000002</ele>
        <time>2024-09-18T15:08:05Z</time>
      </trkpt>
      <trkpt lat="51.114225033670664" lon="14.141894979402423">
        <ele>272.67000000000002</ele>
        <time>2024-09-18T15:08:06Z</time>
      </trkpt>
      <trkpt lat="51.114318994805217" lon="14.140553958714008">
        <ele>275.06999999999999</ele>
        <time>2024-09-18T15:08:12Z</time>
      </trkpt>
      <trkpt lat="51.114289993420243" lon="14.140295041725039">
        <ele>275.56</ele>
        <time>2024-09-18T15:08:13Z</time>
      </trkpt>
      <trkpt lat="51.114253029227257" lon="14.140024976804852">
        <ele>276.04000000000002</ele>
        <time>2024-09-18T15:08:14Z</time>
      </trkpt>
      <trkpt lat="51.114182034507394" lon="14.139720965176821">
        <ele>277</ele>
        <time>2024-09-18T15:08:15Z</time>
      </trkpt>
      <trkpt lat="51.114083966240287" lon="14.139392981305718">
        <ele>277.95999999999998</ele>
        <time>2024-09-18T15:08:16Z</time>
      </trkpt>
      <trkpt lat="51.113383993506432" lon="14.137090975418687">
        <ele>283.73000000000002</ele>
        <time>2024-09-18T15:08:22Z</time>
      </trkpt>
      <trkpt lat="51.112648984417319" lon="14.134043985977769">
        <ele>289.97000000000003</ele>
        <time>2024-09-18T15:08:30Z</time>
      </trkpt>
      <trkpt lat="51.112102987244725" lon="14.131570989266038">
        <ele>297.18000000000001</ele>
        <time>2024-09-18T15:08:37Z</time>
      </trkpt>
      <trkpt lat="51.112084966152906" lon="14.131239987909794">
        <ele>298.14999999999998</ele>
        <time>2024-09-18T15:08:38Z</time>
      </trkpt>
      <trkpt lat="51.112080020830035" lon="14.130906974896789">
        <ele>298.63</ele>
        <time>2024-09-18T15:08:39Z</time>
      </trkpt>
      <trkpt lat="51.112073985859752" lon="14.130567004904151">
        <ele>299.58999999999997</ele>
        <time>2024-09-18T15:08:40Z</time>
      </trkpt>
      <trkpt lat="51.112092006951571" lon="14.126765979453921">
        <ele>301.99000000000001</ele>
        <time>2024-09-18T15:08:51Z</time>
      </trkpt>
      <trkpt lat="51.112128971144557" lon="14.123278018087149">
        <ele>297.18000000000001</ele>
        <time>2024-09-18T15:08:59Z</time>
      </trkpt>
      <trkpt lat="51.111996034160256" lon="14.119403986260295">
        <ele>293.33999999999997</ele>
        <time>2024-09-18T15:09:08Z</time>
      </trkpt>
      <trkpt lat="51.111318022012711" lon="14.116576015949249">
        <ele>287.56999999999999</ele>
        <time>2024-09-18T15:09:15Z</time>
      </trkpt>
      <trkpt lat="51.110055958852172" lon="14.112072000280023">
        <ele>283.73000000000002</ele>
        <time>2024-09-18T15:09:27Z</time>
      </trkpt>
      <trkpt lat="51.109434021636844" lon="14.109895974397659">
        <ele>280.83999999999997</ele>
        <time>2024-09-18T15:09:34Z</time>
      </trkpt>
      <trkpt lat="51.109269987791777" lon="14.109326004981995">
        <ele>279.39999999999998</ele>
        <time>2024-09-18T15:09:37Z</time>
      </trkpt>
      <trkpt lat="51.109220031648874" lon="14.109151996672153">
        <ele>278.92000000000002</ele>
        <time>2024-09-18T15:09:38Z</time>
      </trkpt>
      <trkpt lat="51.108894981443882" lon="14.108023960143328">
        <ele>274.58999999999997</ele>
        <time>2024-09-18T15:09:45Z</time>
      </trkpt>
      <trkpt lat="51.108849970623851" lon="14.107865039259195">
        <ele>274.11000000000001</ele>
        <time>2024-09-18T15:09:46Z</time>
      </trkpt>
      <trkpt lat="51.108405981212854" lon="14.106401978060603">
        <ele>270.26999999999998</ele>
        <time>2024-09-18T15:09:55Z</time>
      </trkpt>
      <trkpt lat="51.108233984559774" lon="14.10589998587966">
        <ele>268.35000000000002</ele>
        <time>2024-09-18T15:09:58Z</time>
      </trkpt>
      <trkpt lat="51.107890997081995" lon="14.105121977627277">
        <ele>264.5</ele>
        <time>2024-09-18T15:10:03Z</time>
      </trkpt>
      <trkpt lat="51.107834000140429" lon="14.104961967095733">
        <ele>264.5</ele>
        <time>2024-09-18T15:10:04Z</time>
      </trkpt>
      <trkpt lat="51.107282973825932" lon="14.103478034958243">
        <ele>264.5</ele>
        <time>2024-09-18T15:10:13Z</time>
      </trkpt>
      <trkpt lat="51.107219019904733" lon="14.103315006941557">
        <ele>264.98000000000002</ele>
        <time>2024-09-18T15:10:14Z</time>
      </trkpt>
      <trkpt lat="51.106659024953842" lon="14.10184096544981">
        <ele>268.35000000000002</ele>
        <time>2024-09-18T15:10:23Z</time>
      </trkpt>
      <trkpt lat="51.105822008103132" lon="14.099727971479297">
        <ele>268.35000000000002</ele>
        <time>2024-09-18T15:10:36Z</time>
      </trkpt>
      <trkpt lat="51.10512999817729" lon="14.097936004400253">
        <ele>271.23000000000002</ele>
        <time>2024-09-18T15:10:47Z</time>
      </trkpt>
      <trkpt lat="51.10437897965312" lon="14.095966005697846">
        <ele>274.11000000000001</ele>
        <time>2024-09-18T15:10:59Z</time>
      </trkpt>
      <trkpt lat="51.10364698804915" lon="14.093987960368395">
        <ele>277.48000000000002</ele>
        <time>2024-09-18T15:11:11Z</time>
      </trkpt>
      <trkpt lat="51.103207021951675" lon="14.092928990721703">
        <ele>280.83999999999997</ele>
        <time>2024-09-18T15:11:18Z</time>
      </trkpt>
      <trkpt lat="51.103143990039825" lon="14.092810973525047">
        <ele>281.31999999999999</ele>
        <time>2024-09-18T15:11:19Z</time>
      </trkpt>
      <trkpt lat="51.103060003370047" lon="14.092677030712366">
        <ele>281.80000000000001</ele>
        <time>2024-09-18T15:11:20Z</time>
      </trkpt>
      <trkpt lat="51.102974005043507" lon="14.092540992423892">
        <ele>281.80000000000001</ele>
        <time>2024-09-18T15:11:21Z</time>
      </trkpt>
      <trkpt lat="51.102906027808785" lon="14.092434039339423">
        <ele>281.80000000000001</ele>
        <time>2024-09-18T15:11:22Z</time>
      </trkpt>
      <trkpt lat="51.102804020047188" lon="14.092327002435923">
        <ele>281.80000000000001</ele>
        <time>2024-09-18T15:11:23Z</time>
      </trkpt>
      <trkpt lat="51.10270201228559" lon="14.092219965532422">
        <ele>281.31999999999999</ele>
        <time>2024-09-18T15:11:24Z</time>
      </trkpt>
      <trkpt lat="51.101858038455248" lon="14.09152896143496">
        <ele>275.56</ele>
        <time>2024-09-18T15:11:32Z</time>
      </trkpt>
      <trkpt lat="51.101763993501663" lon="14.091432988643646">
        <ele>274.58999999999997</ele>
        <time>2024-09-18T15:11:33Z</time>
      </trkpt>
      <trkpt lat="51.101667014881968" lon="14.091325029730797">
        <ele>274.11000000000001</ele>
        <time>2024-09-18T15:11:34Z</time>
      </trkpt>
      <trkpt lat="51.101599959656596" lon="14.091183040291071">
        <ele>273.63</ele>
        <time>2024-09-18T15:11:35Z</time>
      </trkpt>
      <trkpt lat="51.101528964936733" lon="14.091026969254017">
        <ele>273.14999999999998</ele>
        <time>2024-09-18T15:11:36Z</time>
      </trkpt>
      <trkpt lat="51.10145797021687" lon="14.090870982035995">
        <ele>272.67000000000002</ele>
        <time>2024-09-18T15:11:37Z</time>
      </trkpt>
      <trkpt lat="51.100645009428263" lon="14.089222010225058">
        <ele>270.75</ele>
        <time>2024-09-18T15:11:48Z</time>
      </trkpt>
      <trkpt lat="51.099740015342832" lon="14.08742300234735">
        <ele>275.06999999999999</ele>
        <time>2024-09-18T15:12:00Z</time>
      </trkpt>
      <trkpt lat="51.098878020420671" lon="14.085367005318403">
        <ele>277.48000000000002</ele>
        <time>2024-09-18T15:12:13Z</time>
      </trkpt>
      <trkpt lat="51.098336968570948" lon="14.083894975483418">
        <ele>278.44</ele>
        <time>2024-09-18T15:12:20Z</time>
      </trkpt>
      <trkpt lat="51.097499029710889" lon="14.081639992073178">
        <ele>279.88</ele>
        <time>2024-09-18T15:12:30Z</time>
      </trkpt>
      <trkpt lat="51.09664298593998" lon="14.079294987022877">
        <ele>281.80000000000001</ele>
        <time>2024-09-18T15:12:38Z</time>
      </trkpt>
      <trkpt lat="51.095085963606834" lon="14.075074028223753">
        <ele>287.56999999999999</ele>
        <time>2024-09-18T15:12:50Z</time>
      </trkpt>
      <trkpt lat="51.093342024832964" lon="14.070333978161216">
        <ele>280.83999999999997</ele>
        <time>2024-09-18T15:13:02Z</time>
      </trkpt>
      <trkpt lat="51.091643013060093" lon="14.065761985257268">
        <ele>278.92000000000002</ele>
        <time>2024-09-18T15:13:14Z</time>
      </trkpt>
      <trkpt lat="51.090440964326262" lon="14.062713989987969">
        <ele>278.44</ele>
        <time>2024-09-18T15:13:24Z</time>
      </trkpt>
      <trkpt lat="51.089234976097941" lon="14.060921017080545">
        <ele>280.83999999999997</ele>
        <time>2024-09-18T15:13:33Z</time>
      </trkpt>
      <trkpt lat="51.088148010894656" lon="14.058883041143417">
        <ele>282.27999999999997</ele>
        <time>2024-09-18T15:13:41Z</time>
      </trkpt>
      <trkpt lat="51.086505996063352" lon="14.055699007585645">
        <ele>276.04000000000002</ele>
        <time>2024-09-18T15:13:51Z</time>
      </trkpt>
      <trkpt lat="51.085114013403654" lon="14.052787972614169">
        <ele>271.23000000000002</ele>
        <time>2024-09-18T15:14:01Z</time>
      </trkpt>
      <trkpt lat="51.084437007084489" lon="14.051228016614914">
        <ele>270.26999999999998</ele>
        <time>2024-09-18T15:14:09Z</time>
      </trkpt>
      <trkpt lat="51.083855973556638" lon="14.049881966784596">
        <ele>268.35000000000002</ele>
        <time>2024-09-18T15:14:17Z</time>
      </trkpt>
      <trkpt lat="51.083676014095545" lon="14.049463961273432">
        <ele>265.94</ele>
        <time>2024-09-18T15:14:24Z</time>
      </trkpt>
      <trkpt lat="51.083676014095545" lon="14.049463961273432">
        <ele>265.45999999999998</ele>
        <time>2024-09-18T15:14:36Z</time>
      </trkpt>
      <trkpt lat="51.083676014095545" lon="14.049463961273432">
        <ele>265.45999999999998</ele>
        <time>2024-09-18T15:14:58Z</time>
      </trkpt>
      <trkpt lat="51.083676014095545" lon="14.049463961273432">
        <ele>265.94</ele>
        <time>2024-09-18T15:15:22Z</time>
      </trkpt>
      <trkpt lat="51.083676014095545" lon="14.049463961273432">
        <ele>265.94</ele>
        <time>2024-09-18T15:15:43Z</time>
      </trkpt>
      <trkpt lat="51.083676014095545" lon="14.049463961273432">
        <ele>266.42000000000002</ele>
        <time>2024-09-18T15:16:14Z</time>
      </trkpt>
      <trkpt lat="51.083676014095545" lon="14.049463961273432">
        <ele>267.38</ele>
        <time>2024-09-18T15:17:18Z</time>
      </trkpt>
      <trkpt lat="51.083676014095545" lon="14.049463961273432">
        <ele>267.38</ele>
        <time>2024-09-18T15:18:13Z</time>
      </trkpt>
      <trkpt lat="51.083676014095545" lon="14.049463961273432">
        <ele>267.86000000000001</ele>
        <time>2024-09-18T15:19:08Z</time>
      </trkpt>
      <trkpt lat="51.083676014095545" lon="14.049463961273432">
        <ele>267.86000000000001</ele>
        <time>2024-09-18T15:19:48Z</time>
      </trkpt>
      <trkpt lat="51.083676014095545" lon="14.049463961273432">
        <ele>267.86000000000001</ele>
        <time>2024-09-18T15:20:09Z</time>
      </trkpt>
      <trkpt lat="51.083637038245797" lon="14.049376035109162">
        <ele>267.86000000000001</ele>
        <time>2024-09-18T15:20:11Z</time>
      </trkpt>
      <trkpt lat="51.083618011325598" lon="14.049330018460751">
        <ele>268.35000000000002</ele>
        <time>2024-09-18T15:20:12Z</time>
      </trkpt>
      <trkpt lat="51.083583980798721" lon="14.049251982942224">
        <ele>268.82999999999998</ele>
        <time>2024-09-18T15:20:13Z</time>
      </trkpt>
      <trkpt lat="51.08353896997869" lon="14.049147041514516">
        <ele>269.31</ele>
        <time>2024-09-18T15:20:14Z</time>
      </trkpt>
      <trkpt lat="51.083094980567694" lon="14.048117995262146">
        <ele>270.75</ele>
        <time>2024-09-18T15:20:20Z</time>
      </trkpt>
      <trkpt lat="51.082300040870905" lon="14.046294009312987">
        <ele>271.70999999999998</ele>
        <time>2024-09-18T15:20:27Z</time>
      </trkpt>
      <trkpt lat="51.080784006044269" lon="14.042827002704144">
        <ele>271.23000000000002</ele>
        <time>2024-09-18T15:20:38Z</time>
      </trkpt>
      <trkpt lat="51.079138973727822" lon="14.038806958124042">
        <ele>274.11000000000001</ele>
        <time>2024-09-18T15:20:50Z</time>
      </trkpt>
      <trkpt lat="51.078468002378941" lon="14.036683989688754">
        <ele>275.56</ele>
        <time>2024-09-18T15:20:58Z</time>
      </trkpt>
      <trkpt lat="51.078090984374285" lon="14.035215983167291">
        <ele>275.06999999999999</ele>
        <time>2024-09-18T15:21:05Z</time>
      </trkpt>
      <trkpt lat="51.077985959127545" lon="14.034823039546609">
        <ele>274.58999999999997</ele>
        <time>2024-09-18T15:21:09Z</time>
      </trkpt>
      <trkpt lat="51.077963998541236" lon="14.03474098071456">
        <ele>274.58999999999997</ele>
        <time>2024-09-18T15:21:10Z</time>
      </trkpt>
      <trkpt lat="51.078035999089479" lon="14.034562027081847">
        <ele>274.58999999999997</ele>
        <time>2024-09-18T15:21:11Z</time>
      </trkpt>
      <trkpt lat="51.078043039888144" lon="14.034491032361984">
        <ele>274.58999999999997</ele>
        <time>2024-09-18T15:21:12Z</time>
      </trkpt>
      <trkpt lat="51.078067012131214" lon="14.034313000738621">
        <ele>274.58999999999997</ele>
        <time>2024-09-18T15:21:13Z</time>
      </trkpt>
      <trkpt lat="51.078150998800993" lon="14.034191966056824">
        <ele>274.58999999999997</ele>
        <time>2024-09-18T15:21:14Z</time>
      </trkpt>
      <trkpt lat="51.078250994905829" lon="14.034046959131956">
        <ele>274.11000000000001</ele>
        <time>2024-09-18T15:21:15Z</time>
      </trkpt>
      <trkpt lat="51.078992960974574" lon="14.032605020329356">
        <ele>272.67000000000002</ele>
        <time>2024-09-18T15:21:22Z</time>
      </trkpt>
      <trkpt lat="51.080169025808573" lon="14.029895989224315">
        <ele>272.19</ele>
        <time>2024-09-18T15:21:31Z</time>
      </trkpt>
      <trkpt lat="51.081498982384801" lon="14.027642011642456">
        <ele>272.67000000000002</ele>
        <time>2024-09-18T15:21:39Z</time>
      </trkpt>
      <trkpt lat="51.083334032446146" lon="14.02462201192975">
        <ele>268.35000000000002</ele>
        <time>2024-09-18T15:21:50Z</time>
      </trkpt>
      <trkpt lat="51.084271967411041" lon="14.022744968533516">
        <ele>265.94</ele>
        <time>2024-09-18T15:21:57Z</time>
      </trkpt>
      <trkpt lat="51.084952997043729" lon="14.02131199836731">
        <ele>262.57999999999998</ele>
        <time>2024-09-18T15:22:04Z</time>
      </trkpt>
      <trkpt lat="51.085840975865722" lon="14.01935700327158">
        <ele>263.06</ele>
        <time>2024-09-18T15:22:16Z</time>
      </trkpt>
      <trkpt lat="51.08656701631844" lon="14.017620021477342">
        <ele>264.01999999999998</ele>
        <time>2024-09-18T15:22:27Z</time>
      </trkpt>
      <trkpt lat="51.087330020964146" lon="14.015620015561581">
        <ele>263.06</ele>
        <time>2024-09-18T15:22:39Z</time>
      </trkpt>
      <trkpt lat="51.088278014212847" lon="14.013173002749681">
        <ele>257.76999999999998</ele>
        <time>2024-09-18T15:22:54Z</time>
      </trkpt>
      <trkpt lat="51.088958038017154" lon="14.011440966278315">
        <ele>254.88999999999999</ele>
        <time>2024-09-18T15:23:05Z</time>
      </trkpt>
      <trkpt lat="51.089671002700925" lon="14.009657967835665">
        <ele>253.93000000000001</ele>
        <time>2024-09-18T15:23:16Z</time>
      </trkpt>
      <trkpt lat="51.090483963489532" lon="14.008107986301184">
        <ele>258.25</ele>
        <time>2024-09-18T15:23:27Z</time>
      </trkpt>
      <trkpt lat="51.091517033055425" lon="14.006098005920649">
        <ele>260.64999999999998</ele>
        <time>2024-09-18T15:23:41Z</time>
      </trkpt>
      <trkpt lat="51.09249503351748" lon="14.003967996686697">
        <ele>263.54000000000002</ele>
        <time>2024-09-18T15:23:55Z</time>
      </trkpt>
      <trkpt lat="51.093157958239317" lon="14.002517005428672">
        <ele>264.98000000000002</ele>
        <time>2024-09-18T15:24:05Z</time>
      </trkpt>
      <trkpt lat="51.09393403865397" lon="14.000837020576">
        <ele>265.45999999999998</ele>
        <time>2024-09-18T15:24:16Z</time>
      </trkpt>
      <trkpt lat="51.094765020534396" lon="13.998980009928346">
        <ele>263.54000000000002</ele>
        <time>2024-09-18T15:24:28Z</time>
      </trkpt>
      <trkpt lat="51.095355022698641" lon="13.997695986181498">
        <ele>265.45999999999998</ele>
        <time>2024-09-18T15:24:38Z</time>
      </trkpt>
      <trkpt lat="51.09593203291297" lon="13.996826028451324">
        <ele>263.54000000000002</ele>
        <time>2024-09-18T15:24:49Z</time>
      </trkpt>
      <trkpt lat="51.096130013465881" lon="13.996532997116446">
        <ele>263.06</ele>
        <time>2024-09-18T15:24:53Z</time>
      </trkpt>
      <trkpt lat="51.096719009801745" lon="13.995657004415989">
        <ele>258.73000000000002</ele>
        <time>2024-09-18T15:25:04Z</time>
      </trkpt>
      <trkpt lat="51.096769971773028" lon="13.995579974725842">
        <ele>258.25</ele>
        <time>2024-09-18T15:25:05Z</time>
      </trkpt>
      <trkpt lat="51.096821017563343" lon="13.995505040511489">
        <ele>257.29000000000002</ele>
        <time>2024-09-18T15:25:06Z</time>
      </trkpt>
      <trkpt lat="51.097425017505884" lon="13.994599962607026">
        <ele>256.81</ele>
        <time>2024-09-18T15:25:17Z</time>
      </trkpt>
      <trkpt lat="51.097849979996681" lon="13.994051031768322">
        <ele>258.25</ele>
        <time>2024-09-18T15:25:24Z</time>
      </trkpt>
      <trkpt lat="51.097903959453106" lon="13.993960004299879">
        <ele>258.25</ele>
        <time>2024-09-18T15:25:25Z</time>
      </trkpt>
      <trkpt lat="51.097949976101518" lon="13.993850033730268">
        <ele>258.25</ele>
        <time>2024-09-18T15:25:26Z</time>
      </trkpt>
      <trkpt lat="51.097991969436407" lon="13.993750037625432">
        <ele>258.73000000000002</ele>
        <time>2024-09-18T15:25:27Z</time>
      </trkpt>
      <trkpt lat="51.097991969436407" lon="13.993602013215423">
        <ele>258.73000000000002</ele>
        <time>2024-09-18T15:25:28Z</time>
      </trkpt>
      <trkpt lat="51.097991969436407" lon="13.993463963270187">
        <ele>258.73000000000002</ele>
        <time>2024-09-18T15:25:29Z</time>
      </trkpt>
      <trkpt lat="51.097991969436407" lon="13.993342006579041">
        <ele>258.73000000000002</ele>
        <time>2024-09-18T15:25:30Z</time>
      </trkpt>
      <trkpt lat="51.097966991364956" lon="13.993243016302586">
        <ele>258.73000000000002</ele>
        <time>2024-09-18T15:25:31Z</time>
      </trkpt>
      <trkpt lat="51.097943019121885" lon="13.993146037682891">
        <ele>258.73000000000002</ele>
        <time>2024-09-18T15:25:32Z</time>
      </trkpt>
      <trkpt lat="51.097921980544925" lon="13.993062973022461">
        <ele>258.73000000000002</ele>
        <time>2024-09-18T15:25:33Z</time>
      </trkpt>
      <trkpt lat="51.097903959453106" lon="13.992989966645837">
        <ele>258.73000000000002</ele>
        <time>2024-09-18T15:25:34Z</time>
      </trkpt>
      <trkpt lat="51.097886022180319" lon="13.992918971925974">
        <ele>259.20999999999998</ele>
        <time>2024-09-18T15:25:35Z</time>
      </trkpt>
      <trkpt lat="51.097870012745261" lon="13.992855018004775">
        <ele>259.20999999999998</ele>
        <time>2024-09-18T15:25:36Z</time>
      </trkpt>
      <trkpt lat="51.097857020795345" lon="13.99280103854835">
        <ele>259.20999999999998</ele>
        <time>2024-09-18T15:25:37Z</time>
      </trkpt>
      <trkpt lat="51.097838999703526" lon="13.992730965837836">
        <ele>259.69</ele>
        <time>2024-09-18T15:25:39Z</time>
      </trkpt>
      <trkpt lat="51.097786026075482" lon="13.992515970021486">
        <ele>259.20999999999998</ele>
        <time>2024-09-18T15:25:47Z</time>
      </trkpt>
      <trkpt lat="51.097525013610721" lon="13.991406038403511">
        <ele>260.17000000000002</ele>
        <time>2024-09-18T15:25:54Z</time>
      </trkpt>
      <trkpt lat="51.097411019727588" lon="13.990893987938762">
        <ele>260.64999999999998</ele>
        <time>2024-09-18T15:25:57Z</time>
      </trkpt>
      <trkpt lat="51.097390986979008" lon="13.990521999076009">
        <ele>261.13999999999999</ele>
        <time>2024-09-18T15:25:59Z</time>
      </trkpt>
      <trkpt lat="51.097390986979008" lon="13.990328963845968">
        <ele>261.13999999999999</ele>
        <time>2024-09-18T15:26:00Z</time>
      </trkpt>
      <trkpt lat="51.097396016120911" lon="13.990127965807915">
        <ele>261.13999999999999</ele>
        <time>2024-09-18T15:26:01Z</time>
      </trkpt>
      <trkpt lat="51.097424011677504" lon="13.989931996911764">
        <ele>261.13999999999999</ele>
        <time>2024-09-18T15:26:02Z</time>
      </trkpt>
      <trkpt lat="51.097457958385348" lon="13.989737033843994">
        <ele>261.13999999999999</ele>
        <time>2024-09-18T15:26:03Z</time>
      </trkpt>
      <trkpt lat="51.097788037732244" lon="13.987867031246424">
        <ele>262.57999999999998</ele>
        <time>2024-09-18T15:26:13Z</time>
      </trkpt>
      <trkpt lat="51.098219035193324" lon="13.985395040363073">
        <ele>261.13999999999999</ele>
        <time>2024-09-18T15:26:26Z</time>
      </trkpt>
      <trkpt lat="51.098751034587622" lon="13.982653990387917">
        <ele>257.76999999999998</ele>
        <time>2024-09-18T15:26:41Z</time>
      </trkpt>
      <trkpt lat="51.098807025700808" lon="13.982486017048359">
        <ele>257.76999999999998</ele>
        <time>2024-09-18T15:26:42Z</time>
      </trkpt>
      <trkpt lat="51.098876008763909" lon="13.982336986809969">
        <ele>258.25</ele>
        <time>2024-09-18T15:26:43Z</time>
      </trkpt>
      <trkpt lat="51.098955972120166" lon="13.982196003198624">
        <ele>258.25</ele>
        <time>2024-09-18T15:26:44Z</time>
      </trkpt>
      <trkpt lat="51.099034007638693" lon="13.98205703124404">
        <ele>258.73000000000002</ele>
        <time>2024-09-18T15:26:45Z</time>
      </trkpt>
      <trkpt lat="51.099117994308472" lon="13.981915963813663">
        <ele>259.20999999999998</ele>
        <time>2024-09-18T15:26:46Z</time>
      </trkpt>
      <trkpt lat="51.09922201372683" lon="13.981813034042716">
        <ele>259.20999999999998</ele>
        <time>2024-09-18T15:26:47Z</time>
      </trkpt>
      <trkpt lat="51.100756991654634" lon="13.980275960639119">
        <ele>260.17000000000002</ele>
        <time>2024-09-18T15:27:02Z</time>
      </trkpt>
      <trkpt lat="51.102730007842183" lon="13.978421967476606">
        <ele>262.57999999999998</ele>
        <time>2024-09-18T15:27:21Z</time>
      </trkpt>
      <trkpt lat="51.104015037417412" lon="13.977349000051618">
        <ele>264.01999999999998</ele>
        <time>2024-09-18T15:27:33Z</time>
      </trkpt>
      <trkpt lat="51.105694016441703" lon="13.976175030693412">
        <ele>255.37</ele>
        <time>2024-09-18T15:27:48Z</time>
      </trkpt>
      <trkpt lat="51.106158960610628" lon="13.975803963840008">
        <ele>254.41</ele>
        <time>2024-09-18T15:27:51Z</time>
      </trkpt>
      <trkpt lat="51.106316037476063" lon="13.975619981065392">
        <ele>253.93000000000001</ele>
        <time>2024-09-18T15:27:52Z</time>
      </trkpt>
      <trkpt lat="51.106480993330479" lon="13.97540096193552">
        <ele>253.93000000000001</ele>
        <time>2024-09-18T15:27:53Z</time>
      </trkpt>
      <trkpt lat="51.106621976941824" lon="13.975128969177604">
        <ele>253.93000000000001</ele>
        <time>2024-09-18T15:27:54Z</time>
      </trkpt>
      <trkpt lat="51.106767989695072" lon="13.974844990298152">
        <ele>253.44</ele>
        <time>2024-09-18T15:27:55Z</time>
      </trkpt>
      <trkpt lat="51.107828970998526" lon="13.973091999068856">
        <ele>254.41</ele>
        <time>2024-09-18T15:28:01Z</time>
      </trkpt>
      <trkpt lat="51.109096985310316" lon="13.971171034500003">
        <ele>257.29000000000002</ele>
        <time>2024-09-18T15:28:08Z</time>
      </trkpt>
      <trkpt lat="51.109216008335352" lon="13.970884960144758">
        <ele>257.76999999999998</ele>
        <time>2024-09-18T15:28:09Z</time>
      </trkpt>
      <trkpt lat="51.110162995755672" lon="13.968237033113837">
        <ele>259.69</ele>
        <time>2024-09-18T15:28:17Z</time>
      </trkpt>
      <trkpt lat="51.111508039757609" lon="13.965117037296295">
        <ele>258.73000000000002</ele>
        <time>2024-09-18T15:28:27Z</time>
      </trkpt>
      <trkpt lat="51.111867036670446" lon="13.963851034641266">
        <ele>259.69</ele>
        <time>2024-09-18T15:28:33Z</time>
      </trkpt>
      <trkpt lat="51.112336004152894" lon="13.961881035938859">
        <ele>259.69</ele>
        <time>2024-09-18T15:28:45Z</time>
      </trkpt>
      <trkpt lat="51.112399036064744" lon="13.961402010172606">
        <ele>259.69</ele>
        <time>2024-09-18T15:28:48Z</time>
      </trkpt>
      <trkpt lat="51.112409010529518" lon="13.9612209610641">
        <ele>259.69</ele>
        <time>2024-09-18T15:28:49Z</time>
      </trkpt>
      <trkpt lat="51.112308008596301" lon="13.95930795930326">
        <ele>258.73000000000002</ele>
        <time>2024-09-18T15:28:59Z</time>
      </trkpt>
      <trkpt lat="51.11226299777627" lon="13.958939993754029">
        <ele>258.25</ele>
        <time>2024-09-18T15:29:01Z</time>
      </trkpt>
      <trkpt lat="51.111925039440393" lon="13.956888020038605">
        <ele>254.41</ele>
        <time>2024-09-18T15:29:12Z</time>
      </trkpt>
      <trkpt lat="51.111767962574959" lon="13.955020029097795">
        <ele>252.96000000000001</ele>
        <time>2024-09-18T15:29:22Z</time>
      </trkpt>
      <trkpt lat="51.111849015578628" lon="13.951772041618824">
        <ele>254.41</ele>
        <time>2024-09-18T15:29:39Z</time>
      </trkpt>
      <trkpt lat="51.112094018608332" lon="13.949325028806925">
        <ele>258.25</ele>
        <time>2024-09-18T15:29:52Z</time>
      </trkpt>
      <trkpt lat="51.11243600025773" lon="13.947200970724225">
        <ele>264.01999999999998</ele>
        <time>2024-09-18T15:30:03Z</time>
      </trkpt>
      <trkpt lat="51.112715033814311" lon="13.945059981197119">
        <ele>266.42000000000002</ele>
        <time>2024-09-18T15:30:10Z</time>
      </trkpt>
      <trkpt lat="51.112927012145519" lon="13.941435981541872">
        <ele>263.54000000000002</ele>
        <time>2024-09-18T15:30:19Z</time>
      </trkpt>
      <trkpt lat="51.113115018233657" lon="13.939007995650172">
        <ele>265.45999999999998</ele>
        <time>2024-09-18T15:30:26Z</time>
      </trkpt>
      <trkpt lat="51.113406959921122" lon="13.936830963939428">
        <ele>261.13999999999999</ele>
        <time>2024-09-18T15:30:33Z</time>
      </trkpt>
      <trkpt lat="51.113476026803255" lon="13.936349004507065">
        <ele>259.69</ele>
        <time>2024-09-18T15:30:38Z</time>
      </trkpt>
      <trkpt lat="51.113496981561184" lon="13.936196034774184">
        <ele>259.20999999999998</ele>
        <time>2024-09-18T15:30:45Z</time>
      </trkpt>
      <trkpt lat="51.113438978791237" lon="13.93612302839756">
        <ele>259.20999999999998</ele>
        <time>2024-09-18T15:30:46Z</time>
      </trkpt>
      <trkpt lat="51.113374019041657" lon="13.936110036447644">
        <ele>258.73000000000002</ele>
        <time>2024-09-18T15:30:47Z</time>
      </trkpt>
      <trkpt lat="51.113290032371879" lon="13.936093021184206">
        <ele>258.25</ele>
        <time>2024-09-18T15:30:48Z</time>
      </trkpt>
      <trkpt lat="51.113191964104772" lon="13.936065025627613">
        <ele>257.76999999999998</ele>
        <time>2024-09-18T15:30:49Z</time>
      </trkpt>
      <trkpt lat="51.112957019358873" lon="13.935978021472692">
        <ele>256.32999999999998</ele>
        <time>2024-09-18T15:30:51Z</time>
      </trkpt>
      <trkpt lat="51.112855011597276" lon="13.93588799983263">
        <ele>255.84999999999999</ele>
        <time>2024-09-18T15:30:52Z</time>
      </trkpt>
      <trkpt lat="51.112768007442355" lon="13.935754979029298">
        <ele>255.37</ele>
        <time>2024-09-18T15:30:53Z</time>
      </trkpt>
      <trkpt lat="51.112722996622324" lon="13.935598991811275">
        <ele>254.88999999999999</ele>
        <time>2024-09-18T15:30:54Z</time>
      </trkpt>
      <trkpt lat="51.112702041864395" lon="13.93543403595686">
        <ele>254.41</ele>
        <time>2024-09-18T15:30:55Z</time>
      </trkpt>
      <trkpt lat="51.112690977752209" lon="13.93526597879827">
        <ele>253.93000000000001</ele>
        <time>2024-09-18T15:30:56Z</time>
      </trkpt>
      <trkpt lat="51.11271696165204" lon="13.935112003237009">
        <ele>253.44</ele>
        <time>2024-09-18T15:30:57Z</time>
      </trkpt>
      <trkpt lat="51.112786028534174" lon="13.93496498465538">
        <ele>252.96000000000001</ele>
        <time>2024-09-18T15:30:58Z</time>
      </trkpt>
      <trkpt lat="51.11288501881063" lon="13.934831963852048">
        <ele>252.47999999999999</ele>
        <time>2024-09-18T15:30:59Z</time>
      </trkpt>
      <trkpt lat="51.113033965229988" lon="13.934633983299136">
        <ele>252</ele>
        <time>2024-09-18T15:31:00Z</time>
      </trkpt>
      <trkpt lat="51.11316698603332" lon="13.934572041034698">
        <ele>251.52000000000001</ele>
        <time>2024-09-18T15:31:01Z</time>
      </trkpt>
      <trkpt lat="51.113346023485065" lon="13.93449199385941">
        <ele>251.03999999999999</ele>
        <time>2024-09-18T15:31:02Z</time>
      </trkpt>
      <trkpt lat="51.11466902308166" lon="13.93391297198832">
        <ele>250.08000000000001</ele>
        <time>2024-09-18T15:31:08Z</time>
      </trkpt>
      <trkpt lat="51.117552984505892" lon="13.932859031483531">
        <ele>250.56</ele>
        <time>2024-09-18T15:31:20Z</time>
      </trkpt>
      <trkpt lat="51.11954502761364" lon="13.932888032868505">
        <ele>251.03999999999999</ele>
        <time>2024-09-18T15:31:28Z</time>
      </trkpt>
      <trkpt lat="51.121469009667635" lon="13.933801995590329">
        <ele>251.03999999999999</ele>
        <time>2024-09-18T15:31:36Z</time>
      </trkpt>
      <trkpt lat="51.123288972303271" lon="13.935220967978239">
        <ele>250.08000000000001</ele>
        <time>2024-09-18T15:31:44Z</time>
      </trkpt>
      <trkpt lat="51.125506991520524" lon="13.936558971181512">
        <ele>245.75</ele>
        <time>2024-09-18T15:31:53Z</time>
      </trkpt>
      <trkpt lat="51.128145027905703" lon="13.937712991610169">
        <ele>245.27000000000001</ele>
        <time>2024-09-18T15:32:03Z</time>
      </trkpt>
      <trkpt lat="51.129900030791759" lon="13.939183009788394">
        <ele>250.08000000000001</ele>
        <time>2024-09-18T15:32:11Z</time>
      </trkpt>
      <trkpt lat="51.131470967084169" lon="13.941187961027026">
        <ele>256.81</ele>
        <time>2024-09-18T15:32:19Z</time>
      </trkpt>
      <trkpt lat="51.13344800658524" lon="13.944489005953074">
        <ele>265.45999999999998</ele>
        <time>2024-09-18T15:32:30Z</time>
      </trkpt>
      <trkpt lat="51.13473697565496" lon="13.946708030998707">
        <ele>265.94</ele>
        <time>2024-09-18T15:32:38Z</time>
      </trkpt>
      <trkpt lat="51.136482004076242" lon="13.949700035154819">
        <ele>266.42000000000002</ele>
        <time>2024-09-18T15:32:48Z</time>
      </trkpt>
      <trkpt lat="51.137940958142281" lon="13.951629968360066">
        <ele>264.5</ele>
        <time>2024-09-18T15:32:55Z</time>
      </trkpt>
      <trkpt lat="51.139520024880767" lon="13.9525590185076">
        <ele>262.10000000000002</ele>
        <time>2024-09-18T15:33:01Z</time>
      </trkpt>
      <trkpt lat="51.141127003356814" lon="13.952585002407432">
        <ele>258.25</ele>
        <time>2024-09-18T15:33:07Z</time>
      </trkpt>
      <trkpt lat="51.142388982698321" lon="13.951992988586426">
        <ele>256.81</ele>
        <time>2024-09-18T15:33:12Z</time>
      </trkpt>
      <trkpt lat="51.143725980073214" lon="13.950557000935078">
        <ele>253.93000000000001</ele>
        <time>2024-09-18T15:33:18Z</time>
      </trkpt>
      <trkpt lat="51.143918009474874" lon="13.950258018448949">
        <ele>253.44</ele>
        <time>2024-09-18T15:33:19Z</time>
      </trkpt>
      <trkpt lat="51.144096041098237" lon="13.949932968243957">
        <ele>252.96000000000001</ele>
        <time>2024-09-18T15:33:20Z</time>
      </trkpt>
      <trkpt lat="51.145219970494509" lon="13.947449997067451">
        <ele>249.59999999999999</ele>
        <time>2024-09-18T15:33:27Z</time>
      </trkpt>
      <trkpt lat="51.146454960107803" lon="13.945780992507935">
        <ele>248.16</ele>
        <time>2024-09-18T15:33:33Z</time>
      </trkpt>
      <trkpt lat="51.14795096218586" lon="13.944860994815826">
        <ele>248.63999999999999</ele>
        <time>2024-09-18T15:33:39Z</time>
      </trkpt>
      <trkpt lat="51.149500021710992" lon="13.944778013974428">
        <ele>251.52000000000001</ele>
        <time>2024-09-18T15:33:45Z</time>
      </trkpt>
      <trkpt lat="51.150489002466202" lon="13.945160983130336">
        <ele>252.96000000000001</ele>
        <time>2024-09-18T15:33:49Z</time>
      </trkpt>
      <trkpt lat="51.151823988184333" lon="13.946387004107237">
        <ele>252.96000000000001</ele>
        <time>2024-09-18T15:33:55Z</time>
      </trkpt>
      <trkpt lat="51.153330970555544" lon="13.948795963078737">
        <ele>259.20999999999998</ele>
        <time>2024-09-18T15:34:03Z</time>
      </trkpt>
      <trkpt lat="51.156256003305316" lon="13.953725025057793">
        <ele>269.31</ele>
        <time>2024-09-18T15:34:19Z</time>
      </trkpt>
      <trkpt lat="51.158271012827754" lon="13.957121036946774">
        <ele>274.58999999999997</ele>
        <time>2024-09-18T15:34:31Z</time>
      </trkpt>
      <trkpt lat="51.15929301828146" lon="13.95887603983283">
        <ele>276.51999999999998</ele>
        <time>2024-09-18T15:34:39Z</time>
      </trkpt>
      <trkpt lat="51.160567989572883" lon="13.961022980511189">
        <ele>278.92000000000002</ele>
        <time>2024-09-18T15:34:49Z</time>
      </trkpt>
      <trkpt lat="51.161279026418924" lon="13.962602969259024">
        <ele>280.36000000000001</ele>
        <time>2024-09-18T15:34:57Z</time>
      </trkpt>
      <trkpt lat="51.16142001003027" lon="13.963103033602238">
        <ele>280.83999999999997</ele>
        <time>2024-09-18T15:35:03Z</time>
      </trkpt>
      <trkpt lat="51.161454962566495" lon="13.963225996121764">
        <ele>280.83999999999997</ele>
        <time>2024-09-18T15:35:13Z</time>
      </trkpt>
      <trkpt lat="51.161476001143456" lon="13.963301014155149">
        <ele>280.83999999999997</ele>
        <time>2024-09-18T15:35:14Z</time>
      </trkpt>
      <trkpt lat="51.16157297976315" lon="13.963343007490039">
        <ele>280.83999999999997</ele>
        <time>2024-09-18T15:35:15Z</time>
      </trkpt>
      <trkpt lat="51.161626037210226" lon="13.963289028033614">
        <ele>281.31999999999999</ele>
        <time>2024-09-18T15:35:16Z</time>
      </trkpt>
      <trkpt lat="51.16170197725296" lon="13.963213004171848">
        <ele>281.31999999999999</ele>
        <time>2024-09-18T15:35:17Z</time>
      </trkpt>
      <trkpt lat="51.161798033863306" lon="13.963118037208915">
        <ele>281.31999999999999</ele>
        <time>2024-09-18T15:35:18Z</time>
      </trkpt>
      <trkpt lat="51.16189400665462" lon="13.962966995313764">
        <ele>281.31999999999999</ele>
        <time>2024-09-18T15:35:19Z</time>
      </trkpt>
      <trkpt lat="51.16195703856647" lon="13.96285098977387">
        <ele>280.83999999999997</ele>
        <time>2024-09-18T15:35:20Z</time>
      </trkpt>
      <trkpt lat="51.162034990265965" lon="13.962557036429644">
        <ele>280.83999999999997</ele>
        <time>2024-09-18T15:35:21Z</time>
      </trkpt>
      <trkpt lat="51.162060974165797" lon="13.96231496706605">
        <ele>275.06999999999999</ele>
        <time>2024-09-18T15:35:30Z</time>
      </trkpt>
      <trkpt lat="51.160783991217613" lon="13.959254985675216">
        <ele>272.19</ele>
        <time>2024-09-18T15:35:35Z</time>
      </trkpt>
      <trkpt lat="51.160702016204596" lon="13.959031021222472">
        <ele>271.23000000000002</ele>
        <time>2024-09-18T15:35:36Z</time>
      </trkpt>
      <trkpt lat="51.160624986514449" lon="13.958805967122316">
        <ele>270.75</ele>
        <time>2024-09-18T15:35:37Z</time>
      </trkpt>
      <trkpt lat="51.160581987351179" lon="13.958544032648206">
        <ele>270.26999999999998</ele>
        <time>2024-09-18T15:35:38Z</time>
      </trkpt>
      <trkpt lat="51.16054099984467" lon="13.958249995484948">
        <ele>269.79000000000002</ele>
        <time>2024-09-18T15:35:39Z</time>
      </trkpt>
      <trkpt lat="51.160461958497763" lon="13.956111017614603">
        <ele>269.79000000000002</ele>
        <time>2024-09-18T15:35:45Z</time>
      </trkpt>
      <trkpt lat="51.160390041768551" lon="13.952864035964012">
        <ele>267.86000000000001</ele>
        <time>2024-09-18T15:35:52Z</time>
      </trkpt>
      <trkpt lat="51.16026003845036" lon="13.947964981198311">
        <ele>265.45999999999998</ele>
        <time>2024-09-18T15:36:01Z</time>
      </trkpt>
      <trkpt lat="51.160148978233337" lon="13.943788027390838">
        <ele>262.10000000000002</ele>
        <time>2024-09-18T15:36:09Z</time>
      </trkpt>
      <trkpt lat="51.159941023215652" lon="13.935296991840005">
        <ele>243.83000000000001</ele>
        <time>2024-09-18T15:36:26Z</time>
      </trkpt>
      <trkpt lat="51.160265989601612" lon="13.931835014373064">
        <ele>238.53999999999999</ele>
        <time>2024-09-18T15:36:33Z</time>
      </trkpt>
      <trkpt lat="51.161067970097065" lon="13.928704038262367">
        <ele>239.99000000000001</ele>
        <time>2024-09-18T15:36:40Z</time>
      </trkpt>
      <trkpt lat="51.162325004115701" lon="13.925913032144308">
        <ele>242.87</ele>
        <time>2024-09-18T15:36:47Z</time>
      </trkpt>
      <trkpt lat="51.164032984524965" lon="13.923610020428896">
        <ele>247.68000000000001</ele>
        <time>2024-09-18T15:36:54Z</time>
      </trkpt>
      <trkpt lat="51.167226992547512" lon="13.919746968895197">
        <ele>251.03999999999999</ele>
        <time>2024-09-18T15:37:07Z</time>
      </trkpt>
      <trkpt lat="51.168746966868639" lon="13.917202977463603">
        <ele>247.68000000000001</ele>
        <time>2024-09-18T15:37:14Z</time>
      </trkpt>
      <trkpt lat="51.169937029480934" lon="13.91360898502171">
        <ele>240.94999999999999</ele>
        <time>2024-09-18T15:37:22Z</time>
      </trkpt>
      <trkpt lat="51.170438015833497" lon="13.910208027809858">
        <ele>232.30000000000001</ele>
        <time>2024-09-18T15:37:29Z</time>
      </trkpt>
      <trkpt lat="51.170608000829816" lon="13.905729996040463">
        <ele>220.28</ele>
        <time>2024-09-18T15:37:38Z</time>
      </trkpt>
      <trkpt lat="51.170801036059856" lon="13.898881981149316">
        <ele>216.91</ele>
        <time>2024-09-18T15:37:52Z</time>
      </trkpt>
      <trkpt lat="51.170988036319613" lon="13.892818009480834">
        <ele>215.94999999999999</ele>
        <time>2024-09-18T15:38:04Z</time>
      </trkpt>
      <trkpt lat="51.171216024085879" lon="13.885484011843801">
        <ele>206.81999999999999</ele>
        <time>2024-09-18T15:38:19Z</time>
      </trkpt>
      <trkpt lat="51.171428002417088" lon="13.878582017496228">
        <ele>212.11000000000001</ele>
        <time>2024-09-18T15:38:33Z</time>
      </trkpt>
      <trkpt lat="51.171687003225088" lon="13.87009902857244">
        <ele>215.47</ele>
        <time>2024-09-18T15:38:50Z</time>
      </trkpt>
      <trkpt lat="51.171826981008053" lon="13.863529041409492">
        <ele>202.00999999999999</ele>
        <time>2024-09-18T15:39:03Z</time>
      </trkpt>
      <trkpt lat="51.171891018748283" lon="13.857548972591758">
        <ele>184.22999999999999</ele>
        <time>2024-09-18T15:39:15Z</time>
      </trkpt>
      <trkpt lat="51.171956984326243" lon="13.852773969992995">
        <ele>182.78999999999999</ele>
        <time>2024-09-18T15:39:25Z</time>
      </trkpt>
      <trkpt lat="51.171797979623079" lon="13.847752036526799">
        <ele>181.34999999999999</ele>
        <time>2024-09-18T15:39:35Z</time>
      </trkpt>
      <trkpt lat="51.171613996848464" lon="13.843743978068233">
        <ele>178.46000000000001</ele>
        <time>2024-09-18T15:39:43Z</time>
      </trkpt>
      <trkpt lat="51.171409981325269" lon="13.839071989059448">
        <ele>177.02000000000001</ele>
        <time>2024-09-18T15:39:53Z</time>
      </trkpt>
      <trkpt lat="51.171185011044145" lon="13.833881998434663">
        <ele>174.62</ele>
        <time>2024-09-18T15:40:04Z</time>
      </trkpt>
      <trkpt lat="51.171263968572021" lon="13.829346969723701">
        <ele>173.16999999999999</ele>
        <time>2024-09-18T15:40:13Z</time>
      </trkpt>
      <trkpt lat="51.17169002071023" lon="13.825344024226069">
        <ele>170.28999999999999</ele>
        <time>2024-09-18T15:40:21Z</time>
      </trkpt>
      <trkpt lat="51.172255966812372" lon="13.819953035563231">
        <ele>170.77000000000001</ele>
        <time>2024-09-18T15:40:32Z</time>
      </trkpt>
      <trkpt lat="51.172212967649102" lon="13.815901977941394">
        <ele>170.77000000000001</ele>
        <time>2024-09-18T15:40:40Z</time>
      </trkpt>
      <trkpt lat="51.171724973246455" lon="13.812532033771276">
        <ele>177.02000000000001</ele>
        <time>2024-09-18T15:40:47Z</time>
      </trkpt>
      <trkpt lat="51.170738004148006" lon="13.80897500552237">
        <ele>187.59</ele>
        <time>2024-09-18T15:40:55Z</time>
      </trkpt>
      <trkpt lat="51.169392038136721" lon="13.806032035499811">
        <ele>193.36000000000001</ele>
        <time>2024-09-18T15:41:02Z</time>
      </trkpt>
      <trkpt lat="51.167230010032654" lon="13.802497973665595">
        <ele>190.47999999999999</ele>
        <time>2024-09-18T15:41:12Z</time>
      </trkpt>
      <trkpt lat="51.16386903449893" lon="13.797141015529633">
        <ele>187.11000000000001</ele>
        <time>2024-09-18T15:41:27Z</time>
      </trkpt>
      <trkpt lat="51.161016002297401" lon="13.792527029290795">
        <ele>189.52000000000001</ele>
        <time>2024-09-18T15:41:40Z</time>
      </trkpt>
      <trkpt lat="51.1575329862535" lon="13.786686016246676">
        <ele>201.53</ele>
        <time>2024-09-18T15:41:56Z</time>
      </trkpt>
      <trkpt lat="51.155351009219885" lon="13.783253962174058">
        <ele>210.66999999999999</ele>
        <time>2024-09-18T15:42:06Z</time>
      </trkpt>
      <trkpt lat="51.152625968679786" lon="13.779111038893461">
        <ele>214.03</ele>
        <time>2024-09-18T15:42:18Z</time>
      </trkpt>
      <trkpt lat="51.150123970583081" lon="13.775324011221528">
        <ele>211.63</ele>
        <time>2024-09-18T15:42:29Z</time>
      </trkpt>
      <trkpt lat="51.148274000734091" lon="13.772022966295481">
        <ele>210.66999999999999</ele>
        <time>2024-09-18T15:42:38Z</time>
      </trkpt>
      <trkpt lat="51.145825982093811" lon="13.766897013410926">
        <ele>208.74000000000001</ele>
        <time>2024-09-18T15:42:51Z</time>
      </trkpt>
      <trkpt lat="51.144082965329289" lon="13.763379966840148">
        <ele>203.94</ele>
        <time>2024-09-18T15:43:00Z</time>
      </trkpt>
      <trkpt lat="51.142487972974777" lon="13.760834969580173">
        <ele>197.69</ele>
        <time>2024-09-18T15:43:07Z</time>
      </trkpt>
      <trkpt lat="51.140629034489393" lon="13.758101966232061">
        <ele>194.31999999999999</ele>
        <time>2024-09-18T15:43:15Z</time>
      </trkpt>
      <trkpt lat="51.137862000614405" lon="13.754131961613894">
        <ele>200.09</ele>
        <time>2024-09-18T15:43:27Z</time>
      </trkpt>
      <trkpt lat="51.135582039132714" lon="13.751561986282468">
        <ele>203.94</ele>
        <time>2024-09-18T15:43:36Z</time>
      </trkpt>
      <trkpt lat="51.133799962699413" lon="13.750368990004063">
        <ele>203.46000000000001</ele>
        <time>2024-09-18T15:43:43Z</time>
      </trkpt>
      <trkpt lat="51.131331995129585" lon="13.749404987320304">
        <ele>203.94</ele>
        <time>2024-09-18T15:43:53Z</time>
      </trkpt>
      <trkpt lat="51.128564039245248" lon="13.74855799600482">
        <ele>209.69999999999999</ele>
        <time>2024-09-18T15:44:04Z</time>
      </trkpt>
      <trkpt lat="51.125265005975962" lon="13.747576978057623">
        <ele>210.19</ele>
        <time>2024-09-18T15:44:17Z</time>
      </trkpt>
      <trkpt lat="51.121938982978463" lon="13.746556984260678">
        <ele>203.46000000000001</ele>
        <time>2024-09-18T15:44:30Z</time>
      </trkpt>
      <trkpt lat="51.119415024295449" lon="13.745650984346867">
        <ele>205.38</ele>
        <time>2024-09-18T15:44:40Z</time>
      </trkpt>
      <trkpt lat="51.116355964913964" lon="13.74417400918901">
        <ele>206.81999999999999</ele>
        <time>2024-09-18T15:44:52Z</time>
      </trkpt>
      <trkpt lat="51.114859962835908" lon="13.74331402592361">
        <ele>206.81999999999999</ele>
        <time>2024-09-18T15:44:58Z</time>
      </trkpt>
      <trkpt lat="51.112902034074068" lon="13.741998989135027">
        <ele>203.46000000000001</ele>
        <time>2024-09-18T15:45:06Z</time>
      </trkpt>
      <trkpt lat="51.110826004296541" lon="13.739968976005912">
        <ele>197.69</ele>
        <time>2024-09-18T15:45:16Z</time>
      </trkpt>
      <trkpt lat="51.109610041603446" lon="13.73822595924139">
        <ele>192.40000000000001</ele>
        <time>2024-09-18T15:45:22Z</time>
      </trkpt>
      <trkpt lat="51.10807497985661" lon="13.735383991152048">
        <ele>186.15000000000001</ele>
        <time>2024-09-18T15:45:31Z</time>
      </trkpt>
      <trkpt lat="51.106283012777567" lon="13.731699977070093">
        <ele>183.75</ele>
        <time>2024-09-18T15:45:42Z</time>
      </trkpt>
      <trkpt lat="51.104802014306188" lon="13.728015962988138">
        <ele>180.87</ele>
        <time>2024-09-18T15:45:52Z</time>
      </trkpt>
      <trkpt lat="51.103734998032451" lon="13.724457006901503">
        <ele>173.66</ele>
        <time>2024-09-18T15:46:01Z</time>
      </trkpt>
      <trkpt lat="51.102878032252192" lon="13.720982037484646">
        <ele>163.56</ele>
        <time>2024-09-18T15:46:10Z</time>
      </trkpt>
      <trkpt lat="51.101492000743747" lon="13.714988976716995">
        <ele>148.66</ele>
        <time>2024-09-18T15:46:25Z</time>
      </trkpt>
      <trkpt lat="51.100191967561841" lon="13.709426997229457">
        <ele>137.13</ele>
        <time>2024-09-18T15:46:39Z</time>
      </trkpt>
      <trkpt lat="51.099073989316821" lon="13.705210983753204">
        <ele>130.40000000000001</ele>
        <time>2024-09-18T15:46:50Z</time>
      </trkpt>
      <trkpt lat="51.097629033029079" lon="13.701689997687936">
        <ele>124.63</ele>
        <time>2024-09-18T15:47:00Z</time>
      </trkpt>
      <trkpt lat="51.09602096490562" lon="13.698945008218288">
        <ele>122.70999999999999</ele>
        <time>2024-09-18T15:47:09Z</time>
      </trkpt>
      <trkpt lat="51.094616996124387" lon="13.697081040591002">
        <ele>121.73999999999999</ele>
        <time>2024-09-18T15:47:17Z</time>
      </trkpt>
      <trkpt lat="51.0923230368644" lon="13.694764031097293">
        <ele>122.70999999999999</ele>
        <time>2024-09-18T15:47:30Z</time>
      </trkpt>
      <trkpt lat="51.089970991015434" lon="13.692986983805895">
        <ele>120.78</ele>
        <time>2024-09-18T15:47:40Z</time>
      </trkpt>
      <trkpt lat="51.08828597702086" lon="13.692050976678729">
        <ele>117.90000000000001</ele>
        <time>2024-09-18T15:47:49Z</time>
      </trkpt>
      <trkpt lat="51.086918972432613" lon="13.690922018140554">
        <ele>114.53</ele>
        <time>2024-09-18T15:47:58Z</time>
      </trkpt>
      <trkpt lat="51.086174994707108" lon="13.690735017880797">
        <ele>112.13</ele>
        <time>2024-09-18T15:48:02Z</time>
      </trkpt>
      <trkpt lat="51.086022024974227" lon="13.690754966810346">
        <ele>111.65000000000001</ele>
        <time>2024-09-18T15:48:03Z</time>
      </trkpt>
      <trkpt lat="51.08572899363935" lon="13.690885975956917">
        <ele>111.17</ele>
        <time>2024-09-18T15:48:05Z</time>
      </trkpt>
      <trkpt lat="51.085280980914831" lon="13.691153023391962">
        <ele>110.20999999999999</ele>
        <time>2024-09-18T15:48:08Z</time>
      </trkpt>
      <trkpt lat="51.084334999322891" lon="13.691833969205618">
        <ele>108.77</ele>
        <time>2024-09-18T15:48:16Z</time>
      </trkpt>
      <trkpt lat="51.083321962505579" lon="13.692322969436646">
        <ele>108.29000000000001</ele>
        <time>2024-09-18T15:48:24Z</time>
      </trkpt>
      <trkpt lat="51.082471031695604" lon="13.692713985219598">
        <ele>109.73</ele>
        <time>2024-09-18T15:48:31Z</time>
      </trkpt>
      <trkpt lat="51.082168025895953" lon="13.692841976881027">
        <ele>112.13</ele>
        <time>2024-09-18T15:48:38Z</time>
      </trkpt>
      <trkpt lat="51.082168025895953" lon="13.692841976881027">
        <ele>112.61</ele>
        <time>2024-09-18T15:48:51Z</time>
      </trkpt>
      <trkpt lat="51.082168025895953" lon="13.692841976881027">
        <ele>112.61</ele>
        <time>2024-09-18T15:49:38Z</time>
      </trkpt>
      <trkpt lat="51.081880023702979" lon="13.692947002127767">
        <ele>112.13</ele>
        <time>2024-09-18T15:49:49Z</time>
      </trkpt>
      <trkpt lat="51.081307036802173" lon="13.69306200183928">
        <ele>110.69</ele>
        <time>2024-09-18T15:49:54Z</time>
      </trkpt>
      <trkpt lat="51.080931024625897" lon="13.693008022382855">
        <ele>110.69</ele>
        <time>2024-09-18T15:49:57Z</time>
      </trkpt>
      <trkpt lat="51.080806972458959" lon="13.692990001291037">
        <ele>110.20999999999999</ele>
        <time>2024-09-18T15:49:58Z</time>
      </trkpt>
      <trkpt lat="51.079767029732466" lon="13.692450039088726">
        <ele>107.31999999999999</ele>
        <time>2024-09-18T15:50:06Z</time>
      </trkpt>
      <trkpt lat="51.078918026760221" lon="13.691398026421666">
        <ele>106.84</ele>
        <time>2024-09-18T15:50:14Z</time>
      </trkpt>
      <trkpt lat="51.078382004052401" lon="13.690705010667443">
        <ele>106.84</ele>
        <time>2024-09-18T15:50:19Z</time>
      </trkpt>
      <trkpt lat="51.07825200073421" lon="13.6906330101192">
        <ele>106.84</ele>
        <time>2024-09-18T15:50:20Z</time>
      </trkpt>
      <trkpt lat="51.078115962445736" lon="13.690558997914195">
        <ele>106.84</ele>
        <time>2024-09-18T15:50:21Z</time>
      </trkpt>
      <trkpt lat="51.077976990491152" lon="13.690482974052429">
        <ele>107.31999999999999</ele>
        <time>2024-09-18T15:50:22Z</time>
      </trkpt>
      <trkpt lat="51.077836006879807" lon="13.690434023737907">
        <ele>107.31999999999999</ele>
        <time>2024-09-18T15:50:23Z</time>
      </trkpt>
      <trkpt lat="51.077689994126558" lon="13.690408961847425">
        <ele>107.81</ele>
        <time>2024-09-18T15:50:24Z</time>
      </trkpt>
      <trkpt lat="51.076198015362024" lon="13.690176028758287">
        <ele>108.29000000000001</ele>
        <time>2024-09-18T15:50:35Z</time>
      </trkpt>
      <trkpt lat="51.074827993288636" lon="13.690062034875154">
        <ele>108.77</ele>
        <time>2024-09-18T15:50:46Z</time>
      </trkpt>
      <trkpt lat="51.073971027508378" lon="13.690068991854787">
        <ele>109.25</ele>
        <time>2024-09-18T15:50:56Z</time>
      </trkpt>
      <trkpt lat="51.073340037837625" lon="13.690016018226743">
        <ele>110.20999999999999</ele>
        <time>2024-09-18T15:51:02Z</time>
      </trkpt>
      <trkpt lat="51.073236018419266" lon="13.690005959942937">
        <ele>110.20999999999999</ele>
        <time>2024-09-18T15:51:03Z</time>
      </trkpt>
      <trkpt lat="51.073126969859004" lon="13.689995985478163">
        <ele>110.20999999999999</ele>
        <time>2024-09-18T15:51:04Z</time>
      </trkpt>
      <trkpt lat="51.071937996894121" lon="13.689861036837101">
        <ele>108.29000000000001</ele>
        <time>2024-09-18T15:51:14Z</time>
      </trkpt>
      <trkpt lat="51.070939041674137" lon="13.689737990498543">
        <ele>109.25</ele>
        <time>2024-09-18T15:51:22Z</time>
      </trkpt>
      <trkpt lat="51.069456031545997" lon="13.689511008560658">
        <ele>107.81</ele>
        <time>2024-09-18T15:51:33Z</time>
      </trkpt>
      <trkpt lat="51.068004034459591" lon="13.689350998029113">
        <ele>107.81</ele>
        <time>2024-09-18T15:51:44Z</time>
      </trkpt>
      <trkpt lat="51.066513983532786" lon="13.689381005242467">
        <ele>110.69</ele>
        <time>2024-09-18T15:51:55Z</time>
      </trkpt>
      <trkpt lat="51.065007001161575" lon="13.689629025757313">
        <ele>112.61</ele>
        <time>2024-09-18T15:52:06Z</time>
      </trkpt>
      <trkpt lat="51.063523991033435" lon="13.689904036000371">
        <ele>115.01000000000001</ele>
        <time>2024-09-18T15:52:19Z</time>
      </trkpt>
      <trkpt lat="51.06312601827085" lon="13.689962960779667">
        <ele>114.05</ele>
        <time>2024-09-18T15:52:24Z</time>
      </trkpt>
      <trkpt lat="51.062791999429464" lon="13.689981987699866">
        <ele>113.09</ele>
        <time>2024-09-18T15:52:29Z</time>
      </trkpt>
      <trkpt lat="51.062732990831137" lon="13.689985005185008">
        <ele>113.09</ele>
        <time>2024-09-18T15:52:30Z</time>
      </trkpt>
      <trkpt lat="51.062364019453526" lon="13.690020041540265">
        <ele>111.17</ele>
        <time>2024-09-18T15:52:40Z</time>
      </trkpt>
      <trkpt lat="51.062364019453526" lon="13.690020041540265">
        <ele>110.69</ele>
        <time>2024-09-18T15:52:54Z</time>
      </trkpt>
      <trkpt lat="51.062364019453526" lon="13.690020041540265">
        <ele>111.17</ele>
        <time>2024-09-18T15:53:55Z</time>
      </trkpt>
      <trkpt lat="51.062128990888596" lon="13.690062034875154">
        <ele>112.13</ele>
        <time>2024-09-18T15:54:23Z</time>
      </trkpt>
      <trkpt lat="51.06188097037375" lon="13.690109979361296">
        <ele>111.65000000000001</ele>
        <time>2024-09-18T15:54:30Z</time>
      </trkpt>
      <trkpt lat="51.06188097037375" lon="13.690109979361296">
        <ele>111.65000000000001</ele>
        <time>2024-09-18T15:55:04Z</time>
      </trkpt>
      <trkpt lat="51.06188097037375" lon="13.690109979361296">
        <ele>113.09</ele>
        <time>2024-09-18T15:55:51Z</time>
      </trkpt>
      <trkpt lat="51.061706962063909" lon="13.690145015716553">
        <ele>113.09</ele>
        <time>2024-09-18T15:56:18Z</time>
      </trkpt>
      <trkpt lat="51.061610989272594" lon="13.690145015716553">
        <ele>113.56999999999999</ele>
        <time>2024-09-18T15:56:19Z</time>
      </trkpt>
      <trkpt lat="51.061542006209493" lon="13.690145015716553">
        <ele>113.56999999999999</ele>
        <time>2024-09-18T15:56:20Z</time>
      </trkpt>
      <trkpt lat="51.061437986791134" lon="13.690310977399349">
        <ele>113.56999999999999</ele>
        <time>2024-09-18T15:56:21Z</time>
      </trkpt>
      <trkpt lat="51.061416026204824" lon="13.690421031787992">
        <ele>113.56999999999999</ele>
        <time>2024-09-18T15:56:22Z</time>
      </trkpt>
      <trkpt lat="51.061396999284625" lon="13.690537959337234">
        <ele>113.56999999999999</ele>
        <time>2024-09-18T15:56:23Z</time>
      </trkpt>
      <trkpt lat="51.061379984021187" lon="13.690673997625709">
        <ele>113.56999999999999</ele>
        <time>2024-09-18T15:56:24Z</time>
      </trkpt>
      <trkpt lat="51.061360035091639" lon="13.690823027864099">
        <ele>114.05</ele>
        <time>2024-09-18T15:56:25Z</time>
      </trkpt>
      <trkpt lat="51.061338996514678" lon="13.690981026738882">
        <ele>114.05</ele>
        <time>2024-09-18T15:56:26Z</time>
      </trkpt>
      <trkpt lat="51.0610840190202" lon="13.692776011303067">
        <ele>113.09</ele>
        <time>2024-09-18T15:56:36Z</time>
      </trkpt>
      <trkpt lat="51.060748994350433" lon="13.694119965657592">
        <ele>110.69</ele>
        <time>2024-09-18T15:56:44Z</time>
      </trkpt>
      <trkpt lat="51.060703983530402" lon="13.694294979795814">
        <ele>110.20999999999999</ele>
        <time>2024-09-18T15:56:45Z</time>
      </trkpt>
      <trkpt lat="51.060658972710371" lon="13.694468988105655">
        <ele>109.73</ele>
        <time>2024-09-18T15:56:46Z</time>
      </trkpt>
      <trkpt lat="51.060209032148123" lon="13.696428006514907">
        <ele>107.81</ele>
        <time>2024-09-18T15:56:57Z</time>
      </trkpt>
      <trkpt lat="51.059721959754825" lon="13.698356011882424">
        <ele>109.73</ele>
        <time>2024-09-18T15:57:08Z</time>
      </trkpt>
      <trkpt lat="51.059549963101745" lon="13.699140977114439">
        <ele>110.20999999999999</ele>
        <time>2024-09-18T15:57:13Z</time>
      </trkpt>
      <trkpt lat="51.059219967573881" lon="13.701538033783436">
        <ele>111.17</ele>
        <time>2024-09-18T15:57:26Z</time>
      </trkpt>
      <trkpt lat="51.058974964544177" lon="13.703409964218736">
        <ele>111.17</ele>
        <time>2024-09-18T15:57:36Z</time>
      </trkpt>
      <trkpt lat="51.058686040341854" lon="13.705682968720794">
        <ele>113.09</ele>
        <time>2024-09-18T15:57:48Z</time>
      </trkpt>
      <trkpt lat="51.058445982635021" lon="13.707550037652254">
        <ele>113.56999999999999</ele>
        <time>2024-09-18T15:57:58Z</time>
      </trkpt>
      <trkpt lat="51.058307010680437" lon="13.708678996190429">
        <ele>113.56999999999999</ele>
        <time>2024-09-18T15:58:06Z</time>
      </trkpt>
      <trkpt lat="51.058288989588618" lon="13.70883003808558">
        <ele>114.05</ele>
        <time>2024-09-18T15:58:08Z</time>
      </trkpt>
      <trkpt lat="51.05824900791049" lon="13.709172019734979">
        <ele>114.53</ele>
        <time>2024-09-18T15:58:16Z</time>
      </trkpt>
      <trkpt lat="51.058245990425348" lon="13.709199009463191">
        <ele>114.53</ele>
        <time>2024-09-18T15:58:17Z</time>
      </trkpt>
      <trkpt lat="51.058242972940207" lon="13.709227005019784">
        <ele>114.53</ele>
        <time>2024-09-18T15:58:18Z</time>
      </trkpt>
      <trkpt lat="51.058239033445716" lon="13.709256006404757">
        <ele>114.53</ele>
        <time>2024-09-18T15:58:19Z</time>
      </trkpt>
      <trkpt lat="51.058236015960574" lon="13.709286013618112">
        <ele>115.01000000000001</ele>
        <time>2024-09-18T15:58:20Z</time>
      </trkpt>
      <trkpt lat="51.058213971555233" lon="13.70941199362278">
        <ele>114.53</ele>
        <time>2024-09-18T15:58:33Z</time>
      </trkpt>
      <trkpt lat="51.058128979057074" lon="13.709836034104228">
        <ele>114.53</ele>
        <time>2024-09-18T15:58:44Z</time>
      </trkpt>
      <trkpt lat="51.058113975450397" lon="13.709913985803723">
        <ele>114.53</ele>
        <time>2024-09-18T15:58:45Z</time>
      </trkpt>
      <trkpt lat="51.058009034022689" lon="13.710026973858476">
        <ele>114.05</ele>
        <time>2024-09-18T15:58:46Z</time>
      </trkpt>
      <trkpt lat="51.057956982403994" lon="13.709989003837109">
        <ele>114.05</ele>
        <time>2024-09-18T15:58:47Z</time>
      </trkpt>
      <trkpt lat="51.057891016826034" lon="13.709940975531936">
        <ele>113.56999999999999</ele>
        <time>2024-09-18T15:58:48Z</time>
      </trkpt>
      <trkpt lat="51.057815998792648" lon="13.709882972761989">
        <ele>113.09</ele>
        <time>2024-09-18T15:58:49Z</time>
      </trkpt>
      <trkpt lat="51.05700496584177" lon="13.709317026659846">
        <ele>112.61</ele>
        <time>2024-09-18T15:58:57Z</time>
      </trkpt>
      <trkpt lat="51.055311989039183" lon="13.708524014800787">
        <ele>119.34</ele>
        <time>2024-09-18T15:59:11Z</time>
      </trkpt>
      <trkpt lat="51.053683971986175" lon="13.707752041518688">
        <ele>118.86</ele>
        <time>2024-09-18T15:59:24Z</time>
      </trkpt>
      <trkpt lat="51.05332899838686" lon="13.707654979079962">
        <ele>117.90000000000001</ele>
        <time>2024-09-18T15:59:27Z</time>
      </trkpt>
      <trkpt lat="51.052060984075069" lon="13.707438977435231">
        <ele>113.56999999999999</ele>
        <time>2024-09-18T15:59:38Z</time>
      </trkpt>
      <trkpt lat="51.051925029605627" lon="13.707417016848922">
        <ele>113.56999999999999</ele>
        <time>2024-09-18T15:59:43Z</time>
      </trkpt>
      <trkpt lat="51.051925029605627" lon="13.707417016848922">
        <ele>113.56999999999999</ele>
        <time>2024-09-18T16:00:02Z</time>
      </trkpt>
      <trkpt lat="51.051797959953547" lon="13.707406958565116">
        <ele>114.05</ele>
        <time>2024-09-18T16:00:23Z</time>
      </trkpt>
      <trkpt lat="51.051685977727175" lon="13.707396984100342">
        <ele>114.05</ele>
        <time>2024-09-18T16:00:24Z</time>
      </trkpt>
      <trkpt lat="51.051600985229015" lon="13.707419028505683">
        <ele>114.05</ele>
        <time>2024-09-18T16:00:25Z</time>
      </trkpt>
      <trkpt lat="51.051581036299467" lon="13.707494968548417">
        <ele>114.53</ele>
        <time>2024-09-18T16:00:26Z</time>
      </trkpt>
      <trkpt lat="51.05167499743402" lon="13.707673000171781">
        <ele>114.53</ele>
        <time>2024-09-18T16:00:27Z</time>
      </trkpt>
      <trkpt lat="51.051721014082432" lon="13.707829993218184">
        <ele>115.01000000000001</ele>
        <time>2024-09-18T16:00:28Z</time>
      </trkpt>
      <trkpt lat="51.051771976053715" lon="13.708013975992799">
        <ele>115.01000000000001</ele>
        <time>2024-09-18T16:00:29Z</time>
      </trkpt>
      <trkpt lat="51.052119992673397" lon="13.709980035200715">
        <ele>114.53</ele>
        <time>2024-09-18T16:00:39Z</time>
      </trkpt>
      <trkpt lat="51.052219988778234" lon="13.712213980033994">
        <ele>114.53</ele>
        <time>2024-09-18T16:00:51Z</time>
      </trkpt>
      <trkpt lat="51.052129967138171" lon="13.713588025420904">
        <ele>113.56999999999999</ele>
        <time>2024-09-18T16:00:59Z</time>
      </trkpt>
      <trkpt lat="51.051999963819981" lon="13.71413997374475">
        <ele>112.13</ele>
        <time>2024-09-18T16:01:03Z</time>
      </trkpt>
      <trkpt lat="51.051969034597278" lon="13.714241981506348">
        <ele>112.13</ele>
        <time>2024-09-18T16:01:04Z</time>
      </trkpt>
      <trkpt lat="51.051939027383924" lon="13.714337032288313">
        <ele>111.65000000000001</ele>
        <time>2024-09-18T16:01:05Z</time>
      </trkpt>
      <trkpt lat="51.051901979371905" lon="13.714401992037892">
        <ele>111.17</ele>
        <time>2024-09-18T16:01:06Z</time>
      </trkpt>
      <trkpt lat="51.051877001300454" lon="13.714445997029543">
        <ele>111.17</ele>
        <time>2024-09-18T16:01:07Z</time>
      </trkpt>
      <trkpt lat="51.051877001300454" lon="13.714445997029543">
        <ele>109.73</ele>
        <time>2024-09-18T16:01:15Z</time>
      </trkpt>
      <trkpt lat="51.051725037395954" lon="13.714707009494305">
        <ele>109.25</ele>
        <time>2024-09-18T16:01:35Z</time>
      </trkpt>
      <trkpt lat="51.051567038521171" lon="13.714929968118668">
        <ele>109.25</ele>
        <time>2024-09-18T16:01:38Z</time>
      </trkpt>
      <trkpt lat="51.051527978852391" lon="13.714983025565743">
        <ele>109.25</ele>
        <time>2024-09-18T16:01:39Z</time>
      </trkpt>
      <trkpt lat="51.051501994952559" lon="13.71510598808527">
        <ele>109.25</ele>
        <time>2024-09-18T16:01:40Z</time>
      </trkpt>
      <trkpt lat="51.051544994115829" lon="13.715177988633513">
        <ele>109.73</ele>
        <time>2024-09-18T16:01:41Z</time>
      </trkpt>
      <trkpt lat="51.051600985229015" lon="13.715270021930337">
        <ele>109.73</ele>
        <time>2024-09-18T16:01:42Z</time>
      </trkpt>
      <trkpt lat="51.051664017140865" lon="13.715373035520315">
        <ele>109.73</ele>
        <time>2024-09-18T16:01:43Z</time>
      </trkpt>
      <trkpt lat="51.051733000203967" lon="13.715488035231829">
        <ele>109.73</ele>
        <time>2024-09-18T16:01:44Z</time>
      </trkpt>
      <trkpt lat="51.051805000752211" lon="13.715604962781072">
        <ele>109.73</ele>
        <time>2024-09-18T16:01:45Z</time>
      </trkpt>
      <trkpt lat="51.051874989643693" lon="13.715720968320966">
        <ele>109.73</ele>
        <time>2024-09-18T16:01:46Z</time>
      </trkpt>
      <trkpt lat="51.052531041204929" lon="13.716808017343283">
        <ele>109.25</ele>
        <time>2024-09-18T16:01:56Z</time>
      </trkpt>
      <trkpt lat="51.052651992067695" lon="13.717010021209717">
        <ele>107.81</ele>
        <time>2024-09-18T16:01:59Z</time>
      </trkpt>
      <trkpt lat="51.052657021209598" lon="13.71701898984611">
        <ele>107.81</ele>
        <time>2024-09-18T16:02:00Z</time>
      </trkpt>
      <trkpt lat="51.052615027874708" lon="13.717060983181">
        <ele>107.31999999999999</ele>
        <time>2024-09-18T16:02:01Z</time>
      </trkpt>
      <trkpt lat="51.052574040368199" lon="13.717117980122566">
        <ele>106.84</ele>
        <time>2024-09-18T16:02:02Z</time>
      </trkpt>
      <trkpt lat="51.052524000406265" lon="13.717186963185668">
        <ele>106.36</ele>
        <time>2024-09-18T16:02:03Z</time>
      </trkpt>
      <trkpt lat="51.052470020949841" lon="13.717260975390673">
        <ele>105.88</ele>
        <time>2024-09-18T16:02:04Z</time>
      </trkpt>
      <trkpt lat="51.051780022680759" lon="13.718217015266418">
        <ele>104.44</ele>
        <time>2024-09-18T16:02:14Z</time>
      </trkpt>
      <trkpt lat="51.051424965262413" lon="13.718708027154207">
        <ele>104.92</ele>
        <time>2024-09-18T16:02:19Z</time>
      </trkpt>
      <trkpt lat="51.051361011341214" lon="13.718793019652367">
        <ele>105.40000000000001</ele>
        <time>2024-09-18T16:02:20Z</time>
      </trkpt>
      <trkpt lat="51.050555007532239" lon="13.719089990481734">
        <ele>106.36</ele>
        <time>2024-09-18T16:02:29Z</time>
      </trkpt>
      <trkpt lat="51.049965005367994" lon="13.719128966331482">
        <ele>107.81</ele>
        <time>2024-09-18T16:02:36Z</time>
      </trkpt>
      <trkpt lat="51.049667028710246" lon="13.719095019623637">
        <ele>108.29000000000001</ele>
        <time>2024-09-18T16:02:47Z</time>
      </trkpt>
      <trkpt lat="51.049602990970016" lon="13.719087978824973">
        <ele>108.29000000000001</ele>
        <time>2024-09-18T16:02:57Z</time>
      </trkpt>
      <trkpt lat="51.049602990970016" lon="13.719087978824973">
        <ele>109.25</ele>
        <time>2024-09-18T16:03:43Z</time>
      </trkpt>
      <trkpt lat="51.049468964338303" lon="13.719072975218296">
        <ele>109.73</ele>
        <time>2024-09-18T16:03:58Z</time>
      </trkpt>
      <trkpt lat="51.049468964338303" lon="13.719072975218296">
        <ele>109.73</ele>
        <time>2024-09-18T16:04:19Z</time>
      </trkpt>
      <trkpt lat="51.04920401237905" lon="13.719042968004942">
        <ele>110.69</ele>
        <time>2024-09-18T16:04:29Z</time>
      </trkpt>
      <trkpt lat="51.049079038202763" lon="13.719028970226645">
        <ele>111.17</ele>
        <time>2024-09-18T16:04:36Z</time>
      </trkpt>
      <trkpt lat="51.049068979918957" lon="13.719026958569884">
        <ele>111.17</ele>
        <time>2024-09-18T16:04:38Z</time>
      </trkpt>
      <trkpt lat="51.049068979918957" lon="13.719026958569884">
        <ele>110.69</ele>
        <time>2024-09-18T16:04:53Z</time>
      </trkpt>
      <trkpt lat="51.049133017659187" lon="13.719285037368536">
        <ele>110.69</ele>
        <time>2024-09-18T16:05:27Z</time>
      </trkpt>
      <trkpt lat="51.049219015985727" lon="13.719734977930784">
        <ele>110.20999999999999</ele>
        <time>2024-09-18T16:05:35Z</time>
      </trkpt>
      <trkpt lat="51.049425965175033" lon="13.721243971958756">
        <ele>108.77</ele>
        <time>2024-09-18T16:05:45Z</time>
      </trkpt>
      <trkpt lat="51.049730982631445" lon="13.722575018182397">
        <ele>107.81</ele>
        <time>2024-09-18T16:05:53Z</time>
      </trkpt>
      <trkpt lat="51.050140019506216" lon="13.724649958312511">
        <ele>106.84</ele>
        <time>2024-09-18T16:06:05Z</time>
      </trkpt>
      <trkpt lat="51.050477977842093" lon="13.726328015327454">
        <ele>108.77</ele>
        <time>2024-09-18T16:06:15Z</time>
      </trkpt>
      <trkpt lat="51.050725998356938" lon="13.728144038468599">
        <ele>110.20999999999999</ele>
        <time>2024-09-18T16:06:26Z</time>
      </trkpt>
      <trkpt lat="51.050752988085151" lon="13.728604037314653">
        <ele>110.20999999999999</ele>
        <time>2024-09-18T16:06:33Z</time>
      </trkpt>
      <trkpt lat="51.050752988085151" lon="13.728604037314653">
        <ele>110.20999999999999</ele>
        <time>2024-09-18T16:06:42Z</time>
      </trkpt>
      <trkpt lat="51.050752988085151" lon="13.728604037314653">
        <ele>110.69</ele>
        <time>2024-09-18T16:07:31Z</time>
      </trkpt>
      <trkpt lat="51.050766985863447" lon="13.728830013424158">
        <ele>112.13</ele>
        <time>2024-09-18T16:08:13Z</time>
      </trkpt>
      <trkpt lat="51.050785006955266" lon="13.72913402505219">
        <ele>112.61</ele>
        <time>2024-09-18T16:08:15Z</time>
      </trkpt>
      <trkpt lat="51.050781989470124" lon="13.729076022282243">
        <ele>112.61</ele>
        <time>2024-09-18T16:08:16Z</time>
      </trkpt>
      <trkpt lat="51.050835968926549" lon="13.729119021445513">
        <ele>112.61</ele>
        <time>2024-09-18T16:08:17Z</time>
      </trkpt>
      <trkpt lat="51.050934959203005" lon="13.72909102588892">
        <ele>112.61</ele>
        <time>2024-09-18T16:08:18Z</time>
      </trkpt>
      <trkpt lat="51.050953986123204" lon="13.729090020060539">
        <ele>113.09</ele>
        <time>2024-09-18T16:08:19Z</time>
      </trkpt>
      <trkpt lat="51.051020035520196" lon="13.729084990918636">
        <ele>113.09</ele>
        <time>2024-09-18T16:08:20Z</time>
      </trkpt>
      <trkpt lat="51.051087006926537" lon="13.729079961776733">
        <ele>113.09</ele>
        <time>2024-09-18T16:08:21Z</time>
      </trkpt>
      <trkpt lat="51.051236037164927" lon="13.729068981483579">
        <ele>113.09</ele>
        <time>2024-09-18T16:08:22Z</time>
      </trkpt>
      <trkpt lat="51.051236037164927" lon="13.729068981483579">
        <ele>113.09</ele>
        <time>2024-09-18T16:08:23Z</time>
      </trkpt>
      <trkpt lat="51.051820004358888" lon="13.728946018964052">
        <ele>114.05</ele>
        <time>2024-09-18T16:08:32Z</time>
      </trkpt>
      <trkpt lat="51.051864009350538" lon="13.728932021185756">
        <ele>114.53</ele>
        <time>2024-09-18T16:08:41Z</time>
      </trkpt>
      <trkpt lat="51.052029971033335" lon="13.72887603007257">
        <ele>115.98</ele>
        <time>2024-09-18T16:09:03Z</time>
      </trkpt>
      <trkpt lat="51.052016979083419" lon="13.728993963450193">
        <ele>116.45999999999999</ele>
        <time>2024-09-18T16:09:04Z</time>
      </trkpt>
      <trkpt lat="51.052011027932167" lon="13.72904903255403">
        <ele>116.94</ele>
        <time>2024-09-18T16:09:05Z</time>
      </trkpt>
      <trkpt lat="51.052002981305122" lon="13.729117009788752">
        <ele>117.42</ele>
        <time>2024-09-18T16:09:06Z</time>
      </trkpt>
      <trkpt lat="51.051995018497109" lon="13.729193033650517">
        <ele>118.38</ele>
        <time>2024-09-18T16:09:07Z</time>
      </trkpt>
      <trkpt lat="51.051982026547194" lon="13.729278026148677">
        <ele>118.86</ele>
        <time>2024-09-18T16:09:08Z</time>
      </trkpt>
      <trkpt lat="51.051647001877427" lon="13.730368008837104">
        <ele>122.70999999999999</ele>
        <time>2024-09-18T16:09:23Z</time>
      </trkpt>
      <trkpt lat="51.051516998559237" lon="13.730813004076481">
        <ele>121.73999999999999</ele>
        <time>2024-09-18T16:09:33Z</time>
      </trkpt>
      <trkpt lat="51.051497971639037" lon="13.730877041816711">
        <ele>121.26000000000001</ele>
        <time>2024-09-18T16:09:35Z</time>
      </trkpt>
      <trkpt lat="51.051487997174263" lon="13.730911994352937">
        <ele>121.26000000000001</ele>
        <time>2024-09-18T16:09:36Z</time>
      </trkpt>
      <trkpt lat="51.051478022709489" lon="13.730948036536574">
        <ele>120.78</ele>
        <time>2024-09-18T16:09:37Z</time>
      </trkpt>
      <trkpt lat="51.051469976082444" lon="13.730973014608026">
        <ele>120.78</ele>
        <time>2024-09-18T16:09:38Z</time>
      </trkpt>
      <trkpt lat="51.051463019102812" lon="13.730998998507857">
        <ele>120.78</ele>
        <time>2024-09-18T16:09:39Z</time>
      </trkpt>
      <trkpt lat="51.051463019102812" lon="13.730998998507857">
        <ele>119.81999999999999</ele>
        <time>2024-09-18T16:09:53Z</time>
      </trkpt>
      <trkpt lat="51.051535019651055" lon="13.731337040662766">
        <ele>150.58000000000001</ele>
        <time>2024-09-18T16:11:57Z</time>
      </trkpt>
      <trkpt lat="51.051606014370918" lon="13.7312419898808">
        <ele>155.38999999999999</ele>
        <time>2024-09-18T16:12:43Z</time>
      </trkpt>
      <trkpt lat="51.051596961915493" lon="13.731183987110853">
        <ele>150.58000000000001</ele>
        <time>2024-09-18T16:13:22Z</time>
      </trkpt>
      <trkpt lat="51.051593022421002" lon="13.731180969625711">
        <ele>150.09999999999999</ele>
        <time>2024-09-18T16:14:00Z</time>
      </trkpt>
      <trkpt lat="51.051593022421002" lon="13.731180969625711">
        <ele>150.09999999999999</ele>
        <time>2024-09-18T16:14:02Z</time>
      </trkpt>
      <trkpt lat="51.051600985229015" lon="13.731236960738897">
        <ele>149.13999999999999</ele>
        <time>2024-09-18T16:14:09Z</time>
      </trkpt>
      <trkpt lat="51.051451032981277" lon="13.731037974357605">
        <ele>146.74000000000001</ele>
        <time>2024-09-18T16:14:12Z</time>
      </trkpt>
      <trkpt lat="51.0515689663589" lon="13.730634972453117">
        <ele>144.81999999999999</ele>
        <time>2024-09-18T16:14:18Z</time>
      </trkpt>
      <trkpt lat="51.051592016592622" lon="13.730556014925241">
        <ele>144.81999999999999</ele>
        <time>2024-09-18T16:14:19Z</time>
      </trkpt>
      <trkpt lat="51.051830984652042" lon="13.729770965874195">
        <ele>141.44999999999999</ele>
        <time>2024-09-18T16:14:28Z</time>
      </trkpt>
      <trkpt lat="51.051860991865396" lon="13.729683039709926">
        <ele>140.97</ele>
        <time>2024-09-18T16:14:29Z</time>
      </trkpt>
      <trkpt lat="51.051886975765228" lon="13.729601986706257">
        <ele>140.00999999999999</ele>
        <time>2024-09-18T16:14:30Z</time>
      </trkpt>
      <trkpt lat="51.051911031827331" lon="13.72952101752162">
        <ele>140.00999999999999</ele>
        <time>2024-09-18T16:14:31Z</time>
      </trkpt>
      <trkpt lat="51.051931986585259" lon="13.729449016973376">
        <ele>139.53</ele>
        <time>2024-09-18T16:14:32Z</time>
      </trkpt>
      <trkpt lat="51.051947996020317" lon="13.729395037516952">
        <ele>139.53</ele>
        <time>2024-09-18T16:14:33Z</time>
      </trkpt>
      <trkpt lat="51.051958976313472" lon="13.729355977848172">
        <ele>139.05000000000001</ele>
        <time>2024-09-18T16:14:34Z</time>
      </trkpt>
      <trkpt lat="51.051986971870065" lon="13.729263022542">
        <ele>138.56999999999999</ele>
        <time>2024-09-18T16:14:35Z</time>
      </trkpt>
      <trkpt lat="51.051986971870065" lon="13.729263022542">
        <ele>139.53</ele>
        <time>2024-09-18T16:14:42Z</time>
      </trkpt>
      <trkpt lat="51.051999041810632" lon="13.729150034487247">
        <ele>139.05000000000001</ele>
        <time>2024-09-18T16:14:44Z</time>
      </trkpt>
      <trkpt lat="51.052008010447025" lon="13.729073004797101">
        <ele>139.05000000000001</ele>
        <time>2024-09-18T16:14:45Z</time>
      </trkpt>
      <trkpt lat="51.052021002396941" lon="13.728956999257207">
        <ele>140.49000000000001</ele>
        <time>2024-09-18T16:14:46Z</time>
      </trkpt>
      <trkpt lat="51.052026031538844" lon="13.728908970952034">
        <ele>140.49000000000001</ele>
        <time>2024-09-18T16:14:47Z</time>
      </trkpt>
      <trkpt lat="51.052029971033335" lon="13.72887603007257">
        <ele>140.97</ele>
        <time>2024-09-18T16:14:48Z</time>
      </trkpt>
      <trkpt lat="51.051978003233671" lon="13.728893967345357">
        <ele>140.49000000000001</ele>
        <time>2024-09-18T16:14:49Z</time>
      </trkpt>
      <trkpt lat="51.051960987970233" lon="13.72889899648726">
        <ele>140.00999999999999</ele>
        <time>2024-09-18T16:14:50Z</time>
      </trkpt>
      <trkpt lat="51.051937015727162" lon="13.728906959295273">
        <ele>139.53</ele>
        <time>2024-09-18T16:14:51Z</time>
      </trkpt>
      <trkpt lat="51.051901979371905" lon="13.72891902923584">
        <ele>138.56999999999999</ele>
        <time>2024-09-18T16:14:52Z</time>
      </trkpt>
      <trkpt lat="51.051855962723494" lon="13.728934032842517">
        <ele>137.61000000000001</ele>
        <time>2024-09-18T16:14:53Z</time>
      </trkpt>
      <trkpt lat="51.051795026287436" lon="13.728953981772065">
        <ele>136.63999999999999</ele>
        <time>2024-09-18T16:14:54Z</time>
      </trkpt>
      <trkpt lat="51.051575001329184" lon="13.72900796122849">
        <ele>133.75999999999999</ele>
        <time>2024-09-18T16:14:57Z</time>
      </trkpt>
      <trkpt lat="51.051496965810657" lon="13.729021959006786">
        <ele>133.28</ele>
        <time>2024-09-18T16:14:58Z</time>
      </trkpt>
      <trkpt lat="51.051421025767922" lon="13.729036040604115">
        <ele>132.80000000000001</ele>
        <time>2024-09-18T16:14:59Z</time>
      </trkpt>
      <trkpt lat="51.051031015813351" lon="13.729083985090256">
        <ele>123.67</ele>
        <time>2024-09-18T16:15:07Z</time>
      </trkpt>
      <trkpt lat="51.051031015813351" lon="13.729083985090256">
        <ele>123.67</ele>
        <time>2024-09-18T16:15:40Z</time>
      </trkpt>
      <trkpt lat="51.051031015813351" lon="13.729083985090256">
        <ele>121.73999999999999</ele>
        <time>2024-09-18T16:16:16Z</time>
      </trkpt>
      <trkpt lat="51.050969995558262" lon="13.729088008403778">
        <ele>121.73999999999999</ele>
        <time>2024-09-18T16:16:17Z</time>
      </trkpt>
      <trkpt lat="51.050925990566611" lon="13.729093037545681">
        <ele>121.26000000000001</ele>
        <time>2024-09-18T16:16:18Z</time>
      </trkpt>
      <trkpt lat="51.050862958654761" lon="13.729110974818468">
        <ele>121.26000000000001</ele>
        <time>2024-09-18T16:16:19Z</time>
      </trkpt>
      <trkpt lat="51.050804033875465" lon="13.729127990081906">
        <ele>121.26000000000001</ele>
        <time>2024-09-18T16:16:20Z</time>
      </trkpt>
      <trkpt lat="51.050785006955266" lon="13.72913402505219">
        <ele>121.26000000000001</ele>
        <time>2024-09-18T16:16:21Z</time>
      </trkpt>
      <trkpt lat="51.050790036097169" lon="13.72922102920711">
        <ele>120.78</ele>
        <time>2024-09-18T16:16:22Z</time>
      </trkpt>
      <trkpt lat="51.05079498142004" lon="13.72932999394834">
        <ele>120.78</ele>
        <time>2024-09-18T16:16:23Z</time>
      </trkpt>
      <trkpt lat="51.050801016390324" lon="13.729441976174712">
        <ele>120.3</ele>
        <time>2024-09-18T16:16:24Z</time>
      </trkpt>
      <trkpt lat="51.050806967541575" lon="13.729553036391735">
        <ele>119.34</ele>
        <time>2024-09-18T16:16:25Z</time>
      </trkpt>
      <trkpt lat="51.050813002511859" lon="13.729668958112597">
        <ele>118.86</ele>
        <time>2024-09-18T16:16:26Z</time>
      </trkpt>
      <trkpt lat="51.050819037482142" lon="13.729788986966014">
        <ele>118.38</ele>
        <time>2024-09-18T16:16:27Z</time>
      </trkpt>
      <trkpt lat="51.050843009725213" lon="13.730261977761984">
        <ele>116.45999999999999</ele>
        <time>2024-09-18T16:16:34Z</time>
      </trkpt>
      <trkpt lat="51.050844015553594" lon="13.73027203604579">
        <ele>116.45999999999999</ele>
        <time>2024-09-18T16:16:40Z</time>
      </trkpt>
      <trkpt lat="51.050871005281806" lon="13.730806969106197">
        <ele>115.98</ele>
        <time>2024-09-18T16:16:47Z</time>
      </trkpt>
      <trkpt lat="51.050896989181638" lon="13.731302004307508">
        <ele>117.90000000000001</ele>
        <time>2024-09-18T16:16:58Z</time>
      </trkpt>
      <trkpt lat="51.050899000838399" lon="13.731337962672114">
        <ele>117.42</ele>
        <time>2024-09-18T16:17:07Z</time>
      </trkpt>
      <trkpt lat="51.050911992788315" lon="13.731576008722186">
        <ele>115.01000000000001</ele>
        <time>2024-09-18T16:17:19Z</time>
      </trkpt>
      <trkpt lat="51.050954991951585" lon="13.73237899504602">
        <ele>113.56999999999999</ele>
        <time>2024-09-18T16:17:31Z</time>
      </trkpt>
      <trkpt lat="51.050954991951585" lon="13.73237899504602">
        <ele>114.05</ele>
        <time>2024-09-18T16:17:42Z</time>
      </trkpt>
      <trkpt lat="51.050955997779965" lon="13.73242199420929">
        <ele>114.05</ele>
        <time>2024-09-18T16:17:47Z</time>
      </trkpt>
      <trkpt lat="51.050890032202005" lon="13.73240003362298">
        <ele>114.53</ele>
        <time>2024-09-18T16:17:48Z</time>
      </trkpt>
      <trkpt lat="51.050864970311522" lon="13.732393998652697">
        <ele>114.05</ele>
        <time>2024-09-18T16:17:49Z</time>
      </trkpt>
      <trkpt lat="51.050834963098168" lon="13.732387041673064">
        <ele>114.05</ele>
        <time>2024-09-18T16:17:50Z</time>
      </trkpt>
      <trkpt lat="51.050807973369956" lon="13.7323800008744">
        <ele>114.05</ele>
        <time>2024-09-18T16:17:51Z</time>
      </trkpt>
      <trkpt lat="51.050782995298505" lon="13.732372960075736">
        <ele>113.56999999999999</ele>
        <time>2024-09-18T16:17:52Z</time>
      </trkpt>
      <trkpt lat="51.050782995298505" lon="13.732372960075736">
        <ele>113.56999999999999</ele>
        <time>2024-09-18T16:18:05Z</time>
      </trkpt>
      <trkpt lat="51.050782995298505" lon="13.732372960075736">
        <ele>113.09</ele>
        <time>2024-09-18T16:18:50Z</time>
      </trkpt>
      <trkpt lat="51.050782995298505" lon="13.732372960075736">
        <ele>113.09</ele>
        <time>2024-09-18T16:19:36Z</time>
      </trkpt>
      <trkpt lat="51.050782995298505" lon="13.732372960075736">
        <ele>113.09</ele>
        <time>2024-09-18T16:20:25Z</time>
      </trkpt>
      <trkpt lat="51.050782995298505" lon="13.732372960075736">
        <ele>115.98</ele>
        <time>2024-09-18T16:21:13Z</time>
      </trkpt>
      <trkpt lat="51.050782995298505" lon="13.732372960075736">
        <ele>116.94</ele>
        <time>2024-09-18T16:22:01Z</time>
      </trkpt>
      <trkpt lat="51.050782995298505" lon="13.732372960075736">
        <ele>116.94</ele>
        <time>2024-09-18T16:22:47Z</time>
      </trkpt>
      <trkpt lat="51.050782995298505" lon="13.732372960075736">
        <ele>116.45999999999999</ele>
        <time>2024-09-18T16:23:36Z</time>
      </trkpt>
      <trkpt lat="51.050782995298505" lon="13.732372960075736">
        <ele>115.98</ele>
        <time>2024-09-18T16:24:28Z</time>
      </trkpt>
      <trkpt lat="51.050782995298505" lon="13.732372960075736">
        <ele>115.5</ele>
        <time>2024-09-18T16:25:21Z</time>
      </trkpt>
      <trkpt lat="51.050782995298505" lon="13.732372960075736">
        <ele>115.98</ele>
        <time>2024-09-18T16:26:08Z</time>
      </trkpt>
      <trkpt lat="51.050782995298505" lon="13.732372960075736">
        <ele>116.45999999999999</ele>
        <time>2024-09-18T16:27:02Z</time>
      </trkpt>
      <trkpt lat="51.050782995298505" lon="13.732372960075736">
        <ele>115.98</ele>
        <time>2024-09-18T16:27:53Z</time>
      </trkpt>
      <trkpt lat="51.050782995298505" lon="13.732372960075736">
        <ele>115.98</ele>
        <time>2024-09-18T16:28:40Z</time>
      </trkpt>
      <trkpt lat="51.050605969503522" lon="13.732333984225988">
        <ele>116.94</ele>
        <time>2024-09-18T16:28:50Z</time>
      </trkpt>
      <trkpt lat="51.050559030845761" lon="13.732324009761214">
        <ele>117.42</ele>
        <time>2024-09-18T16:28:51Z</time>
      </trkpt>
      <trkpt lat="51.050227023661137" lon="13.732381006702781">
        <ele>116.94</ele>
        <time>2024-09-18T16:29:01Z</time>
      </trkpt>
      <trkpt lat="51.050028959289193" lon="13.732450995594263">
        <ele>117.42</ele>
        <time>2024-09-18T16:29:10Z</time>
      </trkpt>
      <trkpt lat="51.04997799731791" lon="13.732534982264042">
        <ele>117.90000000000001</ele>
        <time>2024-09-18T16:29:11Z</time>
      </trkpt>
      <trkpt lat="51.049983026459813" lon="13.732564989477396">
        <ele>118.38</ele>
        <time>2024-09-18T16:29:12Z</time>
      </trkpt>
      <trkpt lat="51.049987971782684" lon="13.73259399086237">
        <ele>118.38</ele>
        <time>2024-09-18T16:29:13Z</time>
      </trkpt>
      <trkpt lat="51.049991995096207" lon="13.732620980590582">
        <ele>118.38</ele>
        <time>2024-09-18T16:29:14Z</time>
      </trkpt>
      <trkpt lat="51.049996018409729" lon="13.732649981975555">
        <ele>118.86</ele>
        <time>2024-09-18T16:29:15Z</time>
      </trkpt>
      <trkpt lat="51.0500009637326" lon="13.732677977532148">
        <ele>118.86</ele>
        <time>2024-09-18T16:29:16Z</time>
      </trkpt>
      <trkpt lat="51.050005992874503" lon="13.732713013887405">
        <ele>118.38</ele>
        <time>2024-09-18T16:29:17Z</time>
      </trkpt>
      <trkpt lat="51.050011022016406" lon="13.73274302110076">
        <ele>118.38</ele>
        <time>2024-09-18T16:29:18Z</time>
      </trkpt>
    </trkseg>
  </trk>

</gpx>